<?xml version='1.0' encoding='UTF-8'?><gpx version="1.1" creator="JPX - https://github.com/jenetics/jpx" xmlns="http://www.topografix.com/GPX/1/1"><trk><trkseg><trkpt lat="45.7169667" lon="11.3520283"><ele>233.0</ele><time>2026-04-07T06:54:55.494Z</time></trkpt><trkpt lat="45.716995" lon="11.3521967"><ele>233.0</ele><time>2026-04-07T06:54:56.995Z</time></trkpt><trkpt lat="45.7170133" lon="11.3523367"><ele>233.0</ele><time>2026-04-07T06:54:57.995Z</time></trkpt><trkpt lat="45.7170283" lon="11.352475"><ele>233.0</ele><time>2026-04-07T06:54:58.995Z</time></trkpt><trkpt lat="45.7170383" lon="11.352605"><ele>233.0</ele><time>2026-04-07T06:54:59.994Z</time></trkpt><trkpt lat="45.7170367" lon="11.352725"><ele>232.66666666666669</ele><time>2026-04-07T06:55:00.995Z</time></trkpt><trkpt lat="45.7170183" lon="11.352835"><ele>232.33333333333334</ele><time>2026-04-07T06:55:01.995Z</time></trkpt><trkpt lat="45.7169867" lon="11.352925"><ele>232.0</ele><time>2026-04-07T06:55:02.995Z</time></trkpt><trkpt lat="45.716925" lon="11.35304"><ele>231.66666666666669</ele><time>2026-04-07T06:55:04.995Z</time></trkpt><trkpt lat="45.7168533" lon="11.3531517"><ele>231.33333333333334</ele><time>2026-04-07T06:55:06.994Z</time></trkpt><trkpt lat="45.7168017" lon="11.3532283"><ele>231.0</ele><time>2026-04-07T06:55:07.995Z</time></trkpt><trkpt lat="45.716745" lon="11.3533033"><ele>230.16666666666666</ele><time>2026-04-07T06:55:08.995Z</time></trkpt><trkpt lat="45.7167033" lon="11.3533767"><ele>229.33333333333331</ele><time>2026-04-07T06:55:09.994Z</time></trkpt><trkpt lat="45.7166767" lon="11.3534967"><ele>228.5</ele><time>2026-04-07T06:55:11.994Z</time></trkpt><trkpt lat="45.7167367" lon="11.353585"><ele>227.66666666666666</ele><time>2026-04-07T06:55:13.995Z</time></trkpt><trkpt lat="45.7168083" lon="11.353615"><ele>226.83333333333331</ele><time>2026-04-07T06:55:14.994Z</time></trkpt><trkpt lat="45.7169017" lon="11.3536517"><ele>226.0</ele><time>2026-04-07T06:55:15.995Z</time></trkpt><trkpt lat="45.7170033" lon="11.353735"><ele>226.0</ele><time>2026-04-07T06:55:16.994Z</time></trkpt><trkpt lat="45.717115" lon="11.35385"><ele>226.0</ele><time>2026-04-07T06:55:17.995Z</time></trkpt><trkpt lat="45.71722" lon="11.3539717"><ele>226.0</ele><time>2026-04-07T06:55:18.995Z</time></trkpt><trkpt lat="45.7172883" lon="11.35411"><ele>226.0</ele><time>2026-04-07T06:55:19.995Z</time></trkpt><trkpt lat="45.71734" lon="11.3542383"><ele>224.4</ele><time>2026-04-07T06:55:20.994Z</time></trkpt><trkpt lat="45.7173633" lon="11.354385"><ele>222.8</ele><time>2026-04-07T06:55:21.995Z</time></trkpt><trkpt lat="45.71735" lon="11.35455"><ele>221.20000000000002</ele><time>2026-04-07T06:55:22.995Z</time></trkpt><trkpt lat="45.71734" lon="11.354705"><ele>219.60000000000002</ele><time>2026-04-07T06:55:23.995Z</time></trkpt><trkpt lat="45.7173467" lon="11.3548667"><ele>218.0</ele><time>2026-04-07T06:55:24.995Z</time></trkpt><trkpt lat="45.7173467" lon="11.3550217"><ele>218.60000000000002</ele><time>2026-04-07T06:55:25.994Z</time></trkpt><trkpt lat="45.7173933" lon="11.3551517"><ele>219.20000000000002</ele><time>2026-04-07T06:55:26.995Z</time></trkpt><trkpt lat="45.7174667" lon="11.3552483"><ele>219.8</ele><time>2026-04-07T06:55:27.995Z</time></trkpt><trkpt lat="45.7175717" lon="11.3553083"><ele>220.4</ele><time>2026-04-07T06:55:28.995Z</time></trkpt><trkpt lat="45.7176883" lon="11.3553683"><ele>221.0</ele><time>2026-04-07T06:55:29.995Z</time></trkpt><trkpt lat="45.7178133" lon="11.3554367"><ele>221.0</ele><time>2026-04-07T06:55:30.994Z</time></trkpt><trkpt lat="45.7179317" lon="11.3554783"><ele>221.00000000000003</ele><time>2026-04-07T06:55:31.994Z</time></trkpt><trkpt lat="45.7180333" lon="11.35552"><ele>221.00000000000003</ele><time>2026-04-07T06:55:32.995Z</time></trkpt><trkpt lat="45.7181217" lon="11.3555683"><ele>221.0</ele><time>2026-04-07T06:55:33.995Z</time></trkpt><trkpt lat="45.718195" lon="11.3556233"><ele>221.0</ele><time>2026-04-07T06:55:34.995Z</time></trkpt><trkpt lat="45.71825" lon="11.3557167"><ele>219.60000000000002</ele><time>2026-04-07T06:55:35.994Z</time></trkpt><trkpt lat="45.71828" lon="11.35584"><ele>218.20000000000002</ele><time>2026-04-07T06:55:36.995Z</time></trkpt><trkpt lat="45.718305" lon="11.3559883"><ele>216.79999999999998</ele><time>2026-04-07T06:55:37.995Z</time></trkpt><trkpt lat="45.7183117" lon="11.3561383"><ele>215.39999999999998</ele><time>2026-04-07T06:55:38.995Z</time></trkpt><trkpt lat="45.7183133" lon="11.3562717"><ele>214.0</ele><time>2026-04-07T06:55:39.994Z</time></trkpt><trkpt lat="45.718295" lon="11.3564"><ele>212.79999999999998</ele><time>2026-04-07T06:55:40.994Z</time></trkpt><trkpt lat="45.71825" lon="11.35651"><ele>211.59999999999997</ele><time>2026-04-07T06:55:41.995Z</time></trkpt><trkpt lat="45.7181833" lon="11.3566017"><ele>210.4</ele><time>2026-04-07T06:55:42.995Z</time></trkpt><trkpt lat="45.7180817" lon="11.3566817"><ele>209.2</ele><time>2026-04-07T06:55:43.994Z</time></trkpt><trkpt lat="45.717945" lon="11.356765"><ele>208.0</ele><time>2026-04-07T06:55:44.995Z</time></trkpt><trkpt lat="45.7177967" lon="11.35686"><ele>206.0</ele><time>2026-04-07T06:55:45.994Z</time></trkpt><trkpt lat="45.7176567" lon="11.3569517"><ele>204.0</ele><time>2026-04-07T06:55:46.994Z</time></trkpt><trkpt lat="45.7175217" lon="11.3570217"><ele>202.0</ele><time>2026-04-07T06:55:47.994Z</time></trkpt><trkpt lat="45.7173933" lon="11.35705"><ele>200.0</ele><time>2026-04-07T06:55:48.995Z</time></trkpt><trkpt lat="45.7172767" lon="11.3570433"><ele>200.0</ele><time>2026-04-07T06:55:49.994Z</time></trkpt><trkpt lat="45.7171567" lon="11.3569883"><ele>200.0</ele><time>2026-04-07T06:55:50.995Z</time></trkpt><trkpt lat="45.7170183" lon="11.3569217"><ele>200.0</ele><time>2026-04-07T06:55:51.995Z</time></trkpt><trkpt lat="45.7168867" lon="11.356895"><ele>200.0</ele><time>2026-04-07T06:55:52.995Z</time></trkpt><trkpt lat="45.7167717" lon="11.3569033"><ele>199.75</ele><time>2026-04-07T06:55:53.994Z</time></trkpt><trkpt lat="45.7166667" lon="11.35696"><ele>199.5</ele><time>2026-04-07T06:55:54.995Z</time></trkpt><trkpt lat="45.7165717" lon="11.35706"><ele>199.25</ele><time>2026-04-07T06:55:55.995Z</time></trkpt><trkpt lat="45.7164833" lon="11.357175"><ele>199.0</ele><time>2026-04-07T06:55:56.995Z</time></trkpt><trkpt lat="45.7163833" lon="11.3572817"><ele>198.6</ele><time>2026-04-07T06:55:57.994Z</time></trkpt><trkpt lat="45.7162767" lon="11.35739"><ele>198.2</ele><time>2026-04-07T06:55:58.995Z</time></trkpt><trkpt lat="45.7161883" lon="11.3575033"><ele>197.79999999999998</ele><time>2026-04-07T06:55:59.995Z</time></trkpt><trkpt lat="45.716105" lon="11.357595"><ele>197.39999999999998</ele><time>2026-04-07T06:56:00.995Z</time></trkpt><trkpt lat="45.7160333" lon="11.35766"><ele>197.0</ele><time>2026-04-07T06:56:01.995Z</time></trkpt><trkpt lat="45.71597" lon="11.3578"><ele>196.8</ele><time>2026-04-07T06:56:03.994Z</time></trkpt><trkpt lat="45.715995" lon="11.3579683"><ele>196.6</ele><time>2026-04-07T06:56:05.995Z</time></trkpt><trkpt lat="45.7160333" lon="11.3580967"><ele>196.4</ele><time>2026-04-07T06:56:07.995Z</time></trkpt><trkpt lat="45.7160817" lon="11.358195"><ele>196.20000000000002</ele><time>2026-04-07T06:56:09.995Z</time></trkpt><trkpt lat="45.7161633" lon="11.3583467"><ele>196.0</ele><time>2026-04-07T06:56:11.994Z</time></trkpt><trkpt lat="45.7162117" lon="11.3584283"><ele>196.0</ele><time>2026-04-07T06:56:12.995Z</time></trkpt><trkpt lat="45.7162583" lon="11.3585033"><ele>196.0</ele><time>2026-04-07T06:56:13.994Z</time></trkpt><trkpt lat="45.7163067" lon="11.3585683"><ele>196.0</ele><time>2026-04-07T06:56:14.995Z</time></trkpt><trkpt lat="45.7163867" lon="11.358685"><ele>196.0</ele><time>2026-04-07T06:56:16.995Z</time></trkpt><trkpt lat="45.716455" lon="11.3588283"><ele>196.0</ele><time>2026-04-07T06:56:18.994Z</time></trkpt><trkpt lat="45.7165033" lon="11.358935"><ele>196.8</ele><time>2026-04-07T06:56:19.995Z</time></trkpt><trkpt lat="45.71656" lon="11.35905"><ele>197.60000000000002</ele><time>2026-04-07T06:56:20.994Z</time></trkpt><trkpt lat="45.7166333" lon="11.359185"><ele>198.4</ele><time>2026-04-07T06:56:21.995Z</time></trkpt><trkpt lat="45.7167" lon="11.359315"><ele>199.2</ele><time>2026-04-07T06:56:22.994Z</time></trkpt><trkpt lat="45.7167683" lon="11.3594433"><ele>200.0</ele><time>2026-04-07T06:56:23.994Z</time></trkpt><trkpt lat="45.716835" lon="11.359555"><ele>200.0</ele><time>2026-04-07T06:56:24.995Z</time></trkpt><trkpt lat="45.71689" lon="11.3596417"><ele>200.0</ele><time>2026-04-07T06:56:25.995Z</time></trkpt><trkpt lat="45.7169283" lon="11.3597283"><ele>200.0</ele><time>2026-04-07T06:56:26.995Z</time></trkpt><trkpt lat="45.7169317" lon="11.35987"><ele>200.0</ele><time>2026-04-07T06:56:28.995Z</time></trkpt><trkpt lat="45.7169067" lon="11.360005"><ele>200.0</ele><time>2026-04-07T06:56:30.993Z</time></trkpt><trkpt lat="45.7168467" lon="11.3601217"><ele>200.0</ele><time>2026-04-07T06:56:32.994Z</time></trkpt><trkpt lat="45.716775" lon="11.3601517"><ele>200.0</ele><time>2026-04-07T06:56:33.994Z</time></trkpt><trkpt lat="45.7166317" lon="11.3601233"><ele>200.0</ele><time>2026-04-07T06:56:35.994Z</time></trkpt><trkpt lat="45.7165333" lon="11.3600833"><ele>200.0</ele><time>2026-04-07T06:56:36.994Z</time></trkpt><trkpt lat="45.7164367" lon="11.3600533"><ele>200.0</ele><time>2026-04-07T06:56:37.993Z</time></trkpt><trkpt lat="45.7163367" lon="11.3600317"><ele>200.00000000000003</ele><time>2026-04-07T06:56:38.994Z</time></trkpt><trkpt lat="45.716255" lon="11.3600067"><ele>200.0</ele><time>2026-04-07T06:56:39.994Z</time></trkpt><trkpt lat="45.7161817" lon="11.3599817"><ele>200.0</ele><time>2026-04-07T06:56:40.993Z</time></trkpt><trkpt lat="45.7161117" lon="11.3599667"><ele>200.0</ele><time>2026-04-07T06:56:41.993Z</time></trkpt><trkpt lat="45.716045" lon="11.3599683"><ele>200.00000000000003</ele><time>2026-04-07T06:56:42.994Z</time></trkpt><trkpt lat="45.7159267" lon="11.3599367"><ele>200.0</ele><time>2026-04-07T06:56:44.994Z</time></trkpt><trkpt lat="45.7158667" lon="11.3599067"><ele>199.83333333333334</ele><time>2026-04-07T06:56:45.994Z</time></trkpt><trkpt lat="45.7157517" lon="11.3598767"><ele>199.66666666666669</ele><time>2026-04-07T06:56:47.994Z</time></trkpt><trkpt lat="45.7156833" lon="11.3598617"><ele>199.5</ele><time>2026-04-07T06:56:48.994Z</time></trkpt><trkpt lat="45.7156133" lon="11.3598567"><ele>199.33333333333331</ele><time>2026-04-07T06:56:49.993Z</time></trkpt><trkpt lat="45.71555" lon="11.3598717"><ele>199.16666666666666</ele><time>2026-04-07T06:56:50.994Z</time></trkpt><trkpt lat="45.7154617" lon="11.359925"><ele>199.0</ele><time>2026-04-07T06:56:52.993Z</time></trkpt><trkpt lat="45.7154183" lon="11.3599983"><ele>198.99999999999997</ele><time>2026-04-07T06:56:56.993Z</time></trkpt><trkpt lat="45.7153483" lon="11.3600383"><ele>199.0</ele><time>2026-04-07T06:57:06.994Z</time></trkpt><trkpt lat="45.715265" lon="11.3601133"><ele>199.0</ele><time>2026-04-07T06:57:09.993Z</time></trkpt><trkpt lat="45.7152017" lon="11.3601617"><ele>199.0</ele><time>2026-04-07T06:57:11.993Z</time></trkpt><trkpt lat="45.715145" lon="11.360215"><ele>198.99999999999997</ele><time>2026-04-07T06:57:14.994Z</time></trkpt><trkpt lat="45.7150967" lon="11.3603017"><ele>199.0</ele><time>2026-04-07T06:57:17.993Z</time></trkpt><trkpt lat="45.7151083" lon="11.3604033"><ele>199.2</ele><time>2026-04-07T06:57:19.993Z</time></trkpt><trkpt lat="45.715185" lon="11.36055"><ele>199.39999999999998</ele><time>2026-04-07T06:57:21.994Z</time></trkpt><trkpt lat="45.715235" lon="11.360635"><ele>199.6</ele><time>2026-04-07T06:57:22.994Z</time></trkpt><trkpt lat="45.7152817" lon="11.3607467"><ele>199.8</ele><time>2026-04-07T06:57:23.994Z</time></trkpt><trkpt lat="45.715345" lon="11.3608583"><ele>200.0</ele><time>2026-04-07T06:57:24.994Z</time></trkpt><trkpt lat="45.7154" lon="11.3609867"><ele>199.8</ele><time>2026-04-07T06:57:25.994Z</time></trkpt><trkpt lat="45.71546" lon="11.3611017"><ele>199.6</ele><time>2026-04-07T06:57:26.993Z</time></trkpt><trkpt lat="45.71551" lon="11.3612167"><ele>199.39999999999998</ele><time>2026-04-07T06:57:27.994Z</time></trkpt><trkpt lat="45.7155617" lon="11.3613117"><ele>199.2</ele><time>2026-04-07T06:57:28.994Z</time></trkpt><trkpt lat="45.715605" lon="11.36141"><ele>199.0</ele><time>2026-04-07T06:57:29.993Z</time></trkpt><trkpt lat="45.71565" lon="11.361535"><ele>199.0</ele><time>2026-04-07T06:57:30.994Z</time></trkpt><trkpt lat="45.71568" lon="11.3616633"><ele>199.0</ele><time>2026-04-07T06:57:31.993Z</time></trkpt><trkpt lat="45.715705" lon="11.3617867"><ele>199.0</ele><time>2026-04-07T06:57:32.993Z</time></trkpt><trkpt lat="45.7157217" lon="11.3618867"><ele>199.0</ele><time>2026-04-07T06:57:33.993Z</time></trkpt><trkpt lat="45.71576" lon="11.3620133"><ele>199.0</ele><time>2026-04-07T06:57:35.994Z</time></trkpt><trkpt lat="45.7158617" lon="11.36201"><ele>199.0</ele><time>2026-04-07T06:57:38.993Z</time></trkpt><trkpt lat="45.71593" lon="11.3619833"><ele>199.0</ele><time>2026-04-07T06:57:39.994Z</time></trkpt><trkpt lat="45.716015" lon="11.36191"><ele>199.0</ele><time>2026-04-07T06:57:40.993Z</time></trkpt><trkpt lat="45.7161133" lon="11.3617733"><ele>199.0</ele><time>2026-04-07T06:57:41.994Z</time></trkpt><trkpt lat="45.7161967" lon="11.3616217"><ele>199.0</ele><time>2026-04-07T06:57:42.994Z</time></trkpt><trkpt lat="45.7163167" lon="11.3614333"><ele>198.79999999999998</ele><time>2026-04-07T06:57:43.994Z</time></trkpt><trkpt lat="45.7164017" lon="11.3612783"><ele>198.6</ele><time>2026-04-07T06:57:44.994Z</time></trkpt><trkpt lat="45.7164783" lon="11.36115"><ele>198.4</ele><time>2026-04-07T06:57:45.993Z</time></trkpt><trkpt lat="45.7165367" lon="11.3610633"><ele>198.2</ele><time>2026-04-07T06:57:46.994Z</time></trkpt><trkpt lat="45.7165817" lon="11.36099"><ele>198.0</ele><time>2026-04-07T06:57:47.993Z</time></trkpt><trkpt lat="45.71664" lon="11.3609067"><ele>198.0</ele><time>2026-04-07T06:57:49.993Z</time></trkpt><trkpt lat="45.7167017" lon="11.3609767"><ele>198.0</ele><time>2026-04-07T06:57:53.994Z</time></trkpt><trkpt lat="45.7167133" lon="11.361095"><ele>198.0</ele><time>2026-04-07T06:57:55.994Z</time></trkpt><trkpt lat="45.71668" lon="11.3612467"><ele>198.0</ele><time>2026-04-07T06:57:57.994Z</time></trkpt><trkpt lat="45.7166417" lon="11.3614067"><ele>198.0</ele><time>2026-04-07T06:57:59.994Z</time></trkpt><trkpt lat="45.7165717" lon="11.3615217"><ele>197.83333333333334</ele><time>2026-04-07T06:58:01.994Z</time></trkpt><trkpt lat="45.7164917" lon="11.361595"><ele>197.66666666666669</ele><time>2026-04-07T06:58:03.994Z</time></trkpt><trkpt lat="45.7164533" lon="11.361735"><ele>197.5</ele><time>2026-04-07T06:58:22.994Z</time></trkpt><trkpt lat="45.716515" lon="11.3618"><ele>197.33333333333334</ele><time>2026-04-07T07:10:15.991Z</time></trkpt><trkpt lat="45.7165633" lon="11.3618917"><ele>197.16666666666669</ele><time>2026-04-07T07:10:17.991Z</time></trkpt><trkpt lat="45.7166117" lon="11.3619933"><ele>197.0</ele><time>2026-04-07T07:10:19.99Z</time></trkpt><trkpt lat="45.716615" lon="11.3620983"><ele>197.0</ele><time>2026-04-07T07:10:25.991Z</time></trkpt><trkpt lat="45.7164933" lon="11.3622467"><ele>197.0</ele><time>2026-04-07T07:10:27.99Z</time></trkpt><trkpt lat="45.7164" lon="11.3623483"><ele>197.0</ele><time>2026-04-07T07:10:28.99Z</time></trkpt><trkpt lat="45.7163033" lon="11.362445"><ele>197.0</ele><time>2026-04-07T07:10:29.99Z</time></trkpt><trkpt lat="45.7162133" lon="11.3625267"><ele>197.0</ele><time>2026-04-07T07:10:30.99Z</time></trkpt><trkpt lat="45.71612" lon="11.36261"><ele>197.0</ele><time>2026-04-07T07:10:31.991Z</time></trkpt><trkpt lat="45.7160333" lon="11.3626983"><ele>197.0</ele><time>2026-04-07T07:10:32.99Z</time></trkpt><trkpt lat="45.7159433" lon="11.3627917"><ele>197.0</ele><time>2026-04-07T07:10:33.991Z</time></trkpt><trkpt lat="45.71585" lon="11.362875"><ele>197.0</ele><time>2026-04-07T07:10:34.99Z</time></trkpt><trkpt lat="45.7157567" lon="11.36297"><ele>197.5</ele><time>2026-04-07T07:10:35.99Z</time></trkpt><trkpt lat="45.7156667" lon="11.3630617"><ele>198.0</ele><time>2026-04-07T07:10:36.991Z</time></trkpt><trkpt lat="45.71557" lon="11.3631583"><ele>198.5</ele><time>2026-04-07T07:10:37.991Z</time></trkpt><trkpt lat="45.7154767" lon="11.363255"><ele>199.0</ele><time>2026-04-07T07:10:38.991Z</time></trkpt><trkpt lat="45.7153667" lon="11.3633467"><ele>199.0</ele><time>2026-04-07T07:10:39.991Z</time></trkpt><trkpt lat="45.715255" lon="11.3634433"><ele>199.0</ele><time>2026-04-07T07:10:40.99Z</time></trkpt><trkpt lat="45.7151633" lon="11.363525"><ele>199.0</ele><time>2026-04-07T07:10:41.991Z</time></trkpt><trkpt lat="45.71508" lon="11.3635967"><ele>199.0</ele><time>2026-04-07T07:10:42.991Z</time></trkpt><trkpt lat="45.7149967" lon="11.3636817"><ele>199.0</ele><time>2026-04-07T07:10:43.99Z</time></trkpt><trkpt lat="45.7149233" lon="11.36375"><ele>198.99999999999997</ele><time>2026-04-07T07:10:44.991Z</time></trkpt><trkpt lat="45.7148467" lon="11.3637933"><ele>199.0</ele><time>2026-04-07T07:10:45.99Z</time></trkpt><trkpt lat="45.7147817" lon="11.3638383"><ele>199.0</ele><time>2026-04-07T07:10:46.991Z</time></trkpt><trkpt lat="45.71467" lon="11.36388"><ele>199.0</ele><time>2026-04-07T07:10:48.99Z</time></trkpt><trkpt lat="45.7146" lon="11.3639133"><ele>198.99999999999997</ele><time>2026-04-07T07:10:49.991Z</time></trkpt><trkpt lat="45.714525" lon="11.36399"><ele>199.0</ele><time>2026-04-07T07:10:50.99Z</time></trkpt><trkpt lat="45.7144467" lon="11.36408"><ele>198.25</ele><time>2026-04-07T07:10:51.991Z</time></trkpt><trkpt lat="45.71435" lon="11.3641783"><ele>197.5</ele><time>2026-04-07T07:10:52.991Z</time></trkpt><trkpt lat="45.714245" lon="11.364265"><ele>196.75</ele><time>2026-04-07T07:10:53.991Z</time></trkpt><trkpt lat="45.7141367" lon="11.364355"><ele>196.0</ele><time>2026-04-07T07:10:54.99Z</time></trkpt><trkpt lat="45.7140267" lon="11.3644517"><ele>196.0</ele><time>2026-04-07T07:10:55.991Z</time></trkpt><trkpt lat="45.7139233" lon="11.364555"><ele>196.0</ele><time>2026-04-07T07:10:56.99Z</time></trkpt><trkpt lat="45.7138083" lon="11.3646583"><ele>196.0</ele><time>2026-04-07T07:10:57.991Z</time></trkpt><trkpt lat="45.71369" lon="11.3647767"><ele>196.0</ele><time>2026-04-07T07:10:58.991Z</time></trkpt><trkpt lat="45.7135833" lon="11.3648867"><ele>195.0</ele><time>2026-04-07T07:10:59.991Z</time></trkpt><trkpt lat="45.7134783" lon="11.3649833"><ele>194.0</ele><time>2026-04-07T07:11:00.991Z</time></trkpt><trkpt lat="45.7133883" lon="11.3650667"><ele>193.0</ele><time>2026-04-07T07:11:01.991Z</time></trkpt><trkpt lat="45.7132983" lon="11.3651517"><ele>192.0</ele><time>2026-04-07T07:11:02.99Z</time></trkpt><trkpt lat="45.7132167" lon="11.36522"><ele>191.0</ele><time>2026-04-07T07:11:03.991Z</time></trkpt><trkpt lat="45.7131383" lon="11.3652867"><ele>191.0</ele><time>2026-04-07T07:11:04.991Z</time></trkpt><trkpt lat="45.7130667" lon="11.365305"><ele>191.0</ele><time>2026-04-07T07:11:05.99Z</time></trkpt><trkpt lat="45.7129833" lon="11.3652833"><ele>191.0</ele><time>2026-04-07T07:11:06.991Z</time></trkpt><trkpt lat="45.7129017" lon="11.3652517"><ele>191.0</ele><time>2026-04-07T07:11:07.991Z</time></trkpt><trkpt lat="45.71282" lon="11.3652267"><ele>191.0</ele><time>2026-04-07T07:11:08.991Z</time></trkpt><trkpt lat="45.7127567" lon="11.3652317"><ele>191.0</ele><time>2026-04-07T07:11:09.99Z</time></trkpt><trkpt lat="45.7126983" lon="11.365285"><ele>190.20000000000002</ele><time>2026-04-07T07:11:10.99Z</time></trkpt><trkpt lat="45.712655" lon="11.3653917"><ele>189.4</ele><time>2026-04-07T07:11:11.99Z</time></trkpt><trkpt lat="45.7126267" lon="11.3655333"><ele>188.6</ele><time>2026-04-07T07:11:12.99Z</time></trkpt><trkpt lat="45.7125867" lon="11.3656917"><ele>187.8</ele><time>2026-04-07T07:11:13.991Z</time></trkpt><trkpt lat="45.7125267" lon="11.365845"><ele>187.0</ele><time>2026-04-07T07:11:14.991Z</time></trkpt><trkpt lat="45.7124317" lon="11.3659817"><ele>187.0</ele><time>2026-04-07T07:11:15.991Z</time></trkpt><trkpt lat="45.712315" lon="11.3660967"><ele>187.0</ele><time>2026-04-07T07:11:16.991Z</time></trkpt><trkpt lat="45.7121967" lon="11.3661883"><ele>187.0</ele><time>2026-04-07T07:11:17.99Z</time></trkpt><trkpt lat="45.7120767" lon="11.3662933"><ele>187.0</ele><time>2026-04-07T07:11:18.991Z</time></trkpt><trkpt lat="45.711965" lon="11.36641"><ele>187.5</ele><time>2026-04-07T07:11:19.991Z</time></trkpt><trkpt lat="45.71186" lon="11.366505"><ele>188.0</ele><time>2026-04-07T07:11:20.991Z</time></trkpt><trkpt lat="45.71178" lon="11.366605"><ele>188.5</ele><time>2026-04-07T07:11:21.99Z</time></trkpt><trkpt lat="45.71169" lon="11.3666967"><ele>189.0</ele><time>2026-04-07T07:11:22.991Z</time></trkpt><trkpt lat="45.711595" lon="11.366775"><ele>189.0</ele><time>2026-04-07T07:11:23.991Z</time></trkpt><trkpt lat="45.7114983" lon="11.36686"><ele>189.0</ele><time>2026-04-07T07:11:24.991Z</time></trkpt><trkpt lat="45.7114133" lon="11.3669533"><ele>189.0</ele><time>2026-04-07T07:11:25.991Z</time></trkpt><trkpt lat="45.7113217" lon="11.3670317"><ele>189.0</ele><time>2026-04-07T07:11:26.99Z</time></trkpt><trkpt lat="45.7112183" lon="11.3670767"><ele>189.0</ele><time>2026-04-07T07:11:27.99Z</time></trkpt><trkpt lat="45.7111017" lon="11.36709"><ele>188.5</ele><time>2026-04-07T07:11:28.991Z</time></trkpt><trkpt lat="45.7109933" lon="11.3671017"><ele>188.0</ele><time>2026-04-07T07:11:29.991Z</time></trkpt><trkpt lat="45.7108783" lon="11.367085"><ele>187.5</ele><time>2026-04-07T07:11:30.99Z</time></trkpt><trkpt lat="45.710765" lon="11.36704"><ele>187.0</ele><time>2026-04-07T07:11:31.991Z</time></trkpt><trkpt lat="45.7106617" lon="11.3669817"><ele>187.0</ele><time>2026-04-07T07:11:32.99Z</time></trkpt><trkpt lat="45.7105833" lon="11.36688"><ele>187.0</ele><time>2026-04-07T07:11:33.991Z</time></trkpt><trkpt lat="45.7105167" lon="11.3667733"><ele>187.0</ele><time>2026-04-07T07:11:34.99Z</time></trkpt><trkpt lat="45.71045" lon="11.3666333"><ele>187.0</ele><time>2026-04-07T07:11:35.99Z</time></trkpt><trkpt lat="45.7103833" lon="11.3665083"><ele>187.0</ele><time>2026-04-07T07:11:36.991Z</time></trkpt><trkpt lat="45.71033" lon="11.3663567"><ele>187.25</ele><time>2026-04-07T07:11:37.99Z</time></trkpt><trkpt lat="45.7102917" lon="11.3662"><ele>187.5</ele><time>2026-04-07T07:11:38.991Z</time></trkpt><trkpt lat="45.7102567" lon="11.36604"><ele>187.75</ele><time>2026-04-07T07:11:39.99Z</time></trkpt><trkpt lat="45.7102233" lon="11.3658783"><ele>188.0</ele><time>2026-04-07T07:11:40.991Z</time></trkpt><trkpt lat="45.7101983" lon="11.36571"><ele>187.75</ele><time>2026-04-07T07:11:41.991Z</time></trkpt><trkpt lat="45.7101717" lon="11.3655467"><ele>187.5</ele><time>2026-04-07T07:11:42.991Z</time></trkpt><trkpt lat="45.7101533" lon="11.365375"><ele>187.25</ele><time>2026-04-07T07:11:43.991Z</time></trkpt><trkpt lat="45.71013" lon="11.3652017"><ele>187.0</ele><time>2026-04-07T07:11:44.991Z</time></trkpt><trkpt lat="45.7101017" lon="11.3650383"><ele>187.0</ele><time>2026-04-07T07:11:45.991Z</time></trkpt><trkpt lat="45.7100733" lon="11.3648683"><ele>187.0</ele><time>2026-04-07T07:11:46.991Z</time></trkpt><trkpt lat="45.710045" lon="11.3646967"><ele>187.0</ele><time>2026-04-07T07:11:47.991Z</time></trkpt><trkpt lat="45.7100167" lon="11.364535"><ele>187.0</ele><time>2026-04-07T07:11:48.99Z</time></trkpt><trkpt lat="45.7099917" lon="11.3643733"><ele>187.25</ele><time>2026-04-07T07:11:49.99Z</time></trkpt><trkpt lat="45.709955" lon="11.3642067"><ele>187.5</ele><time>2026-04-07T07:11:50.989Z</time></trkpt><trkpt lat="45.7099233" lon="11.364045"><ele>187.75</ele><time>2026-04-07T07:11:51.989Z</time></trkpt><trkpt lat="45.709895" lon="11.3638783"><ele>188.0</ele><time>2026-04-07T07:11:52.99Z</time></trkpt><trkpt lat="45.7098733" lon="11.3637083"><ele>188.0</ele><time>2026-04-07T07:11:53.99Z</time></trkpt><trkpt lat="45.7098533" lon="11.3635417"><ele>188.0</ele><time>2026-04-07T07:11:54.99Z</time></trkpt><trkpt lat="45.7098367" lon="11.3633883"><ele>188.0</ele><time>2026-04-07T07:11:55.99Z</time></trkpt><trkpt lat="45.7098233" lon="11.3632383"><ele>188.0</ele><time>2026-04-07T07:11:56.99Z</time></trkpt><trkpt lat="45.7098167" lon="11.3630867"><ele>188.0</ele><time>2026-04-07T07:11:57.989Z</time></trkpt><trkpt lat="45.7098133" lon="11.3629517"><ele>188.16666666666666</ele><time>2026-04-07T07:11:58.989Z</time></trkpt><trkpt lat="45.7098183" lon="11.36282"><ele>188.33333333333331</ele><time>2026-04-07T07:11:59.989Z</time></trkpt><trkpt lat="45.7098317" lon="11.3626983"><ele>188.5</ele><time>2026-04-07T07:12:00.99Z</time></trkpt><trkpt lat="45.7098467" lon="11.3625767"><ele>188.66666666666666</ele><time>2026-04-07T07:12:01.989Z</time></trkpt><trkpt lat="45.7098667" lon="11.3624733"><ele>188.83333333333334</ele><time>2026-04-07T07:12:02.99Z</time></trkpt><trkpt lat="45.7098917" lon="11.36238"><ele>189.0</ele><time>2026-04-07T07:12:03.989Z</time></trkpt><trkpt lat="45.7099283" lon="11.3622917"><ele>189.0</ele><time>2026-04-07T07:12:04.989Z</time></trkpt><trkpt lat="45.7099683" lon="11.3622017"><ele>189.0</ele><time>2026-04-07T07:12:05.99Z</time></trkpt><trkpt lat="45.71" lon="11.362115"><ele>189.0</ele><time>2026-04-07T07:12:06.989Z</time></trkpt><trkpt lat="45.7099883" lon="11.3619617"><ele>189.0</ele><time>2026-04-07T07:12:08.989Z</time></trkpt><trkpt lat="45.7098833" lon="11.3618983"><ele>189.0</ele><time>2026-04-07T07:12:10.989Z</time></trkpt><trkpt lat="45.7098033" lon="11.3619317"><ele>189.0</ele><time>2026-04-07T07:12:11.989Z</time></trkpt><trkpt lat="45.7097283" lon="11.3619883"><ele>189.0</ele><time>2026-04-07T07:12:12.99Z</time></trkpt><trkpt lat="45.7096483" lon="11.3620467"><ele>189.0</ele><time>2026-04-07T07:12:13.989Z</time></trkpt><trkpt lat="45.7095733" lon="11.3621017"><ele>189.0</ele><time>2026-04-07T07:12:14.989Z</time></trkpt><trkpt lat="45.709465" lon="11.3621333"><ele>189.0</ele><time>2026-04-07T07:12:15.99Z</time></trkpt><trkpt lat="45.709355" lon="11.3622067"><ele>189.0</ele><time>2026-04-07T07:12:16.99Z</time></trkpt><trkpt lat="45.7092533" lon="11.3623083"><ele>189.0</ele><time>2026-04-07T07:12:17.99Z</time></trkpt><trkpt lat="45.7091683" lon="11.36244"><ele>189.0</ele><time>2026-04-07T07:12:18.99Z</time></trkpt><trkpt lat="45.709095" lon="11.36259"><ele>189.0</ele><time>2026-04-07T07:12:19.99Z</time></trkpt><trkpt lat="45.709035" lon="11.3627433"><ele>189.0</ele><time>2026-04-07T07:12:20.989Z</time></trkpt><trkpt lat="45.7089667" lon="11.3628933"><ele>189.0</ele><time>2026-04-07T07:12:21.99Z</time></trkpt><trkpt lat="45.70891" lon="11.3630217"><ele>189.0</ele><time>2026-04-07T07:12:22.99Z</time></trkpt><trkpt lat="45.7088833" lon="11.3631467"><ele>189.0</ele><time>2026-04-07T07:12:23.99Z</time></trkpt><trkpt lat="45.7088467" lon="11.3632667"><ele>189.0</ele><time>2026-04-07T07:12:24.989Z</time></trkpt><trkpt lat="45.7088017" lon="11.3633883"><ele>189.0</ele><time>2026-04-07T07:12:25.99Z</time></trkpt><trkpt lat="45.708765" lon="11.3635067"><ele>188.79999999999998</ele><time>2026-04-07T07:12:26.99Z</time></trkpt><trkpt lat="45.70872" lon="11.3636333"><ele>188.6</ele><time>2026-04-07T07:12:27.989Z</time></trkpt><trkpt lat="45.708675" lon="11.3637717"><ele>188.4</ele><time>2026-04-07T07:12:28.99Z</time></trkpt><trkpt lat="45.7086317" lon="11.36391"><ele>188.2</ele><time>2026-04-07T07:12:29.989Z</time></trkpt><trkpt lat="45.70859" lon="11.3640367"><ele>188.0</ele><time>2026-04-07T07:12:30.989Z</time></trkpt><trkpt lat="45.708555" lon="11.364155"><ele>187.8</ele><time>2026-04-07T07:12:31.989Z</time></trkpt><trkpt lat="45.7085233" lon="11.36427"><ele>187.60000000000002</ele><time>2026-04-07T07:12:32.99Z</time></trkpt><trkpt lat="45.708495" lon="11.3643733"><ele>187.39999999999998</ele><time>2026-04-07T07:12:33.99Z</time></trkpt><trkpt lat="45.7084533" lon="11.364535"><ele>187.2</ele><time>2026-04-07T07:12:35.989Z</time></trkpt><trkpt lat="45.70842" lon="11.3646567"><ele>187.0</ele><time>2026-04-07T07:12:37.989Z</time></trkpt><trkpt lat="45.7083883" lon="11.36476"><ele>187.0</ele><time>2026-04-07T07:12:39.99Z</time></trkpt><trkpt lat="45.7083367" lon="11.36487"><ele>187.0</ele><time>2026-04-07T07:12:41.99Z</time></trkpt><trkpt lat="45.7082933" lon="11.3649467"><ele>187.0</ele><time>2026-04-07T07:12:42.99Z</time></trkpt><trkpt lat="45.7082383" lon="11.3650433"><ele>187.0</ele><time>2026-04-07T07:12:43.989Z</time></trkpt><trkpt lat="45.708195" lon="11.3651583"><ele>187.0</ele><time>2026-04-07T07:12:44.99Z</time></trkpt><trkpt lat="45.7081583" lon="11.3652933"><ele>187.0</ele><time>2026-04-07T07:12:45.989Z</time></trkpt><trkpt lat="45.7081217" lon="11.3654283"><ele>186.8</ele><time>2026-04-07T07:12:46.989Z</time></trkpt><trkpt lat="45.70808" lon="11.36555"><ele>186.6</ele><time>2026-04-07T07:12:47.99Z</time></trkpt><trkpt lat="45.7080333" lon="11.3656633"><ele>186.4</ele><time>2026-04-07T07:12:48.989Z</time></trkpt><trkpt lat="45.7079817" lon="11.365785"><ele>186.20000000000002</ele><time>2026-04-07T07:12:49.99Z</time></trkpt><trkpt lat="45.7079267" lon="11.3659083"><ele>186.0</ele><time>2026-04-07T07:12:50.99Z</time></trkpt><trkpt lat="45.7078667" lon="11.36604"><ele>186.0</ele><time>2026-04-07T07:12:51.989Z</time></trkpt><trkpt lat="45.7078183" lon="11.3661767"><ele>186.0</ele><time>2026-04-07T07:12:52.99Z</time></trkpt><trkpt lat="45.7077633" lon="11.3663083"><ele>186.0</ele><time>2026-04-07T07:12:53.99Z</time></trkpt><trkpt lat="45.7077083" lon="11.366425"><ele>186.0</ele><time>2026-04-07T07:12:54.989Z</time></trkpt><trkpt lat="45.7076517" lon="11.3665467"><ele>186.0</ele><time>2026-04-07T07:12:55.989Z</time></trkpt><trkpt lat="45.7076067" lon="11.366655"><ele>185.66666666666666</ele><time>2026-04-07T07:12:56.99Z</time></trkpt><trkpt lat="45.7075633" lon="11.36676"><ele>185.33333333333334</ele><time>2026-04-07T07:12:57.99Z</time></trkpt><trkpt lat="45.70752" lon="11.3668533"><ele>185.0</ele><time>2026-04-07T07:12:58.989Z</time></trkpt><trkpt lat="45.70748" lon="11.3669333"><ele>184.66666666666669</ele><time>2026-04-07T07:12:59.99Z</time></trkpt><trkpt lat="45.7074383" lon="11.3670633"><ele>184.33333333333334</ele><time>2026-04-07T07:13:01.99Z</time></trkpt><trkpt lat="45.7073883" lon="11.3671717"><ele>184.0</ele><time>2026-04-07T07:13:03.99Z</time></trkpt><trkpt lat="45.7073133" lon="11.3673017"><ele>183.83333333333334</ele><time>2026-04-07T07:13:05.99Z</time></trkpt><trkpt lat="45.707275" lon="11.3673867"><ele>183.66666666666669</ele><time>2026-04-07T07:13:06.989Z</time></trkpt><trkpt lat="45.70723" lon="11.3674617"><ele>183.5</ele><time>2026-04-07T07:13:07.989Z</time></trkpt><trkpt lat="45.70719" lon="11.3675483"><ele>183.33333333333334</ele><time>2026-04-07T07:13:08.99Z</time></trkpt><trkpt lat="45.70715" lon="11.36763"><ele>183.16666666666666</ele><time>2026-04-07T07:13:09.99Z</time></trkpt><trkpt lat="45.7071133" lon="11.36773"><ele>183.0</ele><time>2026-04-07T07:13:10.99Z</time></trkpt><trkpt lat="45.7070733" lon="11.36785"><ele>183.0</ele><time>2026-04-07T07:13:11.989Z</time></trkpt><trkpt lat="45.7070283" lon="11.3680017"><ele>183.0</ele><time>2026-04-07T07:13:12.99Z</time></trkpt><trkpt lat="45.7069683" lon="11.3681583"><ele>183.0</ele><time>2026-04-07T07:13:13.99Z</time></trkpt><trkpt lat="45.7069067" lon="11.3682983"><ele>183.0</ele><time>2026-04-07T07:13:14.99Z</time></trkpt><trkpt lat="45.7068483" lon="11.368425"><ele>182.83333333333334</ele><time>2026-04-07T07:13:15.99Z</time></trkpt><trkpt lat="45.7067967" lon="11.3685417"><ele>182.66666666666666</ele><time>2026-04-07T07:13:16.99Z</time></trkpt><trkpt lat="45.706755" lon="11.3686483"><ele>182.5</ele><time>2026-04-07T07:13:17.99Z</time></trkpt><trkpt lat="45.7067133" lon="11.3687467"><ele>182.33333333333331</ele><time>2026-04-07T07:13:18.989Z</time></trkpt><trkpt lat="45.7066733" lon="11.368825"><ele>182.16666666666666</ele><time>2026-04-07T07:13:19.99Z</time></trkpt><trkpt lat="45.7066433" lon="11.36891"><ele>182.0</ele><time>2026-04-07T07:13:20.99Z</time></trkpt><trkpt lat="45.706605" lon="11.3689833"><ele>182.0</ele><time>2026-04-07T07:13:21.99Z</time></trkpt><trkpt lat="45.7065517" lon="11.3691"><ele>182.0</ele><time>2026-04-07T07:13:23.99Z</time></trkpt><trkpt lat="45.706505" lon="11.3691883"><ele>182.0</ele><time>2026-04-07T07:13:26.99Z</time></trkpt><trkpt lat="45.7064583" lon="11.369305"><ele>182.0</ele><time>2026-04-07T07:13:29.989Z</time></trkpt><trkpt lat="45.7064117" lon="11.3694167"><ele>182.0</ele><time>2026-04-07T07:13:31.989Z</time></trkpt><trkpt lat="45.706345" lon="11.369545"><ele>182.0</ele><time>2026-04-07T07:13:33.99Z</time></trkpt><trkpt lat="45.7062467" lon="11.3696733"><ele>182.0</ele><time>2026-04-07T07:13:35.989Z</time></trkpt><trkpt lat="45.7061767" lon="11.3697217"><ele>182.0</ele><time>2026-04-07T07:13:36.989Z</time></trkpt><trkpt lat="45.7061" lon="11.3697283"><ele>182.0</ele><time>2026-04-07T07:13:37.99Z</time></trkpt><trkpt lat="45.7060117" lon="11.3697117"><ele>182.0</ele><time>2026-04-07T07:13:38.989Z</time></trkpt><trkpt lat="45.7059" lon="11.369685"><ele>181.5</ele><time>2026-04-07T07:13:39.99Z</time></trkpt><trkpt lat="45.7057783" lon="11.369625"><ele>181.0</ele><time>2026-04-07T07:13:40.99Z</time></trkpt><trkpt lat="45.70565" lon="11.3695533"><ele>180.5</ele><time>2026-04-07T07:13:41.989Z</time></trkpt><trkpt lat="45.7055117" lon="11.3694833"><ele>180.0</ele><time>2026-04-07T07:13:42.99Z</time></trkpt><trkpt lat="45.7053667" lon="11.3694"><ele>179.75</ele><time>2026-04-07T07:13:43.99Z</time></trkpt><trkpt lat="45.70524" lon="11.3693133"><ele>179.5</ele><time>2026-04-07T07:13:44.99Z</time></trkpt><trkpt lat="45.7051283" lon="11.3691983"><ele>179.25</ele><time>2026-04-07T07:13:45.989Z</time></trkpt><trkpt lat="45.7050117" lon="11.3690683"><ele>179.0</ele><time>2026-04-07T07:13:46.99Z</time></trkpt><trkpt lat="45.7048917" lon="11.3689517"><ele>179.25</ele><time>2026-04-07T07:13:47.989Z</time></trkpt><trkpt lat="45.7047683" lon="11.36884"><ele>179.5</ele><time>2026-04-07T07:13:48.99Z</time></trkpt><trkpt lat="45.704655" lon="11.3687367"><ele>179.75</ele><time>2026-04-07T07:13:49.99Z</time></trkpt><trkpt lat="45.7045483" lon="11.3686417"><ele>180.0</ele><time>2026-04-07T07:13:50.99Z</time></trkpt><trkpt lat="45.7044383" lon="11.3685533"><ele>181.0</ele><time>2026-04-07T07:13:51.99Z</time></trkpt><trkpt lat="45.70433" lon="11.3684567"><ele>182.0</ele><time>2026-04-07T07:13:52.99Z</time></trkpt><trkpt lat="45.7042367" lon="11.368365"><ele>183.0</ele><time>2026-04-07T07:13:53.99Z</time></trkpt><trkpt lat="45.7041483" lon="11.3682817"><ele>184.0</ele><time>2026-04-07T07:13:54.989Z</time></trkpt><trkpt lat="45.7040533" lon="11.3681933"><ele>184.0</ele><time>2026-04-07T07:13:55.989Z</time></trkpt><trkpt lat="45.70396" lon="11.3680983"><ele>184.0</ele><time>2026-04-07T07:13:56.99Z</time></trkpt><trkpt lat="45.7038567" lon="11.36799"><ele>184.0</ele><time>2026-04-07T07:13:57.99Z</time></trkpt><trkpt lat="45.7037533" lon="11.3678767"><ele>184.0</ele><time>2026-04-07T07:13:58.989Z</time></trkpt><trkpt lat="45.703635" lon="11.3677433"><ele>184.66666666666669</ele><time>2026-04-07T07:13:59.99Z</time></trkpt><trkpt lat="45.7035083" lon="11.3675967"><ele>185.33333333333334</ele><time>2026-04-07T07:14:00.99Z</time></trkpt><trkpt lat="45.7033567" lon="11.367445"><ele>186.0</ele><time>2026-04-07T07:14:01.989Z</time></trkpt><trkpt lat="45.7032067" lon="11.3672733"><ele>186.33333333333334</ele><time>2026-04-07T07:14:02.99Z</time></trkpt><trkpt lat="45.7030517" lon="11.36711"><ele>186.66666666666669</ele><time>2026-04-07T07:14:03.989Z</time></trkpt><trkpt lat="45.7029017" lon="11.3669417"><ele>187.0</ele><time>2026-04-07T07:14:04.989Z</time></trkpt><trkpt lat="45.7027533" lon="11.366775"><ele>187.0</ele><time>2026-04-07T07:14:05.989Z</time></trkpt><trkpt lat="45.7025933" lon="11.366615"><ele>187.0</ele><time>2026-04-07T07:14:06.99Z</time></trkpt><trkpt lat="45.7024267" lon="11.3664483"><ele>187.0</ele><time>2026-04-07T07:14:07.99Z</time></trkpt><trkpt lat="45.70226" lon="11.3662883"><ele>187.0</ele><time>2026-04-07T07:14:08.99Z</time></trkpt><trkpt lat="45.70209" lon="11.3661283"><ele>187.0</ele><time>2026-04-07T07:14:09.99Z</time></trkpt><trkpt lat="45.7019067" lon="11.3659717"><ele>187.0</ele><time>2026-04-07T07:14:10.989Z</time></trkpt><trkpt lat="45.701725" lon="11.3658367"><ele>187.66666666666669</ele><time>2026-04-07T07:14:11.99Z</time></trkpt><trkpt lat="45.7015467" lon="11.365685"><ele>188.33333333333334</ele><time>2026-04-07T07:14:12.989Z</time></trkpt><trkpt lat="45.7013633" lon="11.3655467"><ele>189.0</ele><time>2026-04-07T07:14:13.99Z</time></trkpt><trkpt lat="45.701185" lon="11.3653933"><ele>189.66666666666666</ele><time>2026-04-07T07:14:14.99Z</time></trkpt><trkpt lat="45.7010117" lon="11.3652567"><ele>190.33333333333331</ele><time>2026-04-07T07:14:15.99Z</time></trkpt><trkpt lat="45.7008283" lon="11.36511"><ele>191.0</ele><time>2026-04-07T07:14:16.989Z</time></trkpt><trkpt lat="45.7006467" lon="11.3649583"><ele>191.0</ele><time>2026-04-07T07:14:17.989Z</time></trkpt><trkpt lat="45.7004733" lon="11.364795"><ele>191.0</ele><time>2026-04-07T07:14:18.989Z</time></trkpt><trkpt lat="45.7003033" lon="11.3646417"><ele>191.0</ele><time>2026-04-07T07:14:19.99Z</time></trkpt><trkpt lat="45.7001383" lon="11.3644833"><ele>190.66666666666666</ele><time>2026-04-07T07:14:20.99Z</time></trkpt><trkpt lat="45.6999817" lon="11.36432"><ele>190.33333333333334</ele><time>2026-04-07T07:14:21.99Z</time></trkpt><trkpt lat="45.6998217" lon="11.3641583"><ele>190.0</ele><time>2026-04-07T07:14:22.99Z</time></trkpt><trkpt lat="45.6996683" lon="11.36398"><ele>190.33333333333334</ele><time>2026-04-07T07:14:23.99Z</time></trkpt><trkpt lat="45.6995033" lon="11.3637933"><ele>190.66666666666666</ele><time>2026-04-07T07:14:24.99Z</time></trkpt><trkpt lat="45.699345" lon="11.36361"><ele>191.0</ele><time>2026-04-07T07:14:25.989Z</time></trkpt><trkpt lat="45.6991983" lon="11.363405"><ele>191.0</ele><time>2026-04-07T07:14:26.99Z</time></trkpt><trkpt lat="45.6990483" lon="11.3631867"><ele>191.0</ele><time>2026-04-07T07:14:27.99Z</time></trkpt><trkpt lat="45.6989067" lon="11.3629717"><ele>191.0</ele><time>2026-04-07T07:14:28.99Z</time></trkpt><trkpt lat="45.698765" lon="11.3627767"><ele>190.66666666666666</ele><time>2026-04-07T07:14:29.99Z</time></trkpt><trkpt lat="45.6986333" lon="11.3625867"><ele>190.33333333333334</ele><time>2026-04-07T07:14:30.99Z</time></trkpt><trkpt lat="45.69849" lon="11.3624133"><ele>190.0</ele><time>2026-04-07T07:14:31.99Z</time></trkpt><trkpt lat="45.698345" lon="11.3622267"><ele>190.0</ele><time>2026-04-07T07:14:32.99Z</time></trkpt><trkpt lat="45.6981933" lon="11.3620583"><ele>190.0</ele><time>2026-04-07T07:14:33.99Z</time></trkpt><trkpt lat="45.6980283" lon="11.3619083"><ele>190.0</ele><time>2026-04-07T07:14:34.99Z</time></trkpt><trkpt lat="45.69785" lon="11.361775"><ele>189.0</ele><time>2026-04-07T07:14:35.99Z</time></trkpt><trkpt lat="45.697655" lon="11.3616667"><ele>188.0</ele><time>2026-04-07T07:14:36.989Z</time></trkpt><trkpt lat="45.697445" lon="11.3615883"><ele>187.0</ele><time>2026-04-07T07:14:37.989Z</time></trkpt><trkpt lat="45.697225" lon="11.3615383"><ele>187.0</ele><time>2026-04-07T07:14:38.99Z</time></trkpt><trkpt lat="45.6969867" lon="11.3615433"><ele>187.0</ele><time>2026-04-07T07:14:39.99Z</time></trkpt><trkpt lat="45.6967567" lon="11.3615783"><ele>186.0</ele><time>2026-04-07T07:14:40.99Z</time></trkpt><trkpt lat="45.6965383" lon="11.3616517"><ele>185.0</ele><time>2026-04-07T07:14:41.99Z</time></trkpt><trkpt lat="45.6963317" lon="11.361745"><ele>184.0</ele><time>2026-04-07T07:14:42.99Z</time></trkpt><trkpt lat="45.6961267" lon="11.3618717"><ele>185.5</ele><time>2026-04-07T07:14:43.99Z</time></trkpt><trkpt lat="45.6959183" lon="11.3620583"><ele>187.0</ele><time>2026-04-07T07:14:44.989Z</time></trkpt><trkpt lat="45.6957133" lon="11.36226"><ele>187.0</ele><time>2026-04-07T07:14:45.99Z</time></trkpt><trkpt lat="45.6955017" lon="11.362475"><ele>187.0</ele><time>2026-04-07T07:14:46.99Z</time></trkpt><trkpt lat="45.6952967" lon="11.3626917"><ele>188.0</ele><time>2026-04-07T07:14:47.989Z</time></trkpt><trkpt lat="45.69509" lon="11.3629"><ele>189.0</ele><time>2026-04-07T07:14:48.99Z</time></trkpt><trkpt lat="45.6948983" lon="11.3631"><ele>189.0</ele><time>2026-04-07T07:14:49.989Z</time></trkpt><trkpt lat="45.6947233" lon="11.3632717"><ele>189.0</ele><time>2026-04-07T07:14:50.989Z</time></trkpt><trkpt lat="45.69455" lon="11.36345"><ele>189.0</ele><time>2026-04-07T07:14:51.99Z</time></trkpt><trkpt lat="45.6943783" lon="11.3636467"><ele>187.0</ele><time>2026-04-07T07:14:52.99Z</time></trkpt><trkpt lat="45.6942117" lon="11.36382"><ele>185.0</ele><time>2026-04-07T07:14:53.989Z</time></trkpt><trkpt lat="45.6940383" lon="11.364"><ele>183.0</ele><time>2026-04-07T07:14:54.99Z</time></trkpt><trkpt lat="45.693855" lon="11.3641883"><ele>183.0</ele><time>2026-04-07T07:14:55.99Z</time></trkpt><trkpt lat="45.6936867" lon="11.36438"><ele>183.0</ele><time>2026-04-07T07:14:56.989Z</time></trkpt><trkpt lat="45.6935067" lon="11.3645517"><ele>183.0</ele><time>2026-04-07T07:14:57.99Z</time></trkpt><trkpt lat="45.6933233" lon="11.364705"><ele>182.66666666666666</ele><time>2026-04-07T07:14:58.99Z</time></trkpt><trkpt lat="45.6931317" lon="11.3648633"><ele>182.33333333333331</ele><time>2026-04-07T07:14:59.99Z</time></trkpt><trkpt lat="45.6929333" lon="11.3650017"><ele>182.0</ele><time>2026-04-07T07:15:00.99Z</time></trkpt><trkpt lat="45.69273" lon="11.3651083"><ele>187.66666666666666</ele><time>2026-04-07T07:15:01.99Z</time></trkpt><trkpt lat="45.6925233" lon="11.3652"><ele>193.33333333333331</ele><time>2026-04-07T07:15:02.99Z</time></trkpt><trkpt lat="45.692315" lon="11.3652833"><ele>199.0</ele><time>2026-04-07T07:15:03.99Z</time></trkpt><trkpt lat="45.6921033" lon="11.3653717"><ele>195.66666666666666</ele><time>2026-04-07T07:15:04.99Z</time></trkpt><trkpt lat="45.691885" lon="11.3654483"><ele>192.33333333333331</ele><time>2026-04-07T07:15:05.99Z</time></trkpt><trkpt lat="45.6916683" lon="11.3655333"><ele>189.0</ele><time>2026-04-07T07:15:06.99Z</time></trkpt><trkpt lat="45.6907833" lon="11.365705"><ele>184.5</ele><time>2026-04-07T07:15:11.004Z</time></trkpt><trkpt lat="45.6904683" lon="11.3655483"><ele>180.0</ele><time>2026-04-07T07:15:12.003Z</time></trkpt><trkpt lat="45.6902133" lon="11.3655117"><ele>178.0</ele><time>2026-04-07T07:15:13.004Z</time></trkpt><trkpt lat="45.6899267" lon="11.3654517"><ele>176.0</ele><time>2026-04-07T07:15:14.004Z</time></trkpt><trkpt lat="45.6896733" lon="11.36541"><ele>176.0</ele><time>2026-04-07T07:15:15.004Z</time></trkpt><trkpt lat="45.6894267" lon="11.3653867"><ele>176.0</ele><time>2026-04-07T07:15:16.003Z</time></trkpt><trkpt lat="45.6891917" lon="11.3653683"><ele>176.0</ele><time>2026-04-07T07:15:17.003Z</time></trkpt><trkpt lat="45.6889883" lon="11.3653467"><ele>176.0</ele><time>2026-04-07T07:15:18.004Z</time></trkpt><trkpt lat="45.688795" lon="11.3653467"><ele>176.0</ele><time>2026-04-07T07:15:19.004Z</time></trkpt><trkpt lat="45.6885933" lon="11.3653383"><ele>176.0</ele><time>2026-04-07T07:15:20.003Z</time></trkpt><trkpt lat="45.68838" lon="11.3653217"><ele>176.0</ele><time>2026-04-07T07:15:21.004Z</time></trkpt><trkpt lat="45.6881583" lon="11.3652833"><ele>176.0</ele><time>2026-04-07T07:15:22.004Z</time></trkpt><trkpt lat="45.6879317" lon="11.3652333"><ele>176.66666666666666</ele><time>2026-04-07T07:15:23.004Z</time></trkpt><trkpt lat="45.6877083" lon="11.3651833"><ele>177.33333333333334</ele><time>2026-04-07T07:15:24.004Z</time></trkpt><trkpt lat="45.6874933" lon="11.36513"><ele>178.0</ele><time>2026-04-07T07:15:25.003Z</time></trkpt><trkpt lat="45.687295" lon="11.3650717"><ele>178.0</ele><time>2026-04-07T07:15:26.004Z</time></trkpt><trkpt lat="45.6870967" lon="11.3650067"><ele>178.0</ele><time>2026-04-07T07:15:27.003Z</time></trkpt><trkpt lat="45.68691" lon="11.3649283"><ele>178.0</ele><time>2026-04-07T07:15:28.004Z</time></trkpt><trkpt lat="45.6867267" lon="11.364825"><ele>178.66666666666669</ele><time>2026-04-07T07:15:29.004Z</time></trkpt><trkpt lat="45.6865333" lon="11.36471"><ele>179.33333333333334</ele><time>2026-04-07T07:15:30.003Z</time></trkpt><trkpt lat="45.6863333" lon="11.3645717"><ele>180.0</ele><time>2026-04-07T07:15:31.004Z</time></trkpt><trkpt lat="45.6861383" lon="11.3644067"><ele>180.33333333333334</ele><time>2026-04-07T07:15:32.003Z</time></trkpt><trkpt lat="45.685945" lon="11.3642283"><ele>180.66666666666669</ele><time>2026-04-07T07:15:33.003Z</time></trkpt><trkpt lat="45.68577" lon="11.3640417"><ele>181.0</ele><time>2026-04-07T07:15:34.004Z</time></trkpt><trkpt lat="45.6856083" lon="11.3638767"><ele>181.33333333333334</ele><time>2026-04-07T07:15:35.004Z</time></trkpt><trkpt lat="45.6854567" lon="11.3637133"><ele>181.66666666666666</ele><time>2026-04-07T07:15:36.004Z</time></trkpt><trkpt lat="45.6853217" lon="11.3635617"><ele>182.0</ele><time>2026-04-07T07:15:37.004Z</time></trkpt><trkpt lat="45.6852" lon="11.3634217"><ele>182.0</ele><time>2026-04-07T07:15:38.004Z</time></trkpt><trkpt lat="45.6850867" lon="11.3632783"><ele>182.0</ele><time>2026-04-07T07:15:39.004Z</time></trkpt><trkpt lat="45.6849667" lon="11.3631267"><ele>182.0</ele><time>2026-04-07T07:15:40.004Z</time></trkpt><trkpt lat="45.6848633" lon="11.3629567"><ele>182.0</ele><time>2026-04-07T07:15:41.004Z</time></trkpt><trkpt lat="45.6847733" lon="11.3627933"><ele>182.0</ele><time>2026-04-07T07:15:42.003Z</time></trkpt><trkpt lat="45.6846967" lon="11.3626367"><ele>182.0</ele><time>2026-04-07T07:15:43.004Z</time></trkpt><trkpt lat="45.6846217" lon="11.3624933"><ele>182.0</ele><time>2026-04-07T07:15:44.004Z</time></trkpt><trkpt lat="45.6845533" lon="11.3623617"><ele>182.0</ele><time>2026-04-07T07:15:45.004Z</time></trkpt><trkpt lat="45.6844867" lon="11.3622533"><ele>182.0</ele><time>2026-04-07T07:15:46.004Z</time></trkpt><trkpt lat="45.6844317" lon="11.36217"><ele>182.0</ele><time>2026-04-07T07:15:47.003Z</time></trkpt><trkpt lat="45.68439" lon="11.3620917"><ele>182.0</ele><time>2026-04-07T07:15:48.004Z</time></trkpt><trkpt lat="45.6843817" lon="11.3619383"><ele>182.0</ele><time>2026-04-07T07:15:50.004Z</time></trkpt><trkpt lat="45.6844883" lon="11.3618667"><ele>182.16666666666666</ele><time>2026-04-07T07:15:52.003Z</time></trkpt><trkpt lat="45.684575" lon="11.3618583"><ele>182.33333333333331</ele><time>2026-04-07T07:15:53.003Z</time></trkpt><trkpt lat="45.68466" lon="11.361845"><ele>182.5</ele><time>2026-04-07T07:15:54.004Z</time></trkpt><trkpt lat="45.6847283" lon="11.3618"><ele>182.66666666666666</ele><time>2026-04-07T07:15:55.004Z</time></trkpt><trkpt lat="45.6847867" lon="11.3617317"><ele>182.83333333333334</ele><time>2026-04-07T07:15:56.003Z</time></trkpt><trkpt lat="45.68483" lon="11.3616383"><ele>183.0</ele><time>2026-04-07T07:15:57.004Z</time></trkpt><trkpt lat="45.684865" lon="11.361495"><ele>183.75</ele><time>2026-04-07T07:15:58.004Z</time></trkpt><trkpt lat="45.6848933" lon="11.3613267"><ele>184.5</ele><time>2026-04-07T07:15:59.003Z</time></trkpt><trkpt lat="45.68492" lon="11.3611467"><ele>185.25</ele><time>2026-04-07T07:16:00.004Z</time></trkpt><trkpt lat="45.6849467" lon="11.3609867"><ele>186.0</ele><time>2026-04-07T07:16:01.004Z</time></trkpt><trkpt lat="45.68497" lon="11.360825"><ele>186.0</ele><time>2026-04-07T07:16:02.004Z</time></trkpt><trkpt lat="45.685" lon="11.3606767"><ele>186.0</ele><time>2026-04-07T07:16:03.004Z</time></trkpt><trkpt lat="45.6850533" lon="11.3605517"><ele>186.0</ele><time>2026-04-07T07:16:04.003Z</time></trkpt><trkpt lat="45.6851083" lon="11.36045"><ele>186.0</ele><time>2026-04-07T07:16:05.003Z</time></trkpt><trkpt lat="45.6851617" lon="11.3603417"><ele>186.0</ele><time>2026-04-07T07:16:06.004Z</time></trkpt><trkpt lat="45.68521" lon="11.3602417"><ele>186.4</ele><time>2026-04-07T07:16:07.004Z</time></trkpt><trkpt lat="45.68526" lon="11.3601217"><ele>186.8</ele><time>2026-04-07T07:16:08.004Z</time></trkpt><trkpt lat="45.6853133" lon="11.3600083"><ele>187.20000000000002</ele><time>2026-04-07T07:16:09.003Z</time></trkpt><trkpt lat="45.6853567" lon="11.3598633"><ele>187.60000000000002</ele><time>2026-04-07T07:16:10.003Z</time></trkpt><trkpt lat="45.6853933" lon="11.359695"><ele>188.0</ele><time>2026-04-07T07:16:11.004Z</time></trkpt><trkpt lat="45.6854233" lon="11.3595133"><ele>190.33333333333331</ele><time>2026-04-07T07:16:12.003Z</time></trkpt><trkpt lat="45.6854483" lon="11.3593583"><ele>192.66666666666666</ele><time>2026-04-07T07:16:13.004Z</time></trkpt><trkpt lat="45.685465" lon="11.3592417"><ele>195.0</ele><time>2026-04-07T07:16:14.003Z</time></trkpt><trkpt lat="45.6854817" lon="11.3591367"><ele>197.33333333333331</ele><time>2026-04-07T07:16:15.003Z</time></trkpt><trkpt lat="45.68547" lon="11.3590383"><ele>199.66666666666666</ele><time>2026-04-07T07:16:16.004Z</time></trkpt><trkpt lat="45.68543" lon="11.3589283"><ele>202.0</ele><time>2026-04-07T07:16:17.003Z</time></trkpt><trkpt lat="45.6853717" lon="11.3588133"><ele>202.2</ele><time>2026-04-07T07:16:18.004Z</time></trkpt><trkpt lat="45.6853133" lon="11.3587033"><ele>202.39999999999998</ele><time>2026-04-07T07:16:19.004Z</time></trkpt><trkpt lat="45.6852733" lon="11.35859"><ele>202.60000000000002</ele><time>2026-04-07T07:16:20.004Z</time></trkpt><trkpt lat="45.6852517" lon="11.358475"><ele>202.8</ele><time>2026-04-07T07:16:21.004Z</time></trkpt><trkpt lat="45.6852267" lon="11.35835"><ele>203.0</ele><time>2026-04-07T07:16:22.004Z</time></trkpt><trkpt lat="45.685205" lon="11.3582017"><ele>202.4</ele><time>2026-04-07T07:16:23.003Z</time></trkpt><trkpt lat="45.6851867" lon="11.3580467"><ele>201.8</ele><time>2026-04-07T07:16:24.003Z</time></trkpt><trkpt lat="45.6851733" lon="11.3578917"><ele>201.2</ele><time>2026-04-07T07:16:25.003Z</time></trkpt><trkpt lat="45.685165" lon="11.35775"><ele>200.6</ele><time>2026-04-07T07:16:26.004Z</time></trkpt><trkpt lat="45.68515" lon="11.3576033"><ele>200.0</ele><time>2026-04-07T07:16:27.003Z</time></trkpt><trkpt lat="45.6851333" lon="11.357455"><ele>200.0</ele><time>2026-04-07T07:16:28.004Z</time></trkpt><trkpt lat="45.685115" lon="11.357305"><ele>200.0</ele><time>2026-04-07T07:16:29.004Z</time></trkpt><trkpt lat="45.6851017" lon="11.3571617"><ele>200.0</ele><time>2026-04-07T07:16:30.004Z</time></trkpt><trkpt lat="45.6850767" lon="11.35703"><ele>200.0</ele><time>2026-04-07T07:16:31.004Z</time></trkpt><trkpt lat="45.68505" lon="11.3569133"><ele>200.0</ele><time>2026-04-07T07:16:32.004Z</time></trkpt><trkpt lat="45.6850067" lon="11.3567967"><ele>200.6</ele><time>2026-04-07T07:16:33.004Z</time></trkpt><trkpt lat="45.6849517" lon="11.3566867"><ele>201.2</ele><time>2026-04-07T07:16:34.003Z</time></trkpt><trkpt lat="45.684895" lon="11.356575"><ele>201.8</ele><time>2026-04-07T07:16:35.004Z</time></trkpt><trkpt lat="45.68483" lon="11.35647"><ele>202.4</ele><time>2026-04-07T07:16:36.004Z</time></trkpt><trkpt lat="45.684775" lon="11.3563717"><ele>203.0</ele><time>2026-04-07T07:16:37.004Z</time></trkpt><trkpt lat="45.6847383" lon="11.3562717"><ele>203.8</ele><time>2026-04-07T07:16:38.003Z</time></trkpt><trkpt lat="45.68471" lon="11.3561567"><ele>204.60000000000002</ele><time>2026-04-07T07:16:39.003Z</time></trkpt><trkpt lat="45.68469" lon="11.3560267"><ele>205.39999999999998</ele><time>2026-04-07T07:16:40.004Z</time></trkpt><trkpt lat="45.684675" lon="11.35587"><ele>206.2</ele><time>2026-04-07T07:16:41.004Z</time></trkpt><trkpt lat="45.6846683" lon="11.355695"><ele>207.0</ele><time>2026-04-07T07:16:42.003Z</time></trkpt><trkpt lat="45.68466" lon="11.3555217"><ele>207.2</ele><time>2026-04-07T07:16:43.004Z</time></trkpt><trkpt lat="45.6846567" lon="11.3553767"><ele>207.39999999999998</ele><time>2026-04-07T07:16:44.004Z</time></trkpt><trkpt lat="45.684655" lon="11.3552333"><ele>207.60000000000002</ele><time>2026-04-07T07:16:45.004Z</time></trkpt><trkpt lat="45.6846667" lon="11.3550967"><ele>207.8</ele><time>2026-04-07T07:16:46.004Z</time></trkpt><trkpt lat="45.6846933" lon="11.3549633"><ele>208.0</ele><time>2026-04-07T07:16:47.004Z</time></trkpt><trkpt lat="45.6847167" lon="11.354835"><ele>207.99999999999997</ele><time>2026-04-07T07:16:48.003Z</time></trkpt><trkpt lat="45.68473" lon="11.3547133"><ele>208.0</ele><time>2026-04-07T07:16:49.003Z</time></trkpt><trkpt lat="45.6847367" lon="11.354605"><ele>208.0</ele><time>2026-04-07T07:16:50.003Z</time></trkpt><trkpt lat="45.6847283" lon="11.3544567"><ele>208.0</ele><time>2026-04-07T07:16:52.004Z</time></trkpt><trkpt lat="45.6847133" lon="11.354335"><ele>207.99999999999997</ele><time>2026-04-07T07:16:54.003Z</time></trkpt><trkpt lat="45.6847217" lon="11.35422"><ele>208.0</ele><time>2026-04-07T07:16:56.004Z</time></trkpt><trkpt lat="45.6847433" lon="11.3541117"><ele>209.4</ele><time>2026-04-07T07:16:58.004Z</time></trkpt><trkpt lat="45.6847667" lon="11.353985"><ele>210.8</ele><time>2026-04-07T07:17:00.003Z</time></trkpt><trkpt lat="45.68476" lon="11.353845"><ele>212.2</ele><time>2026-04-07T07:17:02.004Z</time></trkpt><trkpt lat="45.6847333" lon="11.3537033"><ele>213.6</ele><time>2026-04-07T07:17:04.004Z</time></trkpt><trkpt lat="45.6847183" lon="11.35356"><ele>215.0</ele><time>2026-04-07T07:17:06.003Z</time></trkpt><trkpt lat="45.6847017" lon="11.3534083"><ele>216.2</ele><time>2026-04-07T07:17:08.004Z</time></trkpt><trkpt lat="45.684675" lon="11.3532167"><ele>217.4</ele><time>2026-04-07T07:17:10.004Z</time></trkpt><trkpt lat="45.6846517" lon="11.353095"><ele>218.60000000000002</ele><time>2026-04-07T07:17:11.003Z</time></trkpt><trkpt lat="45.6846233" lon="11.3529683"><ele>219.8</ele><time>2026-04-07T07:17:12.004Z</time></trkpt><trkpt lat="45.684595" lon="11.3528367"><ele>221.0</ele><time>2026-04-07T07:17:13.003Z</time></trkpt><trkpt lat="45.6845683" lon="11.35271"><ele>222.16666666666669</ele><time>2026-04-07T07:17:14.004Z</time></trkpt><trkpt lat="45.6845417" lon="11.3525817"><ele>223.33333333333334</ele><time>2026-04-07T07:17:15.003Z</time></trkpt><trkpt lat="45.684515" lon="11.3524683"><ele>224.5</ele><time>2026-04-07T07:17:16.004Z</time></trkpt><trkpt lat="45.6844867" lon="11.3523617"><ele>225.66666666666669</ele><time>2026-04-07T07:17:17.003Z</time></trkpt><trkpt lat="45.6844583" lon="11.3522617"><ele>226.83333333333334</ele><time>2026-04-07T07:17:18.003Z</time></trkpt><trkpt lat="45.6843967" lon="11.3521533"><ele>228.0</ele><time>2026-04-07T07:17:20.004Z</time></trkpt><trkpt lat="45.6843283" lon="11.3521467"><ele>227.0</ele><time>2026-04-07T07:17:22.003Z</time></trkpt><trkpt lat="45.6842817" lon="11.352265"><ele>226.0</ele><time>2026-04-07T07:17:25.004Z</time></trkpt><trkpt lat="45.6842767" lon="11.352445"><ele>225.0</ele><time>2026-04-07T07:17:27.004Z</time></trkpt><trkpt lat="45.6842783" lon="11.3525733"><ele>224.0</ele><time>2026-04-07T07:17:28.003Z</time></trkpt><trkpt lat="45.6842767" lon="11.3527183"><ele>223.0</ele><time>2026-04-07T07:17:29.004Z</time></trkpt><trkpt lat="45.6842783" lon="11.3528533"><ele>222.99999999999997</ele><time>2026-04-07T07:17:30.003Z</time></trkpt><trkpt lat="45.6842717" lon="11.3529833"><ele>223.0</ele><time>2026-04-07T07:17:31.004Z</time></trkpt><trkpt lat="45.6842667" lon="11.3530967"><ele>223.0</ele><time>2026-04-07T07:17:32.004Z</time></trkpt><trkpt lat="45.68425" lon="11.3531983"><ele>223.0</ele><time>2026-04-07T07:17:33.003Z</time></trkpt><trkpt lat="45.68421" lon="11.3532983"><ele>222.99999999999997</ele><time>2026-04-07T07:17:34.004Z</time></trkpt><trkpt lat="45.6841567" lon="11.353395"><ele>223.0</ele><time>2026-04-07T07:17:35.003Z</time></trkpt><trkpt lat="45.6840983" lon="11.35349"><ele>222.57142857142856</ele><time>2026-04-07T07:17:36.004Z</time></trkpt><trkpt lat="45.6840367" lon="11.3535633"><ele>222.14285714285714</ele><time>2026-04-07T07:17:37.004Z</time></trkpt><trkpt lat="45.683985" lon="11.353615"><ele>221.71428571428572</ele><time>2026-04-07T07:17:38.003Z</time></trkpt><trkpt lat="45.6839267" lon="11.3536533"><ele>221.28571428571428</ele><time>2026-04-07T07:17:39.003Z</time></trkpt><trkpt lat="45.6838667" lon="11.3537017"><ele>220.85714285714286</ele><time>2026-04-07T07:17:40.004Z</time></trkpt><trkpt lat="45.6838233" lon="11.353785"><ele>220.42857142857142</ele><time>2026-04-07T07:17:41.004Z</time></trkpt><trkpt lat="45.6838067" lon="11.3538733"><ele>220.0</ele><time>2026-04-07T07:17:42.003Z</time></trkpt><trkpt lat="45.6838083" lon="11.353995"><ele>219.99999999999997</ele><time>2026-04-07T07:17:43.004Z</time></trkpt><trkpt lat="45.6838133" lon="11.354115"><ele>220.0</ele><time>2026-04-07T07:17:44.004Z</time></trkpt><trkpt lat="45.683805" lon="11.354235"><ele>220.0</ele><time>2026-04-07T07:17:46.003Z</time></trkpt><trkpt lat="45.6837767" lon="11.354325"><ele>220.0</ele><time>2026-04-07T07:17:57.004Z</time></trkpt><trkpt lat="45.6837433" lon="11.354405"><ele>219.99999999999997</ele><time>2026-04-07T07:17:58.004Z</time></trkpt><trkpt lat="45.6837017" lon="11.3544967"><ele>220.0</ele><time>2026-04-07T07:17:59.004Z</time></trkpt><trkpt lat="45.683655" lon="11.3545933"><ele>219.99999999999997</ele><time>2026-04-07T07:18:00.004Z</time></trkpt><trkpt lat="45.6836067" lon="11.354695"><ele>220.0</ele><time>2026-04-07T07:18:01.004Z</time></trkpt><trkpt lat="45.6835517" lon="11.3548017"><ele>220.0</ele><time>2026-04-07T07:18:02.004Z</time></trkpt><trkpt lat="45.6835067" lon="11.3548833"><ele>220.0</ele><time>2026-04-07T07:18:03.003Z</time></trkpt><trkpt lat="45.6834633" lon="11.3549533"><ele>219.99999999999997</ele><time>2026-04-07T07:18:04.003Z</time></trkpt><trkpt lat="45.683395" lon="11.3551017"><ele>220.0</ele><time>2026-04-07T07:18:06.003Z</time></trkpt><trkpt lat="45.683325" lon="11.3552167"><ele>223.2</ele><time>2026-04-07T07:18:08.004Z</time></trkpt><trkpt lat="45.683235" lon="11.3553083"><ele>226.4</ele><time>2026-04-07T07:18:10.003Z</time></trkpt><trkpt lat="45.6831433" lon="11.355365"><ele>229.60000000000002</ele><time>2026-04-07T07:18:12.004Z</time></trkpt><trkpt lat="45.6830433" lon="11.3554533"><ele>232.8</ele><time>2026-04-07T07:18:14.004Z</time></trkpt><trkpt lat="45.6829467" lon="11.3555217"><ele>236.0</ele><time>2026-04-07T07:18:16.003Z</time></trkpt><trkpt lat="45.6828617" lon="11.3555417"><ele>239.60000000000002</ele><time>2026-04-07T07:18:18.004Z</time></trkpt><trkpt lat="45.68276" lon="11.3555283"><ele>243.20000000000002</ele><time>2026-04-07T07:18:20.004Z</time></trkpt><trkpt lat="45.6826817" lon="11.3554967"><ele>246.79999999999998</ele><time>2026-04-07T07:18:21.004Z</time></trkpt><trkpt lat="45.682575" lon="11.3554583"><ele>250.39999999999998</ele><time>2026-04-07T07:18:22.004Z</time></trkpt><trkpt lat="45.6824617" lon="11.3554217"><ele>254.0</ele><time>2026-04-07T07:18:23.003Z</time></trkpt><trkpt lat="45.6823483" lon="11.3553683"><ele>254.0</ele><time>2026-04-07T07:18:24.004Z</time></trkpt><trkpt lat="45.68224" lon="11.3553083"><ele>254.0</ele><time>2026-04-07T07:18:25.003Z</time></trkpt><trkpt lat="45.682145" lon="11.3552033"><ele>254.0</ele><time>2026-04-07T07:18:26.004Z</time></trkpt><trkpt lat="45.6820567" lon="11.3550833"><ele>254.0</ele><time>2026-04-07T07:18:27.003Z</time></trkpt><trkpt lat="45.68197" lon="11.3549483"><ele>251.5</ele><time>2026-04-07T07:18:28.004Z</time></trkpt><trkpt lat="45.68191" lon="11.354795"><ele>249.0</ele><time>2026-04-07T07:18:29.004Z</time></trkpt><trkpt lat="45.6818583" lon="11.3546383"><ele>246.5</ele><time>2026-04-07T07:18:30.004Z</time></trkpt><trkpt lat="45.6818117" lon="11.3544983"><ele>244.0</ele><time>2026-04-07T07:18:31.003Z</time></trkpt><trkpt lat="45.6817867" lon="11.3543583"><ele>244.0</ele><time>2026-04-07T07:18:32.004Z</time></trkpt><trkpt lat="45.6817767" lon="11.3542117"><ele>244.0</ele><time>2026-04-07T07:18:33.004Z</time></trkpt><trkpt lat="45.681805" lon="11.354045"><ele>244.0</ele><time>2026-04-07T07:18:34.004Z</time></trkpt><trkpt lat="45.6818633" lon="11.3538633"><ele>244.0</ele><time>2026-04-07T07:18:35.003Z</time></trkpt><trkpt lat="45.681945" lon="11.35368"><ele>250.33333333333331</ele><time>2026-04-07T07:18:36.003Z</time></trkpt><trkpt lat="45.6820217" lon="11.3534933"><ele>256.6666666666667</ele><time>2026-04-07T07:18:37.004Z</time></trkpt><trkpt lat="45.68209" lon="11.3533033"><ele>263.0</ele><time>2026-04-07T07:18:38.004Z</time></trkpt><trkpt lat="45.68215" lon="11.3530983"><ele>263.33333333333337</ele><time>2026-04-07T07:18:39.003Z</time></trkpt><trkpt lat="45.6822217" lon="11.3529"><ele>263.6666666666667</ele><time>2026-04-07T07:18:40.004Z</time></trkpt><trkpt lat="45.682285" lon="11.3526833"><ele>264.0</ele><time>2026-04-07T07:18:41.003Z</time></trkpt><trkpt lat="45.6823467" lon="11.352455"><ele>264.0</ele><time>2026-04-07T07:18:42.004Z</time></trkpt><trkpt lat="45.6824117" lon="11.352225"><ele>264.0</ele><time>2026-04-07T07:18:43.004Z</time></trkpt><trkpt lat="45.6824733" lon="11.3519733"><ele>264.0</ele><time>2026-04-07T07:18:44.003Z</time></trkpt><trkpt lat="45.6825267" lon="11.3517033"><ele>265.0</ele><time>2026-04-07T07:18:45.004Z</time></trkpt><trkpt lat="45.6825783" lon="11.35142"><ele>266.0</ele><time>2026-04-07T07:18:46.003Z</time></trkpt><trkpt lat="45.68263" lon="11.35115"><ele>267.0</ele><time>2026-04-07T07:18:47.004Z</time></trkpt><trkpt lat="45.6826867" lon="11.3508883"><ele>265.75</ele><time>2026-04-07T07:18:48.004Z</time></trkpt><trkpt lat="45.6827367" lon="11.350655"><ele>264.5</ele><time>2026-04-07T07:18:49.004Z</time></trkpt><trkpt lat="45.6827783" lon="11.3504583"><ele>263.25</ele><time>2026-04-07T07:18:50.003Z</time></trkpt><trkpt lat="45.6828133" lon="11.3502733"><ele>262.0</ele><time>2026-04-07T07:18:51.003Z</time></trkpt><trkpt lat="45.6828433" lon="11.350115"><ele>262.0</ele><time>2026-04-07T07:18:52.004Z</time></trkpt><trkpt lat="45.6828533" lon="11.3499933"><ele>262.0</ele><time>2026-04-07T07:18:53.004Z</time></trkpt><trkpt lat="45.6828317" lon="11.3498817"><ele>262.0</ele><time>2026-04-07T07:18:54.003Z</time></trkpt><trkpt lat="45.682795" lon="11.3497933"><ele>262.0</ele><time>2026-04-07T07:18:55.004Z</time></trkpt><trkpt lat="45.682735" lon="11.3497317"><ele>262.0</ele><time>2026-04-07T07:18:56.003Z</time></trkpt><trkpt lat="45.6826467" lon="11.349695"><ele>262.0</ele><time>2026-04-07T07:18:57.004Z</time></trkpt><trkpt lat="45.68254" lon="11.3496967"><ele>269.0</ele><time>2026-04-07T07:18:58.004Z</time></trkpt><trkpt lat="45.682445" lon="11.3496817"><ele>276.0</ele><time>2026-04-07T07:18:59.003Z</time></trkpt><trkpt lat="45.6823667" lon="11.3496283"><ele>283.0</ele><time>2026-04-07T07:19:00.003Z</time></trkpt><trkpt lat="45.6823283" lon="11.3495367"><ele>290.0</ele><time>2026-04-07T07:19:01.004Z</time></trkpt><trkpt lat="45.6823017" lon="11.3494033"><ele>297.0</ele><time>2026-04-07T07:19:02.003Z</time></trkpt><trkpt lat="45.6823" lon="11.349225"><ele>297.0</ele><time>2026-04-07T07:19:03.004Z</time></trkpt><trkpt lat="45.68233" lon="11.3490233"><ele>297.0</ele><time>2026-04-07T07:19:04.004Z</time></trkpt><trkpt lat="45.682365" lon="11.3487783"><ele>297.0</ele><time>2026-04-07T07:19:05.004Z</time></trkpt><trkpt lat="45.6823883" lon="11.348535"><ele>300.0</ele><time>2026-04-07T07:19:06.004Z</time></trkpt><trkpt lat="45.6824017" lon="11.3482983"><ele>303.0</ele><time>2026-04-07T07:19:07.004Z</time></trkpt><trkpt lat="45.6823767" lon="11.3480583"><ele>306.0</ele><time>2026-04-07T07:19:08.003Z</time></trkpt><trkpt lat="45.68232" lon="11.3478217"><ele>308.6666666666667</ele><time>2026-04-07T07:19:09.003Z</time></trkpt><trkpt lat="45.6822533" lon="11.3475833"><ele>311.33333333333337</ele><time>2026-04-07T07:19:10.004Z</time></trkpt><trkpt lat="45.6821933" lon="11.3473433"><ele>314.0</ele><time>2026-04-07T07:19:11.004Z</time></trkpt><trkpt lat="45.68213" lon="11.3470983"><ele>314.0</ele><time>2026-04-07T07:19:12.004Z</time></trkpt><trkpt lat="45.6820683" lon="11.34687"><ele>314.0</ele><time>2026-04-07T07:19:13.004Z</time></trkpt><trkpt lat="45.6820083" lon="11.346655"><ele>314.0</ele><time>2026-04-07T07:19:14.004Z</time></trkpt><trkpt lat="45.6819367" lon="11.3464583"><ele>321.0</ele><time>2026-04-07T07:19:15.003Z</time></trkpt><trkpt lat="45.681845" lon="11.3462783"><ele>328.0</ele><time>2026-04-07T07:19:16.003Z</time></trkpt><trkpt lat="45.681725" lon="11.3460867"><ele>335.0</ele><time>2026-04-07T07:19:17.003Z</time></trkpt><trkpt lat="45.6816017" lon="11.345875"><ele>335.0</ele><time>2026-04-07T07:19:18.003Z</time></trkpt><trkpt lat="45.6814633" lon="11.3456583"><ele>335.0</ele><time>2026-04-07T07:19:19.003Z</time></trkpt><trkpt lat="45.6813367" lon="11.345455"><ele>335.0</ele><time>2026-04-07T07:19:20.003Z</time></trkpt><trkpt lat="45.6812217" lon="11.345255"><ele>335.5</ele><time>2026-04-07T07:19:21.003Z</time></trkpt><trkpt lat="45.6811067" lon="11.3450733"><ele>336.0</ele><time>2026-04-07T07:19:22.003Z</time></trkpt><trkpt lat="45.6810117" lon="11.3449233"><ele>336.5</ele><time>2026-04-07T07:19:23.003Z</time></trkpt><trkpt lat="45.6809117" lon="11.3448133"><ele>337.0</ele><time>2026-04-07T07:19:24.002Z</time></trkpt><trkpt lat="45.6808183" lon="11.3447617"><ele>338.8333333333333</ele><time>2026-04-07T07:19:25.003Z</time></trkpt><trkpt lat="45.6807217" lon="11.344755"><ele>340.66666666666663</ele><time>2026-04-07T07:19:26.003Z</time></trkpt><trkpt lat="45.680635" lon="11.3447867"><ele>342.5</ele><time>2026-04-07T07:19:27.003Z</time></trkpt><trkpt lat="45.680565" lon="11.3448567"><ele>344.3333333333333</ele><time>2026-04-07T07:19:28.003Z</time></trkpt><trkpt lat="45.680515" lon="11.344965"><ele>346.1666666666667</ele><time>2026-04-07T07:19:29.003Z</time></trkpt><trkpt lat="45.680475" lon="11.345075"><ele>348.0</ele><time>2026-04-07T07:19:30.002Z</time></trkpt><trkpt lat="45.6804417" lon="11.3451767"><ele>348.0</ele><time>2026-04-07T07:19:31.002Z</time></trkpt><trkpt lat="45.6804033" lon="11.3452533"><ele>348.0</ele><time>2026-04-07T07:19:32.003Z</time></trkpt><trkpt lat="45.6803183" lon="11.34527"><ele>348.0</ele><time>2026-04-07T07:19:34.002Z</time></trkpt><trkpt lat="45.6802917" lon="11.3451833"><ele>348.0</ele><time>2026-04-07T07:19:35.002Z</time></trkpt><trkpt lat="45.6802933" lon="11.3450533"><ele>348.0</ele><time>2026-04-07T07:19:36.002Z</time></trkpt><trkpt lat="45.6803283" lon="11.34489"><ele>348.0</ele><time>2026-04-07T07:19:37.003Z</time></trkpt><trkpt lat="45.680375" lon="11.3446967"><ele>350.0</ele><time>2026-04-07T07:19:38.003Z</time></trkpt><trkpt lat="45.6803633" lon="11.344515"><ele>352.0</ele><time>2026-04-07T07:19:39.002Z</time></trkpt><trkpt lat="45.6803283" lon="11.3443333"><ele>354.0</ele><time>2026-04-07T07:19:40.003Z</time></trkpt><trkpt lat="45.6803133" lon="11.344175"><ele>356.0</ele><time>2026-04-07T07:19:41.003Z</time></trkpt><trkpt lat="45.6803267" lon="11.3440267"><ele>357.75</ele><time>2026-04-07T07:19:42.003Z</time></trkpt><trkpt lat="45.6803933" lon="11.3438667"><ele>359.5</ele><time>2026-04-07T07:19:43.002Z</time></trkpt><trkpt lat="45.680495" lon="11.343705"><ele>361.25</ele><time>2026-04-07T07:19:44.003Z</time></trkpt><trkpt lat="45.680615" lon="11.343545"><ele>363.0</ele><time>2026-04-07T07:19:45.002Z</time></trkpt><trkpt lat="45.680715" lon="11.343365"><ele>363.0</ele><time>2026-04-07T07:19:46.003Z</time></trkpt><trkpt lat="45.680805" lon="11.3431583"><ele>363.0</ele><time>2026-04-07T07:19:47.003Z</time></trkpt><trkpt lat="45.6808933" lon="11.342945"><ele>363.0</ele><time>2026-04-07T07:19:48.003Z</time></trkpt><trkpt lat="45.6809817" lon="11.3427267"><ele>364.0</ele><time>2026-04-07T07:19:49.003Z</time></trkpt><trkpt lat="45.6810767" lon="11.3425067"><ele>365.0</ele><time>2026-04-07T07:19:50.003Z</time></trkpt><trkpt lat="45.68118" lon="11.3422767"><ele>366.0</ele><time>2026-04-07T07:19:51.003Z</time></trkpt><trkpt lat="45.68128" lon="11.3420417"><ele>366.0</ele><time>2026-04-07T07:19:52.002Z</time></trkpt><trkpt lat="45.6813867" lon="11.3418233"><ele>366.0</ele><time>2026-04-07T07:19:53.003Z</time></trkpt><trkpt lat="45.6815017" lon="11.3416117"><ele>366.0</ele><time>2026-04-07T07:19:54.002Z</time></trkpt><trkpt lat="45.6816433" lon="11.3413767"><ele>370.3333333333333</ele><time>2026-04-07T07:19:55.002Z</time></trkpt><trkpt lat="45.6817933" lon="11.341195"><ele>374.66666666666663</ele><time>2026-04-07T07:19:56.003Z</time></trkpt><trkpt lat="45.6819483" lon="11.341045"><ele>379.0</ele><time>2026-04-07T07:19:57.003Z</time></trkpt><trkpt lat="45.6820917" lon="11.34091"><ele>379.0</ele><time>2026-04-07T07:19:58.003Z</time></trkpt><trkpt lat="45.6822233" lon="11.3407833"><ele>379.0</ele><time>2026-04-07T07:19:59.002Z</time></trkpt><trkpt lat="45.6823533" lon="11.3406517"><ele>379.0</ele><time>2026-04-07T07:20:00.002Z</time></trkpt><trkpt lat="45.6824633" lon="11.3405417"><ele>384.0</ele><time>2026-04-07T07:20:01.003Z</time></trkpt><trkpt lat="45.6825567" lon="11.3404033"><ele>389.0</ele><time>2026-04-07T07:20:02.002Z</time></trkpt><trkpt lat="45.6826383" lon="11.34025"><ele>394.0</ele><time>2026-04-07T07:20:03.003Z</time></trkpt><trkpt lat="45.6826983" lon="11.340065"><ele>399.0</ele><time>2026-04-07T07:20:04.002Z</time></trkpt><trkpt lat="45.68273" lon="11.3398483"><ele>400.75</ele><time>2026-04-07T07:20:05.003Z</time></trkpt><trkpt lat="45.682755" lon="11.339625"><ele>402.5</ele><time>2026-04-07T07:20:06.003Z</time></trkpt><trkpt lat="45.6827633" lon="11.3394367"><ele>404.25</ele><time>2026-04-07T07:20:07.002Z</time></trkpt><trkpt lat="45.6827833" lon="11.33928"><ele>406.0</ele><time>2026-04-07T07:20:08.002Z</time></trkpt><trkpt lat="45.682785" lon="11.3391333"><ele>406.0</ele><time>2026-04-07T07:20:09.003Z</time></trkpt><trkpt lat="45.6827667" lon="11.338965"><ele>406.0</ele><time>2026-04-07T07:20:10.002Z</time></trkpt><trkpt lat="45.6827433" lon="11.3387867"><ele>406.0</ele><time>2026-04-07T07:20:11.003Z</time></trkpt><trkpt lat="45.6827033" lon="11.3386017"><ele>406.0</ele><time>2026-04-07T07:20:12.003Z</time></trkpt><trkpt lat="45.68268" lon="11.3384067"><ele>406.0</ele><time>2026-04-07T07:20:13.003Z</time></trkpt><trkpt lat="45.682645" lon="11.3382167"><ele>406.0</ele><time>2026-04-07T07:20:14.003Z</time></trkpt><trkpt lat="45.682615" lon="11.3380317"><ele>406.0</ele><time>2026-04-07T07:20:15.002Z</time></trkpt><trkpt lat="45.682555" lon="11.3378533"><ele>406.0</ele><time>2026-04-07T07:20:16.003Z</time></trkpt><trkpt lat="45.6825333" lon="11.33767"><ele>406.8</ele><time>2026-04-07T07:20:17.003Z</time></trkpt><trkpt lat="45.6825083" lon="11.337525"><ele>407.6</ele><time>2026-04-07T07:20:18.003Z</time></trkpt><trkpt lat="45.6825" lon="11.33743"><ele>408.4</ele><time>2026-04-07T07:20:19.002Z</time></trkpt><trkpt lat="45.6825117" lon="11.337265"><ele>409.2</ele><time>2026-04-07T07:20:21.002Z</time></trkpt><trkpt lat="45.6825117" lon="11.3371317"><ele>410.0</ele><time>2026-04-07T07:20:22.003Z</time></trkpt><trkpt lat="45.68248" lon="11.3369517"><ele>411.0</ele><time>2026-04-07T07:20:23.002Z</time></trkpt><trkpt lat="45.682445" lon="11.3367583"><ele>412.0</ele><time>2026-04-07T07:20:24.002Z</time></trkpt><trkpt lat="45.6824083" lon="11.3365533"><ele>413.0</ele><time>2026-04-07T07:20:25.002Z</time></trkpt><trkpt lat="45.682385" lon="11.336335"><ele>414.0</ele><time>2026-04-07T07:20:26.003Z</time></trkpt><trkpt lat="45.682355" lon="11.3361317"><ele>416.5</ele><time>2026-04-07T07:20:27.003Z</time></trkpt><trkpt lat="45.6823283" lon="11.3359617"><ele>419.0</ele><time>2026-04-07T07:20:28.002Z</time></trkpt><trkpt lat="45.68231" lon="11.3358017"><ele>421.5</ele><time>2026-04-07T07:20:29.003Z</time></trkpt><trkpt lat="45.6823117" lon="11.3356117"><ele>424.0</ele><time>2026-04-07T07:20:30.002Z</time></trkpt><trkpt lat="45.6823217" lon="11.3354183"><ele>426.0</ele><time>2026-04-07T07:20:31.002Z</time></trkpt><trkpt lat="45.6823333" lon="11.3352467"><ele>428.0</ele><time>2026-04-07T07:20:32.003Z</time></trkpt><trkpt lat="45.6823533" lon="11.33512"><ele>430.0</ele><time>2026-04-07T07:20:33.002Z</time></trkpt><trkpt lat="45.6823917" lon="11.3350017"><ele>432.0</ele><time>2026-04-07T07:20:34.003Z</time></trkpt><trkpt lat="45.6824733" lon="11.3348867"><ele>434.0</ele><time>2026-04-07T07:20:35.002Z</time></trkpt><trkpt lat="45.682565" lon="11.3348517"><ele>434.0</ele><time>2026-04-07T07:20:36.003Z</time></trkpt><trkpt lat="45.6826917" lon="11.3348483"><ele>434.0</ele><time>2026-04-07T07:20:37.003Z</time></trkpt><trkpt lat="45.68281" lon="11.3348683"><ele>434.0</ele><time>2026-04-07T07:20:38.003Z</time></trkpt><trkpt lat="45.6829133" lon="11.3348833"><ele>434.0</ele><time>2026-04-07T07:20:39.002Z</time></trkpt><trkpt lat="45.68299" lon="11.334875"><ele>434.0</ele><time>2026-04-07T07:20:40.003Z</time></trkpt><trkpt lat="45.6830533" lon="11.33485"><ele>435.0</ele><time>2026-04-07T07:20:41.002Z</time></trkpt><trkpt lat="45.6831467" lon="11.33483"><ele>436.0</ele><time>2026-04-07T07:20:43.002Z</time></trkpt><trkpt lat="45.6832633" lon="11.3348983"><ele>437.0</ele><time>2026-04-07T07:20:45.003Z</time></trkpt><trkpt lat="45.6833383" lon="11.3349767"><ele>438.0</ele><time>2026-04-07T07:20:46.002Z</time></trkpt><trkpt lat="45.6834067" lon="11.3350483"><ele>439.0</ele><time>2026-04-07T07:20:47.003Z</time></trkpt><trkpt lat="45.6834583" lon="11.3351017"><ele>439.00000000000006</ele><time>2026-04-07T07:20:48.003Z</time></trkpt><trkpt lat="45.6835467" lon="11.3351067"><ele>439.0</ele><time>2026-04-07T07:20:50.003Z</time></trkpt><trkpt lat="45.6836117" lon="11.3350017"><ele>439.0</ele><time>2026-04-07T07:20:52.003Z</time></trkpt><trkpt lat="45.6836217" lon="11.3349083"><ele>439.0</ele><time>2026-04-07T07:20:53.003Z</time></trkpt><trkpt lat="45.6836283" lon="11.3348033"><ele>439.00000000000006</ele><time>2026-04-07T07:20:54.003Z</time></trkpt><trkpt lat="45.6836317" lon="11.3346717"><ele>439.0</ele><time>2026-04-07T07:20:55.003Z</time></trkpt><trkpt lat="45.6836217" lon="11.3345117"><ele>439.6</ele><time>2026-04-07T07:20:56.003Z</time></trkpt><trkpt lat="45.68361" lon="11.3343567"><ele>440.2</ele><time>2026-04-07T07:20:57.003Z</time></trkpt><trkpt lat="45.6835917" lon="11.33419"><ele>440.80000000000007</ele><time>2026-04-07T07:20:58.003Z</time></trkpt><trkpt lat="45.6835783" lon="11.3340433"><ele>441.40000000000003</ele><time>2026-04-07T07:20:59.002Z</time></trkpt><trkpt lat="45.6835733" lon="11.33391"><ele>442.0</ele><time>2026-04-07T07:21:00.003Z</time></trkpt><trkpt lat="45.6835783" lon="11.3337917"><ele>441.33333333333337</ele><time>2026-04-07T07:21:01.002Z</time></trkpt><trkpt lat="45.6835967" lon="11.3336917"><ele>440.6666666666667</ele><time>2026-04-07T07:21:02.003Z</time></trkpt><trkpt lat="45.6836367" lon="11.3336033"><ele>440.0</ele><time>2026-04-07T07:21:03.003Z</time></trkpt><trkpt lat="45.68369" lon="11.3335117"><ele>439.33333333333337</ele><time>2026-04-07T07:21:04.002Z</time></trkpt><trkpt lat="45.6837417" lon="11.3334217"><ele>438.6666666666667</ele><time>2026-04-07T07:21:05.002Z</time></trkpt><trkpt lat="45.6837933" lon="11.33333"><ele>438.0</ele><time>2026-04-07T07:21:06.003Z</time></trkpt><trkpt lat="45.6838433" lon="11.3332367"><ele>438.0</ele><time>2026-04-07T07:21:07.003Z</time></trkpt><trkpt lat="45.6838833" lon="11.33314"><ele>438.0</ele><time>2026-04-07T07:21:08.003Z</time></trkpt><trkpt lat="45.6839133" lon="11.3330267"><ele>438.0</ele><time>2026-04-07T07:21:09.002Z</time></trkpt><trkpt lat="45.68394" lon="11.3329233"><ele>438.0</ele><time>2026-04-07T07:21:10.003Z</time></trkpt><trkpt lat="45.68395" lon="11.332805"><ele>438.0</ele><time>2026-04-07T07:21:11.003Z</time></trkpt><trkpt lat="45.68395" lon="11.3326717"><ele>438.0</ele><time>2026-04-07T07:21:12.002Z</time></trkpt><trkpt lat="45.6839367" lon="11.3325333"><ele>439.2</ele><time>2026-04-07T07:21:13.003Z</time></trkpt><trkpt lat="45.6839133" lon="11.3324167"><ele>440.4</ele><time>2026-04-07T07:21:14.003Z</time></trkpt><trkpt lat="45.683905" lon="11.3323"><ele>441.59999999999997</ele><time>2026-04-07T07:21:15.003Z</time></trkpt><trkpt lat="45.6838917" lon="11.3321783"><ele>442.79999999999995</ele><time>2026-04-07T07:21:16.002Z</time></trkpt><trkpt lat="45.683875" lon="11.3320783"><ele>444.0</ele><time>2026-04-07T07:21:17.002Z</time></trkpt><trkpt lat="45.6838783" lon="11.331895"><ele>445.2</ele><time>2026-04-07T07:21:19.002Z</time></trkpt><trkpt lat="45.6838933" lon="11.3317883"><ele>446.4</ele><time>2026-04-07T07:21:20.002Z</time></trkpt><trkpt lat="45.6839317" lon="11.3316867"><ele>447.6</ele><time>2026-04-07T07:21:21.002Z</time></trkpt><trkpt lat="45.6839733" lon="11.3315717"><ele>448.8</ele><time>2026-04-07T07:21:22.003Z</time></trkpt><trkpt lat="45.6840283" lon="11.3314533"><ele>450.0</ele><time>2026-04-07T07:21:23.003Z</time></trkpt><trkpt lat="45.68408" lon="11.3313167"><ele>451.6</ele><time>2026-04-07T07:21:24.003Z</time></trkpt><trkpt lat="45.6841333" lon="11.3311583"><ele>453.2</ele><time>2026-04-07T07:21:25.003Z</time></trkpt><trkpt lat="45.6841917" lon="11.331015"><ele>454.79999999999995</ele><time>2026-04-07T07:21:26.002Z</time></trkpt><trkpt lat="45.6842483" lon="11.3308917"><ele>456.4</ele><time>2026-04-07T07:21:27.003Z</time></trkpt><trkpt lat="45.684285" lon="11.33079"><ele>458.0</ele><time>2026-04-07T07:21:28.003Z</time></trkpt><trkpt lat="45.684305" lon="11.3306867"><ele>458.0</ele><time>2026-04-07T07:21:29.003Z</time></trkpt><trkpt lat="45.684315" lon="11.3305633"><ele>457.99999999999994</ele><time>2026-04-07T07:21:30.003Z</time></trkpt><trkpt lat="45.6843117" lon="11.3304217"><ele>457.99999999999994</ele><time>2026-04-07T07:21:31.003Z</time></trkpt><trkpt lat="45.6842883" lon="11.3302667"><ele>458.0</ele><time>2026-04-07T07:21:32.003Z</time></trkpt><trkpt lat="45.6842583" lon="11.3301183"><ele>458.0</ele><time>2026-04-07T07:21:33.002Z</time></trkpt><trkpt lat="45.68421" lon="11.3299633"><ele>458.66666666666663</ele><time>2026-04-07T07:21:34.003Z</time></trkpt><trkpt lat="45.6841817" lon="11.3298217"><ele>459.3333333333333</ele><time>2026-04-07T07:21:35.003Z</time></trkpt><trkpt lat="45.6841583" lon="11.3297017"><ele>460.0</ele><time>2026-04-07T07:21:36.002Z</time></trkpt><trkpt lat="45.6841267" lon="11.3295883"><ele>460.66666666666663</ele><time>2026-04-07T07:21:37.002Z</time></trkpt><trkpt lat="45.6841" lon="11.329485"><ele>461.3333333333333</ele><time>2026-04-07T07:21:38.003Z</time></trkpt><trkpt lat="45.6840683" lon="11.3293883"><ele>462.0</ele><time>2026-04-07T07:21:39.003Z</time></trkpt><trkpt lat="45.6840233" lon="11.3292967"><ele>462.0</ele><time>2026-04-07T07:21:40.003Z</time></trkpt><trkpt lat="45.68399" lon="11.329215"><ele>462.0</ele><time>2026-04-07T07:21:41.002Z</time></trkpt><trkpt lat="45.6839333" lon="11.3291417"><ele>462.0</ele><time>2026-04-07T07:21:42.003Z</time></trkpt><trkpt lat="45.6838733" lon="11.3290667"><ele>462.0</ele><time>2026-04-07T07:21:43.003Z</time></trkpt><trkpt lat="45.6838167" lon="11.3289817"><ele>462.0</ele><time>2026-04-07T07:21:44.003Z</time></trkpt><trkpt lat="45.683765" lon="11.3288833"><ele>462.0</ele><time>2026-04-07T07:21:45.003Z</time></trkpt><trkpt lat="45.6837217" lon="11.3287717"><ele>460.40000000000003</ele><time>2026-04-07T07:21:46.003Z</time></trkpt><trkpt lat="45.68367" lon="11.32865"><ele>458.80000000000007</ele><time>2026-04-07T07:21:47.003Z</time></trkpt><trkpt lat="45.6836233" lon="11.3285233"><ele>457.2</ele><time>2026-04-07T07:21:48.002Z</time></trkpt><trkpt lat="45.68358" lon="11.3283967"><ele>455.6</ele><time>2026-04-07T07:21:49.002Z</time></trkpt><trkpt lat="45.6835633" lon="11.3282733"><ele>454.0</ele><time>2026-04-07T07:21:50.003Z</time></trkpt><trkpt lat="45.683555" lon="11.3281483"><ele>455.1666666666667</ele><time>2026-04-07T07:21:51.002Z</time></trkpt><trkpt lat="45.683565" lon="11.3280267"><ele>456.33333333333337</ele><time>2026-04-07T07:21:52.003Z</time></trkpt><trkpt lat="45.683595" lon="11.32793"><ele>457.5</ele><time>2026-04-07T07:21:53.003Z</time></trkpt><trkpt lat="45.683635" lon="11.32784"><ele>458.66666666666663</ele><time>2026-04-07T07:21:54.003Z</time></trkpt><trkpt lat="45.68368" lon="11.32775"><ele>459.8333333333333</ele><time>2026-04-07T07:21:55.003Z</time></trkpt><trkpt lat="45.6837117" lon="11.32765"><ele>461.0</ele><time>2026-04-07T07:21:56.002Z</time></trkpt><trkpt lat="45.6836983" lon="11.32751"><ele>461.0</ele><time>2026-04-07T07:21:58.002Z</time></trkpt><trkpt lat="45.6836583" lon="11.32737"><ele>461.0</ele><time>2026-04-07T07:22:00.003Z</time></trkpt><trkpt lat="45.6836567" lon="11.3272367"><ele>461.0</ele><time>2026-04-07T07:22:02.002Z</time></trkpt><trkpt lat="45.6837217" lon="11.3271133"><ele>461.0</ele><time>2026-04-07T07:22:04.003Z</time></trkpt><trkpt lat="45.6837667" lon="11.3270283"><ele>461.0</ele><time>2026-04-07T07:22:05.002Z</time></trkpt><trkpt lat="45.6838433" lon="11.326905"><ele>463.0</ele><time>2026-04-07T07:22:06.003Z</time></trkpt><trkpt lat="45.68392" lon="11.3267733"><ele>465.0</ele><time>2026-04-07T07:22:07.003Z</time></trkpt><trkpt lat="45.6840117" lon="11.3266733"><ele>467.0</ele><time>2026-04-07T07:22:08.002Z</time></trkpt><trkpt lat="45.6840783" lon="11.3265983"><ele>469.0</ele><time>2026-04-07T07:22:09.003Z</time></trkpt><trkpt lat="45.68419" lon="11.3265383"><ele>471.0</ele><time>2026-04-07T07:22:11.003Z</time></trkpt><trkpt lat="45.6842633" lon="11.3265367"><ele>471.0</ele><time>2026-04-07T07:22:12.003Z</time></trkpt><trkpt lat="45.6843533" lon="11.32655"><ele>471.0</ele><time>2026-04-07T07:22:13.002Z</time></trkpt><trkpt lat="45.6844533" lon="11.3265583"><ele>471.0</ele><time>2026-04-07T07:22:14.003Z</time></trkpt><trkpt lat="45.684545" lon="11.32654"><ele>471.0</ele><time>2026-04-07T07:22:15.003Z</time></trkpt><trkpt lat="45.68462" lon="11.3264917"><ele>471.0</ele><time>2026-04-07T07:22:16.002Z</time></trkpt><trkpt lat="45.6846967" lon="11.326415"><ele>474.20000000000005</ele><time>2026-04-07T07:22:17.003Z</time></trkpt><trkpt lat="45.68477" lon="11.32631"><ele>477.40000000000003</ele><time>2026-04-07T07:22:18.002Z</time></trkpt><trkpt lat="45.684835" lon="11.3261933"><ele>480.6</ele><time>2026-04-07T07:22:19.003Z</time></trkpt><trkpt lat="45.6848917" lon="11.3260583"><ele>483.8</ele><time>2026-04-07T07:22:20.003Z</time></trkpt><trkpt lat="45.684935" lon="11.3259333"><ele>487.0</ele><time>2026-04-07T07:22:21.003Z</time></trkpt><trkpt lat="45.684955" lon="11.3258133"><ele>487.00000000000006</ele><time>2026-04-07T07:22:22.002Z</time></trkpt><trkpt lat="45.68499" lon="11.3256883"><ele>487.0</ele><time>2026-04-07T07:22:24.002Z</time></trkpt><trkpt lat="45.6850683" lon="11.3256817"><ele>487.0</ele><time>2026-04-07T07:22:26.003Z</time></trkpt><trkpt lat="45.68514" lon="11.325705"><ele>487.0</ele><time>2026-04-07T07:22:27.002Z</time></trkpt><trkpt lat="45.6852233" lon="11.3257267"><ele>487.00000000000006</ele><time>2026-04-07T07:22:28.003Z</time></trkpt><trkpt lat="45.685305" lon="11.325735"><ele>487.0</ele><time>2026-04-07T07:22:29.002Z</time></trkpt><trkpt lat="45.685375" lon="11.3257217"><ele>486.42857142857144</ele><time>2026-04-07T07:22:30.003Z</time></trkpt><trkpt lat="45.685445" lon="11.3256783"><ele>485.85714285714283</ele><time>2026-04-07T07:22:31.003Z</time></trkpt><trkpt lat="45.6854917" lon="11.3256083"><ele>485.2857142857143</ele><time>2026-04-07T07:22:32.002Z</time></trkpt><trkpt lat="45.685535" lon="11.3255333"><ele>484.7142857142857</ele><time>2026-04-07T07:22:33.002Z</time></trkpt><trkpt lat="45.6855683" lon="11.325435"><ele>484.1428571428571</ele><time>2026-04-07T07:22:34.002Z</time></trkpt><trkpt lat="45.6855833" lon="11.32533"><ele>483.57142857142856</ele><time>2026-04-07T07:22:35.002Z</time></trkpt><trkpt lat="45.685585" lon="11.3252233"><ele>483.0</ele><time>2026-04-07T07:22:36.003Z</time></trkpt><trkpt lat="45.685585" lon="11.3251183"><ele>484.8571428571429</ele><time>2026-04-07T07:22:37.003Z</time></trkpt><trkpt lat="45.68559" lon="11.3250217"><ele>486.7142857142857</ele><time>2026-04-07T07:22:38.003Z</time></trkpt><trkpt lat="45.6855983" lon="11.3249317"><ele>488.57142857142856</ele><time>2026-04-07T07:22:39.002Z</time></trkpt><trkpt lat="45.6856067" lon="11.3248367"><ele>490.42857142857144</ele><time>2026-04-07T07:22:40.002Z</time></trkpt><trkpt lat="45.6856083" lon="11.3247433"><ele>492.28571428571433</ele><time>2026-04-07T07:22:41.003Z</time></trkpt><trkpt lat="45.6855917" lon="11.324645"><ele>494.14285714285717</ele><time>2026-04-07T07:22:42.003Z</time></trkpt><trkpt lat="45.68557" lon="11.3245467"><ele>496.0</ele><time>2026-04-07T07:22:43.002Z</time></trkpt><trkpt lat="45.685555" lon="11.3244583"><ele>497.6666666666667</ele><time>2026-04-07T07:22:44.002Z</time></trkpt><trkpt lat="45.6855467" lon="11.3243667"><ele>499.33333333333337</ele><time>2026-04-07T07:22:45.002Z</time></trkpt><trkpt lat="45.685545" lon="11.3242683"><ele>501.0</ele><time>2026-04-07T07:22:46.003Z</time></trkpt><trkpt lat="45.685565" lon="11.3241817"><ele>502.66666666666663</ele><time>2026-04-07T07:22:47.002Z</time></trkpt><trkpt lat="45.6856117" lon="11.324115"><ele>504.3333333333333</ele><time>2026-04-07T07:22:48.002Z</time></trkpt><trkpt lat="45.685665" lon="11.3240417"><ele>506.0</ele><time>2026-04-07T07:22:49.003Z</time></trkpt><trkpt lat="45.6857383" lon="11.3239083"><ele>507.6</ele><time>2026-04-07T07:22:51.003Z</time></trkpt><trkpt lat="45.6857717" lon="11.323815"><ele>509.20000000000005</ele><time>2026-04-07T07:22:52.002Z</time></trkpt><trkpt lat="45.6858083" lon="11.32369"><ele>510.79999999999995</ele><time>2026-04-07T07:22:53.003Z</time></trkpt><trkpt lat="45.685845" lon="11.3235617"><ele>512.4</ele><time>2026-04-07T07:22:54.003Z</time></trkpt><trkpt lat="45.68588" lon="11.3234517"><ele>514.0</ele><time>2026-04-07T07:22:55.003Z</time></trkpt><trkpt lat="45.68591" lon="11.3233033"><ele>514.0</ele><time>2026-04-07T07:22:57.003Z</time></trkpt><trkpt lat="45.68587" lon="11.3231517"><ele>514.0</ele><time>2026-04-07T07:22:59.002Z</time></trkpt><trkpt lat="45.6858217" lon="11.3230683"><ele>514.0</ele><time>2026-04-07T07:23:00.002Z</time></trkpt><trkpt lat="45.6857817" lon="11.3229867"><ele>514.0</ele><time>2026-04-07T07:23:01.002Z</time></trkpt><trkpt lat="45.6857183" lon="11.3228733"><ele>514.0</ele><time>2026-04-07T07:23:03.002Z</time></trkpt><trkpt lat="45.6857467" lon="11.3227783"><ele>514.0</ele><time>2026-04-07T07:23:07.003Z</time></trkpt><trkpt lat="45.6858067" lon="11.3226833"><ele>516.4</ele><time>2026-04-07T07:23:10.002Z</time></trkpt><trkpt lat="45.6858517" lon="11.3225717"><ele>518.8</ele><time>2026-04-07T07:23:12.003Z</time></trkpt><trkpt lat="45.6859033" lon="11.3224267"><ele>521.2</ele><time>2026-04-07T07:23:14.003Z</time></trkpt><trkpt lat="45.685965" lon="11.3223317"><ele>523.6</ele><time>2026-04-07T07:23:16.003Z</time></trkpt><trkpt lat="45.6860367" lon="11.3222483"><ele>526.0</ele><time>2026-04-07T07:23:18.002Z</time></trkpt><trkpt lat="45.686085" lon="11.3221783"><ele>519.8333333333334</ele><time>2026-04-07T07:23:19.002Z</time></trkpt><trkpt lat="45.6861283" lon="11.3220917"><ele>513.6666666666667</ele><time>2026-04-07T07:23:20.003Z</time></trkpt><trkpt lat="45.6861733" lon="11.322"><ele>507.5</ele><time>2026-04-07T07:23:21.003Z</time></trkpt><trkpt lat="45.6862167" lon="11.3219333"><ele>501.33333333333337</ele><time>2026-04-07T07:23:22.003Z</time></trkpt><trkpt lat="45.6862883" lon="11.32178"><ele>495.1666666666667</ele><time>2026-04-07T07:23:24.002Z</time></trkpt><trkpt lat="45.6863083" lon="11.32168"><ele>489.0</ele><time>2026-04-07T07:23:25.003Z</time></trkpt><trkpt lat="45.68632" lon="11.3215817"><ele>489.0</ele><time>2026-04-07T07:23:26.003Z</time></trkpt><trkpt lat="45.6863167" lon="11.32149"><ele>489.0</ele><time>2026-04-07T07:23:27.003Z</time></trkpt><trkpt lat="45.6862533" lon="11.3213283"><ele>489.0</ele><time>2026-04-07T07:23:29.003Z</time></trkpt><trkpt lat="45.686225" lon="11.3212433"><ele>489.0</ele><time>2026-04-07T07:23:30.002Z</time></trkpt><trkpt lat="45.6861983" lon="11.3211383"><ele>489.0</ele><time>2026-04-07T07:23:31.002Z</time></trkpt><trkpt lat="45.686165" lon="11.32104"><ele>489.0</ele><time>2026-04-07T07:23:32.002Z</time></trkpt><trkpt lat="45.686125" lon="11.3208667"><ele>490.25</ele><time>2026-04-07T07:23:34.003Z</time></trkpt><trkpt lat="45.6860933" lon="11.3206833"><ele>491.5</ele><time>2026-04-07T07:23:36.003Z</time></trkpt><trkpt lat="45.6860933" lon="11.3205"><ele>492.75</ele><time>2026-04-07T07:23:38.003Z</time></trkpt><trkpt lat="45.6861183" lon="11.32034"><ele>494.0</ele><time>2026-04-07T07:23:40.002Z</time></trkpt><trkpt lat="45.6861967" lon="11.3202183"><ele>493.99999999999994</ele><time>2026-04-07T07:23:42.003Z</time></trkpt><trkpt lat="45.6862333" lon="11.320085"><ele>494.0</ele><time>2026-04-07T07:23:44.002Z</time></trkpt><trkpt lat="45.6862583" lon="11.31998"><ele>494.0</ele><time>2026-04-07T07:23:45.002Z</time></trkpt><trkpt lat="45.68628" lon="11.3198683"><ele>494.0</ele><time>2026-04-07T07:23:46.002Z</time></trkpt><trkpt lat="45.6863083" lon="11.3197733"><ele>493.99999999999994</ele><time>2026-04-07T07:23:47.001Z</time></trkpt><trkpt lat="45.6863683" lon="11.31966"><ele>494.0</ele><time>2026-04-07T07:23:49.002Z</time></trkpt><trkpt lat="45.6863683" lon="11.319505"><ele>495.7142857142857</ele><time>2026-04-07T07:23:52.002Z</time></trkpt><trkpt lat="45.6863417" lon="11.3194233"><ele>497.42857142857144</ele><time>2026-04-07T07:23:53.002Z</time></trkpt><trkpt lat="45.6863283" lon="11.31932"><ele>499.14285714285717</ele><time>2026-04-07T07:23:54.002Z</time></trkpt><trkpt lat="45.6863167" lon="11.3192133"><ele>500.8571428571429</ele><time>2026-04-07T07:23:55.002Z</time></trkpt><trkpt lat="45.686295" lon="11.3191117"><ele>502.57142857142856</ele><time>2026-04-07T07:23:56.001Z</time></trkpt><trkpt lat="45.6862683" lon="11.3190283"><ele>504.28571428571433</ele><time>2026-04-07T07:23:57.002Z</time></trkpt><trkpt lat="45.6862" lon="11.3189383"><ele>506.00000000000006</ele><time>2026-04-07T07:23:59.001Z</time></trkpt><trkpt lat="45.686155" lon="11.3188367"><ele>507.66666666666663</ele><time>2026-04-07T07:24:02.002Z</time></trkpt><trkpt lat="45.686195" lon="11.318765"><ele>509.3333333333333</ele><time>2026-04-07T07:24:05.002Z</time></trkpt><trkpt lat="45.6862317" lon="11.3186617"><ele>511.0</ele><time>2026-04-07T07:24:07.002Z</time></trkpt><trkpt lat="45.686225" lon="11.3185217"><ele>512.6666666666666</ele><time>2026-04-07T07:24:09.002Z</time></trkpt><trkpt lat="45.6862367" lon="11.3183717"><ele>514.3333333333334</ele><time>2026-04-07T07:24:11.001Z</time></trkpt><trkpt lat="45.68629" lon="11.3182817"><ele>516.0</ele><time>2026-04-07T07:24:13.002Z</time></trkpt><trkpt lat="45.6863817" lon="11.31824"><ele>516.0</ele><time>2026-04-07T07:24:15.002Z</time></trkpt><trkpt lat="45.686435" lon="11.3181817"><ele>516.0</ele><time>2026-04-07T07:24:17.002Z</time></trkpt><trkpt lat="45.686445" lon="11.318005"><ele>516.0</ele><time>2026-04-07T07:24:19.001Z</time></trkpt><trkpt lat="45.6864283" lon="11.3178783"><ele>516.0</ele><time>2026-04-07T07:24:20.001Z</time></trkpt><trkpt lat="45.6863933" lon="11.3177417"><ele>516.0</ele><time>2026-04-07T07:24:21.002Z</time></trkpt><trkpt lat="45.68635" lon="11.317645"><ele>516.0</ele><time>2026-04-07T07:24:22.002Z</time></trkpt><trkpt lat="45.686295" lon="11.31758"><ele>516.0</ele><time>2026-04-07T07:24:23.001Z</time></trkpt><trkpt lat="45.6861833" lon="11.3175133"><ele>516.0</ele><time>2026-04-07T07:24:25.002Z</time></trkpt><trkpt lat="45.6860983" lon="11.3174383"><ele>516.0</ele><time>2026-04-07T07:24:27.002Z</time></trkpt><trkpt lat="45.6860617" lon="11.3173367"><ele>516.0</ele><time>2026-04-07T07:24:29.002Z</time></trkpt><trkpt lat="45.6860983" lon="11.3172583"><ele>516.0</ele><time>2026-04-07T07:24:31.002Z</time></trkpt><trkpt lat="45.6861833" lon="11.3171217"><ele>516.0</ele><time>2026-04-07T07:24:33.002Z</time></trkpt><trkpt lat="45.6862517" lon="11.3170167"><ele>516.0</ele><time>2026-04-07T07:24:34.002Z</time></trkpt><trkpt lat="45.6863117" lon="11.3169033"><ele>516.0</ele><time>2026-04-07T07:24:35.002Z</time></trkpt><trkpt lat="45.6863633" lon="11.3167917"><ele>516.0</ele><time>2026-04-07T07:24:36.001Z</time></trkpt><trkpt lat="45.686395" lon="11.3167067"><ele>516.0</ele><time>2026-04-07T07:24:37.001Z</time></trkpt><trkpt lat="45.68641" lon="11.3166117"><ele>516.0</ele><time>2026-04-07T07:24:38.002Z</time></trkpt><trkpt lat="45.6863683" lon="11.316465"><ele>518.2</ele><time>2026-04-07T07:24:40.002Z</time></trkpt><trkpt lat="45.6863167" lon="11.3163867"><ele>520.4000000000001</ele><time>2026-04-07T07:24:41.002Z</time></trkpt><trkpt lat="45.68626" lon="11.3163267"><ele>522.6</ele><time>2026-04-07T07:24:42.001Z</time></trkpt><trkpt lat="45.686145" lon="11.3162717"><ele>524.8000000000001</ele><time>2026-04-07T07:24:44.001Z</time></trkpt><trkpt lat="45.6860383" lon="11.31628"><ele>527.0</ele><time>2026-04-07T07:24:46.002Z</time></trkpt><trkpt lat="45.6859533" lon="11.3162867"><ele>531.6</ele><time>2026-04-07T07:24:48.001Z</time></trkpt><trkpt lat="45.68591" lon="11.3162183"><ele>536.2</ele><time>2026-04-07T07:24:50.002Z</time></trkpt><trkpt lat="45.68586" lon="11.316055"><ele>540.8</ele><time>2026-04-07T07:24:52.002Z</time></trkpt><trkpt lat="45.6858233" lon="11.3159217"><ele>545.4</ele><time>2026-04-07T07:24:53.002Z</time></trkpt><trkpt lat="45.685785" lon="11.3158"><ele>550.0</ele><time>2026-04-07T07:24:54.002Z</time></trkpt><trkpt lat="45.6857433" lon="11.31569"><ele>550.0</ele><time>2026-04-07T07:24:55.002Z</time></trkpt><trkpt lat="45.6857133" lon="11.3155967"><ele>550.0</ele><time>2026-04-07T07:24:56.001Z</time></trkpt><trkpt lat="45.6857033" lon="11.3154817"><ele>550.0</ele><time>2026-04-07T07:24:58.002Z</time></trkpt><trkpt lat="45.6858133" lon="11.31549"><ele>550.0</ele><time>2026-04-07T07:25:01.002Z</time></trkpt><trkpt lat="45.6859417" lon="11.3154617"><ele>550.0</ele><time>2026-04-07T07:25:03.002Z</time></trkpt><trkpt lat="45.6860067" lon="11.31542"><ele>549.6666666666667</ele><time>2026-04-07T07:25:04.001Z</time></trkpt><trkpt lat="45.6860683" lon="11.3153717"><ele>549.3333333333334</ele><time>2026-04-07T07:25:05.002Z</time></trkpt><trkpt lat="45.6861417" lon="11.3152917"><ele>549.0</ele><time>2026-04-07T07:25:07.002Z</time></trkpt><trkpt lat="45.686115" lon="11.3151867"><ele>548.6666666666666</ele><time>2026-04-07T07:25:10.002Z</time></trkpt><trkpt lat="45.68605" lon="11.31514"><ele>548.3333333333333</ele><time>2026-04-07T07:25:12.001Z</time></trkpt><trkpt lat="45.6859683" lon="11.31508"><ele>548.0</ele><time>2026-04-07T07:25:14.002Z</time></trkpt><trkpt lat="45.6858833" lon="11.3149833"><ele>551.8</ele><time>2026-04-07T07:25:16.002Z</time></trkpt><trkpt lat="45.685785" lon="11.3148717"><ele>555.5999999999999</ele><time>2026-04-07T07:25:18.001Z</time></trkpt><trkpt lat="45.6857133" lon="11.31483"><ele>559.4000000000001</ele><time>2026-04-07T07:25:19.001Z</time></trkpt><trkpt lat="45.68563" lon="11.3148033"><ele>563.2</ele><time>2026-04-07T07:25:20.002Z</time></trkpt><trkpt lat="45.685555" lon="11.3147983"><ele>567.0</ele><time>2026-04-07T07:25:21.002Z</time></trkpt><trkpt lat="45.6854517" lon="11.3148133"><ele>567.0</ele><time>2026-04-07T07:25:23.002Z</time></trkpt><trkpt lat="45.6853917" lon="11.3147767"><ele>567.0</ele><time>2026-04-07T07:25:25.002Z</time></trkpt><trkpt lat="45.68547" lon="11.314685"><ele>567.0</ele><time>2026-04-07T07:25:30.002Z</time></trkpt><trkpt lat="45.6855367" lon="11.3146183"><ele>567.0</ele><time>2026-04-07T07:25:31.002Z</time></trkpt><trkpt lat="45.685605" lon="11.3145383"><ele>567.0</ele><time>2026-04-07T07:25:32.002Z</time></trkpt><trkpt lat="45.6856583" lon="11.31444"><ele>567.0</ele><time>2026-04-07T07:25:33.002Z</time></trkpt><trkpt lat="45.6857067" lon="11.31436"><ele>567.0</ele><time>2026-04-07T07:25:34.002Z</time></trkpt><trkpt lat="45.6857517" lon="11.3142967"><ele>567.0</ele><time>2026-04-07T07:25:35.002Z</time></trkpt><trkpt lat="45.6858667" lon="11.3142883"><ele>567.0</ele><time>2026-04-07T07:25:37.001Z</time></trkpt><trkpt lat="45.6859567" lon="11.314315"><ele>567.0</ele><time>2026-04-07T07:25:38.001Z</time></trkpt><trkpt lat="45.6860383" lon="11.3143383"><ele>567.0</ele><time>2026-04-07T07:25:39.002Z</time></trkpt><trkpt lat="45.6861367" lon="11.31433"><ele>567.0</ele><time>2026-04-07T07:25:40.001Z</time></trkpt><trkpt lat="45.68622" lon="11.3143033"><ele>567.0</ele><time>2026-04-07T07:25:41.001Z</time></trkpt><trkpt lat="45.6862967" lon="11.3142517"><ele>567.0</ele><time>2026-04-07T07:25:42.002Z</time></trkpt><trkpt lat="45.6863617" lon="11.3141867"><ele>567.0</ele><time>2026-04-07T07:25:43.001Z</time></trkpt><trkpt lat="45.6864283" lon="11.3140367"><ele>567.0</ele><time>2026-04-07T07:25:45.001Z</time></trkpt><trkpt lat="45.68642" lon="11.3139233"><ele>566.2</ele><time>2026-04-07T07:25:46.001Z</time></trkpt><trkpt lat="45.686395" lon="11.3137967"><ele>565.4000000000001</ele><time>2026-04-07T07:25:47.002Z</time></trkpt><trkpt lat="45.68635" lon="11.3136567"><ele>564.5999999999999</ele><time>2026-04-07T07:25:48.002Z</time></trkpt><trkpt lat="45.68631" lon="11.3135183"><ele>563.8</ele><time>2026-04-07T07:25:49.001Z</time></trkpt><trkpt lat="45.6862867" lon="11.3133617"><ele>563.0</ele><time>2026-04-07T07:25:50.002Z</time></trkpt><trkpt lat="45.68628" lon="11.3132133"><ele>563.0</ele><time>2026-04-07T07:25:51.001Z</time></trkpt><trkpt lat="45.68627" lon="11.313065"><ele>563.0</ele><time>2026-04-07T07:25:52.001Z</time></trkpt><trkpt lat="45.68626" lon="11.3129167"><ele>563.0</ele><time>2026-04-07T07:25:53.002Z</time></trkpt><trkpt lat="45.686235" lon="11.312795"><ele>563.0</ele><time>2026-04-07T07:25:54.001Z</time></trkpt><trkpt lat="45.6861933" lon="11.3126717"><ele>563.0</ele><time>2026-04-07T07:25:55.002Z</time></trkpt><trkpt lat="45.686135" lon="11.3125567"><ele>565.3333333333333</ele><time>2026-04-07T07:25:56.002Z</time></trkpt><trkpt lat="45.6860767" lon="11.3124517"><ele>567.6666666666666</ele><time>2026-04-07T07:25:57.002Z</time></trkpt><trkpt lat="45.6860267" lon="11.3123617"><ele>570.0</ele><time>2026-04-07T07:25:58.002Z</time></trkpt><trkpt lat="45.6859883" lon="11.3122717"><ele>572.3333333333334</ele><time>2026-04-07T07:25:59.001Z</time></trkpt><trkpt lat="45.6859633" lon="11.3121717"><ele>574.6666666666667</ele><time>2026-04-07T07:26:00.001Z</time></trkpt><trkpt lat="45.68595" lon="11.3120533"><ele>577.0</ele><time>2026-04-07T07:26:01.001Z</time></trkpt><trkpt lat="45.6859533" lon="11.3118833"><ele>577.0</ele><time>2026-04-07T07:26:02.002Z</time></trkpt><trkpt lat="45.68598" lon="11.3117117"><ele>577.0</ele><time>2026-04-07T07:26:03.002Z</time></trkpt><trkpt lat="45.6859967" lon="11.3115533"><ele>577.0</ele><time>2026-04-07T07:26:04.001Z</time></trkpt><trkpt lat="45.686025" lon="11.311425"><ele>577.0</ele><time>2026-04-07T07:26:05.001Z</time></trkpt><trkpt lat="45.6860433" lon="11.3112967"><ele>577.0</ele><time>2026-04-07T07:26:06.002Z</time></trkpt><trkpt lat="45.6860533" lon="11.3111867"><ele>576.8333333333334</ele><time>2026-04-07T07:26:07.001Z</time></trkpt><trkpt lat="45.6860433" lon="11.3110733"><ele>576.6666666666667</ele><time>2026-04-07T07:26:08.002Z</time></trkpt><trkpt lat="45.6860067" lon="11.3109783"><ele>576.5</ele><time>2026-04-07T07:26:09.002Z</time></trkpt><trkpt lat="45.6859583" lon="11.3108333"><ele>576.3333333333334</ele><time>2026-04-07T07:26:11.001Z</time></trkpt><trkpt lat="45.68595" lon="11.3107167"><ele>576.1666666666666</ele><time>2026-04-07T07:26:13.002Z</time></trkpt><trkpt lat="45.68603" lon="11.310785"><ele>576.0</ele><time>2026-04-07T07:26:16.001Z</time></trkpt><trkpt lat="45.6860883" lon="11.3108933"><ele>577.4</ele><time>2026-04-07T07:26:17.001Z</time></trkpt><trkpt lat="45.68617" lon="11.3110133"><ele>578.8</ele><time>2026-04-07T07:26:18.002Z</time></trkpt><trkpt lat="45.6862633" lon="11.311105"><ele>580.1999999999999</ele><time>2026-04-07T07:26:19.002Z</time></trkpt><trkpt lat="45.6863567" lon="11.31118"><ele>581.6</ele><time>2026-04-07T07:26:20.002Z</time></trkpt><trkpt lat="45.6864517" lon="11.3112517"><ele>583.0</ele><time>2026-04-07T07:26:21.002Z</time></trkpt><trkpt lat="45.6865417" lon="11.311315"><ele>583.0</ele><time>2026-04-07T07:26:22.002Z</time></trkpt><trkpt lat="45.6866317" lon="11.3113583"><ele>583.0</ele><time>2026-04-07T07:26:23.002Z</time></trkpt><trkpt lat="45.6867167" lon="11.3114"><ele>583.0</ele><time>2026-04-07T07:26:24.001Z</time></trkpt><trkpt lat="45.686795" lon="11.31143"><ele>583.0</ele><time>2026-04-07T07:26:25.002Z</time></trkpt><trkpt lat="45.6868733" lon="11.311455"><ele>583.0</ele><time>2026-04-07T07:26:26.001Z</time></trkpt><trkpt lat="45.6869583" lon="11.3114733"><ele>583.0</ele><time>2026-04-07T07:26:27.002Z</time></trkpt><trkpt lat="45.6870433" lon="11.3114833"><ele>581.8333333333334</ele><time>2026-04-07T07:26:28.001Z</time></trkpt><trkpt lat="45.6871417" lon="11.31149"><ele>580.6666666666667</ele><time>2026-04-07T07:26:29.001Z</time></trkpt><trkpt lat="45.687235" lon="11.3115067"><ele>579.5</ele><time>2026-04-07T07:26:30.002Z</time></trkpt><trkpt lat="45.687315" lon="11.311535"><ele>578.3333333333334</ele><time>2026-04-07T07:26:31.002Z</time></trkpt><trkpt lat="45.6873967" lon="11.3115483"><ele>577.1666666666666</ele><time>2026-04-07T07:26:32.002Z</time></trkpt><trkpt lat="45.6874733" lon="11.31155"><ele>576.0</ele><time>2026-04-07T07:26:33.002Z</time></trkpt><trkpt lat="45.687555" lon="11.31155"><ele>576.0</ele><time>2026-04-07T07:26:34.002Z</time></trkpt><trkpt lat="45.6876317" lon="11.3115633"><ele>576.0</ele><time>2026-04-07T07:26:35.002Z</time></trkpt><trkpt lat="45.687715" lon="11.3115483"><ele>576.0</ele><time>2026-04-07T07:26:36.002Z</time></trkpt><trkpt lat="45.687785" lon="11.311515"><ele>576.0</ele><time>2026-04-07T07:26:37.002Z</time></trkpt><trkpt lat="45.687865" lon="11.3114733"><ele>576.0</ele><time>2026-04-07T07:26:38.002Z</time></trkpt><trkpt lat="45.6879633" lon="11.3114533"><ele>576.0</ele><time>2026-04-07T07:26:39.002Z</time></trkpt><trkpt lat="45.688055" lon="11.31144"><ele>577.8</ele><time>2026-04-07T07:26:40.002Z</time></trkpt><trkpt lat="45.6881483" lon="11.3114333"><ele>579.6</ele><time>2026-04-07T07:26:41.002Z</time></trkpt><trkpt lat="45.6882317" lon="11.3114617"><ele>581.4</ele><time>2026-04-07T07:26:42.001Z</time></trkpt><trkpt lat="45.688315" lon="11.3115217"><ele>583.2</ele><time>2026-04-07T07:26:43.002Z</time></trkpt><trkpt lat="45.6884067" lon="11.3115967"><ele>585.0</ele><time>2026-04-07T07:26:44.002Z</time></trkpt><trkpt lat="45.6884917" lon="11.3116617"><ele>585.0</ele><time>2026-04-07T07:26:45.001Z</time></trkpt><trkpt lat="45.6885567" lon="11.311715"><ele>585.0</ele><time>2026-04-07T07:26:46.002Z</time></trkpt><trkpt lat="45.68866" lon="11.3117533"><ele>585.0</ele><time>2026-04-07T07:26:48.002Z</time></trkpt><trkpt lat="45.6887683" lon="11.3117117"><ele>585.0</ele><time>2026-04-07T07:26:50.001Z</time></trkpt><trkpt lat="45.6888283" lon="11.3116783"><ele>585.0</ele><time>2026-04-07T07:26:51.001Z</time></trkpt><trkpt lat="45.688905" lon="11.3116617"><ele>585.0</ele><time>2026-04-07T07:26:52.002Z</time></trkpt><trkpt lat="45.6889883" lon="11.3116517"><ele>587.0</ele><time>2026-04-07T07:26:53.002Z</time></trkpt><trkpt lat="45.6890783" lon="11.31164"><ele>589.0</ele><time>2026-04-07T07:26:54.002Z</time></trkpt><trkpt lat="45.68917" lon="11.3116267"><ele>591.0</ele><time>2026-04-07T07:26:55.002Z</time></trkpt><trkpt lat="45.689255" lon="11.3116"><ele>593.0</ele><time>2026-04-07T07:26:56.002Z</time></trkpt><trkpt lat="45.68934" lon="11.31156"><ele>595.0</ele><time>2026-04-07T07:26:57.001Z</time></trkpt><trkpt lat="45.6894283" lon="11.3115183"><ele>595.0</ele><time>2026-04-07T07:26:58.002Z</time></trkpt><trkpt lat="45.68952" lon="11.3114633"><ele>595.0</ele><time>2026-04-07T07:26:59.002Z</time></trkpt><trkpt lat="45.6896183" lon="11.311415"><ele>595.0</ele><time>2026-04-07T07:27:00.001Z</time></trkpt><trkpt lat="45.689715" lon="11.3113833"><ele>595.0</ele><time>2026-04-07T07:27:01.001Z</time></trkpt><trkpt lat="45.6898167" lon="11.31136"><ele>595.0</ele><time>2026-04-07T07:27:02.002Z</time></trkpt><trkpt lat="45.68992" lon="11.3113367"><ele>599.8</ele><time>2026-04-07T07:27:03.002Z</time></trkpt><trkpt lat="45.6900217" lon="11.3113183"><ele>604.6</ele><time>2026-04-07T07:27:04.002Z</time></trkpt><trkpt lat="45.6901167" lon="11.3112967"><ele>609.4</ele><time>2026-04-07T07:27:05.002Z</time></trkpt><trkpt lat="45.6902083" lon="11.3112817"><ele>614.2</ele><time>2026-04-07T07:27:06.001Z</time></trkpt><trkpt lat="45.690285" lon="11.3112583"><ele>619.0</ele><time>2026-04-07T07:27:07.002Z</time></trkpt><trkpt lat="45.69037" lon="11.3112283"><ele>619.0</ele><time>2026-04-07T07:27:08.001Z</time></trkpt><trkpt lat="45.69046" lon="11.3111933"><ele>619.0</ele><time>2026-04-07T07:27:09.001Z</time></trkpt><trkpt lat="45.6905517" lon="11.311155"><ele>619.0</ele><time>2026-04-07T07:27:10.001Z</time></trkpt><trkpt lat="45.6906417" lon="11.3111217"><ele>619.0</ele><time>2026-04-07T07:27:11.002Z</time></trkpt><trkpt lat="45.690725" lon="11.3110883"><ele>619.0</ele><time>2026-04-07T07:27:12.002Z</time></trkpt><trkpt lat="45.6908" lon="11.3110517"><ele>619.0</ele><time>2026-04-07T07:27:13.002Z</time></trkpt><trkpt lat="45.6908733" lon="11.3110167"><ele>619.0</ele><time>2026-04-07T07:27:14.002Z</time></trkpt><trkpt lat="45.6909533" lon="11.31099"><ele>619.0</ele><time>2026-04-07T07:27:15.001Z</time></trkpt><trkpt lat="45.6910383" lon="11.310975"><ele>619.0</ele><time>2026-04-07T07:27:16.002Z</time></trkpt><trkpt lat="45.6911217" lon="11.3109583"><ele>619.0</ele><time>2026-04-07T07:27:17.002Z</time></trkpt><trkpt lat="45.6912033" lon="11.31092"><ele>619.0</ele><time>2026-04-07T07:27:18.002Z</time></trkpt><trkpt lat="45.6912767" lon="11.3108783"><ele>619.0</ele><time>2026-04-07T07:27:19.001Z</time></trkpt><trkpt lat="45.6913333" lon="11.3108367"><ele>619.0</ele><time>2026-04-07T07:27:20.002Z</time></trkpt><trkpt lat="45.6913833" lon="11.31077"><ele>619.0</ele><time>2026-04-07T07:27:22.001Z</time></trkpt><trkpt lat="45.69131" lon="11.3107017"><ele>619.0</ele><time>2026-04-07T07:27:26.002Z</time></trkpt><trkpt lat="45.6911883" lon="11.310685"><ele>619.0</ele><time>2026-04-07T07:27:28.001Z</time></trkpt><trkpt lat="45.6911217" lon="11.31067"><ele>619.0</ele><time>2026-04-07T07:27:29.002Z</time></trkpt><trkpt lat="45.691025" lon="11.3106433"><ele>619.0</ele><time>2026-04-07T07:27:31.002Z</time></trkpt><trkpt lat="45.6909817" lon="11.3105683"><ele>623.0</ele><time>2026-04-07T07:27:34.002Z</time></trkpt><trkpt lat="45.69103" lon="11.3105067"><ele>627.0</ele><time>2026-04-07T07:27:36.001Z</time></trkpt><trkpt lat="45.69114" lon="11.3104583"><ele>631.0</ele><time>2026-04-07T07:27:38.002Z</time></trkpt><trkpt lat="45.6912133" lon="11.310425"><ele>635.0</ele><time>2026-04-07T07:27:39.001Z</time></trkpt><trkpt lat="45.69129" lon="11.31038"><ele>639.0</ele><time>2026-04-07T07:27:40.002Z</time></trkpt><trkpt lat="45.69137" lon="11.31033"><ele>643.0</ele><time>2026-04-07T07:27:41.002Z</time></trkpt><trkpt lat="45.691445" lon="11.3102883"><ele>643.0</ele><time>2026-04-07T07:27:42.002Z</time></trkpt><trkpt lat="45.6915217" lon="11.3102267"><ele>643.0</ele><time>2026-04-07T07:27:43.002Z</time></trkpt><trkpt lat="45.6915983" lon="11.3101633"><ele>643.0</ele><time>2026-04-07T07:27:44.002Z</time></trkpt><trkpt lat="45.6916767" lon="11.3100983"><ele>643.0</ele><time>2026-04-07T07:27:45.002Z</time></trkpt><trkpt lat="45.69176" lon="11.310055"><ele>643.0</ele><time>2026-04-07T07:27:46.002Z</time></trkpt><trkpt lat="45.691855" lon="11.3100267"><ele>644.3333333333334</ele><time>2026-04-07T07:27:47.001Z</time></trkpt><trkpt lat="45.691955" lon="11.309995"><ele>645.6666666666667</ele><time>2026-04-07T07:27:48.001Z</time></trkpt><trkpt lat="45.69205" lon="11.3099733"><ele>647.0</ele><time>2026-04-07T07:27:49.002Z</time></trkpt><trkpt lat="45.6921217" lon="11.30995"><ele>648.3333333333334</ele><time>2026-04-07T07:27:50.002Z</time></trkpt><trkpt lat="45.6921817" lon="11.3099217"><ele>649.6666666666666</ele><time>2026-04-07T07:27:52.002Z</time></trkpt><trkpt lat="45.692215" lon="11.3098433"><ele>651.0</ele><time>2026-04-07T07:27:54.002Z</time></trkpt><trkpt lat="45.692175" lon="11.3097417"><ele>657.0</ele><time>2026-04-07T07:27:56.002Z</time></trkpt><trkpt lat="45.6921117" lon="11.3097017"><ele>663.0</ele><time>2026-04-07T07:27:57.002Z</time></trkpt><trkpt lat="45.6920167" lon="11.3096617"><ele>669.0</ele><time>2026-04-07T07:27:58.002Z</time></trkpt><trkpt lat="45.6919133" lon="11.3096233"><ele>675.0</ele><time>2026-04-07T07:27:59.002Z</time></trkpt><trkpt lat="45.6918083" lon="11.3095883"><ele>681.0</ele><time>2026-04-07T07:28:00.002Z</time></trkpt><trkpt lat="45.6917167" lon="11.3095633"><ele>681.0</ele><time>2026-04-07T07:28:01.001Z</time></trkpt><trkpt lat="45.691645" lon="11.3095467"><ele>681.0</ele><time>2026-04-07T07:28:02.002Z</time></trkpt><trkpt lat="45.6915817" lon="11.3095233"><ele>681.0</ele><time>2026-04-07T07:28:03.002Z</time></trkpt><trkpt lat="45.6915183" lon="11.3094867"><ele>681.0</ele><time>2026-04-07T07:28:04.002Z</time></trkpt><trkpt lat="45.69144" lon="11.309445"><ele>681.0</ele><time>2026-04-07T07:28:05.002Z</time></trkpt><trkpt lat="45.6913533" lon="11.3094"><ele>681.0</ele><time>2026-04-07T07:28:06.001Z</time></trkpt><trkpt lat="45.6912567" lon="11.309365"><ele>681.0</ele><time>2026-04-07T07:28:07.002Z</time></trkpt><trkpt lat="45.6911683" lon="11.3093467"><ele>681.0</ele><time>2026-04-07T07:28:08.001Z</time></trkpt><trkpt lat="45.6910883" lon="11.3093267"><ele>681.0</ele><time>2026-04-07T07:28:09.002Z</time></trkpt><trkpt lat="45.69102" lon="11.3093083"><ele>681.0</ele><time>2026-04-07T07:28:10.002Z</time></trkpt><trkpt lat="45.6909267" lon="11.3092883"><ele>681.0</ele><time>2026-04-07T07:28:12.002Z</time></trkpt><trkpt lat="45.69105" lon="11.3092633"><ele>681.0</ele><time>2026-04-07T07:28:19.002Z</time></trkpt><trkpt lat="45.6911567" lon="11.3092767"><ele>681.0</ele><time>2026-04-07T07:28:20.001Z</time></trkpt><trkpt lat="45.6912683" lon="11.309285"><ele>681.0</ele><time>2026-04-07T07:28:21.001Z</time></trkpt><trkpt lat="45.6913717" lon="11.3093067"><ele>681.0</ele><time>2026-04-07T07:28:22.002Z</time></trkpt><trkpt lat="45.6914683" lon="11.309345"><ele>681.0</ele><time>2026-04-07T07:28:23.002Z</time></trkpt><trkpt lat="45.6915683" lon="11.3093833"><ele>681.0</ele><time>2026-04-07T07:28:24.002Z</time></trkpt><trkpt lat="45.691665" lon="11.30941"><ele>681.0</ele><time>2026-04-07T07:28:25.002Z</time></trkpt><trkpt lat="45.6917617" lon="11.3094183"><ele>681.0</ele><time>2026-04-07T07:28:26.002Z</time></trkpt><trkpt lat="45.6918633" lon="11.3094167"><ele>681.0</ele><time>2026-04-07T07:28:27.001Z</time></trkpt><trkpt lat="45.69196" lon="11.3094267"><ele>681.0</ele><time>2026-04-07T07:28:28.002Z</time></trkpt><trkpt lat="45.6920567" lon="11.3094367"><ele>682.5999999999999</ele><time>2026-04-07T07:28:29.002Z</time></trkpt><trkpt lat="45.69215" lon="11.30944"><ele>684.2</ele><time>2026-04-07T07:28:30.002Z</time></trkpt><trkpt lat="45.6922533" lon="11.3094467"><ele>685.8</ele><time>2026-04-07T07:28:31.002Z</time></trkpt><trkpt lat="45.692355" lon="11.3094583"><ele>687.4000000000001</ele><time>2026-04-07T07:28:32.002Z</time></trkpt><trkpt lat="45.6924733" lon="11.3094733"><ele>689.0</ele><time>2026-04-07T07:28:33.002Z</time></trkpt><trkpt lat="45.6925917" lon="11.309485"><ele>689.0</ele><time>2026-04-07T07:28:34.002Z</time></trkpt><trkpt lat="45.6927" lon="11.30949"><ele>689.0</ele><time>2026-04-07T07:28:35.001Z</time></trkpt><trkpt lat="45.692805" lon="11.30949"><ele>689.0</ele><time>2026-04-07T07:28:36.002Z</time></trkpt><trkpt lat="45.692905" lon="11.3095067"><ele>689.0</ele><time>2026-04-07T07:28:37.002Z</time></trkpt><trkpt lat="45.6929967" lon="11.30954"><ele>689.0</ele><time>2026-04-07T07:28:38.002Z</time></trkpt><trkpt lat="45.6930967" lon="11.3095683"><ele>689.1666666666666</ele><time>2026-04-07T07:28:39.002Z</time></trkpt><trkpt lat="45.693185" lon="11.3096033"><ele>689.3333333333333</ele><time>2026-04-07T07:28:40.001Z</time></trkpt><trkpt lat="45.69327" lon="11.309625"><ele>689.5</ele><time>2026-04-07T07:28:41Z</time></trkpt><trkpt lat="45.6933383" lon="11.3096467"><ele>689.6666666666666</ele><time>2026-04-07T07:28:42Z</time></trkpt><trkpt lat="45.6934033" lon="11.309655"><ele>689.8333333333334</ele><time>2026-04-07T07:28:43.001Z</time></trkpt><trkpt lat="45.6934783" lon="11.3096367"><ele>690.0</ele><time>2026-04-07T07:28:44Z</time></trkpt><trkpt lat="45.6935533" lon="11.3096"><ele>685.8</ele><time>2026-04-07T07:28:45Z</time></trkpt><trkpt lat="45.6936283" lon="11.3095533"><ele>681.6</ele><time>2026-04-07T07:28:46.001Z</time></trkpt><trkpt lat="45.6937167" lon="11.3094983"><ele>677.4000000000001</ele><time>2026-04-07T07:28:47.001Z</time></trkpt><trkpt lat="45.6937917" lon="11.3094383"><ele>673.2</ele><time>2026-04-07T07:28:48Z</time></trkpt><trkpt lat="45.6938683" lon="11.3093717"><ele>669.0</ele><time>2026-04-07T07:28:49.001Z</time></trkpt><trkpt lat="45.6939417" lon="11.3092833"><ele>669.0</ele><time>2026-04-07T07:28:50.001Z</time></trkpt><trkpt lat="45.69401" lon="11.30921"><ele>669.0</ele><time>2026-04-07T07:28:51.001Z</time></trkpt><trkpt lat="45.6940867" lon="11.3090667"><ele>669.0</ele><time>2026-04-07T07:28:53Z</time></trkpt><trkpt lat="45.694145" lon="11.308975"><ele>669.0</ele><time>2026-04-07T07:28:54.001Z</time></trkpt><trkpt lat="45.6941767" lon="11.3088667"><ele>669.0</ele><time>2026-04-07T07:28:55Z</time></trkpt><trkpt lat="45.6942033" lon="11.30876"><ele>669.1666666666666</ele><time>2026-04-07T07:28:56Z</time></trkpt><trkpt lat="45.6942217" lon="11.3086717"><ele>669.3333333333334</ele><time>2026-04-07T07:28:57Z</time></trkpt><trkpt lat="45.694205" lon="11.3085067"><ele>669.5</ele><time>2026-04-07T07:28:59Z</time></trkpt><trkpt lat="45.6941917" lon="11.3084133"><ele>669.6666666666667</ele><time>2026-04-07T07:29:00.001Z</time></trkpt><trkpt lat="45.6941467" lon="11.3083083"><ele>669.8333333333334</ele><time>2026-04-07T07:29:01.001Z</time></trkpt><trkpt lat="45.69409" lon="11.30819"><ele>670.0</ele><time>2026-04-07T07:29:02.001Z</time></trkpt><trkpt lat="45.69403" lon="11.3080683"><ele>665.8</ele><time>2026-04-07T07:29:03.001Z</time></trkpt><trkpt lat="45.6939633" lon="11.3079383"><ele>661.6</ele><time>2026-04-07T07:29:04Z</time></trkpt><trkpt lat="45.6939017" lon="11.3078217"><ele>657.4000000000001</ele><time>2026-04-07T07:29:05.001Z</time></trkpt><trkpt lat="45.693835" lon="11.307705"><ele>653.2</ele><time>2026-04-07T07:29:06.001Z</time></trkpt><trkpt lat="45.6937817" lon="11.3075967"><ele>649.0</ele><time>2026-04-07T07:29:07.001Z</time></trkpt><trkpt lat="45.6937417" lon="11.3075033"><ele>649.0</ele><time>2026-04-07T07:29:08.001Z</time></trkpt><trkpt lat="45.6937083" lon="11.307415"><ele>649.0</ele><time>2026-04-07T07:29:09.001Z</time></trkpt><trkpt lat="45.6936267" lon="11.3072483"><ele>649.0</ele><time>2026-04-07T07:29:11.001Z</time></trkpt><trkpt lat="45.6935917" lon="11.3071717"><ele>649.0</ele><time>2026-04-07T07:29:12Z</time></trkpt><trkpt lat="45.6935517" lon="11.3070733"><ele>649.0</ele><time>2026-04-07T07:29:13.001Z</time></trkpt><trkpt lat="45.6935067" lon="11.30696"><ele>649.0</ele><time>2026-04-07T07:29:14Z</time></trkpt><trkpt lat="45.6934683" lon="11.30683"><ele>657.0</ele><time>2026-04-07T07:29:15.001Z</time></trkpt><trkpt lat="45.6934417" lon="11.3066833"><ele>665.0</ele><time>2026-04-07T07:29:16Z</time></trkpt><trkpt lat="45.6934183" lon="11.3065367"><ele>673.0</ele><time>2026-04-07T07:29:17Z</time></trkpt><trkpt lat="45.6933983" lon="11.30637"><ele>681.0</ele><time>2026-04-07T07:29:18.001Z</time></trkpt><trkpt lat="45.6933817" lon="11.3061983"><ele>681.0</ele><time>2026-04-07T07:29:19Z</time></trkpt><trkpt lat="45.693365" lon="11.306045"><ele>681.0</ele><time>2026-04-07T07:29:20Z</time></trkpt><trkpt lat="45.6933483" lon="11.3059083"><ele>681.0</ele><time>2026-04-07T07:29:21.001Z</time></trkpt><trkpt lat="45.6933367" lon="11.30577"><ele>681.0</ele><time>2026-04-07T07:29:22.001Z</time></trkpt><trkpt lat="45.6933217" lon="11.3056433"><ele>681.0</ele><time>2026-04-07T07:29:23.001Z</time></trkpt><trkpt lat="45.6933017" lon="11.3055283"><ele>677.8333333333334</ele><time>2026-04-07T07:29:24Z</time></trkpt><trkpt lat="45.6932767" lon="11.305415"><ele>674.6666666666666</ele><time>2026-04-07T07:29:25.001Z</time></trkpt><trkpt lat="45.69325" lon="11.30531"><ele>671.5</ele><time>2026-04-07T07:29:26.001Z</time></trkpt><trkpt lat="45.6932417" lon="11.30522"><ele>668.3333333333333</ele><time>2026-04-07T07:29:27.001Z</time></trkpt><trkpt lat="45.6932167" lon="11.3051133"><ele>665.1666666666666</ele><time>2026-04-07T07:29:28.001Z</time></trkpt><trkpt lat="45.6931933" lon="11.3049867"><ele>662.0</ele><time>2026-04-07T07:29:30Z</time></trkpt><trkpt lat="45.69313" lon="11.3049067"><ele>662.0</ele><time>2026-04-07T07:29:32Z</time></trkpt><trkpt lat="45.6930267" lon="11.30487"><ele>662.0</ele><time>2026-04-07T07:29:34Z</time></trkpt><trkpt lat="45.6929583" lon="11.30484"><ele>662.0</ele><time>2026-04-07T07:29:35.001Z</time></trkpt><trkpt lat="45.6928867" lon="11.304805"><ele>662.0</ele><time>2026-04-07T07:29:36.001Z</time></trkpt><trkpt lat="45.6928283" lon="11.304755"><ele>662.0</ele><time>2026-04-07T07:29:37.001Z</time></trkpt><trkpt lat="45.69274" lon="11.3046233"><ele>662.0</ele><time>2026-04-07T07:29:39.001Z</time></trkpt><trkpt lat="45.6926917" lon="11.3045033"><ele>670.6</ele><time>2026-04-07T07:29:40.001Z</time></trkpt><trkpt lat="45.6926567" lon="11.3043633"><ele>679.2</ele><time>2026-04-07T07:29:41Z</time></trkpt><trkpt lat="45.692645" lon="11.3042467"><ele>687.8</ele><time>2026-04-07T07:29:42Z</time></trkpt><trkpt lat="45.69262" lon="11.3041083"><ele>696.4</ele><time>2026-04-07T07:29:43.001Z</time></trkpt><trkpt lat="45.6925933" lon="11.30397"><ele>705.0</ele><time>2026-04-07T07:29:44.001Z</time></trkpt><trkpt lat="45.692565" lon="11.303825"><ele>705.6</ele><time>2026-04-07T07:29:45Z</time></trkpt><trkpt lat="45.6925433" lon="11.303675"><ele>706.2</ele><time>2026-04-07T07:29:46.001Z</time></trkpt><trkpt lat="45.6925233" lon="11.3035267"><ele>706.8</ele><time>2026-04-07T07:29:47Z</time></trkpt><trkpt lat="45.6925267" lon="11.3034033"><ele>707.4</ele><time>2026-04-07T07:29:48Z</time></trkpt><trkpt lat="45.69253" lon="11.3032817"><ele>708.0</ele><time>2026-04-07T07:29:49.001Z</time></trkpt><trkpt lat="45.69253" lon="11.303165"><ele>710.6666666666666</ele><time>2026-04-07T07:29:50Z</time></trkpt><trkpt lat="45.69254" lon="11.3030467"><ele>713.3333333333334</ele><time>2026-04-07T07:29:51Z</time></trkpt><trkpt lat="45.6925667" lon="11.3029417"><ele>716.0</ele><time>2026-04-07T07:29:52Z</time></trkpt><trkpt lat="45.6925933" lon="11.3028333"><ele>718.6666666666667</ele><time>2026-04-07T07:29:53Z</time></trkpt><trkpt lat="45.6926217" lon="11.3027367"><ele>721.3333333333334</ele><time>2026-04-07T07:29:54.001Z</time></trkpt><trkpt lat="45.6927367" lon="11.3026967"><ele>724.0</ele><time>2026-04-07T07:29:55.001Z</time></trkpt><trkpt lat="45.6927983" lon="11.30263"><ele>719.3333333333334</ele><time>2026-04-07T07:29:56Z</time></trkpt><trkpt lat="45.6928733" lon="11.3025633"><ele>714.6666666666667</ele><time>2026-04-07T07:29:57.001Z</time></trkpt><trkpt lat="45.69292" lon="11.3024733"><ele>710.0</ele><time>2026-04-07T07:29:58.001Z</time></trkpt><trkpt lat="45.6929667" lon="11.302385"><ele>705.3333333333334</ele><time>2026-04-07T07:29:59.001Z</time></trkpt><trkpt lat="45.693" lon="11.3022917"><ele>700.6666666666666</ele><time>2026-04-07T07:30:00.001Z</time></trkpt><trkpt lat="45.6930133" lon="11.3021833"><ele>696.0</ele><time>2026-04-07T07:30:01Z</time></trkpt><trkpt lat="45.6930283" lon="11.3020817"><ele>696.0</ele><time>2026-04-07T07:30:02.001Z</time></trkpt><trkpt lat="45.69305" lon="11.30198"><ele>696.0</ele><time>2026-04-07T07:30:03.001Z</time></trkpt><trkpt lat="45.6930833" lon="11.30188"><ele>696.0</ele><time>2026-04-07T07:30:04.001Z</time></trkpt><trkpt lat="45.6931217" lon="11.3017817"><ele>696.0</ele><time>2026-04-07T07:30:05Z</time></trkpt><trkpt lat="45.6931717" lon="11.3016783"><ele>696.0</ele><time>2026-04-07T07:30:06.001Z</time></trkpt><trkpt lat="45.6932433" lon="11.301605"><ele>696.0</ele><time>2026-04-07T07:30:07.001Z</time></trkpt><trkpt lat="45.6933017" lon="11.3015233"><ele>696.0</ele><time>2026-04-07T07:30:08.001Z</time></trkpt><trkpt lat="45.6933533" lon="11.30143"><ele>696.0</ele><time>2026-04-07T07:30:09.001Z</time></trkpt><trkpt lat="45.6934067" lon="11.3013133"><ele>696.0</ele><time>2026-04-07T07:30:10.001Z</time></trkpt><trkpt lat="45.6934583" lon="11.3011933"><ele>696.0</ele><time>2026-04-07T07:30:11.001Z</time></trkpt><trkpt lat="45.6935317" lon="11.301055"><ele>696.0</ele><time>2026-04-07T07:30:12.001Z</time></trkpt><trkpt lat="45.693605" lon="11.3009083"><ele>689.5</ele><time>2026-04-07T07:30:13Z</time></trkpt><trkpt lat="45.693675" lon="11.3007933"><ele>683.0</ele><time>2026-04-07T07:30:14Z</time></trkpt><trkpt lat="45.6937217" lon="11.3006833"><ele>676.5</ele><time>2026-04-07T07:30:15.001Z</time></trkpt><trkpt lat="45.69377" lon="11.3005983"><ele>670.0</ele><time>2026-04-07T07:30:16.001Z</time></trkpt><trkpt lat="45.6937817" lon="11.3005067"><ele>663.5</ele><time>2026-04-07T07:30:17.001Z</time></trkpt><trkpt lat="45.69375" lon="11.3003733"><ele>657.0</ele><time>2026-04-07T07:30:19.001Z</time></trkpt><trkpt lat="45.6936533" lon="11.30024"><ele>662.1666666666666</ele><time>2026-04-07T07:30:21.001Z</time></trkpt><trkpt lat="45.6935817" lon="11.3001533"><ele>667.3333333333334</ele><time>2026-04-07T07:30:22Z</time></trkpt><trkpt lat="45.6935" lon="11.300075"><ele>672.5</ele><time>2026-04-07T07:30:23.001Z</time></trkpt><trkpt lat="45.6934467" lon="11.2999883"><ele>677.6666666666667</ele><time>2026-04-07T07:30:24Z</time></trkpt><trkpt lat="45.693415" lon="11.2999017"><ele>682.8333333333334</ele><time>2026-04-07T07:30:25.001Z</time></trkpt><trkpt lat="45.6933933" lon="11.299795"><ele>688.0</ele><time>2026-04-07T07:30:26.001Z</time></trkpt><trkpt lat="45.6934017" lon="11.2996933"><ele>688.0</ele><time>2026-04-07T07:30:27.001Z</time></trkpt><trkpt lat="45.6934033" lon="11.299595"><ele>688.0</ele><time>2026-04-07T07:30:28.001Z</time></trkpt><trkpt lat="45.693365" lon="11.2994583"><ele>688.0</ele><time>2026-04-07T07:30:30.001Z</time></trkpt><trkpt lat="45.6933" lon="11.2993817"><ele>688.0</ele><time>2026-04-07T07:30:31Z</time></trkpt><trkpt lat="45.6932333" lon="11.2993133"><ele>688.0</ele><time>2026-04-07T07:30:32Z</time></trkpt><trkpt lat="45.69318" lon="11.299255"><ele>688.0</ele><time>2026-04-07T07:30:33.001Z</time></trkpt><trkpt lat="45.6931283" lon="11.299175"><ele>688.0</ele><time>2026-04-07T07:30:34Z</time></trkpt><trkpt lat="45.6931" lon="11.2990733"><ele>688.0</ele><time>2026-04-07T07:30:35Z</time></trkpt><trkpt lat="45.693085" lon="11.2989567"><ele>688.0</ele><time>2026-04-07T07:30:36Z</time></trkpt><trkpt lat="45.6930817" lon="11.2988417"><ele>688.0</ele><time>2026-04-07T07:30:37.001Z</time></trkpt><trkpt lat="45.6931283" lon="11.2986933"><ele>688.0</ele><time>2026-04-07T07:30:39.001Z</time></trkpt><trkpt lat="45.6931383" lon="11.2986033"><ele>688.0</ele><time>2026-04-07T07:30:40.001Z</time></trkpt><trkpt lat="45.69319" lon="11.2984083"><ele>688.8</ele><time>2026-04-07T07:30:42Z</time></trkpt><trkpt lat="45.6932467" lon="11.2983"><ele>689.5999999999999</ele><time>2026-04-07T07:30:43Z</time></trkpt><trkpt lat="45.69331" lon="11.298205"><ele>690.4000000000001</ele><time>2026-04-07T07:30:44.001Z</time></trkpt><trkpt lat="45.693345" lon="11.2981017"><ele>691.2</ele><time>2026-04-07T07:30:45.001Z</time></trkpt><trkpt lat="45.6933817" lon="11.2980167"><ele>692.0</ele><time>2026-04-07T07:30:46Z</time></trkpt><trkpt lat="45.6933683" lon="11.2978433"><ele>695.0</ele><time>2026-04-07T07:30:48.001Z</time></trkpt><trkpt lat="45.69335" lon="11.297715"><ele>698.0</ele><time>2026-04-07T07:30:49.001Z</time></trkpt><trkpt lat="45.693335" lon="11.297585"><ele>701.0</ele><time>2026-04-07T07:30:50.001Z</time></trkpt><trkpt lat="45.6933183" lon="11.2974317"><ele>704.0</ele><time>2026-04-07T07:30:51.001Z</time></trkpt><trkpt lat="45.6933167" lon="11.2972783"><ele>707.0</ele><time>2026-04-07T07:30:52Z</time></trkpt><trkpt lat="45.69332" lon="11.29714"><ele>708.8</ele><time>2026-04-07T07:30:53.001Z</time></trkpt><trkpt lat="45.6933383" lon="11.2970267"><ele>710.6</ele><time>2026-04-07T07:30:54Z</time></trkpt><trkpt lat="45.6933717" lon="11.2969217"><ele>712.4</ele><time>2026-04-07T07:30:55Z</time></trkpt><trkpt lat="45.6934217" lon="11.2968267"><ele>714.1999999999999</ele><time>2026-04-07T07:30:56Z</time></trkpt><trkpt lat="45.69348" lon="11.2967517"><ele>716.0</ele><time>2026-04-07T07:30:57.001Z</time></trkpt><trkpt lat="45.693585" lon="11.2966417"><ele>705.5999999999999</ele><time>2026-04-07T07:30:59.001Z</time></trkpt><trkpt lat="45.6936133" lon="11.296525"><ele>695.2</ele><time>2026-04-07T07:31:01.001Z</time></trkpt><trkpt lat="45.693605" lon="11.2963633"><ele>684.8</ele><time>2026-04-07T07:31:03Z</time></trkpt><trkpt lat="45.693605" lon="11.296255"><ele>674.4000000000001</ele><time>2026-04-07T07:31:04Z</time></trkpt><trkpt lat="45.693615" lon="11.296125"><ele>664.0</ele><time>2026-04-07T07:31:05Z</time></trkpt><trkpt lat="45.69364" lon="11.296"><ele>664.0</ele><time>2026-04-07T07:31:06.001Z</time></trkpt><trkpt lat="45.693695" lon="11.2958533"><ele>664.0</ele><time>2026-04-07T07:31:07.001Z</time></trkpt><trkpt lat="45.693745" lon="11.2957333"><ele>664.0</ele><time>2026-04-07T07:31:08.001Z</time></trkpt><trkpt lat="45.69379" lon="11.2956267"><ele>664.0</ele><time>2026-04-07T07:31:09.001Z</time></trkpt><trkpt lat="45.6938117" lon="11.2955167"><ele>664.0</ele><time>2026-04-07T07:31:10.001Z</time></trkpt><trkpt lat="45.6938233" lon="11.2954017"><ele>663.1666666666667</ele><time>2026-04-07T07:31:11.001Z</time></trkpt><trkpt lat="45.693815" lon="11.2952867"><ele>662.3333333333334</ele><time>2026-04-07T07:31:12.001Z</time></trkpt><trkpt lat="45.6937817" lon="11.2951683"><ele>661.5</ele><time>2026-04-07T07:31:13.001Z</time></trkpt><trkpt lat="45.6937483" lon="11.2950433"><ele>660.6666666666666</ele><time>2026-04-07T07:31:14Z</time></trkpt><trkpt lat="45.6937283" lon="11.2949317"><ele>659.8333333333333</ele><time>2026-04-07T07:31:15.001Z</time></trkpt><trkpt lat="45.6937133" lon="11.2948417"><ele>659.0</ele><time>2026-04-07T07:31:16Z</time></trkpt><trkpt lat="45.6936783" lon="11.29476"><ele>656.5</ele><time>2026-04-07T07:31:17Z</time></trkpt><trkpt lat="45.6936183" lon="11.2947067"><ele>654.0</ele><time>2026-04-07T07:31:18Z</time></trkpt><trkpt lat="45.6935533" lon="11.2946733"><ele>651.5</ele><time>2026-04-07T07:31:19.001Z</time></trkpt><trkpt lat="45.6934817" lon="11.2946617"><ele>649.0</ele><time>2026-04-07T07:31:20.001Z</time></trkpt><trkpt lat="45.6933967" lon="11.2946467"><ele>646.5</ele><time>2026-04-07T07:31:21.001Z</time></trkpt><trkpt lat="45.693305" lon="11.294615"><ele>644.0</ele><time>2026-04-07T07:31:22.001Z</time></trkpt><trkpt lat="45.693215" lon="11.2945533"><ele>654.4000000000001</ele><time>2026-04-07T07:31:23.001Z</time></trkpt><trkpt lat="45.6931283" lon="11.2944667"><ele>664.8</ele><time>2026-04-07T07:31:24.001Z</time></trkpt><trkpt lat="45.6930533" lon="11.294375"><ele>675.2</ele><time>2026-04-07T07:31:25Z</time></trkpt><trkpt lat="45.6929867" lon="11.294265"><ele>685.5999999999999</ele><time>2026-04-07T07:31:26.001Z</time></trkpt><trkpt lat="45.6929517" lon="11.29415"><ele>696.0</ele><time>2026-04-07T07:31:27Z</time></trkpt><trkpt lat="45.69293" lon="11.294025"><ele>694.1666666666666</ele><time>2026-04-07T07:31:28Z</time></trkpt><trkpt lat="45.692915" lon="11.2939133"><ele>692.3333333333334</ele><time>2026-04-07T07:31:29.001Z</time></trkpt><trkpt lat="45.6929083" lon="11.2937983"><ele>690.5</ele><time>2026-04-07T07:31:30Z</time></trkpt><trkpt lat="45.69292" lon="11.2936867"><ele>688.6666666666667</ele><time>2026-04-07T07:31:31.001Z</time></trkpt><trkpt lat="45.6929533" lon="11.293575"><ele>686.8333333333334</ele><time>2026-04-07T07:31:32.001Z</time></trkpt><trkpt lat="45.6929733" lon="11.2934833"><ele>685.0</ele><time>2026-04-07T07:31:33.001Z</time></trkpt><trkpt lat="45.6929983" lon="11.2933483"><ele>685.0</ele><time>2026-04-07T07:31:35.001Z</time></trkpt><trkpt lat="45.6929817" lon="11.29325"><ele>685.0</ele><time>2026-04-07T07:31:36Z</time></trkpt><trkpt lat="45.6929467" lon="11.293135"><ele>685.0</ele><time>2026-04-07T07:31:37.001Z</time></trkpt><trkpt lat="45.6929017" lon="11.2930167"><ele>685.0</ele><time>2026-04-07T07:31:38.001Z</time></trkpt><trkpt lat="45.69286" lon="11.2928867"><ele>685.0</ele><time>2026-04-07T07:31:39.001Z</time></trkpt><trkpt lat="45.6928317" lon="11.2927667"><ele>685.0</ele><time>2026-04-07T07:31:40Z</time></trkpt><trkpt lat="45.69286" lon="11.2926033"><ele>686.0</ele><time>2026-04-07T07:31:42.001Z</time></trkpt><trkpt lat="45.69289" lon="11.2925217"><ele>687.0</ele><time>2026-04-07T07:31:43Z</time></trkpt><trkpt lat="45.69292" lon="11.2924283"><ele>688.0</ele><time>2026-04-07T07:31:44.001Z</time></trkpt><trkpt lat="45.69296" lon="11.2923317"><ele>689.0</ele><time>2026-04-07T07:31:45.001Z</time></trkpt><trkpt lat="45.69301" lon="11.2922333"><ele>690.0</ele><time>2026-04-07T07:31:46.001Z</time></trkpt><trkpt lat="45.6930617" lon="11.292115"><ele>691.0</ele><time>2026-04-07T07:31:47.001Z</time></trkpt><trkpt lat="45.6931033" lon="11.29201"><ele>691.5999999999999</ele><time>2026-04-07T07:31:48.001Z</time></trkpt><trkpt lat="45.6931417" lon="11.2919217"><ele>692.2</ele><time>2026-04-07T07:31:49Z</time></trkpt><trkpt lat="45.693155" lon="11.291825"><ele>692.8</ele><time>2026-04-07T07:31:50.001Z</time></trkpt><trkpt lat="45.693125" lon="11.2916983"><ele>693.4000000000001</ele><time>2026-04-07T07:31:52Z</time></trkpt><trkpt lat="45.693025" lon="11.2916383"><ele>694.0</ele><time>2026-04-07T07:31:54Z</time></trkpt><trkpt lat="45.6929067" lon="11.2915583"><ele>694.0</ele><time>2026-04-07T07:31:56.001Z</time></trkpt><trkpt lat="45.6928467" lon="11.29149"><ele>694.0</ele><time>2026-04-07T07:31:57.001Z</time></trkpt><trkpt lat="45.6927983" lon="11.291385"><ele>694.0</ele><time>2026-04-07T07:31:58.001Z</time></trkpt><trkpt lat="45.6927533" lon="11.2912517"><ele>694.0</ele><time>2026-04-07T07:31:59.001Z</time></trkpt><trkpt lat="45.69273" lon="11.2911133"><ele>694.0</ele><time>2026-04-07T07:32:00Z</time></trkpt><trkpt lat="45.6927117" lon="11.29098"><ele>703.2</ele><time>2026-04-07T07:32:01Z</time></trkpt><trkpt lat="45.692695" lon="11.29084"><ele>712.4000000000001</ele><time>2026-04-07T07:32:02.001Z</time></trkpt><trkpt lat="45.6926917" lon="11.2907117"><ele>721.6</ele><time>2026-04-07T07:32:03Z</time></trkpt><trkpt lat="45.692685" lon="11.2905767"><ele>730.8</ele><time>2026-04-07T07:32:04.001Z</time></trkpt><trkpt lat="45.6926767" lon="11.2904367"><ele>740.0</ele><time>2026-04-07T07:32:05.001Z</time></trkpt><trkpt lat="45.692675" lon="11.290305"><ele>741.0</ele><time>2026-04-07T07:32:06.001Z</time></trkpt><trkpt lat="45.692685" lon="11.29017"><ele>742.0</ele><time>2026-04-07T07:32:07Z</time></trkpt><trkpt lat="45.6927183" lon="11.2900517"><ele>743.0</ele><time>2026-04-07T07:32:08.001Z</time></trkpt><trkpt lat="45.6927467" lon="11.2899233"><ele>744.0</ele><time>2026-04-07T07:32:09Z</time></trkpt><trkpt lat="45.692755" lon="11.289775"><ele>745.0</ele><time>2026-04-07T07:32:10.001Z</time></trkpt><trkpt lat="45.692765" lon="11.2896483"><ele>740.3333333333334</ele><time>2026-04-07T07:32:11.001Z</time></trkpt><trkpt lat="45.6927883" lon="11.2895267"><ele>735.6666666666667</ele><time>2026-04-07T07:32:12.001Z</time></trkpt><trkpt lat="45.6928117" lon="11.289415"><ele>731.0</ele><time>2026-04-07T07:32:13.001Z</time></trkpt><trkpt lat="45.6928433" lon="11.2893017"><ele>726.3333333333334</ele><time>2026-04-07T07:32:14.001Z</time></trkpt><trkpt lat="45.69287" lon="11.2892133"><ele>721.6666666666666</ele><time>2026-04-07T07:32:15.001Z</time></trkpt><trkpt lat="45.6929433" lon="11.2891217"><ele>717.0</ele><time>2026-04-07T07:32:17.001Z</time></trkpt><trkpt lat="45.6930067" lon="11.289115"><ele>717.0</ele><time>2026-04-07T07:32:18.001Z</time></trkpt><trkpt lat="45.693105" lon="11.2891"><ele>717.0</ele><time>2026-04-07T07:32:20.001Z</time></trkpt><trkpt lat="45.6931883" lon="11.28896"><ele>717.0</ele><time>2026-04-07T07:32:22.001Z</time></trkpt><trkpt lat="45.6932233" lon="11.2888317"><ele>717.0</ele><time>2026-04-07T07:32:23Z</time></trkpt><trkpt lat="45.69326" lon="11.2886917"><ele>717.0</ele><time>2026-04-07T07:32:24.001Z</time></trkpt><trkpt lat="45.6933017" lon="11.2885633"><ele>717.0</ele><time>2026-04-07T07:32:25.001Z</time></trkpt><trkpt lat="45.6933583" lon="11.28848"><ele>717.0</ele><time>2026-04-07T07:32:26.001Z</time></trkpt><trkpt lat="45.693425" lon="11.2884383"><ele>717.0</ele><time>2026-04-07T07:32:27.001Z</time></trkpt><trkpt lat="45.6934933" lon="11.2884183"><ele>717.0</ele><time>2026-04-07T07:32:28Z</time></trkpt><trkpt lat="45.693555" lon="11.28839"><ele>717.0</ele><time>2026-04-07T07:32:29Z</time></trkpt><trkpt lat="45.693635" lon="11.2883217"><ele>717.0</ele><time>2026-04-07T07:32:30.001Z</time></trkpt><trkpt lat="45.6937333" lon="11.2882033"><ele>719.75</ele><time>2026-04-07T07:32:31.001Z</time></trkpt><trkpt lat="45.6938217" lon="11.28806"><ele>722.5</ele><time>2026-04-07T07:32:32.001Z</time></trkpt><trkpt lat="45.6938883" lon="11.287935"><ele>725.25</ele><time>2026-04-07T07:32:33.001Z</time></trkpt><trkpt lat="45.6939417" lon="11.28781"><ele>728.0</ele><time>2026-04-07T07:32:34Z</time></trkpt><trkpt lat="45.6939883" lon="11.2876767"><ele>728.0</ele><time>2026-04-07T07:32:35.001Z</time></trkpt><trkpt lat="45.69402" lon="11.2875467"><ele>728.0</ele><time>2026-04-07T07:32:36.001Z</time></trkpt><trkpt lat="45.6940567" lon="11.287415"><ele>728.0</ele><time>2026-04-07T07:32:37.001Z</time></trkpt><trkpt lat="45.6941117" lon="11.2872833"><ele>728.0</ele><time>2026-04-07T07:32:38.001Z</time></trkpt><trkpt lat="45.694165" lon="11.28715"><ele>728.0</ele><time>2026-04-07T07:32:39.001Z</time></trkpt><trkpt lat="45.69423" lon="11.2870317"><ele>725.0</ele><time>2026-04-07T07:32:40.001Z</time></trkpt><trkpt lat="45.69431" lon="11.2869133"><ele>722.0</ele><time>2026-04-07T07:32:41Z</time></trkpt><trkpt lat="45.6943883" lon="11.286785"><ele>719.0</ele><time>2026-04-07T07:32:42.001Z</time></trkpt><trkpt lat="45.6944617" lon="11.28665"><ele>716.0</ele><time>2026-04-07T07:32:43.001Z</time></trkpt><trkpt lat="45.6945333" lon="11.28651"><ele>722.0</ele><time>2026-04-07T07:32:44Z</time></trkpt><trkpt lat="45.694585" lon="11.2863833"><ele>728.0</ele><time>2026-04-07T07:32:45Z</time></trkpt><trkpt lat="45.6946233" lon="11.2862667"><ele>734.0</ele><time>2026-04-07T07:32:46.001Z</time></trkpt><trkpt lat="45.6946333" lon="11.2861517"><ele>740.0</ele><time>2026-04-07T07:32:47Z</time></trkpt><trkpt lat="45.6946317" lon="11.2860417"><ele>746.0</ele><time>2026-04-07T07:32:48.001Z</time></trkpt><trkpt lat="45.694615" lon="11.2859467"><ele>752.0</ele><time>2026-04-07T07:32:49.001Z</time></trkpt><trkpt lat="45.6945983" lon="11.28584"><ele>752.0</ele><time>2026-04-07T07:32:50Z</time></trkpt><trkpt lat="45.6945783" lon="11.28571"><ele>752.0</ele><time>2026-04-07T07:32:51Z</time></trkpt><trkpt lat="45.69457" lon="11.2855717"><ele>752.0</ele><time>2026-04-07T07:32:52.001Z</time></trkpt><trkpt lat="45.6945667" lon="11.28544"><ele>752.0</ele><time>2026-04-07T07:32:53Z</time></trkpt><trkpt lat="45.6945617" lon="11.28534"><ele>752.0</ele><time>2026-04-07T07:32:54Z</time></trkpt><trkpt lat="45.694595" lon="11.2851983"><ele>744.25</ele><time>2026-04-07T07:32:56.001Z</time></trkpt><trkpt lat="45.694655" lon="11.2851183"><ele>736.5</ele><time>2026-04-07T07:32:58Z</time></trkpt><trkpt lat="45.6948083" lon="11.2850933"><ele>728.75</ele><time>2026-04-07T07:33:00.001Z</time></trkpt><trkpt lat="45.694925" lon="11.2850833"><ele>721.0</ele><time>2026-04-07T07:33:01.001Z</time></trkpt><trkpt lat="45.695045" lon="11.285105"><ele>721.0</ele><time>2026-04-07T07:33:02.001Z</time></trkpt><trkpt lat="45.6951517" lon="11.2851483"><ele>721.0</ele><time>2026-04-07T07:33:03Z</time></trkpt><trkpt lat="45.6952583" lon="11.28519"><ele>721.0</ele><time>2026-04-07T07:33:04.001Z</time></trkpt><trkpt lat="45.695365" lon="11.2852583"><ele>721.0</ele><time>2026-04-07T07:33:05Z</time></trkpt><trkpt lat="45.6954683" lon="11.285325"><ele>719.3333333333334</ele><time>2026-04-07T07:33:06.001Z</time></trkpt><trkpt lat="45.6955533" lon="11.28538"><ele>717.6666666666667</ele><time>2026-04-07T07:33:07Z</time></trkpt><trkpt lat="45.6956217" lon="11.2854383"><ele>716.0</ele><time>2026-04-07T07:33:08.001Z</time></trkpt><trkpt lat="45.6956833" lon="11.2854833"><ele>714.3333333333334</ele><time>2026-04-07T07:33:09Z</time></trkpt><trkpt lat="45.69574" lon="11.2855233"><ele>712.6666666666666</ele><time>2026-04-07T07:33:10.001Z</time></trkpt><trkpt lat="45.6958333" lon="11.2856283"><ele>711.0</ele><time>2026-04-07T07:33:12Z</time></trkpt><trkpt lat="45.69592" lon="11.2857233"><ele>716.1999999999999</ele><time>2026-04-07T07:33:14Z</time></trkpt><trkpt lat="45.6959883" lon="11.2857717"><ele>721.4</ele><time>2026-04-07T07:33:15.001Z</time></trkpt><trkpt lat="45.6960517" lon="11.2858317"><ele>726.6</ele><time>2026-04-07T07:33:16.001Z</time></trkpt><trkpt lat="45.69612" lon="11.2859133"><ele>731.8</ele><time>2026-04-07T07:33:17.001Z</time></trkpt><trkpt lat="45.696205" lon="11.2859983"><ele>737.0</ele><time>2026-04-07T07:33:18Z</time></trkpt><trkpt lat="45.6962983" lon="11.2860783"><ele>737.0</ele><time>2026-04-07T07:33:19Z</time></trkpt><trkpt lat="45.6963967" lon="11.2861483"><ele>737.0</ele><time>2026-04-07T07:33:20Z</time></trkpt><trkpt lat="45.696485" lon="11.2862017"><ele>737.0</ele><time>2026-04-07T07:33:21.001Z</time></trkpt><trkpt lat="45.6966033" lon="11.2862183"><ele>737.0</ele><time>2026-04-07T07:33:23.001Z</time></trkpt><trkpt lat="45.6966883" lon="11.286125"><ele>737.0</ele><time>2026-04-07T07:33:25Z</time></trkpt><trkpt lat="45.6967333" lon="11.2860533"><ele>737.0</ele><time>2026-04-07T07:33:26.001Z</time></trkpt><trkpt lat="45.696775" lon="11.2859667"><ele>737.0</ele><time>2026-04-07T07:33:27.001Z</time></trkpt><trkpt lat="45.696835" lon="11.2858783"><ele>737.0</ele><time>2026-04-07T07:33:28Z</time></trkpt><trkpt lat="45.6969033" lon="11.2858083"><ele>737.0</ele><time>2026-04-07T07:33:29Z</time></trkpt><trkpt lat="45.696975" lon="11.28573"><ele>737.0</ele><time>2026-04-07T07:33:30Z</time></trkpt><trkpt lat="45.6970583" lon="11.2856883"><ele>737.0</ele><time>2026-04-07T07:33:31Z</time></trkpt><trkpt lat="45.6971367" lon="11.2856617"><ele>739.0</ele><time>2026-04-07T07:33:32Z</time></trkpt><trkpt lat="45.6972217" lon="11.2856517"><ele>741.0</ele><time>2026-04-07T07:33:33.001Z</time></trkpt><trkpt lat="45.697305" lon="11.2856817"><ele>743.0</ele><time>2026-04-07T07:33:34.001Z</time></trkpt><trkpt lat="45.6973817" lon="11.285705"><ele>745.0</ele><time>2026-04-07T07:33:35.001Z</time></trkpt><trkpt lat="45.6974567" lon="11.2857267"><ele>747.0</ele><time>2026-04-07T07:33:36.001Z</time></trkpt><trkpt lat="45.6975283" lon="11.2857283"><ele>749.0</ele><time>2026-04-07T07:33:37Z</time></trkpt><trkpt lat="45.6975917" lon="11.2857117"><ele>749.0</ele><time>2026-04-07T07:33:38.001Z</time></trkpt><trkpt lat="45.6976683" lon="11.2856267"><ele>749.0</ele><time>2026-04-07T07:33:40.001Z</time></trkpt><trkpt lat="45.69766" lon="11.2854517"><ele>749.0</ele><time>2026-04-07T07:33:42.001Z</time></trkpt><trkpt lat="45.69764" lon="11.2853533"><ele>749.0</ele><time>2026-04-07T07:33:43.001Z</time></trkpt><trkpt lat="45.6976217" lon="11.285245"><ele>749.0</ele><time>2026-04-07T07:33:44.001Z</time></trkpt><trkpt lat="45.6976233" lon="11.285135"><ele>749.0</ele><time>2026-04-07T07:33:45Z</time></trkpt><trkpt lat="45.6976333" lon="11.2850117"><ele>746.3333333333333</ele><time>2026-04-07T07:33:46.001Z</time></trkpt><trkpt lat="45.6976683" lon="11.2849083"><ele>743.6666666666666</ele><time>2026-04-07T07:33:47.001Z</time></trkpt><trkpt lat="45.6977083" lon="11.2848033"><ele>741.0</ele><time>2026-04-07T07:33:48.001Z</time></trkpt><trkpt lat="45.6977383" lon="11.2847"><ele>738.3333333333334</ele><time>2026-04-07T07:33:49.001Z</time></trkpt><trkpt lat="45.697745" lon="11.2845883"><ele>735.6666666666667</ele><time>2026-04-07T07:33:50Z</time></trkpt><trkpt lat="45.69773" lon="11.2844667"><ele>733.0</ele><time>2026-04-07T07:33:51.001Z</time></trkpt><trkpt lat="45.69769" lon="11.284335"><ele>732.0</ele><time>2026-04-07T07:33:52.001Z</time></trkpt><trkpt lat="45.6976533" lon="11.2841883"><ele>731.0</ele><time>2026-04-07T07:33:53Z</time></trkpt><trkpt lat="45.697615" lon="11.2840283"><ele>730.0</ele><time>2026-04-07T07:33:54Z</time></trkpt><trkpt lat="45.6975783" lon="11.2838983"><ele>729.0</ele><time>2026-04-07T07:33:55Z</time></trkpt><trkpt lat="45.6975467" lon="11.2838083"><ele>728.0</ele><time>2026-04-07T07:33:56.001Z</time></trkpt><trkpt lat="45.6975083" lon="11.2836783"><ele>726.1666666666666</ele><time>2026-04-07T07:33:58.001Z</time></trkpt><trkpt lat="45.6975583" lon="11.2836167"><ele>724.3333333333333</ele><time>2026-04-07T07:34:01.001Z</time></trkpt><trkpt lat="45.6976417" lon="11.2836483"><ele>722.5</ele><time>2026-04-07T07:34:03Z</time></trkpt><trkpt lat="45.6977633" lon="11.283695"><ele>720.6666666666666</ele><time>2026-04-07T07:34:05.001Z</time></trkpt><trkpt lat="45.6978367" lon="11.283715"><ele>718.8333333333334</ele><time>2026-04-07T07:34:06Z</time></trkpt><trkpt lat="45.6979217" lon="11.2837433"><ele>717.0</ele><time>2026-04-07T07:34:07Z</time></trkpt><trkpt lat="45.6980217" lon="11.283765"><ele>722.2</ele><time>2026-04-07T07:34:08.001Z</time></trkpt><trkpt lat="45.6981217" lon="11.2837667"><ele>727.4000000000001</ele><time>2026-04-07T07:34:09.001Z</time></trkpt><trkpt lat="45.69821" lon="11.2837717"><ele>732.5999999999999</ele><time>2026-04-07T07:34:10Z</time></trkpt><trkpt lat="45.6982717" lon="11.2837517"><ele>737.8</ele><time>2026-04-07T07:34:11Z</time></trkpt><trkpt lat="45.6983667" lon="11.2836433"><ele>743.0</ele><time>2026-04-07T07:34:13.001Z</time></trkpt><trkpt lat="45.69842" lon="11.2835567"><ele>743.0</ele><time>2026-04-07T07:34:14.001Z</time></trkpt><trkpt lat="45.6984467" lon="11.2834417"><ele>743.0</ele><time>2026-04-07T07:34:15Z</time></trkpt><trkpt lat="45.6984717" lon="11.2833"><ele>743.0</ele><time>2026-04-07T07:34:16.001Z</time></trkpt><trkpt lat="45.6984683" lon="11.2831133"><ele>743.0</ele><time>2026-04-07T07:34:17Z</time></trkpt><trkpt lat="45.6984417" lon="11.2829033"><ele>744.75</ele><time>2026-04-07T07:34:18Z</time></trkpt><trkpt lat="45.6983817" lon="11.2826817"><ele>746.5</ele><time>2026-04-07T07:34:19.001Z</time></trkpt><trkpt lat="45.6983283" lon="11.2824933"><ele>748.25</ele><time>2026-04-07T07:34:20.001Z</time></trkpt><trkpt lat="45.6982967" lon="11.282345"><ele>750.0</ele><time>2026-04-07T07:34:21Z</time></trkpt><trkpt lat="45.698265" lon="11.2822033"><ele>756.0</ele><time>2026-04-07T07:34:22Z</time></trkpt><trkpt lat="45.6982333" lon="11.2820667"><ele>762.0</ele><time>2026-04-07T07:34:23Z</time></trkpt><trkpt lat="45.6981983" lon="11.2819633"><ele>768.0</ele><time>2026-04-07T07:34:24Z</time></trkpt><trkpt lat="45.69809" lon="11.2818533"><ele>774.0</ele><time>2026-04-07T07:34:26Z</time></trkpt><trkpt lat="45.698015" lon="11.2818167"><ele>780.0</ele><time>2026-04-07T07:34:27Z</time></trkpt><trkpt lat="45.6979383" lon="11.28181"><ele>780.0</ele><time>2026-04-07T07:34:27.999Z</time></trkpt><trkpt lat="45.6978367" lon="11.2817483"><ele>780.0</ele><time>2026-04-07T07:34:30Z</time></trkpt><trkpt lat="45.69776" lon="11.2815817"><ele>780.0</ele><time>2026-04-07T07:34:32Z</time></trkpt><trkpt lat="45.6977083" lon="11.2814567"><ele>780.0</ele><time>2026-04-07T07:34:33Z</time></trkpt><trkpt lat="45.6976417" lon="11.2813267"><ele>781.8</ele><time>2026-04-07T07:34:33.999Z</time></trkpt><trkpt lat="45.6975667" lon="11.28121"><ele>783.6</ele><time>2026-04-07T07:34:35Z</time></trkpt><trkpt lat="45.6974883" lon="11.281105"><ele>785.4000000000001</ele><time>2026-04-07T07:34:36Z</time></trkpt><trkpt lat="45.6974" lon="11.2810083"><ele>787.2</ele><time>2026-04-07T07:34:36.999Z</time></trkpt><trkpt lat="45.697325" lon="11.2809283"><ele>789.0</ele><time>2026-04-07T07:34:38Z</time></trkpt><trkpt lat="45.697255" lon="11.2808383"><ele>788.9999999999999</ele><time>2026-04-07T07:34:38.999Z</time></trkpt><trkpt lat="45.6971967" lon="11.2807767"><ele>789.0</ele><time>2026-04-07T07:34:40Z</time></trkpt><trkpt lat="45.6971433" lon="11.28071"><ele>789.0</ele><time>2026-04-07T07:34:41Z</time></trkpt><trkpt lat="45.697075" lon="11.280615"><ele>789.0</ele><time>2026-04-07T07:34:41.999Z</time></trkpt><trkpt lat="45.6970283" lon="11.280535"><ele>789.0</ele><time>2026-04-07T07:34:43Z</time></trkpt><trkpt lat="45.6969733" lon="11.2804717"><ele>788.9999999999999</ele><time>2026-04-07T07:34:43.999Z</time></trkpt><trkpt lat="45.6969267" lon="11.2804083"><ele>789.0</ele><time>2026-04-07T07:34:45Z</time></trkpt><trkpt lat="45.6968567" lon="11.2802567"><ele>784.8333333333334</ele><time>2026-04-07T07:34:46.999Z</time></trkpt><trkpt lat="45.6968433" lon="11.2801533"><ele>780.6666666666666</ele><time>2026-04-07T07:34:49Z</time></trkpt><trkpt lat="45.6969117" lon="11.280235"><ele>776.5</ele><time>2026-04-07T07:34:53Z</time></trkpt><trkpt lat="45.6969333" lon="11.2803717"><ele>772.3333333333333</ele><time>2026-04-07T07:34:55Z</time></trkpt><trkpt lat="45.6970067" lon="11.2804817"><ele>768.1666666666666</ele><time>2026-04-07T07:34:57Z</time></trkpt><trkpt lat="45.6970633" lon="11.2805267"><ele>764.0</ele><time>2026-04-07T07:34:58Z</time></trkpt><trkpt lat="45.6971217" lon="11.2805717"><ele>768.1666666666666</ele><time>2026-04-07T07:34:58.999Z</time></trkpt><trkpt lat="45.6972083" lon="11.2806817"><ele>772.3333333333333</ele><time>2026-04-07T07:35:00.999Z</time></trkpt><trkpt lat="45.6972533" lon="11.2807533"><ele>776.5</ele><time>2026-04-07T07:35:02Z</time></trkpt><trkpt lat="45.697305" lon="11.2808067"><ele>780.6666666666666</ele><time>2026-04-07T07:35:02.999Z</time></trkpt><trkpt lat="45.6973783" lon="11.2808533"><ele>784.8333333333334</ele><time>2026-04-07T07:35:03.999Z</time></trkpt><trkpt lat="45.6974683" lon="11.2809017"><ele>789.0</ele><time>2026-04-07T07:35:05Z</time></trkpt><trkpt lat="45.6975617" lon="11.2809483"><ele>789.0</ele><time>2026-04-07T07:35:06Z</time></trkpt><trkpt lat="45.697655" lon="11.281"><ele>789.0</ele><time>2026-04-07T07:35:07Z</time></trkpt><trkpt lat="45.6977417" lon="11.2810467"><ele>789.0</ele><time>2026-04-07T07:35:08Z</time></trkpt><trkpt lat="45.69783" lon="11.2810783"><ele>789.0</ele><time>2026-04-07T07:35:08.999Z</time></trkpt><trkpt lat="45.697905" lon="11.281125"><ele>789.0</ele><time>2026-04-07T07:35:09.999Z</time></trkpt><trkpt lat="45.6979683" lon="11.281175"><ele>789.0</ele><time>2026-04-07T07:35:11Z</time></trkpt><trkpt lat="45.6980667" lon="11.28121"><ele>794.5</ele><time>2026-04-07T07:35:13Z</time></trkpt><trkpt lat="45.6981567" lon="11.2811783"><ele>800.0</ele><time>2026-04-07T07:35:15Z</time></trkpt><trkpt lat="45.6982633" lon="11.2811333"><ele>805.5</ele><time>2026-04-07T07:35:17Z</time></trkpt><trkpt lat="45.6983383" lon="11.2811283"><ele>811.0</ele><time>2026-04-07T07:35:18Z</time></trkpt><trkpt lat="45.6984183" lon="11.2811367"><ele>816.5</ele><time>2026-04-07T07:35:19Z</time></trkpt><trkpt lat="45.69849" lon="11.28115"><ele>822.0</ele><time>2026-04-07T07:35:20Z</time></trkpt><trkpt lat="45.698565" lon="11.2811767"><ele>821.0</ele><time>2026-04-07T07:35:21Z</time></trkpt><trkpt lat="45.6986467" lon="11.2812167"><ele>820.0</ele><time>2026-04-07T07:35:22Z</time></trkpt><trkpt lat="45.6987083" lon="11.2812883"><ele>819.0</ele><time>2026-04-07T07:35:23Z</time></trkpt><trkpt lat="45.6987467" lon="11.28137"><ele>818.0</ele><time>2026-04-07T07:35:24Z</time></trkpt><trkpt lat="45.6987967" lon="11.2814733"><ele>817.0</ele><time>2026-04-07T07:35:25Z</time></trkpt><trkpt lat="45.6988233" lon="11.2815833"><ele>816.0</ele><time>2026-04-07T07:35:26Z</time></trkpt><trkpt lat="45.6988167" lon="11.28171"><ele>816.0</ele><time>2026-04-07T07:35:26.999Z</time></trkpt><trkpt lat="45.6987817" lon="11.2818117"><ele>816.0</ele><time>2026-04-07T07:35:27.999Z</time></trkpt><trkpt lat="45.69875" lon="11.2818917"><ele>816.0</ele><time>2026-04-07T07:35:29Z</time></trkpt><trkpt lat="45.69882" lon="11.2818983"><ele>816.0</ele><time>2026-04-07T07:35:32.999Z</time></trkpt><trkpt lat="45.6988467" lon="11.28178"><ele>816.0</ele><time>2026-04-07T07:35:35Z</time></trkpt><trkpt lat="45.6988717" lon="11.2816867"><ele>816.0</ele><time>2026-04-07T07:35:36Z</time></trkpt><trkpt lat="45.69891" lon="11.2815833"><ele>816.0</ele><time>2026-04-07T07:35:37Z</time></trkpt><trkpt lat="45.69896" lon="11.28147"><ele>816.0</ele><time>2026-04-07T07:35:38Z</time></trkpt><trkpt lat="45.6989983" lon="11.281365"><ele>816.0</ele><time>2026-04-07T07:35:38.999Z</time></trkpt><trkpt lat="45.69902" lon="11.2812683"><ele>816.0</ele><time>2026-04-07T07:35:40Z</time></trkpt><trkpt lat="45.6990183" lon="11.2811717"><ele>816.0</ele><time>2026-04-07T07:35:40.999Z</time></trkpt><trkpt lat="45.69899" lon="11.2810833"><ele>816.0</ele><time>2026-04-07T07:35:42Z</time></trkpt><trkpt lat="45.698945" lon="11.2810033"><ele>817.1999999999999</ele><time>2026-04-07T07:35:43Z</time></trkpt><trkpt lat="45.6988917" lon="11.28092"><ele>818.4</ele><time>2026-04-07T07:35:44Z</time></trkpt><trkpt lat="45.6988183" lon="11.2808567"><ele>819.6</ele><time>2026-04-07T07:35:45Z</time></trkpt><trkpt lat="45.6987383" lon="11.2807933"><ele>820.8</ele><time>2026-04-07T07:35:46Z</time></trkpt><trkpt lat="45.6986433" lon="11.2807617"><ele>822.0</ele><time>2026-04-07T07:35:46.999Z</time></trkpt><trkpt lat="45.6985333" lon="11.2807583"><ele>822.0</ele><time>2026-04-07T07:35:48Z</time></trkpt><trkpt lat="45.698425" lon="11.280775"><ele>822.0</ele><time>2026-04-07T07:35:49Z</time></trkpt><trkpt lat="45.6983283" lon="11.280795"><ele>822.0</ele><time>2026-04-07T07:35:50Z</time></trkpt><trkpt lat="45.6982617" lon="11.2807983"><ele>822.0</ele><time>2026-04-07T07:35:51Z</time></trkpt><trkpt lat="45.6981433" lon="11.2807317"><ele>822.0</ele><time>2026-04-07T07:35:53Z</time></trkpt><trkpt lat="45.6980767" lon="11.2806883"><ele>822.0</ele><time>2026-04-07T07:35:54Z</time></trkpt><trkpt lat="45.69798" lon="11.2806033"><ele>822.0</ele><time>2026-04-07T07:35:56Z</time></trkpt><trkpt lat="45.6979083" lon="11.2804483"><ele>822.0</ele><time>2026-04-07T07:35:58Z</time></trkpt><trkpt lat="45.6978767" lon="11.2803417"><ele>822.0</ele><time>2026-04-07T07:35:59Z</time></trkpt><trkpt lat="45.6978367" lon="11.2802183"><ele>822.0</ele><time>2026-04-07T07:36:00Z</time></trkpt><trkpt lat="45.6977783" lon="11.2800867"><ele>821.8</ele><time>2026-04-07T07:36:00.999Z</time></trkpt><trkpt lat="45.69772" lon="11.279975"><ele>821.6</ele><time>2026-04-07T07:36:02Z</time></trkpt><trkpt lat="45.697675" lon="11.2798933"><ele>821.4</ele><time>2026-04-07T07:36:03Z</time></trkpt><trkpt lat="45.697595" lon="11.2798183"><ele>821.1999999999999</ele><time>2026-04-07T07:36:05Z</time></trkpt><trkpt lat="45.6976917" lon="11.279885"><ele>821.0</ele><time>2026-04-07T07:36:10.999Z</time></trkpt><trkpt lat="45.6977617" lon="11.2799717"><ele>830.0</ele><time>2026-04-07T07:36:12Z</time></trkpt><trkpt lat="45.6978367" lon="11.28008"><ele>839.0</ele><time>2026-04-07T07:36:12.999Z</time></trkpt><trkpt lat="45.6979117" lon="11.2802033"><ele>847.9999999999999</ele><time>2026-04-07T07:36:13.999Z</time></trkpt><trkpt lat="45.697985" lon="11.2803183"><ele>857.0</ele><time>2026-04-07T07:36:14.999Z</time></trkpt><trkpt lat="45.69804" lon="11.280405"><ele>866.0</ele><time>2026-04-07T07:36:16Z</time></trkpt><trkpt lat="45.69813" lon="11.2804733"><ele>866.0000000000001</ele><time>2026-04-07T07:36:17.999Z</time></trkpt><trkpt lat="45.6981983" lon="11.2804883"><ele>866.0</ele><time>2026-04-07T07:36:18.999Z</time></trkpt><trkpt lat="45.6982783" lon="11.2805017"><ele>866.0</ele><time>2026-04-07T07:36:20Z</time></trkpt><trkpt lat="45.69836" lon="11.2805033"><ele>866.0</ele><time>2026-04-07T07:36:21Z</time></trkpt><trkpt lat="45.69846" lon="11.2804983"><ele>866.0000000000001</ele><time>2026-04-07T07:36:21.999Z</time></trkpt><trkpt lat="45.698555" lon="11.2804883"><ele>866.0</ele><time>2026-04-07T07:36:23Z</time></trkpt><trkpt lat="45.6986467" lon="11.280475"><ele>870.0</ele><time>2026-04-07T07:36:24Z</time></trkpt><trkpt lat="45.69873" lon="11.2804633"><ele>873.9999999999999</ele><time>2026-04-07T07:36:25Z</time></trkpt><trkpt lat="45.6987983" lon="11.2804517"><ele>877.9999999999999</ele><time>2026-04-07T07:36:26Z</time></trkpt><trkpt lat="45.698915" lon="11.2804333"><ele>882.0</ele><time>2026-04-07T07:36:27.999Z</time></trkpt><trkpt lat="45.6990183" lon="11.2804367"><ele>886.0</ele><time>2026-04-07T07:36:30Z</time></trkpt><trkpt lat="45.699115" lon="11.2804517"><ele>886.0</ele><time>2026-04-07T07:36:32Z</time></trkpt><trkpt lat="45.6992" lon="11.280485"><ele>885.9999999999999</ele><time>2026-04-07T07:36:34Z</time></trkpt><trkpt lat="45.6993033" lon="11.280515"><ele>885.9999999999999</ele><time>2026-04-07T07:36:36Z</time></trkpt><trkpt lat="45.6994117" lon="11.2805267"><ele>886.0</ele><time>2026-04-07T07:36:38Z</time></trkpt><trkpt lat="45.6994783" lon="11.2805533"><ele>886.0</ele><time>2026-04-07T07:36:38.999Z</time></trkpt><trkpt lat="45.6995583" lon="11.280595"><ele>882.3333333333333</ele><time>2026-04-07T07:36:40Z</time></trkpt><trkpt lat="45.69963" lon="11.280665"><ele>878.6666666666666</ele><time>2026-04-07T07:36:41Z</time></trkpt><trkpt lat="45.69969" lon="11.2807517"><ele>875.0</ele><time>2026-04-07T07:36:41.999Z</time></trkpt><trkpt lat="45.6997383" lon="11.2808533"><ele>871.3333333333333</ele><time>2026-04-07T07:36:43Z</time></trkpt><trkpt lat="45.6997667" lon="11.2809517"><ele>867.6666666666666</ele><time>2026-04-07T07:36:43.999Z</time></trkpt><trkpt lat="45.699825" lon="11.2810667"><ele>864.0</ele><time>2026-04-07T07:36:45.999Z</time></trkpt><trkpt lat="45.6998933" lon="11.2810383"><ele>864.0</ele><time>2026-04-07T07:36:48Z</time></trkpt><trkpt lat="45.699945" lon="11.2809067"><ele>864.0000000000001</ele><time>2026-04-07T07:36:50Z</time></trkpt><trkpt lat="45.6999467" lon="11.280815"><ele>864.0000000000001</ele><time>2026-04-07T07:36:50.999Z</time></trkpt><trkpt lat="45.6999217" lon="11.2806983"><ele>864.0</ele><time>2026-04-07T07:36:52Z</time></trkpt><trkpt lat="45.6998733" lon="11.280575"><ele>864.0</ele><time>2026-04-07T07:36:53Z</time></trkpt><trkpt lat="45.6998" lon="11.2804567"><ele>868.4000000000001</ele><time>2026-04-07T07:36:54Z</time></trkpt><trkpt lat="45.6997133" lon="11.2803667"><ele>872.8000000000001</ele><time>2026-04-07T07:36:55Z</time></trkpt><trkpt lat="45.69962" lon="11.2802933"><ele>877.1999999999999</ele><time>2026-04-07T07:36:56Z</time></trkpt><trkpt lat="45.6995267" lon="11.2802483"><ele>881.5999999999999</ele><time>2026-04-07T07:36:57Z</time></trkpt><trkpt lat="45.6994333" lon="11.2802033"><ele>886.0</ele><time>2026-04-07T07:36:58Z</time></trkpt><trkpt lat="45.699335" lon="11.2801533"><ele>886.0</ele><time>2026-04-07T07:36:59Z</time></trkpt><trkpt lat="45.699225" lon="11.2800967"><ele>885.9999999999999</ele><time>2026-04-07T07:37:00Z</time></trkpt><trkpt lat="45.6991217" lon="11.2800383"><ele>885.9999999999999</ele><time>2026-04-07T07:37:00.999Z</time></trkpt><trkpt lat="45.6990317" lon="11.2799833"><ele>886.0</ele><time>2026-04-07T07:37:02Z</time></trkpt><trkpt lat="45.69893" lon="11.2799617"><ele>886.0</ele><time>2026-04-07T07:37:02.999Z</time></trkpt><trkpt lat="45.6988383" lon="11.2799567"><ele>886.0</ele><time>2026-04-07T07:37:04Z</time></trkpt><trkpt lat="45.6987617" lon="11.2799483"><ele>885.9999999999999</ele><time>2026-04-07T07:37:05Z</time></trkpt><trkpt lat="45.698695" lon="11.2799333"><ele>885.9999999999999</ele><time>2026-04-07T07:37:06Z</time></trkpt><trkpt lat="45.698595" lon="11.279885"><ele>886.0</ele><time>2026-04-07T07:37:08Z</time></trkpt><trkpt lat="45.6985267" lon="11.2797883"><ele>886.0</ele><time>2026-04-07T07:37:10Z</time></trkpt><trkpt lat="45.6984517" lon="11.279655"><ele>888.5999999999999</ele><time>2026-04-07T07:37:12Z</time></trkpt><trkpt lat="45.69834" lon="11.2796017"><ele>891.1999999999999</ele><time>2026-04-07T07:37:14Z</time></trkpt><trkpt lat="45.6982433" lon="11.2795467"><ele>893.8000000000001</ele><time>2026-04-07T07:37:16Z</time></trkpt><trkpt lat="45.6981467" lon="11.2794033"><ele>896.4000000000001</ele><time>2026-04-07T07:37:17.999Z</time></trkpt><trkpt lat="45.6980917" lon="11.279305"><ele>899.0</ele><time>2026-04-07T07:37:19Z</time></trkpt><trkpt lat="45.69803" lon="11.2791983"><ele>899.0</ele><time>2026-04-07T07:37:20Z</time></trkpt><trkpt lat="45.69798" lon="11.2791117"><ele>899.0000000000001</ele><time>2026-04-07T07:37:21Z</time></trkpt><trkpt lat="45.697905" lon="11.279005"><ele>899.0000000000001</ele><time>2026-04-07T07:37:23Z</time></trkpt><trkpt lat="45.6979" lon="11.2789117"><ele>899.0</ele><time>2026-04-07T07:37:25Z</time></trkpt><trkpt lat="45.6979483" lon="11.2788233"><ele>899.0</ele><time>2026-04-07T07:37:27Z</time></trkpt><trkpt lat="45.6980433" lon="11.2786983"><ele>900.8333333333334</ele><time>2026-04-07T07:37:28.999Z</time></trkpt><trkpt lat="45.6981067" lon="11.2786367"><ele>902.6666666666667</ele><time>2026-04-07T07:37:30Z</time></trkpt><trkpt lat="45.69818" lon="11.27856"><ele>904.5</ele><time>2026-04-07T07:37:31Z</time></trkpt><trkpt lat="45.6982433" lon="11.2784833"><ele>906.3333333333333</ele><time>2026-04-07T07:37:32Z</time></trkpt><trkpt lat="45.698295" lon="11.2784"><ele>908.1666666666666</ele><time>2026-04-07T07:37:33Z</time></trkpt><trkpt lat="45.6983367" lon="11.2783033"><ele>910.0</ele><time>2026-04-07T07:37:34Z</time></trkpt><trkpt lat="45.698375" lon="11.2781817"><ele>910.2</ele><time>2026-04-07T07:37:34.999Z</time></trkpt><trkpt lat="45.6983767" lon="11.27805"><ele>910.4</ele><time>2026-04-07T07:37:35.999Z</time></trkpt><trkpt lat="45.6983767" lon="11.2779267"><ele>910.5999999999999</ele><time>2026-04-07T07:37:37Z</time></trkpt><trkpt lat="45.6984317" lon="11.2778167"><ele>910.8</ele><time>2026-04-07T07:37:38.999Z</time></trkpt><trkpt lat="45.6984617" lon="11.2776167"><ele>911.0</ele><time>2026-04-07T07:37:41Z</time></trkpt><trkpt lat="45.6984567" lon="11.2774983"><ele>911.0000000000001</ele><time>2026-04-07T07:37:42Z</time></trkpt><trkpt lat="45.6984317" lon="11.2773583"><ele>911.0</ele><time>2026-04-07T07:37:42.999Z</time></trkpt><trkpt lat="45.6984033" lon="11.27725"><ele>911.0</ele><time>2026-04-07T07:37:44Z</time></trkpt><trkpt lat="45.698385" lon="11.2771483"><ele>911.0</ele><time>2026-04-07T07:37:45Z</time></trkpt><trkpt lat="45.6983867" lon="11.277045"><ele>911.0000000000001</ele><time>2026-04-07T07:37:46Z</time></trkpt><trkpt lat="45.69839" lon="11.27694"><ele>911.0</ele><time>2026-04-07T07:37:47Z</time></trkpt><trkpt lat="45.6984133" lon="11.2768417"><ele>913.4</ele><time>2026-04-07T07:37:48Z</time></trkpt><trkpt lat="45.698435" lon="11.2767383"><ele>915.8</ele><time>2026-04-07T07:37:49Z</time></trkpt><trkpt lat="45.69844" lon="11.27662"><ele>918.1999999999999</ele><time>2026-04-07T07:37:50Z</time></trkpt><trkpt lat="45.69841" lon="11.2765067"><ele>920.5999999999999</ele><time>2026-04-07T07:37:50.999Z</time></trkpt><trkpt lat="45.6983417" lon="11.2764"><ele>923.0</ele><time>2026-04-07T07:37:52Z</time></trkpt><trkpt lat="45.6982617" lon="11.2762883"><ele>924.8</ele><time>2026-04-07T07:37:53Z</time></trkpt><trkpt lat="45.69815" lon="11.2761983"><ele>926.5999999999999</ele><time>2026-04-07T07:37:54Z</time></trkpt><trkpt lat="45.698055" lon="11.2761233"><ele>928.4000000000001</ele><time>2026-04-07T07:37:54.999Z</time></trkpt><trkpt lat="45.6979717" lon="11.2760517"><ele>930.2</ele><time>2026-04-07T07:37:56Z</time></trkpt><trkpt lat="45.6979083" lon="11.2759883"><ele>932.0</ele><time>2026-04-07T07:37:57Z</time></trkpt><trkpt lat="45.6978517" lon="11.275915"><ele>932.0000000000001</ele><time>2026-04-07T07:37:58Z</time></trkpt><trkpt lat="45.697815" lon="11.2758283"><ele>932.0</ele><time>2026-04-07T07:37:59Z</time></trkpt><trkpt lat="45.697775" lon="11.275725"><ele>932.0</ele><time>2026-04-07T07:38:00Z</time></trkpt><trkpt lat="45.6977233" lon="11.27563"><ele>932.0</ele><time>2026-04-07T07:38:01Z</time></trkpt><trkpt lat="45.6976533" lon="11.2755633"><ele>932.0000000000001</ele><time>2026-04-07T07:38:02Z</time></trkpt><trkpt lat="45.6975867" lon="11.2755283"><ele>932.0</ele><time>2026-04-07T07:38:03Z</time></trkpt><trkpt lat="45.697485" lon="11.2754867"><ele>932.0000000000001</ele><time>2026-04-07T07:38:05Z</time></trkpt><trkpt lat="45.6975633" lon="11.2754533"><ele>932.0</ele><time>2026-04-07T07:38:10Z</time></trkpt><trkpt lat="45.697615" lon="11.2755117"><ele>932.0</ele><time>2026-04-07T07:38:11Z</time></trkpt><trkpt lat="45.6976633" lon="11.2755783"><ele>932.0</ele><time>2026-04-07T07:38:12Z</time></trkpt><trkpt lat="45.6977283" lon="11.27566"><ele>932.0000000000001</ele><time>2026-04-07T07:38:12.999Z</time></trkpt><trkpt lat="45.6977883" lon="11.2757517"><ele>932.0</ele><time>2026-04-07T07:38:14Z</time></trkpt><trkpt lat="45.69784" lon="11.2758483"><ele>932.0</ele><time>2026-04-07T07:38:15Z</time></trkpt><trkpt lat="45.6978833" lon="11.2759267"><ele>932.0</ele><time>2026-04-07T07:38:16Z</time></trkpt><trkpt lat="45.6979717" lon="11.2760383"><ele>932.0</ele><time>2026-04-07T07:38:18Z</time></trkpt><trkpt lat="45.698045" lon="11.2760583"><ele>932.0</ele><time>2026-04-07T07:38:18.999Z</time></trkpt><trkpt lat="45.69814" lon="11.2760467"><ele>932.0</ele><time>2026-04-07T07:38:19.999Z</time></trkpt><trkpt lat="45.69825" lon="11.27602"><ele>932.0000000000001</ele><time>2026-04-07T07:38:21Z</time></trkpt><trkpt lat="45.6983217" lon="11.2759817"><ele>932.0</ele><time>2026-04-07T07:38:22Z</time></trkpt><trkpt lat="45.6983883" lon="11.2759783"><ele>932.0</ele><time>2026-04-07T07:38:23Z</time></trkpt><trkpt lat="45.698475" lon="11.2760567"><ele>932.0</ele><time>2026-04-07T07:38:24.999Z</time></trkpt><trkpt lat="45.6985283" lon="11.2762133"><ele>932.0000000000001</ele><time>2026-04-07T07:38:27Z</time></trkpt><trkpt lat="45.6985567" lon="11.2763017"><ele>932.0</ele><time>2026-04-07T07:38:28Z</time></trkpt><trkpt lat="45.698585" lon="11.2763867"><ele>935.6666666666667</ele><time>2026-04-07T07:38:29Z</time></trkpt><trkpt lat="45.6986083" lon="11.2764717"><ele>939.3333333333334</ele><time>2026-04-07T07:38:30Z</time></trkpt><trkpt lat="45.6986233" lon="11.2765617"><ele>943.0</ele><time>2026-04-07T07:38:31Z</time></trkpt><trkpt lat="45.6986217" lon="11.2767483"><ele>946.6666666666667</ele><time>2026-04-07T07:38:32.999Z</time></trkpt><trkpt lat="45.6986067" lon="11.2768417"><ele>950.3333333333334</ele><time>2026-04-07T07:38:34Z</time></trkpt><trkpt lat="45.6986017" lon="11.2769433"><ele>954.0</ele><time>2026-04-07T07:38:35Z</time></trkpt><trkpt lat="45.6986133" lon="11.27704"><ele>954.0</ele><time>2026-04-07T07:38:35.999Z</time></trkpt><trkpt lat="45.6986483" lon="11.277135"><ele>954.0</ele><time>2026-04-07T07:38:37Z</time></trkpt><trkpt lat="45.69869" lon="11.2772317"><ele>954.0</ele><time>2026-04-07T07:38:38Z</time></trkpt><trkpt lat="45.69873" lon="11.2773317"><ele>954.0</ele><time>2026-04-07T07:38:38.999Z</time></trkpt><trkpt lat="45.69876" lon="11.2774283"><ele>954.0</ele><time>2026-04-07T07:38:40Z</time></trkpt><trkpt lat="45.6987717" lon="11.277525"><ele>954.0</ele><time>2026-04-07T07:38:40.999Z</time></trkpt><trkpt lat="45.6987817" lon="11.2776783"><ele>954.0</ele><time>2026-04-07T07:38:42.999Z</time></trkpt><trkpt lat="45.6988" lon="11.27777"><ele>954.0</ele><time>2026-04-07T07:38:45Z</time></trkpt><trkpt lat="45.698855" lon="11.2777167"><ele>954.0</ele><time>2026-04-07T07:50:23.998Z</time></trkpt><trkpt lat="45.698825" lon="11.2775483"><ele>954.0</ele><time>2026-04-07T07:50:25.997Z</time></trkpt><trkpt lat="45.6987617" lon="11.277405"><ele>954.0</ele><time>2026-04-07T07:50:27.998Z</time></trkpt><trkpt lat="45.6987383" lon="11.2773167"><ele>954.0</ele><time>2026-04-07T07:50:28.998Z</time></trkpt><trkpt lat="45.6987133" lon="11.277225"><ele>954.0</ele><time>2026-04-07T07:50:29.998Z</time></trkpt><trkpt lat="45.6986617" lon="11.2771017"><ele>954.0000000000001</ele><time>2026-04-07T07:50:31.998Z</time></trkpt><trkpt lat="45.6986483" lon="11.2769717"><ele>954.0000000000001</ele><time>2026-04-07T07:50:33.998Z</time></trkpt><trkpt lat="45.6986817" lon="11.2768517"><ele>954.0</ele><time>2026-04-07T07:50:35.998Z</time></trkpt><trkpt lat="45.6987183" lon="11.2767517"><ele>954.0</ele><time>2026-04-07T07:50:37.998Z</time></trkpt><trkpt lat="45.698685" lon="11.276595"><ele>954.0</ele><time>2026-04-07T07:50:39.998Z</time></trkpt><trkpt lat="45.6986533" lon="11.2764983"><ele>954.0</ele><time>2026-04-07T07:50:40.998Z</time></trkpt><trkpt lat="45.6986133" lon="11.2764067"><ele>954.0</ele><time>2026-04-07T07:50:41.997Z</time></trkpt><trkpt lat="45.698595" lon="11.276305"><ele>954.0</ele><time>2026-04-07T07:50:42.998Z</time></trkpt><trkpt lat="45.6985733" lon="11.2762067"><ele>954.0</ele><time>2026-04-07T07:50:43.998Z</time></trkpt><trkpt lat="45.6985117" lon="11.2760683"><ele>954.0</ele><time>2026-04-07T07:50:45.998Z</time></trkpt><trkpt lat="45.6984167" lon="11.2759883"><ele>949.6</ele><time>2026-04-07T07:50:47.998Z</time></trkpt><trkpt lat="45.6983" lon="11.2760283"><ele>945.2</ele><time>2026-04-07T07:50:49.998Z</time></trkpt><trkpt lat="45.6981717" lon="11.2760567"><ele>940.8000000000001</ele><time>2026-04-07T07:50:51.998Z</time></trkpt><trkpt lat="45.6981067" lon="11.2760383"><ele>936.4000000000001</ele><time>2026-04-07T07:50:52.997Z</time></trkpt><trkpt lat="45.698" lon="11.2759933"><ele>932.0</ele><time>2026-04-07T07:50:54.997Z</time></trkpt><trkpt lat="45.697935" lon="11.2758917"><ele>932.0</ele><time>2026-04-07T07:50:56.998Z</time></trkpt><trkpt lat="45.6978817" lon="11.27575"><ele>932.0</ele><time>2026-04-07T07:50:58.998Z</time></trkpt><trkpt lat="45.6977983" lon="11.275615"><ele>932.0</ele><time>2026-04-07T07:51:00.998Z</time></trkpt><trkpt lat="45.6977467" lon="11.2755617"><ele>932.0</ele><time>2026-04-07T07:51:01.998Z</time></trkpt><trkpt lat="45.6976633" lon="11.2754867"><ele>932.0</ele><time>2026-04-07T07:51:03.998Z</time></trkpt><trkpt lat="45.6975833" lon="11.2754517"><ele>932.0000000000001</ele><time>2026-04-07T07:51:06.998Z</time></trkpt><trkpt lat="45.69752" lon="11.275495"><ele>932.0</ele><time>2026-04-07T07:51:09.997Z</time></trkpt><trkpt lat="45.69758" lon="11.2755867"><ele>932.0</ele><time>2026-04-07T07:51:36.998Z</time></trkpt><trkpt lat="45.697635" lon="11.2756467"><ele>932.0</ele><time>2026-04-07T07:51:37.998Z</time></trkpt><trkpt lat="45.6976833" lon="11.27571"><ele>932.0000000000001</ele><time>2026-04-07T07:51:38.997Z</time></trkpt><trkpt lat="45.697735" lon="11.27578"><ele>932.0</ele><time>2026-04-07T07:51:39.998Z</time></trkpt><trkpt lat="45.6977917" lon="11.27593"><ele>932.0</ele><time>2026-04-07T07:51:41.998Z</time></trkpt><trkpt lat="45.6978283" lon="11.2760133"><ele>932.0</ele><time>2026-04-07T07:51:42.998Z</time></trkpt><trkpt lat="45.697875" lon="11.2760783"><ele>932.0</ele><time>2026-04-07T07:51:43.997Z</time></trkpt><trkpt lat="45.6979333" lon="11.2761333"><ele>932.0</ele><time>2026-04-07T07:51:44.997Z</time></trkpt><trkpt lat="45.698005" lon="11.2761867"><ele>932.0</ele><time>2026-04-07T07:51:45.997Z</time></trkpt><trkpt lat="45.6980717" lon="11.2762317"><ele>932.0</ele><time>2026-04-07T07:51:46.998Z</time></trkpt><trkpt lat="45.69815" lon="11.2762867"><ele>932.0</ele><time>2026-04-07T07:51:47.997Z</time></trkpt><trkpt lat="45.6982167" lon="11.27637"><ele>932.0</ele><time>2026-04-07T07:51:48.998Z</time></trkpt><trkpt lat="45.69827" lon="11.276435"><ele>932.0</ele><time>2026-04-07T07:51:49.997Z</time></trkpt><trkpt lat="45.6983417" lon="11.2765833"><ele>932.0</ele><time>2026-04-07T07:51:51.997Z</time></trkpt><trkpt lat="45.6983117" lon="11.276765"><ele>932.0</ele><time>2026-04-07T07:51:53.998Z</time></trkpt><trkpt lat="45.6982683" lon="11.27685"><ele>932.0</ele><time>2026-04-07T07:51:54.997Z</time></trkpt><trkpt lat="45.6982467" lon="11.2769383"><ele>930.5000000000001</ele><time>2026-04-07T07:51:55.998Z</time></trkpt><trkpt lat="45.698255" lon="11.2771067"><ele>929.0</ele><time>2026-04-07T07:51:57.998Z</time></trkpt><trkpt lat="45.698285" lon="11.2771967"><ele>927.5</ele><time>2026-04-07T07:51:58.997Z</time></trkpt><trkpt lat="45.6983167" lon="11.27728"><ele>926.0</ele><time>2026-04-07T07:51:59.997Z</time></trkpt><trkpt lat="45.6983383" lon="11.2773733"><ele>924.5000000000001</ele><time>2026-04-07T07:52:00.998Z</time></trkpt><trkpt lat="45.6983317" lon="11.27751"><ele>923.0</ele><time>2026-04-07T07:52:02.998Z</time></trkpt><trkpt lat="45.698275" lon="11.2776583"><ele>921.0000000000001</ele><time>2026-04-07T07:52:04.997Z</time></trkpt><trkpt lat="45.69827" lon="11.27775"><ele>919.0</ele><time>2026-04-07T07:52:05.998Z</time></trkpt><trkpt lat="45.6982783" lon="11.2778433"><ele>917.0</ele><time>2026-04-07T07:52:06.998Z</time></trkpt><trkpt lat="45.6982717" lon="11.2779567"><ele>915.0</ele><time>2026-04-07T07:52:07.998Z</time></trkpt><trkpt lat="45.6982717" lon="11.2780717"><ele>913.0000000000001</ele><time>2026-04-07T07:52:08.998Z</time></trkpt><trkpt lat="45.6982667" lon="11.2781933"><ele>911.0</ele><time>2026-04-07T07:52:09.998Z</time></trkpt><trkpt lat="45.6982683" lon="11.2783067"><ele>910.8333333333334</ele><time>2026-04-07T07:52:10.998Z</time></trkpt><trkpt lat="45.6982533" lon="11.2784017"><ele>910.6666666666667</ele><time>2026-04-07T07:52:11.998Z</time></trkpt><trkpt lat="45.6982083" lon="11.2785567"><ele>910.5</ele><time>2026-04-07T07:52:13.997Z</time></trkpt><trkpt lat="45.698155" lon="11.2786367"><ele>910.3333333333333</ele><time>2026-04-07T07:52:14.998Z</time></trkpt><trkpt lat="45.6981" lon="11.278695"><ele>910.1666666666666</ele><time>2026-04-07T07:52:15.998Z</time></trkpt><trkpt lat="45.6980283" lon="11.2787583"><ele>910.0</ele><time>2026-04-07T07:52:16.998Z</time></trkpt><trkpt lat="45.69797" lon="11.2788333"><ele>910.0</ele><time>2026-04-07T07:52:17.998Z</time></trkpt><trkpt lat="45.697925" lon="11.2789017"><ele>910.0</ele><time>2026-04-07T07:52:18.998Z</time></trkpt><trkpt lat="45.6979033" lon="11.2790167"><ele>910.0</ele><time>2026-04-07T07:52:20.997Z</time></trkpt><trkpt lat="45.6979833" lon="11.2791567"><ele>910.0</ele><time>2026-04-07T07:52:22.998Z</time></trkpt><trkpt lat="45.6980417" lon="11.2792517"><ele>910.0</ele><time>2026-04-07T07:52:23.998Z</time></trkpt><trkpt lat="45.6981017" lon="11.2793567"><ele>907.8</ele><time>2026-04-07T07:52:24.998Z</time></trkpt><trkpt lat="45.6981583" lon="11.279455"><ele>905.6</ele><time>2026-04-07T07:52:25.997Z</time></trkpt><trkpt lat="45.6982067" lon="11.279545"><ele>903.4000000000001</ele><time>2026-04-07T07:52:26.998Z</time></trkpt><trkpt lat="45.6983" lon="11.279645"><ele>901.2</ele><time>2026-04-07T07:52:28.998Z</time></trkpt><trkpt lat="45.6984" lon="11.2796583"><ele>899.0</ele><time>2026-04-07T07:52:30.998Z</time></trkpt><trkpt lat="45.6984733" lon="11.2797033"><ele>896.4000000000001</ele><time>2026-04-07T07:52:32.998Z</time></trkpt><trkpt lat="45.6985167" lon="11.2798217"><ele>893.8000000000001</ele><time>2026-04-07T07:52:34.997Z</time></trkpt><trkpt lat="45.69859" lon="11.2799267"><ele>891.1999999999999</ele><time>2026-04-07T07:52:36.998Z</time></trkpt><trkpt lat="45.698705" lon="11.2799667"><ele>888.5999999999999</ele><time>2026-04-07T07:52:38.998Z</time></trkpt><trkpt lat="45.6987767" lon="11.2799833"><ele>886.0</ele><time>2026-04-07T07:52:39.998Z</time></trkpt><trkpt lat="45.698855" lon="11.279995"><ele>885.9999999999999</ele><time>2026-04-07T07:52:40.997Z</time></trkpt><trkpt lat="45.6989383" lon="11.28"><ele>886.0</ele><time>2026-04-07T07:52:41.997Z</time></trkpt><trkpt lat="45.6990117" lon="11.28001"><ele>886.0</ele><time>2026-04-07T07:52:42.997Z</time></trkpt><trkpt lat="45.69908" lon="11.280045"><ele>886.0</ele><time>2026-04-07T07:52:43.998Z</time></trkpt><trkpt lat="45.6991717" lon="11.2800983"><ele>885.9999999999999</ele><time>2026-04-07T07:52:44.998Z</time></trkpt><trkpt lat="45.6992733" lon="11.28016"><ele>886.0</ele><time>2026-04-07T07:52:45.997Z</time></trkpt><trkpt lat="45.6993633" lon="11.2802117"><ele>887.8333333333333</ele><time>2026-04-07T07:52:46.997Z</time></trkpt><trkpt lat="45.699445" lon="11.2802583"><ele>889.6666666666666</ele><time>2026-04-07T07:52:47.997Z</time></trkpt><trkpt lat="45.6995267" lon="11.2802917"><ele>891.5</ele><time>2026-04-07T07:52:48.997Z</time></trkpt><trkpt lat="45.699605" lon="11.2803333"><ele>893.3333333333333</ele><time>2026-04-07T07:52:49.998Z</time></trkpt><trkpt lat="45.6996733" lon="11.2803633"><ele>895.1666666666666</ele><time>2026-04-07T07:52:50.998Z</time></trkpt><trkpt lat="45.6997367" lon="11.2804117"><ele>897.0</ele><time>2026-04-07T07:52:51.998Z</time></trkpt><trkpt lat="45.6998" lon="11.2804683"><ele>897.0</ele><time>2026-04-07T07:52:52.998Z</time></trkpt><trkpt lat="45.69984" lon="11.280545"><ele>897.0</ele><time>2026-04-07T07:52:53.998Z</time></trkpt><trkpt lat="45.699875" lon="11.280625"><ele>897.0</ele><time>2026-04-07T07:52:54.998Z</time></trkpt><trkpt lat="45.6998917" lon="11.2807633"><ele>897.0</ele><time>2026-04-07T07:52:56.997Z</time></trkpt><trkpt lat="45.699905" lon="11.2808533"><ele>897.0</ele><time>2026-04-07T07:52:57.997Z</time></trkpt><trkpt lat="45.69991" lon="11.2809983"><ele>897.0</ele><time>2026-04-07T07:52:59.997Z</time></trkpt><trkpt lat="45.6998367" lon="11.28102"><ele>897.0</ele><time>2026-04-07T07:53:03.998Z</time></trkpt><trkpt lat="45.6998117" lon="11.2808767"><ele>897.0</ele><time>2026-04-07T07:53:05.997Z</time></trkpt><trkpt lat="45.6997933" lon="11.2807817"><ele>897.0</ele><time>2026-04-07T07:53:06.997Z</time></trkpt><trkpt lat="45.6997633" lon="11.2806917"><ele>897.0</ele><time>2026-04-07T07:53:07.998Z</time></trkpt><trkpt lat="45.6997067" lon="11.2806167"><ele>897.0</ele><time>2026-04-07T07:53:08.998Z</time></trkpt><trkpt lat="45.6996317" lon="11.2805483"><ele>897.0</ele><time>2026-04-07T07:53:09.998Z</time></trkpt><trkpt lat="45.6995417" lon="11.28049"><ele>897.0</ele><time>2026-04-07T07:53:10.998Z</time></trkpt><trkpt lat="45.699435" lon="11.2804633"><ele>897.0</ele><time>2026-04-07T07:53:11.997Z</time></trkpt><trkpt lat="45.6993183" lon="11.2804383"><ele>897.0</ele><time>2026-04-07T07:53:12.997Z</time></trkpt><trkpt lat="45.6992083" lon="11.28042"><ele>897.0</ele><time>2026-04-07T07:53:13.998Z</time></trkpt><trkpt lat="45.699105" lon="11.2804067"><ele>897.0</ele><time>2026-04-07T07:53:14.998Z</time></trkpt><trkpt lat="45.699" lon="11.2803933"><ele>895.1666666666666</ele><time>2026-04-07T07:53:15.998Z</time></trkpt><trkpt lat="45.6989" lon="11.2803917"><ele>893.3333333333333</ele><time>2026-04-07T07:53:16.998Z</time></trkpt><trkpt lat="45.6988083" lon="11.280385"><ele>891.5</ele><time>2026-04-07T07:53:17.998Z</time></trkpt><trkpt lat="45.6987267" lon="11.2803917"><ele>889.6666666666666</ele><time>2026-04-07T07:53:18.998Z</time></trkpt><trkpt lat="45.6986433" lon="11.2804083"><ele>887.8333333333333</ele><time>2026-04-07T07:53:19.998Z</time></trkpt><trkpt lat="45.69857" lon="11.2804267"><ele>886.0</ele><time>2026-04-07T07:53:20.998Z</time></trkpt><trkpt lat="45.6985033" lon="11.280445"><ele>882.6666666666666</ele><time>2026-04-07T07:53:21.998Z</time></trkpt><trkpt lat="45.69843" lon="11.2804517"><ele>879.3333333333333</ele><time>2026-04-07T07:53:22.998Z</time></trkpt><trkpt lat="45.6983517" lon="11.28045"><ele>876.0</ele><time>2026-04-07T07:53:23.997Z</time></trkpt><trkpt lat="45.69827" lon="11.280435"><ele>872.6666666666667</ele><time>2026-04-07T07:53:24.998Z</time></trkpt><trkpt lat="45.6981983" lon="11.2804283"><ele>869.3333333333334</ele><time>2026-04-07T07:53:25.997Z</time></trkpt><trkpt lat="45.69813" lon="11.2804167"><ele>866.0</ele><time>2026-04-07T07:53:26.997Z</time></trkpt><trkpt lat="45.698035" lon="11.2803817"><ele>866.0</ele><time>2026-04-07T07:53:28.998Z</time></trkpt><trkpt lat="45.6979717" lon="11.2802683"><ele>865.9999999999999</ele><time>2026-04-07T07:53:30.997Z</time></trkpt><trkpt lat="45.6979217" lon="11.2801767"><ele>865.9999999999999</ele><time>2026-04-07T07:53:31.998Z</time></trkpt><trkpt lat="45.697855" lon="11.2800617"><ele>866.0</ele><time>2026-04-07T07:53:32.997Z</time></trkpt><trkpt lat="45.6977817" lon="11.279965"><ele>866.0</ele><time>2026-04-07T07:53:33.998Z</time></trkpt><trkpt lat="45.6977283" lon="11.279895"><ele>866.0</ele><time>2026-04-07T07:53:34.997Z</time></trkpt><trkpt lat="45.6976533" lon="11.2798"><ele>865.9999999999999</ele><time>2026-04-07T07:53:36.998Z</time></trkpt><trkpt lat="45.6975883" lon="11.279825"><ele>865.9999999999999</ele><time>2026-04-07T07:53:39.997Z</time></trkpt><trkpt lat="45.6976133" lon="11.2799267"><ele>866.0</ele><time>2026-04-07T07:53:41.998Z</time></trkpt><trkpt lat="45.6977033" lon="11.2800817"><ele>866.0</ele><time>2026-04-07T07:53:43.997Z</time></trkpt><trkpt lat="45.6977567" lon="11.2801717"><ele>866.0000000000001</ele><time>2026-04-07T07:53:44.997Z</time></trkpt><trkpt lat="45.6978" lon="11.2802733"><ele>866.0</ele><time>2026-04-07T07:53:45.997Z</time></trkpt><trkpt lat="45.6978283" lon="11.2803817"><ele>866.0</ele><time>2026-04-07T07:53:46.997Z</time></trkpt><trkpt lat="45.697865" lon="11.2804817"><ele>866.0</ele><time>2026-04-07T07:53:47.997Z</time></trkpt><trkpt lat="45.6979067" lon="11.2805717"><ele>866.0000000000001</ele><time>2026-04-07T07:53:48.998Z</time></trkpt><trkpt lat="45.6979833" lon="11.2806917"><ele>866.0</ele><time>2026-04-07T07:53:50.997Z</time></trkpt><trkpt lat="45.69809" lon="11.2807517"><ele>858.6666666666667</ele><time>2026-04-07T07:53:52.998Z</time></trkpt><trkpt lat="45.69815" lon="11.2808"><ele>851.3333333333334</ele><time>2026-04-07T07:53:53.998Z</time></trkpt><trkpt lat="45.6982117" lon="11.28084"><ele>844.0</ele><time>2026-04-07T07:53:54.998Z</time></trkpt><trkpt lat="45.6982733" lon="11.280865"><ele>836.6666666666667</ele><time>2026-04-07T07:53:55.997Z</time></trkpt><trkpt lat="45.6984033" lon="11.280865"><ele>829.3333333333334</ele><time>2026-04-07T07:53:57.997Z</time></trkpt><trkpt lat="45.6984883" lon="11.2808567"><ele>822.0</ele><time>2026-04-07T07:53:58.997Z</time></trkpt><trkpt lat="45.698575" lon="11.28085"><ele>825.8333333333334</ele><time>2026-04-07T07:53:59.998Z</time></trkpt><trkpt lat="45.6986483" lon="11.2808533"><ele>829.6666666666667</ele><time>2026-04-07T07:54:00.998Z</time></trkpt><trkpt lat="45.6987117" lon="11.2808683"><ele>833.5</ele><time>2026-04-07T07:54:01.998Z</time></trkpt><trkpt lat="45.698815" lon="11.2809317"><ele>837.3333333333334</ele><time>2026-04-07T07:54:03.997Z</time></trkpt><trkpt lat="45.698895" lon="11.281065"><ele>841.1666666666667</ele><time>2026-04-07T07:54:05.998Z</time></trkpt><trkpt lat="45.69892" lon="11.28115"><ele>845.0</ele><time>2026-04-07T07:54:06.998Z</time></trkpt><trkpt lat="45.69893" lon="11.28124"><ele>845.0000000000001</ele><time>2026-04-07T07:54:07.997Z</time></trkpt><trkpt lat="45.6989233" lon="11.2813333"><ele>845.0</ele><time>2026-04-07T07:54:08.998Z</time></trkpt><trkpt lat="45.698905" lon="11.2814317"><ele>845.0</ele><time>2026-04-07T07:54:09.997Z</time></trkpt><trkpt lat="45.6988683" lon="11.2815283"><ele>845.0</ele><time>2026-04-07T07:54:10.997Z</time></trkpt><trkpt lat="45.6988417" lon="11.2816283"><ele>845.0000000000001</ele><time>2026-04-07T07:54:11.997Z</time></trkpt><trkpt lat="45.6988283" lon="11.2817183"><ele>845.0</ele><time>2026-04-07T07:54:12.997Z</time></trkpt><trkpt lat="45.6988133" lon="11.2818667"><ele>845.0000000000001</ele><time>2026-04-07T07:54:14.997Z</time></trkpt><trkpt lat="45.6988383" lon="11.2817033"><ele>845.0</ele><time>2026-04-07T07:54:21.997Z</time></trkpt><trkpt lat="45.6988633" lon="11.281615"><ele>845.0</ele><time>2026-04-07T07:54:22.996Z</time></trkpt><trkpt lat="45.69888" lon="11.2815233"><ele>845.0</ele><time>2026-04-07T07:54:23.996Z</time></trkpt><trkpt lat="45.698885" lon="11.2814267"><ele>845.0000000000001</ele><time>2026-04-07T07:54:24.997Z</time></trkpt><trkpt lat="45.6988283" lon="11.2812683"><ele>845.0</ele><time>2026-04-07T07:54:26.997Z</time></trkpt><trkpt lat="45.6987567" lon="11.2812067"><ele>845.0</ele><time>2026-04-07T07:54:27.997Z</time></trkpt><trkpt lat="45.6986717" lon="11.28116"><ele>845.0</ele><time>2026-04-07T07:54:28.996Z</time></trkpt><trkpt lat="45.6985783" lon="11.281115"><ele>845.0</ele><time>2026-04-07T07:54:29.997Z</time></trkpt><trkpt lat="45.6984867" lon="11.2810983"><ele>845.0</ele><time>2026-04-07T07:54:30.996Z</time></trkpt><trkpt lat="45.6983917" lon="11.2810967"><ele>845.0</ele><time>2026-04-07T07:54:31.997Z</time></trkpt><trkpt lat="45.6983017" lon="11.2811217"><ele>841.1666666666667</ele><time>2026-04-07T07:54:32.997Z</time></trkpt><trkpt lat="45.69823" lon="11.2811433"><ele>837.3333333333334</ele><time>2026-04-07T07:54:33.997Z</time></trkpt><trkpt lat="45.69817" lon="11.2811733"><ele>833.5</ele><time>2026-04-07T07:54:34.996Z</time></trkpt><trkpt lat="45.698095" lon="11.2811767"><ele>829.6666666666667</ele><time>2026-04-07T07:54:36.997Z</time></trkpt><trkpt lat="45.6979933" lon="11.2811433"><ele>825.8333333333334</ele><time>2026-04-07T07:54:38.997Z</time></trkpt><trkpt lat="45.69793" lon="11.2811033"><ele>822.0</ele><time>2026-04-07T07:54:39.996Z</time></trkpt><trkpt lat="45.6978633" lon="11.28107"><ele>822.0</ele><time>2026-04-07T07:54:40.997Z</time></trkpt><trkpt lat="45.6978017" lon="11.2810367"><ele>822.0</ele><time>2026-04-07T07:54:41.996Z</time></trkpt><trkpt lat="45.6977367" lon="11.2809917"><ele>822.0</ele><time>2026-04-07T07:54:42.997Z</time></trkpt><trkpt lat="45.6976617" lon="11.2809283"><ele>822.0</ele><time>2026-04-07T07:54:43.997Z</time></trkpt><trkpt lat="45.697585" lon="11.28087"><ele>822.0</ele><time>2026-04-07T07:54:44.997Z</time></trkpt><trkpt lat="45.697515" lon="11.2808183"><ele>822.0</ele><time>2026-04-07T07:54:45.997Z</time></trkpt><trkpt lat="45.6974533" lon="11.280775"><ele>821.8</ele><time>2026-04-07T07:54:46.997Z</time></trkpt><trkpt lat="45.6973717" lon="11.2806933"><ele>821.6</ele><time>2026-04-07T07:54:48.997Z</time></trkpt><trkpt lat="45.69729" lon="11.2805717"><ele>821.4</ele><time>2026-04-07T07:54:50.997Z</time></trkpt><trkpt lat="45.697235" lon="11.2805083"><ele>821.1999999999999</ele><time>2026-04-07T07:54:51.996Z</time></trkpt><trkpt lat="45.6971783" lon="11.2804517"><ele>821.0</ele><time>2026-04-07T07:54:52.997Z</time></trkpt><trkpt lat="45.6970783" lon="11.2804"><ele>821.0000000000001</ele><time>2026-04-07T07:54:54.997Z</time></trkpt><trkpt lat="45.697015" lon="11.2803067"><ele>821.0</ele><time>2026-04-07T07:54:56.997Z</time></trkpt><trkpt lat="45.6969917" lon="11.280205"><ele>821.0</ele><time>2026-04-07T07:54:58.997Z</time></trkpt><trkpt lat="45.6969267" lon="11.280185"><ele>821.0</ele><time>2026-04-07T07:55:00.997Z</time></trkpt><trkpt lat="45.696885" lon="11.28028"><ele>821.0000000000001</ele><time>2026-04-07T07:55:02.996Z</time></trkpt><trkpt lat="45.6969" lon="11.2804383"><ele>821.0</ele><time>2026-04-07T07:55:04.997Z</time></trkpt><trkpt lat="45.6969433" lon="11.2805217"><ele>821.0000000000001</ele><time>2026-04-07T07:55:05.997Z</time></trkpt><trkpt lat="45.6969967" lon="11.2805917"><ele>821.0</ele><time>2026-04-07T07:55:06.996Z</time></trkpt><trkpt lat="45.69705" lon="11.280655"><ele>821.0</ele><time>2026-04-07T07:55:07.997Z</time></trkpt><trkpt lat="45.6970967" lon="11.28072"><ele>821.0</ele><time>2026-04-07T07:55:08.997Z</time></trkpt><trkpt lat="45.6971367" lon="11.280805"><ele>821.0</ele><time>2026-04-07T07:55:09.996Z</time></trkpt><trkpt lat="45.69718" lon="11.2808933"><ele>821.0000000000001</ele><time>2026-04-07T07:55:10.997Z</time></trkpt><trkpt lat="45.6972367" lon="11.2809717"><ele>821.0</ele><time>2026-04-07T07:55:11.997Z</time></trkpt><trkpt lat="45.6973117" lon="11.2810683"><ele>814.5999999999999</ele><time>2026-04-07T07:55:12.997Z</time></trkpt><trkpt lat="45.6973833" lon="11.2811733"><ele>808.2</ele><time>2026-04-07T07:55:13.997Z</time></trkpt><trkpt lat="45.6974483" lon="11.28127"><ele>801.8</ele><time>2026-04-07T07:55:14.996Z</time></trkpt><trkpt lat="45.69752" lon="11.2813483"><ele>795.4000000000001</ele><time>2026-04-07T07:55:15.996Z</time></trkpt><trkpt lat="45.697585" lon="11.2814367"><ele>789.0</ele><time>2026-04-07T07:55:16.996Z</time></trkpt><trkpt lat="45.6976383" lon="11.28152"><ele>787.5</ele><time>2026-04-07T07:55:17.997Z</time></trkpt><trkpt lat="45.6976817" lon="11.2815867"><ele>786.0</ele><time>2026-04-07T07:55:18.997Z</time></trkpt><trkpt lat="45.6977333" lon="11.28164"><ele>784.5</ele><time>2026-04-07T07:55:19.997Z</time></trkpt><trkpt lat="45.6978233" lon="11.2817533"><ele>783.0</ele><time>2026-04-07T07:55:21.997Z</time></trkpt><trkpt lat="45.6979317" lon="11.2818133"><ele>781.5</ele><time>2026-04-07T07:55:23.997Z</time></trkpt><trkpt lat="45.697995" lon="11.28183"><ele>780.0</ele><time>2026-04-07T07:55:24.997Z</time></trkpt><trkpt lat="45.6981" lon="11.2819033"><ele>780.0</ele><time>2026-04-07T07:55:26.997Z</time></trkpt><trkpt lat="45.6981617" lon="11.2820417"><ele>780.0</ele><time>2026-04-07T07:55:28.997Z</time></trkpt><trkpt lat="45.6982" lon="11.2821617"><ele>780.0</ele><time>2026-04-07T07:55:29.997Z</time></trkpt><trkpt lat="45.6982333" lon="11.2823183"><ele>780.0</ele><time>2026-04-07T07:55:30.997Z</time></trkpt><trkpt lat="45.6982717" lon="11.28248"><ele>780.0</ele><time>2026-04-07T07:55:31.996Z</time></trkpt><trkpt lat="45.6983117" lon="11.2826533"><ele>774.0</ele><time>2026-04-07T07:55:32.997Z</time></trkpt><trkpt lat="45.69835" lon="11.2828233"><ele>768.0</ele><time>2026-04-07T07:55:33.997Z</time></trkpt><trkpt lat="45.6983833" lon="11.2829817"><ele>762.0</ele><time>2026-04-07T07:55:34.997Z</time></trkpt><trkpt lat="45.6984033" lon="11.2831217"><ele>756.0</ele><time>2026-04-07T07:55:35.997Z</time></trkpt><trkpt lat="45.69841" lon="11.2832533"><ele>750.0</ele><time>2026-04-07T07:55:36.996Z</time></trkpt><trkpt lat="45.698415" lon="11.2833667"><ele>748.6</ele><time>2026-04-07T07:55:37.996Z</time></trkpt><trkpt lat="45.6984167" lon="11.2834817"><ele>747.2</ele><time>2026-04-07T07:55:38.997Z</time></trkpt><trkpt lat="45.6984067" lon="11.283575"><ele>745.8</ele><time>2026-04-07T07:55:39.996Z</time></trkpt><trkpt lat="45.6983383" lon="11.2837183"><ele>744.4</ele><time>2026-04-07T07:55:41.997Z</time></trkpt><trkpt lat="45.6982217" lon="11.28379"><ele>743.0</ele><time>2026-04-07T07:55:43.997Z</time></trkpt><trkpt lat="45.69813" lon="11.28378"><ele>743.0</ele><time>2026-04-07T07:55:44.997Z</time></trkpt><trkpt lat="45.698" lon="11.2837417"><ele>743.0</ele><time>2026-04-07T07:55:45.996Z</time></trkpt><trkpt lat="45.6978667" lon="11.2836933"><ele>743.0</ele><time>2026-04-07T07:55:46.997Z</time></trkpt><trkpt lat="45.6977483" lon="11.2836583"><ele>743.0</ele><time>2026-04-07T07:55:47.996Z</time></trkpt><trkpt lat="45.6976617" lon="11.2836217"><ele>743.0</ele><time>2026-04-07T07:55:48.996Z</time></trkpt><trkpt lat="45.6975967" lon="11.2835867"><ele>743.0</ele><time>2026-04-07T07:55:49.997Z</time></trkpt><trkpt lat="45.697595" lon="11.2836917"><ele>743.0</ele><time>2026-04-07T07:55:54.997Z</time></trkpt><trkpt lat="45.69768" lon="11.2837167"><ele>743.0</ele><time>2026-04-07T07:55:56.997Z</time></trkpt><trkpt lat="45.69779" lon="11.28376"><ele>743.0</ele><time>2026-04-07T07:55:58.997Z</time></trkpt><trkpt lat="45.6978633" lon="11.2837983"><ele>743.0</ele><time>2026-04-07T07:55:59.996Z</time></trkpt><trkpt lat="45.69795" lon="11.2838483"><ele>743.0</ele><time>2026-04-07T07:56:00.997Z</time></trkpt><trkpt lat="45.6980433" lon="11.28389"><ele>743.0</ele><time>2026-04-07T07:56:01.997Z</time></trkpt><trkpt lat="45.6981267" lon="11.283925"><ele>743.0</ele><time>2026-04-07T07:56:02.997Z</time></trkpt><trkpt lat="45.6981967" lon="11.2839633"><ele>743.0</ele><time>2026-04-07T07:56:03.996Z</time></trkpt><trkpt lat="45.6982667" lon="11.2839867"><ele>743.0</ele><time>2026-04-07T07:56:04.997Z</time></trkpt><trkpt lat="45.69839" lon="11.2839933"><ele>743.0</ele><time>2026-04-07T07:56:06.996Z</time></trkpt><trkpt lat="45.6984517" lon="11.2839683"><ele>743.0</ele><time>2026-04-07T07:56:07.997Z</time></trkpt><trkpt lat="45.6985283" lon="11.2838083"><ele>743.0</ele><time>2026-04-07T07:56:09.997Z</time></trkpt><trkpt lat="45.6985917" lon="11.2836933"><ele>743.0</ele><time>2026-04-07T07:56:10.997Z</time></trkpt><trkpt lat="45.6986433" lon="11.2835933"><ele>743.0</ele><time>2026-04-07T07:56:11.996Z</time></trkpt><trkpt lat="45.6987133" lon="11.2834683"><ele>746.6666666666666</ele><time>2026-04-07T07:56:13.997Z</time></trkpt><trkpt lat="45.6987833" lon="11.2834333"><ele>750.3333333333333</ele><time>2026-04-07T07:56:15.996Z</time></trkpt><trkpt lat="45.6988367" lon="11.2835333"><ele>754.0</ele><time>2026-04-07T07:56:17.997Z</time></trkpt><trkpt lat="45.6988867" lon="11.283595"><ele>757.6666666666666</ele><time>2026-04-07T07:56:18.997Z</time></trkpt><trkpt lat="45.69899" lon="11.2836983"><ele>761.3333333333334</ele><time>2026-04-07T07:56:20.997Z</time></trkpt><trkpt lat="45.6990517" lon="11.283735"><ele>765.0</ele><time>2026-04-07T07:56:21.997Z</time></trkpt><trkpt lat="45.6991083" lon="11.2837867"><ele>765.0</ele><time>2026-04-07T07:56:22.997Z</time></trkpt><trkpt lat="45.6991567" lon="11.2838483"><ele>765.0</ele><time>2026-04-07T07:56:23.997Z</time></trkpt><trkpt lat="45.6992367" lon="11.2839933"><ele>765.0</ele><time>2026-04-07T07:56:25.997Z</time></trkpt><trkpt lat="45.6992733" lon="11.28408"><ele>765.0</ele><time>2026-04-07T07:56:26.997Z</time></trkpt><trkpt lat="45.6993317" lon="11.2841667"><ele>765.0</ele><time>2026-04-07T07:56:27.996Z</time></trkpt><trkpt lat="45.69939" lon="11.2842367"><ele>765.0</ele><time>2026-04-07T07:56:28.997Z</time></trkpt><trkpt lat="45.699455" lon="11.2842967"><ele>760.0</ele><time>2026-04-07T07:56:29.996Z</time></trkpt><trkpt lat="45.6995167" lon="11.2843533"><ele>755.0</ele><time>2026-04-07T07:56:30.996Z</time></trkpt><trkpt lat="45.6995667" lon="11.2844433"><ele>750.0</ele><time>2026-04-07T07:56:32.997Z</time></trkpt><trkpt lat="45.6995533" lon="11.28456"><ele>745.0</ele><time>2026-04-07T07:56:34.997Z</time></trkpt><trkpt lat="45.6995417" lon="11.2846533"><ele>740.0</ele><time>2026-04-07T07:56:35.997Z</time></trkpt><trkpt lat="45.699525" lon="11.28478"><ele>735.0</ele><time>2026-04-07T07:56:36.997Z</time></trkpt><trkpt lat="45.69952" lon="11.284915"><ele>734.8333333333334</ele><time>2026-04-07T07:56:37.996Z</time></trkpt><trkpt lat="45.6995083" lon="11.285055"><ele>734.6666666666666</ele><time>2026-04-07T07:56:38.996Z</time></trkpt><trkpt lat="45.6994867" lon="11.2851867"><ele>734.5</ele><time>2026-04-07T07:56:39.997Z</time></trkpt><trkpt lat="45.699475" lon="11.285315"><ele>734.3333333333333</ele><time>2026-04-07T07:56:40.996Z</time></trkpt><trkpt lat="45.6994633" lon="11.285425"><ele>734.1666666666666</ele><time>2026-04-07T07:56:41.997Z</time></trkpt><trkpt lat="45.6994567" lon="11.285515"><ele>734.0</ele><time>2026-04-07T07:56:42.996Z</time></trkpt><trkpt lat="45.6994317" lon="11.28566"><ele>738.6</ele><time>2026-04-07T07:56:44.996Z</time></trkpt><trkpt lat="45.6993967" lon="11.2858117"><ele>743.2</ele><time>2026-04-07T07:56:46.996Z</time></trkpt><trkpt lat="45.6993817" lon="11.2859"><ele>747.8000000000001</ele><time>2026-04-07T07:56:47.997Z</time></trkpt><trkpt lat="45.69935" lon="11.286065"><ele>752.4000000000001</ele><time>2026-04-07T07:56:49.997Z</time></trkpt><trkpt lat="45.6993533" lon="11.2862117"><ele>757.0</ele><time>2026-04-07T07:56:51.997Z</time></trkpt><trkpt lat="45.6993733" lon="11.2863467"><ele>754.4000000000001</ele><time>2026-04-07T07:56:53.996Z</time></trkpt><trkpt lat="45.6993867" lon="11.286445"><ele>751.8000000000001</ele><time>2026-04-07T07:56:55.997Z</time></trkpt><trkpt lat="45.69944" lon="11.2863467"><ele>749.2</ele><time>2026-04-07T07:57:02.997Z</time></trkpt><trkpt lat="45.699485" lon="11.2862133"><ele>746.6</ele><time>2026-04-07T07:57:04.997Z</time></trkpt><trkpt lat="45.6995567" lon="11.2860683"><ele>744.0</ele><time>2026-04-07T07:57:06.996Z</time></trkpt><trkpt lat="45.6995967" lon="11.2859833"><ele>742.0</ele><time>2026-04-07T07:57:07.997Z</time></trkpt><trkpt lat="45.699665" lon="11.2858317"><ele>740.0</ele><time>2026-04-07T07:57:09.997Z</time></trkpt><trkpt lat="45.69971" lon="11.2857117"><ele>738.0</ele><time>2026-04-07T07:57:10.997Z</time></trkpt><trkpt lat="45.6997483" lon="11.285575"><ele>736.0</ele><time>2026-04-07T07:57:11.997Z</time></trkpt><trkpt lat="45.6997833" lon="11.28544"><ele>734.0</ele><time>2026-04-07T07:57:12.996Z</time></trkpt><trkpt lat="45.699825" lon="11.2853167"><ele>734.0</ele><time>2026-04-07T07:57:13.997Z</time></trkpt><trkpt lat="45.69986" lon="11.2852133"><ele>734.0</ele><time>2026-04-07T07:57:14.997Z</time></trkpt><trkpt lat="45.699895" lon="11.2851067"><ele>734.0</ele><time>2026-04-07T07:57:15.997Z</time></trkpt><trkpt lat="45.6999333" lon="11.285"><ele>734.0</ele><time>2026-04-07T07:57:16.997Z</time></trkpt><trkpt lat="45.6999667" lon="11.2848933"><ele>734.0</ele><time>2026-04-07T07:57:17.996Z</time></trkpt><trkpt lat="45.699995" lon="11.2847833"><ele>734.0</ele><time>2026-04-07T07:57:18.997Z</time></trkpt><trkpt lat="45.7000217" lon="11.2846833"><ele>734.2</ele><time>2026-04-07T07:57:19.996Z</time></trkpt><trkpt lat="45.70005" lon="11.2845883"><ele>734.4000000000001</ele><time>2026-04-07T07:57:20.997Z</time></trkpt><trkpt lat="45.7000817" lon="11.28445"><ele>734.6</ele><time>2026-04-07T07:57:22.997Z</time></trkpt><trkpt lat="45.70008" lon="11.2843117"><ele>734.8</ele><time>2026-04-07T07:57:24.996Z</time></trkpt><trkpt lat="45.7000767" lon="11.2841333"><ele>735.0</ele><time>2026-04-07T07:57:26.997Z</time></trkpt><trkpt lat="45.70007" lon="11.28403"><ele>735.0</ele><time>2026-04-07T07:57:27.997Z</time></trkpt><trkpt lat="45.7000583" lon="11.283935"><ele>735.0</ele><time>2026-04-07T07:57:28.996Z</time></trkpt><trkpt lat="45.700045" lon="11.2838317"><ele>735.0</ele><time>2026-04-07T07:57:29.996Z</time></trkpt><trkpt lat="45.7000333" lon="11.283665"><ele>735.0</ele><time>2026-04-07T07:57:31.997Z</time></trkpt><trkpt lat="45.7000267" lon="11.2835717"><ele>735.0</ele><time>2026-04-07T07:57:32.996Z</time></trkpt><trkpt lat="45.70005" lon="11.283435"><ele>735.0</ele><time>2026-04-07T07:57:34.997Z</time></trkpt><trkpt lat="45.7000867" lon="11.2833617"><ele>735.6</ele><time>2026-04-07T07:57:35.997Z</time></trkpt><trkpt lat="45.7001583" lon="11.2832667"><ele>736.2</ele><time>2026-04-07T07:57:37.997Z</time></trkpt><trkpt lat="45.7002517" lon="11.2832933"><ele>736.8</ele><time>2026-04-07T07:57:39.996Z</time></trkpt><trkpt lat="45.700345" lon="11.2832917"><ele>737.4</ele><time>2026-04-07T07:57:40.997Z</time></trkpt><trkpt lat="45.70043" lon="11.2832833"><ele>738.0</ele><time>2026-04-07T07:57:41.997Z</time></trkpt><trkpt lat="45.7005083" lon="11.283275"><ele>733.4</ele><time>2026-04-07T07:57:42.997Z</time></trkpt><trkpt lat="45.7005933" lon="11.2832667"><ele>728.8</ele><time>2026-04-07T07:57:43.996Z</time></trkpt><trkpt lat="45.7006817" lon="11.2832633"><ele>724.2</ele><time>2026-04-07T07:57:44.996Z</time></trkpt><trkpt lat="45.700785" lon="11.2832717"><ele>719.6</ele><time>2026-04-07T07:57:45.996Z</time></trkpt><trkpt lat="45.7008967" lon="11.283295"><ele>715.0</ele><time>2026-04-07T07:57:46.996Z</time></trkpt><trkpt lat="45.7010233" lon="11.28329"><ele>711.4</ele><time>2026-04-07T07:57:47.997Z</time></trkpt><trkpt lat="45.7011317" lon="11.2832833"><ele>707.8</ele><time>2026-04-07T07:57:48.997Z</time></trkpt><trkpt lat="45.7012333" lon="11.2832617"><ele>704.2</ele><time>2026-04-07T07:57:49.996Z</time></trkpt><trkpt lat="45.701325" lon="11.283235"><ele>700.6</ele><time>2026-04-07T07:57:50.997Z</time></trkpt><trkpt lat="45.7014117" lon="11.2831967"><ele>697.0</ele><time>2026-04-07T07:57:51.996Z</time></trkpt><trkpt lat="45.7015017" lon="11.2831483"><ele>697.0</ele><time>2026-04-07T07:57:52.997Z</time></trkpt><trkpt lat="45.70158" lon="11.2831067"><ele>697.0</ele><time>2026-04-07T07:57:53.996Z</time></trkpt><trkpt lat="45.7016483" lon="11.28307"><ele>697.0</ele><time>2026-04-07T07:57:54.996Z</time></trkpt><trkpt lat="45.7017083" lon="11.2830417"><ele>697.0</ele><time>2026-04-07T07:57:55.997Z</time></trkpt><trkpt lat="45.7018083" lon="11.282965"><ele>697.0</ele><time>2026-04-07T07:57:57.997Z</time></trkpt><trkpt lat="45.7018783" lon="11.282835"><ele>697.0</ele><time>2026-04-07T07:57:59.996Z</time></trkpt><trkpt lat="45.701905" lon="11.2827533"><ele>697.3333333333334</ele><time>2026-04-07T07:58:00.996Z</time></trkpt><trkpt lat="45.70194" lon="11.2826783"><ele>697.6666666666667</ele><time>2026-04-07T07:58:01.997Z</time></trkpt><trkpt lat="45.7019983" lon="11.2825817"><ele>698.0</ele><time>2026-04-07T07:58:03.997Z</time></trkpt><trkpt lat="45.7021117" lon="11.2825383"><ele>698.3333333333334</ele><time>2026-04-07T07:58:05.997Z</time></trkpt><trkpt lat="45.7021833" lon="11.2825383"><ele>698.6666666666666</ele><time>2026-04-07T07:58:06.996Z</time></trkpt><trkpt lat="45.7022783" lon="11.2825367"><ele>699.0</ele><time>2026-04-07T07:58:07.997Z</time></trkpt><trkpt lat="45.702375" lon="11.2825267"><ele>699.0</ele><time>2026-04-07T07:58:08.996Z</time></trkpt><trkpt lat="45.70247" lon="11.282515"><ele>699.0</ele><time>2026-04-07T07:58:09.996Z</time></trkpt><trkpt lat="45.702565" lon="11.2824917"><ele>699.0</ele><time>2026-04-07T07:58:10.996Z</time></trkpt><trkpt lat="45.7026533" lon="11.28248"><ele>699.0</ele><time>2026-04-07T07:58:11.996Z</time></trkpt><trkpt lat="45.7027517" lon="11.28241"><ele>699.0</ele><time>2026-04-07T07:58:13.996Z</time></trkpt><trkpt lat="45.7028517" lon="11.282285"><ele>695.2</ele><time>2026-04-07T07:58:15.996Z</time></trkpt><trkpt lat="45.702915" lon="11.2822133"><ele>691.4000000000001</ele><time>2026-04-07T07:58:16.995Z</time></trkpt><trkpt lat="45.7029767" lon="11.2821467"><ele>687.6</ele><time>2026-04-07T07:58:17.996Z</time></trkpt><trkpt lat="45.7030367" lon="11.2820167"><ele>683.8</ele><time>2026-04-07T07:58:19.996Z</time></trkpt><trkpt lat="45.70308" lon="11.2818633"><ele>680.0</ele><time>2026-04-07T07:58:21.996Z</time></trkpt><trkpt lat="45.703105" lon="11.2817517"><ele>680.0</ele><time>2026-04-07T07:58:22.995Z</time></trkpt><trkpt lat="45.70312" lon="11.28162"><ele>680.0</ele><time>2026-04-07T07:58:23.996Z</time></trkpt><trkpt lat="45.7031317" lon="11.281475"><ele>680.0</ele><time>2026-04-07T07:58:24.996Z</time></trkpt><trkpt lat="45.7031233" lon="11.281315"><ele>680.0</ele><time>2026-04-07T07:58:25.996Z</time></trkpt><trkpt lat="45.70311" lon="11.2811533"><ele>680.0</ele><time>2026-04-07T07:58:26.996Z</time></trkpt><trkpt lat="45.7030883" lon="11.28101"><ele>680.3333333333333</ele><time>2026-04-07T07:58:27.996Z</time></trkpt><trkpt lat="45.7030667" lon="11.280895"><ele>680.6666666666666</ele><time>2026-04-07T07:58:28.996Z</time></trkpt><trkpt lat="45.703045" lon="11.2807833"><ele>681.0</ele><time>2026-04-07T07:58:29.995Z</time></trkpt><trkpt lat="45.7030283" lon="11.2806767"><ele>681.3333333333334</ele><time>2026-04-07T07:58:30.996Z</time></trkpt><trkpt lat="45.7030183" lon="11.2805533"><ele>681.6666666666667</ele><time>2026-04-07T07:58:31.996Z</time></trkpt><trkpt lat="45.703015" lon="11.28042"><ele>682.0</ele><time>2026-04-07T07:58:32.996Z</time></trkpt><trkpt lat="45.7030117" lon="11.2802633"><ele>682.4000000000001</ele><time>2026-04-07T07:58:33.996Z</time></trkpt><trkpt lat="45.7030017" lon="11.2801217"><ele>682.8000000000001</ele><time>2026-04-07T07:58:34.995Z</time></trkpt><trkpt lat="45.7029983" lon="11.27999"><ele>683.2</ele><time>2026-04-07T07:58:35.996Z</time></trkpt><trkpt lat="45.7029883" lon="11.279845"><ele>683.6</ele><time>2026-04-07T07:58:36.996Z</time></trkpt><trkpt lat="45.702995" lon="11.279695"><ele>684.0</ele><time>2026-04-07T07:58:37.996Z</time></trkpt><trkpt lat="45.7030083" lon="11.27953"><ele>684.0</ele><time>2026-04-07T07:58:38.996Z</time></trkpt><trkpt lat="45.7030083" lon="11.2793667"><ele>684.0</ele><time>2026-04-07T07:58:39.995Z</time></trkpt><trkpt lat="45.7029983" lon="11.2792117"><ele>684.0</ele><time>2026-04-07T07:58:40.996Z</time></trkpt><trkpt lat="45.702995" lon="11.279075"><ele>684.0</ele><time>2026-04-07T07:58:41.996Z</time></trkpt><trkpt lat="45.7029867" lon="11.2789467"><ele>684.0</ele><time>2026-04-07T07:58:42.996Z</time></trkpt><trkpt lat="45.7029983" lon="11.2788167"><ele>684.8000000000001</ele><time>2026-04-07T07:58:43.996Z</time></trkpt><trkpt lat="45.7030233" lon="11.278685"><ele>685.6</ele><time>2026-04-07T07:58:44.996Z</time></trkpt><trkpt lat="45.7030683" lon="11.2785433"><ele>686.4</ele><time>2026-04-07T07:58:45.996Z</time></trkpt><trkpt lat="45.7031033" lon="11.2784167"><ele>687.2</ele><time>2026-04-07T07:58:46.996Z</time></trkpt><trkpt lat="45.703145" lon="11.2783133"><ele>688.0</ele><time>2026-04-07T07:58:47.995Z</time></trkpt><trkpt lat="45.703185" lon="11.27821"><ele>688.0</ele><time>2026-04-07T07:58:48.995Z</time></trkpt><trkpt lat="45.703235" lon="11.2781267"><ele>688.0</ele><time>2026-04-07T07:58:49.996Z</time></trkpt><trkpt lat="45.703285" lon="11.2780233"><ele>688.0</ele><time>2026-04-07T07:58:50.995Z</time></trkpt><trkpt lat="45.7033283" lon="11.277925"><ele>688.0</ele><time>2026-04-07T07:58:51.996Z</time></trkpt><trkpt lat="45.7033633" lon="11.2778367"><ele>688.0</ele><time>2026-04-07T07:58:52.995Z</time></trkpt><trkpt lat="45.703385" lon="11.2776733"><ele>688.0</ele><time>2026-04-07T07:58:54.995Z</time></trkpt><trkpt lat="45.703325" lon="11.2775133"><ele>689.0</ele><time>2026-04-07T07:58:56.996Z</time></trkpt><trkpt lat="45.7032767" lon="11.2774217"><ele>690.0</ele><time>2026-04-07T07:58:57.995Z</time></trkpt><trkpt lat="45.7032183" lon="11.277335"><ele>691.0</ele><time>2026-04-07T07:58:58.996Z</time></trkpt><trkpt lat="45.703155" lon="11.27725"><ele>692.0</ele><time>2026-04-07T07:58:59.995Z</time></trkpt><trkpt lat="45.7031133" lon="11.27716"><ele>693.0</ele><time>2026-04-07T07:59:00.996Z</time></trkpt><trkpt lat="45.7030883" lon="11.2770583"><ele>694.0</ele><time>2026-04-07T07:59:01.996Z</time></trkpt><trkpt lat="45.7030833" lon="11.2769267"><ele>695.0</ele><time>2026-04-07T07:59:02.995Z</time></trkpt><trkpt lat="45.70307" lon="11.276785"><ele>696.0</ele><time>2026-04-07T07:59:03.996Z</time></trkpt><trkpt lat="45.7030433" lon="11.2766233"><ele>697.0</ele><time>2026-04-07T07:59:04.996Z</time></trkpt><trkpt lat="45.703005" lon="11.2764717"><ele>698.0</ele><time>2026-04-07T07:59:05.996Z</time></trkpt><trkpt lat="45.70296" lon="11.2763367"><ele>699.0</ele><time>2026-04-07T07:59:06.996Z</time></trkpt><trkpt lat="45.702915" lon="11.27623"><ele>700.4000000000001</ele><time>2026-04-07T07:59:07.996Z</time></trkpt><trkpt lat="45.7028783" lon="11.2761483"><ele>701.8</ele><time>2026-04-07T07:59:08.996Z</time></trkpt><trkpt lat="45.702805" lon="11.27602"><ele>703.2</ele><time>2026-04-07T07:59:10.996Z</time></trkpt><trkpt lat="45.7027567" lon="11.27595"><ele>704.5999999999999</ele><time>2026-04-07T07:59:11.996Z</time></trkpt><trkpt lat="45.7026667" lon="11.2758367"><ele>706.0</ele><time>2026-04-07T07:59:13.995Z</time></trkpt><trkpt lat="45.702605" lon="11.2756817"><ele>704.4</ele><time>2026-04-07T07:59:15.996Z</time></trkpt><trkpt lat="45.7026017" lon="11.2755083"><ele>702.8</ele><time>2026-04-07T07:59:17.995Z</time></trkpt><trkpt lat="45.7026033" lon="11.2753883"><ele>701.1999999999999</ele><time>2026-04-07T07:59:18.995Z</time></trkpt><trkpt lat="45.7026017" lon="11.2752383"><ele>699.5999999999999</ele><time>2026-04-07T07:59:19.996Z</time></trkpt><trkpt lat="45.7025983" lon="11.2750867"><ele>698.0</ele><time>2026-04-07T07:59:20.995Z</time></trkpt><trkpt lat="45.7025933" lon="11.27494"><ele>698.0</ele><time>2026-04-07T07:59:21.996Z</time></trkpt><trkpt lat="45.702575" lon="11.2747983"><ele>698.0</ele><time>2026-04-07T07:59:22.996Z</time></trkpt><trkpt lat="45.702545" lon="11.2746517"><ele>698.0</ele><time>2026-04-07T07:59:23.995Z</time></trkpt><trkpt lat="45.7025117" lon="11.274485"><ele>698.0</ele><time>2026-04-07T07:59:24.996Z</time></trkpt><trkpt lat="45.70249" lon="11.274315"><ele>698.0</ele><time>2026-04-07T07:59:25.996Z</time></trkpt><trkpt lat="45.7024783" lon="11.27413"><ele>696.8</ele><time>2026-04-07T07:59:26.996Z</time></trkpt><trkpt lat="45.7024683" lon="11.273985"><ele>695.5999999999999</ele><time>2026-04-07T07:59:27.996Z</time></trkpt><trkpt lat="45.7024517" lon="11.27388"><ele>694.4000000000001</ele><time>2026-04-07T07:59:28.996Z</time></trkpt><trkpt lat="45.70242" lon="11.2738"><ele>693.2</ele><time>2026-04-07T07:59:29.995Z</time></trkpt><trkpt lat="45.7023167" lon="11.2736683"><ele>692.0</ele><time>2026-04-07T07:59:31.996Z</time></trkpt><trkpt lat="45.7022317" lon="11.2735917"><ele>690.1666666666666</ele><time>2026-04-07T07:59:32.996Z</time></trkpt><trkpt lat="45.702155" lon="11.27352"><ele>688.3333333333333</ele><time>2026-04-07T07:59:33.996Z</time></trkpt><trkpt lat="45.7020967" lon="11.2734317"><ele>686.5</ele><time>2026-04-07T07:59:34.995Z</time></trkpt><trkpt lat="45.7020617" lon="11.273335"><ele>684.6666666666666</ele><time>2026-04-07T07:59:35.996Z</time></trkpt><trkpt lat="45.7020583" lon="11.273235"><ele>682.8333333333334</ele><time>2026-04-07T07:59:36.995Z</time></trkpt><trkpt lat="45.7020967" lon="11.2731317"><ele>681.0</ele><time>2026-04-07T07:59:37.995Z</time></trkpt><trkpt lat="45.7021167" lon="11.2730167"><ele>678.6666666666666</ele><time>2026-04-07T07:59:38.995Z</time></trkpt><trkpt lat="45.702125" lon="11.27292"><ele>676.3333333333334</ele><time>2026-04-07T07:59:39.996Z</time></trkpt><trkpt lat="45.70213" lon="11.27283"><ele>674.0</ele><time>2026-04-07T07:59:40.996Z</time></trkpt><trkpt lat="45.7021167" lon="11.2726983"><ele>671.6666666666667</ele><time>2026-04-07T07:59:42.996Z</time></trkpt><trkpt lat="45.702075" lon="11.2726283"><ele>669.3333333333334</ele><time>2026-04-07T07:59:43.996Z</time></trkpt><trkpt lat="45.7020083" lon="11.2725333"><ele>667.0</ele><time>2026-04-07T07:59:44.996Z</time></trkpt><trkpt lat="45.701955" lon="11.2724117"><ele>667.0</ele><time>2026-04-07T07:59:45.995Z</time></trkpt><trkpt lat="45.70192" lon="11.2722833"><ele>667.0</ele><time>2026-04-07T07:59:46.996Z</time></trkpt><trkpt lat="45.7018883" lon="11.2721233"><ele>667.0</ele><time>2026-04-07T07:59:47.996Z</time></trkpt><trkpt lat="45.7018517" lon="11.2719533"><ele>667.0</ele><time>2026-04-07T07:59:48.996Z</time></trkpt><trkpt lat="45.701815" lon="11.27179"><ele>668.3333333333334</ele><time>2026-04-07T07:59:49.995Z</time></trkpt><trkpt lat="45.70178" lon="11.27167"><ele>669.6666666666667</ele><time>2026-04-07T07:59:50.996Z</time></trkpt><trkpt lat="45.7017483" lon="11.2715717"><ele>671.0</ele><time>2026-04-07T07:59:51.995Z</time></trkpt><trkpt lat="45.7017083" lon="11.2714917"><ele>672.3333333333334</ele><time>2026-04-07T07:59:52.996Z</time></trkpt><trkpt lat="45.7016567" lon="11.2714217"><ele>673.6666666666666</ele><time>2026-04-07T07:59:53.996Z</time></trkpt><trkpt lat="45.7015983" lon="11.27135"><ele>675.0</ele><time>2026-04-07T07:59:54.995Z</time></trkpt><trkpt lat="45.701545" lon="11.2712633"><ele>675.0</ele><time>2026-04-07T07:59:55.996Z</time></trkpt><trkpt lat="45.701495" lon="11.2711583"><ele>675.0</ele><time>2026-04-07T07:59:56.996Z</time></trkpt><trkpt lat="45.7014483" lon="11.271045"><ele>675.0</ele><time>2026-04-07T07:59:57.995Z</time></trkpt><trkpt lat="45.7014017" lon="11.2709067"><ele>675.0</ele><time>2026-04-07T07:59:58.995Z</time></trkpt><trkpt lat="45.7013617" lon="11.270815"><ele>675.0</ele><time>2026-04-07T07:59:59.995Z</time></trkpt><trkpt lat="45.7013167" lon="11.2707417"><ele>675.0</ele><time>2026-04-07T08:00:00.996Z</time></trkpt><trkpt lat="45.7012533" lon="11.2706717"><ele>675.0</ele><time>2026-04-07T08:00:01.996Z</time></trkpt><trkpt lat="45.7011667" lon="11.270625"><ele>675.0</ele><time>2026-04-07T08:00:02.996Z</time></trkpt><trkpt lat="45.7010733" lon="11.270575"><ele>675.0</ele><time>2026-04-07T08:00:03.996Z</time></trkpt><trkpt lat="45.701" lon="11.270535"><ele>675.0</ele><time>2026-04-07T08:00:04.995Z</time></trkpt><trkpt lat="45.700915" lon="11.2704783"><ele>675.0</ele><time>2026-04-07T08:00:05.996Z</time></trkpt><trkpt lat="45.7008517" lon="11.2704117"><ele>675.0</ele><time>2026-04-07T08:00:06.996Z</time></trkpt><trkpt lat="45.7008083" lon="11.270335"><ele>677.8</ele><time>2026-04-07T08:00:07.995Z</time></trkpt><trkpt lat="45.7008283" lon="11.27023"><ele>680.6</ele><time>2026-04-07T08:00:08.996Z</time></trkpt><trkpt lat="45.70079" lon="11.2700917"><ele>683.4000000000001</ele><time>2026-04-07T08:00:09.996Z</time></trkpt><trkpt lat="45.700775" lon="11.2699983"><ele>686.2</ele><time>2026-04-07T08:00:10.996Z</time></trkpt><trkpt lat="45.7007267" lon="11.269855"><ele>689.0</ele><time>2026-04-07T08:00:11.996Z</time></trkpt><trkpt lat="45.7006833" lon="11.2697167"><ele>689.0</ele><time>2026-04-07T08:00:12.996Z</time></trkpt><trkpt lat="45.7006267" lon="11.2695833"><ele>689.0</ele><time>2026-04-07T08:00:13.995Z</time></trkpt><trkpt lat="45.700575" lon="11.2694583"><ele>689.0</ele><time>2026-04-07T08:00:14.996Z</time></trkpt><trkpt lat="45.7005367" lon="11.2693217"><ele>689.0</ele><time>2026-04-07T08:00:15.996Z</time></trkpt><trkpt lat="45.7004967" lon="11.2691617"><ele>689.0</ele><time>2026-04-07T08:00:16.996Z</time></trkpt><trkpt lat="45.7004683" lon="11.2690117"><ele>690.6666666666666</ele><time>2026-04-07T08:00:17.996Z</time></trkpt><trkpt lat="45.70044" lon="11.2688767"><ele>692.3333333333333</ele><time>2026-04-07T08:00:18.996Z</time></trkpt><trkpt lat="45.700415" lon="11.2687633"><ele>694.0</ele><time>2026-04-07T08:00:19.996Z</time></trkpt><trkpt lat="45.7003883" lon="11.2686567"><ele>695.6666666666666</ele><time>2026-04-07T08:00:20.996Z</time></trkpt><trkpt lat="45.70038" lon="11.26853"><ele>697.3333333333334</ele><time>2026-04-07T08:00:21.996Z</time></trkpt><trkpt lat="45.7003633" lon="11.268405"><ele>699.0</ele><time>2026-04-07T08:00:22.996Z</time></trkpt><trkpt lat="45.7003567" lon="11.2682867"><ele>699.0</ele><time>2026-04-07T08:00:23.995Z</time></trkpt><trkpt lat="45.700355" lon="11.268175"><ele>699.0</ele><time>2026-04-07T08:00:24.996Z</time></trkpt><trkpt lat="45.7003633" lon="11.26808"><ele>699.0</ele><time>2026-04-07T08:00:25.996Z</time></trkpt><trkpt lat="45.7003783" lon="11.2679817"><ele>699.0</ele><time>2026-04-07T08:00:26.995Z</time></trkpt><trkpt lat="45.7004067" lon="11.26788"><ele>699.0</ele><time>2026-04-07T08:00:27.995Z</time></trkpt><trkpt lat="45.7004483" lon="11.267775"><ele>699.0</ele><time>2026-04-07T08:00:28.996Z</time></trkpt><trkpt lat="45.7005117" lon="11.26765"><ele>700.75</ele><time>2026-04-07T08:00:29.996Z</time></trkpt><trkpt lat="45.7005667" lon="11.2674767"><ele>702.5</ele><time>2026-04-07T08:00:30.996Z</time></trkpt><trkpt lat="45.7006217" lon="11.2673167"><ele>704.25</ele><time>2026-04-07T08:00:31.996Z</time></trkpt><trkpt lat="45.7006667" lon="11.26716"><ele>706.0</ele><time>2026-04-07T08:00:32.996Z</time></trkpt><trkpt lat="45.7007033" lon="11.2670017"><ele>706.0</ele><time>2026-04-07T08:00:33.996Z</time></trkpt><trkpt lat="45.7007367" lon="11.2668767"><ele>706.0</ele><time>2026-04-07T08:00:34.995Z</time></trkpt><trkpt lat="45.70077" lon="11.2667683"><ele>706.0</ele><time>2026-04-07T08:00:35.996Z</time></trkpt><trkpt lat="45.7008083" lon="11.2666917"><ele>706.0</ele><time>2026-04-07T08:00:36.996Z</time></trkpt><trkpt lat="45.70086" lon="11.2666383"><ele>706.0</ele><time>2026-04-07T08:00:37.996Z</time></trkpt><trkpt lat="45.700925" lon="11.2665833"><ele>706.0</ele><time>2026-04-07T08:00:38.996Z</time></trkpt><trkpt lat="45.7009967" lon="11.2665267"><ele>706.0</ele><time>2026-04-07T08:00:39.996Z</time></trkpt><trkpt lat="45.7010683" lon="11.2664567"><ele>706.0</ele><time>2026-04-07T08:00:40.995Z</time></trkpt><trkpt lat="45.7011267" lon="11.2663733"><ele>706.0</ele><time>2026-04-07T08:00:41.995Z</time></trkpt><trkpt lat="45.70119" lon="11.2662817"><ele>706.0</ele><time>2026-04-07T08:00:42.995Z</time></trkpt><trkpt lat="45.701245" lon="11.26621"><ele>706.0</ele><time>2026-04-07T08:00:43.996Z</time></trkpt><trkpt lat="45.7013433" lon="11.2661467"><ele>706.0</ele><time>2026-04-07T08:00:45.995Z</time></trkpt><trkpt lat="45.7014583" lon="11.2662167"><ele>707.1999999999999</ele><time>2026-04-07T08:00:47.995Z</time></trkpt><trkpt lat="45.7015167" lon="11.26628"><ele>708.4</ele><time>2026-04-07T08:00:48.995Z</time></trkpt><trkpt lat="45.7015867" lon="11.2663467"><ele>709.6</ele><time>2026-04-07T08:00:49.996Z</time></trkpt><trkpt lat="45.7016483" lon="11.2664"><ele>710.8</ele><time>2026-04-07T08:00:50.996Z</time></trkpt><trkpt lat="45.70178" lon="11.2664267"><ele>712.0</ele><time>2026-04-07T08:00:52.996Z</time></trkpt><trkpt lat="45.701875" lon="11.266395"><ele>714.25</ele><time>2026-04-07T08:00:53.996Z</time></trkpt><trkpt lat="45.701985" lon="11.266325"><ele>716.5</ele><time>2026-04-07T08:00:54.996Z</time></trkpt><trkpt lat="45.7020917" lon="11.26623"><ele>718.75</ele><time>2026-04-07T08:00:55.996Z</time></trkpt><trkpt lat="45.7021917" lon="11.2661233"><ele>721.0</ele><time>2026-04-07T08:00:56.996Z</time></trkpt><trkpt lat="45.7022783" lon="11.2660317"><ele>721.0</ele><time>2026-04-07T08:00:57.995Z</time></trkpt><trkpt lat="45.7023633" lon="11.2659517"><ele>721.0</ele><time>2026-04-07T08:00:58.995Z</time></trkpt><trkpt lat="45.7024433" lon="11.2658733"><ele>721.0</ele><time>2026-04-07T08:00:59.996Z</time></trkpt><trkpt lat="45.7025233" lon="11.2657767"><ele>721.0</ele><time>2026-04-07T08:01:00.996Z</time></trkpt><trkpt lat="45.702605" lon="11.2656667"><ele>721.0</ele><time>2026-04-07T08:01:01.995Z</time></trkpt><trkpt lat="45.702695" lon="11.26555"><ele>723.0</ele><time>2026-04-07T08:01:02.996Z</time></trkpt><trkpt lat="45.70279" lon="11.2654583"><ele>725.0</ele><time>2026-04-07T08:01:03.995Z</time></trkpt><trkpt lat="45.70288" lon="11.2653833"><ele>727.0</ele><time>2026-04-07T08:01:04.995Z</time></trkpt><trkpt lat="45.702965" lon="11.265335"><ele>729.0</ele><time>2026-04-07T08:01:05.996Z</time></trkpt><trkpt lat="45.703035" lon="11.2652717"><ele>731.0</ele><time>2026-04-07T08:01:06.995Z</time></trkpt><trkpt lat="45.7031083" lon="11.2651933"><ele>731.0</ele><time>2026-04-07T08:01:07.995Z</time></trkpt><trkpt lat="45.7032" lon="11.26513"><ele>731.0</ele><time>2026-04-07T08:01:08.995Z</time></trkpt><trkpt lat="45.7032933" lon="11.2650983"><ele>731.0</ele><time>2026-04-07T08:01:09.996Z</time></trkpt><trkpt lat="45.7033983" lon="11.2650767"><ele>731.0</ele><time>2026-04-07T08:01:10.996Z</time></trkpt><trkpt lat="45.70352" lon="11.26506"><ele>731.0</ele><time>2026-04-07T08:01:11.995Z</time></trkpt><trkpt lat="45.7036283" lon="11.2650367"><ele>733.0</ele><time>2026-04-07T08:01:12.996Z</time></trkpt><trkpt lat="45.70372" lon="11.2650133"><ele>735.0</ele><time>2026-04-07T08:01:13.996Z</time></trkpt><trkpt lat="45.70381" lon="11.26501"><ele>737.0</ele><time>2026-04-07T08:01:14.995Z</time></trkpt><trkpt lat="45.7039083" lon="11.2650083"><ele>739.0</ele><time>2026-04-07T08:01:15.996Z</time></trkpt><trkpt lat="45.704015" lon="11.2649867"><ele>741.0</ele><time>2026-04-07T08:01:16.995Z</time></trkpt><trkpt lat="45.7041083" lon="11.2649967"><ele>741.0</ele><time>2026-04-07T08:01:17.996Z</time></trkpt><trkpt lat="45.704195" lon="11.26501"><ele>741.0</ele><time>2026-04-07T08:01:18.996Z</time></trkpt><trkpt lat="45.704285" lon="11.2650083"><ele>741.0</ele><time>2026-04-07T08:01:19.995Z</time></trkpt><trkpt lat="45.7043817" lon="11.2649867"><ele>741.0</ele><time>2026-04-07T08:01:20.996Z</time></trkpt><trkpt lat="45.7044617" lon="11.26494"><ele>741.0</ele><time>2026-04-07T08:01:21.996Z</time></trkpt><trkpt lat="45.704545" lon="11.2648867"><ele>740.6666666666666</ele><time>2026-04-07T08:01:22.996Z</time></trkpt><trkpt lat="45.7046283" lon="11.2648017"><ele>740.3333333333334</ele><time>2026-04-07T08:01:23.996Z</time></trkpt><trkpt lat="45.7046733" lon="11.26473"><ele>740.0</ele><time>2026-04-07T08:01:24.996Z</time></trkpt><trkpt lat="45.70472" lon="11.2646517"><ele>739.6666666666667</ele><time>2026-04-07T08:01:25.996Z</time></trkpt><trkpt lat="45.7047267" lon="11.2645433"><ele>739.3333333333334</ele><time>2026-04-07T08:01:26.996Z</time></trkpt><trkpt lat="45.7047433" lon="11.2644117"><ele>739.0</ele><time>2026-04-07T08:01:27.995Z</time></trkpt><trkpt lat="45.70478" lon="11.2642817"><ele>739.0</ele><time>2026-04-07T08:01:28.995Z</time></trkpt><trkpt lat="45.7048383" lon="11.26414"><ele>739.0</ele><time>2026-04-07T08:01:29.996Z</time></trkpt><trkpt lat="45.7048733" lon="11.26399"><ele>739.0</ele><time>2026-04-07T08:01:30.996Z</time></trkpt><trkpt lat="45.7049383" lon="11.263865"><ele>739.0</ele><time>2026-04-07T08:01:31.995Z</time></trkpt><trkpt lat="45.7049867" lon="11.2637633"><ele>739.0</ele><time>2026-04-07T08:01:32.996Z</time></trkpt><trkpt lat="45.7050433" lon="11.26368"><ele>739.6666666666667</ele><time>2026-04-07T08:01:33.996Z</time></trkpt><trkpt lat="45.7051083" lon="11.2636"><ele>740.3333333333334</ele><time>2026-04-07T08:01:34.996Z</time></trkpt><trkpt lat="45.705185" lon="11.26351"><ele>741.0</ele><time>2026-04-07T08:01:35.996Z</time></trkpt><trkpt lat="45.7052667" lon="11.263435"><ele>741.6666666666666</ele><time>2026-04-07T08:01:36.995Z</time></trkpt><trkpt lat="45.7053283" lon="11.2633817"><ele>742.3333333333333</ele><time>2026-04-07T08:01:37.996Z</time></trkpt><trkpt lat="45.7053717" lon="11.2633083"><ele>743.0</ele><time>2026-04-07T08:01:38.995Z</time></trkpt><trkpt lat="45.7054067" lon="11.263155"><ele>743.5999999999999</ele><time>2026-04-07T08:01:40.995Z</time></trkpt><trkpt lat="45.7054183" lon="11.2630133"><ele>744.1999999999999</ele><time>2026-04-07T08:01:42.996Z</time></trkpt><trkpt lat="45.70545" lon="11.2628917"><ele>744.8</ele><time>2026-04-07T08:01:44.996Z</time></trkpt><trkpt lat="45.705545" lon="11.262775"><ele>745.4</ele><time>2026-04-07T08:01:46.995Z</time></trkpt><trkpt lat="45.7056117" lon="11.2627033"><ele>746.0</ele><time>2026-04-07T08:01:47.996Z</time></trkpt><trkpt lat="45.7056817" lon="11.262635"><ele>746.0</ele><time>2026-04-07T08:01:48.995Z</time></trkpt><trkpt lat="45.7057517" lon="11.2625667"><ele>746.0</ele><time>2026-04-07T08:01:49.995Z</time></trkpt><trkpt lat="45.705815" lon="11.2625067"><ele>746.0</ele><time>2026-04-07T08:01:50.995Z</time></trkpt><trkpt lat="45.7058817" lon="11.262475"><ele>746.0</ele><time>2026-04-07T08:01:51.996Z</time></trkpt><trkpt lat="45.7059467" lon="11.2624383"><ele>746.0</ele><time>2026-04-07T08:01:52.996Z</time></trkpt><trkpt lat="45.7060067" lon="11.262405"><ele>746.0</ele><time>2026-04-07T08:01:53.996Z</time></trkpt><trkpt lat="45.7061217" lon="11.2623683"><ele>745.6666666666666</ele><time>2026-04-07T08:01:55.996Z</time></trkpt><trkpt lat="45.7061917" lon="11.262355"><ele>745.3333333333333</ele><time>2026-04-07T08:01:56.996Z</time></trkpt><trkpt lat="45.7062583" lon="11.2623133"><ele>745.0</ele><time>2026-04-07T08:01:57.996Z</time></trkpt><trkpt lat="45.7063233" lon="11.2622783"><ele>744.6666666666666</ele><time>2026-04-07T08:01:58.996Z</time></trkpt><trkpt lat="45.706385" lon="11.2622383"><ele>744.3333333333334</ele><time>2026-04-07T08:01:59.995Z</time></trkpt><trkpt lat="45.7064533" lon="11.2621767"><ele>744.0</ele><time>2026-04-07T08:02:00.996Z</time></trkpt><trkpt lat="45.7065383" lon="11.2620783"><ele>744.0</ele><time>2026-04-07T08:02:01.996Z</time></trkpt><trkpt lat="45.70662" lon="11.2619783"><ele>744.0</ele><time>2026-04-07T08:02:02.996Z</time></trkpt><trkpt lat="45.706705" lon="11.2618917"><ele>744.0</ele><time>2026-04-07T08:02:03.996Z</time></trkpt><trkpt lat="45.7068017" lon="11.261815"><ele>744.0</ele><time>2026-04-07T08:02:04.996Z</time></trkpt><trkpt lat="45.7068983" lon="11.2617583"><ele>744.0</ele><time>2026-04-07T08:02:05.995Z</time></trkpt><trkpt lat="45.706985" lon="11.2617233"><ele>741.3333333333334</ele><time>2026-04-07T08:02:06.996Z</time></trkpt><trkpt lat="45.707075" lon="11.2616817"><ele>738.6666666666666</ele><time>2026-04-07T08:02:07.996Z</time></trkpt><trkpt lat="45.70715" lon="11.26165"><ele>736.0</ele><time>2026-04-07T08:02:08.996Z</time></trkpt><trkpt lat="45.7072217" lon="11.26161"><ele>733.3333333333333</ele><time>2026-04-07T08:02:09.996Z</time></trkpt><trkpt lat="45.7072917" lon="11.2615733"><ele>730.6666666666666</ele><time>2026-04-07T08:02:10.995Z</time></trkpt><trkpt lat="45.707365" lon="11.261535"><ele>728.0</ele><time>2026-04-07T08:02:11.996Z</time></trkpt><trkpt lat="45.7074433" lon="11.261485"><ele>728.0</ele><time>2026-04-07T08:02:12.996Z</time></trkpt><trkpt lat="45.70753" lon="11.2614217"><ele>728.0</ele><time>2026-04-07T08:02:13.996Z</time></trkpt><trkpt lat="45.70763" lon="11.2613383"><ele>728.0</ele><time>2026-04-07T08:02:14.996Z</time></trkpt><trkpt lat="45.707715" lon="11.2612533"><ele>728.0</ele><time>2026-04-07T08:02:15.995Z</time></trkpt><trkpt lat="45.7077967" lon="11.2611617"><ele>728.0</ele><time>2026-04-07T08:02:16.995Z</time></trkpt><trkpt lat="45.7078683" lon="11.2611017"><ele>728.0</ele><time>2026-04-07T08:02:17.996Z</time></trkpt><trkpt lat="45.70795" lon="11.2610667"><ele>728.0</ele><time>2026-04-07T08:02:18.995Z</time></trkpt><trkpt lat="45.7080367" lon="11.261035"><ele>728.0</ele><time>2026-04-07T08:02:19.996Z</time></trkpt><trkpt lat="45.7081267" lon="11.2610017"><ele>728.0</ele><time>2026-04-07T08:02:20.996Z</time></trkpt><trkpt lat="45.70822" lon="11.2609517"><ele>728.0</ele><time>2026-04-07T08:02:21.995Z</time></trkpt><trkpt lat="45.7083083" lon="11.2608633"><ele>728.0</ele><time>2026-04-07T08:02:22.994Z</time></trkpt><trkpt lat="45.7084017" lon="11.2607767"><ele>728.0</ele><time>2026-04-07T08:02:23.995Z</time></trkpt><trkpt lat="45.7084783" lon="11.2607017"><ele>728.0</ele><time>2026-04-07T08:02:24.995Z</time></trkpt><trkpt lat="45.7085433" lon="11.2606517"><ele>728.0</ele><time>2026-04-07T08:02:25.994Z</time></trkpt><trkpt lat="45.7086533" lon="11.260575"><ele>728.0</ele><time>2026-04-07T08:02:27.995Z</time></trkpt><trkpt lat="45.708725" lon="11.2604817"><ele>727.3333333333333</ele><time>2026-04-07T08:02:29.995Z</time></trkpt><trkpt lat="45.70877" lon="11.2604017"><ele>726.6666666666666</ele><time>2026-04-07T08:02:31.994Z</time></trkpt><trkpt lat="45.7088667" lon="11.2603583"><ele>726.0</ele><time>2026-04-07T08:02:35.995Z</time></trkpt><trkpt lat="45.7089767" lon="11.2602883"><ele>725.3333333333334</ele><time>2026-04-07T08:02:37.995Z</time></trkpt><trkpt lat="45.7090317" lon="11.2602367"><ele>724.6666666666667</ele><time>2026-04-07T08:02:38.994Z</time></trkpt><trkpt lat="45.7090917" lon="11.2601783"><ele>724.0</ele><time>2026-04-07T08:02:39.995Z</time></trkpt><trkpt lat="45.7091517" lon="11.2601217"><ele>724.0</ele><time>2026-04-07T08:02:40.995Z</time></trkpt><trkpt lat="45.709205" lon="11.2600683"><ele>724.0</ele><time>2026-04-07T08:02:41.995Z</time></trkpt><trkpt lat="45.7092583" lon="11.2600167"><ele>724.0</ele><time>2026-04-07T08:02:42.995Z</time></trkpt><trkpt lat="45.70934" lon="11.2599717"><ele>724.0</ele><time>2026-04-07T08:02:43.994Z</time></trkpt><trkpt lat="45.709415" lon="11.2599217"><ele>724.0</ele><time>2026-04-07T08:02:44.995Z</time></trkpt><trkpt lat="45.7094967" lon="11.25987"><ele>724.0</ele><time>2026-04-07T08:02:45.994Z</time></trkpt><trkpt lat="45.7095783" lon="11.2598117"><ele>723.3333333333334</ele><time>2026-04-07T08:02:46.995Z</time></trkpt><trkpt lat="45.709655" lon="11.2597283"><ele>722.6666666666667</ele><time>2026-04-07T08:02:47.994Z</time></trkpt><trkpt lat="45.70972" lon="11.259665"><ele>722.0</ele><time>2026-04-07T08:02:48.995Z</time></trkpt><trkpt lat="45.7097817" lon="11.25959"><ele>721.3333333333334</ele><time>2026-04-07T08:02:49.995Z</time></trkpt><trkpt lat="45.7098433" lon="11.2595217"><ele>720.6666666666666</ele><time>2026-04-07T08:02:50.995Z</time></trkpt><trkpt lat="45.7099117" lon="11.259445"><ele>720.0</ele><time>2026-04-07T08:02:51.995Z</time></trkpt><trkpt lat="45.7099733" lon="11.2593733"><ele>720.0</ele><time>2026-04-07T08:02:52.994Z</time></trkpt><trkpt lat="45.7100317" lon="11.2592967"><ele>720.0</ele><time>2026-04-07T08:02:53.994Z</time></trkpt><trkpt lat="45.7100817" lon="11.259225"><ele>720.0</ele><time>2026-04-07T08:02:54.995Z</time></trkpt><trkpt lat="45.7101233" lon="11.2591517"><ele>720.0</ele><time>2026-04-07T08:02:55.994Z</time></trkpt><trkpt lat="45.7102067" lon="11.2590433"><ele>720.0</ele><time>2026-04-07T08:02:57.994Z</time></trkpt><trkpt lat="45.710265" lon="11.2589833"><ele>720.0</ele><time>2026-04-07T08:02:58.994Z</time></trkpt><trkpt lat="45.710335" lon="11.2589283"><ele>720.0</ele><time>2026-04-07T08:02:59.995Z</time></trkpt><trkpt lat="45.7103983" lon="11.258875"><ele>720.0</ele><time>2026-04-07T08:03:00.994Z</time></trkpt><trkpt lat="45.710455" lon="11.25879"><ele>720.0</ele><time>2026-04-07T08:03:02.995Z</time></trkpt><trkpt lat="45.7105383" lon="11.2586683"><ele>720.0</ele><time>2026-04-07T08:03:14.995Z</time></trkpt><trkpt lat="45.7105983" lon="11.2586283"><ele>720.0</ele><time>2026-04-07T08:03:15.995Z</time></trkpt><trkpt lat="45.7106817" lon="11.2586083"><ele>720.0</ele><time>2026-04-07T08:03:16.995Z</time></trkpt><trkpt lat="45.7107833" lon="11.2585883"><ele>720.0</ele><time>2026-04-07T08:03:17.994Z</time></trkpt><trkpt lat="45.7108867" lon="11.2585717"><ele>720.0</ele><time>2026-04-07T08:03:18.994Z</time></trkpt><trkpt lat="45.7109917" lon="11.2585467"><ele>720.0</ele><time>2026-04-07T08:03:19.995Z</time></trkpt><trkpt lat="45.71111" lon="11.2585167"><ele>720.0</ele><time>2026-04-07T08:03:20.995Z</time></trkpt><trkpt lat="45.71122" lon="11.2584633"><ele>720.0</ele><time>2026-04-07T08:03:21.994Z</time></trkpt><trkpt lat="45.711335" lon="11.2584033"><ele>723.6</ele><time>2026-04-07T08:03:22.994Z</time></trkpt><trkpt lat="45.7114467" lon="11.2583517"><ele>727.2</ele><time>2026-04-07T08:03:23.994Z</time></trkpt><trkpt lat="45.711545" lon="11.2582733"><ele>730.8</ele><time>2026-04-07T08:03:24.994Z</time></trkpt><trkpt lat="45.7116433" lon="11.2581983"><ele>734.4</ele><time>2026-04-07T08:03:25.995Z</time></trkpt><trkpt lat="45.711735" lon="11.2581217"><ele>738.0</ele><time>2026-04-07T08:03:26.994Z</time></trkpt><trkpt lat="45.7118283" lon="11.258045"><ele>744.5</ele><time>2026-04-07T08:03:27.995Z</time></trkpt><trkpt lat="45.711925" lon="11.2579517"><ele>751.0</ele><time>2026-04-07T08:03:28.995Z</time></trkpt><trkpt lat="45.7120333" lon="11.25787"><ele>757.5</ele><time>2026-04-07T08:03:29.995Z</time></trkpt><trkpt lat="45.712145" lon="11.257805"><ele>764.0</ele><time>2026-04-07T08:03:30.995Z</time></trkpt><trkpt lat="45.7122383" lon="11.2577483"><ele>764.0</ele><time>2026-04-07T08:03:31.994Z</time></trkpt><trkpt lat="45.7123067" lon="11.2576833"><ele>764.0</ele><time>2026-04-07T08:03:32.995Z</time></trkpt><trkpt lat="45.7123633" lon="11.25761"><ele>764.0</ele><time>2026-04-07T08:03:33.995Z</time></trkpt><trkpt lat="45.7124067" lon="11.2575067"><ele>764.0</ele><time>2026-04-07T08:03:34.994Z</time></trkpt><trkpt lat="45.71243" lon="11.2573783"><ele>764.0</ele><time>2026-04-07T08:03:35.994Z</time></trkpt><trkpt lat="45.712455" lon="11.2572517"><ele>764.0</ele><time>2026-04-07T08:03:36.995Z</time></trkpt><trkpt lat="45.7124933" lon="11.257115"><ele>763.0</ele><time>2026-04-07T08:03:37.995Z</time></trkpt><trkpt lat="45.71256" lon="11.2569667"><ele>762.0</ele><time>2026-04-07T08:03:38.994Z</time></trkpt><trkpt lat="45.71264" lon="11.256815"><ele>761.0</ele><time>2026-04-07T08:03:39.995Z</time></trkpt><trkpt lat="45.7127217" lon="11.2566917"><ele>760.0</ele><time>2026-04-07T08:03:40.995Z</time></trkpt><trkpt lat="45.7127967" lon="11.25658"><ele>763.1666666666667</ele><time>2026-04-07T08:03:41.994Z</time></trkpt><trkpt lat="45.7128633" lon="11.2564583"><ele>766.3333333333334</ele><time>2026-04-07T08:03:42.994Z</time></trkpt><trkpt lat="45.7129183" lon="11.2563483"><ele>769.5</ele><time>2026-04-07T08:03:43.995Z</time></trkpt><trkpt lat="45.7129767" lon="11.2562633"><ele>772.6666666666667</ele><time>2026-04-07T08:03:44.994Z</time></trkpt><trkpt lat="45.713025" lon="11.2561733"><ele>775.8333333333334</ele><time>2026-04-07T08:03:45.994Z</time></trkpt><trkpt lat="45.7130667" lon="11.2560717"><ele>779.0</ele><time>2026-04-07T08:03:46.995Z</time></trkpt><trkpt lat="45.71311" lon="11.2559667"><ele>779.0000000000001</ele><time>2026-04-07T08:03:47.995Z</time></trkpt><trkpt lat="45.71315" lon="11.255855"><ele>779.0</ele><time>2026-04-07T08:03:48.995Z</time></trkpt><trkpt lat="45.7131883" lon="11.255745"><ele>779.0</ele><time>2026-04-07T08:03:49.995Z</time></trkpt><trkpt lat="45.71321" lon="11.2556383"><ele>779.0</ele><time>2026-04-07T08:03:50.994Z</time></trkpt><trkpt lat="45.7132233" lon="11.2555333"><ele>779.0000000000001</ele><time>2026-04-07T08:03:51.994Z</time></trkpt><trkpt lat="45.7132383" lon="11.2554367"><ele>779.0</ele><time>2026-04-07T08:03:52.995Z</time></trkpt><trkpt lat="45.713255" lon="11.2553417"><ele>778.6666666666667</ele><time>2026-04-07T08:03:53.994Z</time></trkpt><trkpt lat="45.7132833" lon="11.2552267"><ele>778.3333333333334</ele><time>2026-04-07T08:03:54.994Z</time></trkpt><trkpt lat="45.7133083" lon="11.2551017"><ele>778.0</ele><time>2026-04-07T08:03:55.994Z</time></trkpt><trkpt lat="45.71333" lon="11.2550033"><ele>777.6666666666667</ele><time>2026-04-07T08:03:56.995Z</time></trkpt><trkpt lat="45.7133367" lon="11.2549017"><ele>777.3333333333334</ele><time>2026-04-07T08:03:57.995Z</time></trkpt><trkpt lat="45.7133667" lon="11.2547517"><ele>777.0</ele><time>2026-04-07T08:03:59.995Z</time></trkpt><trkpt lat="45.7134117" lon="11.2546767"><ele>775.1666666666666</ele><time>2026-04-07T08:04:00.995Z</time></trkpt><trkpt lat="45.7134617" lon="11.2545933"><ele>773.3333333333334</ele><time>2026-04-07T08:04:01.994Z</time></trkpt><trkpt lat="45.713505" lon="11.254505"><ele>771.5</ele><time>2026-04-07T08:04:02.995Z</time></trkpt><trkpt lat="45.7135433" lon="11.254405"><ele>769.6666666666667</ele><time>2026-04-07T08:04:03.995Z</time></trkpt><trkpt lat="45.7135733" lon="11.2542917"><ele>767.8333333333334</ele><time>2026-04-07T08:04:04.995Z</time></trkpt><trkpt lat="45.713605" lon="11.2541833"><ele>766.0</ele><time>2026-04-07T08:04:05.994Z</time></trkpt><trkpt lat="45.7136317" lon="11.25407"><ele>766.6666666666667</ele><time>2026-04-07T08:04:06.995Z</time></trkpt><trkpt lat="45.71366" lon="11.253955"><ele>767.3333333333334</ele><time>2026-04-07T08:04:07.994Z</time></trkpt><trkpt lat="45.7136933" lon="11.25383"><ele>768.0</ele><time>2026-04-07T08:04:08.995Z</time></trkpt><trkpt lat="45.713725" lon="11.2537267"><ele>768.6666666666667</ele><time>2026-04-07T08:04:09.995Z</time></trkpt><trkpt lat="45.7137683" lon="11.2536"><ele>769.3333333333334</ele><time>2026-04-07T08:04:11.995Z</time></trkpt><trkpt lat="45.7137933" lon="11.2535117"><ele>770.0</ele><time>2026-04-07T08:04:14.995Z</time></trkpt><trkpt lat="45.71373" lon="11.2535567"><ele>770.0000000000001</ele><time>2026-04-07T08:05:05.995Z</time></trkpt><trkpt lat="45.7136717" lon="11.2536833"><ele>770.0</ele><time>2026-04-07T08:05:07.995Z</time></trkpt><trkpt lat="45.713655" lon="11.2537817"><ele>770.0</ele><time>2026-04-07T08:05:08.995Z</time></trkpt><trkpt lat="45.7136317" lon="11.2538867"><ele>770.0</ele><time>2026-04-07T08:05:09.994Z</time></trkpt><trkpt lat="45.7136083" lon="11.2540017"><ele>770.0000000000001</ele><time>2026-04-07T08:05:10.995Z</time></trkpt><trkpt lat="45.7135833" lon="11.2541067"><ele>770.0</ele><time>2026-04-07T08:05:11.995Z</time></trkpt><trkpt lat="45.7135433" lon="11.254215"><ele>769.3333333333334</ele><time>2026-04-07T08:05:12.995Z</time></trkpt><trkpt lat="45.7135033" lon="11.2543117"><ele>768.6666666666667</ele><time>2026-04-07T08:05:13.995Z</time></trkpt><trkpt lat="45.71346" lon="11.2544033"><ele>768.0</ele><time>2026-04-07T08:05:14.995Z</time></trkpt><trkpt lat="45.7134067" lon="11.2544967"><ele>767.3333333333334</ele><time>2026-04-07T08:05:15.995Z</time></trkpt><trkpt lat="45.713355" lon="11.2545783"><ele>766.6666666666667</ele><time>2026-04-07T08:05:16.995Z</time></trkpt><trkpt lat="45.7133133" lon="11.25465"><ele>766.0</ele><time>2026-04-07T08:05:17.995Z</time></trkpt><trkpt lat="45.7132517" lon="11.25482"><ele>767.8333333333334</ele><time>2026-04-07T08:05:19.994Z</time></trkpt><trkpt lat="45.7132283" lon="11.2549317"><ele>769.6666666666667</ele><time>2026-04-07T08:05:20.995Z</time></trkpt><trkpt lat="45.7132067" lon="11.255055"><ele>771.5</ele><time>2026-04-07T08:05:21.995Z</time></trkpt><trkpt lat="45.7131817" lon="11.2551767"><ele>773.3333333333334</ele><time>2026-04-07T08:05:22.994Z</time></trkpt><trkpt lat="45.713165" lon="11.25529"><ele>775.1666666666666</ele><time>2026-04-07T08:05:23.995Z</time></trkpt><trkpt lat="45.71315" lon="11.2554017"><ele>777.0</ele><time>2026-04-07T08:05:24.995Z</time></trkpt><trkpt lat="45.7131383" lon="11.255505"><ele>777.0</ele><time>2026-04-07T08:05:25.994Z</time></trkpt><trkpt lat="45.7131217" lon="11.2555967"><ele>777.0</ele><time>2026-04-07T08:05:26.994Z</time></trkpt><trkpt lat="45.7131" lon="11.2556867"><ele>777.0</ele><time>2026-04-07T08:05:27.995Z</time></trkpt><trkpt lat="45.71307" lon="11.255775"><ele>777.0</ele><time>2026-04-07T08:05:28.995Z</time></trkpt><trkpt lat="45.713045" lon="11.2558583"><ele>777.0</ele><time>2026-04-07T08:05:29.995Z</time></trkpt><trkpt lat="45.7129983" lon="11.2560067"><ele>777.0</ele><time>2026-04-07T08:05:31.994Z</time></trkpt><trkpt lat="45.71294" lon="11.2561417"><ele>777.4000000000001</ele><time>2026-04-07T08:05:33.995Z</time></trkpt><trkpt lat="45.7128633" lon="11.25627"><ele>777.8000000000001</ele><time>2026-04-07T08:05:35.995Z</time></trkpt><trkpt lat="45.712815" lon="11.2563783"><ele>778.2</ele><time>2026-04-07T08:05:37.994Z</time></trkpt><trkpt lat="45.7128383" lon="11.2562917"><ele>778.6</ele><time>2026-04-07T08:05:54.994Z</time></trkpt><trkpt lat="45.7128567" lon="11.256125"><ele>779.0</ele><time>2026-04-07T08:05:56.994Z</time></trkpt><trkpt lat="45.712865" lon="11.2560183"><ele>779.0000000000001</ele><time>2026-04-07T08:05:57.994Z</time></trkpt><trkpt lat="45.7128683" lon="11.255925"><ele>779.0</ele><time>2026-04-07T08:05:58.994Z</time></trkpt><trkpt lat="45.7129083" lon="11.2557483"><ele>779.0</ele><time>2026-04-07T08:06:00.994Z</time></trkpt><trkpt lat="45.7129283" lon="11.25565"><ele>779.0</ele><time>2026-04-07T08:06:01.995Z</time></trkpt><trkpt lat="45.712925" lon="11.2555567"><ele>779.0000000000001</ele><time>2026-04-07T08:06:02.995Z</time></trkpt><trkpt lat="45.7129167" lon="11.2554667"><ele>779.0</ele><time>2026-04-07T08:06:03.995Z</time></trkpt><trkpt lat="45.7129217" lon="11.25533"><ele>778.6</ele><time>2026-04-07T08:06:05.995Z</time></trkpt><trkpt lat="45.7129767" lon="11.2551817"><ele>778.2</ele><time>2026-04-07T08:06:07.995Z</time></trkpt><trkpt lat="45.713025" lon="11.2551017"><ele>777.8000000000001</ele><time>2026-04-07T08:06:08.995Z</time></trkpt><trkpt lat="45.7130633" lon="11.2550183"><ele>777.4000000000001</ele><time>2026-04-07T08:06:09.995Z</time></trkpt><trkpt lat="45.7130933" lon="11.254865"><ele>777.0</ele><time>2026-04-07T08:06:11.995Z</time></trkpt><trkpt lat="45.7130983" lon="11.2547033"><ele>774.8</ele><time>2026-04-07T08:06:13.994Z</time></trkpt><trkpt lat="45.713125" lon="11.2545483"><ele>772.6</ele><time>2026-04-07T08:06:15.995Z</time></trkpt><trkpt lat="45.7131983" lon="11.2544083"><ele>770.4</ele><time>2026-04-07T08:06:17.995Z</time></trkpt><trkpt lat="45.7132567" lon="11.2543183"><ele>768.1999999999999</ele><time>2026-04-07T08:06:18.995Z</time></trkpt><trkpt lat="45.7133217" lon="11.2542033"><ele>766.0</ele><time>2026-04-07T08:06:19.994Z</time></trkpt><trkpt lat="45.7133783" lon="11.25408"><ele>766.0</ele><time>2026-04-07T08:06:20.995Z</time></trkpt><trkpt lat="45.7134233" lon="11.2539617"><ele>766.0</ele><time>2026-04-07T08:06:21.994Z</time></trkpt><trkpt lat="45.7134567" lon="11.25383"><ele>766.0</ele><time>2026-04-07T08:06:22.995Z</time></trkpt><trkpt lat="45.7134717" lon="11.2536933"><ele>766.0</ele><time>2026-04-07T08:06:23.995Z</time></trkpt><trkpt lat="45.7134733" lon="11.25356"><ele>766.0</ele><time>2026-04-07T08:06:24.995Z</time></trkpt><trkpt lat="45.7134567" lon="11.2534267"><ele>764.5999999999999</ele><time>2026-04-07T08:06:25.995Z</time></trkpt><trkpt lat="45.713435" lon="11.253305"><ele>763.2</ele><time>2026-04-07T08:06:26.995Z</time></trkpt><trkpt lat="45.7134133" lon="11.253205"><ele>761.8</ele><time>2026-04-07T08:06:27.995Z</time></trkpt><trkpt lat="45.7133867" lon="11.2530383"><ele>760.4000000000001</ele><time>2026-04-07T08:06:29.995Z</time></trkpt><trkpt lat="45.7133617" lon="11.252905"><ele>759.0</ele><time>2026-04-07T08:06:31.995Z</time></trkpt><trkpt lat="45.7133067" lon="11.252815"><ele>757.2</ele><time>2026-04-07T08:06:34.994Z</time></trkpt><trkpt lat="45.7133233" lon="11.2526617"><ele>755.4000000000001</ele><time>2026-04-07T08:06:37.993Z</time></trkpt><trkpt lat="45.7133667" lon="11.252505"><ele>753.6</ele><time>2026-04-07T08:06:39.993Z</time></trkpt><trkpt lat="45.713395" lon="11.2524167"><ele>751.8</ele><time>2026-04-07T08:06:40.993Z</time></trkpt><trkpt lat="45.7134217" lon="11.25233"><ele>750.0</ele><time>2026-04-07T08:06:41.994Z</time></trkpt><trkpt lat="45.7134667" lon="11.2521433"><ele>748.3333333333334</ele><time>2026-04-07T08:06:43.994Z</time></trkpt><trkpt lat="45.7134867" lon="11.2520367"><ele>746.6666666666666</ele><time>2026-04-07T08:06:44.994Z</time></trkpt><trkpt lat="45.7135033" lon="11.251925"><ele>745.0</ele><time>2026-04-07T08:06:45.993Z</time></trkpt><trkpt lat="45.7135167" lon="11.2518183"><ele>743.3333333333333</ele><time>2026-04-07T08:06:46.994Z</time></trkpt><trkpt lat="45.7135333" lon="11.2517167"><ele>741.6666666666666</ele><time>2026-04-07T08:06:47.993Z</time></trkpt><trkpt lat="45.7135467" lon="11.2516283"><ele>740.0</ele><time>2026-04-07T08:06:48.993Z</time></trkpt><trkpt lat="45.7135717" lon="11.25149"><ele>743.5</ele><time>2026-04-07T08:06:50.994Z</time></trkpt><trkpt lat="45.7135967" lon="11.2513933"><ele>747.0</ele><time>2026-04-07T08:06:52.994Z</time></trkpt><trkpt lat="45.71363" lon="11.251315"><ele>750.5</ele><time>2026-04-07T08:06:54.994Z</time></trkpt><trkpt lat="45.7136617" lon="11.251235"><ele>754.0</ele><time>2026-04-07T08:06:56.993Z</time></trkpt><trkpt lat="45.7136967" lon="11.251155"><ele>757.5</ele><time>2026-04-07T08:06:59.994Z</time></trkpt><trkpt lat="45.7137383" lon="11.2510067"><ele>761.0</ele><time>2026-04-07T08:07:07.994Z</time></trkpt><trkpt lat="45.7137917" lon="11.250915"><ele>761.0</ele><time>2026-04-07T08:07:09.994Z</time></trkpt><trkpt lat="45.7138417" lon="11.2508183"><ele>761.0</ele><time>2026-04-07T08:07:11.994Z</time></trkpt><trkpt lat="45.7138967" lon="11.25069"><ele>761.0</ele><time>2026-04-07T08:07:13.993Z</time></trkpt><trkpt lat="45.7139567" lon="11.25056"><ele>761.0</ele><time>2026-04-07T08:07:15.994Z</time></trkpt><trkpt lat="45.7140133" lon="11.2504533"><ele>761.0</ele><time>2026-04-07T08:07:17.994Z</time></trkpt><trkpt lat="45.7140683" lon="11.25032"><ele>758.4</ele><time>2026-04-07T08:07:19.994Z</time></trkpt><trkpt lat="45.7141433" lon="11.250165"><ele>755.8</ele><time>2026-04-07T08:07:21.994Z</time></trkpt><trkpt lat="45.7142217" lon="11.25005"><ele>753.1999999999999</ele><time>2026-04-07T08:07:23.994Z</time></trkpt><trkpt lat="45.7143017" lon="11.2499717"><ele>750.5999999999999</ele><time>2026-04-07T08:07:25.993Z</time></trkpt><trkpt lat="45.71438" lon="11.249895"><ele>748.0</ele><time>2026-04-07T08:07:27.994Z</time></trkpt><trkpt lat="45.714445" lon="11.24978"><ele>745.1666666666667</ele><time>2026-04-07T08:07:29.994Z</time></trkpt><trkpt lat="45.7144717" lon="11.24968"><ele>742.3333333333334</ele><time>2026-04-07T08:07:30.994Z</time></trkpt><trkpt lat="45.7144917" lon="11.249565"><ele>739.5</ele><time>2026-04-07T08:07:31.993Z</time></trkpt><trkpt lat="45.7145033" lon="11.2494433"><ele>736.6666666666666</ele><time>2026-04-07T08:07:32.993Z</time></trkpt><trkpt lat="45.7145133" lon="11.24931"><ele>733.8333333333333</ele><time>2026-04-07T08:07:33.994Z</time></trkpt><trkpt lat="45.71453" lon="11.2491817"><ele>731.0</ele><time>2026-04-07T08:07:34.994Z</time></trkpt><trkpt lat="45.7145533" lon="11.2490533"><ele>731.5999999999999</ele><time>2026-04-07T08:07:35.993Z</time></trkpt><trkpt lat="45.7145783" lon="11.2489317"><ele>732.2</ele><time>2026-04-07T08:07:36.993Z</time></trkpt><trkpt lat="45.714605" lon="11.2488067"><ele>732.8</ele><time>2026-04-07T08:07:37.994Z</time></trkpt><trkpt lat="45.714625" lon="11.2486767"><ele>733.4000000000001</ele><time>2026-04-07T08:07:38.993Z</time></trkpt><trkpt lat="45.714645" lon="11.2485433"><ele>734.0</ele><time>2026-04-07T08:07:39.994Z</time></trkpt><trkpt lat="45.7146517" lon="11.2484133"><ele>734.0</ele><time>2026-04-07T08:07:40.993Z</time></trkpt><trkpt lat="45.714655" lon="11.2482933"><ele>734.0</ele><time>2026-04-07T08:07:41.994Z</time></trkpt><trkpt lat="45.7146583" lon="11.2481817"><ele>734.0</ele><time>2026-04-07T08:07:42.994Z</time></trkpt><trkpt lat="45.7146183" lon="11.248015"><ele>734.0</ele><time>2026-04-07T08:07:44.993Z</time></trkpt><trkpt lat="45.7145767" lon="11.2478917"><ele>734.0</ele><time>2026-04-07T08:07:46.994Z</time></trkpt><trkpt lat="45.7145517" lon="11.2477933"><ele>735.5</ele><time>2026-04-07T08:07:48.993Z</time></trkpt><trkpt lat="45.7145233" lon="11.247695"><ele>737.0</ele><time>2026-04-07T08:07:51.993Z</time></trkpt><trkpt lat="45.7144917" lon="11.24759"><ele>738.5</ele><time>2026-04-07T08:07:54.994Z</time></trkpt><trkpt lat="45.7144267" lon="11.247445"><ele>740.0</ele><time>2026-04-07T08:07:56.994Z</time></trkpt><trkpt lat="45.714375" lon="11.2473633"><ele>741.5</ele><time>2026-04-07T08:07:57.994Z</time></trkpt><trkpt lat="45.7143367" lon="11.24726"><ele>743.0</ele><time>2026-04-07T08:07:58.994Z</time></trkpt><trkpt lat="45.714295" lon="11.2471583"><ele>745.0</ele><time>2026-04-07T08:07:59.994Z</time></trkpt><trkpt lat="45.7142583" lon="11.2470833"><ele>747.0</ele><time>2026-04-07T08:08:00.994Z</time></trkpt><trkpt lat="45.7141733" lon="11.2469883"><ele>749.0</ele><time>2026-04-07T08:08:02.994Z</time></trkpt><trkpt lat="45.7140917" lon="11.246925"><ele>751.0</ele><time>2026-04-07T08:08:04.993Z</time></trkpt><trkpt lat="45.7140533" lon="11.2468483"><ele>753.0</ele><time>2026-04-07T08:08:06.994Z</time></trkpt><trkpt lat="45.7140233" lon="11.24675"><ele>755.0</ele><time>2026-04-07T08:08:08.994Z</time></trkpt><trkpt lat="45.7139717" lon="11.2466217"><ele>755.0</ele><time>2026-04-07T08:08:10.994Z</time></trkpt><trkpt lat="45.7139133" lon="11.2464817"><ele>755.0</ele><time>2026-04-07T08:08:12.994Z</time></trkpt><trkpt lat="45.7138717" lon="11.2463517"><ele>755.0</ele><time>2026-04-07T08:08:14.993Z</time></trkpt><trkpt lat="45.71384" lon="11.24627"><ele>755.0</ele><time>2026-04-07T08:08:16.993Z</time></trkpt><trkpt lat="45.71379" lon="11.2461633"><ele>755.0</ele><time>2026-04-07T08:08:19.993Z</time></trkpt><trkpt lat="45.71374" lon="11.2460483"><ele>755.2</ele><time>2026-04-07T08:08:21.993Z</time></trkpt><trkpt lat="45.71369" lon="11.2459133"><ele>755.4</ele><time>2026-04-07T08:08:23.994Z</time></trkpt><trkpt lat="45.7136683" lon="11.2457533"><ele>755.5999999999999</ele><time>2026-04-07T08:08:25.994Z</time></trkpt><trkpt lat="45.71365" lon="11.245605"><ele>755.8</ele><time>2026-04-07T08:08:27.994Z</time></trkpt><trkpt lat="45.7136417" lon="11.245485"><ele>756.0</ele><time>2026-04-07T08:08:29.994Z</time></trkpt><trkpt lat="45.7136783" lon="11.245405"><ele>756.0</ele><time>2026-04-07T08:08:31.993Z</time></trkpt><trkpt lat="45.71378" lon="11.2453517"><ele>756.0</ele><time>2026-04-07T08:08:33.993Z</time></trkpt><trkpt lat="45.7138433" lon="11.2453133"><ele>756.0</ele><time>2026-04-07T08:08:34.994Z</time></trkpt><trkpt lat="45.713905" lon="11.2452683"><ele>756.0</ele><time>2026-04-07T08:08:35.994Z</time></trkpt><trkpt lat="45.7139617" lon="11.245225"><ele>756.0</ele><time>2026-04-07T08:08:36.994Z</time></trkpt><trkpt lat="45.71402" lon="11.245185"><ele>756.0</ele><time>2026-04-07T08:08:37.993Z</time></trkpt><trkpt lat="45.7140867" lon="11.2451417"><ele>756.0</ele><time>2026-04-07T08:08:38.994Z</time></trkpt><trkpt lat="45.7141533" lon="11.2450967"><ele>756.0</ele><time>2026-04-07T08:08:39.994Z</time></trkpt><trkpt lat="45.7142283" lon="11.24505"><ele>756.0</ele><time>2026-04-07T08:08:40.993Z</time></trkpt><trkpt lat="45.7142933" lon="11.2449933"><ele>756.0</ele><time>2026-04-07T08:08:41.994Z</time></trkpt><trkpt lat="45.7143483" lon="11.244945"><ele>756.0</ele><time>2026-04-07T08:08:42.993Z</time></trkpt><trkpt lat="45.7144033" lon="11.2448867"><ele>756.0</ele><time>2026-04-07T08:08:43.993Z</time></trkpt><trkpt lat="45.714465" lon="11.2448367"><ele>756.0</ele><time>2026-04-07T08:08:44.994Z</time></trkpt><trkpt lat="45.7145167" lon="11.2447767"><ele>756.0</ele><time>2026-04-07T08:08:45.994Z</time></trkpt><trkpt lat="45.7145883" lon="11.2446633"><ele>759.1666666666666</ele><time>2026-04-07T08:08:47.994Z</time></trkpt><trkpt lat="45.71462" lon="11.2445533"><ele>762.3333333333333</ele><time>2026-04-07T08:08:49.994Z</time></trkpt><trkpt lat="45.7146783" lon="11.244635"><ele>765.5</ele><time>2026-04-07T08:08:56.993Z</time></trkpt><trkpt lat="45.7147233" lon="11.2447017"><ele>768.6666666666666</ele><time>2026-04-07T08:08:58.993Z</time></trkpt><trkpt lat="45.7148083" lon="11.2445983"><ele>771.8333333333333</ele><time>2026-04-07T08:09:01.994Z</time></trkpt><trkpt lat="45.7148467" lon="11.2445233"><ele>775.0</ele><time>2026-04-07T08:09:02.993Z</time></trkpt><trkpt lat="45.714895" lon="11.24443"><ele>775.0</ele><time>2026-04-07T08:09:03.993Z</time></trkpt><trkpt lat="45.7149283" lon="11.24431"><ele>775.0</ele><time>2026-04-07T08:09:04.994Z</time></trkpt><trkpt lat="45.7149483" lon="11.244165"><ele>775.0</ele><time>2026-04-07T08:09:05.994Z</time></trkpt><trkpt lat="45.7149567" lon="11.24401"><ele>775.0</ele><time>2026-04-07T08:09:06.993Z</time></trkpt><trkpt lat="45.7149467" lon="11.2438533"><ele>775.0</ele><time>2026-04-07T08:09:07.993Z</time></trkpt><trkpt lat="45.71494" lon="11.2436867"><ele>774.6666666666666</ele><time>2026-04-07T08:09:08.994Z</time></trkpt><trkpt lat="45.7149283" lon="11.243575"><ele>774.3333333333333</ele><time>2026-04-07T08:09:09.994Z</time></trkpt><trkpt lat="45.7149183" lon="11.2434683"><ele>774.0</ele><time>2026-04-07T08:09:10.994Z</time></trkpt><trkpt lat="45.7149217" lon="11.2432833"><ele>773.6666666666667</ele><time>2026-04-07T08:09:12.994Z</time></trkpt><trkpt lat="45.7149383" lon="11.243195"><ele>773.3333333333334</ele><time>2026-04-07T08:09:13.994Z</time></trkpt><trkpt lat="45.7149667" lon="11.2430917"><ele>773.0</ele><time>2026-04-07T08:09:14.993Z</time></trkpt><trkpt lat="45.7150033" lon="11.24299"><ele>773.0</ele><time>2026-04-07T08:09:15.994Z</time></trkpt><trkpt lat="45.71504" lon="11.2428617"><ele>773.0</ele><time>2026-04-07T08:09:16.994Z</time></trkpt><trkpt lat="45.7150933" lon="11.242715"><ele>773.0</ele><time>2026-04-07T08:09:17.994Z</time></trkpt><trkpt lat="45.7151417" lon="11.24255"><ele>773.0</ele><time>2026-04-07T08:09:18.993Z</time></trkpt><trkpt lat="45.7151867" lon="11.2423833"><ele>772.0000000000001</ele><time>2026-04-07T08:09:19.994Z</time></trkpt><trkpt lat="45.7152333" lon="11.2422633"><ele>771.0</ele><time>2026-04-07T08:09:20.994Z</time></trkpt><trkpt lat="45.7152833" lon="11.2421883"><ele>770.0</ele><time>2026-04-07T08:09:21.993Z</time></trkpt><trkpt lat="45.7153783" lon="11.2420833"><ele>769.0</ele><time>2026-04-07T08:09:23.994Z</time></trkpt><trkpt lat="45.7154317" lon="11.2420217"><ele>768.0</ele><time>2026-04-07T08:09:24.993Z</time></trkpt><trkpt lat="45.7154683" lon="11.2419383"><ele>767.0</ele><time>2026-04-07T08:09:25.993Z</time></trkpt><trkpt lat="45.7154967" lon="11.241835"><ele>768.6</ele><time>2026-04-07T08:09:26.994Z</time></trkpt><trkpt lat="45.715515" lon="11.2417067"><ele>770.2</ele><time>2026-04-07T08:09:27.993Z</time></trkpt><trkpt lat="45.715545" lon="11.24157"><ele>771.8</ele><time>2026-04-07T08:09:28.994Z</time></trkpt><trkpt lat="45.7155967" lon="11.2414483"><ele>773.4</ele><time>2026-04-07T08:09:29.993Z</time></trkpt><trkpt lat="45.71564" lon="11.2413133"><ele>775.0</ele><time>2026-04-07T08:09:30.994Z</time></trkpt><trkpt lat="45.71567" lon="11.2411667"><ele>775.0</ele><time>2026-04-07T08:09:31.994Z</time></trkpt><trkpt lat="45.715685" lon="11.2410067"><ele>775.0</ele><time>2026-04-07T08:09:32.994Z</time></trkpt><trkpt lat="45.7156967" lon="11.2408517"><ele>775.0</ele><time>2026-04-07T08:09:33.994Z</time></trkpt><trkpt lat="45.7157033" lon="11.2407017"><ele>775.0</ele><time>2026-04-07T08:09:34.993Z</time></trkpt><trkpt lat="45.7157083" lon="11.240575"><ele>775.0</ele><time>2026-04-07T08:09:35.994Z</time></trkpt><trkpt lat="45.7157167" lon="11.2404633"><ele>774.1666666666666</ele><time>2026-04-07T08:09:36.994Z</time></trkpt><trkpt lat="45.7157333" lon="11.2403683"><ele>773.3333333333333</ele><time>2026-04-07T08:09:37.994Z</time></trkpt><trkpt lat="45.7157683" lon="11.240285"><ele>772.5</ele><time>2026-04-07T08:09:38.994Z</time></trkpt><trkpt lat="45.715835" lon="11.2401567"><ele>771.6666666666667</ele><time>2026-04-07T08:09:40.993Z</time></trkpt><trkpt lat="45.7159417" lon="11.2400567"><ele>770.8333333333334</ele><time>2026-04-07T08:09:42.994Z</time></trkpt><trkpt lat="45.7160033" lon="11.2400167"><ele>770.0</ele><time>2026-04-07T08:09:43.994Z</time></trkpt><trkpt lat="45.71607" lon="11.2399667"><ele>770.0</ele><time>2026-04-07T08:09:44.993Z</time></trkpt><trkpt lat="45.7161367" lon="11.2399233"><ele>770.0</ele><time>2026-04-07T08:09:45.994Z</time></trkpt><trkpt lat="45.7162033" lon="11.2398767"><ele>770.0</ele><time>2026-04-07T08:09:46.994Z</time></trkpt><trkpt lat="45.7162667" lon="11.2398417"><ele>770.0</ele><time>2026-04-07T08:09:47.993Z</time></trkpt><trkpt lat="45.71632" lon="11.2397933"><ele>770.0</ele><time>2026-04-07T08:09:48.993Z</time></trkpt><trkpt lat="45.7163833" lon="11.2397367"><ele>770.0</ele><time>2026-04-07T08:09:49.994Z</time></trkpt><trkpt lat="45.7164333" lon="11.2396783"><ele>770.0</ele><time>2026-04-07T08:09:50.994Z</time></trkpt><trkpt lat="45.716505" lon="11.2395783"><ele>766.1666666666667</ele><time>2026-04-07T08:09:52.994Z</time></trkpt><trkpt lat="45.7165617" lon="11.2395217"><ele>762.3333333333334</ele><time>2026-04-07T08:09:54.994Z</time></trkpt><trkpt lat="45.7166267" lon="11.23947"><ele>758.5</ele><time>2026-04-07T08:09:56.994Z</time></trkpt><trkpt lat="45.7167183" lon="11.2393817"><ele>754.6666666666667</ele><time>2026-04-07T08:09:58.993Z</time></trkpt><trkpt lat="45.7167883" lon="11.23929"><ele>750.8333333333334</ele><time>2026-04-07T08:10:00.993Z</time></trkpt><trkpt lat="45.7168417" lon="11.2391767"><ele>747.0</ele><time>2026-04-07T08:10:02.993Z</time></trkpt><trkpt lat="45.716865" lon="11.2390817"><ele>747.0</ele><time>2026-04-07T08:10:04.994Z</time></trkpt><trkpt lat="45.7168983" lon="11.239"><ele>747.0</ele><time>2026-04-07T08:10:06.994Z</time></trkpt><trkpt lat="45.7169367" lon="11.2389117"><ele>747.0</ele><time>2026-04-07T08:10:08.994Z</time></trkpt><trkpt lat="45.716985" lon="11.2388233"><ele>747.0</ele><time>2026-04-07T08:10:10.993Z</time></trkpt><trkpt lat="45.717025" lon="11.2387067"><ele>747.0</ele><time>2026-04-07T08:10:12.993Z</time></trkpt><trkpt lat="45.717065" lon="11.238545"><ele>747.0</ele><time>2026-04-07T08:10:14.994Z</time></trkpt><trkpt lat="45.71709" lon="11.23845"><ele>747.4000000000001</ele><time>2026-04-07T08:10:15.993Z</time></trkpt><trkpt lat="45.71715" lon="11.2383033"><ele>747.8000000000001</ele><time>2026-04-07T08:10:17.994Z</time></trkpt><trkpt lat="45.7172217" lon="11.23818"><ele>748.2</ele><time>2026-04-07T08:10:19.994Z</time></trkpt><trkpt lat="45.7172833" lon="11.2380483"><ele>748.6</ele><time>2026-04-07T08:10:21.994Z</time></trkpt><trkpt lat="45.7173317" lon="11.2379417"><ele>749.0</ele><time>2026-04-07T08:10:23.993Z</time></trkpt><trkpt lat="45.7173833" lon="11.2378767"><ele>744.1666666666666</ele><time>2026-04-07T08:10:25.994Z</time></trkpt><trkpt lat="45.71747" lon="11.2378217"><ele>739.3333333333333</ele><time>2026-04-07T08:10:27.993Z</time></trkpt><trkpt lat="45.7175483" lon="11.2377167"><ele>734.5</ele><time>2026-04-07T08:10:29.993Z</time></trkpt><trkpt lat="45.71759" lon="11.2376467"><ele>729.6666666666666</ele><time>2026-04-07T08:10:30.994Z</time></trkpt><trkpt lat="45.7176517" lon="11.2375317"><ele>724.8333333333334</ele><time>2026-04-07T08:10:32.993Z</time></trkpt><trkpt lat="45.717695" lon="11.2374333"><ele>720.0</ele><time>2026-04-07T08:10:34.994Z</time></trkpt><trkpt lat="45.7177067" lon="11.2373067"><ele>715.75</ele><time>2026-04-07T08:10:36.993Z</time></trkpt><trkpt lat="45.71773" lon="11.2371767"><ele>711.5</ele><time>2026-04-07T08:10:38.992Z</time></trkpt><trkpt lat="45.7177783" lon="11.2370367"><ele>707.25</ele><time>2026-04-07T08:10:40.993Z</time></trkpt><trkpt lat="45.7178467" lon="11.2369033"><ele>703.0</ele><time>2026-04-07T08:10:42.993Z</time></trkpt><trkpt lat="45.7179483" lon="11.2367833"><ele>703.0</ele><time>2026-04-07T08:10:44.992Z</time></trkpt><trkpt lat="45.71803" lon="11.2367233"><ele>703.0</ele><time>2026-04-07T08:10:45.993Z</time></trkpt><trkpt lat="45.7181067" lon="11.2366567"><ele>703.0</ele><time>2026-04-07T08:10:46.993Z</time></trkpt><trkpt lat="45.7181867" lon="11.236595"><ele>703.0</ele><time>2026-04-07T08:10:47.993Z</time></trkpt><trkpt lat="45.7182517" lon="11.23654"><ele>703.0</ele><time>2026-04-07T08:10:48.993Z</time></trkpt><trkpt lat="45.7183083" lon="11.2364933"><ele>703.0</ele><time>2026-04-07T08:10:50.993Z</time></trkpt><trkpt lat="45.718385" lon="11.2365133"><ele>703.0</ele><time>2026-04-07T08:10:55.993Z</time></trkpt><trkpt lat="45.7184117" lon="11.2366117"><ele>703.0</ele><time>2026-04-07T08:10:57.993Z</time></trkpt><trkpt lat="45.7184417" lon="11.23679"><ele>703.0</ele><time>2026-04-07T08:10:59.993Z</time></trkpt><trkpt lat="45.7184567" lon="11.236915"><ele>703.0</ele><time>2026-04-07T08:11:00.992Z</time></trkpt><trkpt lat="45.7184683" lon="11.2370367"><ele>703.0</ele><time>2026-04-07T08:11:01.992Z</time></trkpt><trkpt lat="45.718485" lon="11.237125"><ele>703.0</ele><time>2026-04-07T08:11:02.992Z</time></trkpt><trkpt lat="45.7185567" lon="11.237245"><ele>703.8333333333334</ele><time>2026-04-07T08:11:04.993Z</time></trkpt><trkpt lat="45.7186433" lon="11.23733"><ele>704.6666666666667</ele><time>2026-04-07T08:11:06.993Z</time></trkpt><trkpt lat="45.7187733" lon="11.2373417"><ele>705.5</ele><time>2026-04-07T08:11:08.992Z</time></trkpt><trkpt lat="45.7188383" lon="11.2373317"><ele>706.3333333333334</ele><time>2026-04-07T08:11:09.993Z</time></trkpt><trkpt lat="45.7189083" lon="11.2373067"><ele>707.1666666666666</ele><time>2026-04-07T08:11:10.993Z</time></trkpt><trkpt lat="45.7189767" lon="11.2372883"><ele>708.0</ele><time>2026-04-07T08:11:11.993Z</time></trkpt><trkpt lat="45.7190867" lon="11.2372883"><ele>708.0</ele><time>2026-04-07T08:11:13.993Z</time></trkpt><trkpt lat="45.7191917" lon="11.2373583"><ele>708.0</ele><time>2026-04-07T08:11:15.993Z</time></trkpt><trkpt lat="45.7192367" lon="11.2374217"><ele>708.0</ele><time>2026-04-07T08:11:16.992Z</time></trkpt><trkpt lat="45.71929" lon="11.2374867"><ele>708.0</ele><time>2026-04-07T08:11:17.992Z</time></trkpt><trkpt lat="45.7193617" lon="11.2375167"><ele>708.0</ele><time>2026-04-07T08:11:18.992Z</time></trkpt><trkpt lat="45.7194283" lon="11.2375267"><ele>708.0</ele><time>2026-04-07T08:11:19.993Z</time></trkpt><trkpt lat="45.719495" lon="11.2375367"><ele>704.8333333333334</ele><time>2026-04-07T08:11:20.993Z</time></trkpt><trkpt lat="45.7195617" lon="11.23758"><ele>701.6666666666666</ele><time>2026-04-07T08:11:21.993Z</time></trkpt><trkpt lat="45.71962" lon="11.2376533"><ele>698.5</ele><time>2026-04-07T08:11:22.993Z</time></trkpt><trkpt lat="45.7196767" lon="11.2377283"><ele>695.3333333333333</ele><time>2026-04-07T08:11:23.992Z</time></trkpt><trkpt lat="45.7197383" lon="11.237785"><ele>692.1666666666666</ele><time>2026-04-07T08:11:24.993Z</time></trkpt><trkpt lat="45.7198067" lon="11.2378"><ele>689.0</ele><time>2026-04-07T08:11:25.993Z</time></trkpt><trkpt lat="45.7198933" lon="11.2377833"><ele>689.0</ele><time>2026-04-07T08:11:26.993Z</time></trkpt><trkpt lat="45.7199983" lon="11.2377417"><ele>689.0</ele><time>2026-04-07T08:11:27.992Z</time></trkpt><trkpt lat="45.7201033" lon="11.2376767"><ele>689.0</ele><time>2026-04-07T08:11:28.993Z</time></trkpt><trkpt lat="45.7201917" lon="11.23762"><ele>689.0</ele><time>2026-04-07T08:11:29.993Z</time></trkpt><trkpt lat="45.7202583" lon="11.2375733"><ele>689.0</ele><time>2026-04-07T08:11:30.993Z</time></trkpt><trkpt lat="45.7203317" lon="11.23758"><ele>687.4000000000001</ele><time>2026-04-07T08:11:31.993Z</time></trkpt><trkpt lat="45.72042" lon="11.2376033"><ele>685.8</ele><time>2026-04-07T08:11:32.992Z</time></trkpt><trkpt lat="45.7205317" lon="11.2376333"><ele>684.2</ele><time>2026-04-07T08:11:33.993Z</time></trkpt><trkpt lat="45.7206283" lon="11.2376617"><ele>682.5999999999999</ele><time>2026-04-07T08:11:34.993Z</time></trkpt><trkpt lat="45.7207183" lon="11.2376867"><ele>681.0</ele><time>2026-04-07T08:11:35.992Z</time></trkpt><trkpt lat="45.720795" lon="11.2377167"><ele>681.0</ele><time>2026-04-07T08:11:36.993Z</time></trkpt><trkpt lat="45.7208633" lon="11.2377483"><ele>681.0</ele><time>2026-04-07T08:11:37.993Z</time></trkpt><trkpt lat="45.7209217" lon="11.2378"><ele>681.0</ele><time>2026-04-07T08:11:38.993Z</time></trkpt><trkpt lat="45.720965" lon="11.237945"><ele>681.0</ele><time>2026-04-07T08:11:40.993Z</time></trkpt><trkpt lat="45.7209717" lon="11.2381033"><ele>681.0</ele><time>2026-04-07T08:11:42.993Z</time></trkpt><trkpt lat="45.7209233" lon="11.238245"><ele>683.1999999999999</ele><time>2026-04-07T08:11:44.993Z</time></trkpt><trkpt lat="45.7208733" lon="11.2383433"><ele>685.4</ele><time>2026-04-07T08:11:45.993Z</time></trkpt><trkpt lat="45.72083" lon="11.2384733"><ele>687.6</ele><time>2026-04-07T08:11:46.993Z</time></trkpt><trkpt lat="45.7207983" lon="11.23862"><ele>689.8</ele><time>2026-04-07T08:11:47.993Z</time></trkpt><trkpt lat="45.7207733" lon="11.2387467"><ele>692.0</ele><time>2026-04-07T08:11:48.992Z</time></trkpt><trkpt lat="45.72075" lon="11.2388667"><ele>692.0</ele><time>2026-04-07T08:11:49.992Z</time></trkpt><trkpt lat="45.72073" lon="11.23899"><ele>692.0</ele><time>2026-04-07T08:11:50.993Z</time></trkpt><trkpt lat="45.7207317" lon="11.2391167"><ele>692.0</ele><time>2026-04-07T08:11:51.993Z</time></trkpt><trkpt lat="45.7207617" lon="11.23924"><ele>692.0</ele><time>2026-04-07T08:11:52.993Z</time></trkpt><trkpt lat="45.7208033" lon="11.2393517"><ele>692.0</ele><time>2026-04-07T08:11:53.992Z</time></trkpt><trkpt lat="45.7208733" lon="11.2394517"><ele>692.0</ele><time>2026-04-07T08:11:54.993Z</time></trkpt><trkpt lat="45.720935" lon="11.239545"><ele>692.0</ele><time>2026-04-07T08:11:55.993Z</time></trkpt><trkpt lat="45.7209917" lon="11.2396183"><ele>692.0</ele><time>2026-04-07T08:11:56.992Z</time></trkpt><trkpt lat="45.7210333" lon="11.23969"><ele>692.0</ele><time>2026-04-07T08:11:57.993Z</time></trkpt><trkpt lat="45.721075" lon="11.23983"><ele>692.0</ele><time>2026-04-07T08:11:59.993Z</time></trkpt><trkpt lat="45.7211383" lon="11.239925"><ele>692.0</ele><time>2026-04-07T08:12:01.992Z</time></trkpt><trkpt lat="45.7212433" lon="11.2399817"><ele>686.1428571428571</ele><time>2026-04-07T08:12:03.993Z</time></trkpt><trkpt lat="45.7212917" lon="11.24004"><ele>680.2857142857143</ele><time>2026-04-07T08:12:04.993Z</time></trkpt><trkpt lat="45.72133" lon="11.2401183"><ele>674.4285714285714</ele><time>2026-04-07T08:12:05.993Z</time></trkpt><trkpt lat="45.7213783" lon="11.240205"><ele>668.5714285714286</ele><time>2026-04-07T08:12:06.992Z</time></trkpt><trkpt lat="45.721415" lon="11.2403017"><ele>662.7142857142858</ele><time>2026-04-07T08:12:07.993Z</time></trkpt><trkpt lat="45.7214533" lon="11.2403967"><ele>656.8571428571429</ele><time>2026-04-07T08:12:08.992Z</time></trkpt><trkpt lat="45.7214817" lon="11.2404817"><ele>651.0</ele><time>2026-04-07T08:12:09.993Z</time></trkpt><trkpt lat="45.7215133" lon="11.2405667"><ele>652.0</ele><time>2026-04-07T08:12:10.993Z</time></trkpt><trkpt lat="45.7215283" lon="11.24071"><ele>653.0</ele><time>2026-04-07T08:12:12.992Z</time></trkpt><trkpt lat="45.7215283" lon="11.2408067"><ele>654.0</ele><time>2026-04-07T08:12:13.992Z</time></trkpt><trkpt lat="45.7215467" lon="11.24092"><ele>655.0</ele><time>2026-04-07T08:12:14.993Z</time></trkpt><trkpt lat="45.7215633" lon="11.241035"><ele>656.0</ele><time>2026-04-07T08:12:15.992Z</time></trkpt><trkpt lat="45.7215917" lon="11.2411533"><ele>657.0</ele><time>2026-04-07T08:12:16.992Z</time></trkpt><trkpt lat="45.7216067" lon="11.2412583"><ele>657.0</ele><time>2026-04-07T08:12:17.992Z</time></trkpt><trkpt lat="45.7216183" lon="11.241365"><ele>657.0</ele><time>2026-04-07T08:12:18.992Z</time></trkpt><trkpt lat="45.72161" lon="11.24147"><ele>657.0</ele><time>2026-04-07T08:12:19.993Z</time></trkpt><trkpt lat="45.7215833" lon="11.2415783"><ele>657.0</ele><time>2026-04-07T08:12:20.993Z</time></trkpt><trkpt lat="45.721545" lon="11.2416633"><ele>657.0</ele><time>2026-04-07T08:12:21.993Z</time></trkpt><trkpt lat="45.721445" lon="11.2417633"><ele>657.0</ele><time>2026-04-07T08:12:23.992Z</time></trkpt><trkpt lat="45.721345" lon="11.2418133"><ele>655.6666666666666</ele><time>2026-04-07T08:12:25.993Z</time></trkpt><trkpt lat="45.72131" lon="11.241945"><ele>654.3333333333334</ele><time>2026-04-07T08:12:27.993Z</time></trkpt><trkpt lat="45.7213167" lon="11.2420483"><ele>653.0</ele><time>2026-04-07T08:12:28.992Z</time></trkpt><trkpt lat="45.72132" lon="11.24215"><ele>651.6666666666667</ele><time>2026-04-07T08:12:29.993Z</time></trkpt><trkpt lat="45.721315" lon="11.2422567"><ele>650.3333333333334</ele><time>2026-04-07T08:12:30.993Z</time></trkpt><trkpt lat="45.7212633" lon="11.2423867"><ele>649.0</ele><time>2026-04-07T08:12:32.993Z</time></trkpt><trkpt lat="45.7211933" lon="11.24249"><ele>647.6</ele><time>2026-04-07T08:12:34.992Z</time></trkpt><trkpt lat="45.7211533" lon="11.2426583"><ele>646.2</ele><time>2026-04-07T08:12:36.993Z</time></trkpt><trkpt lat="45.721145" lon="11.242765"><ele>644.8000000000001</ele><time>2026-04-07T08:12:37.992Z</time></trkpt><trkpt lat="45.721145" lon="11.242885"><ele>643.4000000000001</ele><time>2026-04-07T08:12:38.992Z</time></trkpt><trkpt lat="45.721155" lon="11.2430033"><ele>642.0</ele><time>2026-04-07T08:12:39.993Z</time></trkpt><trkpt lat="45.72117" lon="11.2431217"><ele>643.0</ele><time>2026-04-07T08:12:40.993Z</time></trkpt><trkpt lat="45.721195" lon="11.2432383"><ele>644.0</ele><time>2026-04-07T08:12:41.992Z</time></trkpt><trkpt lat="45.7212317" lon="11.2433517"><ele>645.0</ele><time>2026-04-07T08:12:42.993Z</time></trkpt><trkpt lat="45.721275" lon="11.2434367"><ele>646.0</ele><time>2026-04-07T08:12:43.993Z</time></trkpt><trkpt lat="45.721325" lon="11.2435133"><ele>647.0</ele><time>2026-04-07T08:12:44.993Z</time></trkpt><trkpt lat="45.7213783" lon="11.2436817"><ele>648.0</ele><time>2026-04-07T08:12:46.993Z</time></trkpt><trkpt lat="45.7213917" lon="11.2437817"><ele>648.0</ele><time>2026-04-07T08:12:47.992Z</time></trkpt><trkpt lat="45.7213983" lon="11.24395"><ele>648.0</ele><time>2026-04-07T08:12:49.993Z</time></trkpt><trkpt lat="45.7214167" lon="11.24404"><ele>648.0</ele><time>2026-04-07T08:12:50.993Z</time></trkpt><trkpt lat="45.7214567" lon="11.2441217"><ele>648.0</ele><time>2026-04-07T08:12:51.993Z</time></trkpt><trkpt lat="45.72151" lon="11.244215"><ele>648.0</ele><time>2026-04-07T08:12:52.993Z</time></trkpt><trkpt lat="45.7215533" lon="11.2443167"><ele>648.0</ele><time>2026-04-07T08:12:53.992Z</time></trkpt><trkpt lat="45.7215933" lon="11.24442"><ele>649.0</ele><time>2026-04-07T08:12:54.993Z</time></trkpt><trkpt lat="45.7216183" lon="11.244515"><ele>650.0</ele><time>2026-04-07T08:12:55.992Z</time></trkpt><trkpt lat="45.72162" lon="11.244615"><ele>651.0</ele><time>2026-04-07T08:12:56.993Z</time></trkpt><trkpt lat="45.7216217" lon="11.24473"><ele>652.0</ele><time>2026-04-07T08:12:57.993Z</time></trkpt><trkpt lat="45.7216233" lon="11.24485"><ele>653.0</ele><time>2026-04-07T08:12:58.993Z</time></trkpt><trkpt lat="45.721655" lon="11.2449717"><ele>654.0</ele><time>2026-04-07T08:12:59.992Z</time></trkpt><trkpt lat="45.7217017" lon="11.2450883"><ele>654.0</ele><time>2026-04-07T08:13:00.992Z</time></trkpt><trkpt lat="45.7217583" lon="11.2452033"><ele>654.0</ele><time>2026-04-07T08:13:01.993Z</time></trkpt><trkpt lat="45.72181" lon="11.24531"><ele>654.0</ele><time>2026-04-07T08:13:02.993Z</time></trkpt><trkpt lat="45.7218583" lon="11.2453983"><ele>654.0</ele><time>2026-04-07T08:13:03.992Z</time></trkpt><trkpt lat="45.7219067" lon="11.2454667"><ele>654.0</ele><time>2026-04-07T08:13:04.993Z</time></trkpt><trkpt lat="45.7219533" lon="11.2455333"><ele>654.0</ele><time>2026-04-07T08:13:05.993Z</time></trkpt><trkpt lat="45.7220533" lon="11.24563"><ele>653.5</ele><time>2026-04-07T08:13:07.993Z</time></trkpt><trkpt lat="45.7221117" lon="11.2456717"><ele>653.0</ele><time>2026-04-07T08:13:08.993Z</time></trkpt><trkpt lat="45.7221783" lon="11.2457133"><ele>652.5</ele><time>2026-04-07T08:13:09.993Z</time></trkpt><trkpt lat="45.722245" lon="11.245765"><ele>652.0</ele><time>2026-04-07T08:13:10.992Z</time></trkpt><trkpt lat="45.722305" lon="11.24582"><ele>651.5</ele><time>2026-04-07T08:13:11.993Z</time></trkpt><trkpt lat="45.7223567" lon="11.2458917"><ele>651.0</ele><time>2026-04-07T08:13:12.992Z</time></trkpt><trkpt lat="45.7224417" lon="11.2459933"><ele>651.0</ele><time>2026-04-07T08:13:14.993Z</time></trkpt><trkpt lat="45.7225667" lon="11.2460433"><ele>651.0</ele><time>2026-04-07T08:13:16.993Z</time></trkpt><trkpt lat="45.7226333" lon="11.2460483"><ele>651.0</ele><time>2026-04-07T08:13:17.993Z</time></trkpt><trkpt lat="45.7227267" lon="11.246125"><ele>651.0</ele><time>2026-04-07T08:13:19.992Z</time></trkpt><trkpt lat="45.7227633" lon="11.2462217"><ele>651.0</ele><time>2026-04-07T08:13:20.992Z</time></trkpt><trkpt lat="45.7227983" lon="11.2463683"><ele>653.8</ele><time>2026-04-07T08:13:21.993Z</time></trkpt><trkpt lat="45.7228333" lon="11.24654"><ele>656.5999999999999</ele><time>2026-04-07T08:13:22.993Z</time></trkpt><trkpt lat="45.7228733" lon="11.2466933"><ele>659.4</ele><time>2026-04-07T08:13:23.993Z</time></trkpt><trkpt lat="45.7229217" lon="11.2468233"><ele>662.2</ele><time>2026-04-07T08:13:24.993Z</time></trkpt><trkpt lat="45.7229667" lon="11.24691"><ele>665.0</ele><time>2026-04-07T08:13:25.993Z</time></trkpt><trkpt lat="45.7230033" lon="11.2470167"><ele>665.0</ele><time>2026-04-07T08:13:27.993Z</time></trkpt><trkpt lat="45.7228767" lon="11.2470367"><ele>665.0</ele><time>2026-04-07T08:13:30.993Z</time></trkpt><trkpt lat="45.7227767" lon="11.2470017"><ele>665.0</ele><time>2026-04-07T08:13:31.993Z</time></trkpt><trkpt lat="45.7226633" lon="11.2469433"><ele>665.0</ele><time>2026-04-07T08:13:32.992Z</time></trkpt><trkpt lat="45.72256" lon="11.2468567"><ele>658.4</ele><time>2026-04-07T08:13:33.993Z</time></trkpt><trkpt lat="45.7225" lon="11.2467717"><ele>651.8</ele><time>2026-04-07T08:13:34.993Z</time></trkpt><trkpt lat="45.7224417" lon="11.24672"><ele>645.2</ele><time>2026-04-07T08:13:35.992Z</time></trkpt><trkpt lat="45.7223467" lon="11.2467283"><ele>638.6</ele><time>2026-04-07T08:13:37.993Z</time></trkpt><trkpt lat="45.7223767" lon="11.2468883"><ele>632.0</ele><time>2026-04-07T08:13:39.993Z</time></trkpt><trkpt lat="45.7224167" lon="11.247005"><ele>632.0</ele><time>2026-04-07T08:13:40.993Z</time></trkpt><trkpt lat="45.722445" lon="11.2471517"><ele>632.0</ele><time>2026-04-07T08:13:41.992Z</time></trkpt><trkpt lat="45.7224717" lon="11.2473183"><ele>632.0</ele><time>2026-04-07T08:13:42.993Z</time></trkpt><trkpt lat="45.7225183" lon="11.2474783"><ele>632.0</ele><time>2026-04-07T08:13:43.993Z</time></trkpt><trkpt lat="45.722565" lon="11.2476267"><ele>629.5</ele><time>2026-04-07T08:13:44.993Z</time></trkpt><trkpt lat="45.7226033" lon="11.2477667"><ele>627.0</ele><time>2026-04-07T08:13:45.992Z</time></trkpt><trkpt lat="45.72262" lon="11.2479017"><ele>624.5</ele><time>2026-04-07T08:13:46.993Z</time></trkpt><trkpt lat="45.7226167" lon="11.2480283"><ele>622.0</ele><time>2026-04-07T08:13:47.992Z</time></trkpt><trkpt lat="45.722605" lon="11.2481417"><ele>619.5</ele><time>2026-04-07T08:13:48.993Z</time></trkpt><trkpt lat="45.7226033" lon="11.24825"><ele>617.0</ele><time>2026-04-07T08:13:49.992Z</time></trkpt><trkpt lat="45.7226133" lon="11.24835"><ele>614.6666666666666</ele><time>2026-04-07T08:13:50.993Z</time></trkpt><trkpt lat="45.7226467" lon="11.2484317"><ele>612.3333333333333</ele><time>2026-04-07T08:13:51.992Z</time></trkpt><trkpt lat="45.7226933" lon="11.24851"><ele>610.0</ele><time>2026-04-07T08:13:52.992Z</time></trkpt><trkpt lat="45.7227667" lon="11.24858"><ele>607.6666666666666</ele><time>2026-04-07T08:13:53.993Z</time></trkpt><trkpt lat="45.7228533" lon="11.248665"><ele>605.3333333333334</ele><time>2026-04-07T08:13:54.992Z</time></trkpt><trkpt lat="45.722935" lon="11.2487467"><ele>603.0</ele><time>2026-04-07T08:13:55.992Z</time></trkpt><trkpt lat="45.722995" lon="11.2488133"><ele>603.0</ele><time>2026-04-07T08:13:56.993Z</time></trkpt><trkpt lat="45.7230717" lon="11.2489133"><ele>603.0</ele><time>2026-04-07T08:13:58.993Z</time></trkpt><trkpt lat="45.7229833" lon="11.2489733"><ele>603.0</ele><time>2026-04-07T08:14:01.992Z</time></trkpt><trkpt lat="45.722905" lon="11.24896"><ele>603.0</ele><time>2026-04-07T08:14:02.992Z</time></trkpt><trkpt lat="45.7227967" lon="11.2489333"><ele>603.0</ele><time>2026-04-07T08:14:03.993Z</time></trkpt><trkpt lat="45.7226983" lon="11.2488983"><ele>603.0</ele><time>2026-04-07T08:14:04.992Z</time></trkpt><trkpt lat="45.722615" lon="11.2488833"><ele>603.0</ele><time>2026-04-07T08:14:05.993Z</time></trkpt><trkpt lat="45.7225617" lon="11.248935"><ele>603.0</ele><time>2026-04-07T08:14:06.993Z</time></trkpt><trkpt lat="45.72256" lon="11.2491217"><ele>603.0</ele><time>2026-04-07T08:14:08.992Z</time></trkpt><trkpt lat="45.7226033" lon="11.24923"><ele>603.0</ele><time>2026-04-07T08:14:09.993Z</time></trkpt><trkpt lat="45.722665" lon="11.2492867"><ele>603.0</ele><time>2026-04-07T08:14:10.992Z</time></trkpt><trkpt lat="45.7227367" lon="11.2493167"><ele>603.1666666666666</ele><time>2026-04-07T08:14:11.993Z</time></trkpt><trkpt lat="45.7228117" lon="11.24934"><ele>603.3333333333334</ele><time>2026-04-07T08:14:12.993Z</time></trkpt><trkpt lat="45.7228817" lon="11.2494033"><ele>603.5</ele><time>2026-04-07T08:14:13.993Z</time></trkpt><trkpt lat="45.72295" lon="11.2494833"><ele>603.6666666666667</ele><time>2026-04-07T08:14:14.993Z</time></trkpt><trkpt lat="45.72303" lon="11.2495517"><ele>603.8333333333334</ele><time>2026-04-07T08:14:15.993Z</time></trkpt><trkpt lat="45.72311" lon="11.2496233"><ele>604.0</ele><time>2026-04-07T08:14:16.993Z</time></trkpt><trkpt lat="45.7231833" lon="11.2497033"><ele>596.5</ele><time>2026-04-07T08:14:17.993Z</time></trkpt><trkpt lat="45.7232317" lon="11.249825"><ele>589.0</ele><time>2026-04-07T08:14:18.993Z</time></trkpt><trkpt lat="45.7232817" lon="11.2499767"><ele>581.5</ele><time>2026-04-07T08:14:19.993Z</time></trkpt><trkpt lat="45.723345" lon="11.25013"><ele>574.0</ele><time>2026-04-07T08:14:20.992Z</time></trkpt><trkpt lat="45.72341" lon="11.2502733"><ele>574.0</ele><time>2026-04-07T08:14:21.993Z</time></trkpt><trkpt lat="45.7234717" lon="11.2504033"><ele>574.0</ele><time>2026-04-07T08:14:22.992Z</time></trkpt><trkpt lat="45.7235283" lon="11.250515"><ele>574.0</ele><time>2026-04-07T08:14:23.992Z</time></trkpt><trkpt lat="45.7235833" lon="11.2505917"><ele>574.0</ele><time>2026-04-07T08:14:24.993Z</time></trkpt><trkpt lat="45.7236417" lon="11.2507217"><ele>574.0</ele><time>2026-04-07T08:14:26.992Z</time></trkpt><trkpt lat="45.7236233" lon="11.2508133"><ele>570.8</ele><time>2026-04-07T08:14:28.993Z</time></trkpt><trkpt lat="45.7234933" lon="11.2508383"><ele>567.5999999999999</ele><time>2026-04-07T08:14:30.993Z</time></trkpt><trkpt lat="45.7233933" lon="11.2508217"><ele>564.4</ele><time>2026-04-07T08:14:31.992Z</time></trkpt><trkpt lat="45.7232917" lon="11.2508017"><ele>561.1999999999999</ele><time>2026-04-07T08:14:32.993Z</time></trkpt><trkpt lat="45.72321" lon="11.25079"><ele>558.0</ele><time>2026-04-07T08:14:33.993Z</time></trkpt><trkpt lat="45.7231417" lon="11.2507783"><ele>558.0</ele><time>2026-04-07T08:14:34.993Z</time></trkpt><trkpt lat="45.7230417" lon="11.2507267"><ele>558.0</ele><time>2026-04-07T08:14:36.992Z</time></trkpt><trkpt lat="45.7229733" lon="11.2505817"><ele>558.0</ele><time>2026-04-07T08:14:38.993Z</time></trkpt><trkpt lat="45.72295" lon="11.2504633"><ele>558.0</ele><time>2026-04-07T08:14:39.992Z</time></trkpt><trkpt lat="45.72294" lon="11.2503183"><ele>558.0</ele><time>2026-04-07T08:14:40.993Z</time></trkpt><trkpt lat="45.7229417" lon="11.250185"><ele>558.8</ele><time>2026-04-07T08:14:41.993Z</time></trkpt><trkpt lat="45.7229283" lon="11.2500733"><ele>559.5999999999999</ele><time>2026-04-07T08:14:42.993Z</time></trkpt><trkpt lat="45.7228733" lon="11.2499183"><ele>560.4000000000001</ele><time>2026-04-07T08:14:44.993Z</time></trkpt><trkpt lat="45.7227733" lon="11.2499017"><ele>561.2</ele><time>2026-04-07T08:14:46.993Z</time></trkpt><trkpt lat="45.7227133" lon="11.2499683"><ele>562.0</ele><time>2026-04-07T08:14:47.993Z</time></trkpt><trkpt lat="45.7226267" lon="11.2500567"><ele>562.0</ele><time>2026-04-07T08:14:48.993Z</time></trkpt><trkpt lat="45.7225367" lon="11.2501117"><ele>562.0</ele><time>2026-04-07T08:14:49.992Z</time></trkpt><trkpt lat="45.72245" lon="11.250145"><ele>562.0</ele><time>2026-04-07T08:14:50.992Z</time></trkpt><trkpt lat="45.7223617" lon="11.250165"><ele>562.0</ele><time>2026-04-07T08:14:51.992Z</time></trkpt><trkpt lat="45.7222683" lon="11.2501583"><ele>562.0</ele><time>2026-04-07T08:14:52.992Z</time></trkpt><trkpt lat="45.7221883" lon="11.2501217"><ele>562.0</ele><time>2026-04-07T08:14:53.992Z</time></trkpt><trkpt lat="45.7221183" lon="11.25005"><ele>562.0</ele><time>2026-04-07T08:14:54.992Z</time></trkpt><trkpt lat="45.7220667" lon="11.2499633"><ele>562.0</ele><time>2026-04-07T08:14:55.991Z</time></trkpt><trkpt lat="45.7220267" lon="11.2498633"><ele>562.0</ele><time>2026-04-07T08:14:56.992Z</time></trkpt><trkpt lat="45.7219933" lon="11.24976"><ele>562.0</ele><time>2026-04-07T08:14:57.992Z</time></trkpt><trkpt lat="45.7219617" lon="11.2496567"><ele>562.0</ele><time>2026-04-07T08:14:58.992Z</time></trkpt><trkpt lat="45.7219183" lon="11.2495333"><ele>560.0</ele><time>2026-04-07T08:14:59.992Z</time></trkpt><trkpt lat="45.7218733" lon="11.2494317"><ele>558.0</ele><time>2026-04-07T08:15:00.991Z</time></trkpt><trkpt lat="45.7218083" lon="11.2493483"><ele>556.0</ele><time>2026-04-07T08:15:01.991Z</time></trkpt><trkpt lat="45.7217433" lon="11.24927"><ele>554.0</ele><time>2026-04-07T08:15:02.991Z</time></trkpt><trkpt lat="45.72166" lon="11.2492267"><ele>552.0</ele><time>2026-04-07T08:15:03.991Z</time></trkpt><trkpt lat="45.721555" lon="11.2492"><ele>552.0</ele><time>2026-04-07T08:15:04.992Z</time></trkpt><trkpt lat="45.721455" lon="11.2491933"><ele>552.0</ele><time>2026-04-07T08:15:05.991Z</time></trkpt><trkpt lat="45.72136" lon="11.2491933"><ele>552.0</ele><time>2026-04-07T08:15:06.992Z</time></trkpt><trkpt lat="45.7212767" lon="11.249175"><ele>552.0</ele><time>2026-04-07T08:15:07.992Z</time></trkpt><trkpt lat="45.7212017" lon="11.2491433"><ele>552.0</ele><time>2026-04-07T08:15:08.991Z</time></trkpt><trkpt lat="45.7211367" lon="11.2490917"><ele>552.0</ele><time>2026-04-07T08:15:09.992Z</time></trkpt><trkpt lat="45.72108" lon="11.24904"><ele>553.0</ele><time>2026-04-07T08:15:10.992Z</time></trkpt><trkpt lat="45.721005" lon="11.2489267"><ele>554.0</ele><time>2026-04-07T08:15:12.992Z</time></trkpt><trkpt lat="45.720895" lon="11.24886"><ele>555.0</ele><time>2026-04-07T08:15:14.992Z</time></trkpt><trkpt lat="45.7207783" lon="11.2488583"><ele>556.0</ele><time>2026-04-07T08:15:16.991Z</time></trkpt><trkpt lat="45.720695" lon="11.24888"><ele>557.0</ele><time>2026-04-07T08:15:18.991Z</time></trkpt><trkpt lat="45.7206433" lon="11.2489833"><ele>553.4</ele><time>2026-04-07T08:15:21.992Z</time></trkpt><trkpt lat="45.7206833" lon="11.2491083"><ele>549.8000000000001</ele><time>2026-04-07T08:15:23.992Z</time></trkpt><trkpt lat="45.7207517" lon="11.2492467"><ele>546.2</ele><time>2026-04-07T08:15:25.991Z</time></trkpt><trkpt lat="45.720795" lon="11.2493383"><ele>542.6</ele><time>2026-04-07T08:15:26.992Z</time></trkpt><trkpt lat="45.7208567" lon="11.2494567"><ele>539.0</ele><time>2026-04-07T08:15:27.992Z</time></trkpt><trkpt lat="45.7209117" lon="11.2495817"><ele>539.0</ele><time>2026-04-07T08:15:28.991Z</time></trkpt><trkpt lat="45.7209617" lon="11.2496967"><ele>539.0</ele><time>2026-04-07T08:15:29.991Z</time></trkpt><trkpt lat="45.7210183" lon="11.2498017"><ele>539.0</ele><time>2026-04-07T08:15:30.991Z</time></trkpt><trkpt lat="45.72105" lon="11.2498917"><ele>539.0</ele><time>2026-04-07T08:15:31.991Z</time></trkpt><trkpt lat="45.7210633" lon="11.2499883"><ele>539.0</ele><time>2026-04-07T08:15:32.991Z</time></trkpt><trkpt lat="45.721065" lon="11.2501233"><ele>539.0</ele><time>2026-04-07T08:15:33.991Z</time></trkpt><trkpt lat="45.7210633" lon="11.2502867"><ele>539.75</ele><time>2026-04-07T08:15:34.992Z</time></trkpt><trkpt lat="45.7210467" lon="11.2504667"><ele>540.5</ele><time>2026-04-07T08:15:35.992Z</time></trkpt><trkpt lat="45.7210233" lon="11.2506767"><ele>541.25</ele><time>2026-04-07T08:15:36.992Z</time></trkpt><trkpt lat="45.72101" lon="11.2508633"><ele>542.0</ele><time>2026-04-07T08:15:37.992Z</time></trkpt><trkpt lat="45.7210067" lon="11.251005"><ele>542.6</ele><time>2026-04-07T08:15:38.991Z</time></trkpt><trkpt lat="45.7210167" lon="11.2511433"><ele>543.2</ele><time>2026-04-07T08:15:39.992Z</time></trkpt><trkpt lat="45.7210483" lon="11.2512833"><ele>543.8</ele><time>2026-04-07T08:15:40.992Z</time></trkpt><trkpt lat="45.7211" lon="11.2514183"><ele>544.4</ele><time>2026-04-07T08:15:41.992Z</time></trkpt><trkpt lat="45.7211867" lon="11.25157"><ele>545.0</ele><time>2026-04-07T08:15:42.991Z</time></trkpt><trkpt lat="45.7212833" lon="11.2517167"><ele>537.75</ele><time>2026-04-07T08:15:43.992Z</time></trkpt><trkpt lat="45.7213667" lon="11.2518733"><ele>530.5</ele><time>2026-04-07T08:15:44.992Z</time></trkpt><trkpt lat="45.72144" lon="11.25203"><ele>523.25</ele><time>2026-04-07T08:15:45.992Z</time></trkpt><trkpt lat="45.7215033" lon="11.252195"><ele>516.0</ele><time>2026-04-07T08:15:46.992Z</time></trkpt><trkpt lat="45.7215583" lon="11.2523533"><ele>516.0</ele><time>2026-04-07T08:15:47.991Z</time></trkpt><trkpt lat="45.7216" lon="11.252465"><ele>516.0</ele><time>2026-04-07T08:15:48.992Z</time></trkpt><trkpt lat="45.7216333" lon="11.252565"><ele>516.0</ele><time>2026-04-07T08:15:49.991Z</time></trkpt><trkpt lat="45.7216667" lon="11.2527"><ele>516.0</ele><time>2026-04-07T08:15:50.991Z</time></trkpt><trkpt lat="45.721695" lon="11.2528367"><ele>516.0</ele><time>2026-04-07T08:15:51.991Z</time></trkpt><trkpt lat="45.72171" lon="11.2529483"><ele>516.0</ele><time>2026-04-07T08:15:52.992Z</time></trkpt><trkpt lat="45.7217033" lon="11.25312"><ele>516.8333333333334</ele><time>2026-04-07T08:15:54.992Z</time></trkpt><trkpt lat="45.721665" lon="11.2531917"><ele>517.6666666666666</ele><time>2026-04-07T08:15:55.991Z</time></trkpt><trkpt lat="45.7216167" lon="11.2532783"><ele>518.5</ele><time>2026-04-07T08:15:56.992Z</time></trkpt><trkpt lat="45.721585" lon="11.2533717"><ele>519.3333333333333</ele><time>2026-04-07T08:15:57.992Z</time></trkpt><trkpt lat="45.7215733" lon="11.2534883"><ele>520.1666666666666</ele><time>2026-04-07T08:15:58.992Z</time></trkpt><trkpt lat="45.7215867" lon="11.2536167"><ele>521.0</ele><time>2026-04-07T08:15:59.992Z</time></trkpt><trkpt lat="45.7216083" lon="11.2537633"><ele>521.0</ele><time>2026-04-07T08:16:00.992Z</time></trkpt><trkpt lat="45.7216383" lon="11.2539067"><ele>521.0</ele><time>2026-04-07T08:16:01.991Z</time></trkpt><trkpt lat="45.7216917" lon="11.25403"><ele>521.0</ele><time>2026-04-07T08:16:02.992Z</time></trkpt><trkpt lat="45.7217467" lon="11.2541417"><ele>521.0</ele><time>2026-04-07T08:16:03.991Z</time></trkpt><trkpt lat="45.7218183" lon="11.2542717"><ele>521.0</ele><time>2026-04-07T08:16:04.992Z</time></trkpt><trkpt lat="45.72188" lon="11.2544183"><ele>515.25</ele><time>2026-04-07T08:16:05.992Z</time></trkpt><trkpt lat="45.721935" lon="11.25458"><ele>509.5</ele><time>2026-04-07T08:16:06.992Z</time></trkpt><trkpt lat="45.7219883" lon="11.254745"><ele>503.75</ele><time>2026-04-07T08:16:07.992Z</time></trkpt><trkpt lat="45.722035" lon="11.2549"><ele>498.0</ele><time>2026-04-07T08:16:08.992Z</time></trkpt><trkpt lat="45.7220783" lon="11.2550383"><ele>498.0</ele><time>2026-04-07T08:16:09.992Z</time></trkpt><trkpt lat="45.7221117" lon="11.2551617"><ele>498.0</ele><time>2026-04-07T08:16:10.991Z</time></trkpt><trkpt lat="45.722135" lon="11.2552933"><ele>498.0</ele><time>2026-04-07T08:16:11.991Z</time></trkpt><trkpt lat="45.7221467" lon="11.2554083"><ele>498.0</ele><time>2026-04-07T08:16:12.992Z</time></trkpt><trkpt lat="45.7221533" lon="11.2555083"><ele>498.0</ele><time>2026-04-07T08:16:13.992Z</time></trkpt><trkpt lat="45.7221767" lon="11.2556017"><ele>498.0</ele><time>2026-04-07T08:16:14.991Z</time></trkpt><trkpt lat="45.7222417" lon="11.25575"><ele>499.6666666666667</ele><time>2026-04-07T08:16:16.992Z</time></trkpt><trkpt lat="45.7223517" lon="11.2558117"><ele>501.33333333333337</ele><time>2026-04-07T08:16:18.992Z</time></trkpt><trkpt lat="45.7224267" lon="11.2558"><ele>503.0</ele><time>2026-04-07T08:16:19.992Z</time></trkpt><trkpt lat="45.7224983" lon="11.2557617"><ele>504.6666666666667</ele><time>2026-04-07T08:16:20.991Z</time></trkpt><trkpt lat="45.722565" lon="11.25574"><ele>506.33333333333337</ele><time>2026-04-07T08:16:21.991Z</time></trkpt><trkpt lat="45.72265" lon="11.2558083"><ele>508.0</ele><time>2026-04-07T08:16:23.992Z</time></trkpt><trkpt lat="45.7227033" lon="11.25599"><ele>508.0</ele><time>2026-04-07T08:16:25.991Z</time></trkpt><trkpt lat="45.7227267" lon="11.2561167"><ele>508.0</ele><time>2026-04-07T08:16:26.991Z</time></trkpt><trkpt lat="45.7227517" lon="11.2562967"><ele>508.0</ele><time>2026-04-07T08:16:27.991Z</time></trkpt><trkpt lat="45.7227733" lon="11.2564967"><ele>508.0</ele><time>2026-04-07T08:16:28.992Z</time></trkpt><trkpt lat="45.7228067" lon="11.2566783"><ele>499.25</ele><time>2026-04-07T08:16:29.992Z</time></trkpt><trkpt lat="45.72286" lon="11.2568533"><ele>490.5</ele><time>2026-04-07T08:16:30.992Z</time></trkpt><trkpt lat="45.722915" lon="11.25701"><ele>481.75</ele><time>2026-04-07T08:16:31.992Z</time></trkpt><trkpt lat="45.72297" lon="11.257155"><ele>473.0</ele><time>2026-04-07T08:16:32.991Z</time></trkpt><trkpt lat="45.7230233" lon="11.25728"><ele>475.59999999999997</ele><time>2026-04-07T08:16:33.992Z</time></trkpt><trkpt lat="45.72307" lon="11.2573983"><ele>478.19999999999993</ele><time>2026-04-07T08:16:34.992Z</time></trkpt><trkpt lat="45.7231183" lon="11.2575333"><ele>480.8</ele><time>2026-04-07T08:16:35.992Z</time></trkpt><trkpt lat="45.7231817" lon="11.2576833"><ele>483.4</ele><time>2026-04-07T08:16:36.991Z</time></trkpt><trkpt lat="45.7232433" lon="11.257825"><ele>486.0</ele><time>2026-04-07T08:16:37.992Z</time></trkpt><trkpt lat="45.7232933" lon="11.2579567"><ele>486.0</ele><time>2026-04-07T08:16:38.992Z</time></trkpt><trkpt lat="45.72334" lon="11.25809"><ele>486.0</ele><time>2026-04-07T08:16:39.992Z</time></trkpt><trkpt lat="45.72338" lon="11.25826"><ele>486.0</ele><time>2026-04-07T08:16:40.992Z</time></trkpt><trkpt lat="45.7234117" lon="11.25845"><ele>486.0</ele><time>2026-04-07T08:16:41.992Z</time></trkpt><trkpt lat="45.7234517" lon="11.2586383"><ele>486.4</ele><time>2026-04-07T08:16:42.992Z</time></trkpt><trkpt lat="45.7234883" lon="11.2588067"><ele>486.8</ele><time>2026-04-07T08:16:43.992Z</time></trkpt><trkpt lat="45.72352" lon="11.258955"><ele>487.19999999999993</ele><time>2026-04-07T08:16:44.992Z</time></trkpt><trkpt lat="45.723545" lon="11.25908"><ele>487.59999999999997</ele><time>2026-04-07T08:16:45.992Z</time></trkpt><trkpt lat="45.7235483" lon="11.2591833"><ele>488.0</ele><time>2026-04-07T08:16:46.992Z</time></trkpt><trkpt lat="45.723515" lon="11.25933"><ele>487.99999999999994</ele><time>2026-04-07T08:16:48.992Z</time></trkpt><trkpt lat="45.72344" lon="11.2593933"><ele>488.0</ele><time>2026-04-07T08:16:50.991Z</time></trkpt><trkpt lat="45.7233767" lon="11.2593817"><ele>488.0</ele><time>2026-04-07T08:16:52.991Z</time></trkpt><trkpt lat="45.7233033" lon="11.2593183"><ele>488.0</ele><time>2026-04-07T08:16:54.991Z</time></trkpt><trkpt lat="45.7231817" lon="11.2592517"><ele>487.99999999999994</ele><time>2026-04-07T08:16:56.992Z</time></trkpt><trkpt lat="45.723105" lon="11.2592133"><ele>488.0</ele><time>2026-04-07T08:16:57.991Z</time></trkpt><trkpt lat="45.7230267" lon="11.259175"><ele>487.99999999999994</ele><time>2026-04-07T08:16:58.991Z</time></trkpt><trkpt lat="45.7229467" lon="11.25914"><ele>488.0</ele><time>2026-04-07T08:16:59.992Z</time></trkpt><trkpt lat="45.7228667" lon="11.2591083"><ele>488.0</ele><time>2026-04-07T08:17:00.992Z</time></trkpt><trkpt lat="45.7228" lon="11.2590733"><ele>488.0</ele><time>2026-04-07T08:17:01.992Z</time></trkpt><trkpt lat="45.72273" lon="11.25902"><ele>487.99999999999994</ele><time>2026-04-07T08:17:02.991Z</time></trkpt><trkpt lat="45.7226533" lon="11.2589467"><ele>488.0</ele><time>2026-04-07T08:17:03.991Z</time></trkpt><trkpt lat="45.7225617" lon="11.25886"><ele>494.4</ele><time>2026-04-07T08:17:04.991Z</time></trkpt><trkpt lat="45.722465" lon="11.258775"><ele>500.79999999999995</ele><time>2026-04-07T08:17:05.992Z</time></trkpt><trkpt lat="45.7223783" lon="11.2586783"><ele>507.2</ele><time>2026-04-07T08:17:06.992Z</time></trkpt><trkpt lat="45.722295" lon="11.25856"><ele>513.6</ele><time>2026-04-07T08:17:07.991Z</time></trkpt><trkpt lat="45.7222233" lon="11.2584483"><ele>520.0</ele><time>2026-04-07T08:17:08.992Z</time></trkpt><trkpt lat="45.7221733" lon="11.25835"><ele>520.0</ele><time>2026-04-07T08:17:09.992Z</time></trkpt><trkpt lat="45.7221383" lon="11.25826"><ele>520.0</ele><time>2026-04-07T08:17:10.992Z</time></trkpt><trkpt lat="45.7221233" lon="11.258155"><ele>520.0</ele><time>2026-04-07T08:17:11.992Z</time></trkpt><trkpt lat="45.722105" lon="11.2580433"><ele>520.0</ele><time>2026-04-07T08:17:12.992Z</time></trkpt><trkpt lat="45.722075" lon="11.2579583"><ele>520.0</ele><time>2026-04-07T08:17:13.991Z</time></trkpt><trkpt lat="45.7220317" lon="11.257885"><ele>520.0</ele><time>2026-04-07T08:17:14.991Z</time></trkpt><trkpt lat="45.7219433" lon="11.2578317"><ele>522.2</ele><time>2026-04-07T08:17:16.991Z</time></trkpt><trkpt lat="45.7218433" lon="11.2579383"><ele>524.4</ele><time>2026-04-07T08:17:18.992Z</time></trkpt><trkpt lat="45.7217933" lon="11.2580417"><ele>526.6</ele><time>2026-04-07T08:17:19.992Z</time></trkpt><trkpt lat="45.7217333" lon="11.2581633"><ele>528.8</ele><time>2026-04-07T08:17:20.992Z</time></trkpt><trkpt lat="45.7216667" lon="11.258235"><ele>531.0</ele><time>2026-04-07T08:17:21.991Z</time></trkpt><trkpt lat="45.7215967" lon="11.2582817"><ele>531.0</ele><time>2026-04-07T08:17:22.991Z</time></trkpt><trkpt lat="45.7215283" lon="11.2582917"><ele>531.0</ele><time>2026-04-07T08:17:23.992Z</time></trkpt><trkpt lat="45.721445" lon="11.2582667"><ele>531.0</ele><time>2026-04-07T08:17:24.992Z</time></trkpt><trkpt lat="45.7213467" lon="11.2582017"><ele>531.0</ele><time>2026-04-07T08:17:25.992Z</time></trkpt><trkpt lat="45.7212383" lon="11.2581283"><ele>531.0</ele><time>2026-04-07T08:17:26.992Z</time></trkpt><trkpt lat="45.7211417" lon="11.2580383"><ele>529.2</ele><time>2026-04-07T08:17:27.991Z</time></trkpt><trkpt lat="45.7210583" lon="11.2579233"><ele>527.4000000000001</ele><time>2026-04-07T08:17:28.991Z</time></trkpt><trkpt lat="45.720975" lon="11.2578267"><ele>525.6</ele><time>2026-04-07T08:17:29.992Z</time></trkpt><trkpt lat="45.72091" lon="11.25775"><ele>523.8000000000001</ele><time>2026-04-07T08:17:30.992Z</time></trkpt><trkpt lat="45.7208517" lon="11.2577017"><ele>522.0</ele><time>2026-04-07T08:17:31.992Z</time></trkpt><trkpt lat="45.720785" lon="11.2575533"><ele>522.0</ele><time>2026-04-07T08:17:33.992Z</time></trkpt><trkpt lat="45.7207" lon="11.25742"><ele>522.0</ele><time>2026-04-07T08:17:35.991Z</time></trkpt><trkpt lat="45.72057" lon="11.2573633"><ele>522.0</ele><time>2026-04-07T08:17:37.991Z</time></trkpt><trkpt lat="45.720475" lon="11.2573217"><ele>522.0</ele><time>2026-04-07T08:17:38.991Z</time></trkpt><trkpt lat="45.720375" lon="11.257275"><ele>525.2</ele><time>2026-04-07T08:17:39.991Z</time></trkpt><trkpt lat="45.720275" lon="11.2572267"><ele>528.4000000000001</ele><time>2026-04-07T08:17:40.991Z</time></trkpt><trkpt lat="45.72018" lon="11.2571767"><ele>531.5999999999999</ele><time>2026-04-07T08:17:41.992Z</time></trkpt><trkpt lat="45.7200883" lon="11.2571117"><ele>534.8</ele><time>2026-04-07T08:17:42.992Z</time></trkpt><trkpt lat="45.720015" lon="11.2570333"><ele>538.0</ele><time>2026-04-07T08:17:43.992Z</time></trkpt><trkpt lat="45.719935" lon="11.2569567"><ele>538.0</ele><time>2026-04-07T08:17:44.991Z</time></trkpt><trkpt lat="45.7198417" lon="11.2569017"><ele>538.0</ele><time>2026-04-07T08:17:45.992Z</time></trkpt><trkpt lat="45.7197467" lon="11.25686"><ele>538.0</ele><time>2026-04-07T08:17:46.992Z</time></trkpt><trkpt lat="45.7196483" lon="11.2568317"><ele>538.0</ele><time>2026-04-07T08:17:47.992Z</time></trkpt><trkpt lat="45.71956" lon="11.25681"><ele>538.0</ele><time>2026-04-07T08:17:48.992Z</time></trkpt><trkpt lat="45.7194817" lon="11.2567917"><ele>538.0</ele><time>2026-04-07T08:17:49.992Z</time></trkpt><trkpt lat="45.719415" lon="11.2567867"><ele>538.0</ele><time>2026-04-07T08:17:50.991Z</time></trkpt><trkpt lat="45.7193067" lon="11.2568533"><ele>538.0</ele><time>2026-04-07T08:17:52.992Z</time></trkpt><trkpt lat="45.7192967" lon="11.2569833"><ele>538.0</ele><time>2026-04-07T08:17:54.992Z</time></trkpt><trkpt lat="45.71934" lon="11.257165"><ele>538.0</ele><time>2026-04-07T08:17:56.991Z</time></trkpt><trkpt lat="45.71938" lon="11.2572517"><ele>532.4</ele><time>2026-04-07T08:17:57.991Z</time></trkpt><trkpt lat="45.7194383" lon="11.2573333"><ele>526.8</ele><time>2026-04-07T08:17:58.992Z</time></trkpt><trkpt lat="45.7195117" lon="11.2574233"><ele>521.2</ele><time>2026-04-07T08:17:59.992Z</time></trkpt><trkpt lat="45.7195933" lon="11.2575067"><ele>515.6</ele><time>2026-04-07T08:18:00.991Z</time></trkpt><trkpt lat="45.7196733" lon="11.257595"><ele>510.0</ele><time>2026-04-07T08:18:01.991Z</time></trkpt><trkpt lat="45.7197483" lon="11.2576867"><ele>510.0</ele><time>2026-04-07T08:18:02.992Z</time></trkpt><trkpt lat="45.7198183" lon="11.2577917"><ele>510.0</ele><time>2026-04-07T08:18:03.992Z</time></trkpt><trkpt lat="45.7198767" lon="11.2579217"><ele>510.0</ele><time>2026-04-07T08:18:04.992Z</time></trkpt><trkpt lat="45.7199383" lon="11.2580717"><ele>510.0</ele><time>2026-04-07T08:18:05.992Z</time></trkpt><trkpt lat="45.7200167" lon="11.2582217"><ele>510.0</ele><time>2026-04-07T08:18:06.991Z</time></trkpt><trkpt lat="45.720095" lon="11.2583533"><ele>510.0</ele><time>2026-04-07T08:18:07.992Z</time></trkpt><trkpt lat="45.72017" lon="11.2584767"><ele>510.0</ele><time>2026-04-07T08:18:08.992Z</time></trkpt><trkpt lat="45.720235" lon="11.2585883"><ele>510.0</ele><time>2026-04-07T08:18:09.992Z</time></trkpt><trkpt lat="45.7203" lon="11.2586967"><ele>510.0</ele><time>2026-04-07T08:18:10.992Z</time></trkpt><trkpt lat="45.720365" lon="11.2587967"><ele>507.6</ele><time>2026-04-07T08:18:11.992Z</time></trkpt><trkpt lat="45.720425" lon="11.2589033"><ele>505.2</ele><time>2026-04-07T08:18:12.992Z</time></trkpt><trkpt lat="45.7204767" lon="11.259"><ele>502.79999999999995</ele><time>2026-04-07T08:18:13.992Z</time></trkpt><trkpt lat="45.7205233" lon="11.2591167"><ele>500.4</ele><time>2026-04-07T08:18:14.992Z</time></trkpt><trkpt lat="45.720565" lon="11.2592517"><ele>498.0</ele><time>2026-04-07T08:18:15.992Z</time></trkpt><trkpt lat="45.7206083" lon="11.25938"><ele>498.0</ele><time>2026-04-07T08:18:16.992Z</time></trkpt><trkpt lat="45.7206683" lon="11.2595017"><ele>497.99999999999994</ele><time>2026-04-07T08:18:17.992Z</time></trkpt><trkpt lat="45.7207317" lon="11.2596017"><ele>497.99999999999994</ele><time>2026-04-07T08:18:18.991Z</time></trkpt><trkpt lat="45.7208033" lon="11.2596867"><ele>498.0</ele><time>2026-04-07T08:18:19.992Z</time></trkpt><trkpt lat="45.720885" lon="11.2597817"><ele>498.0</ele><time>2026-04-07T08:18:20.991Z</time></trkpt><trkpt lat="45.7209683" lon="11.2598867"><ele>498.0</ele><time>2026-04-07T08:18:21.991Z</time></trkpt><trkpt lat="45.7210567" lon="11.260015"><ele>497.99999999999994</ele><time>2026-04-07T08:18:22.992Z</time></trkpt><trkpt lat="45.72112" lon="11.2601217"><ele>497.99999999999994</ele><time>2026-04-07T08:18:23.991Z</time></trkpt><trkpt lat="45.72116" lon="11.260225"><ele>498.0</ele><time>2026-04-07T08:18:24.991Z</time></trkpt><trkpt lat="45.7211983" lon="11.2603117"><ele>498.0</ele><time>2026-04-07T08:18:25.992Z</time></trkpt><trkpt lat="45.721285" lon="11.2604117"><ele>497.0</ele><time>2026-04-07T08:18:27.991Z</time></trkpt><trkpt lat="45.7213483" lon="11.260435"><ele>495.99999999999994</ele><time>2026-04-07T08:18:28.992Z</time></trkpt><trkpt lat="45.72143" lon="11.2604717"><ele>494.99999999999994</ele><time>2026-04-07T08:18:29.991Z</time></trkpt><trkpt lat="45.7215133" lon="11.2605333"><ele>494.0</ele><time>2026-04-07T08:18:30.992Z</time></trkpt><trkpt lat="45.7216083" lon="11.260625"><ele>493.0</ele><time>2026-04-07T08:18:31.992Z</time></trkpt><trkpt lat="45.7217117" lon="11.260725"><ele>493.0</ele><time>2026-04-07T08:18:32.992Z</time></trkpt><trkpt lat="45.7218167" lon="11.260815"><ele>492.99999999999994</ele><time>2026-04-07T08:18:33.991Z</time></trkpt><trkpt lat="45.7219267" lon="11.260895"><ele>492.99999999999994</ele><time>2026-04-07T08:18:34.992Z</time></trkpt><trkpt lat="45.7220033" lon="11.2609617"><ele>493.0</ele><time>2026-04-07T08:18:35.992Z</time></trkpt><trkpt lat="45.722095" lon="11.26103"><ele>493.0</ele><time>2026-04-07T08:18:36.991Z</time></trkpt><trkpt lat="45.722155" lon="11.2610867"><ele>487.6666666666667</ele><time>2026-04-07T08:18:37.992Z</time></trkpt><trkpt lat="45.722205" lon="11.2611433"><ele>482.33333333333337</ele><time>2026-04-07T08:18:38.991Z</time></trkpt><trkpt lat="45.722265" lon="11.26127"><ele>477.0</ele><time>2026-04-07T08:18:40.992Z</time></trkpt><trkpt lat="45.7222833" lon="11.2614283"><ele>471.66666666666663</ele><time>2026-04-07T08:18:42.992Z</time></trkpt><trkpt lat="45.7222867" lon="11.2615417"><ele>466.3333333333333</ele><time>2026-04-07T08:18:43.991Z</time></trkpt><trkpt lat="45.7222983" lon="11.2616533"><ele>461.0</ele><time>2026-04-07T08:18:44.992Z</time></trkpt><trkpt lat="45.72232" lon="11.2617733"><ele>460.99999999999994</ele><time>2026-04-07T08:18:45.992Z</time></trkpt><trkpt lat="45.7223367" lon="11.2618833"><ele>461.0</ele><time>2026-04-07T08:18:46.992Z</time></trkpt><trkpt lat="45.722325" lon="11.2619733"><ele>461.0</ele><time>2026-04-07T08:18:47.992Z</time></trkpt><trkpt lat="45.7222983" lon="11.2620633"><ele>461.0</ele><time>2026-04-07T08:18:48.992Z</time></trkpt><trkpt lat="45.722255" lon="11.262155"><ele>460.99999999999994</ele><time>2026-04-07T08:18:49.992Z</time></trkpt><trkpt lat="45.7221967" lon="11.2622417"><ele>461.0</ele><time>2026-04-07T08:18:50.992Z</time></trkpt><trkpt lat="45.7221367" lon="11.2623517"><ele>460.6</ele><time>2026-04-07T08:18:51.992Z</time></trkpt><trkpt lat="45.7220917" lon="11.262475"><ele>460.20000000000005</ele><time>2026-04-07T08:18:52.992Z</time></trkpt><trkpt lat="45.7220633" lon="11.2625967"><ele>459.79999999999995</ele><time>2026-04-07T08:18:53.991Z</time></trkpt><trkpt lat="45.7220583" lon="11.26274"><ele>459.4</ele><time>2026-04-07T08:18:54.991Z</time></trkpt><trkpt lat="45.7220633" lon="11.262875"><ele>459.0</ele><time>2026-04-07T08:18:55.991Z</time></trkpt><trkpt lat="45.72205" lon="11.2629883"><ele>459.0</ele><time>2026-04-07T08:18:56.992Z</time></trkpt><trkpt lat="45.722025" lon="11.263085"><ele>459.0</ele><time>2026-04-07T08:18:57.992Z</time></trkpt><trkpt lat="45.7219867" lon="11.2631733"><ele>459.0</ele><time>2026-04-07T08:18:58.991Z</time></trkpt><trkpt lat="45.7219467" lon="11.2632467"><ele>459.0</ele><time>2026-04-07T08:18:59.992Z</time></trkpt><trkpt lat="45.7219417" lon="11.2633917"><ele>459.0</ele><time>2026-04-07T08:19:01.991Z</time></trkpt><trkpt lat="45.7219733" lon="11.2634717"><ele>459.0</ele><time>2026-04-07T08:19:02.991Z</time></trkpt><trkpt lat="45.72203" lon="11.2635517"><ele>458.8333333333333</ele><time>2026-04-07T08:19:03.991Z</time></trkpt><trkpt lat="45.7220833" lon="11.2636233"><ele>458.66666666666663</ele><time>2026-04-07T08:19:04.992Z</time></trkpt><trkpt lat="45.7221333" lon="11.2637133"><ele>458.5</ele><time>2026-04-07T08:19:05.992Z</time></trkpt><trkpt lat="45.7221733" lon="11.2638067"><ele>458.3333333333333</ele><time>2026-04-07T08:19:06.991Z</time></trkpt><trkpt lat="45.7221967" lon="11.2639333"><ele>458.16666666666663</ele><time>2026-04-07T08:19:07.991Z</time></trkpt><trkpt lat="45.7222083" lon="11.2640783"><ele>458.0</ele><time>2026-04-07T08:19:08.991Z</time></trkpt><trkpt lat="45.72222" lon="11.264185"><ele>458.59999999999997</ele><time>2026-04-07T08:19:09.992Z</time></trkpt><trkpt lat="45.72222" lon="11.2642917"><ele>459.19999999999993</ele><time>2026-04-07T08:19:11.992Z</time></trkpt><trkpt lat="45.7221233" lon="11.2642883"><ele>459.8</ele><time>2026-04-07T08:21:55.991Z</time></trkpt><trkpt lat="45.7220133" lon="11.26431"><ele>460.4</ele><time>2026-04-07T08:21:57.991Z</time></trkpt><trkpt lat="45.7219283" lon="11.2643183"><ele>461.0</ele><time>2026-04-07T08:21:58.991Z</time></trkpt><trkpt lat="45.721825" lon="11.2643333"><ele>463.8</ele><time>2026-04-07T08:21:59.991Z</time></trkpt><trkpt lat="45.7217367" lon="11.26434"><ele>466.6</ele><time>2026-04-07T08:22:00.991Z</time></trkpt><trkpt lat="45.721655" lon="11.2643233"><ele>469.4</ele><time>2026-04-07T08:22:01.991Z</time></trkpt><trkpt lat="45.7215683" lon="11.2642983"><ele>472.2</ele><time>2026-04-07T08:22:02.99Z</time></trkpt><trkpt lat="45.7214567" lon="11.2642583"><ele>475.0</ele><time>2026-04-07T08:22:03.99Z</time></trkpt><trkpt lat="45.7213267" lon="11.2642267"><ele>475.0</ele><time>2026-04-07T08:22:04.991Z</time></trkpt><trkpt lat="45.721195" lon="11.2641933"><ele>475.0</ele><time>2026-04-07T08:22:05.991Z</time></trkpt><trkpt lat="45.721065" lon="11.2641867"><ele>475.0</ele><time>2026-04-07T08:22:06.991Z</time></trkpt><trkpt lat="45.720945" lon="11.2641783"><ele>475.0</ele><time>2026-04-07T08:22:07.991Z</time></trkpt><trkpt lat="45.720825" lon="11.26416"><ele>474.50000000000006</ele><time>2026-04-07T08:22:08.991Z</time></trkpt><trkpt lat="45.7207283" lon="11.2641383"><ele>474.0</ele><time>2026-04-07T08:22:09.991Z</time></trkpt><trkpt lat="45.720645" lon="11.264115"><ele>473.5</ele><time>2026-04-07T08:22:10.991Z</time></trkpt><trkpt lat="45.7205433" lon="11.26414"><ele>473.0</ele><time>2026-04-07T08:22:12.991Z</time></trkpt><trkpt lat="45.7205083" lon="11.264265"><ele>472.50000000000006</ele><time>2026-04-07T08:22:14.991Z</time></trkpt><trkpt lat="45.720525" lon="11.2643567"><ele>472.0</ele><time>2026-04-07T08:22:15.99Z</time></trkpt><trkpt lat="45.720555" lon="11.2644467"><ele>472.0</ele><time>2026-04-07T08:22:16.99Z</time></trkpt><trkpt lat="45.7206" lon="11.2645533"><ele>472.00000000000006</ele><time>2026-04-07T08:22:17.99Z</time></trkpt><trkpt lat="45.720645" lon="11.2646767"><ele>472.00000000000006</ele><time>2026-04-07T08:22:18.991Z</time></trkpt><trkpt lat="45.7206883" lon="11.26479"><ele>472.0</ele><time>2026-04-07T08:22:19.99Z</time></trkpt><trkpt lat="45.7207367" lon="11.2649083"><ele>472.0</ele><time>2026-04-07T08:22:20.991Z</time></trkpt><trkpt lat="45.720785" lon="11.2650183"><ele>471.40000000000003</ele><time>2026-04-07T08:22:21.991Z</time></trkpt><trkpt lat="45.7208383" lon="11.2651333"><ele>470.80000000000007</ele><time>2026-04-07T08:22:22.991Z</time></trkpt><trkpt lat="45.72091" lon="11.265245"><ele>470.2</ele><time>2026-04-07T08:22:23.991Z</time></trkpt><trkpt lat="45.7209533" lon="11.2653583"><ele>469.6</ele><time>2026-04-07T08:22:24.991Z</time></trkpt><trkpt lat="45.7209583" lon="11.2655017"><ele>469.0</ele><time>2026-04-07T08:22:25.991Z</time></trkpt><trkpt lat="45.7209367" lon="11.2656733"><ele>470.6666666666667</ele><time>2026-04-07T08:22:26.991Z</time></trkpt><trkpt lat="45.720905" lon="11.26582"><ele>472.33333333333337</ele><time>2026-04-07T08:22:27.991Z</time></trkpt><trkpt lat="45.720885" lon="11.265935"><ele>474.0</ele><time>2026-04-07T08:22:28.99Z</time></trkpt><trkpt lat="45.720875" lon="11.2660483"><ele>475.66666666666663</ele><time>2026-04-07T08:22:29.99Z</time></trkpt><trkpt lat="45.7208617" lon="11.2661633"><ele>477.3333333333333</ele><time>2026-04-07T08:22:30.991Z</time></trkpt><trkpt lat="45.7208483" lon="11.2662783"><ele>479.0</ele><time>2026-04-07T08:22:31.99Z</time></trkpt><trkpt lat="45.720845" lon="11.2663983"><ele>479.99999999999994</ele><time>2026-04-07T08:22:32.991Z</time></trkpt><trkpt lat="45.72082" lon="11.2665183"><ele>481.0</ele><time>2026-04-07T08:22:33.99Z</time></trkpt><trkpt lat="45.7207917" lon="11.26663"><ele>482.0</ele><time>2026-04-07T08:22:34.99Z</time></trkpt><trkpt lat="45.7207717" lon="11.2667233"><ele>483.0</ele><time>2026-04-07T08:22:35.99Z</time></trkpt><trkpt lat="45.7207533" lon="11.2668117"><ele>483.99999999999994</ele><time>2026-04-07T08:22:36.991Z</time></trkpt><trkpt lat="45.72075" lon="11.266975"><ele>485.0</ele><time>2026-04-07T08:22:38.991Z</time></trkpt><trkpt lat="45.7207533" lon="11.2671467"><ele>484.99999999999994</ele><time>2026-04-07T08:22:40.991Z</time></trkpt><trkpt lat="45.7207517" lon="11.2672717"><ele>485.0</ele><time>2026-04-07T08:22:42.99Z</time></trkpt><trkpt lat="45.7207467" lon="11.26739"><ele>485.0</ele><time>2026-04-07T08:22:44.99Z</time></trkpt><trkpt lat="45.7207417" lon="11.26749"><ele>485.0</ele><time>2026-04-07T08:22:46.991Z</time></trkpt><trkpt lat="45.72075" lon="11.2676383"><ele>484.99999999999994</ele><time>2026-04-07T08:23:01.991Z</time></trkpt><trkpt lat="45.72075" lon="11.2677317"><ele>485.0</ele><time>2026-04-07T08:23:02.99Z</time></trkpt><trkpt lat="45.7207417" lon="11.267825"><ele>485.0</ele><time>2026-04-07T08:23:03.991Z</time></trkpt><trkpt lat="45.720725" lon="11.2679317"><ele>485.0</ele><time>2026-04-07T08:23:04.99Z</time></trkpt><trkpt lat="45.7207" lon="11.2680633"><ele>485.0</ele><time>2026-04-07T08:23:05.991Z</time></trkpt><trkpt lat="45.720665" lon="11.2682083"><ele>485.0</ele><time>2026-04-07T08:23:06.991Z</time></trkpt><trkpt lat="45.72062" lon="11.268365"><ele>485.0</ele><time>2026-04-07T08:23:07.991Z</time></trkpt><trkpt lat="45.72058" lon="11.2685517"><ele>485.0</ele><time>2026-04-07T08:23:08.991Z</time></trkpt><trkpt lat="45.7205533" lon="11.2687467"><ele>485.0</ele><time>2026-04-07T08:23:09.99Z</time></trkpt><trkpt lat="45.7205417" lon="11.2689417"><ele>485.0</ele><time>2026-04-07T08:23:10.991Z</time></trkpt><trkpt lat="45.72054" lon="11.269105"><ele>485.0</ele><time>2026-04-07T08:23:11.99Z</time></trkpt><trkpt lat="45.7205433" lon="11.2692417"><ele>484.49999999999994</ele><time>2026-04-07T08:23:12.99Z</time></trkpt><trkpt lat="45.7205467" lon="11.2693533"><ele>484.0</ele><time>2026-04-07T08:23:13.99Z</time></trkpt><trkpt lat="45.720545" lon="11.2694567"><ele>483.5</ele><time>2026-04-07T08:23:14.991Z</time></trkpt><trkpt lat="45.7205517" lon="11.2695517"><ele>483.0</ele><time>2026-04-07T08:23:15.991Z</time></trkpt><trkpt lat="45.7205767" lon="11.269655"><ele>482.49999999999994</ele><time>2026-04-07T08:23:16.991Z</time></trkpt><trkpt lat="45.72063" lon="11.26978"><ele>482.0</ele><time>2026-04-07T08:23:17.99Z</time></trkpt><trkpt lat="45.7207017" lon="11.26989"><ele>483.3333333333333</ele><time>2026-04-07T08:23:18.99Z</time></trkpt><trkpt lat="45.72076" lon="11.2699783"><ele>484.66666666666663</ele><time>2026-04-07T08:23:19.991Z</time></trkpt><trkpt lat="45.7208183" lon="11.2700717"><ele>486.0</ele><time>2026-04-07T08:23:20.99Z</time></trkpt><trkpt lat="45.7208633" lon="11.2701367"><ele>487.33333333333337</ele><time>2026-04-07T08:23:21.991Z</time></trkpt><trkpt lat="45.7208833" lon="11.270235"><ele>488.6666666666667</ele><time>2026-04-07T08:23:23.991Z</time></trkpt><trkpt lat="45.7208117" lon="11.2703083"><ele>490.0</ele><time>2026-04-07T08:23:25.991Z</time></trkpt><trkpt lat="45.7208117" lon="11.2704367"><ele>490.0</ele><time>2026-04-07T08:23:27.991Z</time></trkpt><trkpt lat="45.7209017" lon="11.2705583"><ele>490.0</ele><time>2026-04-07T08:23:29.991Z</time></trkpt><trkpt lat="45.7209633" lon="11.27063"><ele>490.0</ele><time>2026-04-07T08:23:30.991Z</time></trkpt><trkpt lat="45.7210267" lon="11.2707333"><ele>490.0</ele><time>2026-04-07T08:23:31.991Z</time></trkpt><trkpt lat="45.7210883" lon="11.2708633"><ele>490.0</ele><time>2026-04-07T08:23:32.991Z</time></trkpt><trkpt lat="45.721155" lon="11.2710183"><ele>486.0</ele><time>2026-04-07T08:23:33.99Z</time></trkpt><trkpt lat="45.7212267" lon="11.2711583"><ele>482.0</ele><time>2026-04-07T08:23:34.991Z</time></trkpt><trkpt lat="45.721285" lon="11.27129"><ele>478.0</ele><time>2026-04-07T08:23:35.99Z</time></trkpt><trkpt lat="45.72131" lon="11.27142"><ele>474.0</ele><time>2026-04-07T08:23:36.991Z</time></trkpt><trkpt lat="45.7213033" lon="11.2715317"><ele>470.0</ele><time>2026-04-07T08:23:37.991Z</time></trkpt><trkpt lat="45.7212833" lon="11.2716183"><ele>469.5</ele><time>2026-04-07T08:23:38.991Z</time></trkpt><trkpt lat="45.72118" lon="11.2717183"><ele>469.0</ele><time>2026-04-07T08:23:40.99Z</time></trkpt><trkpt lat="45.7210883" lon="11.2717383"><ele>468.5</ele><time>2026-04-07T08:23:41.99Z</time></trkpt><trkpt lat="45.720965" lon="11.27176"><ele>468.0</ele><time>2026-04-07T08:23:42.99Z</time></trkpt><trkpt lat="45.7208383" lon="11.27177"><ele>472.0</ele><time>2026-04-07T08:23:43.99Z</time></trkpt><trkpt lat="45.7207083" lon="11.2717567"><ele>476.0</ele><time>2026-04-07T08:23:44.99Z</time></trkpt><trkpt lat="45.7205867" lon="11.271715"><ele>480.0</ele><time>2026-04-07T08:23:45.991Z</time></trkpt><trkpt lat="45.7204617" lon="11.271645"><ele>484.0</ele><time>2026-04-07T08:23:46.991Z</time></trkpt><trkpt lat="45.7203333" lon="11.271575"><ele>484.0</ele><time>2026-04-07T08:23:47.99Z</time></trkpt><trkpt lat="45.7202233" lon="11.2715183"><ele>484.0</ele><time>2026-04-07T08:23:48.991Z</time></trkpt><trkpt lat="45.7201183" lon="11.2714883"><ele>484.0</ele><time>2026-04-07T08:23:49.991Z</time></trkpt><trkpt lat="45.720015" lon="11.2714867"><ele>484.0</ele><time>2026-04-07T08:23:50.991Z</time></trkpt><trkpt lat="45.7199367" lon="11.2715167"><ele>484.0</ele><time>2026-04-07T08:23:51.991Z</time></trkpt><trkpt lat="45.719875" lon="11.271545"><ele>484.0</ele><time>2026-04-07T08:23:52.99Z</time></trkpt><trkpt lat="45.7198083" lon="11.2716283"><ele>484.0</ele><time>2026-04-07T08:23:54.991Z</time></trkpt><trkpt lat="45.71976" lon="11.2717917"><ele>484.0</ele><time>2026-04-07T08:23:56.991Z</time></trkpt><trkpt lat="45.7197517" lon="11.27192"><ele>484.0</ele><time>2026-04-07T08:23:57.991Z</time></trkpt><trkpt lat="45.7197633" lon="11.2721033"><ele>484.0</ele><time>2026-04-07T08:23:58.991Z</time></trkpt><trkpt lat="45.7198017" lon="11.2723267"><ele>483.25</ele><time>2026-04-07T08:23:59.991Z</time></trkpt><trkpt lat="45.7198383" lon="11.27253"><ele>482.5</ele><time>2026-04-07T08:24:00.991Z</time></trkpt><trkpt lat="45.7198617" lon="11.272725"><ele>481.75</ele><time>2026-04-07T08:24:01.991Z</time></trkpt><trkpt lat="45.719865" lon="11.2729333"><ele>481.0</ele><time>2026-04-07T08:24:02.99Z</time></trkpt><trkpt lat="45.71988" lon="11.2731667"><ele>481.0</ele><time>2026-04-07T08:24:03.991Z</time></trkpt><trkpt lat="45.719905" lon="11.2733717"><ele>481.0</ele><time>2026-04-07T08:24:04.99Z</time></trkpt><trkpt lat="45.7199217" lon="11.2735483"><ele>481.0</ele><time>2026-04-07T08:24:05.991Z</time></trkpt><trkpt lat="45.7199333" lon="11.2737017"><ele>481.0</ele><time>2026-04-07T08:24:06.99Z</time></trkpt><trkpt lat="45.7199433" lon="11.2738333"><ele>481.6</ele><time>2026-04-07T08:24:07.989Z</time></trkpt><trkpt lat="45.7199383" lon="11.273965"><ele>482.20000000000005</ele><time>2026-04-07T08:24:08.989Z</time></trkpt><trkpt lat="45.7199217" lon="11.2740733"><ele>482.79999999999995</ele><time>2026-04-07T08:24:09.99Z</time></trkpt><trkpt lat="45.7198967" lon="11.2741733"><ele>483.4</ele><time>2026-04-07T08:24:10.989Z</time></trkpt><trkpt lat="45.719825" lon="11.2743117"><ele>484.0</ele><time>2026-04-07T08:24:12.99Z</time></trkpt><trkpt lat="45.719745" lon="11.2744317"><ele>484.0</ele><time>2026-04-07T08:24:14.99Z</time></trkpt><trkpt lat="45.7196983" lon="11.2745"><ele>483.99999999999994</ele><time>2026-04-07T08:24:15.989Z</time></trkpt><trkpt lat="45.7196533" lon="11.274575"><ele>484.0</ele><time>2026-04-07T08:24:16.99Z</time></trkpt><trkpt lat="45.7196" lon="11.2746467"><ele>484.0</ele><time>2026-04-07T08:24:17.99Z</time></trkpt><trkpt lat="45.7195467" lon="11.2747217"><ele>483.99999999999994</ele><time>2026-04-07T08:24:18.989Z</time></trkpt><trkpt lat="45.7194967" lon="11.274785"><ele>484.0</ele><time>2026-04-07T08:24:19.989Z</time></trkpt><trkpt lat="45.719445" lon="11.274845"><ele>484.0</ele><time>2026-04-07T08:24:20.99Z</time></trkpt><trkpt lat="45.719335" lon="11.2749033"><ele>485.1666666666667</ele><time>2026-04-07T08:24:22.99Z</time></trkpt><trkpt lat="45.7192367" lon="11.2748083"><ele>486.33333333333337</ele><time>2026-04-07T08:24:24.99Z</time></trkpt><trkpt lat="45.7192" lon="11.2747017"><ele>487.5</ele><time>2026-04-07T08:24:25.99Z</time></trkpt><trkpt lat="45.7191783" lon="11.2746117"><ele>488.66666666666663</ele><time>2026-04-07T08:24:26.99Z</time></trkpt><trkpt lat="45.719165" lon="11.2745033"><ele>489.8333333333333</ele><time>2026-04-07T08:24:28.989Z</time></trkpt><trkpt lat="45.7191883" lon="11.274395"><ele>491.0</ele><time>2026-04-07T08:24:31.989Z</time></trkpt><trkpt lat="45.7192583" lon="11.2743583"><ele>492.3333333333333</ele><time>2026-04-07T08:24:34.989Z</time></trkpt><trkpt lat="45.7193283" lon="11.2743233"><ele>493.66666666666663</ele><time>2026-04-07T08:24:36.989Z</time></trkpt><trkpt lat="45.719365" lon="11.274245"><ele>495.0</ele><time>2026-04-07T08:24:38.99Z</time></trkpt><trkpt lat="45.7193183" lon="11.2743317"><ele>496.33333333333337</ele><time>2026-04-07T08:25:02.989Z</time></trkpt><trkpt lat="45.7192517" lon="11.2743633"><ele>497.6666666666667</ele><time>2026-04-07T08:25:04.99Z</time></trkpt><trkpt lat="45.7191667" lon="11.2743733"><ele>499.0</ele><time>2026-04-07T08:25:06.989Z</time></trkpt><trkpt lat="45.719075" lon="11.2743367"><ele>499.0</ele><time>2026-04-07T08:25:08.99Z</time></trkpt><trkpt lat="45.718965" lon="11.27423"><ele>499.0</ele><time>2026-04-07T08:25:10.99Z</time></trkpt><trkpt lat="45.7189183" lon="11.274145"><ele>499.0</ele><time>2026-04-07T08:25:11.99Z</time></trkpt><trkpt lat="45.718895" lon="11.274055"><ele>499.0</ele><time>2026-04-07T08:25:12.99Z</time></trkpt><trkpt lat="45.7188917" lon="11.2739633"><ele>499.0</ele><time>2026-04-07T08:25:13.989Z</time></trkpt><trkpt lat="45.718915" lon="11.2737917"><ele>498.83333333333337</ele><time>2026-04-07T08:25:15.99Z</time></trkpt><trkpt lat="45.7189533" lon="11.2736967"><ele>498.6666666666667</ele><time>2026-04-07T08:25:16.989Z</time></trkpt><trkpt lat="45.7189983" lon="11.2735967"><ele>498.5</ele><time>2026-04-07T08:25:17.99Z</time></trkpt><trkpt lat="45.7190467" lon="11.2734833"><ele>498.33333333333337</ele><time>2026-04-07T08:25:18.989Z</time></trkpt><trkpt lat="45.7190733" lon="11.2733567"><ele>498.1666666666667</ele><time>2026-04-07T08:25:19.99Z</time></trkpt><trkpt lat="45.7190883" lon="11.2732117"><ele>498.0</ele><time>2026-04-07T08:25:20.989Z</time></trkpt><trkpt lat="45.719095" lon="11.2730583"><ele>497.4</ele><time>2026-04-07T08:25:21.99Z</time></trkpt><trkpt lat="45.71911" lon="11.2729067"><ele>496.79999999999995</ele><time>2026-04-07T08:25:22.989Z</time></trkpt><trkpt lat="45.719125" lon="11.2727467"><ele>496.2</ele><time>2026-04-07T08:25:23.99Z</time></trkpt><trkpt lat="45.7191333" lon="11.272585"><ele>495.6</ele><time>2026-04-07T08:25:24.99Z</time></trkpt><trkpt lat="45.719135" lon="11.2724217"><ele>495.0</ele><time>2026-04-07T08:25:25.99Z</time></trkpt><trkpt lat="45.71913" lon="11.2722667"><ele>495.0</ele><time>2026-04-07T08:25:26.99Z</time></trkpt><trkpt lat="45.7191183" lon="11.27213"><ele>495.0</ele><time>2026-04-07T08:25:27.99Z</time></trkpt><trkpt lat="45.7191117" lon="11.2720083"><ele>495.0</ele><time>2026-04-07T08:25:28.99Z</time></trkpt><trkpt lat="45.71911" lon="11.2719033"><ele>495.0</ele><time>2026-04-07T08:25:29.99Z</time></trkpt><trkpt lat="45.719105" lon="11.2718017"><ele>495.0</ele><time>2026-04-07T08:25:30.989Z</time></trkpt><trkpt lat="45.7191017" lon="11.271705"><ele>495.0</ele><time>2026-04-07T08:25:31.989Z</time></trkpt><trkpt lat="45.7190967" lon="11.27161"><ele>495.0</ele><time>2026-04-07T08:25:32.99Z</time></trkpt><trkpt lat="45.7190933" lon="11.2715083"><ele>495.0</ele><time>2026-04-07T08:25:33.99Z</time></trkpt><trkpt lat="45.7191083" lon="11.2713483"><ele>495.0</ele><time>2026-04-07T08:25:35.989Z</time></trkpt><trkpt lat="45.71911" lon="11.2712117"><ele>495.0</ele><time>2026-04-07T08:25:37.989Z</time></trkpt><trkpt lat="45.71909" lon="11.2710667"><ele>495.0</ele><time>2026-04-07T08:25:39.989Z</time></trkpt><trkpt lat="45.7190783" lon="11.270945"><ele>495.8333333333333</ele><time>2026-04-07T08:25:41.99Z</time></trkpt><trkpt lat="45.71906" lon="11.2708017"><ele>496.66666666666663</ele><time>2026-04-07T08:25:43.99Z</time></trkpt><trkpt lat="45.7190483" lon="11.2707067"><ele>497.5</ele><time>2026-04-07T08:25:44.99Z</time></trkpt><trkpt lat="45.7190217" lon="11.27059"><ele>498.3333333333333</ele><time>2026-04-07T08:25:45.99Z</time></trkpt><trkpt lat="45.7189917" lon="11.2704683"><ele>499.16666666666663</ele><time>2026-04-07T08:25:46.989Z</time></trkpt><trkpt lat="45.7189517" lon="11.2703333"><ele>500.0</ele><time>2026-04-07T08:25:47.989Z</time></trkpt><trkpt lat="45.71891" lon="11.2702117"><ele>503.8333333333333</ele><time>2026-04-07T08:25:48.989Z</time></trkpt><trkpt lat="45.718865" lon="11.2700967"><ele>507.66666666666663</ele><time>2026-04-07T08:25:49.99Z</time></trkpt><trkpt lat="45.7188217" lon="11.27"><ele>511.5</ele><time>2026-04-07T08:25:50.989Z</time></trkpt><trkpt lat="45.71878" lon="11.2699017"><ele>515.3333333333334</ele><time>2026-04-07T08:25:51.99Z</time></trkpt><trkpt lat="45.71875" lon="11.2698033"><ele>519.1666666666667</ele><time>2026-04-07T08:25:52.989Z</time></trkpt><trkpt lat="45.7187183" lon="11.2696917"><ele>523.0</ele><time>2026-04-07T08:25:53.99Z</time></trkpt><trkpt lat="45.718685" lon="11.2695883"><ele>526.0</ele><time>2026-04-07T08:25:54.99Z</time></trkpt><trkpt lat="45.71865" lon="11.269505"><ele>529.0</ele><time>2026-04-07T08:25:55.99Z</time></trkpt><trkpt lat="45.7186083" lon="11.2694367"><ele>532.0</ele><time>2026-04-07T08:25:56.99Z</time></trkpt><trkpt lat="45.7184817" lon="11.2693683"><ele>535.0</ele><time>2026-04-07T08:25:58.99Z</time></trkpt><trkpt lat="45.7183767" lon="11.2693533"><ele>538.0</ele><time>2026-04-07T08:25:59.989Z</time></trkpt><trkpt lat="45.7182733" lon="11.269355"><ele>538.0</ele><time>2026-04-07T08:26:00.99Z</time></trkpt><trkpt lat="45.7181833" lon="11.2693583"><ele>538.0</ele><time>2026-04-07T08:26:01.99Z</time></trkpt><trkpt lat="45.7181183" lon="11.26938"><ele>538.0</ele><time>2026-04-07T08:26:02.99Z</time></trkpt><trkpt lat="45.718055" lon="11.2694083"><ele>538.0</ele><time>2026-04-07T08:26:03.99Z</time></trkpt><trkpt lat="45.7179833" lon="11.2694483"><ele>538.0</ele><time>2026-04-07T08:26:04.99Z</time></trkpt><trkpt lat="45.7179133" lon="11.2695033"><ele>538.0</ele><time>2026-04-07T08:26:05.99Z</time></trkpt><trkpt lat="45.7178533" lon="11.2695867"><ele>538.0</ele><time>2026-04-07T08:26:06.99Z</time></trkpt><trkpt lat="45.7177967" lon="11.2696567"><ele>538.0</ele><time>2026-04-07T08:26:07.989Z</time></trkpt><trkpt lat="45.7177433" lon="11.2697217"><ele>538.0</ele><time>2026-04-07T08:26:08.99Z</time></trkpt><trkpt lat="45.7176583" lon="11.2697483"><ele>538.0</ele><time>2026-04-07T08:26:10.99Z</time></trkpt><trkpt lat="45.7175783" lon="11.2697267"><ele>538.0</ele><time>2026-04-07T08:26:11.989Z</time></trkpt><trkpt lat="45.7175033" lon="11.269685"><ele>538.0</ele><time>2026-04-07T08:26:12.99Z</time></trkpt><trkpt lat="45.7174467" lon="11.26964"><ele>537.6</ele><time>2026-04-07T08:26:13.989Z</time></trkpt><trkpt lat="45.7173733" lon="11.2694867"><ele>537.1999999999999</ele><time>2026-04-07T08:26:15.989Z</time></trkpt><trkpt lat="45.717335" lon="11.2694067"><ele>536.8</ele><time>2026-04-07T08:26:16.99Z</time></trkpt><trkpt lat="45.7172767" lon="11.2693333"><ele>536.4</ele><time>2026-04-07T08:26:17.989Z</time></trkpt><trkpt lat="45.717205" lon="11.269275"><ele>536.0</ele><time>2026-04-07T08:26:18.989Z</time></trkpt><trkpt lat="45.7171117" lon="11.26924"><ele>536.0</ele><time>2026-04-07T08:26:19.989Z</time></trkpt><trkpt lat="45.7170083" lon="11.2692083"><ele>536.0</ele><time>2026-04-07T08:26:20.99Z</time></trkpt><trkpt lat="45.7169133" lon="11.2691833"><ele>536.0</ele><time>2026-04-07T08:26:21.989Z</time></trkpt><trkpt lat="45.716815" lon="11.2691533"><ele>536.0</ele><time>2026-04-07T08:26:22.99Z</time></trkpt><trkpt lat="45.716725" lon="11.2691233"><ele>536.0</ele><time>2026-04-07T08:26:23.989Z</time></trkpt><trkpt lat="45.7166383" lon="11.2690867"><ele>537.2</ele><time>2026-04-07T08:26:24.989Z</time></trkpt><trkpt lat="45.716555" lon="11.2690283"><ele>538.4000000000001</ele><time>2026-04-07T08:26:25.99Z</time></trkpt><trkpt lat="45.71647" lon="11.2689517"><ele>539.6</ele><time>2026-04-07T08:26:26.989Z</time></trkpt><trkpt lat="45.7163917" lon="11.2688583"><ele>540.8000000000001</ele><time>2026-04-07T08:26:27.99Z</time></trkpt><trkpt lat="45.716305" lon="11.2687483"><ele>542.0</ele><time>2026-04-07T08:26:28.99Z</time></trkpt><trkpt lat="45.716235" lon="11.26863"><ele>542.0</ele><time>2026-04-07T08:26:29.99Z</time></trkpt><trkpt lat="45.7161683" lon="11.2685133"><ele>542.0</ele><time>2026-04-07T08:26:30.989Z</time></trkpt><trkpt lat="45.71612" lon="11.268415"><ele>542.0</ele><time>2026-04-07T08:26:31.99Z</time></trkpt><trkpt lat="45.71607" lon="11.2682583"><ele>542.0</ele><time>2026-04-07T08:26:33.989Z</time></trkpt><trkpt lat="45.7161017" lon="11.2680867"><ele>542.0</ele><time>2026-04-07T08:26:35.99Z</time></trkpt><trkpt lat="45.71615" lon="11.26794"><ele>544.6</ele><time>2026-04-07T08:26:37.989Z</time></trkpt><trkpt lat="45.7160983" lon="11.2678317"><ele>547.2</ele><time>2026-04-07T08:26:39.99Z</time></trkpt><trkpt lat="45.7160317" lon="11.2677983"><ele>549.8</ele><time>2026-04-07T08:26:40.99Z</time></trkpt><trkpt lat="45.7159467" lon="11.2677683"><ele>552.4</ele><time>2026-04-07T08:26:41.99Z</time></trkpt><trkpt lat="45.7158383" lon="11.26776"><ele>555.0</ele><time>2026-04-07T08:26:42.99Z</time></trkpt><trkpt lat="45.7157233" lon="11.26776"><ele>555.0</ele><time>2026-04-07T08:26:43.989Z</time></trkpt><trkpt lat="45.71561" lon="11.2677683"><ele>555.0</ele><time>2026-04-07T08:26:44.99Z</time></trkpt><trkpt lat="45.715505" lon="11.267775"><ele>555.0</ele><time>2026-04-07T08:26:45.99Z</time></trkpt><trkpt lat="45.7154033" lon="11.26781"><ele>555.0</ele><time>2026-04-07T08:26:46.989Z</time></trkpt><trkpt lat="45.715305" lon="11.26784"><ele>555.0</ele><time>2026-04-07T08:26:47.99Z</time></trkpt><trkpt lat="45.7152183" lon="11.2678833"><ele>557.0</ele><time>2026-04-07T08:26:48.989Z</time></trkpt><trkpt lat="45.7151317" lon="11.2679383"><ele>559.0</ele><time>2026-04-07T08:26:49.99Z</time></trkpt><trkpt lat="45.7150567" lon="11.267995"><ele>561.0</ele><time>2026-04-07T08:26:50.99Z</time></trkpt><trkpt lat="45.7149917" lon="11.2680633"><ele>563.0</ele><time>2026-04-07T08:26:51.99Z</time></trkpt><trkpt lat="45.7149333" lon="11.26814"><ele>565.0</ele><time>2026-04-07T08:26:52.989Z</time></trkpt><trkpt lat="45.7148917" lon="11.268225"><ele>567.0</ele><time>2026-04-07T08:26:53.99Z</time></trkpt><trkpt lat="45.7148533" lon="11.268325"><ele>560.0</ele><time>2026-04-07T08:26:54.99Z</time></trkpt><trkpt lat="45.714805" lon="11.2684167"><ele>553.0</ele><time>2026-04-07T08:26:55.99Z</time></trkpt><trkpt lat="45.7147517" lon="11.2684983"><ele>546.0</ele><time>2026-04-07T08:26:56.99Z</time></trkpt><trkpt lat="45.714695" lon="11.2685833"><ele>539.0</ele><time>2026-04-07T08:26:57.99Z</time></trkpt><trkpt lat="45.7146267" lon="11.268655"><ele>532.0</ele><time>2026-04-07T08:26:58.99Z</time></trkpt><trkpt lat="45.714555" lon="11.268715"><ele>525.0</ele><time>2026-04-07T08:26:59.99Z</time></trkpt><trkpt lat="45.714485" lon="11.2687767"><ele>525.0</ele><time>2026-04-07T08:27:00.989Z</time></trkpt><trkpt lat="45.714405" lon="11.2688383"><ele>525.0</ele><time>2026-04-07T08:27:01.989Z</time></trkpt><trkpt lat="45.7143233" lon="11.2688933"><ele>525.0</ele><time>2026-04-07T08:27:02.99Z</time></trkpt><trkpt lat="45.714245" lon="11.2689417"><ele>525.0</ele><time>2026-04-07T08:27:03.99Z</time></trkpt><trkpt lat="45.7141717" lon="11.2689883"><ele>525.0</ele><time>2026-04-07T08:27:04.99Z</time></trkpt><trkpt lat="45.7140933" lon="11.2690383"><ele>525.0</ele><time>2026-04-07T08:27:05.99Z</time></trkpt><trkpt lat="45.714015" lon="11.2690917"><ele>525.0</ele><time>2026-04-07T08:27:06.989Z</time></trkpt><trkpt lat="45.713955" lon="11.269155"><ele>525.0</ele><time>2026-04-07T08:27:07.99Z</time></trkpt><trkpt lat="45.713915" lon="11.2692267"><ele>525.0</ele><time>2026-04-07T08:27:08.99Z</time></trkpt><trkpt lat="45.7138983" lon="11.2693817"><ele>525.0</ele><time>2026-04-07T08:27:10.99Z</time></trkpt><trkpt lat="45.7139217" lon="11.269485"><ele>525.0</ele><time>2026-04-07T08:27:11.99Z</time></trkpt><trkpt lat="45.7139533" lon="11.2696033"><ele>525.0</ele><time>2026-04-07T08:27:12.989Z</time></trkpt><trkpt lat="45.7139733" lon="11.26972"><ele>522.5</ele><time>2026-04-07T08:27:13.99Z</time></trkpt><trkpt lat="45.714005" lon="11.2698383"><ele>520.0</ele><time>2026-04-07T08:27:14.99Z</time></trkpt><trkpt lat="45.71404" lon="11.269945"><ele>517.5</ele><time>2026-04-07T08:27:15.989Z</time></trkpt><trkpt lat="45.7140733" lon="11.270055"><ele>515.0</ele><time>2026-04-07T08:27:16.99Z</time></trkpt><trkpt lat="45.7141133" lon="11.2701533"><ele>512.5</ele><time>2026-04-07T08:27:17.989Z</time></trkpt><trkpt lat="45.7141517" lon="11.2702317"><ele>510.0</ele><time>2026-04-07T08:27:18.99Z</time></trkpt><trkpt lat="45.7141917" lon="11.2703067"><ele>510.0</ele><time>2026-04-07T08:27:19.989Z</time></trkpt><trkpt lat="45.7142183" lon="11.270445"><ele>510.0</ele><time>2026-04-07T08:27:21.99Z</time></trkpt><trkpt lat="45.7141867" lon="11.27058"><ele>510.0</ele><time>2026-04-07T08:27:23.989Z</time></trkpt><trkpt lat="45.7141133" lon="11.2707033"><ele>510.0</ele><time>2026-04-07T08:27:25.99Z</time></trkpt><trkpt lat="45.714055" lon="11.27075"><ele>510.0</ele><time>2026-04-07T08:27:26.99Z</time></trkpt><trkpt lat="45.7139583" lon="11.2707983"><ele>507.0</ele><time>2026-04-07T08:27:28.99Z</time></trkpt><trkpt lat="45.7138767" lon="11.270855"><ele>504.0</ele><time>2026-04-07T08:27:30.989Z</time></trkpt><trkpt lat="45.7138683" lon="11.2709933"><ele>501.0</ele><time>2026-04-07T08:27:32.99Z</time></trkpt><trkpt lat="45.7138817" lon="11.2710833"><ele>498.0</ele><time>2026-04-07T08:27:33.99Z</time></trkpt><trkpt lat="45.713895" lon="11.2711767"><ele>495.0</ele><time>2026-04-07T08:27:34.99Z</time></trkpt><trkpt lat="45.7139083" lon="11.27128"><ele>492.0</ele><time>2026-04-07T08:27:35.99Z</time></trkpt><trkpt lat="45.7139283" lon="11.2713683"><ele>488.6</ele><time>2026-04-07T08:27:36.99Z</time></trkpt><trkpt lat="45.7140017" lon="11.2714567"><ele>485.20000000000005</ele><time>2026-04-07T08:27:38.99Z</time></trkpt><trkpt lat="45.714115" lon="11.2714883"><ele>481.8</ele><time>2026-04-07T08:27:40.989Z</time></trkpt><trkpt lat="45.7142233" lon="11.2715233"><ele>478.4</ele><time>2026-04-07T08:27:42.989Z</time></trkpt><trkpt lat="45.7142317" lon="11.2716417"><ele>475.0</ele><time>2026-04-07T08:27:45.989Z</time></trkpt><trkpt lat="45.7141" lon="11.2717467"><ele>475.00000000000006</ele><time>2026-04-07T08:27:47.99Z</time></trkpt><trkpt lat="45.714015" lon="11.271795"><ele>475.0</ele><time>2026-04-07T08:27:48.99Z</time></trkpt><trkpt lat="45.7139383" lon="11.27185"><ele>475.0</ele><time>2026-04-07T08:27:49.99Z</time></trkpt><trkpt lat="45.7138883" lon="11.27192"><ele>475.0</ele><time>2026-04-07T08:27:50.99Z</time></trkpt><trkpt lat="45.71385" lon="11.2720567"><ele>475.00000000000006</ele><time>2026-04-07T08:27:52.99Z</time></trkpt><trkpt lat="45.7139083" lon="11.272135"><ele>475.0</ele><time>2026-04-07T08:27:54.99Z</time></trkpt><trkpt lat="45.7140367" lon="11.272135"><ele>475.0</ele><time>2026-04-07T08:27:56.99Z</time></trkpt><trkpt lat="45.7141067" lon="11.27212"><ele>475.0</ele><time>2026-04-07T08:27:57.99Z</time></trkpt><trkpt lat="45.7142017" lon="11.2721467"><ele>475.0</ele><time>2026-04-07T08:27:59.989Z</time></trkpt><trkpt lat="45.7141917" lon="11.2722383"><ele>475.0</ele><time>2026-04-07T08:28:01.99Z</time></trkpt><trkpt lat="45.7140517" lon="11.27234"><ele>475.0</ele><time>2026-04-07T08:28:03.989Z</time></trkpt><trkpt lat="45.7139217" lon="11.2723817"><ele>473.4</ele><time>2026-04-07T08:28:04.99Z</time></trkpt><trkpt lat="45.7138117" lon="11.2724"><ele>471.8</ele><time>2026-04-07T08:28:05.99Z</time></trkpt><trkpt lat="45.713705" lon="11.2723867"><ele>470.20000000000005</ele><time>2026-04-07T08:28:06.989Z</time></trkpt><trkpt lat="45.71361" lon="11.27236"><ele>468.6</ele><time>2026-04-07T08:28:07.99Z</time></trkpt><trkpt lat="45.7135217" lon="11.2723"><ele>467.0</ele><time>2026-04-07T08:28:08.99Z</time></trkpt><trkpt lat="45.7134583" lon="11.2722417"><ele>466.99999999999994</ele><time>2026-04-07T08:28:09.99Z</time></trkpt><trkpt lat="45.7133583" lon="11.2721967"><ele>467.0</ele><time>2026-04-07T08:28:11.989Z</time></trkpt><trkpt lat="45.7133283" lon="11.27229"><ele>467.0</ele><time>2026-04-07T08:28:13.99Z</time></trkpt><trkpt lat="45.713395" lon="11.272385"><ele>467.0</ele><time>2026-04-07T08:28:15.99Z</time></trkpt><trkpt lat="45.71344" lon="11.2724883"><ele>466.99999999999994</ele><time>2026-04-07T08:28:17.99Z</time></trkpt><trkpt lat="45.7133833" lon="11.2725517"><ele>467.0</ele><time>2026-04-07T08:28:19.989Z</time></trkpt><trkpt lat="45.7133217" lon="11.2725317"><ele>467.0</ele><time>2026-04-07T08:28:20.989Z</time></trkpt><trkpt lat="45.7132533" lon="11.27245"><ele>467.00000000000006</ele><time>2026-04-07T08:28:21.989Z</time></trkpt><trkpt lat="45.713195" lon="11.2723233"><ele>467.00000000000006</ele><time>2026-04-07T08:28:22.989Z</time></trkpt><trkpt lat="45.7131317" lon="11.27216"><ele>467.0</ele><time>2026-04-07T08:28:23.989Z</time></trkpt><trkpt lat="45.7130617" lon="11.2720283"><ele>467.0</ele><time>2026-04-07T08:28:24.988Z</time></trkpt><trkpt lat="45.7129767" lon="11.27191"><ele>467.0</ele><time>2026-04-07T08:28:25.989Z</time></trkpt><trkpt lat="45.712875" lon="11.27181"><ele>467.0</ele><time>2026-04-07T08:28:26.988Z</time></trkpt><trkpt lat="45.7127433" lon="11.271735"><ele>467.0</ele><time>2026-04-07T08:28:27.989Z</time></trkpt><trkpt lat="45.7126" lon="11.27166"><ele>467.0</ele><time>2026-04-07T08:28:28.989Z</time></trkpt><trkpt lat="45.7124717" lon="11.271585"><ele>466.0</ele><time>2026-04-07T08:28:29.989Z</time></trkpt><trkpt lat="45.712355" lon="11.2715333"><ele>465.00000000000006</ele><time>2026-04-07T08:28:30.989Z</time></trkpt><trkpt lat="45.7122567" lon="11.271485"><ele>464.00000000000006</ele><time>2026-04-07T08:28:31.988Z</time></trkpt><trkpt lat="45.7121767" lon="11.27143"><ele>463.0</ele><time>2026-04-07T08:28:32.988Z</time></trkpt><trkpt lat="45.7121067" lon="11.2713967"><ele>462.0</ele><time>2026-04-07T08:28:33.989Z</time></trkpt><trkpt lat="45.7120083" lon="11.2714317"><ele>457.25</ele><time>2026-04-07T08:28:35.989Z</time></trkpt><trkpt lat="45.7120233" lon="11.27158"><ele>452.5</ele><time>2026-04-07T08:28:37.988Z</time></trkpt><trkpt lat="45.7120883" lon="11.2716867"><ele>447.75</ele><time>2026-04-07T08:28:38.989Z</time></trkpt><trkpt lat="45.7121667" lon="11.2718317"><ele>443.0</ele><time>2026-04-07T08:28:39.989Z</time></trkpt><trkpt lat="45.7122717" lon="11.2719967"><ele>443.0</ele><time>2026-04-07T08:28:40.989Z</time></trkpt><trkpt lat="45.7123667" lon="11.2721783"><ele>443.0</ele><time>2026-04-07T08:28:41.989Z</time></trkpt><trkpt lat="45.712465" lon="11.2723633"><ele>443.0</ele><time>2026-04-07T08:28:42.989Z</time></trkpt><trkpt lat="45.7125333" lon="11.272495"><ele>443.0</ele><time>2026-04-07T08:28:43.988Z</time></trkpt><trkpt lat="45.712595" lon="11.2726167"><ele>438.79999999999995</ele><time>2026-04-07T08:28:44.988Z</time></trkpt><trkpt lat="45.7126583" lon="11.2727133"><ele>434.59999999999997</ele><time>2026-04-07T08:28:45.988Z</time></trkpt><trkpt lat="45.7127083" lon="11.2727833"><ele>430.4</ele><time>2026-04-07T08:28:46.989Z</time></trkpt><trkpt lat="45.7127283" lon="11.2729067"><ele>426.20000000000005</ele><time>2026-04-07T08:28:48.988Z</time></trkpt><trkpt lat="45.7126567" lon="11.2729283"><ele>422.0</ele><time>2026-04-07T08:28:50.988Z</time></trkpt><trkpt lat="45.7125417" lon="11.2727883"><ele>422.0</ele><time>2026-04-07T08:28:52.989Z</time></trkpt><trkpt lat="45.71243" lon="11.2726767"><ele>422.0</ele><time>2026-04-07T08:28:53.989Z</time></trkpt><trkpt lat="45.7122883" lon="11.272595"><ele>422.0</ele><time>2026-04-07T08:28:54.988Z</time></trkpt><trkpt lat="45.7121683" lon="11.2725483"><ele>422.0</ele><time>2026-04-07T08:28:55.989Z</time></trkpt><trkpt lat="45.7120817" lon="11.27253"><ele>422.0</ele><time>2026-04-07T08:28:56.988Z</time></trkpt><trkpt lat="45.71201" lon="11.27253"><ele>422.0</ele><time>2026-04-07T08:28:57.989Z</time></trkpt><trkpt lat="45.71195" lon="11.27264"><ele>422.0</ele><time>2026-04-07T08:28:59.989Z</time></trkpt><trkpt lat="45.7119633" lon="11.2727467"><ele>422.0</ele><time>2026-04-07T08:29:00.988Z</time></trkpt><trkpt lat="45.7120267" lon="11.2728983"><ele>422.0</ele><time>2026-04-07T08:29:01.989Z</time></trkpt><trkpt lat="45.7120967" lon="11.2730683"><ele>417.5</ele><time>2026-04-07T08:29:02.989Z</time></trkpt><trkpt lat="45.7121483" lon="11.2732483"><ele>413.0</ele><time>2026-04-07T08:29:03.989Z</time></trkpt><trkpt lat="45.7121633" lon="11.2734183"><ele>408.5</ele><time>2026-04-07T08:29:04.989Z</time></trkpt><trkpt lat="45.712175" lon="11.2735717"><ele>404.0</ele><time>2026-04-07T08:29:05.988Z</time></trkpt><trkpt lat="45.7121933" lon="11.2737167"><ele>404.0</ele><time>2026-04-07T08:29:06.988Z</time></trkpt><trkpt lat="45.7122367" lon="11.2738583"><ele>404.0</ele><time>2026-04-07T08:29:07.989Z</time></trkpt><trkpt lat="45.71228" lon="11.2739767"><ele>404.0</ele><time>2026-04-07T08:29:08.989Z</time></trkpt><trkpt lat="45.712345" lon="11.2740933"><ele>404.0</ele><time>2026-04-07T08:29:09.989Z</time></trkpt><trkpt lat="45.712425" lon="11.2741917"><ele>404.0</ele><time>2026-04-07T08:29:10.989Z</time></trkpt><trkpt lat="45.712515" lon="11.2742917"><ele>400.0</ele><time>2026-04-07T08:29:11.988Z</time></trkpt><trkpt lat="45.712585" lon="11.2744167"><ele>396.0</ele><time>2026-04-07T08:29:12.989Z</time></trkpt><trkpt lat="45.7126333" lon="11.2745667"><ele>392.0</ele><time>2026-04-07T08:29:13.989Z</time></trkpt><trkpt lat="45.7126767" lon="11.27473"><ele>388.0</ele><time>2026-04-07T08:29:14.989Z</time></trkpt><trkpt lat="45.71272" lon="11.2748767"><ele>389.79999999999995</ele><time>2026-04-07T08:29:15.989Z</time></trkpt><trkpt lat="45.71276" lon="11.2750233"><ele>391.6</ele><time>2026-04-07T08:29:16.989Z</time></trkpt><trkpt lat="45.71279" lon="11.2751717"><ele>393.4</ele><time>2026-04-07T08:29:17.988Z</time></trkpt><trkpt lat="45.7128233" lon="11.2753067"><ele>395.20000000000005</ele><time>2026-04-07T08:29:18.989Z</time></trkpt><trkpt lat="45.71287" lon="11.27543"><ele>397.0</ele><time>2026-04-07T08:29:19.989Z</time></trkpt><trkpt lat="45.7129183" lon="11.2755567"><ele>394.0</ele><time>2026-04-07T08:29:20.989Z</time></trkpt><trkpt lat="45.71296" lon="11.27568"><ele>391.0</ele><time>2026-04-07T08:29:21.989Z</time></trkpt><trkpt lat="45.7129917" lon="11.2758017"><ele>388.0</ele><time>2026-04-07T08:29:22.989Z</time></trkpt><trkpt lat="45.713025" lon="11.2759267"><ele>385.0</ele><time>2026-04-07T08:29:23.988Z</time></trkpt><trkpt lat="45.7130517" lon="11.2760533"><ele>382.0</ele><time>2026-04-07T08:29:24.988Z</time></trkpt><trkpt lat="45.7130833" lon="11.2761833"><ele>382.0</ele><time>2026-04-07T08:29:25.988Z</time></trkpt><trkpt lat="45.7131183" lon="11.2763067"><ele>382.0</ele><time>2026-04-07T08:29:26.989Z</time></trkpt><trkpt lat="45.7131533" lon="11.2764317"><ele>382.0</ele><time>2026-04-07T08:29:27.989Z</time></trkpt><trkpt lat="45.7131883" lon="11.2765383"><ele>382.0</ele><time>2026-04-07T08:29:28.989Z</time></trkpt><trkpt lat="45.7132217" lon="11.2766367"><ele>382.0</ele><time>2026-04-07T08:29:29.989Z</time></trkpt><trkpt lat="45.71326" lon="11.2767283"><ele>382.0</ele><time>2026-04-07T08:29:30.989Z</time></trkpt><trkpt lat="45.7132883" lon="11.2768183"><ele>378.20000000000005</ele><time>2026-04-07T08:29:31.989Z</time></trkpt><trkpt lat="45.71333" lon="11.2769717"><ele>374.4</ele><time>2026-04-07T08:29:33.988Z</time></trkpt><trkpt lat="45.713335" lon="11.2771167"><ele>370.6</ele><time>2026-04-07T08:29:35.988Z</time></trkpt><trkpt lat="45.7132767" lon="11.2772283"><ele>366.79999999999995</ele><time>2026-04-07T08:29:37.989Z</time></trkpt><trkpt lat="45.713215" lon="11.2772667"><ele>363.0</ele><time>2026-04-07T08:29:39.988Z</time></trkpt><trkpt lat="45.713145" lon="11.277305"><ele>363.0</ele><time>2026-04-07T08:29:41.989Z</time></trkpt><trkpt lat="45.713065" lon="11.2772717"><ele>363.0</ele><time>2026-04-07T08:29:43.989Z</time></trkpt><trkpt lat="45.7130333" lon="11.2771667"><ele>363.0</ele><time>2026-04-07T08:29:45.988Z</time></trkpt><trkpt lat="45.7129983" lon="11.27698"><ele>363.0</ele><time>2026-04-07T08:29:47.989Z</time></trkpt><trkpt lat="45.712935" lon="11.27686"><ele>363.0</ele><time>2026-04-07T08:29:49.988Z</time></trkpt><trkpt lat="45.7128617" lon="11.27688"><ele>363.0</ele><time>2026-04-07T08:29:51.988Z</time></trkpt><trkpt lat="45.7127567" lon="11.2769733"><ele>363.0</ele><time>2026-04-07T08:29:53.989Z</time></trkpt><trkpt lat="45.7127067" lon="11.2770283"><ele>363.0</ele><time>2026-04-07T08:29:54.989Z</time></trkpt><trkpt lat="45.7126483" lon="11.2771033"><ele>363.0</ele><time>2026-04-07T08:29:55.989Z</time></trkpt><trkpt lat="45.7125967" lon="11.2772017"><ele>363.0</ele><time>2026-04-07T08:29:56.989Z</time></trkpt><trkpt lat="45.712545" lon="11.2773067"><ele>363.0</ele><time>2026-04-07T08:29:57.989Z</time></trkpt><trkpt lat="45.7124917" lon="11.2773983"><ele>362.0</ele><time>2026-04-07T08:29:58.989Z</time></trkpt><trkpt lat="45.7124383" lon="11.277475"><ele>361.0</ele><time>2026-04-07T08:29:59.989Z</time></trkpt><trkpt lat="45.7123367" lon="11.2775733"><ele>360.0</ele><time>2026-04-07T08:30:01.989Z</time></trkpt><trkpt lat="45.712275" lon="11.2776033"><ele>359.0</ele><time>2026-04-07T08:30:02.989Z</time></trkpt><trkpt lat="45.7121567" lon="11.2776517"><ele>358.0</ele><time>2026-04-07T08:30:04.989Z</time></trkpt><trkpt lat="45.7120833" lon="11.2776917"><ele>358.0</ele><time>2026-04-07T08:30:05.989Z</time></trkpt><trkpt lat="45.71202" lon="11.2777133"><ele>358.0</ele><time>2026-04-07T08:30:06.988Z</time></trkpt><trkpt lat="45.7119167" lon="11.2777067"><ele>358.0</ele><time>2026-04-07T08:30:08.988Z</time></trkpt><trkpt lat="45.7118233" lon="11.2776833"><ele>358.0</ele><time>2026-04-07T08:31:24.989Z</time></trkpt><trkpt lat="45.71177" lon="11.2776017"><ele>358.0</ele><time>2026-04-07T08:31:55.988Z</time></trkpt><trkpt lat="45.7117" lon="11.2775867"><ele>358.0</ele><time>2026-04-07T08:31:57.988Z</time></trkpt><trkpt lat="45.71161" lon="11.27752"><ele>361.0</ele><time>2026-04-07T08:31:59.989Z</time></trkpt><trkpt lat="45.711535" lon="11.2774383"><ele>364.0</ele><time>2026-04-07T08:32:01.989Z</time></trkpt><trkpt lat="45.711465" lon="11.2774033"><ele>367.0</ele><time>2026-04-07T08:32:03.988Z</time></trkpt><trkpt lat="45.7114133" lon="11.2774633"><ele>370.0</ele><time>2026-04-07T08:32:05.989Z</time></trkpt><trkpt lat="45.711375" lon="11.2776033"><ele>373.0</ele><time>2026-04-07T08:32:07.988Z</time></trkpt><trkpt lat="45.7113633" lon="11.277735"><ele>376.0</ele><time>2026-04-07T08:32:09.989Z</time></trkpt><trkpt lat="45.711375" lon="11.2778717"><ele>376.0</ele><time>2026-04-07T08:32:11.988Z</time></trkpt><trkpt lat="45.71137" lon="11.2780133"><ele>376.0</ele><time>2026-04-07T08:32:13.988Z</time></trkpt><trkpt lat="45.711335" lon="11.278125"><ele>376.0</ele><time>2026-04-07T08:32:15.989Z</time></trkpt><trkpt lat="45.71126" lon="11.2782083"><ele>376.0</ele><time>2026-04-07T08:32:17.989Z</time></trkpt><trkpt lat="45.711165" lon="11.2783067"><ele>376.0</ele><time>2026-04-07T08:32:19.989Z</time></trkpt><trkpt lat="45.711105" lon="11.2783733"><ele>381.4</ele><time>2026-04-07T08:32:21.989Z</time></trkpt><trkpt lat="45.7110283" lon="11.2784517"><ele>386.8</ele><time>2026-04-07T08:32:23.988Z</time></trkpt><trkpt lat="45.7109417" lon="11.27852"><ele>392.2</ele><time>2026-04-07T08:32:25.987Z</time></trkpt><trkpt lat="45.710855" lon="11.2785933"><ele>397.59999999999997</ele><time>2026-04-07T08:32:27.988Z</time></trkpt><trkpt lat="45.710795" lon="11.2787183"><ele>403.0</ele><time>2026-04-07T08:32:29.988Z</time></trkpt><trkpt lat="45.71073" lon="11.2788583"><ele>403.6666666666667</ele><time>2026-04-07T08:32:31.988Z</time></trkpt><trkpt lat="45.7106783" lon="11.2789933"><ele>404.33333333333337</ele><time>2026-04-07T08:32:33.987Z</time></trkpt><trkpt lat="45.7106283" lon="11.2790733"><ele>405.0</ele><time>2026-04-07T08:32:35.988Z</time></trkpt><trkpt lat="45.7105883" lon="11.27918"><ele>405.66666666666663</ele><time>2026-04-07T08:33:29.988Z</time></trkpt><trkpt lat="45.7106083" lon="11.2792833"><ele>406.3333333333333</ele><time>2026-04-07T08:33:32.988Z</time></trkpt><trkpt lat="45.7106733" lon="11.2793717"><ele>407.0</ele><time>2026-04-07T08:34:11.988Z</time></trkpt><trkpt lat="45.71071" lon="11.2794683"><ele>406.99999999999994</ele><time>2026-04-07T08:34:13.988Z</time></trkpt><trkpt lat="45.7106783" lon="11.2795817"><ele>407.0</ele><time>2026-04-07T08:34:16.988Z</time></trkpt><trkpt lat="45.710615" lon="11.2796367"><ele>407.0</ele><time>2026-04-07T08:34:19.988Z</time></trkpt><trkpt lat="45.7105383" lon="11.2796783"><ele>407.0</ele><time>2026-04-07T08:34:22.988Z</time></trkpt><trkpt lat="45.710465" lon="11.2797233"><ele>406.99999999999994</ele><time>2026-04-07T08:34:24.987Z</time></trkpt><trkpt lat="45.7104133" lon="11.2797983"><ele>407.0</ele><time>2026-04-07T08:34:26.987Z</time></trkpt><trkpt lat="45.7103883" lon="11.2798917"><ele>406.3333333333333</ele><time>2026-04-07T08:34:28.988Z</time></trkpt><trkpt lat="45.7103433" lon="11.2799867"><ele>405.66666666666663</ele><time>2026-04-07T08:34:30.988Z</time></trkpt><trkpt lat="45.710285" lon="11.2800533"><ele>405.0</ele><time>2026-04-07T08:34:32.987Z</time></trkpt><trkpt lat="45.7102617" lon="11.2801583"><ele>404.33333333333337</ele><time>2026-04-07T08:34:35.988Z</time></trkpt><trkpt lat="45.71027" lon="11.2802533"><ele>403.6666666666667</ele><time>2026-04-07T08:34:37.988Z</time></trkpt><trkpt lat="45.710325" lon="11.2804233"><ele>403.0</ele><time>2026-04-07T08:39:11.987Z</time></trkpt><trkpt lat="45.7102917" lon="11.2805033"><ele>403.4</ele><time>2026-04-07T08:39:13.987Z</time></trkpt><trkpt lat="45.7102467" lon="11.2806267"><ele>403.79999999999995</ele><time>2026-04-07T08:39:15.987Z</time></trkpt><trkpt lat="45.7101933" lon="11.280745"><ele>404.2</ele><time>2026-04-07T08:39:17.986Z</time></trkpt><trkpt lat="45.7101367" lon="11.28087"><ele>404.6</ele><time>2026-04-07T08:39:19.987Z</time></trkpt><trkpt lat="45.7101167" lon="11.2810017"><ele>405.0</ele><time>2026-04-07T08:39:21.987Z</time></trkpt><trkpt lat="45.7101083" lon="11.2811217"><ele>410.0</ele><time>2026-04-07T08:39:23.987Z</time></trkpt><trkpt lat="45.7100967" lon="11.2812317"><ele>415.0</ele><time>2026-04-07T08:39:25.986Z</time></trkpt><trkpt lat="45.71006" lon="11.281375"><ele>420.0</ele><time>2026-04-07T08:39:27.986Z</time></trkpt><trkpt lat="45.7100333" lon="11.2814633"><ele>425.0</ele><time>2026-04-07T08:39:28.987Z</time></trkpt><trkpt lat="45.7100167" lon="11.28162"><ele>430.0</ele><time>2026-04-07T08:39:30.986Z</time></trkpt><trkpt lat="45.71001" lon="11.2817517"><ele>430.50000000000006</ele><time>2026-04-07T08:39:32.987Z</time></trkpt><trkpt lat="45.7099733" lon="11.2818317"><ele>431.0</ele><time>2026-04-07T08:39:34.987Z</time></trkpt><trkpt lat="45.7098917" lon="11.28188"><ele>431.5</ele><time>2026-04-07T08:39:36.987Z</time></trkpt><trkpt lat="45.7097867" lon="11.2819033"><ele>432.0</ele><time>2026-04-07T08:39:38.986Z</time></trkpt><trkpt lat="45.7097033" lon="11.2819383"><ele>432.50000000000006</ele><time>2026-04-07T08:39:40.986Z</time></trkpt><trkpt lat="45.7096617" lon="11.282025"><ele>433.0</ele><time>2026-04-07T08:39:43.986Z</time></trkpt><trkpt lat="45.7096883" lon="11.28211"><ele>433.00000000000006</ele><time>2026-04-07T08:39:45.987Z</time></trkpt><trkpt lat="45.709765" lon="11.2822"><ele>433.0</ele><time>2026-04-07T08:39:47.987Z</time></trkpt><trkpt lat="45.7098267" lon="11.2822383"><ele>433.0</ele><time>2026-04-07T08:39:48.986Z</time></trkpt><trkpt lat="45.7098817" lon="11.28229"><ele>433.0</ele><time>2026-04-07T08:39:49.986Z</time></trkpt><trkpt lat="45.709935" lon="11.282345"><ele>433.00000000000006</ele><time>2026-04-07T08:39:50.987Z</time></trkpt><trkpt lat="45.7099917" lon="11.2823883"><ele>433.0</ele><time>2026-04-07T08:39:51.986Z</time></trkpt><trkpt lat="45.7100967" lon="11.28246"><ele>434.4</ele><time>2026-04-07T08:39:53.986Z</time></trkpt><trkpt lat="45.7101967" lon="11.282505"><ele>435.79999999999995</ele><time>2026-04-07T08:39:55.986Z</time></trkpt><trkpt lat="45.7102883" lon="11.2825633"><ele>437.2</ele><time>2026-04-07T08:39:57.987Z</time></trkpt><trkpt lat="45.7103817" lon="11.2825883"><ele>438.6</ele><time>2026-04-07T08:39:59.987Z</time></trkpt><trkpt lat="45.7104717" lon="11.282645"><ele>440.0</ele><time>2026-04-07T08:40:01.987Z</time></trkpt><trkpt lat="45.7105567" lon="11.2827117"><ele>439.99999999999994</ele><time>2026-04-07T08:40:03.987Z</time></trkpt><trkpt lat="45.7106617" lon="11.28273"><ele>440.0</ele><time>2026-04-07T08:40:05.987Z</time></trkpt><trkpt lat="45.710725" lon="11.2827217"><ele>440.0</ele><time>2026-04-07T08:40:06.987Z</time></trkpt><trkpt lat="45.710795" lon="11.2827083"><ele>440.0</ele><time>2026-04-07T08:40:07.987Z</time></trkpt><trkpt lat="45.7109117" lon="11.2826883"><ele>439.99999999999994</ele><time>2026-04-07T08:40:09.987Z</time></trkpt><trkpt lat="45.7109783" lon="11.2826817"><ele>440.0</ele><time>2026-04-07T08:40:10.986Z</time></trkpt><trkpt lat="45.7111017" lon="11.2826617"><ele>440.99999999999994</ele><time>2026-04-07T08:40:12.987Z</time></trkpt><trkpt lat="45.7111767" lon="11.28265"><ele>442.0</ele><time>2026-04-07T08:40:13.987Z</time></trkpt><trkpt lat="45.71124" lon="11.2826317"><ele>443.0</ele><time>2026-04-07T08:40:14.987Z</time></trkpt><trkpt lat="45.7113033" lon="11.28262"><ele>444.0</ele><time>2026-04-07T08:40:15.987Z</time></trkpt><trkpt lat="45.7114167" lon="11.2826233"><ele>444.99999999999994</ele><time>2026-04-07T08:40:17.987Z</time></trkpt><trkpt lat="45.71148" lon="11.282655"><ele>446.0</ele><time>2026-04-07T08:40:20.986Z</time></trkpt><trkpt lat="45.711425" lon="11.2827067"><ele>445.99999999999994</ele><time>2026-04-07T08:40:24.986Z</time></trkpt><trkpt lat="45.7113583" lon="11.2828017"><ele>446.0</ele><time>2026-04-07T08:40:26.985Z</time></trkpt><trkpt lat="45.7112883" lon="11.2828967"><ele>446.0</ele><time>2026-04-07T08:40:28.986Z</time></trkpt><trkpt lat="45.711235" lon="11.282965"><ele>446.0</ele><time>2026-04-07T08:40:31.986Z</time></trkpt><trkpt lat="45.7111783" lon="11.2830217"><ele>445.99999999999994</ele><time>2026-04-07T08:40:33.986Z</time></trkpt><trkpt lat="45.7111183" lon="11.2830883"><ele>446.0</ele><time>2026-04-07T08:40:35.985Z</time></trkpt><trkpt lat="45.711065" lon="11.283165"><ele>449.7142857142857</ele><time>2026-04-07T08:40:37.986Z</time></trkpt><trkpt lat="45.711005" lon="11.2832367"><ele>453.42857142857144</ele><time>2026-04-07T08:40:39.986Z</time></trkpt><trkpt lat="45.7109433" lon="11.2832917"><ele>457.1428571428571</ele><time>2026-04-07T08:40:41.985Z</time></trkpt><trkpt lat="45.7108783" lon="11.2833217"><ele>460.8571428571429</ele><time>2026-04-07T08:40:43.985Z</time></trkpt><trkpt lat="45.7108217" lon="11.2833817"><ele>464.5714285714286</ele><time>2026-04-07T08:40:45.986Z</time></trkpt><trkpt lat="45.7108145" lon="11.2834868"><ele>468.2857142857143</ele><time>2026-04-07T08:40:48.986Z</time></trkpt><trkpt lat="45.7108794" lon="11.2835512"><ele>472.0</ele><time>2026-04-07T08:40:51.986Z</time></trkpt><trkpt lat="45.7109483" lon="11.283559"><ele>472.00000000000006</ele><time>2026-04-07T08:40:53.985Z</time></trkpt><trkpt lat="45.711026" lon="11.2835598"><ele>472.0</ele><time>2026-04-07T08:40:55.986Z</time></trkpt><trkpt lat="45.7110952" lon="11.2835686"><ele>472.0</ele><time>2026-04-07T08:40:57.986Z</time></trkpt><trkpt lat="45.7111731" lon="11.2836067"><ele>472.0</ele><time>2026-04-07T08:41:00.986Z</time></trkpt><trkpt lat="45.7111309" lon="11.2837206"><ele>472.00000000000006</ele><time>2026-04-07T08:41:08.985Z</time></trkpt><trkpt lat="45.7110594" lon="11.2837991"><ele>472.0</ele><time>2026-04-07T08:41:10.986Z</time></trkpt><trkpt lat="45.7110021" lon="11.2838752"><ele>477.8</ele><time>2026-04-07T08:41:12.986Z</time></trkpt><trkpt lat="45.7109456" lon="11.2839366"><ele>483.6</ele><time>2026-04-07T08:41:14.986Z</time></trkpt><trkpt lat="45.7108923" lon="11.2840334"><ele>489.40000000000003</ele><time>2026-04-07T08:41:16.986Z</time></trkpt><trkpt lat="45.7108349" lon="11.2841503"><ele>495.20000000000005</ele><time>2026-04-07T08:41:18.986Z</time></trkpt><trkpt lat="45.710746" lon="11.2842428"><ele>501.0</ele><time>2026-04-07T08:41:20.986Z</time></trkpt><trkpt lat="45.7106258" lon="11.2842803"><ele>501.0</ele><time>2026-04-07T08:41:22.985Z</time></trkpt><trkpt lat="45.7105581" lon="11.2842926"><ele>501.0</ele><time>2026-04-07T08:41:23.986Z</time></trkpt><trkpt lat="45.7104549" lon="11.2843603"><ele>501.0</ele><time>2026-04-07T08:41:25.986Z</time></trkpt><trkpt lat="45.7104021" lon="11.2844844"><ele>501.0</ele><time>2026-04-07T08:41:27.986Z</time></trkpt><trkpt lat="45.7103334" lon="11.2845612"><ele>501.0</ele><time>2026-04-07T08:41:29.985Z</time></trkpt><trkpt lat="45.7102225" lon="11.2845671"><ele>500.42857142857144</ele><time>2026-04-07T08:41:31.986Z</time></trkpt><trkpt lat="45.7101539" lon="11.28454"><ele>499.85714285714283</ele><time>2026-04-07T08:41:32.985Z</time></trkpt><trkpt lat="45.7100784" lon="11.2845109"><ele>499.2857142857143</ele><time>2026-04-07T08:41:33.985Z</time></trkpt><trkpt lat="45.7100046" lon="11.2844799"><ele>498.7142857142857</ele><time>2026-04-07T08:41:34.985Z</time></trkpt><trkpt lat="45.7099334" lon="11.284454"><ele>498.1428571428571</ele><time>2026-04-07T08:41:35.985Z</time></trkpt><trkpt lat="45.7098666" lon="11.2844628"><ele>497.57142857142856</ele><time>2026-04-07T08:41:36.985Z</time></trkpt><trkpt lat="45.7097914" lon="11.284487"><ele>497.0</ele><time>2026-04-07T08:41:37.986Z</time></trkpt><trkpt lat="45.7097273" lon="11.2845103"><ele>496.99999999999994</ele><time>2026-04-07T08:41:38.985Z</time></trkpt><trkpt lat="45.7096649" lon="11.2845336"><ele>497.0</ele><time>2026-04-07T08:41:39.985Z</time></trkpt><trkpt lat="45.7095418" lon="11.2845354"><ele>497.0</ele><time>2026-04-07T08:41:41.986Z</time></trkpt><trkpt lat="45.7094774" lon="11.2845263"><ele>497.0</ele><time>2026-04-07T08:41:42.986Z</time></trkpt><trkpt lat="45.7094092" lon="11.284493"><ele>496.99999999999994</ele><time>2026-04-07T08:41:43.986Z</time></trkpt><trkpt lat="45.7093445" lon="11.2844547"><ele>497.0</ele><time>2026-04-07T08:41:44.986Z</time></trkpt><trkpt lat="45.7092718" lon="11.2844154"><ele>497.6</ele><time>2026-04-07T08:41:45.986Z</time></trkpt><trkpt lat="45.7091994" lon="11.2843819"><ele>498.20000000000005</ele><time>2026-04-07T08:41:46.986Z</time></trkpt><trkpt lat="45.7091314" lon="11.2843622"><ele>498.8</ele><time>2026-04-07T08:41:47.986Z</time></trkpt><trkpt lat="45.709033" lon="11.2842978"><ele>499.4</ele><time>2026-04-07T08:41:49.986Z</time></trkpt><trkpt lat="45.7089452" lon="11.2841906"><ele>500.0</ele><time>2026-04-07T08:41:51.986Z</time></trkpt><trkpt lat="45.7088434" lon="11.2841494"><ele>499.99999999999994</ele><time>2026-04-07T08:41:53.986Z</time></trkpt><trkpt lat="45.7087269" lon="11.2841621"><ele>500.0</ele><time>2026-04-07T08:41:55.985Z</time></trkpt><trkpt lat="45.7086583" lon="11.2841881"><ele>500.0</ele><time>2026-04-07T08:41:56.985Z</time></trkpt><trkpt lat="45.7085833" lon="11.2842214"><ele>500.0</ele><time>2026-04-07T08:41:57.985Z</time></trkpt><trkpt lat="45.7085116" lon="11.2842476"><ele>499.99999999999994</ele><time>2026-04-07T08:41:58.986Z</time></trkpt><trkpt lat="45.7084383" lon="11.28425"><ele>500.0</ele><time>2026-04-07T08:41:59.985Z</time></trkpt><trkpt lat="45.7083683" lon="11.28422"><ele>500.3333333333333</ele><time>2026-04-07T08:42:00.986Z</time></trkpt><trkpt lat="45.70829" lon="11.28418"><ele>500.66666666666663</ele><time>2026-04-07T08:42:01.986Z</time></trkpt><trkpt lat="45.7082117" lon="11.28414"><ele>501.0</ele><time>2026-04-07T08:42:02.985Z</time></trkpt><trkpt lat="45.70814" lon="11.2841083"><ele>501.33333333333337</ele><time>2026-04-07T08:42:03.985Z</time></trkpt><trkpt lat="45.7080617" lon="11.2840917"><ele>501.6666666666667</ele><time>2026-04-07T08:42:04.985Z</time></trkpt><trkpt lat="45.7079817" lon="11.2840867"><ele>502.0</ele><time>2026-04-07T08:42:05.986Z</time></trkpt><trkpt lat="45.7078917" lon="11.284085"><ele>502.0</ele><time>2026-04-07T08:42:06.986Z</time></trkpt><trkpt lat="45.7077883" lon="11.28408"><ele>502.00000000000006</ele><time>2026-04-07T08:42:07.986Z</time></trkpt><trkpt lat="45.7076917" lon="11.28408"><ele>502.00000000000006</ele><time>2026-04-07T08:42:08.986Z</time></trkpt><trkpt lat="45.7076033" lon="11.2840833"><ele>502.0</ele><time>2026-04-07T08:42:09.986Z</time></trkpt><trkpt lat="45.7075117" lon="11.2840767"><ele>502.0</ele><time>2026-04-07T08:42:10.986Z</time></trkpt><trkpt lat="45.70744" lon="11.2840783"><ele>501.8</ele><time>2026-04-07T08:42:11.985Z</time></trkpt><trkpt lat="45.7073667" lon="11.2840617"><ele>501.6</ele><time>2026-04-07T08:42:12.985Z</time></trkpt><trkpt lat="45.7072617" lon="11.283985"><ele>501.40000000000003</ele><time>2026-04-07T08:42:14.986Z</time></trkpt><trkpt lat="45.7072067" lon="11.2839367"><ele>501.20000000000005</ele><time>2026-04-07T08:42:15.985Z</time></trkpt><trkpt lat="45.70711" lon="11.2838517"><ele>501.0</ele><time>2026-04-07T08:42:17.986Z</time></trkpt><trkpt lat="45.7070083" lon="11.2838017"><ele>501.8</ele><time>2026-04-07T08:42:19.985Z</time></trkpt><trkpt lat="45.706905" lon="11.283775"><ele>502.6</ele><time>2026-04-07T08:42:21.986Z</time></trkpt><trkpt lat="45.7068083" lon="11.2838017"><ele>503.4</ele><time>2026-04-07T08:42:23.985Z</time></trkpt><trkpt lat="45.7067017" lon="11.28388"><ele>504.2</ele><time>2026-04-07T08:42:25.985Z</time></trkpt><trkpt lat="45.7065883" lon="11.2839083"><ele>505.0</ele><time>2026-04-07T08:42:27.986Z</time></trkpt><trkpt lat="45.706525" lon="11.2839167"><ele>505.00000000000006</ele><time>2026-04-07T08:42:28.986Z</time></trkpt><trkpt lat="45.70646" lon="11.28391"><ele>505.0</ele><time>2026-04-07T08:42:29.985Z</time></trkpt><trkpt lat="45.7063817" lon="11.283895"><ele>505.0</ele><time>2026-04-07T08:42:31.985Z</time></trkpt><trkpt lat="45.706475" lon="11.2837633"><ele>505.0</ele><time>2026-04-07T08:42:36.986Z</time></trkpt><trkpt lat="45.7065417" lon="11.2836883"><ele>505.00000000000006</ele><time>2026-04-07T08:42:37.985Z</time></trkpt><trkpt lat="45.7065983" lon="11.2836017"><ele>505.0</ele><time>2026-04-07T08:42:38.986Z</time></trkpt><trkpt lat="45.7066433" lon="11.2835133"><ele>505.00000000000006</ele><time>2026-04-07T08:42:39.985Z</time></trkpt><trkpt lat="45.7066767" lon="11.2834083"><ele>505.0</ele><time>2026-04-07T08:42:40.986Z</time></trkpt><trkpt lat="45.7067033" lon="11.2833"><ele>505.0</ele><time>2026-04-07T08:42:41.986Z</time></trkpt><trkpt lat="45.7067317" lon="11.2831833"><ele>505.0</ele><time>2026-04-07T08:42:42.985Z</time></trkpt><trkpt lat="45.7067567" lon="11.2830817"><ele>505.00000000000006</ele><time>2026-04-07T08:42:43.986Z</time></trkpt><trkpt lat="45.7067983" lon="11.282985"><ele>505.0</ele><time>2026-04-07T08:42:44.985Z</time></trkpt><trkpt lat="45.70683" lon="11.282895"><ele>503.6</ele><time>2026-04-07T08:42:45.985Z</time></trkpt><trkpt lat="45.7068533" lon="11.2827817"><ele>502.2</ele><time>2026-04-07T08:42:46.985Z</time></trkpt><trkpt lat="45.7068883" lon="11.2826667"><ele>500.79999999999995</ele><time>2026-04-07T08:42:47.986Z</time></trkpt><trkpt lat="45.70693" lon="11.28255"><ele>499.4</ele><time>2026-04-07T08:42:48.986Z</time></trkpt><trkpt lat="45.7069617" lon="11.2824417"><ele>498.0</ele><time>2026-04-07T08:42:49.985Z</time></trkpt><trkpt lat="45.7069783" lon="11.28229"><ele>500.2</ele><time>2026-04-07T08:42:51.986Z</time></trkpt><trkpt lat="45.7070483" lon="11.28221"><ele>502.4</ele><time>2026-04-07T08:42:53.986Z</time></trkpt><trkpt lat="45.707175" lon="11.2821167"><ele>504.59999999999997</ele><time>2026-04-07T08:42:55.986Z</time></trkpt><trkpt lat="45.7072417" lon="11.2820667"><ele>506.79999999999995</ele><time>2026-04-07T08:42:56.985Z</time></trkpt><trkpt lat="45.7072967" lon="11.2819983"><ele>509.0</ele><time>2026-04-07T08:42:57.985Z</time></trkpt><trkpt lat="45.7073417" lon="11.28192"><ele>509.0</ele><time>2026-04-07T08:42:58.986Z</time></trkpt><trkpt lat="45.7073717" lon="11.2817783"><ele>509.0</ele><time>2026-04-07T08:43:00.986Z</time></trkpt><trkpt lat="45.7073417" lon="11.2816317"><ele>509.0</ele><time>2026-04-07T08:43:02.985Z</time></trkpt><trkpt lat="45.7073117" lon="11.2815483"><ele>509.0</ele><time>2026-04-07T08:43:03.986Z</time></trkpt><trkpt lat="45.7072667" lon="11.28143"><ele>509.0</ele><time>2026-04-07T08:43:04.985Z</time></trkpt><trkpt lat="45.7072067" lon="11.28127"><ele>510.3333333333333</ele><time>2026-04-07T08:43:05.986Z</time></trkpt><trkpt lat="45.7071583" lon="11.28114"><ele>511.66666666666663</ele><time>2026-04-07T08:43:06.986Z</time></trkpt><trkpt lat="45.70712" lon="11.2810233"><ele>513.0</ele><time>2026-04-07T08:43:07.986Z</time></trkpt><trkpt lat="45.7070767" lon="11.2808933"><ele>514.3333333333334</ele><time>2026-04-07T08:43:08.986Z</time></trkpt><trkpt lat="45.707045" lon="11.2807867"><ele>515.6666666666667</ele><time>2026-04-07T08:43:09.985Z</time></trkpt><trkpt lat="45.7070133" lon="11.2806917"><ele>517.0</ele><time>2026-04-07T08:43:10.986Z</time></trkpt><trkpt lat="45.7069883" lon="11.280585"><ele>519.0</ele><time>2026-04-07T08:43:11.986Z</time></trkpt><trkpt lat="45.70697" lon="11.2804783"><ele>521.0</ele><time>2026-04-07T08:43:12.985Z</time></trkpt><trkpt lat="45.7069683" lon="11.280375"><ele>523.0</ele><time>2026-04-07T08:43:13.985Z</time></trkpt><trkpt lat="45.706985" lon="11.2802867"><ele>525.0</ele><time>2026-04-07T08:43:14.985Z</time></trkpt><trkpt lat="45.7070183" lon="11.28015"><ele>527.0</ele><time>2026-04-07T08:43:16.986Z</time></trkpt><trkpt lat="45.7070783" lon="11.2800867"><ele>529.0</ele><time>2026-04-07T08:43:18.986Z</time></trkpt><trkpt lat="45.707215" lon="11.2801233"><ele>529.0</ele><time>2026-04-07T08:43:20.986Z</time></trkpt><trkpt lat="45.7073367" lon="11.2800783"><ele>529.0</ele><time>2026-04-07T08:43:22.986Z</time></trkpt><trkpt lat="45.7074167" lon="11.2800117"><ele>529.0</ele><time>2026-04-07T08:43:23.986Z</time></trkpt><trkpt lat="45.70748" lon="11.2799333"><ele>529.0</ele><time>2026-04-07T08:43:24.986Z</time></trkpt><trkpt lat="45.7075567" lon="11.279805"><ele>529.0</ele><time>2026-04-07T08:43:26.986Z</time></trkpt><trkpt lat="45.707585" lon="11.27962"><ele>529.6666666666667</ele><time>2026-04-07T08:43:28.986Z</time></trkpt><trkpt lat="45.7076067" lon="11.2795217"><ele>530.3333333333334</ele><time>2026-04-07T08:43:29.986Z</time></trkpt><trkpt lat="45.7076417" lon="11.2794467"><ele>531.0</ele><time>2026-04-07T08:43:30.986Z</time></trkpt><trkpt lat="45.707695" lon="11.2793067"><ele>531.6666666666666</ele><time>2026-04-07T08:43:32.985Z</time></trkpt><trkpt lat="45.7077017" lon="11.2791467"><ele>532.3333333333333</ele><time>2026-04-07T08:43:34.986Z</time></trkpt><trkpt lat="45.7076767" lon="11.279055"><ele>533.0</ele><time>2026-04-07T08:43:35.986Z</time></trkpt><trkpt lat="45.707625" lon="11.2789617"><ele>533.0</ele><time>2026-04-07T08:43:36.986Z</time></trkpt><trkpt lat="45.70756" lon="11.2788717"><ele>533.0</ele><time>2026-04-07T08:43:37.986Z</time></trkpt><trkpt lat="45.707505" lon="11.278785"><ele>533.0</ele><time>2026-04-07T08:43:38.985Z</time></trkpt><trkpt lat="45.70744" lon="11.27872"><ele>533.0</ele><time>2026-04-07T08:43:39.986Z</time></trkpt><trkpt lat="45.7073567" lon="11.278665"><ele>533.0</ele><time>2026-04-07T08:43:40.985Z</time></trkpt><trkpt lat="45.7072583" lon="11.278615"><ele>533.0</ele><time>2026-04-07T08:43:41.986Z</time></trkpt><trkpt lat="45.7071683" lon="11.2785883"><ele>533.0</ele><time>2026-04-07T08:43:42.986Z</time></trkpt><trkpt lat="45.707095" lon="11.27857"><ele>533.0</ele><time>2026-04-07T08:43:43.986Z</time></trkpt><trkpt lat="45.7069933" lon="11.27853"><ele>533.0</ele><time>2026-04-07T08:43:45.986Z</time></trkpt><trkpt lat="45.70692" lon="11.278575"><ele>533.0</ele><time>2026-04-07T08:43:47.986Z</time></trkpt><trkpt lat="45.7068483" lon="11.2786933"><ele>533.0</ele><time>2026-04-07T08:43:49.986Z</time></trkpt><trkpt lat="45.7068017" lon="11.27877"><ele>533.0</ele><time>2026-04-07T08:43:50.986Z</time></trkpt><trkpt lat="45.706755" lon="11.2788483"><ele>535.6666666666666</ele><time>2026-04-07T08:43:51.986Z</time></trkpt><trkpt lat="45.7066717" lon="11.27898"><ele>538.3333333333333</ele><time>2026-04-07T08:43:53.986Z</time></trkpt><trkpt lat="45.706615" lon="11.2790233"><ele>541.0</ele><time>2026-04-07T08:43:54.985Z</time></trkpt><trkpt lat="45.70652" lon="11.2790683"><ele>543.6666666666666</ele><time>2026-04-07T08:43:56.985Z</time></trkpt><trkpt lat="45.7064367" lon="11.2790583"><ele>546.3333333333334</ele><time>2026-04-07T08:43:58.984Z</time></trkpt><trkpt lat="45.7063767" lon="11.27903"><ele>549.0</ele><time>2026-04-07T08:43:59.985Z</time></trkpt><trkpt lat="45.7062667" lon="11.2790133"><ele>549.0</ele><time>2026-04-07T08:44:01.984Z</time></trkpt><trkpt lat="45.7061967" lon="11.2790417"><ele>549.0</ele><time>2026-04-07T08:44:02.985Z</time></trkpt><trkpt lat="45.7060817" lon="11.2790833"><ele>549.0</ele><time>2026-04-07T08:44:04.985Z</time></trkpt><trkpt lat="45.7060183" lon="11.2791783"><ele>549.0</ele><time>2026-04-07T08:44:06.984Z</time></trkpt><trkpt lat="45.7059967" lon="11.279325"><ele>549.0</ele><time>2026-04-07T08:44:08.984Z</time></trkpt><trkpt lat="45.7059817" lon="11.2794833"><ele>549.6666666666666</ele><time>2026-04-07T08:44:10.985Z</time></trkpt><trkpt lat="45.705985" lon="11.2795833"><ele>550.3333333333334</ele><time>2026-04-07T08:44:11.985Z</time></trkpt><trkpt lat="45.7059817" lon="11.2796833"><ele>551.0</ele><time>2026-04-07T08:44:12.984Z</time></trkpt><trkpt lat="45.7059933" lon="11.279785"><ele>551.6666666666667</ele><time>2026-04-07T08:44:13.984Z</time></trkpt><trkpt lat="45.7060283" lon="11.2798767"><ele>552.3333333333334</ele><time>2026-04-07T08:44:14.985Z</time></trkpt><trkpt lat="45.7060617" lon="11.2799617"><ele>553.0</ele><time>2026-04-07T08:44:15.985Z</time></trkpt><trkpt lat="45.7061183" lon="11.28013"><ele>553.0</ele><time>2026-04-07T08:44:17.985Z</time></trkpt><trkpt lat="45.70615" lon="11.28023"><ele>553.0</ele><time>2026-04-07T08:44:18.985Z</time></trkpt><trkpt lat="45.70617" lon="11.28034"><ele>553.0</ele><time>2026-04-07T08:44:19.985Z</time></trkpt><trkpt lat="45.7061867" lon="11.2804517"><ele>553.0</ele><time>2026-04-07T08:44:20.985Z</time></trkpt><trkpt lat="45.7061933" lon="11.2805733"><ele>553.0</ele><time>2026-04-07T08:44:21.984Z</time></trkpt><trkpt lat="45.7061967" lon="11.2806967"><ele>553.0</ele><time>2026-04-07T08:44:22.985Z</time></trkpt><trkpt lat="45.7062" lon="11.2808083"><ele>553.6666666666667</ele><time>2026-04-07T08:44:23.985Z</time></trkpt><trkpt lat="45.7062017" lon="11.2809083"><ele>554.3333333333334</ele><time>2026-04-07T08:44:24.985Z</time></trkpt><trkpt lat="45.7061917" lon="11.2810517"><ele>555.0</ele><time>2026-04-07T08:44:26.985Z</time></trkpt><trkpt lat="45.7061417" lon="11.2811133"><ele>555.6666666666666</ele><time>2026-04-07T08:44:28.985Z</time></trkpt><trkpt lat="45.70608" lon="11.2810717"><ele>556.3333333333333</ele><time>2026-04-07T08:44:30.985Z</time></trkpt><trkpt lat="45.7060383" lon="11.2809433"><ele>557.0</ele><time>2026-04-07T08:44:32.984Z</time></trkpt><trkpt lat="45.7060183" lon="11.280765"><ele>563.2</ele><time>2026-04-07T08:44:34.984Z</time></trkpt><trkpt lat="45.7059767" lon="11.280585"><ele>569.4000000000001</ele><time>2026-04-07T08:44:36.985Z</time></trkpt><trkpt lat="45.7059117" lon="11.2804183"><ele>575.5999999999999</ele><time>2026-04-07T08:44:38.985Z</time></trkpt><trkpt lat="45.7058633" lon="11.2803517"><ele>581.8</ele><time>2026-04-07T08:44:39.985Z</time></trkpt><trkpt lat="45.7057867" lon="11.2802667"><ele>588.0</ele><time>2026-04-07T08:44:40.984Z</time></trkpt><trkpt lat="45.705735" lon="11.2801933"><ele>588.0</ele><time>2026-04-07T08:44:41.984Z</time></trkpt><trkpt lat="45.7056833" lon="11.280115"><ele>588.0</ele><time>2026-04-07T08:44:42.984Z</time></trkpt><trkpt lat="45.7056383" lon="11.2800517"><ele>588.0</ele><time>2026-04-07T08:44:43.985Z</time></trkpt><trkpt lat="45.705585" lon="11.2799883"><ele>588.0</ele><time>2026-04-07T08:44:44.985Z</time></trkpt><trkpt lat="45.705515" lon="11.2799267"><ele>588.0</ele><time>2026-04-07T08:44:46.984Z</time></trkpt><trkpt lat="45.705445" lon="11.2799483"><ele>588.0</ele><time>2026-04-07T08:44:48.985Z</time></trkpt><trkpt lat="45.7053467" lon="11.2800383"><ele>588.0</ele><time>2026-04-07T08:44:50.985Z</time></trkpt><trkpt lat="45.7052767" lon="11.2801183"><ele>588.0</ele><time>2026-04-07T08:44:51.985Z</time></trkpt><trkpt lat="45.7052233" lon="11.2802"><ele>588.0</ele><time>2026-04-07T08:44:52.985Z</time></trkpt><trkpt lat="45.7051767" lon="11.2802833"><ele>588.0</ele><time>2026-04-07T08:44:53.985Z</time></trkpt><trkpt lat="45.705145" lon="11.2803617"><ele>588.0</ele><time>2026-04-07T08:44:54.984Z</time></trkpt><trkpt lat="45.7051" lon="11.2804333"><ele>588.0</ele><time>2026-04-07T08:44:55.985Z</time></trkpt><trkpt lat="45.705045" lon="11.280495"><ele>588.0</ele><time>2026-04-07T08:44:56.984Z</time></trkpt><trkpt lat="45.70499" lon="11.2805417"><ele>591.4285714285714</ele><time>2026-04-07T08:44:57.985Z</time></trkpt><trkpt lat="45.704935" lon="11.2805967"><ele>594.8571428571429</ele><time>2026-04-07T08:44:58.984Z</time></trkpt><trkpt lat="45.7048767" lon="11.2806517"><ele>598.2857142857142</ele><time>2026-04-07T08:44:59.984Z</time></trkpt><trkpt lat="45.7048183" lon="11.2807"><ele>601.7142857142858</ele><time>2026-04-07T08:45:00.984Z</time></trkpt><trkpt lat="45.70476" lon="11.2807467"><ele>605.1428571428571</ele><time>2026-04-07T08:45:01.985Z</time></trkpt><trkpt lat="45.7046933" lon="11.280805"><ele>608.5714285714286</ele><time>2026-04-07T08:45:02.984Z</time></trkpt><trkpt lat="45.7046167" lon="11.2808633"><ele>612.0</ele><time>2026-04-07T08:45:03.984Z</time></trkpt><trkpt lat="45.704545" lon="11.2809133"><ele>612.0</ele><time>2026-04-07T08:45:04.984Z</time></trkpt><trkpt lat="45.7044817" lon="11.28096"><ele>612.0</ele><time>2026-04-07T08:45:05.985Z</time></trkpt><trkpt lat="45.7043767" lon="11.281035"><ele>612.0</ele><time>2026-04-07T08:45:07.985Z</time></trkpt><trkpt lat="45.704315" lon="11.2810067"><ele>612.0</ele><time>2026-04-07T08:45:10.984Z</time></trkpt><trkpt lat="45.7043883" lon="11.2809033"><ele>612.0</ele><time>2026-04-07T08:45:13.985Z</time></trkpt><trkpt lat="45.70443" lon="11.2808317"><ele>612.0</ele><time>2026-04-07T08:45:14.984Z</time></trkpt><trkpt lat="45.7044817" lon="11.2807017"><ele>612.1666666666666</ele><time>2026-04-07T08:45:16.985Z</time></trkpt><trkpt lat="45.7045083" lon="11.2805867"><ele>612.3333333333334</ele><time>2026-04-07T08:45:18.984Z</time></trkpt><trkpt lat="45.7045117" lon="11.280435"><ele>612.5</ele><time>2026-04-07T08:45:20.985Z</time></trkpt><trkpt lat="45.7044933" lon="11.2803133"><ele>612.6666666666667</ele><time>2026-04-07T08:45:22.985Z</time></trkpt><trkpt lat="45.7044683" lon="11.2802183"><ele>612.8333333333334</ele><time>2026-04-07T08:45:24.985Z</time></trkpt><trkpt lat="45.7043833" lon="11.280205"><ele>613.0</ele><time>2026-04-07T08:45:27.984Z</time></trkpt><trkpt lat="45.7043167" lon="11.2802833"><ele>617.4</ele><time>2026-04-07T08:45:29.985Z</time></trkpt><trkpt lat="45.7042367" lon="11.2803967"><ele>621.8</ele><time>2026-04-07T08:45:31.984Z</time></trkpt><trkpt lat="45.7041917" lon="11.2804717"><ele>626.2</ele><time>2026-04-07T08:45:32.985Z</time></trkpt><trkpt lat="45.7041433" lon="11.2805583"><ele>630.6</ele><time>2026-04-07T08:45:33.985Z</time></trkpt><trkpt lat="45.7040917" lon="11.2806667"><ele>635.0</ele><time>2026-04-07T08:45:34.985Z</time></trkpt><trkpt lat="45.704055" lon="11.2807983"><ele>635.0</ele><time>2026-04-07T08:45:35.985Z</time></trkpt><trkpt lat="45.70401" lon="11.2809317"><ele>635.0</ele><time>2026-04-07T08:45:36.985Z</time></trkpt><trkpt lat="45.7039667" lon="11.2810617"><ele>635.0</ele><time>2026-04-07T08:45:37.985Z</time></trkpt><trkpt lat="45.7039417" lon="11.2811617"><ele>635.0</ele><time>2026-04-07T08:45:38.985Z</time></trkpt><trkpt lat="45.7039417" lon="11.2812567"><ele>635.0</ele><time>2026-04-07T08:45:39.984Z</time></trkpt><trkpt lat="45.7039367" lon="11.2813617"><ele>635.0</ele><time>2026-04-07T08:45:40.985Z</time></trkpt><trkpt lat="45.7039367" lon="11.2814583"><ele>634.5</ele><time>2026-04-07T08:45:41.985Z</time></trkpt><trkpt lat="45.703925" lon="11.28159"><ele>634.0</ele><time>2026-04-07T08:45:43.985Z</time></trkpt><trkpt lat="45.703895" lon="11.2817067"><ele>633.5</ele><time>2026-04-07T08:45:45.984Z</time></trkpt><trkpt lat="45.7038567" lon="11.28178"><ele>633.0</ele><time>2026-04-07T08:45:47.985Z</time></trkpt><trkpt lat="45.7037967" lon="11.281745"><ele>632.5</ele><time>2026-04-07T08:45:50.985Z</time></trkpt><trkpt lat="45.70378" lon="11.2816183"><ele>632.0</ele><time>2026-04-07T08:45:52.985Z</time></trkpt><trkpt lat="45.703765" lon="11.2815233"><ele>632.5</ele><time>2026-04-07T08:45:53.985Z</time></trkpt><trkpt lat="45.7037517" lon="11.2814167"><ele>633.0</ele><time>2026-04-07T08:45:54.985Z</time></trkpt><trkpt lat="45.703735" lon="11.2813117"><ele>633.5</ele><time>2026-04-07T08:45:55.985Z</time></trkpt><trkpt lat="45.703715" lon="11.281195"><ele>634.0</ele><time>2026-04-07T08:45:56.985Z</time></trkpt><trkpt lat="45.7036867" lon="11.2810767"><ele>634.5</ele><time>2026-04-07T08:45:57.984Z</time></trkpt><trkpt lat="45.703665" lon="11.2809867"><ele>635.0</ele><time>2026-04-07T08:45:58.984Z</time></trkpt><trkpt lat="45.7036267" lon="11.280815"><ele>634.9999999999999</ele><time>2026-04-07T08:46:00.984Z</time></trkpt><trkpt lat="45.7036117" lon="11.280725"><ele>635.0</ele><time>2026-04-07T08:46:01.985Z</time></trkpt><trkpt lat="45.7036017" lon="11.280635"><ele>635.0</ele><time>2026-04-07T08:46:02.984Z</time></trkpt><trkpt lat="45.70359" lon="11.2805217"><ele>635.0</ele><time>2026-04-07T08:46:03.985Z</time></trkpt><trkpt lat="45.70358" lon="11.2804133"><ele>635.0</ele><time>2026-04-07T08:46:04.985Z</time></trkpt><trkpt lat="45.7035767" lon="11.2803033"><ele>634.9999999999999</ele><time>2026-04-07T08:46:05.984Z</time></trkpt><trkpt lat="45.70358" lon="11.2801867"><ele>635.0</ele><time>2026-04-07T08:46:06.985Z</time></trkpt><trkpt lat="45.70358" lon="11.2800817"><ele>636.6666666666666</ele><time>2026-04-07T08:46:07.985Z</time></trkpt><trkpt lat="45.7035933" lon="11.2799767"><ele>638.3333333333333</ele><time>2026-04-07T08:46:08.985Z</time></trkpt><trkpt lat="45.70362" lon="11.27988"><ele>640.0</ele><time>2026-04-07T08:46:09.985Z</time></trkpt><trkpt lat="45.7036367" lon="11.2797133"><ele>641.6666666666666</ele><time>2026-04-07T08:46:11.984Z</time></trkpt><trkpt lat="45.7036283" lon="11.279615"><ele>643.3333333333334</ele><time>2026-04-07T08:46:12.985Z</time></trkpt><trkpt lat="45.7036133" lon="11.27951"><ele>645.0</ele><time>2026-04-07T08:46:13.984Z</time></trkpt><trkpt lat="45.7035933" lon="11.2793867"><ele>651.5</ele><time>2026-04-07T08:46:14.985Z</time></trkpt><trkpt lat="45.70357" lon="11.2792833"><ele>658.0</ele><time>2026-04-07T08:46:15.984Z</time></trkpt><trkpt lat="45.7035383" lon="11.2791683"><ele>664.5</ele><time>2026-04-07T08:46:17.985Z</time></trkpt><trkpt lat="45.7034767" lon="11.2791383"><ele>671.0</ele><time>2026-04-07T08:46:19.985Z</time></trkpt><trkpt lat="45.7033783" lon="11.2791433"><ele>677.5</ele><time>2026-04-07T08:46:21.984Z</time></trkpt><trkpt lat="45.7032933" lon="11.2790583"><ele>684.0</ele><time>2026-04-07T08:46:23.985Z</time></trkpt><trkpt lat="45.7032517" lon="11.2788933"><ele>684.6666666666666</ele><time>2026-04-07T08:46:25.985Z</time></trkpt><trkpt lat="45.703245" lon="11.2787883"><ele>685.3333333333334</ele><time>2026-04-07T08:46:26.985Z</time></trkpt><trkpt lat="45.7032517" lon="11.2786617"><ele>686.0</ele><time>2026-04-07T08:46:27.985Z</time></trkpt><trkpt lat="45.70326" lon="11.2785467"><ele>686.6666666666667</ele><time>2026-04-07T08:46:28.985Z</time></trkpt><trkpt lat="45.70326" lon="11.2784383"><ele>687.3333333333334</ele><time>2026-04-07T08:46:29.985Z</time></trkpt><trkpt lat="45.70328" lon="11.278345"><ele>688.0</ele><time>2026-04-07T08:46:30.984Z</time></trkpt><trkpt lat="45.7033267" lon="11.278195"><ele>689.2</ele><time>2026-04-07T08:46:32.985Z</time></trkpt><trkpt lat="45.7033717" lon="11.2780583"><ele>690.4</ele><time>2026-04-07T08:46:34.984Z</time></trkpt><trkpt lat="45.703395" lon="11.27791"><ele>691.6</ele><time>2026-04-07T08:46:36.985Z</time></trkpt><trkpt lat="45.7034" lon="11.27776"><ele>692.8000000000001</ele><time>2026-04-07T08:46:38.984Z</time></trkpt><trkpt lat="45.7033433" lon="11.2775917"><ele>694.0</ele><time>2026-04-07T08:46:40.985Z</time></trkpt><trkpt lat="45.7033" lon="11.2774933"><ele>694.0</ele><time>2026-04-07T08:46:41.985Z</time></trkpt><trkpt lat="45.703235" lon="11.277395"><ele>694.0</ele><time>2026-04-07T08:46:42.984Z</time></trkpt><trkpt lat="45.7031883" lon="11.2773067"><ele>694.0</ele><time>2026-04-07T08:46:43.985Z</time></trkpt><trkpt lat="45.7031517" lon="11.2772283"><ele>694.0</ele><time>2026-04-07T08:46:44.984Z</time></trkpt><trkpt lat="45.7031067" lon="11.2770517"><ele>694.0</ele><time>2026-04-07T08:46:46.985Z</time></trkpt><trkpt lat="45.7030917" lon="11.2769383"><ele>694.7142857142858</ele><time>2026-04-07T08:46:47.985Z</time></trkpt><trkpt lat="45.7030783" lon="11.276815"><ele>695.4285714285713</ele><time>2026-04-07T08:46:48.985Z</time></trkpt><trkpt lat="45.7030683" lon="11.27672"><ele>696.1428571428571</ele><time>2026-04-07T08:46:49.985Z</time></trkpt><trkpt lat="45.7030517" lon="11.2766167"><ele>696.8571428571429</ele><time>2026-04-07T08:46:50.985Z</time></trkpt><trkpt lat="45.70302" lon="11.2765167"><ele>697.5714285714287</ele><time>2026-04-07T08:46:51.985Z</time></trkpt><trkpt lat="45.7029967" lon="11.27642"><ele>698.2857142857142</ele><time>2026-04-07T08:46:52.985Z</time></trkpt><trkpt lat="45.7029683" lon="11.2763283"><ele>699.0</ele><time>2026-04-07T08:46:53.985Z</time></trkpt><trkpt lat="45.70293" lon="11.2761833"><ele>700.75</ele><time>2026-04-07T08:46:55.985Z</time></trkpt><trkpt lat="45.7028933" lon="11.2760783"><ele>702.5</ele><time>2026-04-07T08:46:57.984Z</time></trkpt><trkpt lat="45.7027967" lon="11.2759633"><ele>704.25</ele><time>2026-04-07T08:46:59.985Z</time></trkpt><trkpt lat="45.702695" lon="11.275855"><ele>706.0</ele><time>2026-04-07T08:47:01.984Z</time></trkpt><trkpt lat="45.702635" lon="11.275695"><ele>704.4</ele><time>2026-04-07T08:47:03.985Z</time></trkpt><trkpt lat="45.702625" lon="11.27555"><ele>702.8</ele><time>2026-04-07T08:47:05.985Z</time></trkpt><trkpt lat="45.7026433" lon="11.2753583"><ele>701.1999999999999</ele><time>2026-04-07T08:47:07.984Z</time></trkpt><trkpt lat="45.702645" lon="11.27523"><ele>699.5999999999999</ele><time>2026-04-07T08:47:08.985Z</time></trkpt><trkpt lat="45.70265" lon="11.275115"><ele>698.0</ele><time>2026-04-07T08:47:09.985Z</time></trkpt><trkpt lat="45.70264" lon="11.27501"><ele>698.0</ele><time>2026-04-07T08:47:10.984Z</time></trkpt><trkpt lat="45.702625" lon="11.27491"><ele>698.0</ele><time>2026-04-07T08:47:11.985Z</time></trkpt><trkpt lat="45.7026017" lon="11.2747933"><ele>698.0</ele><time>2026-04-07T08:47:12.985Z</time></trkpt><trkpt lat="45.702575" lon="11.2746617"><ele>698.0</ele><time>2026-04-07T08:47:13.984Z</time></trkpt><trkpt lat="45.702545" lon="11.2745083"><ele>698.0</ele><time>2026-04-07T08:47:14.984Z</time></trkpt><trkpt lat="45.702515" lon="11.2743333"><ele>696.8</ele><time>2026-04-07T08:47:15.984Z</time></trkpt><trkpt lat="45.7025" lon="11.2741767"><ele>695.5999999999999</ele><time>2026-04-07T08:47:16.984Z</time></trkpt><trkpt lat="45.7024883" lon="11.2740333"><ele>694.4000000000001</ele><time>2026-04-07T08:47:17.985Z</time></trkpt><trkpt lat="45.7024767" lon="11.2739317"><ele>693.2</ele><time>2026-04-07T08:47:18.985Z</time></trkpt><trkpt lat="45.70242" lon="11.2737967"><ele>692.0</ele><time>2026-04-07T08:47:20.984Z</time></trkpt><trkpt lat="45.7023667" lon="11.2737417"><ele>690.1666666666666</ele><time>2026-04-07T08:47:21.985Z</time></trkpt><trkpt lat="45.7023017" lon="11.2736833"><ele>688.3333333333333</ele><time>2026-04-07T08:47:22.984Z</time></trkpt><trkpt lat="45.70224" lon="11.2736167"><ele>686.5</ele><time>2026-04-07T08:47:23.985Z</time></trkpt><trkpt lat="45.702185" lon="11.273535"><ele>684.6666666666666</ele><time>2026-04-07T08:47:24.985Z</time></trkpt><trkpt lat="45.70214" lon="11.2733717"><ele>682.8333333333334</ele><time>2026-04-07T08:47:26.984Z</time></trkpt><trkpt lat="45.7021317" lon="11.2732667"><ele>681.0</ele><time>2026-04-07T08:47:27.985Z</time></trkpt><trkpt lat="45.70214" lon="11.27317"><ele>678.6666666666666</ele><time>2026-04-07T08:47:28.985Z</time></trkpt><trkpt lat="45.7021467" lon="11.2730617"><ele>676.3333333333334</ele><time>2026-04-07T08:47:29.985Z</time></trkpt><trkpt lat="45.7021467" lon="11.272965"><ele>674.0</ele><time>2026-04-07T08:47:30.985Z</time></trkpt><trkpt lat="45.7021683" lon="11.2728383"><ele>671.6666666666667</ele><time>2026-04-07T08:47:32.985Z</time></trkpt><trkpt lat="45.70218" lon="11.272735"><ele>669.3333333333334</ele><time>2026-04-07T08:47:35.985Z</time></trkpt><trkpt lat="45.7021217" lon="11.2726517"><ele>667.0</ele><time>2026-04-07T08:47:38.985Z</time></trkpt><trkpt lat="45.70205" lon="11.2726067"><ele>667.0</ele><time>2026-04-07T08:47:40.985Z</time></trkpt><trkpt lat="45.7019733" lon="11.2725167"><ele>667.0</ele><time>2026-04-07T08:47:42.984Z</time></trkpt><trkpt lat="45.70192" lon="11.2723467"><ele>667.0</ele><time>2026-04-07T08:47:44.984Z</time></trkpt><trkpt lat="45.7019033" lon="11.27224"><ele>667.0</ele><time>2026-04-07T08:47:45.984Z</time></trkpt><trkpt lat="45.7018817" lon="11.27212"><ele>667.0</ele><time>2026-04-07T08:47:46.984Z</time></trkpt><trkpt lat="45.7018467" lon="11.271985"><ele>668.3333333333334</ele><time>2026-04-07T08:47:47.984Z</time></trkpt><trkpt lat="45.7018183" lon="11.2718467"><ele>669.6666666666667</ele><time>2026-04-07T08:47:48.984Z</time></trkpt><trkpt lat="45.7017983" lon="11.2717517"><ele>671.0</ele><time>2026-04-07T08:47:49.984Z</time></trkpt><trkpt lat="45.701775" lon="11.271655"><ele>672.3333333333334</ele><time>2026-04-07T08:47:50.983Z</time></trkpt><trkpt lat="45.7017467" lon="11.27157"><ele>673.6666666666666</ele><time>2026-04-07T08:47:51.984Z</time></trkpt><trkpt lat="45.7017083" lon="11.2714967"><ele>675.0</ele><time>2026-04-07T08:47:52.984Z</time></trkpt><trkpt lat="45.7016083" lon="11.2713817"><ele>675.0</ele><time>2026-04-07T08:47:54.983Z</time></trkpt><trkpt lat="45.7015567" lon="11.2713117"><ele>675.0</ele><time>2026-04-07T08:47:55.983Z</time></trkpt><trkpt lat="45.7015133" lon="11.27123"><ele>675.0</ele><time>2026-04-07T08:47:56.983Z</time></trkpt><trkpt lat="45.70146" lon="11.2711067"><ele>675.0</ele><time>2026-04-07T08:47:57.984Z</time></trkpt><trkpt lat="45.7014133" lon="11.270995"><ele>675.0</ele><time>2026-04-07T08:47:58.984Z</time></trkpt><trkpt lat="45.7013683" lon="11.270885"><ele>675.0</ele><time>2026-04-07T08:47:59.984Z</time></trkpt><trkpt lat="45.7013267" lon="11.2707983"><ele>675.0</ele><time>2026-04-07T08:48:00.984Z</time></trkpt><trkpt lat="45.7012783" lon="11.2707267"><ele>675.0</ele><time>2026-04-07T08:48:01.984Z</time></trkpt><trkpt lat="45.7012083" lon="11.2706683"><ele>675.0</ele><time>2026-04-07T08:48:02.984Z</time></trkpt><trkpt lat="45.7011283" lon="11.2706167"><ele>675.0</ele><time>2026-04-07T08:48:03.983Z</time></trkpt><trkpt lat="45.701035" lon="11.270565"><ele>675.0</ele><time>2026-04-07T08:48:04.984Z</time></trkpt><trkpt lat="45.7009517" lon="11.2705183"><ele>675.0</ele><time>2026-04-07T08:48:05.983Z</time></trkpt><trkpt lat="45.7008867" lon="11.27045"><ele>679.6</ele><time>2026-04-07T08:48:06.983Z</time></trkpt><trkpt lat="45.7008367" lon="11.2703683"><ele>684.2</ele><time>2026-04-07T08:48:07.983Z</time></trkpt><trkpt lat="45.7007917" lon="11.2702767"><ele>688.8</ele><time>2026-04-07T08:48:08.984Z</time></trkpt><trkpt lat="45.7007483" lon="11.2701583"><ele>693.4</ele><time>2026-04-07T08:48:09.983Z</time></trkpt><trkpt lat="45.7007033" lon="11.27002"><ele>698.0</ele><time>2026-04-07T08:48:10.984Z</time></trkpt><trkpt lat="45.700645" lon="11.26986"><ele>696.2</ele><time>2026-04-07T08:48:11.984Z</time></trkpt><trkpt lat="45.7005967" lon="11.2697133"><ele>694.4</ele><time>2026-04-07T08:48:12.984Z</time></trkpt><trkpt lat="45.7005533" lon="11.2695933"><ele>692.6</ele><time>2026-04-07T08:48:13.984Z</time></trkpt><trkpt lat="45.700515" lon="11.26951"><ele>690.8000000000001</ele><time>2026-04-07T08:48:14.983Z</time></trkpt><trkpt lat="45.7004617" lon="11.2693517"><ele>689.0</ele><time>2026-04-07T08:48:16.984Z</time></trkpt><trkpt lat="45.7004567" lon="11.2692033"><ele>689.0</ele><time>2026-04-07T08:48:18.984Z</time></trkpt><trkpt lat="45.70045" lon="11.269065"><ele>689.0</ele><time>2026-04-07T08:48:20.984Z</time></trkpt><trkpt lat="45.70041" lon="11.2689183"><ele>689.0</ele><time>2026-04-07T08:48:22.984Z</time></trkpt><trkpt lat="45.700375" lon="11.2687783"><ele>689.0</ele><time>2026-04-07T08:48:24.984Z</time></trkpt><trkpt lat="45.7003567" lon="11.2685867"><ele>689.0</ele><time>2026-04-07T08:48:26.983Z</time></trkpt><trkpt lat="45.7003567" lon="11.268465"><ele>690.6666666666666</ele><time>2026-04-07T08:48:27.984Z</time></trkpt><trkpt lat="45.7003583" lon="11.2683533"><ele>692.3333333333333</ele><time>2026-04-07T08:48:28.984Z</time></trkpt><trkpt lat="45.7003517" lon="11.268235"><ele>694.0</ele><time>2026-04-07T08:48:29.984Z</time></trkpt><trkpt lat="45.7003667" lon="11.2680633"><ele>695.6666666666666</ele><time>2026-04-07T08:48:31.984Z</time></trkpt><trkpt lat="45.700395" lon="11.267975"><ele>697.3333333333334</ele><time>2026-04-07T08:48:32.984Z</time></trkpt><trkpt lat="45.7004317" lon="11.2678433"><ele>699.0</ele><time>2026-04-07T08:48:33.984Z</time></trkpt><trkpt lat="45.7004833" lon="11.2676917"><ele>700.75</ele><time>2026-04-07T08:48:34.984Z</time></trkpt><trkpt lat="45.7005433" lon="11.26754"><ele>702.5</ele><time>2026-04-07T08:48:35.983Z</time></trkpt><trkpt lat="45.7005983" lon="11.2673917"><ele>704.25</ele><time>2026-04-07T08:48:36.984Z</time></trkpt><trkpt lat="45.70064" lon="11.2672483"><ele>706.0</ele><time>2026-04-07T08:48:37.984Z</time></trkpt><trkpt lat="45.7006833" lon="11.267115"><ele>706.0</ele><time>2026-04-07T08:48:38.983Z</time></trkpt><trkpt lat="45.7007167" lon="11.2669783"><ele>706.0</ele><time>2026-04-07T08:48:39.984Z</time></trkpt><trkpt lat="45.700755" lon="11.26688"><ele>706.0</ele><time>2026-04-07T08:48:40.983Z</time></trkpt><trkpt lat="45.7008033" lon="11.2668117"><ele>706.0</ele><time>2026-04-07T08:48:41.984Z</time></trkpt><trkpt lat="45.7008417" lon="11.2667383"><ele>706.0</ele><time>2026-04-07T08:48:42.984Z</time></trkpt><trkpt lat="45.70089" lon="11.2666767"><ele>706.0</ele><time>2026-04-07T08:48:43.984Z</time></trkpt><trkpt lat="45.7009517" lon="11.26661"><ele>706.0</ele><time>2026-04-07T08:48:44.984Z</time></trkpt><trkpt lat="45.7010233" lon="11.2665383"><ele>706.0</ele><time>2026-04-07T08:48:45.984Z</time></trkpt><trkpt lat="45.7010933" lon="11.2664533"><ele>706.0</ele><time>2026-04-07T08:48:46.983Z</time></trkpt><trkpt lat="45.701155" lon="11.2663617"><ele>706.0</ele><time>2026-04-07T08:48:47.984Z</time></trkpt><trkpt lat="45.7012033" lon="11.26628"><ele>706.0</ele><time>2026-04-07T08:48:48.984Z</time></trkpt><trkpt lat="45.7012517" lon="11.2662167"><ele>706.0</ele><time>2026-04-07T08:48:49.983Z</time></trkpt><trkpt lat="45.70135" lon="11.266155"><ele>706.8571428571428</ele><time>2026-04-07T08:48:51.984Z</time></trkpt><trkpt lat="45.701435" lon="11.2661667"><ele>707.7142857142858</ele><time>2026-04-07T08:48:53.984Z</time></trkpt><trkpt lat="45.7014883" lon="11.2662167"><ele>708.5714285714286</ele><time>2026-04-07T08:48:54.984Z</time></trkpt><trkpt lat="45.7015583" lon="11.2662933"><ele>709.4285714285713</ele><time>2026-04-07T08:48:55.984Z</time></trkpt><trkpt lat="45.7016217" lon="11.2663617"><ele>710.2857142857142</ele><time>2026-04-07T08:48:56.984Z</time></trkpt><trkpt lat="45.7016783" lon="11.2664083"><ele>711.1428571428571</ele><time>2026-04-07T08:48:57.984Z</time></trkpt><trkpt lat="45.7017417" lon="11.26643"><ele>712.0</ele><time>2026-04-07T08:48:58.984Z</time></trkpt><trkpt lat="45.7018117" lon="11.266415"><ele>712.0</ele><time>2026-04-07T08:48:59.983Z</time></trkpt><trkpt lat="45.7018967" lon="11.2663833"><ele>712.0</ele><time>2026-04-07T08:49:00.983Z</time></trkpt><trkpt lat="45.7020033" lon="11.2663183"><ele>712.0</ele><time>2026-04-07T08:49:01.984Z</time></trkpt><trkpt lat="45.7020967" lon="11.2662233"><ele>712.0</ele><time>2026-04-07T08:49:02.983Z</time></trkpt><trkpt lat="45.7021917" lon="11.2661183"><ele>712.0</ele><time>2026-04-07T08:49:03.984Z</time></trkpt><trkpt lat="45.70228" lon="11.26602"><ele>712.25</ele><time>2026-04-07T08:49:04.984Z</time></trkpt><trkpt lat="45.7023767" lon="11.2659283"><ele>712.5</ele><time>2026-04-07T08:49:05.984Z</time></trkpt><trkpt lat="45.702475" lon="11.26584"><ele>712.75</ele><time>2026-04-07T08:49:06.984Z</time></trkpt><trkpt lat="45.7025733" lon="11.265715"><ele>713.0</ele><time>2026-04-07T08:49:07.984Z</time></trkpt><trkpt lat="45.7026717" lon="11.2655933"><ele>716.5999999999999</ele><time>2026-04-07T08:49:08.984Z</time></trkpt><trkpt lat="45.7027683" lon="11.2654967"><ele>720.1999999999999</ele><time>2026-04-07T08:49:09.983Z</time></trkpt><trkpt lat="45.702865" lon="11.265415"><ele>723.8</ele><time>2026-04-07T08:49:10.984Z</time></trkpt><trkpt lat="45.7029567" lon="11.2653517"><ele>727.4</ele><time>2026-04-07T08:49:11.984Z</time></trkpt><trkpt lat="45.7030467" lon="11.2652883"><ele>731.0</ele><time>2026-04-07T08:49:12.983Z</time></trkpt><trkpt lat="45.703125" lon="11.2652133"><ele>731.0</ele><time>2026-04-07T08:49:13.984Z</time></trkpt><trkpt lat="45.7032067" lon="11.2651467"><ele>731.0</ele><time>2026-04-07T08:49:14.984Z</time></trkpt><trkpt lat="45.70328" lon="11.2651117"><ele>731.0</ele><time>2026-04-07T08:49:15.983Z</time></trkpt><trkpt lat="45.7033717" lon="11.2650917"><ele>731.0</ele><time>2026-04-07T08:49:16.984Z</time></trkpt><trkpt lat="45.7034817" lon="11.26508"><ele>731.0</ele><time>2026-04-07T08:49:17.984Z</time></trkpt><trkpt lat="45.7036017" lon="11.2650583"><ele>733.0</ele><time>2026-04-07T08:49:18.983Z</time></trkpt><trkpt lat="45.7037067" lon="11.2650483"><ele>735.0</ele><time>2026-04-07T08:49:19.983Z</time></trkpt><trkpt lat="45.70381" lon="11.2650417"><ele>737.0</ele><time>2026-04-07T08:49:20.984Z</time></trkpt><trkpt lat="45.7038983" lon="11.2650317"><ele>739.0</ele><time>2026-04-07T08:49:21.984Z</time></trkpt><trkpt lat="45.7039783" lon="11.2650233"><ele>741.0</ele><time>2026-04-07T08:49:22.984Z</time></trkpt><trkpt lat="45.7040633" lon="11.2650183"><ele>741.0</ele><time>2026-04-07T08:49:23.983Z</time></trkpt><trkpt lat="45.704135" lon="11.265025"><ele>741.0</ele><time>2026-04-07T08:49:24.983Z</time></trkpt><trkpt lat="45.7042167" lon="11.265025"><ele>741.0</ele><time>2026-04-07T08:49:25.983Z</time></trkpt><trkpt lat="45.7043017" lon="11.2650217"><ele>741.0</ele><time>2026-04-07T08:49:26.984Z</time></trkpt><trkpt lat="45.7043783" lon="11.2649983"><ele>741.0</ele><time>2026-04-07T08:49:27.984Z</time></trkpt><trkpt lat="45.7044517" lon="11.2649633"><ele>741.0</ele><time>2026-04-07T08:49:28.984Z</time></trkpt><trkpt lat="45.7045333" lon="11.2649083"><ele>740.6666666666666</ele><time>2026-04-07T08:49:29.984Z</time></trkpt><trkpt lat="45.70461" lon="11.26485"><ele>740.3333333333334</ele><time>2026-04-07T08:49:30.984Z</time></trkpt><trkpt lat="45.7046667" lon="11.2647833"><ele>740.0</ele><time>2026-04-07T08:49:31.984Z</time></trkpt><trkpt lat="45.70471" lon="11.2647033"><ele>739.6666666666667</ele><time>2026-04-07T08:49:32.984Z</time></trkpt><trkpt lat="45.70474" lon="11.2645983"><ele>739.3333333333334</ele><time>2026-04-07T08:49:33.984Z</time></trkpt><trkpt lat="45.7047583" lon="11.264455"><ele>739.0</ele><time>2026-04-07T08:49:34.983Z</time></trkpt><trkpt lat="45.704785" lon="11.2643033"><ele>739.0</ele><time>2026-04-07T08:49:35.984Z</time></trkpt><trkpt lat="45.7048383" lon="11.2641583"><ele>739.0</ele><time>2026-04-07T08:49:36.984Z</time></trkpt><trkpt lat="45.7049117" lon="11.2640333"><ele>739.0</ele><time>2026-04-07T08:49:37.984Z</time></trkpt><trkpt lat="45.704985" lon="11.2639017"><ele>739.0</ele><time>2026-04-07T08:49:38.983Z</time></trkpt><trkpt lat="45.7050433" lon="11.2637983"><ele>739.0</ele><time>2026-04-07T08:49:39.984Z</time></trkpt><trkpt lat="45.7050967" lon="11.2637183"><ele>739.6666666666667</ele><time>2026-04-07T08:49:40.984Z</time></trkpt><trkpt lat="45.7051433" lon="11.2636383"><ele>740.3333333333334</ele><time>2026-04-07T08:49:41.983Z</time></trkpt><trkpt lat="45.705215" lon="11.2635567"><ele>741.0</ele><time>2026-04-07T08:49:42.984Z</time></trkpt><trkpt lat="45.705295" lon="11.2634733"><ele>741.6666666666666</ele><time>2026-04-07T08:49:43.983Z</time></trkpt><trkpt lat="45.705365" lon="11.2633867"><ele>742.3333333333333</ele><time>2026-04-07T08:49:44.984Z</time></trkpt><trkpt lat="45.7054083" lon="11.263315"><ele>743.0</ele><time>2026-04-07T08:49:45.983Z</time></trkpt><trkpt lat="45.7054367" lon="11.2631367"><ele>743.5</ele><time>2026-04-07T08:49:47.983Z</time></trkpt><trkpt lat="45.705405" lon="11.263035"><ele>744.0</ele><time>2026-04-07T08:49:48.983Z</time></trkpt><trkpt lat="45.70539" lon="11.2629317"><ele>744.5</ele><time>2026-04-07T08:49:49.983Z</time></trkpt><trkpt lat="45.70541" lon="11.2627967"><ele>745.0</ele><time>2026-04-07T08:49:51.984Z</time></trkpt><trkpt lat="45.7054583" lon="11.2627267"><ele>745.5</ele><time>2026-04-07T08:49:52.983Z</time></trkpt><trkpt lat="45.7055317" lon="11.26265"><ele>746.0</ele><time>2026-04-07T08:49:53.984Z</time></trkpt><trkpt lat="45.70562" lon="11.2625767"><ele>746.0</ele><time>2026-04-07T08:49:54.984Z</time></trkpt><trkpt lat="45.7057083" lon="11.2625067"><ele>746.0</ele><time>2026-04-07T08:49:55.984Z</time></trkpt><trkpt lat="45.7057917" lon="11.2624517"><ele>746.0</ele><time>2026-04-07T08:49:56.983Z</time></trkpt><trkpt lat="45.70587" lon="11.2624"><ele>746.0</ele><time>2026-04-07T08:49:57.984Z</time></trkpt><trkpt lat="45.705945" lon="11.26235"><ele>746.0</ele><time>2026-04-07T08:49:58.983Z</time></trkpt><trkpt lat="45.7060217" lon="11.2623217"><ele>746.0</ele><time>2026-04-07T08:49:59.984Z</time></trkpt><trkpt lat="45.7061017" lon="11.2623083"><ele>745.5999999999999</ele><time>2026-04-07T08:50:00.984Z</time></trkpt><trkpt lat="45.7061783" lon="11.2622883"><ele>745.2</ele><time>2026-04-07T08:50:01.984Z</time></trkpt><trkpt lat="45.7062533" lon="11.2622617"><ele>744.8</ele><time>2026-04-07T08:50:02.984Z</time></trkpt><trkpt lat="45.706375" lon="11.2621983"><ele>744.4000000000001</ele><time>2026-04-07T08:50:04.984Z</time></trkpt><trkpt lat="45.70645" lon="11.2621533"><ele>744.0</ele><time>2026-04-07T08:50:05.983Z</time></trkpt><trkpt lat="45.706535" lon="11.2620983"><ele>744.0</ele><time>2026-04-07T08:50:06.984Z</time></trkpt><trkpt lat="45.70661" lon="11.2620317"><ele>744.0</ele><time>2026-04-07T08:50:07.984Z</time></trkpt><trkpt lat="45.70669" lon="11.2619533"><ele>744.0</ele><time>2026-04-07T08:50:08.984Z</time></trkpt><trkpt lat="45.7067783" lon="11.2618867"><ele>744.0</ele><time>2026-04-07T08:50:09.984Z</time></trkpt><trkpt lat="45.7068567" lon="11.261825"><ele>744.0</ele><time>2026-04-07T08:50:10.984Z</time></trkpt><trkpt lat="45.7069467" lon="11.2617733"><ele>741.3333333333334</ele><time>2026-04-07T08:50:11.984Z</time></trkpt><trkpt lat="45.70703" lon="11.261725"><ele>738.6666666666666</ele><time>2026-04-07T08:50:12.984Z</time></trkpt><trkpt lat="45.707105" lon="11.2616883"><ele>736.0</ele><time>2026-04-07T08:50:13.984Z</time></trkpt><trkpt lat="45.7071783" lon="11.2616467"><ele>733.3333333333333</ele><time>2026-04-07T08:50:14.983Z</time></trkpt><trkpt lat="45.7072517" lon="11.2616117"><ele>730.6666666666666</ele><time>2026-04-07T08:50:15.984Z</time></trkpt><trkpt lat="45.70732" lon="11.2615817"><ele>728.0</ele><time>2026-04-07T08:50:16.983Z</time></trkpt><trkpt lat="45.7073967" lon="11.2615483"><ele>728.0</ele><time>2026-04-07T08:50:17.984Z</time></trkpt><trkpt lat="45.707475" lon="11.2615133"><ele>728.0</ele><time>2026-04-07T08:50:18.984Z</time></trkpt><trkpt lat="45.7075483" lon="11.2614667"><ele>728.0</ele><time>2026-04-07T08:50:19.983Z</time></trkpt><trkpt lat="45.7076267" lon="11.2613917"><ele>728.0</ele><time>2026-04-07T08:50:20.983Z</time></trkpt><trkpt lat="45.70771" lon="11.261305"><ele>728.0</ele><time>2026-04-07T08:50:21.984Z</time></trkpt><trkpt lat="45.7078" lon="11.2612017"><ele>728.0</ele><time>2026-04-07T08:50:22.983Z</time></trkpt><trkpt lat="45.7078783" lon="11.2611233"><ele>728.0</ele><time>2026-04-07T08:50:23.984Z</time></trkpt><trkpt lat="45.7079433" lon="11.2610717"><ele>728.0</ele><time>2026-04-07T08:50:24.983Z</time></trkpt><trkpt lat="45.7080267" lon="11.2610483"><ele>728.0</ele><time>2026-04-07T08:50:25.983Z</time></trkpt><trkpt lat="45.7081033" lon="11.26102"><ele>728.0</ele><time>2026-04-07T08:50:26.984Z</time></trkpt><trkpt lat="45.7081867" lon="11.2609783"><ele>728.0</ele><time>2026-04-07T08:50:27.983Z</time></trkpt><trkpt lat="45.7082867" lon="11.2609017"><ele>728.0</ele><time>2026-04-07T08:50:28.983Z</time></trkpt><trkpt lat="45.7083717" lon="11.26081"><ele>728.0</ele><time>2026-04-07T08:50:29.984Z</time></trkpt><trkpt lat="45.70842" lon="11.2607183"><ele>728.0</ele><time>2026-04-07T08:50:30.983Z</time></trkpt><trkpt lat="45.7085233" lon="11.2606"><ele>728.0</ele><time>2026-04-07T08:50:32.984Z</time></trkpt><trkpt lat="45.7085917" lon="11.2605733"><ele>728.0</ele><time>2026-04-07T08:50:33.984Z</time></trkpt><trkpt lat="45.7086917" lon="11.260495"><ele>727.3333333333333</ele><time>2026-04-07T08:50:35.984Z</time></trkpt><trkpt lat="45.7087383" lon="11.26039"><ele>726.6666666666666</ele><time>2026-04-07T08:50:37.983Z</time></trkpt><trkpt lat="45.7088133" lon="11.2603533"><ele>726.0</ele><time>2026-04-07T08:50:40.984Z</time></trkpt><trkpt lat="45.7088983" lon="11.260335"><ele>725.3333333333334</ele><time>2026-04-07T08:50:42.984Z</time></trkpt><trkpt lat="45.708955" lon="11.2602917"><ele>724.6666666666667</ele><time>2026-04-07T08:50:43.983Z</time></trkpt><trkpt lat="45.709025" lon="11.2602383"><ele>724.0</ele><time>2026-04-07T08:50:44.983Z</time></trkpt><trkpt lat="45.7091017" lon="11.2601767"><ele>724.0</ele><time>2026-04-07T08:50:45.983Z</time></trkpt><trkpt lat="45.7091833" lon="11.2600983"><ele>724.0</ele><time>2026-04-07T08:50:46.984Z</time></trkpt><trkpt lat="45.709255" lon="11.2600433"><ele>724.0</ele><time>2026-04-07T08:50:47.983Z</time></trkpt><trkpt lat="45.709335" lon="11.2599883"><ele>724.0</ele><time>2026-04-07T08:50:48.984Z</time></trkpt><trkpt lat="45.7094117" lon="11.2599367"><ele>724.0</ele><time>2026-04-07T08:50:49.983Z</time></trkpt><trkpt lat="45.7094917" lon="11.259875"><ele>724.0</ele><time>2026-04-07T08:50:50.984Z</time></trkpt><trkpt lat="45.709565" lon="11.25982"><ele>723.4285714285714</ele><time>2026-04-07T08:50:51.984Z</time></trkpt><trkpt lat="45.7096333" lon="11.259765"><ele>722.8571428571429</ele><time>2026-04-07T08:50:52.984Z</time></trkpt><trkpt lat="45.70969" lon="11.2597083"><ele>722.2857142857142</ele><time>2026-04-07T08:50:53.983Z</time></trkpt><trkpt lat="45.709745" lon="11.25964"><ele>721.7142857142858</ele><time>2026-04-07T08:50:54.984Z</time></trkpt><trkpt lat="45.7097983" lon="11.259565"><ele>721.1428571428572</ele><time>2026-04-07T08:50:55.984Z</time></trkpt><trkpt lat="45.7098433" lon="11.2594933"><ele>720.5714285714286</ele><time>2026-04-07T08:50:56.984Z</time></trkpt><trkpt lat="45.7099" lon="11.2594333"><ele>720.0</ele><time>2026-04-07T08:50:57.984Z</time></trkpt><trkpt lat="45.7099633" lon="11.25939"><ele>720.0</ele><time>2026-04-07T08:50:58.984Z</time></trkpt><trkpt lat="45.7100233" lon="11.2593417"><ele>720.0</ele><time>2026-04-07T08:50:59.984Z</time></trkpt><trkpt lat="45.71008" lon="11.2592717"><ele>720.0</ele><time>2026-04-07T08:51:00.984Z</time></trkpt><trkpt lat="45.7101333" lon="11.25919"><ele>720.0</ele><time>2026-04-07T08:51:01.984Z</time></trkpt><trkpt lat="45.7101767" lon="11.2591167"><ele>720.0</ele><time>2026-04-07T08:51:02.983Z</time></trkpt><trkpt lat="45.71023" lon="11.25906"><ele>720.0</ele><time>2026-04-07T08:51:03.983Z</time></trkpt><trkpt lat="45.7102867" lon="11.259015"><ele>720.0</ele><time>2026-04-07T08:51:04.984Z</time></trkpt><trkpt lat="45.7103533" lon="11.2589517"><ele>720.0</ele><time>2026-04-07T08:51:05.983Z</time></trkpt><trkpt lat="45.7104067" lon="11.2589033"><ele>720.0</ele><time>2026-04-07T08:51:06.984Z</time></trkpt><trkpt lat="45.7104533" lon="11.2588267"><ele>720.0</ele><time>2026-04-07T08:51:07.984Z</time></trkpt><trkpt lat="45.71052" lon="11.25872"><ele>720.0</ele><time>2026-04-07T08:51:09.984Z</time></trkpt><trkpt lat="45.71066" lon="11.2586517"><ele>720.0</ele><time>2026-04-07T08:51:11.984Z</time></trkpt><trkpt lat="45.71076" lon="11.2586083"><ele>720.0</ele><time>2026-04-07T08:51:12.984Z</time></trkpt><trkpt lat="45.7108667" lon="11.2585767"><ele>720.0</ele><time>2026-04-07T08:51:13.983Z</time></trkpt><trkpt lat="45.7109733" lon="11.2585533"><ele>720.0</ele><time>2026-04-07T08:51:14.983Z</time></trkpt><trkpt lat="45.7110733" lon="11.2585183"><ele>720.0</ele><time>2026-04-07T08:51:15.983Z</time></trkpt><trkpt lat="45.7111833" lon="11.2584733"><ele>720.0</ele><time>2026-04-07T08:51:16.984Z</time></trkpt><trkpt lat="45.71129" lon="11.2584267"><ele>723.6</ele><time>2026-04-07T08:51:17.983Z</time></trkpt><trkpt lat="45.7113817" lon="11.25836"><ele>727.2</ele><time>2026-04-07T08:51:18.983Z</time></trkpt><trkpt lat="45.7114667" lon="11.2582917"><ele>730.8</ele><time>2026-04-07T08:51:19.984Z</time></trkpt><trkpt lat="45.7115567" lon="11.2581933"><ele>734.4</ele><time>2026-04-07T08:51:20.984Z</time></trkpt><trkpt lat="45.7116467" lon="11.2581"><ele>738.0</ele><time>2026-04-07T08:51:21.984Z</time></trkpt><trkpt lat="45.7117367" lon="11.2580183"><ele>738.0</ele><time>2026-04-07T08:51:22.983Z</time></trkpt><trkpt lat="45.7118183" lon="11.2579317"><ele>738.0</ele><time>2026-04-07T08:51:23.983Z</time></trkpt><trkpt lat="45.7119033" lon="11.2578417"><ele>738.0</ele><time>2026-04-07T08:51:24.984Z</time></trkpt><trkpt lat="45.7119933" lon="11.257775"><ele>738.0</ele><time>2026-04-07T08:51:25.983Z</time></trkpt><trkpt lat="45.712095" lon="11.2577183"><ele>738.0</ele><time>2026-04-07T08:51:26.983Z</time></trkpt><trkpt lat="45.71219" lon="11.2576717"><ele>741.6666666666666</ele><time>2026-04-07T08:51:27.984Z</time></trkpt><trkpt lat="45.712275" lon="11.2576217"><ele>745.3333333333334</ele><time>2026-04-07T08:51:28.984Z</time></trkpt><trkpt lat="45.7123367" lon="11.257545"><ele>749.0</ele><time>2026-04-07T08:51:29.983Z</time></trkpt><trkpt lat="45.712385" lon="11.2574467"><ele>752.6666666666667</ele><time>2026-04-07T08:51:30.983Z</time></trkpt><trkpt lat="45.7124167" lon="11.2573283"><ele>756.3333333333334</ele><time>2026-04-07T08:51:31.984Z</time></trkpt><trkpt lat="45.7124483" lon="11.2572117"><ele>760.0</ele><time>2026-04-07T08:51:32.983Z</time></trkpt><trkpt lat="45.712475" lon="11.2571033"><ele>760.0</ele><time>2026-04-07T08:51:33.984Z</time></trkpt><trkpt lat="45.712515" lon="11.257005"><ele>760.0</ele><time>2026-04-07T08:51:34.984Z</time></trkpt><trkpt lat="45.7125567" lon="11.25692"><ele>760.0</ele><time>2026-04-07T08:51:35.984Z</time></trkpt><trkpt lat="45.7125967" lon="11.2568467"><ele>760.0</ele><time>2026-04-07T08:51:36.984Z</time></trkpt><trkpt lat="45.7126867" lon="11.2567283"><ele>760.0</ele><time>2026-04-07T08:51:38.984Z</time></trkpt><trkpt lat="45.7127717" lon="11.2565933"><ele>763.1666666666667</ele><time>2026-04-07T08:51:40.984Z</time></trkpt><trkpt lat="45.7128183" lon="11.2564767"><ele>766.3333333333334</ele><time>2026-04-07T08:51:42.983Z</time></trkpt><trkpt lat="45.7128667" lon="11.2563183"><ele>769.5</ele><time>2026-04-07T08:51:44.984Z</time></trkpt><trkpt lat="45.7128867" lon="11.2562083"><ele>772.6666666666667</ele><time>2026-04-07T08:51:45.983Z</time></trkpt><trkpt lat="45.7128833" lon="11.2561017"><ele>775.8333333333334</ele><time>2026-04-07T08:51:46.983Z</time></trkpt><trkpt lat="45.7128967" lon="11.2559933"><ele>779.0</ele><time>2026-04-07T08:51:47.983Z</time></trkpt><trkpt lat="45.71291" lon="11.2558867"><ele>779.0000000000001</ele><time>2026-04-07T08:51:48.983Z</time></trkpt><trkpt lat="45.7129333" lon="11.2557783"><ele>779.0</ele><time>2026-04-07T08:51:49.982Z</time></trkpt><trkpt lat="45.71294" lon="11.2556767"><ele>779.0</ele><time>2026-04-07T08:51:50.983Z</time></trkpt><trkpt lat="45.7129383" lon="11.2555783"><ele>779.0</ele><time>2026-04-07T08:51:51.982Z</time></trkpt><trkpt lat="45.7129367" lon="11.2554"><ele>779.0000000000001</ele><time>2026-04-07T08:51:53.983Z</time></trkpt><trkpt lat="45.712955" lon="11.25531"><ele>779.0</ele><time>2026-04-07T08:51:54.983Z</time></trkpt><trkpt lat="45.7129917" lon="11.255235"><ele>778.7142857142858</ele><time>2026-04-07T08:51:55.982Z</time></trkpt><trkpt lat="45.7130417" lon="11.2551567"><ele>778.4285714285714</ele><time>2026-04-07T08:51:56.983Z</time></trkpt><trkpt lat="45.7130833" lon="11.2550867"><ele>778.1428571428571</ele><time>2026-04-07T08:51:57.983Z</time></trkpt><trkpt lat="45.7131183" lon="11.2549817"><ele>777.8571428571429</ele><time>2026-04-07T08:51:58.982Z</time></trkpt><trkpt lat="45.71314" lon="11.2548817"><ele>777.5714285714286</ele><time>2026-04-07T08:51:59.982Z</time></trkpt><trkpt lat="45.713145" lon="11.2547767"><ele>777.2857142857143</ele><time>2026-04-07T08:52:00.983Z</time></trkpt><trkpt lat="45.713145" lon="11.25468"><ele>777.0</ele><time>2026-04-07T08:52:01.982Z</time></trkpt><trkpt lat="45.713165" lon="11.254515"><ele>774.8</ele><time>2026-04-07T08:52:03.983Z</time></trkpt><trkpt lat="45.7132033" lon="11.254435"><ele>772.6</ele><time>2026-04-07T08:52:04.983Z</time></trkpt><trkpt lat="45.7132517" lon="11.2543367"><ele>770.4</ele><time>2026-04-07T08:52:05.982Z</time></trkpt><trkpt lat="45.7132967" lon="11.2542083"><ele>768.1999999999999</ele><time>2026-04-07T08:52:06.983Z</time></trkpt><trkpt lat="45.7133567" lon="11.2540683"><ele>766.0</ele><time>2026-04-07T08:52:07.983Z</time></trkpt><trkpt lat="45.7133967" lon="11.253945"><ele>764.5999999999999</ele><time>2026-04-07T08:52:08.982Z</time></trkpt><trkpt lat="45.71343" lon="11.253825"><ele>763.2</ele><time>2026-04-07T08:52:09.983Z</time></trkpt><trkpt lat="45.7134467" lon="11.2536867"><ele>761.8</ele><time>2026-04-07T08:52:10.983Z</time></trkpt><trkpt lat="45.7134517" lon="11.25356"><ele>760.4000000000001</ele><time>2026-04-07T08:52:11.983Z</time></trkpt><trkpt lat="45.71345" lon="11.2534333"><ele>759.0</ele><time>2026-04-07T08:52:12.983Z</time></trkpt><trkpt lat="45.71344" lon="11.253305"><ele>759.0</ele><time>2026-04-07T08:52:13.983Z</time></trkpt><trkpt lat="45.7134283" lon="11.2531917"><ele>759.0</ele><time>2026-04-07T08:52:14.982Z</time></trkpt><trkpt lat="45.7134083" lon="11.253025"><ele>759.0</ele><time>2026-04-07T08:52:16.982Z</time></trkpt><trkpt lat="45.71338" lon="11.2528983"><ele>759.0</ele><time>2026-04-07T08:52:18.982Z</time></trkpt><trkpt lat="45.7133367" lon="11.252815"><ele>759.0</ele><time>2026-04-07T08:52:20.983Z</time></trkpt><trkpt lat="45.7133483" lon="11.2526983"><ele>759.0</ele><time>2026-04-07T08:52:23.983Z</time></trkpt><trkpt lat="45.7133733" lon="11.2525583"><ele>757.2</ele><time>2026-04-07T08:52:25.983Z</time></trkpt><trkpt lat="45.71341" lon="11.252455"><ele>755.4000000000001</ele><time>2026-04-07T08:52:26.983Z</time></trkpt><trkpt lat="45.71345" lon="11.2523433"><ele>753.6</ele><time>2026-04-07T08:52:27.983Z</time></trkpt><trkpt lat="45.7134817" lon="11.252225"><ele>751.8</ele><time>2026-04-07T08:52:28.983Z</time></trkpt><trkpt lat="45.713515" lon="11.2520733"><ele>750.0</ele><time>2026-04-07T08:52:29.983Z</time></trkpt><trkpt lat="45.7135417" lon="11.2519183"><ele>748.3333333333334</ele><time>2026-04-07T08:52:30.982Z</time></trkpt><trkpt lat="45.71356" lon="11.25177"><ele>746.6666666666666</ele><time>2026-04-07T08:52:31.983Z</time></trkpt><trkpt lat="45.7135667" lon="11.251655"><ele>745.0</ele><time>2026-04-07T08:52:32.983Z</time></trkpt><trkpt lat="45.7135867" lon="11.251515"><ele>743.3333333333333</ele><time>2026-04-07T08:52:34.982Z</time></trkpt><trkpt lat="45.7136133" lon="11.2514067"><ele>741.6666666666666</ele><time>2026-04-07T08:52:36.982Z</time></trkpt><trkpt lat="45.71366" lon="11.2513117"><ele>740.0</ele><time>2026-04-07T08:52:38.982Z</time></trkpt><trkpt lat="45.7137" lon="11.2511883"><ele>744.2</ele><time>2026-04-07T08:52:40.983Z</time></trkpt><trkpt lat="45.713735" lon="11.2510783"><ele>748.4</ele><time>2026-04-07T08:52:42.983Z</time></trkpt><trkpt lat="45.7137583" lon="11.2509867"><ele>752.5999999999999</ele><time>2026-04-07T08:52:44.983Z</time></trkpt><trkpt lat="45.7138083" lon="11.2508833"><ele>756.8</ele><time>2026-04-07T08:52:46.982Z</time></trkpt><trkpt lat="45.7138683" lon="11.2507717"><ele>761.0</ele><time>2026-04-07T08:52:48.982Z</time></trkpt><trkpt lat="45.7139517" lon="11.2506583"><ele>758.8333333333333</ele><time>2026-04-07T08:52:50.983Z</time></trkpt><trkpt lat="45.71401" lon="11.2505567"><ele>756.6666666666666</ele><time>2026-04-07T08:52:52.982Z</time></trkpt><trkpt lat="45.7140683" lon="11.25043"><ele>754.5</ele><time>2026-04-07T08:52:54.983Z</time></trkpt><trkpt lat="45.7141117" lon="11.25034"><ele>752.3333333333334</ele><time>2026-04-07T08:52:55.983Z</time></trkpt><trkpt lat="45.7141533" lon="11.2502567"><ele>750.1666666666667</ele><time>2026-04-07T08:52:56.983Z</time></trkpt><trkpt lat="45.7142067" lon="11.2501867"><ele>748.0</ele><time>2026-04-07T08:52:57.983Z</time></trkpt><trkpt lat="45.714255" lon="11.2501267"><ele>748.0</ele><time>2026-04-07T08:52:58.983Z</time></trkpt><trkpt lat="45.7143133" lon="11.2500683"><ele>748.0</ele><time>2026-04-07T08:52:59.983Z</time></trkpt><trkpt lat="45.7143717" lon="11.25001"><ele>748.0</ele><time>2026-04-07T08:53:00.982Z</time></trkpt><trkpt lat="45.7144533" lon="11.24988"><ele>748.0</ele><time>2026-04-07T08:53:02.982Z</time></trkpt><trkpt lat="45.714495" lon="11.249805"><ele>748.0</ele><time>2026-04-07T08:53:03.983Z</time></trkpt><trkpt lat="45.7145333" lon="11.2497"><ele>748.0</ele><time>2026-04-07T08:53:04.983Z</time></trkpt><trkpt lat="45.714545" lon="11.2495783"><ele>745.6666666666667</ele><time>2026-04-07T08:53:05.983Z</time></trkpt><trkpt lat="45.7145567" lon="11.2494483"><ele>743.3333333333334</ele><time>2026-04-07T08:53:06.983Z</time></trkpt><trkpt lat="45.7145617" lon="11.2493333"><ele>741.0</ele><time>2026-04-07T08:53:07.983Z</time></trkpt><trkpt lat="45.7145767" lon="11.2492383"><ele>738.6666666666666</ele><time>2026-04-07T08:53:08.982Z</time></trkpt><trkpt lat="45.7145983" lon="11.2491417"><ele>736.3333333333333</ele><time>2026-04-07T08:53:09.982Z</time></trkpt><trkpt lat="45.7146283" lon="11.249045"><ele>734.0</ele><time>2026-04-07T08:53:10.983Z</time></trkpt><trkpt lat="45.714645" lon="11.2489267"><ele>734.0</ele><time>2026-04-07T08:53:11.983Z</time></trkpt><trkpt lat="45.7146567" lon="11.24879"><ele>734.0</ele><time>2026-04-07T08:53:12.983Z</time></trkpt><trkpt lat="45.7146583" lon="11.2486383"><ele>734.0</ele><time>2026-04-07T08:53:13.983Z</time></trkpt><trkpt lat="45.7146667" lon="11.2484983"><ele>734.0</ele><time>2026-04-07T08:53:14.983Z</time></trkpt><trkpt lat="45.7146717" lon="11.24837"><ele>734.0</ele><time>2026-04-07T08:53:15.982Z</time></trkpt><trkpt lat="45.7146733" lon="11.2482467"><ele>734.0</ele><time>2026-04-07T08:53:16.983Z</time></trkpt><trkpt lat="45.7146767" lon="11.2481417"><ele>734.0</ele><time>2026-04-07T08:53:17.983Z</time></trkpt><trkpt lat="45.7146517" lon="11.2480017"><ele>734.0</ele><time>2026-04-07T08:53:19.983Z</time></trkpt><trkpt lat="45.7145883" lon="11.2478667"><ele>734.0</ele><time>2026-04-07T08:53:21.982Z</time></trkpt><trkpt lat="45.714535" lon="11.2477567"><ele>734.0</ele><time>2026-04-07T08:53:23.982Z</time></trkpt><trkpt lat="45.7145017" lon="11.24765"><ele>735.5</ele><time>2026-04-07T08:53:39.983Z</time></trkpt><trkpt lat="45.71447" lon="11.247555"><ele>737.0</ele><time>2026-04-07T08:53:41.983Z</time></trkpt><trkpt lat="45.7143983" lon="11.2474067"><ele>738.5</ele><time>2026-04-07T08:53:43.983Z</time></trkpt><trkpt lat="45.7143617" lon="11.2473267"><ele>740.0</ele><time>2026-04-07T08:53:44.982Z</time></trkpt><trkpt lat="45.7143167" lon="11.2472317"><ele>741.5</ele><time>2026-04-07T08:53:45.983Z</time></trkpt><trkpt lat="45.7142833" lon="11.247145"><ele>743.0</ele><time>2026-04-07T08:53:46.983Z</time></trkpt><trkpt lat="45.7142333" lon="11.2470567"><ele>745.0</ele><time>2026-04-07T08:53:47.983Z</time></trkpt><trkpt lat="45.7141833" lon="11.2469883"><ele>747.0</ele><time>2026-04-07T08:53:48.982Z</time></trkpt><trkpt lat="45.7140867" lon="11.2469233"><ele>749.0</ele><time>2026-04-07T08:53:50.983Z</time></trkpt><trkpt lat="45.714035" lon="11.2468583"><ele>751.0</ele><time>2026-04-07T08:53:52.983Z</time></trkpt><trkpt lat="45.7139883" lon="11.2467317"><ele>753.0</ele><time>2026-04-07T08:53:54.982Z</time></trkpt><trkpt lat="45.7139433" lon="11.2466"><ele>755.0</ele><time>2026-04-07T08:53:56.982Z</time></trkpt><trkpt lat="45.7139117" lon="11.2464733"><ele>756.3333333333333</ele><time>2026-04-07T08:53:58.983Z</time></trkpt><trkpt lat="45.713865" lon="11.246345"><ele>757.6666666666666</ele><time>2026-04-07T08:54:00.983Z</time></trkpt><trkpt lat="45.7138267" lon="11.2462617"><ele>759.0</ele><time>2026-04-07T08:54:02.982Z</time></trkpt><trkpt lat="45.7137917" lon="11.2461767"><ele>760.3333333333334</ele><time>2026-04-07T08:54:04.983Z</time></trkpt><trkpt lat="45.7137433" lon="11.2460733"><ele>761.6666666666667</ele><time>2026-04-07T08:54:06.982Z</time></trkpt><trkpt lat="45.7137" lon="11.2459317"><ele>763.0</ele><time>2026-04-07T08:54:08.983Z</time></trkpt><trkpt lat="45.71369" lon="11.2457883"><ele>763.0</ele><time>2026-04-07T08:54:10.982Z</time></trkpt><trkpt lat="45.7136733" lon="11.2456633"><ele>763.0</ele><time>2026-04-07T08:54:12.983Z</time></trkpt><trkpt lat="45.7136517" lon="11.245535"><ele>763.0</ele><time>2026-04-07T08:54:14.983Z</time></trkpt><trkpt lat="45.71368" lon="11.2454533"><ele>763.0</ele><time>2026-04-07T08:54:16.982Z</time></trkpt><trkpt lat="45.7137667" lon="11.24537"><ele>763.0</ele><time>2026-04-07T08:54:18.983Z</time></trkpt><trkpt lat="45.713885" lon="11.2453033"><ele>761.8333333333334</ele><time>2026-04-07T08:54:20.983Z</time></trkpt><trkpt lat="45.71396" lon="11.2452617"><ele>760.6666666666667</ele><time>2026-04-07T08:54:21.983Z</time></trkpt><trkpt lat="45.7140367" lon="11.245215"><ele>759.5</ele><time>2026-04-07T08:54:22.983Z</time></trkpt><trkpt lat="45.7141067" lon="11.24518"><ele>758.3333333333334</ele><time>2026-04-07T08:54:23.983Z</time></trkpt><trkpt lat="45.7142183" lon="11.2451133"><ele>757.1666666666666</ele><time>2026-04-07T08:54:25.983Z</time></trkpt><trkpt lat="45.714275" lon="11.24507"><ele>756.0</ele><time>2026-04-07T08:54:26.983Z</time></trkpt><trkpt lat="45.71438" lon="11.24499"><ele>759.4</ele><time>2026-04-07T08:54:28.983Z</time></trkpt><trkpt lat="45.71448" lon="11.2449033"><ele>762.8</ele><time>2026-04-07T08:54:30.983Z</time></trkpt><trkpt lat="45.714565" lon="11.2448317"><ele>766.1999999999999</ele><time>2026-04-07T08:54:32.982Z</time></trkpt><trkpt lat="45.71463" lon="11.2447183"><ele>769.5999999999999</ele><time>2026-04-07T08:54:34.982Z</time></trkpt><trkpt lat="45.7146683" lon="11.24462"><ele>773.0</ele><time>2026-04-07T08:54:36.983Z</time></trkpt><trkpt lat="45.7147167" lon="11.2447217"><ele>773.4</ele><time>2026-04-07T08:54:43.982Z</time></trkpt><trkpt lat="45.714815" lon="11.2446583"><ele>773.8</ele><time>2026-04-07T08:54:46.982Z</time></trkpt><trkpt lat="45.714865" lon="11.244555"><ele>774.2</ele><time>2026-04-07T08:54:47.983Z</time></trkpt><trkpt lat="45.7149183" lon="11.244425"><ele>774.6</ele><time>2026-04-07T08:54:48.982Z</time></trkpt><trkpt lat="45.714955" lon="11.2442717"><ele>775.0</ele><time>2026-04-07T08:54:49.983Z</time></trkpt><trkpt lat="45.7149667" lon="11.2440783"><ele>776.5</ele><time>2026-04-07T08:54:50.983Z</time></trkpt><trkpt lat="45.71496" lon="11.2438833"><ele>778.0</ele><time>2026-04-07T08:54:51.983Z</time></trkpt><trkpt lat="45.7149483" lon="11.2437017"><ele>779.5</ele><time>2026-04-07T08:54:52.982Z</time></trkpt><trkpt lat="45.7149333" lon="11.24355"><ele>781.0</ele><time>2026-04-07T08:54:53.983Z</time></trkpt><trkpt lat="45.7149267" lon="11.24343"><ele>780.9999999999999</ele><time>2026-04-07T08:54:54.983Z</time></trkpt><trkpt lat="45.714915" lon="11.243315"><ele>781.0</ele><time>2026-04-07T08:54:55.982Z</time></trkpt><trkpt lat="45.714915" lon="11.2432133"><ele>781.0</ele><time>2026-04-07T08:54:56.982Z</time></trkpt><trkpt lat="45.7149233" lon="11.243115"><ele>781.0</ele><time>2026-04-07T08:54:57.983Z</time></trkpt><trkpt lat="45.714945" lon="11.2430233"><ele>780.9999999999999</ele><time>2026-04-07T08:54:58.983Z</time></trkpt><trkpt lat="45.7149783" lon="11.24293"><ele>781.0</ele><time>2026-04-07T08:54:59.983Z</time></trkpt><trkpt lat="45.715025" lon="11.2427967"><ele>781.5999999999999</ele><time>2026-04-07T08:55:00.983Z</time></trkpt><trkpt lat="45.71509" lon="11.24265"><ele>782.2</ele><time>2026-04-07T08:55:01.982Z</time></trkpt><trkpt lat="45.7151383" lon="11.2425067"><ele>782.8</ele><time>2026-04-07T08:55:02.982Z</time></trkpt><trkpt lat="45.7151767" lon="11.2423617"><ele>783.4000000000001</ele><time>2026-04-07T08:55:03.982Z</time></trkpt><trkpt lat="45.7152183" lon="11.242255"><ele>784.0</ele><time>2026-04-07T08:55:04.983Z</time></trkpt><trkpt lat="45.7152633" lon="11.2421767"><ele>783.9999999999999</ele><time>2026-04-07T08:55:05.983Z</time></trkpt><trkpt lat="45.7153067" lon="11.24211"><ele>784.0</ele><time>2026-04-07T08:55:06.982Z</time></trkpt><trkpt lat="45.7153617" lon="11.2420567"><ele>784.0</ele><time>2026-04-07T08:55:07.983Z</time></trkpt><trkpt lat="45.7154133" lon="11.242"><ele>784.0</ele><time>2026-04-07T08:55:08.983Z</time></trkpt><trkpt lat="45.71551" lon="11.2418683"><ele>783.9999999999999</ele><time>2026-04-07T08:55:10.982Z</time></trkpt><trkpt lat="45.71555" lon="11.241755"><ele>784.0</ele><time>2026-04-07T08:55:11.982Z</time></trkpt><trkpt lat="45.7155917" lon="11.2415883"><ele>782.2</ele><time>2026-04-07T08:55:12.982Z</time></trkpt><trkpt lat="45.7156267" lon="11.24144"><ele>780.4000000000001</ele><time>2026-04-07T08:55:13.982Z</time></trkpt><trkpt lat="45.715665" lon="11.2413217"><ele>778.6</ele><time>2026-04-07T08:55:14.982Z</time></trkpt><trkpt lat="45.7156983" lon="11.241195"><ele>776.8</ele><time>2026-04-07T08:55:15.983Z</time></trkpt><trkpt lat="45.7157183" lon="11.2410567"><ele>775.0</ele><time>2026-04-07T08:55:16.983Z</time></trkpt><trkpt lat="45.7157133" lon="11.2408917"><ele>774.9999999999999</ele><time>2026-04-07T08:55:17.983Z</time></trkpt><trkpt lat="45.715715" lon="11.240735"><ele>775.0</ele><time>2026-04-07T08:55:18.982Z</time></trkpt><trkpt lat="45.7157233" lon="11.2406333"><ele>775.0</ele><time>2026-04-07T08:55:19.983Z</time></trkpt><trkpt lat="45.7157283" lon="11.2405383"><ele>775.0</ele><time>2026-04-07T08:55:20.982Z</time></trkpt><trkpt lat="45.7157417" lon="11.2404483"><ele>774.9999999999999</ele><time>2026-04-07T08:55:21.982Z</time></trkpt><trkpt lat="45.71581" lon="11.2403133"><ele>775.0</ele><time>2026-04-07T08:55:23.982Z</time></trkpt><trkpt lat="45.7158917" lon="11.2401933"><ele>774.2857142857142</ele><time>2026-04-07T08:55:25.982Z</time></trkpt><trkpt lat="45.715945" lon="11.240145"><ele>773.5714285714286</ele><time>2026-04-07T08:55:26.983Z</time></trkpt><trkpt lat="45.7160067" lon="11.2401017"><ele>772.8571428571429</ele><time>2026-04-07T08:55:27.982Z</time></trkpt><trkpt lat="45.7160733" lon="11.2400567"><ele>772.1428571428571</ele><time>2026-04-07T08:55:28.982Z</time></trkpt><trkpt lat="45.71614" lon="11.2400117"><ele>771.4285714285714</ele><time>2026-04-07T08:55:29.983Z</time></trkpt><trkpt lat="45.7161933" lon="11.2399617"><ele>770.7142857142857</ele><time>2026-04-07T08:55:30.983Z</time></trkpt><trkpt lat="45.7162583" lon="11.2399117"><ele>770.0</ele><time>2026-04-07T08:55:31.983Z</time></trkpt><trkpt lat="45.7163133" lon="11.2398667"><ele>765.4</ele><time>2026-04-07T08:55:32.983Z</time></trkpt><trkpt lat="45.71642" lon="11.2397583"><ele>760.8</ele><time>2026-04-07T08:55:34.983Z</time></trkpt><trkpt lat="45.7164617" lon="11.2396883"><ele>756.2</ele><time>2026-04-07T08:55:35.982Z</time></trkpt><trkpt lat="45.7165267" lon="11.2395833"><ele>751.6</ele><time>2026-04-07T08:55:37.982Z</time></trkpt><trkpt lat="45.7166017" lon="11.2395017"><ele>747.0</ele><time>2026-04-07T08:55:39.983Z</time></trkpt><trkpt lat="45.7167017" lon="11.2394433"><ele>747.0</ele><time>2026-04-07T08:55:41.983Z</time></trkpt><trkpt lat="45.7168033" lon="11.2393883"><ele>747.0</ele><time>2026-04-07T08:55:43.982Z</time></trkpt><trkpt lat="45.7168883" lon="11.2393217"><ele>747.0</ele><time>2026-04-07T08:55:45.983Z</time></trkpt><trkpt lat="45.7169267" lon="11.2392417"><ele>747.0</ele><time>2026-04-07T08:55:47.983Z</time></trkpt><trkpt lat="45.7169533" lon="11.2391167"><ele>747.0</ele><time>2026-04-07T08:55:49.981Z</time></trkpt><trkpt lat="45.716985" lon="11.239005"><ele>747.0</ele><time>2026-04-07T08:55:51.982Z</time></trkpt><trkpt lat="45.7170317" lon="11.2389083"><ele>747.5</ele><time>2026-04-07T08:55:53.981Z</time></trkpt><trkpt lat="45.7170817" lon="11.2387917"><ele>748.0</ele><time>2026-04-07T08:55:55.981Z</time></trkpt><trkpt lat="45.7171117" lon="11.23862"><ele>748.5</ele><time>2026-04-07T08:55:57.982Z</time></trkpt><trkpt lat="45.7171417" lon="11.2384517"><ele>749.0</ele><time>2026-04-07T08:55:59.981Z</time></trkpt><trkpt lat="45.7172033" lon="11.238295"><ele>749.0</ele><time>2026-04-07T08:56:01.981Z</time></trkpt><trkpt lat="45.7172783" lon="11.2381517"><ele>749.0</ele><time>2026-04-07T08:56:03.982Z</time></trkpt><trkpt lat="45.7173417" lon="11.2380217"><ele>749.0</ele><time>2026-04-07T08:56:05.981Z</time></trkpt><trkpt lat="45.7174" lon="11.2379367"><ele>749.0</ele><time>2026-04-07T08:56:07.981Z</time></trkpt><trkpt lat="45.7174833" lon="11.23789"><ele>749.0</ele><time>2026-04-07T08:56:09.982Z</time></trkpt><trkpt lat="45.7175683" lon="11.2378033"><ele>744.0</ele><time>2026-04-07T08:56:11.982Z</time></trkpt><trkpt lat="45.7176567" lon="11.237695"><ele>739.0</ele><time>2026-04-07T08:56:13.982Z</time></trkpt><trkpt lat="45.7177267" lon="11.237595"><ele>734.0</ele><time>2026-04-07T08:56:15.981Z</time></trkpt><trkpt lat="45.7177767" lon="11.2375133"><ele>729.0</ele><time>2026-04-07T08:56:17.981Z</time></trkpt><trkpt lat="45.717775" lon="11.2373833"><ele>724.0</ele><time>2026-04-07T08:56:19.981Z</time></trkpt><trkpt lat="45.7177783" lon="11.2372517"><ele>719.8000000000001</ele><time>2026-04-07T08:56:21.981Z</time></trkpt><trkpt lat="45.7178" lon="11.2371283"><ele>715.6</ele><time>2026-04-07T08:56:23.981Z</time></trkpt><trkpt lat="45.7178483" lon="11.2370133"><ele>711.4</ele><time>2026-04-07T08:56:25.981Z</time></trkpt><trkpt lat="45.7179517" lon="11.2369133"><ele>707.2</ele><time>2026-04-07T08:56:27.982Z</time></trkpt><trkpt lat="45.71802" lon="11.2368583"><ele>703.0</ele><time>2026-04-07T08:56:28.982Z</time></trkpt><trkpt lat="45.718095" lon="11.2367833"><ele>703.0</ele><time>2026-04-07T08:56:29.981Z</time></trkpt><trkpt lat="45.718175" lon="11.2367167"><ele>703.0</ele><time>2026-04-07T08:56:30.982Z</time></trkpt><trkpt lat="45.71825" lon="11.2366417"><ele>703.0</ele><time>2026-04-07T08:56:31.981Z</time></trkpt><trkpt lat="45.7183083" lon="11.2365667"><ele>703.0</ele><time>2026-04-07T08:56:32.981Z</time></trkpt><trkpt lat="45.718375" lon="11.2364683"><ele>703.0</ele><time>2026-04-07T08:56:34.982Z</time></trkpt><trkpt lat="45.7184283" lon="11.2363283"><ele>701.4</ele><time>2026-04-07T08:56:36.982Z</time></trkpt><trkpt lat="45.7184967" lon="11.2361767"><ele>699.8</ele><time>2026-04-07T08:56:38.982Z</time></trkpt><trkpt lat="45.7185367" lon="11.2360767"><ele>698.2</ele><time>2026-04-07T08:56:39.982Z</time></trkpt><trkpt lat="45.7185883" lon="11.2359517"><ele>696.6</ele><time>2026-04-07T08:56:40.982Z</time></trkpt><trkpt lat="45.7186467" lon="11.2358233"><ele>695.0</ele><time>2026-04-07T08:56:41.982Z</time></trkpt><trkpt lat="45.7187" lon="11.235725"><ele>693.8333333333333</ele><time>2026-04-07T08:56:42.982Z</time></trkpt><trkpt lat="45.718745" lon="11.2356417"><ele>692.6666666666666</ele><time>2026-04-07T08:56:43.981Z</time></trkpt><trkpt lat="45.718785" lon="11.2355517"><ele>691.5</ele><time>2026-04-07T08:56:44.981Z</time></trkpt><trkpt lat="45.7188267" lon="11.235455"><ele>690.3333333333334</ele><time>2026-04-07T08:56:45.982Z</time></trkpt><trkpt lat="45.71887" lon="11.23535"><ele>689.1666666666667</ele><time>2026-04-07T08:56:46.982Z</time></trkpt><trkpt lat="45.7189017" lon="11.2352483"><ele>688.0</ele><time>2026-04-07T08:56:47.982Z</time></trkpt><trkpt lat="45.7189183" lon="11.2351567"><ele>688.0</ele><time>2026-04-07T08:56:48.981Z</time></trkpt><trkpt lat="45.7189233" lon="11.2349917"><ele>688.0</ele><time>2026-04-07T08:56:50.981Z</time></trkpt><trkpt lat="45.71889" lon="11.2348467"><ele>688.0</ele><time>2026-04-07T08:56:52.981Z</time></trkpt><trkpt lat="45.7188417" lon="11.2347817"><ele>688.0</ele><time>2026-04-07T08:56:53.982Z</time></trkpt><trkpt lat="45.718785" lon="11.2347283"><ele>688.0</ele><time>2026-04-07T08:56:54.982Z</time></trkpt><trkpt lat="45.7187283" lon="11.2346767"><ele>688.0</ele><time>2026-04-07T08:56:55.982Z</time></trkpt><trkpt lat="45.7186867" lon="11.2346033"><ele>689.1666666666667</ele><time>2026-04-07T08:56:57.981Z</time></trkpt><trkpt lat="45.7186967" lon="11.234505"><ele>690.3333333333334</ele><time>2026-04-07T08:56:59.982Z</time></trkpt><trkpt lat="45.7187417" lon="11.2344167"><ele>691.5</ele><time>2026-04-07T08:57:01.982Z</time></trkpt><trkpt lat="45.7188083" lon="11.2343517"><ele>692.6666666666666</ele><time>2026-04-07T08:57:03.982Z</time></trkpt><trkpt lat="45.7188733" lon="11.2343183"><ele>693.8333333333333</ele><time>2026-04-07T08:57:05.982Z</time></trkpt><trkpt lat="45.71896" lon="11.2342383"><ele>695.0</ele><time>2026-04-07T08:57:07.982Z</time></trkpt><trkpt lat="45.71904" lon="11.2341867"><ele>695.0</ele><time>2026-04-07T08:57:08.982Z</time></trkpt><trkpt lat="45.71914" lon="11.2341133"><ele>695.0</ele><time>2026-04-07T08:57:09.982Z</time></trkpt><trkpt lat="45.7192533" lon="11.2340367"><ele>695.0</ele><time>2026-04-07T08:57:10.982Z</time></trkpt><trkpt lat="45.71937" lon="11.233965"><ele>695.0</ele><time>2026-04-07T08:57:11.982Z</time></trkpt><trkpt lat="45.7194833" lon="11.2339117"><ele>693.2</ele><time>2026-04-07T08:57:12.982Z</time></trkpt><trkpt lat="45.719595" lon="11.2338883"><ele>691.4</ele><time>2026-04-07T08:57:13.982Z</time></trkpt><trkpt lat="45.7197067" lon="11.2338583"><ele>689.5999999999999</ele><time>2026-04-07T08:57:14.982Z</time></trkpt><trkpt lat="45.7198083" lon="11.2338233"><ele>687.8</ele><time>2026-04-07T08:57:15.982Z</time></trkpt><trkpt lat="45.7199033" lon="11.2337833"><ele>686.0</ele><time>2026-04-07T08:57:16.982Z</time></trkpt><trkpt lat="45.719995" lon="11.233755"><ele>686.0</ele><time>2026-04-07T08:57:17.981Z</time></trkpt><trkpt lat="45.7200717" lon="11.233725"><ele>686.0</ele><time>2026-04-07T08:57:18.982Z</time></trkpt><trkpt lat="45.7201383" lon="11.2336767"><ele>686.0</ele><time>2026-04-07T08:57:19.982Z</time></trkpt><trkpt lat="45.7202083" lon="11.2336"><ele>686.0</ele><time>2026-04-07T08:57:20.982Z</time></trkpt><trkpt lat="45.7202783" lon="11.2334933"><ele>686.0</ele><time>2026-04-07T08:57:21.982Z</time></trkpt><trkpt lat="45.7203383" lon="11.2333833"><ele>686.0</ele><time>2026-04-07T08:57:22.981Z</time></trkpt><trkpt lat="45.7203817" lon="11.233285"><ele>686.5999999999999</ele><time>2026-04-07T08:57:23.982Z</time></trkpt><trkpt lat="45.72042" lon="11.2331983"><ele>687.2</ele><time>2026-04-07T08:57:24.982Z</time></trkpt><trkpt lat="45.7204267" lon="11.2330233"><ele>687.8</ele><time>2026-04-07T08:57:26.981Z</time></trkpt><trkpt lat="45.72041" lon="11.232905"><ele>688.4000000000001</ele><time>2026-04-07T08:57:27.982Z</time></trkpt><trkpt lat="45.7203867" lon="11.2327567"><ele>689.0</ele><time>2026-04-07T08:57:28.981Z</time></trkpt><trkpt lat="45.7203767" lon="11.23263"><ele>689.0</ele><time>2026-04-07T08:57:29.982Z</time></trkpt><trkpt lat="45.7203967" lon="11.2325083"><ele>689.0</ele><time>2026-04-07T08:57:30.982Z</time></trkpt><trkpt lat="45.7204317" lon="11.232415"><ele>689.0</ele><time>2026-04-07T08:57:31.981Z</time></trkpt><trkpt lat="45.720485" lon="11.232345"><ele>689.0</ele><time>2026-04-07T08:57:32.981Z</time></trkpt><trkpt lat="45.72056" lon="11.23229"><ele>689.0</ele><time>2026-04-07T08:57:33.982Z</time></trkpt><trkpt lat="45.720635" lon="11.2322483"><ele>689.0</ele><time>2026-04-07T08:57:34.982Z</time></trkpt><trkpt lat="45.7206933" lon="11.2321617"><ele>684.4000000000001</ele><time>2026-04-07T08:57:35.982Z</time></trkpt><trkpt lat="45.7207467" lon="11.2320467"><ele>679.8</ele><time>2026-04-07T08:57:36.982Z</time></trkpt><trkpt lat="45.7207983" lon="11.2319283"><ele>675.2</ele><time>2026-04-07T08:57:37.982Z</time></trkpt><trkpt lat="45.7208433" lon="11.2318183"><ele>670.5999999999999</ele><time>2026-04-07T08:57:38.981Z</time></trkpt><trkpt lat="45.7208933" lon="11.2317017"><ele>666.0</ele><time>2026-04-07T08:57:39.981Z</time></trkpt><trkpt lat="45.7209633" lon="11.231595"><ele>666.0</ele><time>2026-04-07T08:57:40.982Z</time></trkpt><trkpt lat="45.7210317" lon="11.231485"><ele>666.0</ele><time>2026-04-07T08:57:41.982Z</time></trkpt><trkpt lat="45.721095" lon="11.23138"><ele>666.0</ele><time>2026-04-07T08:57:42.982Z</time></trkpt><trkpt lat="45.721175" lon="11.231275"><ele>666.0</ele><time>2026-04-07T08:57:43.982Z</time></trkpt><trkpt lat="45.7212233" lon="11.231195"><ele>666.0</ele><time>2026-04-07T08:57:44.981Z</time></trkpt><trkpt lat="45.72127" lon="11.2311033"><ele>664.5</ele><time>2026-04-07T08:57:45.981Z</time></trkpt><trkpt lat="45.7213183" lon="11.2310333"><ele>663.0</ele><time>2026-04-07T08:57:46.982Z</time></trkpt><trkpt lat="45.721375" lon="11.2309733"><ele>661.5</ele><time>2026-04-07T08:57:47.982Z</time></trkpt><trkpt lat="45.7214517" lon="11.2308933"><ele>660.0</ele><time>2026-04-07T08:57:48.981Z</time></trkpt><trkpt lat="45.7215417" lon="11.2308367"><ele>658.5</ele><time>2026-04-07T08:57:49.982Z</time></trkpt><trkpt lat="45.7216233" lon="11.230785"><ele>657.0</ele><time>2026-04-07T08:57:50.981Z</time></trkpt><trkpt lat="45.7216867" lon="11.2307467"><ele>657.0</ele><time>2026-04-07T08:57:51.982Z</time></trkpt><trkpt lat="45.7217567" lon="11.2307317"><ele>657.0</ele><time>2026-04-07T08:57:52.981Z</time></trkpt><trkpt lat="45.7218483" lon="11.2307167"><ele>657.0</ele><time>2026-04-07T08:57:53.982Z</time></trkpt><trkpt lat="45.7219533" lon="11.2306783"><ele>657.0</ele><time>2026-04-07T08:57:54.982Z</time></trkpt><trkpt lat="45.7220617" lon="11.230635"><ele>657.0</ele><time>2026-04-07T08:57:55.982Z</time></trkpt><trkpt lat="45.722165" lon="11.230585"><ele>652.2</ele><time>2026-04-07T08:57:56.981Z</time></trkpt><trkpt lat="45.7222633" lon="11.2305517"><ele>647.4000000000001</ele><time>2026-04-07T08:57:57.982Z</time></trkpt><trkpt lat="45.722345" lon="11.2305283"><ele>642.5999999999999</ele><time>2026-04-07T08:57:58.982Z</time></trkpt><trkpt lat="45.72241" lon="11.2305033"><ele>637.8</ele><time>2026-04-07T08:57:59.982Z</time></trkpt><trkpt lat="45.72246" lon="11.230435"><ele>633.0</ele><time>2026-04-07T08:58:00.982Z</time></trkpt><trkpt lat="45.722505" lon="11.230245"><ele>633.0</ele><time>2026-04-07T08:58:02.982Z</time></trkpt><trkpt lat="45.722515" lon="11.2301017"><ele>633.0</ele><time>2026-04-07T08:58:03.981Z</time></trkpt><trkpt lat="45.72251" lon="11.229935"><ele>633.0</ele><time>2026-04-07T08:58:04.981Z</time></trkpt><trkpt lat="45.722475" lon="11.229785"><ele>633.0</ele><time>2026-04-07T08:58:05.982Z</time></trkpt><trkpt lat="45.72245" lon="11.2296617"><ele>633.0</ele><time>2026-04-07T08:58:06.982Z</time></trkpt><trkpt lat="45.72244" lon="11.2295567"><ele>632.0</ele><time>2026-04-07T08:58:07.981Z</time></trkpt><trkpt lat="45.7224467" lon="11.2294667"><ele>631.0</ele><time>2026-04-07T08:58:08.982Z</time></trkpt><trkpt lat="45.722475" lon="11.2293783"><ele>630.0</ele><time>2026-04-07T08:58:09.981Z</time></trkpt><trkpt lat="45.7225317" lon="11.2292833"><ele>629.0</ele><time>2026-04-07T08:58:10.982Z</time></trkpt><trkpt lat="45.7226033" lon="11.2291833"><ele>628.0</ele><time>2026-04-07T08:58:11.981Z</time></trkpt><trkpt lat="45.72267" lon="11.2291017"><ele>627.0</ele><time>2026-04-07T08:58:12.981Z</time></trkpt><trkpt lat="45.7227333" lon="11.2290067"><ele>623.5</ele><time>2026-04-07T08:58:13.982Z</time></trkpt><trkpt lat="45.7227833" lon="11.2289267"><ele>620.0</ele><time>2026-04-07T08:58:14.981Z</time></trkpt><trkpt lat="45.7228717" lon="11.2288517"><ele>616.5</ele><time>2026-04-07T08:58:16.981Z</time></trkpt><trkpt lat="45.7228817" lon="11.22875"><ele>613.0</ele><time>2026-04-07T08:58:18.982Z</time></trkpt><trkpt lat="45.7228167" lon="11.2287083"><ele>609.5</ele><time>2026-04-07T08:58:20.982Z</time></trkpt><trkpt lat="45.72274" lon="11.2287467"><ele>606.0</ele><time>2026-04-07T08:58:21.981Z</time></trkpt><trkpt lat="45.7226233" lon="11.2288117"><ele>606.0</ele><time>2026-04-07T08:58:22.982Z</time></trkpt><trkpt lat="45.72249" lon="11.2289"><ele>606.0</ele><time>2026-04-07T08:58:23.981Z</time></trkpt><trkpt lat="45.722375" lon="11.2289883"><ele>606.0</ele><time>2026-04-07T08:58:24.982Z</time></trkpt><trkpt lat="45.7222833" lon="11.2290667"><ele>606.0</ele><time>2026-04-07T08:58:25.982Z</time></trkpt><trkpt lat="45.7221967" lon="11.22914"><ele>610.2</ele><time>2026-04-07T08:58:26.982Z</time></trkpt><trkpt lat="45.7221183" lon="11.2292067"><ele>614.4000000000001</ele><time>2026-04-07T08:58:27.981Z</time></trkpt><trkpt lat="45.7220617" lon="11.229265"><ele>618.6</ele><time>2026-04-07T08:58:28.982Z</time></trkpt><trkpt lat="45.721985" lon="11.229355"><ele>622.8000000000001</ele><time>2026-04-07T08:58:30.981Z</time></trkpt><trkpt lat="45.7219267" lon="11.2293"><ele>627.0</ele><time>2026-04-07T08:58:33.982Z</time></trkpt><trkpt lat="45.721985" lon="11.2291017"><ele>622.8000000000001</ele><time>2026-04-07T08:58:35.982Z</time></trkpt><trkpt lat="45.722045" lon="11.228955"><ele>618.6</ele><time>2026-04-07T08:58:36.982Z</time></trkpt><trkpt lat="45.7221017" lon="11.228815"><ele>614.4000000000001</ele><time>2026-04-07T08:58:37.982Z</time></trkpt><trkpt lat="45.7221533" lon="11.228695"><ele>610.2</ele><time>2026-04-07T08:58:38.982Z</time></trkpt><trkpt lat="45.7222083" lon="11.2285967"><ele>606.0</ele><time>2026-04-07T08:58:39.982Z</time></trkpt><trkpt lat="45.722265" lon="11.2285"><ele>606.0</ele><time>2026-04-07T08:58:40.982Z</time></trkpt><trkpt lat="45.7223217" lon="11.2283983"><ele>606.0</ele><time>2026-04-07T08:58:41.982Z</time></trkpt><trkpt lat="45.7223833" lon="11.22832"><ele>606.0</ele><time>2026-04-07T08:58:42.982Z</time></trkpt><trkpt lat="45.7224333" lon="11.22826"><ele>606.0</ele><time>2026-04-07T08:58:43.981Z</time></trkpt><trkpt lat="45.722475" lon="11.2281667"><ele>606.0</ele><time>2026-04-07T08:58:45.981Z</time></trkpt><trkpt lat="45.722425" lon="11.228075"><ele>606.0</ele><time>2026-04-07T08:58:47.982Z</time></trkpt><trkpt lat="45.7223183" lon="11.2280633"><ele>606.0</ele><time>2026-04-07T08:58:49.982Z</time></trkpt><trkpt lat="45.7222417" lon="11.2281"><ele>606.0</ele><time>2026-04-07T08:58:50.982Z</time></trkpt><trkpt lat="45.7221717" lon="11.22813"><ele>606.0</ele><time>2026-04-07T08:58:51.982Z</time></trkpt><trkpt lat="45.7220583" lon="11.2281533"><ele>606.0</ele><time>2026-04-07T08:58:53.982Z</time></trkpt><trkpt lat="45.7220883" lon="11.228005"><ele>606.0</ele><time>2026-04-07T08:58:56.981Z</time></trkpt><trkpt lat="45.7221517" lon="11.2279167"><ele>600.0</ele><time>2026-04-07T08:58:57.982Z</time></trkpt><trkpt lat="45.7222367" lon="11.2278083"><ele>594.0</ele><time>2026-04-07T08:58:58.982Z</time></trkpt><trkpt lat="45.7223517" lon="11.2276933"><ele>588.0</ele><time>2026-04-07T08:58:59.982Z</time></trkpt><trkpt lat="45.7224617" lon="11.22758"><ele>582.0</ele><time>2026-04-07T08:59:00.982Z</time></trkpt><trkpt lat="45.7225617" lon="11.2275033"><ele>582.0</ele><time>2026-04-07T08:59:01.982Z</time></trkpt><trkpt lat="45.7226467" lon="11.22745"><ele>582.0</ele><time>2026-04-07T08:59:02.982Z</time></trkpt><trkpt lat="45.722715" lon="11.2274"><ele>582.0</ele><time>2026-04-07T08:59:03.982Z</time></trkpt><trkpt lat="45.7228" lon="11.22733"><ele>582.0</ele><time>2026-04-07T08:59:05.981Z</time></trkpt><trkpt lat="45.7227467" lon="11.2272033"><ele>582.0</ele><time>2026-04-07T08:59:08.981Z</time></trkpt><trkpt lat="45.7226967" lon="11.227095"><ele>580.2</ele><time>2026-04-07T08:59:10.981Z</time></trkpt><trkpt lat="45.7227517" lon="11.2269833"><ele>578.4000000000001</ele><time>2026-04-07T08:59:12.982Z</time></trkpt><trkpt lat="45.7228117" lon="11.2269267"><ele>576.5999999999999</ele><time>2026-04-07T08:59:13.982Z</time></trkpt><trkpt lat="45.7228983" lon="11.2268733"><ele>574.8</ele><time>2026-04-07T08:59:14.982Z</time></trkpt><trkpt lat="45.7229967" lon="11.2268383"><ele>573.0</ele><time>2026-04-07T08:59:15.982Z</time></trkpt><trkpt lat="45.723095" lon="11.2268433"><ele>573.0</ele><time>2026-04-07T08:59:16.981Z</time></trkpt><trkpt lat="45.7231933" lon="11.226885"><ele>573.0</ele><time>2026-04-07T08:59:17.981Z</time></trkpt><trkpt lat="45.7233217" lon="11.226965"><ele>573.0</ele><time>2026-04-07T08:59:18.982Z</time></trkpt><trkpt lat="45.7234717" lon="11.2270317"><ele>573.0</ele><time>2026-04-07T08:59:19.982Z</time></trkpt><trkpt lat="45.7236367" lon="11.2270833"><ele>576.6666666666666</ele><time>2026-04-07T08:59:20.981Z</time></trkpt><trkpt lat="45.7237967" lon="11.227125"><ele>580.3333333333333</ele><time>2026-04-07T08:59:21.981Z</time></trkpt><trkpt lat="45.7239667" lon="11.2271417"><ele>584.0</ele><time>2026-04-07T08:59:22.982Z</time></trkpt><trkpt lat="45.7241317" lon="11.2271567"><ele>584.0</ele><time>2026-04-07T08:59:23.982Z</time></trkpt><trkpt lat="45.7242433" lon="11.22718"><ele>584.0</ele><time>2026-04-07T08:59:24.982Z</time></trkpt><trkpt lat="45.7243167" lon="11.227185"><ele>584.0</ele><time>2026-04-07T08:59:25.982Z</time></trkpt><trkpt lat="45.72439" lon="11.22719"><ele>584.0</ele><time>2026-04-07T08:59:26.982Z</time></trkpt><trkpt lat="45.7244633" lon="11.22722"><ele>584.0</ele><time>2026-04-07T08:59:27.981Z</time></trkpt><trkpt lat="45.72455" lon="11.22727"><ele>584.0</ele><time>2026-04-07T08:59:28.982Z</time></trkpt><trkpt lat="45.7246417" lon="11.2273533"><ele>583.75</ele><time>2026-04-07T08:59:29.982Z</time></trkpt><trkpt lat="45.724745" lon="11.2274533"><ele>583.5</ele><time>2026-04-07T08:59:30.981Z</time></trkpt><trkpt lat="45.7248567" lon="11.2275783"><ele>583.25</ele><time>2026-04-07T08:59:31.982Z</time></trkpt><trkpt lat="45.72497" lon="11.2276917"><ele>583.0</ele><time>2026-04-07T08:59:32.981Z</time></trkpt><trkpt lat="45.7250833" lon="11.2277967"><ele>583.0</ele><time>2026-04-07T08:59:33.981Z</time></trkpt><trkpt lat="45.7251817" lon="11.227895"><ele>583.0</ele><time>2026-04-07T08:59:34.982Z</time></trkpt><trkpt lat="45.7252733" lon="11.2279833"><ele>583.0</ele><time>2026-04-07T08:59:35.982Z</time></trkpt><trkpt lat="45.7253517" lon="11.2280833"><ele>583.0</ele><time>2026-04-07T08:59:36.982Z</time></trkpt><trkpt lat="45.72544" lon="11.228225"><ele>582.75</ele><time>2026-04-07T08:59:37.981Z</time></trkpt><trkpt lat="45.7255317" lon="11.2283883"><ele>582.5</ele><time>2026-04-07T08:59:38.981Z</time></trkpt><trkpt lat="45.725595" lon="11.2285533"><ele>582.25</ele><time>2026-04-07T08:59:39.981Z</time></trkpt><trkpt lat="45.7256533" lon="11.2286917"><ele>582.0</ele><time>2026-04-07T08:59:40.982Z</time></trkpt><trkpt lat="45.7257017" lon="11.2288167"><ele>582.0</ele><time>2026-04-07T08:59:41.982Z</time></trkpt><trkpt lat="45.72574" lon="11.2289367"><ele>582.0</ele><time>2026-04-07T08:59:42.982Z</time></trkpt><trkpt lat="45.7257667" lon="11.2290467"><ele>582.0</ele><time>2026-04-07T08:59:43.982Z</time></trkpt><trkpt lat="45.7257983" lon="11.2291417"><ele>582.0</ele><time>2026-04-07T08:59:44.982Z</time></trkpt><trkpt lat="45.7258333" lon="11.2292333"><ele>582.0</ele><time>2026-04-07T08:59:45.982Z</time></trkpt><trkpt lat="45.7258867" lon="11.22931"><ele>582.0</ele><time>2026-04-07T08:59:46.981Z</time></trkpt><trkpt lat="45.725945" lon="11.2293683"><ele>582.0</ele><time>2026-04-07T08:59:47.982Z</time></trkpt><trkpt lat="45.7260067" lon="11.2294033"><ele>582.0</ele><time>2026-04-07T08:59:48.982Z</time></trkpt><trkpt lat="45.72609" lon="11.2294183"><ele>582.0</ele><time>2026-04-07T08:59:50.982Z</time></trkpt><trkpt lat="45.7260517" lon="11.2292883"><ele>582.0</ele><time>2026-04-07T08:59:54.981Z</time></trkpt><trkpt lat="45.7259967" lon="11.2292383"><ele>582.0</ele><time>2026-04-07T08:59:55.981Z</time></trkpt><trkpt lat="45.7259583" lon="11.229165"><ele>582.0</ele><time>2026-04-07T08:59:56.981Z</time></trkpt><trkpt lat="45.7259433" lon="11.2290733"><ele>582.0</ele><time>2026-04-07T08:59:57.981Z</time></trkpt><trkpt lat="45.7259633" lon="11.228975"><ele>582.0</ele><time>2026-04-07T08:59:58.981Z</time></trkpt><trkpt lat="45.7260183" lon="11.22886"><ele>582.0</ele><time>2026-04-07T08:59:59.981Z</time></trkpt><trkpt lat="45.7261167" lon="11.2287267"><ele>582.0</ele><time>2026-04-07T09:00:00.981Z</time></trkpt><trkpt lat="45.7262267" lon="11.22859"><ele>582.0</ele><time>2026-04-07T09:00:01.98Z</time></trkpt><trkpt lat="45.7263183" lon="11.2284583"><ele>582.6</ele><time>2026-04-07T09:00:02.981Z</time></trkpt><trkpt lat="45.726385" lon="11.2283283"><ele>583.2</ele><time>2026-04-07T09:00:03.981Z</time></trkpt><trkpt lat="45.7264217" lon="11.2282017"><ele>583.8</ele><time>2026-04-07T09:00:04.98Z</time></trkpt><trkpt lat="45.7264233" lon="11.2280867"><ele>584.4</ele><time>2026-04-07T09:00:05.981Z</time></trkpt><trkpt lat="45.7264083" lon="11.227975"><ele>585.0</ele><time>2026-04-07T09:00:06.98Z</time></trkpt><trkpt lat="45.726345" lon="11.22787"><ele>586.0</ele><time>2026-04-07T09:00:07.981Z</time></trkpt><trkpt lat="45.7262567" lon="11.2277783"><ele>587.0</ele><time>2026-04-07T09:00:08.981Z</time></trkpt><trkpt lat="45.7261383" lon="11.227705"><ele>588.0</ele><time>2026-04-07T09:00:09.981Z</time></trkpt><trkpt lat="45.7260433" lon="11.22763"><ele>589.0</ele><time>2026-04-07T09:00:10.981Z</time></trkpt><trkpt lat="45.7259817" lon="11.227525"><ele>590.0</ele><time>2026-04-07T09:00:11.981Z</time></trkpt><trkpt lat="45.7259367" lon="11.2273867"><ele>592.25</ele><time>2026-04-07T09:00:12.98Z</time></trkpt><trkpt lat="45.7259167" lon="11.22722"><ele>594.5</ele><time>2026-04-07T09:00:13.98Z</time></trkpt><trkpt lat="45.7258917" lon="11.2270333"><ele>596.75</ele><time>2026-04-07T09:00:14.981Z</time></trkpt><trkpt lat="45.72587" lon="11.2268383"><ele>599.0</ele><time>2026-04-07T09:00:15.98Z</time></trkpt><trkpt lat="45.7258517" lon="11.226625"><ele>600.75</ele><time>2026-04-07T09:00:16.981Z</time></trkpt><trkpt lat="45.7258433" lon="11.2264233"><ele>602.5</ele><time>2026-04-07T09:00:17.98Z</time></trkpt><trkpt lat="45.725865" lon="11.2262217"><ele>604.25</ele><time>2026-04-07T09:00:18.98Z</time></trkpt><trkpt lat="45.7258983" lon="11.2260233"><ele>606.0</ele><time>2026-04-07T09:00:19.98Z</time></trkpt><trkpt lat="45.72593" lon="11.22581"><ele>608.4</ele><time>2026-04-07T09:00:20.981Z</time></trkpt><trkpt lat="45.725955" lon="11.225605"><ele>610.8</ele><time>2026-04-07T09:00:21.98Z</time></trkpt><trkpt lat="45.7259783" lon="11.2254267"><ele>613.1999999999999</ele><time>2026-04-07T09:00:22.981Z</time></trkpt><trkpt lat="45.7259883" lon="11.225285"><ele>615.6</ele><time>2026-04-07T09:00:23.98Z</time></trkpt><trkpt lat="45.72599" lon="11.2251783"><ele>618.0</ele><time>2026-04-07T09:00:24.981Z</time></trkpt><trkpt lat="45.7260267" lon="11.2250633"><ele>617.1999999999999</ele><time>2026-04-07T09:00:26.981Z</time></trkpt><trkpt lat="45.7260933" lon="11.224975"><ele>616.4</ele><time>2026-04-07T09:00:29.981Z</time></trkpt><trkpt lat="45.726095" lon="11.2248533"><ele>615.5999999999999</ele><time>2026-04-07T09:00:31.981Z</time></trkpt><trkpt lat="45.7260633" lon="11.2246617"><ele>614.8</ele><time>2026-04-07T09:00:33.98Z</time></trkpt><trkpt lat="45.7260583" lon="11.2245367"><ele>614.0</ele><time>2026-04-07T09:00:34.98Z</time></trkpt><trkpt lat="45.7260517" lon="11.2244283"><ele>616.1666666666666</ele><time>2026-04-07T09:00:35.981Z</time></trkpt><trkpt lat="45.7260533" lon="11.22432"><ele>618.3333333333333</ele><time>2026-04-07T09:00:36.98Z</time></trkpt><trkpt lat="45.72605" lon="11.2241617"><ele>620.5</ele><time>2026-04-07T09:00:38.981Z</time></trkpt><trkpt lat="45.7260383" lon="11.2240683"><ele>622.6666666666666</ele><time>2026-04-07T09:00:40.981Z</time></trkpt><trkpt lat="45.725975" lon="11.2239933"><ele>624.8333333333334</ele><time>2026-04-07T09:00:42.981Z</time></trkpt><trkpt lat="45.725935" lon="11.2238717"><ele>627.0</ele><time>2026-04-07T09:00:44.98Z</time></trkpt><trkpt lat="45.72595" lon="11.22371"><ele>627.6666666666666</ele><time>2026-04-07T09:00:46.98Z</time></trkpt><trkpt lat="45.725985" lon="11.22363"><ele>628.3333333333334</ele><time>2026-04-07T09:00:48.981Z</time></trkpt><trkpt lat="45.726045" lon="11.223545"><ele>629.0</ele><time>2026-04-07T09:00:52.981Z</time></trkpt><trkpt lat="45.7261217" lon="11.2235267"><ele>629.6666666666667</ele><time>2026-04-07T09:00:55.981Z</time></trkpt><trkpt lat="45.7261117" lon="11.22342"><ele>630.3333333333334</ele><time>2026-04-07T09:01:14.981Z</time></trkpt><trkpt lat="45.72609" lon="11.2232933"><ele>631.0</ele><time>2026-04-07T09:01:17.981Z</time></trkpt><trkpt lat="45.72616" lon="11.223145"><ele>632.1666666666667</ele><time>2026-04-07T09:01:19.981Z</time></trkpt><trkpt lat="45.7262067" lon="11.2230517"><ele>633.3333333333334</ele><time>2026-04-07T09:01:20.981Z</time></trkpt><trkpt lat="45.7262517" lon="11.2229617"><ele>634.5</ele><time>2026-04-07T09:01:21.981Z</time></trkpt><trkpt lat="45.7262967" lon="11.2228617"><ele>635.6666666666666</ele><time>2026-04-07T09:01:22.981Z</time></trkpt><trkpt lat="45.726315" lon="11.2227367"><ele>636.8333333333333</ele><time>2026-04-07T09:01:23.98Z</time></trkpt><trkpt lat="45.72631" lon="11.222605"><ele>638.0</ele><time>2026-04-07T09:01:24.98Z</time></trkpt><trkpt lat="45.7263017" lon="11.2224717"><ele>638.0</ele><time>2026-04-07T09:01:25.98Z</time></trkpt><trkpt lat="45.7263083" lon="11.2223533"><ele>638.0</ele><time>2026-04-07T09:01:26.981Z</time></trkpt><trkpt lat="45.7263217" lon="11.2222567"><ele>638.0</ele><time>2026-04-07T09:01:27.981Z</time></trkpt><trkpt lat="45.726365" lon="11.2221717"><ele>638.0</ele><time>2026-04-07T09:01:28.98Z</time></trkpt><trkpt lat="45.7264367" lon="11.2221067"><ele>638.0</ele><time>2026-04-07T09:01:29.981Z</time></trkpt><trkpt lat="45.7265067" lon="11.222035"><ele>638.0</ele><time>2026-04-07T09:01:30.981Z</time></trkpt><trkpt lat="45.7265633" lon="11.2219483"><ele>639.75</ele><time>2026-04-07T09:01:31.981Z</time></trkpt><trkpt lat="45.7266117" lon="11.2218383"><ele>641.5</ele><time>2026-04-07T09:01:32.981Z</time></trkpt><trkpt lat="45.7266417" lon="11.22168"><ele>643.25</ele><time>2026-04-07T09:01:33.981Z</time></trkpt><trkpt lat="45.72665" lon="11.2214633"><ele>645.0</ele><time>2026-04-07T09:01:34.981Z</time></trkpt><trkpt lat="45.7266733" lon="11.2212417"><ele>648.3333333333334</ele><time>2026-04-07T09:01:35.98Z</time></trkpt><trkpt lat="45.72671" lon="11.2210233"><ele>651.6666666666667</ele><time>2026-04-07T09:01:36.981Z</time></trkpt><trkpt lat="45.7267533" lon="11.2208267"><ele>655.0</ele><time>2026-04-07T09:01:37.981Z</time></trkpt><trkpt lat="45.7268233" lon="11.220635"><ele>654.5</ele><time>2026-04-07T09:01:38.981Z</time></trkpt><trkpt lat="45.726885" lon="11.2204483"><ele>654.0</ele><time>2026-04-07T09:01:39.981Z</time></trkpt><trkpt lat="45.72695" lon="11.22027"><ele>653.5</ele><time>2026-04-07T09:01:40.981Z</time></trkpt><trkpt lat="45.7270067" lon="11.2200583"><ele>653.0</ele><time>2026-04-07T09:01:41.981Z</time></trkpt><trkpt lat="45.7270467" lon="11.21986"><ele>655.0</ele><time>2026-04-07T09:01:42.98Z</time></trkpt><trkpt lat="45.7270617" lon="11.21967"><ele>657.0</ele><time>2026-04-07T09:01:43.981Z</time></trkpt><trkpt lat="45.7270633" lon="11.2194783"><ele>659.0</ele><time>2026-04-07T09:01:44.981Z</time></trkpt><trkpt lat="45.7270633" lon="11.2193"><ele>661.0</ele><time>2026-04-07T09:01:45.981Z</time></trkpt><trkpt lat="45.7270667" lon="11.2191433"><ele>661.0</ele><time>2026-04-07T09:01:46.98Z</time></trkpt><trkpt lat="45.72707" lon="11.2190317"><ele>661.0</ele><time>2026-04-07T09:01:47.981Z</time></trkpt><trkpt lat="45.72712" lon="11.21891"><ele>661.0</ele><time>2026-04-07T09:01:49.981Z</time></trkpt><trkpt lat="45.7272033" lon="11.2189167"><ele>661.0</ele><time>2026-04-07T09:01:51.98Z</time></trkpt><trkpt lat="45.7272567" lon="11.2189767"><ele>661.0</ele><time>2026-04-07T09:01:52.981Z</time></trkpt><trkpt lat="45.7273133" lon="11.2190433"><ele>661.0</ele><time>2026-04-07T09:01:53.981Z</time></trkpt><trkpt lat="45.72737" lon="11.2191583"><ele>661.0</ele><time>2026-04-07T09:01:54.981Z</time></trkpt><trkpt lat="45.7274083" lon="11.219325"><ele>661.0</ele><time>2026-04-07T09:01:55.981Z</time></trkpt><trkpt lat="45.7274433" lon="11.2195267"><ele>661.0</ele><time>2026-04-07T09:01:56.98Z</time></trkpt><trkpt lat="45.7274667" lon="11.2197517"><ele>661.0</ele><time>2026-04-07T09:01:57.98Z</time></trkpt><trkpt lat="45.7274833" lon="11.2199933"><ele>659.0</ele><time>2026-04-07T09:01:58.981Z</time></trkpt><trkpt lat="45.7275033" lon="11.2202217"><ele>657.0</ele><time>2026-04-07T09:01:59.981Z</time></trkpt><trkpt lat="45.727515" lon="11.2203967"><ele>655.0</ele><time>2026-04-07T09:02:00.98Z</time></trkpt><trkpt lat="45.7275183" lon="11.2205467"><ele>653.0</ele><time>2026-04-07T09:02:01.981Z</time></trkpt><trkpt lat="45.7275167" lon="11.22067"><ele>652.3333333333333</ele><time>2026-04-07T09:02:02.981Z</time></trkpt><trkpt lat="45.727525" lon="11.22076"><ele>651.6666666666666</ele><time>2026-04-07T09:02:03.981Z</time></trkpt><trkpt lat="45.7275683" lon="11.2208467"><ele>651.0</ele><time>2026-04-07T09:02:05.981Z</time></trkpt><trkpt lat="45.72764" lon="11.220785"><ele>650.3333333333334</ele><time>2026-04-07T09:02:07.981Z</time></trkpt><trkpt lat="45.7276833" lon="11.2206867"><ele>649.6666666666667</ele><time>2026-04-07T09:02:08.981Z</time></trkpt><trkpt lat="45.7277333" lon="11.2205733"><ele>649.0</ele><time>2026-04-07T09:02:09.981Z</time></trkpt><trkpt lat="45.727815" lon="11.2204817"><ele>651.6</ele><time>2026-04-07T09:02:10.981Z</time></trkpt><trkpt lat="45.7279067" lon="11.2204183"><ele>654.2</ele><time>2026-04-07T09:02:11.98Z</time></trkpt><trkpt lat="45.7279933" lon="11.220335"><ele>656.8000000000001</ele><time>2026-04-07T09:02:12.981Z</time></trkpt><trkpt lat="45.7280517" lon="11.220225"><ele>659.4000000000001</ele><time>2026-04-07T09:02:13.981Z</time></trkpt><trkpt lat="45.72808" lon="11.22007"><ele>662.0</ele><time>2026-04-07T09:02:14.981Z</time></trkpt><trkpt lat="45.7281033" lon="11.219895"><ele>664.25</ele><time>2026-04-07T09:02:15.98Z</time></trkpt><trkpt lat="45.7281483" lon="11.2197217"><ele>666.5</ele><time>2026-04-07T09:02:16.981Z</time></trkpt><trkpt lat="45.7282283" lon="11.2195717"><ele>668.75</ele><time>2026-04-07T09:02:17.981Z</time></trkpt><trkpt lat="45.7283217" lon="11.2194367"><ele>671.0</ele><time>2026-04-07T09:02:18.981Z</time></trkpt><trkpt lat="45.72841" lon="11.2192833"><ele>671.0</ele><time>2026-04-07T09:02:19.981Z</time></trkpt><trkpt lat="45.7285017" lon="11.219095"><ele>671.0</ele><time>2026-04-07T09:02:20.981Z</time></trkpt><trkpt lat="45.7285867" lon="11.2188917"><ele>671.0</ele><time>2026-04-07T09:02:21.98Z</time></trkpt><trkpt lat="45.7286783" lon="11.21869"><ele>673.75</ele><time>2026-04-07T09:02:22.981Z</time></trkpt><trkpt lat="45.72876" lon="11.21851"><ele>676.5</ele><time>2026-04-07T09:02:23.981Z</time></trkpt><trkpt lat="45.7288233" lon="11.218365"><ele>679.25</ele><time>2026-04-07T09:02:24.981Z</time></trkpt><trkpt lat="45.728865" lon="11.21822"><ele>682.0</ele><time>2026-04-07T09:02:25.98Z</time></trkpt><trkpt lat="45.7288883" lon="11.2180867"><ele>683.4000000000001</ele><time>2026-04-07T09:02:26.98Z</time></trkpt><trkpt lat="45.7288983" lon="11.2179683"><ele>684.8000000000001</ele><time>2026-04-07T09:02:27.981Z</time></trkpt><trkpt lat="45.728965" lon="11.2178283"><ele>686.2</ele><time>2026-04-07T09:02:29.981Z</time></trkpt><trkpt lat="45.7290383" lon="11.2178083"><ele>687.6</ele><time>2026-04-07T09:02:30.98Z</time></trkpt><trkpt lat="45.7291817" lon="11.21785"><ele>689.0</ele><time>2026-04-07T09:02:31.981Z</time></trkpt><trkpt lat="45.7293333" lon="11.217895"><ele>690.3333333333333</ele><time>2026-04-07T09:02:32.98Z</time></trkpt><trkpt lat="45.729485" lon="11.2179117"><ele>691.6666666666666</ele><time>2026-04-07T09:02:33.981Z</time></trkpt><trkpt lat="45.729635" lon="11.2179133"><ele>693.0</ele><time>2026-04-07T09:02:34.981Z</time></trkpt><trkpt lat="45.7297933" lon="11.2178933"><ele>693.0</ele><time>2026-04-07T09:02:35.981Z</time></trkpt><trkpt lat="45.7299533" lon="11.2178783"><ele>693.0</ele><time>2026-04-07T09:02:36.981Z</time></trkpt><trkpt lat="45.7300967" lon="11.217865"><ele>693.0</ele><time>2026-04-07T09:02:37.981Z</time></trkpt><trkpt lat="45.7302217" lon="11.21783"><ele>693.0</ele><time>2026-04-07T09:02:38.981Z</time></trkpt><trkpt lat="45.7303283" lon="11.217765"><ele>694.25</ele><time>2026-04-07T09:02:39.981Z</time></trkpt><trkpt lat="45.7304117" lon="11.2176733"><ele>695.5</ele><time>2026-04-07T09:02:40.98Z</time></trkpt><trkpt lat="45.7304617" lon="11.2175583"><ele>696.75</ele><time>2026-04-07T09:02:41.98Z</time></trkpt><trkpt lat="45.730515" lon="11.217405"><ele>698.0</ele><time>2026-04-07T09:02:42.98Z</time></trkpt><trkpt lat="45.7305633" lon="11.2172167"><ele>698.0</ele><time>2026-04-07T09:02:43.981Z</time></trkpt><trkpt lat="45.730585" lon="11.2170017"><ele>698.0</ele><time>2026-04-07T09:02:44.98Z</time></trkpt><trkpt lat="45.73059" lon="11.216765"><ele>698.0</ele><time>2026-04-07T09:02:45.981Z</time></trkpt><trkpt lat="45.730585" lon="11.2165183"><ele>700.2</ele><time>2026-04-07T09:02:46.98Z</time></trkpt><trkpt lat="45.730585" lon="11.2163167"><ele>702.4</ele><time>2026-04-07T09:02:47.98Z</time></trkpt><trkpt lat="45.7305967" lon="11.21616"><ele>704.6</ele><time>2026-04-07T09:02:48.98Z</time></trkpt><trkpt lat="45.7306267" lon="11.216065"><ele>706.8000000000001</ele><time>2026-04-07T09:02:49.981Z</time></trkpt><trkpt lat="45.7306733" lon="11.216"><ele>709.0</ele><time>2026-04-07T09:02:50.981Z</time></trkpt><trkpt lat="45.7308" lon="11.2159417"><ele>709.0</ele><time>2026-04-07T09:02:52.981Z</time></trkpt><trkpt lat="45.7308683" lon="11.2159017"><ele>709.0</ele><time>2026-04-07T09:02:53.981Z</time></trkpt><trkpt lat="45.7309283" lon="11.2158267"><ele>709.0</ele><time>2026-04-07T09:02:54.981Z</time></trkpt><trkpt lat="45.7309667" lon="11.2157067"><ele>709.0</ele><time>2026-04-07T09:02:55.981Z</time></trkpt><trkpt lat="45.7309867" lon="11.2155583"><ele>709.0</ele><time>2026-04-07T09:02:56.98Z</time></trkpt><trkpt lat="45.731" lon="11.2153683"><ele>711.0</ele><time>2026-04-07T09:02:57.981Z</time></trkpt><trkpt lat="45.7310283" lon="11.21516"><ele>713.0</ele><time>2026-04-07T09:02:58.98Z</time></trkpt><trkpt lat="45.7310783" lon="11.214955"><ele>715.0</ele><time>2026-04-07T09:02:59.98Z</time></trkpt><trkpt lat="45.7311183" lon="11.2147567"><ele>717.0</ele><time>2026-04-07T09:03:00.981Z</time></trkpt><trkpt lat="45.7311617" lon="11.2145783"><ele>719.2</ele><time>2026-04-07T09:03:01.981Z</time></trkpt><trkpt lat="45.7312117" lon="11.214425"><ele>721.4000000000001</ele><time>2026-04-07T09:03:02.981Z</time></trkpt><trkpt lat="45.73128" lon="11.2143117"><ele>723.5999999999999</ele><time>2026-04-07T09:03:03.981Z</time></trkpt><trkpt lat="45.73137" lon="11.21423"><ele>725.8</ele><time>2026-04-07T09:03:04.981Z</time></trkpt><trkpt lat="45.7314533" lon="11.21419"><ele>728.0</ele><time>2026-04-07T09:03:05.98Z</time></trkpt><trkpt lat="45.731535" lon="11.214145"><ele>728.0</ele><time>2026-04-07T09:03:06.98Z</time></trkpt><trkpt lat="45.731605" lon="11.2140817"><ele>728.0</ele><time>2026-04-07T09:03:07.981Z</time></trkpt><trkpt lat="45.7316633" lon="11.2139817"><ele>728.0</ele><time>2026-04-07T09:03:08.981Z</time></trkpt><trkpt lat="45.731715" lon="11.21388"><ele>728.0</ele><time>2026-04-07T09:03:09.981Z</time></trkpt><trkpt lat="45.7317717" lon="11.2137667"><ele>728.0</ele><time>2026-04-07T09:03:11.98Z</time></trkpt><trkpt lat="45.7318283" lon="11.2138067"><ele>728.0</ele><time>2026-04-07T09:03:13.98Z</time></trkpt><trkpt lat="45.7317967" lon="11.213995"><ele>728.0</ele><time>2026-04-07T09:03:15.981Z</time></trkpt><trkpt lat="45.7317433" lon="11.21414"><ele>728.0</ele><time>2026-04-07T09:03:16.981Z</time></trkpt><trkpt lat="45.7316983" lon="11.214275"><ele>728.0</ele><time>2026-04-07T09:03:17.98Z</time></trkpt><trkpt lat="45.73166" lon="11.2143967"><ele>728.0</ele><time>2026-04-07T09:03:18.981Z</time></trkpt><trkpt lat="45.7316317" lon="11.21451"><ele>728.0</ele><time>2026-04-07T09:03:19.98Z</time></trkpt><trkpt lat="45.731625" lon="11.21462"><ele>728.0</ele><time>2026-04-07T09:03:20.981Z</time></trkpt><trkpt lat="45.7316783" lon="11.2147317"><ele>728.0</ele><time>2026-04-07T09:03:22.98Z</time></trkpt><trkpt lat="45.7317833" lon="11.2146683"><ele>728.0</ele><time>2026-04-07T09:03:24.98Z</time></trkpt><trkpt lat="45.7318517" lon="11.2145717"><ele>728.0</ele><time>2026-04-07T09:03:25.981Z</time></trkpt><trkpt lat="45.7319417" lon="11.214455"><ele>728.0</ele><time>2026-04-07T09:03:26.981Z</time></trkpt><trkpt lat="45.7320433" lon="11.2143283"><ele>728.0</ele><time>2026-04-07T09:03:27.98Z</time></trkpt><trkpt lat="45.7321633" lon="11.214225"><ele>728.0</ele><time>2026-04-07T09:03:28.981Z</time></trkpt><trkpt lat="45.73228" lon="11.2141517"><ele>728.0</ele><time>2026-04-07T09:03:29.981Z</time></trkpt><trkpt lat="45.7323883" lon="11.2140717"><ele>728.0</ele><time>2026-04-07T09:03:30.98Z</time></trkpt><trkpt lat="45.7324817" lon="11.214"><ele>732.75</ele><time>2026-04-07T09:03:31.98Z</time></trkpt><trkpt lat="45.73258" lon="11.2139367"><ele>737.5</ele><time>2026-04-07T09:03:32.981Z</time></trkpt><trkpt lat="45.7326933" lon="11.213875"><ele>742.25</ele><time>2026-04-07T09:03:33.98Z</time></trkpt><trkpt lat="45.7328067" lon="11.21381"><ele>747.0</ele><time>2026-04-07T09:03:34.981Z</time></trkpt><trkpt lat="45.73293" lon="11.2137717"><ele>747.25</ele><time>2026-04-07T09:03:35.98Z</time></trkpt><trkpt lat="45.7330733" lon="11.213695"><ele>747.5</ele><time>2026-04-07T09:03:36.98Z</time></trkpt><trkpt lat="45.733205" lon="11.2136367"><ele>747.75</ele><time>2026-04-07T09:03:37.981Z</time></trkpt><trkpt lat="45.7333367" lon="11.2135667"><ele>748.0</ele><time>2026-04-07T09:03:38.981Z</time></trkpt><trkpt lat="45.7334583" lon="11.2134867"><ele>749.2</ele><time>2026-04-07T09:03:39.98Z</time></trkpt><trkpt lat="45.7335667" lon="11.2134433"><ele>750.4</ele><time>2026-04-07T09:03:40.981Z</time></trkpt><trkpt lat="45.7336533" lon="11.213415"><ele>751.6</ele><time>2026-04-07T09:03:41.981Z</time></trkpt><trkpt lat="45.7337183" lon="11.213415"><ele>752.8000000000001</ele><time>2026-04-07T09:03:42.981Z</time></trkpt><trkpt lat="45.733765" lon="11.2134783"><ele>754.0</ele><time>2026-04-07T09:03:44.98Z</time></trkpt><trkpt lat="45.7336783" lon="11.2136083"><ele>754.0</ele><time>2026-04-07T09:03:47.981Z</time></trkpt><trkpt lat="45.73361" lon="11.213695"><ele>754.0</ele><time>2026-04-07T09:03:48.981Z</time></trkpt><trkpt lat="45.7335367" lon="11.2138133"><ele>754.0</ele><time>2026-04-07T09:03:49.98Z</time></trkpt><trkpt lat="45.7334467" lon="11.2139633"><ele>754.0</ele><time>2026-04-07T09:03:50.981Z</time></trkpt><trkpt lat="45.7333667" lon="11.2141217"><ele>750.8000000000001</ele><time>2026-04-07T09:03:51.981Z</time></trkpt><trkpt lat="45.733305" lon="11.2142717"><ele>747.6</ele><time>2026-04-07T09:03:52.98Z</time></trkpt><trkpt lat="45.733285" lon="11.2144133"><ele>744.4</ele><time>2026-04-07T09:03:53.981Z</time></trkpt><trkpt lat="45.7332917" lon="11.2145383"><ele>741.2</ele><time>2026-04-07T09:03:54.981Z</time></trkpt><trkpt lat="45.73332" lon="11.2146567"><ele>738.0</ele><time>2026-04-07T09:03:55.981Z</time></trkpt><trkpt lat="45.7333783" lon="11.2147667"><ele>738.0</ele><time>2026-04-07T09:03:56.981Z</time></trkpt><trkpt lat="45.733445" lon="11.2148683"><ele>738.0</ele><time>2026-04-07T09:03:57.981Z</time></trkpt><trkpt lat="45.7335017" lon="11.214985"><ele>738.0</ele><time>2026-04-07T09:03:58.98Z</time></trkpt><trkpt lat="45.7335417" lon="11.2151117"><ele>738.0</ele><time>2026-04-07T09:03:59.981Z</time></trkpt><trkpt lat="45.7335567" lon="11.21524"><ele>738.0</ele><time>2026-04-07T09:04:00.981Z</time></trkpt><trkpt lat="45.7335267" lon="11.2153667"><ele>738.0</ele><time>2026-04-07T09:04:01.981Z</time></trkpt><trkpt lat="45.7335" lon="11.215465"><ele>738.0</ele><time>2026-04-07T09:04:02.981Z</time></trkpt><trkpt lat="45.7335417" lon="11.21559"><ele>738.0</ele><time>2026-04-07T09:04:04.98Z</time></trkpt><trkpt lat="45.73362" lon="11.2156317"><ele>738.0</ele><time>2026-04-07T09:04:05.981Z</time></trkpt><trkpt lat="45.733725" lon="11.21569"><ele>738.0</ele><time>2026-04-07T09:04:06.981Z</time></trkpt><trkpt lat="45.7338733" lon="11.21575"><ele>741.75</ele><time>2026-04-07T09:04:07.98Z</time></trkpt><trkpt lat="45.734025" lon="11.2158"><ele>745.5</ele><time>2026-04-07T09:04:08.981Z</time></trkpt><trkpt lat="45.734165" lon="11.2158317"><ele>749.25</ele><time>2026-04-07T09:04:09.98Z</time></trkpt><trkpt lat="45.7343033" lon="11.215845"><ele>753.0</ele><time>2026-04-07T09:04:10.979Z</time></trkpt><trkpt lat="45.7344083" lon="11.21585"><ele>756.5</ele><time>2026-04-07T09:04:11.979Z</time></trkpt><trkpt lat="45.7344833" lon="11.2158767"><ele>760.0</ele><time>2026-04-07T09:04:12.98Z</time></trkpt><trkpt lat="45.73457" lon="11.21599"><ele>763.5</ele><time>2026-04-07T09:04:14.98Z</time></trkpt><trkpt lat="45.734595" lon="11.2160817"><ele>767.0</ele><time>2026-04-07T09:04:15.98Z</time></trkpt><trkpt lat="45.734595" lon="11.216205"><ele>770.5</ele><time>2026-04-07T09:04:16.98Z</time></trkpt><trkpt lat="45.7345783" lon="11.21633"><ele>774.0</ele><time>2026-04-07T09:04:17.979Z</time></trkpt><trkpt lat="45.7345533" lon="11.2164417"><ele>774.5</ele><time>2026-04-07T09:04:18.979Z</time></trkpt><trkpt lat="45.73453" lon="11.216535"><ele>775.0</ele><time>2026-04-07T09:04:19.98Z</time></trkpt><trkpt lat="45.734505" lon="11.2166233"><ele>775.5</ele><time>2026-04-07T09:04:20.98Z</time></trkpt><trkpt lat="45.734475" lon="11.2167133"><ele>776.0</ele><time>2026-04-07T09:04:21.979Z</time></trkpt><trkpt lat="45.7344417" lon="11.2167967"><ele>776.5</ele><time>2026-04-07T09:04:22.979Z</time></trkpt><trkpt lat="45.7344133" lon="11.216895"><ele>777.0</ele><time>2026-04-07T09:04:23.98Z</time></trkpt><trkpt lat="45.7343717" lon="11.21705"><ele>773.1666666666666</ele><time>2026-04-07T09:04:25.98Z</time></trkpt><trkpt lat="45.734345" lon="11.2171317"><ele>769.3333333333334</ele><time>2026-04-07T09:04:26.979Z</time></trkpt><trkpt lat="45.73432" lon="11.2172167"><ele>765.5</ele><time>2026-04-07T09:04:27.979Z</time></trkpt><trkpt lat="45.7342833" lon="11.2173117"><ele>761.6666666666667</ele><time>2026-04-07T09:04:28.98Z</time></trkpt><trkpt lat="45.734245" lon="11.2174133"><ele>757.8333333333334</ele><time>2026-04-07T09:04:29.979Z</time></trkpt><trkpt lat="45.7342183" lon="11.217525"><ele>754.0</ele><time>2026-04-07T09:04:30.979Z</time></trkpt><trkpt lat="45.73419" lon="11.2176467"><ele>754.0</ele><time>2026-04-07T09:04:31.98Z</time></trkpt><trkpt lat="45.7341567" lon="11.2179517"><ele>754.0</ele><time>2026-04-07T09:04:33.98Z</time></trkpt><trkpt lat="45.7341583" lon="11.2180767"><ele>754.0</ele><time>2026-04-07T09:04:34.98Z</time></trkpt><trkpt lat="45.73418" lon="11.218225"><ele>754.0</ele><time>2026-04-07T09:04:36.98Z</time></trkpt><trkpt lat="45.7341433" lon="11.21836"><ele>755.3333333333334</ele><time>2026-04-07T09:04:38.98Z</time></trkpt><trkpt lat="45.7341017" lon="11.218435"><ele>756.6666666666667</ele><time>2026-04-07T09:04:39.98Z</time></trkpt><trkpt lat="45.7340467" lon="11.2185067"><ele>758.0</ele><time>2026-04-07T09:04:40.979Z</time></trkpt><trkpt lat="45.7339933" lon="11.2185683"><ele>759.3333333333334</ele><time>2026-04-07T09:04:41.979Z</time></trkpt><trkpt lat="45.7339467" lon="11.2186333"><ele>760.6666666666666</ele><time>2026-04-07T09:04:42.98Z</time></trkpt><trkpt lat="45.73388" lon="11.21879"><ele>762.0</ele><time>2026-04-07T09:04:44.979Z</time></trkpt><trkpt lat="45.73386" lon="11.21891"><ele>762.6666666666666</ele><time>2026-04-07T09:04:45.98Z</time></trkpt><trkpt lat="45.7338483" lon="11.2190283"><ele>763.3333333333334</ele><time>2026-04-07T09:04:46.98Z</time></trkpt><trkpt lat="45.73383" lon="11.2191417"><ele>764.0</ele><time>2026-04-07T09:04:47.979Z</time></trkpt><trkpt lat="45.73381" lon="11.2192583"><ele>764.6666666666667</ele><time>2026-04-07T09:04:48.98Z</time></trkpt><trkpt lat="45.7337933" lon="11.2193683"><ele>765.3333333333334</ele><time>2026-04-07T09:04:49.98Z</time></trkpt><trkpt lat="45.733775" lon="11.219475"><ele>766.0</ele><time>2026-04-07T09:04:50.98Z</time></trkpt><trkpt lat="45.7337583" lon="11.219585"><ele>766.0</ele><time>2026-04-07T09:04:51.98Z</time></trkpt><trkpt lat="45.7337467" lon="11.219715"><ele>766.0</ele><time>2026-04-07T09:04:52.98Z</time></trkpt><trkpt lat="45.73375" lon="11.2198517"><ele>766.0</ele><time>2026-04-07T09:04:53.979Z</time></trkpt><trkpt lat="45.733755" lon="11.220005"><ele>766.0</ele><time>2026-04-07T09:04:54.98Z</time></trkpt><trkpt lat="45.733755" lon="11.220165"><ele>766.0</ele><time>2026-04-07T09:04:55.98Z</time></trkpt><trkpt lat="45.7337517" lon="11.2203217"><ele>766.1666666666667</ele><time>2026-04-07T09:04:56.979Z</time></trkpt><trkpt lat="45.7337533" lon="11.220455"><ele>766.3333333333334</ele><time>2026-04-07T09:04:57.98Z</time></trkpt><trkpt lat="45.7337533" lon="11.220575"><ele>766.5</ele><time>2026-04-07T09:04:58.98Z</time></trkpt><trkpt lat="45.73375" lon="11.2206967"><ele>766.6666666666666</ele><time>2026-04-07T09:04:59.98Z</time></trkpt><trkpt lat="45.7337433" lon="11.22082"><ele>766.8333333333333</ele><time>2026-04-07T09:05:00.98Z</time></trkpt><trkpt lat="45.733735" lon="11.2209267"><ele>767.0</ele><time>2026-04-07T09:05:01.979Z</time></trkpt><trkpt lat="45.7337083" lon="11.221035"><ele>765.6666666666666</ele><time>2026-04-07T09:05:02.98Z</time></trkpt><trkpt lat="45.733685" lon="11.221135"><ele>764.3333333333333</ele><time>2026-04-07T09:05:03.98Z</time></trkpt><trkpt lat="45.7336633" lon="11.221245"><ele>763.0</ele><time>2026-04-07T09:05:04.979Z</time></trkpt><trkpt lat="45.73366" lon="11.221345"><ele>761.6666666666666</ele><time>2026-04-07T09:05:05.98Z</time></trkpt><trkpt lat="45.73364" lon="11.2214417"><ele>760.3333333333334</ele><time>2026-04-07T09:05:06.98Z</time></trkpt><trkpt lat="45.7336283" lon="11.22154"><ele>759.0</ele><time>2026-04-07T09:05:07.98Z</time></trkpt><trkpt lat="45.733625" lon="11.2216917"><ele>755.3333333333334</ele><time>2026-04-07T09:05:09.98Z</time></trkpt><trkpt lat="45.73365" lon="11.2217817"><ele>751.6666666666666</ele><time>2026-04-07T09:05:11.98Z</time></trkpt><trkpt lat="45.733725" lon="11.2218333"><ele>748.0</ele><time>2026-04-07T09:05:13.98Z</time></trkpt><trkpt lat="45.73379" lon="11.2218667"><ele>744.3333333333333</ele><time>2026-04-07T09:05:14.979Z</time></trkpt><trkpt lat="45.733845" lon="11.2219117"><ele>740.6666666666666</ele><time>2026-04-07T09:05:15.98Z</time></trkpt><trkpt lat="45.7339" lon="11.2219567"><ele>737.0</ele><time>2026-04-07T09:05:16.98Z</time></trkpt><trkpt lat="45.73399" lon="11.2220567"><ele>737.0</ele><time>2026-04-07T09:05:18.98Z</time></trkpt><trkpt lat="45.73407" lon="11.22214"><ele>737.0</ele><time>2026-04-07T09:05:20.979Z</time></trkpt><trkpt lat="45.73417" lon="11.22218"><ele>737.0</ele><time>2026-04-07T09:05:22.979Z</time></trkpt><trkpt lat="45.7342933" lon="11.2221733"><ele>737.0</ele><time>2026-04-07T09:05:24.98Z</time></trkpt><trkpt lat="45.7344" lon="11.2221533"><ele>737.0</ele><time>2026-04-07T09:05:26.98Z</time></trkpt><trkpt lat="45.7344967" lon="11.2221167"><ele>734.6</ele><time>2026-04-07T09:05:28.98Z</time></trkpt><trkpt lat="45.7346083" lon="11.2220933"><ele>732.2</ele><time>2026-04-07T09:05:30.98Z</time></trkpt><trkpt lat="45.73473" lon="11.2221417"><ele>729.8</ele><time>2026-04-07T09:05:32.98Z</time></trkpt><trkpt lat="45.7348483" lon="11.2222117"><ele>727.4</ele><time>2026-04-07T09:05:34.979Z</time></trkpt><trkpt lat="45.734905" lon="11.2222633"><ele>725.0</ele><time>2026-04-07T09:05:35.98Z</time></trkpt><trkpt lat="45.7349617" lon="11.2223167"><ele>725.0</ele><time>2026-04-07T09:05:36.979Z</time></trkpt><trkpt lat="45.7350267" lon="11.222375"><ele>725.0</ele><time>2026-04-07T09:05:37.98Z</time></trkpt><trkpt lat="45.73509" lon="11.222435"><ele>725.0</ele><time>2026-04-07T09:05:38.98Z</time></trkpt><trkpt lat="45.7351667" lon="11.2224983"><ele>725.0</ele><time>2026-04-07T09:05:39.979Z</time></trkpt><trkpt lat="45.73525" lon="11.222555"><ele>725.0</ele><time>2026-04-07T09:05:40.98Z</time></trkpt><trkpt lat="45.73534" lon="11.2226017"><ele>725.0</ele><time>2026-04-07T09:05:41.98Z</time></trkpt><trkpt lat="45.7354267" lon="11.2226333"><ele>725.8</ele><time>2026-04-07T09:05:42.98Z</time></trkpt><trkpt lat="45.7355167" lon="11.2226733"><ele>726.6</ele><time>2026-04-07T09:05:43.98Z</time></trkpt><trkpt lat="45.7356167" lon="11.2227017"><ele>727.4000000000001</ele><time>2026-04-07T09:05:44.98Z</time></trkpt><trkpt lat="45.7357233" lon="11.2227283"><ele>728.2</ele><time>2026-04-07T09:05:45.98Z</time></trkpt><trkpt lat="45.7358167" lon="11.2227467"><ele>729.0</ele><time>2026-04-07T09:05:46.979Z</time></trkpt><trkpt lat="45.735905" lon="11.222775"><ele>729.0</ele><time>2026-04-07T09:05:47.98Z</time></trkpt><trkpt lat="45.73599" lon="11.2228067"><ele>729.0</ele><time>2026-04-07T09:05:48.98Z</time></trkpt><trkpt lat="45.736075" lon="11.2228583"><ele>729.0</ele><time>2026-04-07T09:05:49.98Z</time></trkpt><trkpt lat="45.7361417" lon="11.2229183"><ele>729.0</ele><time>2026-04-07T09:05:50.979Z</time></trkpt><trkpt lat="45.73622" lon="11.2229767"><ele>729.0</ele><time>2026-04-07T09:05:51.979Z</time></trkpt><trkpt lat="45.73631" lon="11.223015"><ele>729.0</ele><time>2026-04-07T09:05:52.98Z</time></trkpt><trkpt lat="45.7364" lon="11.2230433"><ele>728.8333333333334</ele><time>2026-04-07T09:05:53.98Z</time></trkpt><trkpt lat="45.7364817" lon="11.223065"><ele>728.6666666666666</ele><time>2026-04-07T09:05:54.979Z</time></trkpt><trkpt lat="45.736545" lon="11.2230733"><ele>728.5</ele><time>2026-04-07T09:05:55.98Z</time></trkpt><trkpt lat="45.7366183" lon="11.22305"><ele>728.3333333333333</ele><time>2026-04-07T09:05:57.98Z</time></trkpt><trkpt lat="45.736665" lon="11.2229483"><ele>728.1666666666666</ele><time>2026-04-07T09:22:52.974Z</time></trkpt><trkpt lat="45.7367383" lon="11.222865"><ele>728.0</ele><time>2026-04-07T09:22:55.974Z</time></trkpt><trkpt lat="45.73681" lon="11.2228483"><ele>728.0</ele><time>2026-04-07T09:22:57.974Z</time></trkpt><trkpt lat="45.7368733" lon="11.222845"><ele>728.0</ele><time>2026-04-07T09:22:59.974Z</time></trkpt><trkpt lat="45.7369367" lon="11.2228667"><ele>728.0</ele><time>2026-04-07T09:23:01.974Z</time></trkpt><trkpt lat="45.7370117" lon="11.2228983"><ele>728.0</ele><time>2026-04-07T09:23:24.973Z</time></trkpt><trkpt lat="45.7371233" lon="11.22298"><ele>728.0</ele><time>2026-04-07T09:23:26.973Z</time></trkpt><trkpt lat="45.7371917" lon="11.2230317"><ele>728.0</ele><time>2026-04-07T09:23:27.974Z</time></trkpt><trkpt lat="45.7372533" lon="11.2230833"><ele>722.4</ele><time>2026-04-07T09:23:28.974Z</time></trkpt><trkpt lat="45.7373067" lon="11.22314"><ele>716.8</ele><time>2026-04-07T09:23:29.973Z</time></trkpt><trkpt lat="45.7373933" lon="11.22323"><ele>711.2</ele><time>2026-04-07T09:23:31.973Z</time></trkpt><trkpt lat="45.7375167" lon="11.22328"><ele>705.6</ele><time>2026-04-07T09:23:33.973Z</time></trkpt><trkpt lat="45.7375933" lon="11.2233083"><ele>700.0</ele><time>2026-04-07T09:23:34.973Z</time></trkpt><trkpt lat="45.7376683" lon="11.22333"><ele>696.8</ele><time>2026-04-07T09:23:35.973Z</time></trkpt><trkpt lat="45.737785" lon="11.2233433"><ele>693.6</ele><time>2026-04-07T09:23:37.973Z</time></trkpt><trkpt lat="45.737895" lon="11.2233033"><ele>690.4000000000001</ele><time>2026-04-07T09:23:39.974Z</time></trkpt><trkpt lat="45.7379717" lon="11.223245"><ele>687.2</ele><time>2026-04-07T09:23:41.974Z</time></trkpt><trkpt lat="45.7380133" lon="11.2231333"><ele>684.0</ele><time>2026-04-07T09:23:44.974Z</time></trkpt><trkpt lat="45.7379917" lon="11.22301"><ele>681.6</ele><time>2026-04-07T09:23:46.974Z</time></trkpt><trkpt lat="45.7378967" lon="11.222875"><ele>679.2</ele><time>2026-04-07T09:23:48.974Z</time></trkpt><trkpt lat="45.7378217" lon="11.222805"><ele>676.8000000000001</ele><time>2026-04-07T09:23:49.974Z</time></trkpt><trkpt lat="45.7377317" lon="11.2227333"><ele>674.4000000000001</ele><time>2026-04-07T09:23:50.974Z</time></trkpt><trkpt lat="45.7376483" lon="11.2226533"><ele>672.0</ele><time>2026-04-07T09:23:51.974Z</time></trkpt><trkpt lat="45.737565" lon="11.2225583"><ele>676.6666666666666</ele><time>2026-04-07T09:23:52.974Z</time></trkpt><trkpt lat="45.737485" lon="11.222475"><ele>681.3333333333334</ele><time>2026-04-07T09:23:53.974Z</time></trkpt><trkpt lat="45.737425" lon="11.2223883"><ele>686.0</ele><time>2026-04-07T09:23:54.974Z</time></trkpt><trkpt lat="45.7373933" lon="11.222295"><ele>690.6666666666667</ele><time>2026-04-07T09:23:55.973Z</time></trkpt><trkpt lat="45.7373783" lon="11.2221817"><ele>695.3333333333334</ele><time>2026-04-07T09:23:56.974Z</time></trkpt><trkpt lat="45.7373767" lon="11.2220633"><ele>700.0</ele><time>2026-04-07T09:23:57.973Z</time></trkpt><trkpt lat="45.7373867" lon="11.2219083"><ele>700.4</ele><time>2026-04-07T09:23:58.973Z</time></trkpt><trkpt lat="45.737415" lon="11.2217267"><ele>700.8</ele><time>2026-04-07T09:23:59.974Z</time></trkpt><trkpt lat="45.737435" lon="11.2215733"><ele>701.2</ele><time>2026-04-07T09:24:00.973Z</time></trkpt><trkpt lat="45.7374617" lon="11.2214483"><ele>701.6</ele><time>2026-04-07T09:24:01.974Z</time></trkpt><trkpt lat="45.7374783" lon="11.2213533"><ele>702.0</ele><time>2026-04-07T09:24:02.973Z</time></trkpt><trkpt lat="45.7374967" lon="11.2212617"><ele>703.7142857142858</ele><time>2026-04-07T09:24:04.973Z</time></trkpt><trkpt lat="45.7375467" lon="11.2211933"><ele>705.4285714285714</ele><time>2026-04-07T09:24:24.974Z</time></trkpt><trkpt lat="45.737485" lon="11.2211583"><ele>707.1428571428571</ele><time>2026-04-07T09:24:43.974Z</time></trkpt><trkpt lat="45.737505" lon="11.221015"><ele>708.8571428571429</ele><time>2026-04-07T09:24:46.973Z</time></trkpt><trkpt lat="45.7375367" lon="11.220935"><ele>710.5714285714286</ele><time>2026-04-07T09:24:47.973Z</time></trkpt><trkpt lat="45.737565" lon="11.2208433"><ele>712.2857142857143</ele><time>2026-04-07T09:24:48.973Z</time></trkpt><trkpt lat="45.7375933" lon="11.220745"><ele>714.0</ele><time>2026-04-07T09:24:49.974Z</time></trkpt><trkpt lat="45.73761" lon="11.2206483"><ele>711.8333333333334</ele><time>2026-04-07T09:24:50.973Z</time></trkpt><trkpt lat="45.7376267" lon="11.2205517"><ele>709.6666666666666</ele><time>2026-04-07T09:24:51.974Z</time></trkpt><trkpt lat="45.7376467" lon="11.2204533"><ele>707.5</ele><time>2026-04-07T09:24:52.974Z</time></trkpt><trkpt lat="45.737665" lon="11.2203433"><ele>705.3333333333333</ele><time>2026-04-07T09:24:53.974Z</time></trkpt><trkpt lat="45.7377017" lon="11.2202317"><ele>703.1666666666666</ele><time>2026-04-07T09:24:54.974Z</time></trkpt><trkpt lat="45.737725" lon="11.220105"><ele>701.0</ele><time>2026-04-07T09:24:55.973Z</time></trkpt><trkpt lat="45.7377517" lon="11.2199717"><ele>701.0</ele><time>2026-04-07T09:24:56.973Z</time></trkpt><trkpt lat="45.73778" lon="11.21985"><ele>701.0</ele><time>2026-04-07T09:24:57.972Z</time></trkpt><trkpt lat="45.73781" lon="11.219735"><ele>701.0</ele><time>2026-04-07T09:24:58.973Z</time></trkpt><trkpt lat="45.73785" lon="11.219625"><ele>701.0</ele><time>2026-04-07T09:24:59.973Z</time></trkpt><trkpt lat="45.737895" lon="11.2195383"><ele>701.0</ele><time>2026-04-07T09:25:00.972Z</time></trkpt><trkpt lat="45.73795" lon="11.2194583"><ele>701.0</ele><time>2026-04-07T09:25:01.973Z</time></trkpt><trkpt lat="45.7380083" lon="11.2194"><ele>705.0</ele><time>2026-04-07T09:25:02.973Z</time></trkpt><trkpt lat="45.738065" lon="11.21936"><ele>709.0</ele><time>2026-04-07T09:25:03.972Z</time></trkpt><trkpt lat="45.7381217" lon="11.21932"><ele>713.0</ele><time>2026-04-07T09:25:04.972Z</time></trkpt><trkpt lat="45.7382133" lon="11.2192"><ele>717.0</ele><time>2026-04-07T09:25:06.973Z</time></trkpt><trkpt lat="45.738265" lon="11.2190967"><ele>721.0</ele><time>2026-04-07T09:25:07.972Z</time></trkpt><trkpt lat="45.7383133" lon="11.2189567"><ele>725.0</ele><time>2026-04-07T09:25:08.972Z</time></trkpt><trkpt lat="45.73835" lon="11.2188017"><ele>726.6</ele><time>2026-04-07T09:25:09.973Z</time></trkpt><trkpt lat="45.73838" lon="11.2186517"><ele>728.2</ele><time>2026-04-07T09:25:10.973Z</time></trkpt><trkpt lat="45.738405" lon="11.2185233"><ele>729.8</ele><time>2026-04-07T09:25:11.973Z</time></trkpt><trkpt lat="45.738415" lon="11.2184133"><ele>731.4</ele><time>2026-04-07T09:25:12.973Z</time></trkpt><trkpt lat="45.738415" lon="11.2183133"><ele>733.0</ele><time>2026-04-07T09:25:13.973Z</time></trkpt><trkpt lat="45.7383717" lon="11.21816"><ele>731.8</ele><time>2026-04-07T09:25:15.973Z</time></trkpt><trkpt lat="45.7383383" lon="11.2180717"><ele>730.5999999999999</ele><time>2026-04-07T09:25:16.972Z</time></trkpt><trkpt lat="45.738295" lon="11.21796"><ele>729.4000000000001</ele><time>2026-04-07T09:25:17.973Z</time></trkpt><trkpt lat="45.7382583" lon="11.2178233"><ele>728.2</ele><time>2026-04-07T09:25:18.973Z</time></trkpt><trkpt lat="45.7382267" lon="11.2176817"><ele>727.0</ele><time>2026-04-07T09:25:19.972Z</time></trkpt><trkpt lat="45.7381967" lon="11.217535"><ele>727.0</ele><time>2026-04-07T09:25:20.972Z</time></trkpt><trkpt lat="45.738155" lon="11.2173817"><ele>727.0</ele><time>2026-04-07T09:25:21.972Z</time></trkpt><trkpt lat="45.738105" lon="11.2172217"><ele>727.0</ele><time>2026-04-07T09:25:22.972Z</time></trkpt><trkpt lat="45.73806" lon="11.2170633"><ele>727.0</ele><time>2026-04-07T09:25:23.973Z</time></trkpt><trkpt lat="45.7380083" lon="11.2169233"><ele>724.8</ele><time>2026-04-07T09:25:24.972Z</time></trkpt><trkpt lat="45.7379517" lon="11.2167717"><ele>722.6</ele><time>2026-04-07T09:25:25.973Z</time></trkpt><trkpt lat="45.7378917" lon="11.2166333"><ele>720.4</ele><time>2026-04-07T09:25:26.973Z</time></trkpt><trkpt lat="45.7378367" lon="11.2165117"><ele>718.1999999999999</ele><time>2026-04-07T09:25:27.973Z</time></trkpt><trkpt lat="45.7377833" lon="11.2164083"><ele>716.0</ele><time>2026-04-07T09:25:28.973Z</time></trkpt><trkpt lat="45.7377417" lon="11.2163367"><ele>719.8333333333333</ele><time>2026-04-07T09:25:29.972Z</time></trkpt><trkpt lat="45.737645" lon="11.21627"><ele>723.6666666666666</ele><time>2026-04-07T09:25:31.972Z</time></trkpt><trkpt lat="45.7375717" lon="11.21626"><ele>727.5</ele><time>2026-04-07T09:25:32.973Z</time></trkpt><trkpt lat="45.7374833" lon="11.2162533"><ele>731.3333333333334</ele><time>2026-04-07T09:25:33.972Z</time></trkpt><trkpt lat="45.7374" lon="11.216215"><ele>735.1666666666667</ele><time>2026-04-07T09:25:34.973Z</time></trkpt><trkpt lat="45.7373383" lon="11.21618"><ele>739.0</ele><time>2026-04-07T09:25:35.973Z</time></trkpt><trkpt lat="45.737295" lon="11.21611"><ele>739.0</ele><time>2026-04-07T09:25:36.972Z</time></trkpt><trkpt lat="45.737265" lon="11.2160167"><ele>739.0</ele><time>2026-04-07T09:25:37.973Z</time></trkpt><trkpt lat="45.7372483" lon="11.2159033"><ele>739.0</ele><time>2026-04-07T09:25:38.973Z</time></trkpt><trkpt lat="45.7372383" lon="11.2157883"><ele>739.0</ele><time>2026-04-07T09:25:39.973Z</time></trkpt><trkpt lat="45.7372517" lon="11.2156933"><ele>739.0</ele><time>2026-04-07T09:25:40.973Z</time></trkpt><trkpt lat="45.7372567" lon="11.215595"><ele>739.0</ele><time>2026-04-07T09:25:41.973Z</time></trkpt><trkpt lat="45.737235" lon="11.2154283"><ele>737.4000000000001</ele><time>2026-04-07T09:25:43.973Z</time></trkpt><trkpt lat="45.7372017" lon="11.2153383"><ele>735.8</ele><time>2026-04-07T09:25:44.972Z</time></trkpt><trkpt lat="45.73715" lon="11.2152283"><ele>734.2</ele><time>2026-04-07T09:25:45.973Z</time></trkpt><trkpt lat="45.7370833" lon="11.2150917"><ele>732.5999999999999</ele><time>2026-04-07T09:25:46.973Z</time></trkpt><trkpt lat="45.7370233" lon="11.2149583"><ele>731.0</ele><time>2026-04-07T09:25:47.972Z</time></trkpt><trkpt lat="45.736985" lon="11.2148267"><ele>730.6666666666666</ele><time>2026-04-07T09:25:48.973Z</time></trkpt><trkpt lat="45.7369667" lon="11.2146967"><ele>730.3333333333333</ele><time>2026-04-07T09:25:49.973Z</time></trkpt><trkpt lat="45.7369483" lon="11.214565"><ele>730.0</ele><time>2026-04-07T09:25:50.972Z</time></trkpt><trkpt lat="45.73697" lon="11.2144683"><ele>729.6666666666666</ele><time>2026-04-07T09:25:51.973Z</time></trkpt><trkpt lat="45.7370033" lon="11.21434"><ele>729.3333333333334</ele><time>2026-04-07T09:25:52.972Z</time></trkpt><trkpt lat="45.737045" lon="11.21422"><ele>729.0</ele><time>2026-04-07T09:25:53.972Z</time></trkpt><trkpt lat="45.7370917" lon="11.21412"><ele>729.0</ele><time>2026-04-07T09:25:54.972Z</time></trkpt><trkpt lat="45.7371183" lon="11.2140317"><ele>729.0</ele><time>2026-04-07T09:25:55.973Z</time></trkpt><trkpt lat="45.7370883" lon="11.2138933"><ele>729.0</ele><time>2026-04-07T09:25:57.972Z</time></trkpt><trkpt lat="45.7370283" lon="11.2138317"><ele>729.0</ele><time>2026-04-07T09:25:58.973Z</time></trkpt><trkpt lat="45.7369433" lon="11.2137667"><ele>729.0</ele><time>2026-04-07T09:25:59.973Z</time></trkpt><trkpt lat="45.7368283" lon="11.2136717"><ele>734.5</ele><time>2026-04-07T09:26:00.973Z</time></trkpt><trkpt lat="45.7367017" lon="11.213575"><ele>740.0</ele><time>2026-04-07T09:26:01.972Z</time></trkpt><trkpt lat="45.736575" lon="11.21347"><ele>745.5</ele><time>2026-04-07T09:26:02.972Z</time></trkpt><trkpt lat="45.73647" lon="11.2133667"><ele>751.0</ele><time>2026-04-07T09:26:03.973Z</time></trkpt><trkpt lat="45.7363933" lon="11.213265"><ele>751.0</ele><time>2026-04-07T09:26:04.973Z</time></trkpt><trkpt lat="45.736325" lon="11.21316"><ele>751.0</ele><time>2026-04-07T09:26:05.973Z</time></trkpt><trkpt lat="45.7362767" lon="11.213045"><ele>751.0</ele><time>2026-04-07T09:26:06.972Z</time></trkpt><trkpt lat="45.736225" lon="11.21294"><ele>751.0</ele><time>2026-04-07T09:26:07.973Z</time></trkpt><trkpt lat="45.736165" lon="11.2128483"><ele>751.0</ele><time>2026-04-07T09:26:08.973Z</time></trkpt><trkpt lat="45.7360883" lon="11.2127533"><ele>754.4</ele><time>2026-04-07T09:26:09.973Z</time></trkpt><trkpt lat="45.735995" lon="11.2126567"><ele>757.8</ele><time>2026-04-07T09:26:10.972Z</time></trkpt><trkpt lat="45.7359117" lon="11.2125683"><ele>761.1999999999999</ele><time>2026-04-07T09:26:11.972Z</time></trkpt><trkpt lat="45.7358483" lon="11.2124733"><ele>764.5999999999999</ele><time>2026-04-07T09:26:12.972Z</time></trkpt><trkpt lat="45.7358133" lon="11.212385"><ele>768.0</ele><time>2026-04-07T09:26:13.972Z</time></trkpt><trkpt lat="45.7357817" lon="11.21221"><ele>768.0</ele><time>2026-04-07T09:26:15.973Z</time></trkpt><trkpt lat="45.7357983" lon="11.2121017"><ele>768.0</ele><time>2026-04-07T09:26:16.973Z</time></trkpt><trkpt lat="45.7358133" lon="11.2119367"><ele>768.0</ele><time>2026-04-07T09:26:17.972Z</time></trkpt><trkpt lat="45.735855" lon="11.2117517"><ele>768.0</ele><time>2026-04-07T09:26:18.972Z</time></trkpt><trkpt lat="45.73587" lon="11.2115933"><ele>768.0</ele><time>2026-04-07T09:26:19.972Z</time></trkpt><trkpt lat="45.7358783" lon="11.2114467"><ele>767.0</ele><time>2026-04-07T09:26:20.973Z</time></trkpt><trkpt lat="45.73587" lon="11.2113233"><ele>766.0</ele><time>2026-04-07T09:26:21.972Z</time></trkpt><trkpt lat="45.735845" lon="11.2111983"><ele>765.0</ele><time>2026-04-07T09:26:23.972Z</time></trkpt><trkpt lat="45.735765" lon="11.211105"><ele>764.0</ele><time>2026-04-07T09:26:25.973Z</time></trkpt><trkpt lat="45.7357083" lon="11.21103"><ele>763.0</ele><time>2026-04-07T09:26:26.973Z</time></trkpt><trkpt lat="45.73564" lon="11.2109117"><ele>763.0</ele><time>2026-04-07T09:26:27.972Z</time></trkpt><trkpt lat="45.7355733" lon="11.21081"><ele>763.0</ele><time>2026-04-07T09:26:28.972Z</time></trkpt><trkpt lat="45.735525" lon="11.2107067"><ele>763.0</ele><time>2026-04-07T09:26:29.973Z</time></trkpt><trkpt lat="45.73549" lon="11.210565"><ele>763.0</ele><time>2026-04-07T09:26:30.973Z</time></trkpt><trkpt lat="45.7354667" lon="11.2104033"><ele>763.0</ele><time>2026-04-07T09:26:31.973Z</time></trkpt><trkpt lat="45.7354583" lon="11.2102683"><ele>763.1666666666667</ele><time>2026-04-07T09:26:32.972Z</time></trkpt><trkpt lat="45.735455" lon="11.2101183"><ele>763.3333333333334</ele><time>2026-04-07T09:26:33.973Z</time></trkpt><trkpt lat="45.7354567" lon="11.2099883"><ele>763.5</ele><time>2026-04-07T09:26:34.972Z</time></trkpt><trkpt lat="45.73547" lon="11.2098783"><ele>763.6666666666666</ele><time>2026-04-07T09:26:35.972Z</time></trkpt><trkpt lat="45.7355167" lon="11.20978"><ele>763.8333333333333</ele><time>2026-04-07T09:26:36.973Z</time></trkpt><trkpt lat="45.7355517" lon="11.2096617"><ele>764.0</ele><time>2026-04-07T09:26:37.973Z</time></trkpt><trkpt lat="45.73558" lon="11.20955"><ele>766.0</ele><time>2026-04-07T09:26:38.973Z</time></trkpt><trkpt lat="45.7356133" lon="11.20942"><ele>768.0</ele><time>2026-04-07T09:26:39.973Z</time></trkpt><trkpt lat="45.7356317" lon="11.209295"><ele>770.0</ele><time>2026-04-07T09:26:40.973Z</time></trkpt><trkpt lat="45.7356483" lon="11.2091833"><ele>772.0</ele><time>2026-04-07T09:26:41.973Z</time></trkpt><trkpt lat="45.7356833" lon="11.2090783"><ele>774.0000000000001</ele><time>2026-04-07T09:26:42.972Z</time></trkpt><trkpt lat="45.7357233" lon="11.208985"><ele>776.0</ele><time>2026-04-07T09:26:43.972Z</time></trkpt><trkpt lat="45.7357867" lon="11.2089117"><ele>774.6666666666667</ele><time>2026-04-07T09:26:44.973Z</time></trkpt><trkpt lat="45.7358767" lon="11.2088667"><ele>773.3333333333334</ele><time>2026-04-07T09:26:45.973Z</time></trkpt><trkpt lat="45.7359667" lon="11.2088433"><ele>772.0</ele><time>2026-04-07T09:26:46.973Z</time></trkpt><trkpt lat="45.7360533" lon="11.2088233"><ele>770.6666666666667</ele><time>2026-04-07T09:26:47.973Z</time></trkpt><trkpt lat="45.7361367" lon="11.2088"><ele>769.3333333333334</ele><time>2026-04-07T09:26:48.973Z</time></trkpt><trkpt lat="45.7362183" lon="11.208755"><ele>768.0</ele><time>2026-04-07T09:26:49.973Z</time></trkpt><trkpt lat="45.736295" lon="11.208715"><ele>768.0</ele><time>2026-04-07T09:26:50.973Z</time></trkpt><trkpt lat="45.7364117" lon="11.2086317"><ele>768.0</ele><time>2026-04-07T09:26:52.972Z</time></trkpt><trkpt lat="45.7364983" lon="11.208505"><ele>768.0</ele><time>2026-04-07T09:26:54.973Z</time></trkpt><trkpt lat="45.7365433" lon="11.2083833"><ele>768.0</ele><time>2026-04-07T09:26:55.973Z</time></trkpt><trkpt lat="45.7365817" lon="11.2082233"><ele>770.5999999999999</ele><time>2026-04-07T09:26:56.972Z</time></trkpt><trkpt lat="45.7366233" lon="11.2080583"><ele>773.1999999999999</ele><time>2026-04-07T09:26:57.973Z</time></trkpt><trkpt lat="45.7366683" lon="11.2079133"><ele>775.8</ele><time>2026-04-07T09:26:58.972Z</time></trkpt><trkpt lat="45.7367033" lon="11.2077933"><ele>778.4</ele><time>2026-04-07T09:26:59.973Z</time></trkpt><trkpt lat="45.736735" lon="11.2076933"><ele>781.0</ele><time>2026-04-07T09:27:00.973Z</time></trkpt><trkpt lat="45.7367433" lon="11.2076033"><ele>780.9999999999999</ele><time>2026-04-07T09:27:01.973Z</time></trkpt><trkpt lat="45.736735" lon="11.2075067"><ele>781.0</ele><time>2026-04-07T09:27:02.973Z</time></trkpt><trkpt lat="45.73672" lon="11.2073517"><ele>781.0</ele><time>2026-04-07T09:27:04.972Z</time></trkpt><trkpt lat="45.7367533" lon="11.207205"><ele>781.0</ele><time>2026-04-07T09:27:06.973Z</time></trkpt><trkpt lat="45.736785" lon="11.2071133"><ele>780.9999999999999</ele><time>2026-04-07T09:27:07.972Z</time></trkpt><trkpt lat="45.7368333" lon="11.20701"><ele>781.0</ele><time>2026-04-07T09:27:08.972Z</time></trkpt><trkpt lat="45.7368817" lon="11.2069133"><ele>778.8333333333333</ele><time>2026-04-07T09:27:09.973Z</time></trkpt><trkpt lat="45.73693" lon="11.2068517"><ele>776.6666666666666</ele><time>2026-04-07T09:27:10.973Z</time></trkpt><trkpt lat="45.737025" lon="11.2068167"><ele>774.5</ele><time>2026-04-07T09:27:12.973Z</time></trkpt><trkpt lat="45.7370933" lon="11.2067633"><ele>772.3333333333333</ele><time>2026-04-07T09:27:14.973Z</time></trkpt><trkpt lat="45.7371033" lon="11.2066433"><ele>770.1666666666666</ele><time>2026-04-07T09:27:16.973Z</time></trkpt><trkpt lat="45.7370683" lon="11.206545"><ele>768.0</ele><time>2026-04-07T09:27:17.973Z</time></trkpt><trkpt lat="45.7370333" lon="11.2064367"><ele>767.3333333333334</ele><time>2026-04-07T09:27:18.973Z</time></trkpt><trkpt lat="45.7370183" lon="11.20633"><ele>766.6666666666666</ele><time>2026-04-07T09:27:19.972Z</time></trkpt><trkpt lat="45.737065" lon="11.206175"><ele>766.0</ele><time>2026-04-07T09:27:21.972Z</time></trkpt><trkpt lat="45.7371283" lon="11.2060933"><ele>765.3333333333333</ele><time>2026-04-07T09:27:22.972Z</time></trkpt><trkpt lat="45.7371967" lon="11.206025"><ele>764.6666666666666</ele><time>2026-04-07T09:27:23.972Z</time></trkpt><trkpt lat="45.7372633" lon="11.2059817"><ele>764.0</ele><time>2026-04-07T09:27:24.972Z</time></trkpt><trkpt lat="45.7373183" lon="11.2059367"><ele>764.0</ele><time>2026-04-07T09:27:25.972Z</time></trkpt><trkpt lat="45.737365" lon="11.2058733"><ele>764.0</ele><time>2026-04-07T09:27:26.972Z</time></trkpt><trkpt lat="45.7374233" lon="11.2057383"><ele>764.0</ele><time>2026-04-07T09:27:28.971Z</time></trkpt><trkpt lat="45.7374317" lon="11.2055717"><ele>764.0</ele><time>2026-04-07T09:27:30.972Z</time></trkpt><trkpt lat="45.737405" lon="11.205405"><ele>764.0</ele><time>2026-04-07T09:27:32.972Z</time></trkpt><trkpt lat="45.73738" lon="11.2053183"><ele>761.3333333333333</ele><time>2026-04-07T09:27:33.972Z</time></trkpt><trkpt lat="45.737355" lon="11.205165"><ele>758.6666666666666</ele><time>2026-04-07T09:27:35.972Z</time></trkpt><trkpt lat="45.737355" lon="11.2050717"><ele>756.0</ele><time>2026-04-07T09:27:36.972Z</time></trkpt><trkpt lat="45.7373633" lon="11.2049767"><ele>753.3333333333334</ele><time>2026-04-07T09:27:37.972Z</time></trkpt><trkpt lat="45.7373733" lon="11.20487"><ele>750.6666666666667</ele><time>2026-04-07T09:27:38.972Z</time></trkpt><trkpt lat="45.7373883" lon="11.2047717"><ele>748.0</ele><time>2026-04-07T09:27:39.971Z</time></trkpt><trkpt lat="45.737405" lon="11.2046833"><ele>745.2</ele><time>2026-04-07T09:27:40.971Z</time></trkpt><trkpt lat="45.73743" lon="11.2044967"><ele>742.4</ele><time>2026-04-07T09:27:42.971Z</time></trkpt><trkpt lat="45.73744" lon="11.204385"><ele>739.6</ele><time>2026-04-07T09:27:43.972Z</time></trkpt><trkpt lat="45.7374417" lon="11.204255"><ele>736.8000000000001</ele><time>2026-04-07T09:27:44.972Z</time></trkpt><trkpt lat="45.737435" lon="11.2041067"><ele>734.0</ele><time>2026-04-07T09:27:45.972Z</time></trkpt><trkpt lat="45.7374283" lon="11.2039617"><ele>733.6666666666666</ele><time>2026-04-07T09:27:46.972Z</time></trkpt><trkpt lat="45.7374133" lon="11.2038067"><ele>733.3333333333333</ele><time>2026-04-07T09:27:47.972Z</time></trkpt><trkpt lat="45.7373783" lon="11.2036667"><ele>733.0</ele><time>2026-04-07T09:27:48.972Z</time></trkpt><trkpt lat="45.7373567" lon="11.2035533"><ele>732.6666666666666</ele><time>2026-04-07T09:27:49.972Z</time></trkpt><trkpt lat="45.7373183" lon="11.2034567"><ele>732.3333333333334</ele><time>2026-04-07T09:27:50.971Z</time></trkpt><trkpt lat="45.73728" lon="11.2033783"><ele>732.0</ele><time>2026-04-07T09:27:51.972Z</time></trkpt><trkpt lat="45.7372483" lon="11.2032967"><ele>732.0</ele><time>2026-04-07T09:27:52.971Z</time></trkpt><trkpt lat="45.7372283" lon="11.2032033"><ele>732.0</ele><time>2026-04-07T09:27:53.972Z</time></trkpt><trkpt lat="45.737215" lon="11.2031117"><ele>732.0</ele><time>2026-04-07T09:27:54.972Z</time></trkpt><trkpt lat="45.7371867" lon="11.20297"><ele>732.0</ele><time>2026-04-07T09:27:56.972Z</time></trkpt><trkpt lat="45.7371567" lon="11.20284"><ele>732.0</ele><time>2026-04-07T09:27:58.971Z</time></trkpt><trkpt lat="45.737135" lon="11.20273"><ele>732.0</ele><time>2026-04-07T09:28:00.971Z</time></trkpt><trkpt lat="45.7371967" lon="11.2026717"><ele>736.8333333333334</ele><time>2026-04-07T09:28:03.972Z</time></trkpt><trkpt lat="45.7372967" lon="11.202685"><ele>741.6666666666666</ele><time>2026-04-07T09:28:05.972Z</time></trkpt><trkpt lat="45.7373617" lon="11.2027133"><ele>746.5</ele><time>2026-04-07T09:28:06.971Z</time></trkpt><trkpt lat="45.7374433" lon="11.202755"><ele>751.3333333333333</ele><time>2026-04-07T09:28:07.972Z</time></trkpt><trkpt lat="45.7375267" lon="11.20281"><ele>756.1666666666666</ele><time>2026-04-07T09:28:08.972Z</time></trkpt><trkpt lat="45.7376017" lon="11.20286"><ele>761.0</ele><time>2026-04-07T09:28:09.971Z</time></trkpt><trkpt lat="45.7376733" lon="11.2029017"><ele>758.0</ele><time>2026-04-07T09:28:10.971Z</time></trkpt><trkpt lat="45.7377883" lon="11.2029033"><ele>755.0</ele><time>2026-04-07T09:28:12.971Z</time></trkpt><trkpt lat="45.7378667" lon="11.2028033"><ele>752.0</ele><time>2026-04-07T09:28:14.971Z</time></trkpt><trkpt lat="45.7378983" lon="11.20272"><ele>749.0</ele><time>2026-04-07T09:28:15.972Z</time></trkpt><trkpt lat="45.7379383" lon="11.202615"><ele>746.0</ele><time>2026-04-07T09:28:16.972Z</time></trkpt><trkpt lat="45.7379933" lon="11.20246"><ele>749.5999999999999</ele><time>2026-04-07T09:28:17.972Z</time></trkpt><trkpt lat="45.7380533" lon="11.20233"><ele>753.2</ele><time>2026-04-07T09:28:18.971Z</time></trkpt><trkpt lat="45.73813" lon="11.2022"><ele>756.8</ele><time>2026-04-07T09:28:19.972Z</time></trkpt><trkpt lat="45.7381917" lon="11.20206"><ele>760.4000000000001</ele><time>2026-04-07T09:28:20.972Z</time></trkpt><trkpt lat="45.7382517" lon="11.2019533"><ele>764.0</ele><time>2026-04-07T09:28:21.971Z</time></trkpt><trkpt lat="45.7383317" lon="11.2018883"><ele>764.0</ele><time>2026-04-07T09:28:22.971Z</time></trkpt><trkpt lat="45.738405" lon="11.2018483"><ele>764.0</ele><time>2026-04-07T09:28:23.971Z</time></trkpt><trkpt lat="45.738485" lon="11.2018217"><ele>764.0</ele><time>2026-04-07T09:28:24.971Z</time></trkpt><trkpt lat="45.7385533" lon="11.2018183"><ele>764.0</ele><time>2026-04-07T09:28:25.971Z</time></trkpt><trkpt lat="45.7386233" lon="11.20183"><ele>764.0</ele><time>2026-04-07T09:28:26.971Z</time></trkpt><trkpt lat="45.7387083" lon="11.2019133"><ele>764.0</ele><time>2026-04-07T09:28:28.972Z</time></trkpt><trkpt lat="45.7387433" lon="11.2020833"><ele>765.0</ele><time>2026-04-07T09:28:30.972Z</time></trkpt><trkpt lat="45.7387733" lon="11.2021917"><ele>766.0</ele><time>2026-04-07T09:28:31.971Z</time></trkpt><trkpt lat="45.73881" lon="11.20231"><ele>767.0</ele><time>2026-04-07T09:28:32.971Z</time></trkpt><trkpt lat="45.7388483" lon="11.2024317"><ele>768.0</ele><time>2026-04-07T09:28:33.972Z</time></trkpt><trkpt lat="45.7388867" lon="11.2025683"><ele>769.0</ele><time>2026-04-07T09:28:34.972Z</time></trkpt><trkpt lat="45.7389233" lon="11.2027383"><ele>766.6666666666666</ele><time>2026-04-07T09:28:35.971Z</time></trkpt><trkpt lat="45.7389667" lon="11.202895"><ele>764.3333333333333</ele><time>2026-04-07T09:28:36.972Z</time></trkpt><trkpt lat="45.7389967" lon="11.203035"><ele>762.0</ele><time>2026-04-07T09:28:37.972Z</time></trkpt><trkpt lat="45.73902" lon="11.2031333"><ele>759.6666666666666</ele><time>2026-04-07T09:28:38.971Z</time></trkpt><trkpt lat="45.7390583" lon="11.203215"><ele>757.3333333333333</ele><time>2026-04-07T09:28:39.972Z</time></trkpt><trkpt lat="45.7391133" lon="11.2032983"><ele>755.0</ele><time>2026-04-07T09:28:40.972Z</time></trkpt><trkpt lat="45.73919" lon="11.2033917"><ele>754.6</ele><time>2026-04-07T09:28:41.972Z</time></trkpt><trkpt lat="45.7392833" lon="11.2034717"><ele>754.2</ele><time>2026-04-07T09:28:42.972Z</time></trkpt><trkpt lat="45.73936" lon="11.2035517"><ele>753.8</ele><time>2026-04-07T09:28:43.972Z</time></trkpt><trkpt lat="45.7394283" lon="11.2036267"><ele>753.4</ele><time>2026-04-07T09:28:44.972Z</time></trkpt><trkpt lat="45.7394817" lon="11.203685"><ele>753.0</ele><time>2026-04-07T09:28:45.972Z</time></trkpt><trkpt lat="45.7395967" lon="11.20379"><ele>753.0</ele><time>2026-04-07T09:28:47.971Z</time></trkpt><trkpt lat="45.7396783" lon="11.20384"><ele>753.0</ele><time>2026-04-07T09:28:48.971Z</time></trkpt><trkpt lat="45.7397617" lon="11.2038983"><ele>753.0</ele><time>2026-04-07T09:28:49.972Z</time></trkpt><trkpt lat="45.7398433" lon="11.203955"><ele>753.0</ele><time>2026-04-07T09:28:50.972Z</time></trkpt><trkpt lat="45.7399217" lon="11.2040133"><ele>753.0</ele><time>2026-04-07T09:28:51.971Z</time></trkpt><trkpt lat="45.7400067" lon="11.2040567"><ele>750.8</ele><time>2026-04-07T09:28:52.971Z</time></trkpt><trkpt lat="45.7400983" lon="11.2041017"><ele>748.5999999999999</ele><time>2026-04-07T09:28:53.972Z</time></trkpt><trkpt lat="45.7401733" lon="11.2041617"><ele>746.4000000000001</ele><time>2026-04-07T09:28:54.972Z</time></trkpt><trkpt lat="45.740245" lon="11.2042217"><ele>744.2</ele><time>2026-04-07T09:28:55.972Z</time></trkpt><trkpt lat="45.7403033" lon="11.2042833"><ele>742.0</ele><time>2026-04-07T09:28:56.971Z</time></trkpt><trkpt lat="45.7403683" lon="11.204425"><ele>742.0</ele><time>2026-04-07T09:28:58.972Z</time></trkpt><trkpt lat="45.7404033" lon="11.204565"><ele>742.0</ele><time>2026-04-07T09:29:00.972Z</time></trkpt><trkpt lat="45.7404667" lon="11.2047133"><ele>742.0</ele><time>2026-04-07T09:29:02.972Z</time></trkpt><trkpt lat="45.7405217" lon="11.2047833"><ele>742.0</ele><time>2026-04-07T09:29:03.972Z</time></trkpt><trkpt lat="45.7405933" lon="11.2048183"><ele>742.0</ele><time>2026-04-07T09:29:04.971Z</time></trkpt><trkpt lat="45.740685" lon="11.2048117"><ele>742.0</ele><time>2026-04-07T09:29:05.972Z</time></trkpt><trkpt lat="45.7407833" lon="11.20481"><ele>742.0</ele><time>2026-04-07T09:29:06.972Z</time></trkpt><trkpt lat="45.740875" lon="11.2048117"><ele>742.0</ele><time>2026-04-07T09:29:07.972Z</time></trkpt><trkpt lat="45.7409617" lon="11.2047933"><ele>742.0</ele><time>2026-04-07T09:29:08.972Z</time></trkpt><trkpt lat="45.7410433" lon="11.2047683"><ele>742.0</ele><time>2026-04-07T09:29:09.972Z</time></trkpt><trkpt lat="45.7411133" lon="11.2047317"><ele>742.0</ele><time>2026-04-07T09:29:10.971Z</time></trkpt><trkpt lat="45.7411833" lon="11.2047033"><ele>736.8</ele><time>2026-04-07T09:29:11.971Z</time></trkpt><trkpt lat="45.7412917" lon="11.20476"><ele>731.6</ele><time>2026-04-07T09:29:13.971Z</time></trkpt><trkpt lat="45.7412833" lon="11.20492"><ele>726.4</ele><time>2026-04-07T09:29:15.972Z</time></trkpt><trkpt lat="45.7412233" lon="11.2050117"><ele>721.1999999999999</ele><time>2026-04-07T09:29:16.971Z</time></trkpt><trkpt lat="45.7411433" lon="11.2050983"><ele>716.0</ele><time>2026-04-07T09:29:17.972Z</time></trkpt><trkpt lat="45.7410567" lon="11.2051967"><ele>719.25</ele><time>2026-04-07T09:29:18.972Z</time></trkpt><trkpt lat="45.7409617" lon="11.205335"><ele>722.5</ele><time>2026-04-07T09:29:19.972Z</time></trkpt><trkpt lat="45.7408633" lon="11.2054667"><ele>725.75</ele><time>2026-04-07T09:29:20.971Z</time></trkpt><trkpt lat="45.74077" lon="11.2055767"><ele>729.0</ele><time>2026-04-07T09:29:21.971Z</time></trkpt><trkpt lat="45.7406817" lon="11.205645"><ele>727.0</ele><time>2026-04-07T09:29:22.971Z</time></trkpt><trkpt lat="45.74062" lon="11.2057067"><ele>725.0</ele><time>2026-04-07T09:29:23.972Z</time></trkpt><trkpt lat="45.740575" lon="11.205845"><ele>723.0</ele><time>2026-04-07T09:29:25.972Z</time></trkpt><trkpt lat="45.74068" lon="11.2059567"><ele>721.0</ele><time>2026-04-07T09:29:27.972Z</time></trkpt><trkpt lat="45.740795" lon="11.20595"><ele>719.0</ele><time>2026-04-07T09:29:28.972Z</time></trkpt><trkpt lat="45.7409217" lon="11.2059333"><ele>715.75</ele><time>2026-04-07T09:29:29.972Z</time></trkpt><trkpt lat="45.7410517" lon="11.2059483"><ele>712.5</ele><time>2026-04-07T09:29:30.972Z</time></trkpt><trkpt lat="45.741165" lon="11.20599"><ele>709.25</ele><time>2026-04-07T09:29:31.972Z</time></trkpt><trkpt lat="45.7412717" lon="11.2060217"><ele>706.0</ele><time>2026-04-07T09:29:32.972Z</time></trkpt><trkpt lat="45.7413733" lon="11.2060083"><ele>706.0</ele><time>2026-04-07T09:29:33.972Z</time></trkpt><trkpt lat="45.74146" lon="11.2059783"><ele>706.0</ele><time>2026-04-07T09:29:34.972Z</time></trkpt><trkpt lat="45.7415467" lon="11.20595"><ele>706.0</ele><time>2026-04-07T09:29:35.971Z</time></trkpt><trkpt lat="45.741625" lon="11.2059733"><ele>706.0</ele><time>2026-04-07T09:29:36.972Z</time></trkpt><trkpt lat="45.7417033" lon="11.2060317"><ele>706.0</ele><time>2026-04-07T09:29:37.972Z</time></trkpt><trkpt lat="45.741785" lon="11.20614"><ele>706.0</ele><time>2026-04-07T09:29:38.971Z</time></trkpt><trkpt lat="45.741855" lon="11.2062667"><ele>706.0</ele><time>2026-04-07T09:29:39.972Z</time></trkpt><trkpt lat="45.7418917" lon="11.2063833"><ele>706.0</ele><time>2026-04-07T09:29:40.971Z</time></trkpt><trkpt lat="45.7418983" lon="11.206485"><ele>706.0</ele><time>2026-04-07T09:29:41.972Z</time></trkpt><trkpt lat="45.7418733" lon="11.2065783"><ele>706.0</ele><time>2026-04-07T09:29:42.972Z</time></trkpt><trkpt lat="45.7418067" lon="11.2066717"><ele>706.0</ele><time>2026-04-07T09:29:43.971Z</time></trkpt><trkpt lat="45.7417083" lon="11.2067733"><ele>705.0</ele><time>2026-04-07T09:29:44.972Z</time></trkpt><trkpt lat="45.741615" lon="11.2069033"><ele>704.0</ele><time>2026-04-07T09:29:45.972Z</time></trkpt><trkpt lat="45.7415317" lon="11.2070217"><ele>703.0</ele><time>2026-04-07T09:29:46.972Z</time></trkpt><trkpt lat="45.7414483" lon="11.2071333"><ele>702.0</ele><time>2026-04-07T09:29:47.971Z</time></trkpt><trkpt lat="45.7413783" lon="11.2072333"><ele>702.0</ele><time>2026-04-07T09:29:48.97Z</time></trkpt><trkpt lat="45.741305" lon="11.2073233"><ele>702.0</ele><time>2026-04-07T09:29:49.971Z</time></trkpt><trkpt lat="45.7412367" lon="11.2074183"><ele>702.0</ele><time>2026-04-07T09:29:50.971Z</time></trkpt><trkpt lat="45.7412033" lon="11.2075067"><ele>702.0</ele><time>2026-04-07T09:29:51.971Z</time></trkpt><trkpt lat="45.7411967" lon="11.2076183"><ele>702.0</ele><time>2026-04-07T09:29:52.971Z</time></trkpt><trkpt lat="45.7412167" lon="11.207725"><ele>702.0</ele><time>2026-04-07T09:29:53.97Z</time></trkpt><trkpt lat="45.741275" lon="11.2078017"><ele>699.5</ele><time>2026-04-07T09:29:54.97Z</time></trkpt><trkpt lat="45.7413733" lon="11.2078483"><ele>697.0</ele><time>2026-04-07T09:29:55.971Z</time></trkpt><trkpt lat="45.741505" lon="11.2078667"><ele>694.5</ele><time>2026-04-07T09:29:56.971Z</time></trkpt><trkpt lat="45.7416467" lon="11.207885"><ele>692.0</ele><time>2026-04-07T09:29:57.971Z</time></trkpt><trkpt lat="45.7417833" lon="11.207895"><ele>690.4000000000001</ele><time>2026-04-07T09:29:58.97Z</time></trkpt><trkpt lat="45.7419067" lon="11.2079083"><ele>688.8000000000001</ele><time>2026-04-07T09:29:59.971Z</time></trkpt><trkpt lat="45.7420117" lon="11.2079167"><ele>687.2</ele><time>2026-04-07T09:30:00.971Z</time></trkpt><trkpt lat="45.7421133" lon="11.2079133"><ele>685.6</ele><time>2026-04-07T09:30:01.971Z</time></trkpt><trkpt lat="45.7422033" lon="11.20789"><ele>684.0</ele><time>2026-04-07T09:30:02.971Z</time></trkpt><trkpt lat="45.74228" lon="11.2078583"><ele>684.0</ele><time>2026-04-07T09:30:03.971Z</time></trkpt><trkpt lat="45.7423467" lon="11.2078367"><ele>684.0</ele><time>2026-04-07T09:30:04.97Z</time></trkpt><trkpt lat="45.7424633" lon="11.20784"><ele>684.0</ele><time>2026-04-07T09:30:06.971Z</time></trkpt><trkpt lat="45.7425133" lon="11.2079583"><ele>684.0</ele><time>2026-04-07T09:30:08.971Z</time></trkpt><trkpt lat="45.74247" lon="11.2081117"><ele>684.0</ele><time>2026-04-07T09:30:10.97Z</time></trkpt><trkpt lat="45.7424217" lon="11.2081917"><ele>683.6</ele><time>2026-04-07T09:30:11.971Z</time></trkpt><trkpt lat="45.742365" lon="11.2082717"><ele>683.2</ele><time>2026-04-07T09:30:12.971Z</time></trkpt><trkpt lat="45.74231" lon="11.20842"><ele>682.8000000000001</ele><time>2026-04-07T09:30:14.97Z</time></trkpt><trkpt lat="45.742285" lon="11.20857"><ele>682.4000000000001</ele><time>2026-04-07T09:30:16.97Z</time></trkpt><trkpt lat="45.7422667" lon="11.208745"><ele>682.0</ele><time>2026-04-07T09:30:18.971Z</time></trkpt><trkpt lat="45.7422617" lon="11.2088433"><ele>682.0</ele><time>2026-04-07T09:30:19.971Z</time></trkpt><trkpt lat="45.7422583" lon="11.20895"><ele>682.0</ele><time>2026-04-07T09:30:20.97Z</time></trkpt><trkpt lat="45.742255" lon="11.2090517"><ele>682.0</ele><time>2026-04-07T09:30:21.97Z</time></trkpt><trkpt lat="45.7422567" lon="11.20917"><ele>682.0</ele><time>2026-04-07T09:30:22.97Z</time></trkpt><trkpt lat="45.7422533" lon="11.209285"><ele>682.0</ele><time>2026-04-07T09:30:23.97Z</time></trkpt><trkpt lat="45.74225" lon="11.2093983"><ele>682.0</ele><time>2026-04-07T09:30:24.971Z</time></trkpt><trkpt lat="45.74224" lon="11.2094917"><ele>679.6666666666667</ele><time>2026-04-07T09:30:25.97Z</time></trkpt><trkpt lat="45.74222" lon="11.2095783"><ele>677.3333333333334</ele><time>2026-04-07T09:30:26.97Z</time></trkpt><trkpt lat="45.7421817" lon="11.2096583"><ele>675.0</ele><time>2026-04-07T09:30:27.971Z</time></trkpt><trkpt lat="45.74213" lon="11.209715"><ele>672.6666666666666</ele><time>2026-04-07T09:30:28.971Z</time></trkpt><trkpt lat="45.7420567" lon="11.2097683"><ele>670.3333333333333</ele><time>2026-04-07T09:30:29.971Z</time></trkpt><trkpt lat="45.7419633" lon="11.20981"><ele>668.0</ele><time>2026-04-07T09:30:30.971Z</time></trkpt><trkpt lat="45.74185" lon="11.2098517"><ele>666.2</ele><time>2026-04-07T09:30:31.971Z</time></trkpt><trkpt lat="45.7417217" lon="11.2098767"><ele>664.4</ele><time>2026-04-07T09:30:32.97Z</time></trkpt><trkpt lat="45.74161" lon="11.209895"><ele>662.6</ele><time>2026-04-07T09:30:33.971Z</time></trkpt><trkpt lat="45.741515" lon="11.209925"><ele>660.8000000000001</ele><time>2026-04-07T09:30:34.971Z</time></trkpt><trkpt lat="45.7414317" lon="11.2099717"><ele>659.0</ele><time>2026-04-07T09:30:35.971Z</time></trkpt><trkpt lat="45.7413683" lon="11.2100433"><ele>659.0</ele><time>2026-04-07T09:30:36.97Z</time></trkpt><trkpt lat="45.741325" lon="11.2101567"><ele>659.0</ele><time>2026-04-07T09:30:37.971Z</time></trkpt><trkpt lat="45.7412933" lon="11.2103283"><ele>659.0</ele><time>2026-04-07T09:30:38.97Z</time></trkpt><trkpt lat="45.7412733" lon="11.2104867"><ele>659.0</ele><time>2026-04-07T09:30:39.971Z</time></trkpt><trkpt lat="45.7412583" lon="11.21061"><ele>659.0</ele><time>2026-04-07T09:30:40.971Z</time></trkpt><trkpt lat="45.7412583" lon="11.2107033"><ele>657.6</ele><time>2026-04-07T09:30:41.971Z</time></trkpt><trkpt lat="45.74133" lon="11.2108083"><ele>656.2</ele><time>2026-04-07T09:30:43.971Z</time></trkpt><trkpt lat="45.7414017" lon="11.210805"><ele>654.8000000000001</ele><time>2026-04-07T09:30:44.971Z</time></trkpt><trkpt lat="45.7415033" lon="11.2107633"><ele>653.4000000000001</ele><time>2026-04-07T09:30:45.971Z</time></trkpt><trkpt lat="45.7416067" lon="11.2107083"><ele>652.0</ele><time>2026-04-07T09:30:46.97Z</time></trkpt><trkpt lat="45.741695" lon="11.210665"><ele>652.0</ele><time>2026-04-07T09:30:47.971Z</time></trkpt><trkpt lat="45.7417767" lon="11.2106783"><ele>652.0</ele><time>2026-04-07T09:30:48.971Z</time></trkpt><trkpt lat="45.7418583" lon="11.2107217"><ele>652.0</ele><time>2026-04-07T09:30:49.971Z</time></trkpt><trkpt lat="45.7419067" lon="11.210805"><ele>652.0</ele><time>2026-04-07T09:30:50.971Z</time></trkpt><trkpt lat="45.74195" lon="11.21094"><ele>652.0</ele><time>2026-04-07T09:30:51.971Z</time></trkpt><trkpt lat="45.742015" lon="11.211075"><ele>652.0</ele><time>2026-04-07T09:30:52.971Z</time></trkpt><trkpt lat="45.742105" lon="11.2111967"><ele>652.0</ele><time>2026-04-07T09:30:53.971Z</time></trkpt><trkpt lat="45.7422233" lon="11.2112667"><ele>652.0</ele><time>2026-04-07T09:30:54.971Z</time></trkpt><trkpt lat="45.74234" lon="11.2113233"><ele>652.0</ele><time>2026-04-07T09:30:55.971Z</time></trkpt><trkpt lat="45.74244" lon="11.21137"><ele>652.0</ele><time>2026-04-07T09:30:56.971Z</time></trkpt><trkpt lat="45.742535" lon="11.2114067"><ele>652.0</ele><time>2026-04-07T09:30:57.971Z</time></trkpt><trkpt lat="45.7426217" lon="11.2114333"><ele>652.0</ele><time>2026-04-07T09:30:58.971Z</time></trkpt><trkpt lat="45.7426967" lon="11.2114883"><ele>652.0</ele><time>2026-04-07T09:30:59.971Z</time></trkpt><trkpt lat="45.7427583" lon="11.2115517"><ele>652.0</ele><time>2026-04-07T09:31:00.971Z</time></trkpt><trkpt lat="45.742795" lon="11.2116267"><ele>652.0</ele><time>2026-04-07T09:31:01.971Z</time></trkpt><trkpt lat="45.742825" lon="11.2117783"><ele>645.6666666666667</ele><time>2026-04-07T09:31:03.971Z</time></trkpt><trkpt lat="45.7428" lon="11.211905"><ele>639.3333333333334</ele><time>2026-04-07T09:31:05.971Z</time></trkpt><trkpt lat="45.742805" lon="11.2119983"><ele>633.0</ele><time>2026-04-07T09:31:07.97Z</time></trkpt><trkpt lat="45.7428683" lon="11.211955"><ele>626.6666666666666</ele><time>2026-04-07T09:31:10.971Z</time></trkpt><trkpt lat="45.7428683" lon="11.21182"><ele>620.3333333333333</ele><time>2026-04-07T09:31:12.971Z</time></trkpt><trkpt lat="45.7428367" lon="11.2116733"><ele>614.0</ele><time>2026-04-07T09:31:14.971Z</time></trkpt><trkpt lat="45.742785" lon="11.2115467"><ele>614.1666666666666</ele><time>2026-04-07T09:31:16.971Z</time></trkpt><trkpt lat="45.7427667" lon="11.2114517"><ele>614.3333333333333</ele><time>2026-04-07T09:31:18.971Z</time></trkpt><trkpt lat="45.7427983" lon="11.21137"><ele>614.5</ele><time>2026-04-07T09:31:21.971Z</time></trkpt><trkpt lat="45.7428283" lon="11.2112883"><ele>614.6666666666666</ele><time>2026-04-07T09:31:23.971Z</time></trkpt><trkpt lat="45.7428067" lon="11.211175"><ele>614.8333333333334</ele><time>2026-04-07T09:31:25.971Z</time></trkpt><trkpt lat="45.742795" lon="11.211055"><ele>615.0</ele><time>2026-04-07T09:31:27.971Z</time></trkpt><trkpt lat="45.7427783" lon="11.2109083"><ele>615.0</ele><time>2026-04-07T09:31:29.971Z</time></trkpt><trkpt lat="45.74278" lon="11.2107417"><ele>615.0</ele><time>2026-04-07T09:31:31.97Z</time></trkpt><trkpt lat="45.74278" lon="11.2106367"><ele>615.0</ele><time>2026-04-07T09:31:32.971Z</time></trkpt><trkpt lat="45.7427783" lon="11.2105383"><ele>615.0</ele><time>2026-04-07T09:31:33.971Z</time></trkpt><trkpt lat="45.7427833" lon="11.210445"><ele>615.0</ele><time>2026-04-07T09:31:34.971Z</time></trkpt><trkpt lat="45.7428183" lon="11.2102783"><ele>615.0</ele><time>2026-04-07T09:31:36.971Z</time></trkpt><trkpt lat="45.74283" lon="11.2101783"><ele>616.0</ele><time>2026-04-07T09:31:37.971Z</time></trkpt><trkpt lat="45.7428417" lon="11.210055"><ele>617.0</ele><time>2026-04-07T09:31:38.97Z</time></trkpt><trkpt lat="45.7428567" lon="11.2099267"><ele>618.0</ele><time>2026-04-07T09:31:39.97Z</time></trkpt><trkpt lat="45.7428767" lon="11.2097967"><ele>619.0</ele><time>2026-04-07T09:31:40.971Z</time></trkpt><trkpt lat="45.742905" lon="11.2096767"><ele>620.0</ele><time>2026-04-07T09:31:41.971Z</time></trkpt><trkpt lat="45.74294" lon="11.2095867"><ele>621.0</ele><time>2026-04-07T09:31:42.971Z</time></trkpt><trkpt lat="45.743015" lon="11.209455"><ele>623.0</ele><time>2026-04-07T09:31:44.971Z</time></trkpt><trkpt lat="45.743045" lon="11.209375"><ele>625.0</ele><time>2026-04-07T09:31:45.971Z</time></trkpt><trkpt lat="45.7430683" lon="11.209285"><ele>627.0</ele><time>2026-04-07T09:31:46.971Z</time></trkpt><trkpt lat="45.7431083" lon="11.2091467"><ele>629.0</ele><time>2026-04-07T09:31:48.971Z</time></trkpt><trkpt lat="45.7432067" lon="11.2090567"><ele>631.0</ele><time>2026-04-07T09:31:50.97Z</time></trkpt><trkpt lat="45.7432567" lon="11.2090017"><ele>633.0</ele><time>2026-04-07T09:31:51.97Z</time></trkpt><trkpt lat="45.74331" lon="11.20893"><ele>635.0</ele><time>2026-04-07T09:31:52.971Z</time></trkpt><trkpt lat="45.7433417" lon="11.208765"><ele>637.0</ele><time>2026-04-07T09:31:54.971Z</time></trkpt><trkpt lat="45.7433667" lon="11.2086267"><ele>639.0</ele><time>2026-04-07T09:31:56.97Z</time></trkpt><trkpt lat="45.7434067" lon="11.208495"><ele>641.0</ele><time>2026-04-07T09:31:58.97Z</time></trkpt><trkpt lat="45.7434467" lon="11.20837"><ele>643.0</ele><time>2026-04-07T09:32:00.971Z</time></trkpt><trkpt lat="45.743465" lon="11.2082183"><ele>643.0</ele><time>2026-04-07T09:32:02.97Z</time></trkpt><trkpt lat="45.7434783" lon="11.208065"><ele>643.0</ele><time>2026-04-07T09:32:04.97Z</time></trkpt><trkpt lat="45.7434917" lon="11.207965"><ele>643.0</ele><time>2026-04-07T09:32:06.971Z</time></trkpt><trkpt lat="45.743485" lon="11.207865"><ele>643.0</ele><time>2026-04-07T09:32:08.97Z</time></trkpt><trkpt lat="45.7434733" lon="11.2077333"><ele>643.0</ele><time>2026-04-07T09:32:10.971Z</time></trkpt><trkpt lat="45.74344" lon="11.2075733"><ele>643.0</ele><time>2026-04-07T09:32:12.97Z</time></trkpt><trkpt lat="45.7433867" lon="11.207435"><ele>643.0</ele><time>2026-04-07T09:32:14.97Z</time></trkpt><trkpt lat="45.7433533" lon="11.2073367"><ele>643.0</ele><time>2026-04-07T09:32:15.971Z</time></trkpt><trkpt lat="45.7433217" lon="11.2072267"><ele>643.0</ele><time>2026-04-07T09:32:16.971Z</time></trkpt><trkpt lat="45.743305" lon="11.2071217"><ele>643.0</ele><time>2026-04-07T09:32:17.971Z</time></trkpt><trkpt lat="45.7432933" lon="11.2070183"><ele>643.0</ele><time>2026-04-07T09:32:18.971Z</time></trkpt><trkpt lat="45.7432867" lon="11.2069217"><ele>643.0</ele><time>2026-04-07T09:32:19.971Z</time></trkpt><trkpt lat="45.743275" lon="11.2067483"><ele>643.0</ele><time>2026-04-07T09:32:21.969Z</time></trkpt><trkpt lat="45.7432833" lon="11.20664"><ele>643.0</ele><time>2026-04-07T09:32:23.97Z</time></trkpt><trkpt lat="45.743355" lon="11.206545"><ele>643.0</ele><time>2026-04-07T09:32:25.97Z</time></trkpt><trkpt lat="45.743405" lon="11.2064783"><ele>643.0</ele><time>2026-04-07T09:32:27.97Z</time></trkpt><trkpt lat="45.74346" lon="11.206395"><ele>643.0</ele><time>2026-04-07T09:32:29.97Z</time></trkpt><trkpt lat="45.7435367" lon="11.2062817"><ele>645.8</ele><time>2026-04-07T09:32:31.97Z</time></trkpt><trkpt lat="45.7436133" lon="11.2061883"><ele>648.5999999999999</ele><time>2026-04-07T09:32:33.969Z</time></trkpt><trkpt lat="45.7436817" lon="11.20605"><ele>651.4000000000001</ele><time>2026-04-07T09:32:35.969Z</time></trkpt><trkpt lat="45.743755" lon="11.2059567"><ele>654.2</ele><time>2026-04-07T09:32:37.969Z</time></trkpt><trkpt lat="45.7438367" lon="11.2058733"><ele>657.0</ele><time>2026-04-07T09:32:39.97Z</time></trkpt><trkpt lat="45.7438933" lon="11.2058033"><ele>657.0</ele><time>2026-04-07T09:32:41.97Z</time></trkpt><trkpt lat="45.74398" lon="11.2057967"><ele>657.0</ele><time>2026-04-07T09:32:44.97Z</time></trkpt><trkpt lat="45.7440583" lon="11.2058683"><ele>657.0</ele><time>2026-04-07T09:32:47.969Z</time></trkpt><trkpt lat="45.74411" lon="11.205955"><ele>657.0</ele><time>2026-04-07T09:32:49.969Z</time></trkpt><trkpt lat="45.74415" lon="11.206075"><ele>657.0</ele><time>2026-04-07T09:32:51.969Z</time></trkpt><trkpt lat="45.7442033" lon="11.2061817"><ele>657.0</ele><time>2026-04-07T09:32:53.97Z</time></trkpt><trkpt lat="45.7442817" lon="11.2062933"><ele>657.0</ele><time>2026-04-07T09:32:55.969Z</time></trkpt><trkpt lat="45.7443667" lon="11.2063817"><ele>657.0</ele><time>2026-04-07T09:32:57.969Z</time></trkpt><trkpt lat="45.7444417" lon="11.206485"><ele>657.0</ele><time>2026-04-07T09:32:59.97Z</time></trkpt><trkpt lat="45.7445183" lon="11.2066017"><ele>657.0</ele><time>2026-04-07T09:33:01.969Z</time></trkpt><trkpt lat="45.7445783" lon="11.2066383"><ele>657.0</ele><time>2026-04-07T09:33:02.969Z</time></trkpt><trkpt lat="45.74464" lon="11.2066733"><ele>664.25</ele><time>2026-04-07T09:33:03.969Z</time></trkpt><trkpt lat="45.7447433" lon="11.2067367"><ele>671.5</ele><time>2026-04-07T09:33:05.97Z</time></trkpt><trkpt lat="45.7448217" lon="11.2068367"><ele>678.75</ele><time>2026-04-07T09:33:07.969Z</time></trkpt><trkpt lat="45.7449117" lon="11.2069633"><ele>686.0</ele><time>2026-04-07T09:33:09.97Z</time></trkpt><trkpt lat="45.7450133" lon="11.2070683"><ele>686.0</ele><time>2026-04-07T09:33:11.97Z</time></trkpt><trkpt lat="45.7451083" lon="11.207145"><ele>686.0</ele><time>2026-04-07T09:33:13.97Z</time></trkpt><trkpt lat="45.7451967" lon="11.2072367"><ele>686.0</ele><time>2026-04-07T09:33:15.97Z</time></trkpt><trkpt lat="45.7452117" lon="11.207325"><ele>686.0</ele><time>2026-04-07T09:33:16.97Z</time></trkpt><trkpt lat="45.7452267" lon="11.20742"><ele>686.0</ele><time>2026-04-07T09:33:17.97Z</time></trkpt><trkpt lat="45.745245" lon="11.2075183"><ele>686.0</ele><time>2026-04-07T09:33:18.97Z</time></trkpt><trkpt lat="45.745275" lon="11.207615"><ele>686.8571428571429</ele><time>2026-04-07T09:33:19.97Z</time></trkpt><trkpt lat="45.7453183" lon="11.2076883"><ele>687.7142857142858</ele><time>2026-04-07T09:33:20.97Z</time></trkpt><trkpt lat="45.74536" lon="11.2077617"><ele>688.5714285714286</ele><time>2026-04-07T09:33:21.97Z</time></trkpt><trkpt lat="45.7454333" lon="11.2078283"><ele>689.4285714285714</ele><time>2026-04-07T09:33:23.97Z</time></trkpt><trkpt lat="45.7455083" lon="11.2078067"><ele>690.2857142857143</ele><time>2026-04-07T09:33:25.97Z</time></trkpt><trkpt lat="45.7455683" lon="11.2077767"><ele>691.1428571428571</ele><time>2026-04-07T09:33:26.969Z</time></trkpt><trkpt lat="45.7456417" lon="11.20776"><ele>692.0</ele><time>2026-04-07T09:33:27.969Z</time></trkpt><trkpt lat="45.7457283" lon="11.207755"><ele>692.0</ele><time>2026-04-07T09:33:28.97Z</time></trkpt><trkpt lat="45.7458067" lon="11.207775"><ele>692.0</ele><time>2026-04-07T09:33:29.97Z</time></trkpt><trkpt lat="45.7459217" lon="11.20775"><ele>692.0</ele><time>2026-04-07T09:33:31.97Z</time></trkpt><trkpt lat="45.74598" lon="11.207685"><ele>692.0</ele><time>2026-04-07T09:33:32.97Z</time></trkpt><trkpt lat="45.7460517" lon="11.2076083"><ele>692.0</ele><time>2026-04-07T09:33:33.97Z</time></trkpt><trkpt lat="45.74613" lon="11.2075267"><ele>691.0</ele><time>2026-04-07T09:33:34.969Z</time></trkpt><trkpt lat="45.7462183" lon="11.20745"><ele>690.0</ele><time>2026-04-07T09:33:35.969Z</time></trkpt><trkpt lat="45.74629" lon="11.20738"><ele>689.0</ele><time>2026-04-07T09:33:36.97Z</time></trkpt><trkpt lat="45.7463467" lon="11.2073117"><ele>688.0</ele><time>2026-04-07T09:33:37.97Z</time></trkpt><trkpt lat="45.7463883" lon="11.207235"><ele>687.0</ele><time>2026-04-07T09:33:38.969Z</time></trkpt><trkpt lat="45.7464217" lon="11.2071433"><ele>686.0</ele><time>2026-04-07T09:33:39.969Z</time></trkpt><trkpt lat="45.7464567" lon="11.2070433"><ele>691.8333333333333</ele><time>2026-04-07T09:33:40.969Z</time></trkpt><trkpt lat="45.7464983" lon="11.2069433"><ele>697.6666666666666</ele><time>2026-04-07T09:33:41.97Z</time></trkpt><trkpt lat="45.7465433" lon="11.2068383"><ele>703.5</ele><time>2026-04-07T09:33:42.969Z</time></trkpt><trkpt lat="45.74659" lon="11.2067467"><ele>709.3333333333334</ele><time>2026-04-07T09:33:43.969Z</time></trkpt><trkpt lat="45.7466433" lon="11.2066667"><ele>715.1666666666667</ele><time>2026-04-07T09:33:44.97Z</time></trkpt><trkpt lat="45.7467067" lon="11.2065867"><ele>721.0</ele><time>2026-04-07T09:33:45.969Z</time></trkpt><trkpt lat="45.7467617" lon="11.2065083"><ele>720.1666666666667</ele><time>2026-04-07T09:33:46.97Z</time></trkpt><trkpt lat="45.7468067" lon="11.206415"><ele>719.3333333333334</ele><time>2026-04-07T09:33:47.97Z</time></trkpt><trkpt lat="45.7468633" lon="11.2063133"><ele>718.5</ele><time>2026-04-07T09:33:48.97Z</time></trkpt><trkpt lat="45.7469167" lon="11.20621"><ele>717.6666666666666</ele><time>2026-04-07T09:33:49.969Z</time></trkpt><trkpt lat="45.7469633" lon="11.2061183"><ele>716.8333333333333</ele><time>2026-04-07T09:33:50.97Z</time></trkpt><trkpt lat="45.74703" lon="11.206035"><ele>716.0</ele><time>2026-04-07T09:33:51.969Z</time></trkpt><trkpt lat="45.7471017" lon="11.2059633"><ele>716.0</ele><time>2026-04-07T09:33:52.97Z</time></trkpt><trkpt lat="45.747165" lon="11.205895"><ele>716.0</ele><time>2026-04-07T09:33:53.969Z</time></trkpt><trkpt lat="45.747225" lon="11.2058117"><ele>716.0</ele><time>2026-04-07T09:33:54.97Z</time></trkpt><trkpt lat="45.7472867" lon="11.2057317"><ele>716.0</ele><time>2026-04-07T09:33:55.969Z</time></trkpt><trkpt lat="45.7473433" lon="11.205665"><ele>716.0</ele><time>2026-04-07T09:33:56.969Z</time></trkpt><trkpt lat="45.74741" lon="11.2056"><ele>716.0</ele><time>2026-04-07T09:33:57.969Z</time></trkpt><trkpt lat="45.7474733" lon="11.20552"><ele>720.4</ele><time>2026-04-07T09:33:58.97Z</time></trkpt><trkpt lat="45.7475417" lon="11.2054333"><ele>724.8</ele><time>2026-04-07T09:33:59.97Z</time></trkpt><trkpt lat="45.7476167" lon="11.2053517"><ele>729.1999999999999</ele><time>2026-04-07T09:34:00.97Z</time></trkpt><trkpt lat="45.7476867" lon="11.20528"><ele>733.5999999999999</ele><time>2026-04-07T09:34:01.97Z</time></trkpt><trkpt lat="45.747805" lon="11.205225"><ele>738.0</ele><time>2026-04-07T09:34:03.97Z</time></trkpt><trkpt lat="45.747905" lon="11.20523"><ele>738.0</ele><time>2026-04-07T09:34:04.97Z</time></trkpt><trkpt lat="45.7480233" lon="11.20528"><ele>738.0</ele><time>2026-04-07T09:34:05.97Z</time></trkpt><trkpt lat="45.7481317" lon="11.2053367"><ele>738.0</ele><time>2026-04-07T09:34:06.97Z</time></trkpt><trkpt lat="45.7482133" lon="11.2053967"><ele>738.0</ele><time>2026-04-07T09:34:07.97Z</time></trkpt><trkpt lat="45.74828" lon="11.2054783"><ele>738.0</ele><time>2026-04-07T09:34:08.97Z</time></trkpt><trkpt lat="45.748325" lon="11.2055683"><ele>739.1666666666666</ele><time>2026-04-07T09:34:09.97Z</time></trkpt><trkpt lat="45.7483667" lon="11.2056683"><ele>740.3333333333334</ele><time>2026-04-07T09:34:10.97Z</time></trkpt><trkpt lat="45.748415" lon="11.2057667"><ele>741.5</ele><time>2026-04-07T09:34:11.969Z</time></trkpt><trkpt lat="45.7484667" lon="11.20586"><ele>742.6666666666667</ele><time>2026-04-07T09:34:12.97Z</time></trkpt><trkpt lat="45.7485317" lon="11.2059283"><ele>743.8333333333334</ele><time>2026-04-07T09:34:13.97Z</time></trkpt><trkpt lat="45.7485883" lon="11.20599"><ele>745.0</ele><time>2026-04-07T09:34:14.97Z</time></trkpt><trkpt lat="45.7486633" lon="11.206105"><ele>745.0</ele><time>2026-04-07T09:34:16.969Z</time></trkpt><trkpt lat="45.7486767" lon="11.20623"><ele>745.0</ele><time>2026-04-07T09:34:18.97Z</time></trkpt><trkpt lat="45.7486367" lon="11.20638"><ele>745.0</ele><time>2026-04-07T09:34:20.969Z</time></trkpt><trkpt lat="45.7486167" lon="11.2065283"><ele>745.0</ele><time>2026-04-07T09:34:22.97Z</time></trkpt><trkpt lat="45.748615" lon="11.2066617"><ele>745.0</ele><time>2026-04-07T09:34:24.97Z</time></trkpt><trkpt lat="45.7486417" lon="11.2067817"><ele>743.5</ele><time>2026-04-07T09:34:26.97Z</time></trkpt><trkpt lat="45.7486667" lon="11.2068917"><ele>742.0</ele><time>2026-04-07T09:34:28.97Z</time></trkpt><trkpt lat="45.7486417" lon="11.207015"><ele>740.5</ele><time>2026-04-07T09:34:30.969Z</time></trkpt><trkpt lat="45.7486533" lon="11.2071667"><ele>739.0</ele><time>2026-04-07T09:34:32.97Z</time></trkpt><trkpt lat="45.7486667" lon="11.207255"><ele>737.5</ele><time>2026-04-07T09:34:33.969Z</time></trkpt><trkpt lat="45.7486617" lon="11.2073783"><ele>736.0</ele><time>2026-04-07T09:34:34.97Z</time></trkpt><trkpt lat="45.748665" lon="11.20753"><ele>735.6666666666667</ele><time>2026-04-07T09:34:35.969Z</time></trkpt><trkpt lat="45.7486733" lon="11.20767"><ele>735.3333333333334</ele><time>2026-04-07T09:34:36.97Z</time></trkpt><trkpt lat="45.74869" lon="11.20777"><ele>735.0</ele><time>2026-04-07T09:34:37.97Z</time></trkpt><trkpt lat="45.748725" lon="11.20787"><ele>734.6666666666666</ele><time>2026-04-07T09:34:39.97Z</time></trkpt><trkpt lat="45.74879" lon="11.2078483"><ele>734.3333333333333</ele><time>2026-04-07T09:34:41.969Z</time></trkpt><trkpt lat="45.74888" lon="11.2077067"><ele>734.0</ele><time>2026-04-07T09:34:43.97Z</time></trkpt><trkpt lat="45.7489433" lon="11.2075917"><ele>734.0</ele><time>2026-04-07T09:34:44.97Z</time></trkpt><trkpt lat="45.74902" lon="11.2074617"><ele>734.0</ele><time>2026-04-07T09:34:45.97Z</time></trkpt><trkpt lat="45.7491" lon="11.207325"><ele>734.0</ele><time>2026-04-07T09:34:46.969Z</time></trkpt><trkpt lat="45.7491783" lon="11.20719"><ele>734.0</ele><time>2026-04-07T09:34:47.97Z</time></trkpt><trkpt lat="45.74924" lon="11.2070417"><ele>734.5</ele><time>2026-04-07T09:34:48.97Z</time></trkpt><trkpt lat="45.7492833" lon="11.2068567"><ele>735.0</ele><time>2026-04-07T09:34:49.969Z</time></trkpt><trkpt lat="45.7493117" lon="11.206645"><ele>735.5</ele><time>2026-04-07T09:34:50.97Z</time></trkpt><trkpt lat="45.7493367" lon="11.2064267"><ele>736.0</ele><time>2026-04-07T09:34:51.97Z</time></trkpt><trkpt lat="45.7493583" lon="11.20622"><ele>737.8</ele><time>2026-04-07T09:34:52.969Z</time></trkpt><trkpt lat="45.7493667" lon="11.2060533"><ele>739.5999999999999</ele><time>2026-04-07T09:34:53.97Z</time></trkpt><trkpt lat="45.7493817" lon="11.205915"><ele>741.4</ele><time>2026-04-07T09:34:54.969Z</time></trkpt><trkpt lat="45.7494033" lon="11.205795"><ele>743.2</ele><time>2026-04-07T09:34:55.97Z</time></trkpt><trkpt lat="45.7494317" lon="11.2057133"><ele>745.0</ele><time>2026-04-07T09:34:56.97Z</time></trkpt><trkpt lat="45.7495233" lon="11.2056567"><ele>751.2</ele><time>2026-04-07T09:34:58.969Z</time></trkpt><trkpt lat="45.7495933" lon="11.205685"><ele>757.4</ele><time>2026-04-07T09:34:59.97Z</time></trkpt><trkpt lat="45.7496717" lon="11.20576"><ele>763.5999999999999</ele><time>2026-04-07T09:35:00.969Z</time></trkpt><trkpt lat="45.749765" lon="11.2058767"><ele>769.8</ele><time>2026-04-07T09:35:01.968Z</time></trkpt><trkpt lat="45.749855" lon="11.2060083"><ele>776.0</ele><time>2026-04-07T09:35:02.969Z</time></trkpt><trkpt lat="45.749945" lon="11.2061333"><ele>776.0</ele><time>2026-04-07T09:35:03.969Z</time></trkpt><trkpt lat="45.7500133" lon="11.2062567"><ele>776.0</ele><time>2026-04-07T09:35:04.969Z</time></trkpt><trkpt lat="45.7500683" lon="11.2063583"><ele>776.0</ele><time>2026-04-07T09:35:05.968Z</time></trkpt><trkpt lat="45.75013" lon="11.2064167"><ele>776.0</ele><time>2026-04-07T09:35:06.969Z</time></trkpt><trkpt lat="45.7501983" lon="11.206435"><ele>776.0</ele><time>2026-04-07T09:35:07.969Z</time></trkpt><trkpt lat="45.7503233" lon="11.2063867"><ele>782.3333333333334</ele><time>2026-04-07T09:35:09.969Z</time></trkpt><trkpt lat="45.7503783" lon="11.2063117"><ele>788.6666666666667</ele><time>2026-04-07T09:35:10.969Z</time></trkpt><trkpt lat="45.7504167" lon="11.2062167"><ele>795.0</ele><time>2026-04-07T09:35:11.969Z</time></trkpt><trkpt lat="45.7504333" lon="11.2060933"><ele>801.3333333333333</ele><time>2026-04-07T09:35:12.968Z</time></trkpt><trkpt lat="45.75042" lon="11.2059683"><ele>807.6666666666666</ele><time>2026-04-07T09:35:13.969Z</time></trkpt><trkpt lat="45.7503633" lon="11.2058167"><ele>814.0</ele><time>2026-04-07T09:35:14.969Z</time></trkpt><trkpt lat="45.7503167" lon="11.2057133"><ele>813.9999999999999</ele><time>2026-04-07T09:35:15.969Z</time></trkpt><trkpt lat="45.750285" lon="11.2056283"><ele>814.0</ele><time>2026-04-07T09:35:16.968Z</time></trkpt><trkpt lat="45.7502717" lon="11.20554"><ele>814.0</ele><time>2026-04-07T09:35:18.969Z</time></trkpt><trkpt lat="45.7503483" lon="11.2056467"><ele>814.0</ele><time>2026-04-07T09:35:21.969Z</time></trkpt><trkpt lat="45.7504133" lon="11.20574"><ele>813.9999999999999</ele><time>2026-04-07T09:35:22.969Z</time></trkpt><trkpt lat="45.7504917" lon="11.2058367"><ele>814.0</ele><time>2026-04-07T09:35:23.968Z</time></trkpt><trkpt lat="45.7505667" lon="11.2059367"><ele>814.0</ele><time>2026-04-07T09:35:24.969Z</time></trkpt><trkpt lat="45.7506367" lon="11.20605"><ele>814.0</ele><time>2026-04-07T09:35:25.969Z</time></trkpt><trkpt lat="45.7507" lon="11.2061783"><ele>814.0</ele><time>2026-04-07T09:35:26.969Z</time></trkpt><trkpt lat="45.75076" lon="11.2062933"><ele>814.0</ele><time>2026-04-07T09:35:27.968Z</time></trkpt><trkpt lat="45.7508417" lon="11.2063917"><ele>814.0</ele><time>2026-04-07T09:35:28.968Z</time></trkpt><trkpt lat="45.7509217" lon="11.20648"><ele>810.9999999999999</ele><time>2026-04-07T09:35:29.968Z</time></trkpt><trkpt lat="45.7510083" lon="11.206535"><ele>808.0</ele><time>2026-04-07T09:35:30.968Z</time></trkpt><trkpt lat="45.7510867" lon="11.2065933"><ele>805.0</ele><time>2026-04-07T09:35:31.969Z</time></trkpt><trkpt lat="45.7511533" lon="11.2066633"><ele>802.0</ele><time>2026-04-07T09:35:32.969Z</time></trkpt><trkpt lat="45.7512" lon="11.2067467"><ele>798.9999999999999</ele><time>2026-04-07T09:35:33.968Z</time></trkpt><trkpt lat="45.7512517" lon="11.2068617"><ele>796.0</ele><time>2026-04-07T09:35:34.969Z</time></trkpt><trkpt lat="45.7513017" lon="11.2070017"><ele>802.5999999999999</ele><time>2026-04-07T09:35:35.969Z</time></trkpt><trkpt lat="45.75136" lon="11.2071567"><ele>809.2</ele><time>2026-04-07T09:35:36.969Z</time></trkpt><trkpt lat="45.751415" lon="11.2072983"><ele>815.8</ele><time>2026-04-07T09:35:37.968Z</time></trkpt><trkpt lat="45.7514483" lon="11.2074167"><ele>822.4000000000001</ele><time>2026-04-07T09:35:38.968Z</time></trkpt><trkpt lat="45.751475" lon="11.2075117"><ele>829.0</ele><time>2026-04-07T09:35:39.969Z</time></trkpt><trkpt lat="45.7514817" lon="11.2076067"><ele>828.9999999999999</ele><time>2026-04-07T09:35:40.968Z</time></trkpt><trkpt lat="45.7514867" lon="11.2077183"><ele>829.0</ele><time>2026-04-07T09:35:41.969Z</time></trkpt><trkpt lat="45.7514983" lon="11.2078367"><ele>829.0</ele><time>2026-04-07T09:35:42.969Z</time></trkpt><trkpt lat="45.7515117" lon="11.2079483"><ele>829.0</ele><time>2026-04-07T09:35:43.969Z</time></trkpt><trkpt lat="45.7515333" lon="11.208065"><ele>828.9999999999999</ele><time>2026-04-07T09:35:44.969Z</time></trkpt><trkpt lat="45.7515633" lon="11.2081867"><ele>829.0</ele><time>2026-04-07T09:35:45.968Z</time></trkpt><trkpt lat="45.7516017" lon="11.2082817"><ele>827.6666666666666</ele><time>2026-04-07T09:35:46.969Z</time></trkpt><trkpt lat="45.7516333" lon="11.208365"><ele>826.3333333333333</ele><time>2026-04-07T09:35:47.969Z</time></trkpt><trkpt lat="45.75169" lon="11.208405"><ele>825.0</ele><time>2026-04-07T09:35:48.969Z</time></trkpt><trkpt lat="45.75176" lon="11.2084367"><ele>823.6666666666667</ele><time>2026-04-07T09:35:49.969Z</time></trkpt><trkpt lat="45.7518517" lon="11.2084717"><ele>822.3333333333334</ele><time>2026-04-07T09:35:50.968Z</time></trkpt><trkpt lat="45.7519433" lon="11.2085067"><ele>821.0</ele><time>2026-04-07T09:35:51.969Z</time></trkpt><trkpt lat="45.75203" lon="11.2085333"><ele>824.4</ele><time>2026-04-07T09:35:52.969Z</time></trkpt><trkpt lat="45.752125" lon="11.2085517"><ele>827.8</ele><time>2026-04-07T09:35:53.969Z</time></trkpt><trkpt lat="45.7522317" lon="11.2085717"><ele>831.1999999999999</ele><time>2026-04-07T09:35:54.969Z</time></trkpt><trkpt lat="45.7523233" lon="11.2085883"><ele>834.5999999999999</ele><time>2026-04-07T09:35:55.968Z</time></trkpt><trkpt lat="45.7524017" lon="11.208625"><ele>838.0</ele><time>2026-04-07T09:35:56.969Z</time></trkpt><trkpt lat="45.7524767" lon="11.20867"><ele>837.9999999999999</ele><time>2026-04-07T09:35:57.968Z</time></trkpt><trkpt lat="45.752545" lon="11.208715"><ele>838.0</ele><time>2026-04-07T09:35:58.969Z</time></trkpt><trkpt lat="45.75262" lon="11.2087383"><ele>838.0</ele><time>2026-04-07T09:36:00.969Z</time></trkpt><trkpt lat="45.7526683" lon="11.20867"><ele>838.0</ele><time>2026-04-07T09:36:02.969Z</time></trkpt><trkpt lat="45.75271" lon="11.20857"><ele>837.9999999999999</ele><time>2026-04-07T09:36:04.968Z</time></trkpt><trkpt lat="45.7527683" lon="11.2084233"><ele>838.0</ele><time>2026-04-07T09:36:06.968Z</time></trkpt><trkpt lat="45.7528017" lon="11.2082983"><ele>836.9999999999999</ele><time>2026-04-07T09:36:08.969Z</time></trkpt><trkpt lat="45.7527933" lon="11.2081367"><ele>836.0</ele><time>2026-04-07T09:36:10.969Z</time></trkpt><trkpt lat="45.7527967" lon="11.2080217"><ele>835.0</ele><time>2026-04-07T09:36:11.968Z</time></trkpt><trkpt lat="45.7527967" lon="11.2079067"><ele>834.0</ele><time>2026-04-07T09:36:12.968Z</time></trkpt><trkpt lat="45.752805" lon="11.207795"><ele>832.9999999999999</ele><time>2026-04-07T09:36:13.968Z</time></trkpt><trkpt lat="45.7528233" lon="11.2076933"><ele>832.0</ele><time>2026-04-07T09:36:14.969Z</time></trkpt><trkpt lat="45.7528633" lon="11.2075917"><ele>832.0</ele><time>2026-04-07T09:36:15.969Z</time></trkpt><trkpt lat="45.7529133" lon="11.2075033"><ele>832.0</ele><time>2026-04-07T09:36:16.969Z</time></trkpt><trkpt lat="45.7529783" lon="11.207415"><ele>832.0</ele><time>2026-04-07T09:36:17.969Z</time></trkpt><trkpt lat="45.7530633" lon="11.207315"><ele>832.0</ele><time>2026-04-07T09:36:18.969Z</time></trkpt><trkpt lat="45.7531417" lon="11.2072217"><ele>832.0</ele><time>2026-04-07T09:36:19.968Z</time></trkpt><trkpt lat="45.75321" lon="11.2071283"><ele>830.4999999999999</ele><time>2026-04-07T09:36:20.969Z</time></trkpt><trkpt lat="45.7532683" lon="11.2070417"><ele>829.0</ele><time>2026-04-07T09:36:21.969Z</time></trkpt><trkpt lat="45.7533183" lon="11.2069633"><ele>827.5</ele><time>2026-04-07T09:36:22.969Z</time></trkpt><trkpt lat="45.75336" lon="11.2068783"><ele>826.0</ele><time>2026-04-07T09:36:23.968Z</time></trkpt><trkpt lat="45.753395" lon="11.2068"><ele>824.4999999999999</ele><time>2026-04-07T09:36:24.969Z</time></trkpt><trkpt lat="45.75347" lon="11.206705"><ele>823.0</ele><time>2026-04-07T09:36:26.969Z</time></trkpt><trkpt lat="45.7535517" lon="11.2066083"><ele>822.9999999999999</ele><time>2026-04-07T09:36:28.968Z</time></trkpt><trkpt lat="45.7536" lon="11.20652"><ele>823.0</ele><time>2026-04-07T09:36:30.969Z</time></trkpt><trkpt lat="45.7536383" lon="11.2063967"><ele>823.0</ele><time>2026-04-07T09:36:32.969Z</time></trkpt><trkpt lat="45.7536833" lon="11.2062717"><ele>823.0</ele><time>2026-04-07T09:36:34.968Z</time></trkpt><trkpt lat="45.7537283" lon="11.2062067"><ele>822.9999999999999</ele><time>2026-04-07T09:36:35.968Z</time></trkpt><trkpt lat="45.7537817" lon="11.20612"><ele>823.0</ele><time>2026-04-07T09:36:36.968Z</time></trkpt><trkpt lat="45.7538333" lon="11.20604"><ele>826.8333333333333</ele><time>2026-04-07T09:36:37.969Z</time></trkpt><trkpt lat="45.7538883" lon="11.20595"><ele>830.6666666666666</ele><time>2026-04-07T09:36:38.969Z</time></trkpt><trkpt lat="45.7539433" lon="11.2058783"><ele>834.5</ele><time>2026-04-07T09:36:39.969Z</time></trkpt><trkpt lat="45.753995" lon="11.205815"><ele>838.3333333333333</ele><time>2026-04-07T09:36:40.968Z</time></trkpt><trkpt lat="45.7540433" lon="11.20575"><ele>842.1666666666666</ele><time>2026-04-07T09:36:41.969Z</time></trkpt><trkpt lat="45.7540867" lon="11.2056817"><ele>846.0</ele><time>2026-04-07T09:36:42.969Z</time></trkpt><trkpt lat="45.7541667" lon="11.205545"><ele>846.0</ele><time>2026-04-07T09:36:44.969Z</time></trkpt><trkpt lat="45.7542567" lon="11.2055"><ele>846.0</ele><time>2026-04-07T09:36:46.969Z</time></trkpt><trkpt lat="45.75431" lon="11.2055617"><ele>846.0</ele><time>2026-04-07T09:36:48.968Z</time></trkpt><trkpt lat="45.754325" lon="11.20566"><ele>846.0</ele><time>2026-04-07T09:36:49.968Z</time></trkpt><trkpt lat="45.7543483" lon="11.2058"><ele>846.0</ele><time>2026-04-07T09:36:50.968Z</time></trkpt><trkpt lat="45.7543617" lon="11.2059333"><ele>846.0</ele><time>2026-04-07T09:36:51.969Z</time></trkpt><trkpt lat="45.7543783" lon="11.20606"><ele>848.0</ele><time>2026-04-07T09:36:52.969Z</time></trkpt><trkpt lat="45.7544017" lon="11.2061733"><ele>850.0</ele><time>2026-04-07T09:36:53.969Z</time></trkpt><trkpt lat="45.75443" lon="11.2062567"><ele>852.0</ele><time>2026-04-07T09:36:54.969Z</time></trkpt><trkpt lat="45.7544717" lon="11.2063283"><ele>854.0</ele><time>2026-04-07T09:36:55.968Z</time></trkpt><trkpt lat="45.7545383" lon="11.2064083"><ele>856.0</ele><time>2026-04-07T09:36:56.968Z</time></trkpt><trkpt lat="45.7546283" lon="11.2064883"><ele>858.0</ele><time>2026-04-07T09:36:57.969Z</time></trkpt><trkpt lat="45.75471" lon="11.20655"><ele>852.5</ele><time>2026-04-07T09:36:58.969Z</time></trkpt><trkpt lat="45.7547883" lon="11.2065883"><ele>847.0</ele><time>2026-04-07T09:36:59.968Z</time></trkpt><trkpt lat="45.7548767" lon="11.206625"><ele>841.5</ele><time>2026-04-07T09:37:00.969Z</time></trkpt><trkpt lat="45.7549533" lon="11.2066583"><ele>836.0</ele><time>2026-04-07T09:37:01.969Z</time></trkpt><trkpt lat="45.755015" lon="11.2066983"><ele>830.5</ele><time>2026-04-07T09:37:02.969Z</time></trkpt><trkpt lat="45.7550667" lon="11.2067917"><ele>825.0</ele><time>2026-04-07T09:37:04.969Z</time></trkpt><trkpt lat="45.7550767" lon="11.20696"><ele>825.0</ele><time>2026-04-07T09:37:06.968Z</time></trkpt><trkpt lat="45.755095" lon="11.2070617"><ele>825.0</ele><time>2026-04-07T09:37:07.969Z</time></trkpt><trkpt lat="45.75513" lon="11.207175"><ele>825.0</ele><time>2026-04-07T09:37:08.969Z</time></trkpt><trkpt lat="45.755165" lon="11.2072933"><ele>825.0</ele><time>2026-04-07T09:37:09.969Z</time></trkpt><trkpt lat="45.7552033" lon="11.2074083"><ele>825.0</ele><time>2026-04-07T09:37:10.969Z</time></trkpt><trkpt lat="45.7552317" lon="11.2075317"><ele>825.0</ele><time>2026-04-07T09:37:11.969Z</time></trkpt><trkpt lat="45.7552417" lon="11.2076417"><ele>823.3333333333334</ele><time>2026-04-07T09:37:12.968Z</time></trkpt><trkpt lat="45.7552467" lon="11.20776"><ele>821.6666666666667</ele><time>2026-04-07T09:37:13.968Z</time></trkpt><trkpt lat="45.7552617" lon="11.2078717"><ele>820.0</ele><time>2026-04-07T09:37:14.969Z</time></trkpt><trkpt lat="45.75527" lon="11.2079867"><ele>818.3333333333334</ele><time>2026-04-07T09:37:15.968Z</time></trkpt><trkpt lat="45.755275" lon="11.2081067"><ele>816.6666666666667</ele><time>2026-04-07T09:37:16.968Z</time></trkpt><trkpt lat="45.7552833" lon="11.20822"><ele>815.0</ele><time>2026-04-07T09:37:17.969Z</time></trkpt><trkpt lat="45.7553" lon="11.208315"><ele>812.3333333333334</ele><time>2026-04-07T09:37:18.969Z</time></trkpt><trkpt lat="45.755335" lon="11.20843"><ele>809.6666666666667</ele><time>2026-04-07T09:37:19.968Z</time></trkpt><trkpt lat="45.7553783" lon="11.20856"><ele>807.0</ele><time>2026-04-07T09:37:20.968Z</time></trkpt><trkpt lat="45.7554317" lon="11.2086767"><ele>804.3333333333333</ele><time>2026-04-07T09:37:21.969Z</time></trkpt><trkpt lat="45.7554783" lon="11.20877"><ele>801.6666666666666</ele><time>2026-04-07T09:37:22.969Z</time></trkpt><trkpt lat="45.7555267" lon="11.2088317"><ele>799.0</ele><time>2026-04-07T09:37:23.969Z</time></trkpt><trkpt lat="45.7556433" lon="11.2088933"><ele>798.9999999999999</ele><time>2026-04-07T09:37:25.969Z</time></trkpt><trkpt lat="45.75572" lon="11.2089067"><ele>799.0</ele><time>2026-04-07T09:37:26.969Z</time></trkpt><trkpt lat="45.7557867" lon="11.2089233"><ele>799.0</ele><time>2026-04-07T09:37:27.969Z</time></trkpt><trkpt lat="45.7558567" lon="11.2089533"><ele>799.0</ele><time>2026-04-07T09:37:29.969Z</time></trkpt><trkpt lat="45.7557883" lon="11.2090317"><ele>798.9999999999999</ele><time>2026-04-07T09:37:33.969Z</time></trkpt><trkpt lat="45.755715" lon="11.20903"><ele>799.0</ele><time>2026-04-07T09:37:34.969Z</time></trkpt><trkpt lat="45.7556417" lon="11.209015"><ele>796.3333333333333</ele><time>2026-04-07T09:37:35.968Z</time></trkpt><trkpt lat="45.755555" lon="11.2089967"><ele>793.6666666666666</ele><time>2026-04-07T09:37:37.969Z</time></trkpt><trkpt lat="45.755595" lon="11.2090967"><ele>791.0</ele><time>2026-04-07T09:37:40.969Z</time></trkpt><trkpt lat="45.7556617" lon="11.2091233"><ele>788.3333333333333</ele><time>2026-04-07T09:37:41.969Z</time></trkpt><trkpt lat="45.7557383" lon="11.20915"><ele>785.6666666666666</ele><time>2026-04-07T09:37:42.968Z</time></trkpt><trkpt lat="45.7558033" lon="11.2091833"><ele>783.0</ele><time>2026-04-07T09:37:43.968Z</time></trkpt><trkpt lat="45.7557617" lon="11.209255"><ele>783.0</ele><time>2026-04-07T09:37:47.968Z</time></trkpt><trkpt lat="45.7557" lon="11.2092267"><ele>783.0</ele><time>2026-04-07T09:37:48.967Z</time></trkpt><trkpt lat="45.75564" lon="11.2091833"><ele>783.0</ele><time>2026-04-07T09:37:49.968Z</time></trkpt><trkpt lat="45.7555467" lon="11.2091617"><ele>783.0</ele><time>2026-04-07T09:37:51.968Z</time></trkpt><trkpt lat="45.7555433" lon="11.2093033"><ele>783.0</ele><time>2026-04-07T09:37:54.968Z</time></trkpt><trkpt lat="45.7556433" lon="11.2094"><ele>783.0</ele><time>2026-04-07T09:37:56.968Z</time></trkpt><trkpt lat="45.7557117" lon="11.20943"><ele>783.0</ele><time>2026-04-07T09:37:57.968Z</time></trkpt><trkpt lat="45.7557933" lon="11.2094467"><ele>783.0</ele><time>2026-04-07T09:37:58.967Z</time></trkpt><trkpt lat="45.755885" lon="11.2094467"><ele>783.0</ele><time>2026-04-07T09:37:59.968Z</time></trkpt><trkpt lat="45.7559683" lon="11.2094417"><ele>783.0</ele><time>2026-04-07T09:38:00.967Z</time></trkpt><trkpt lat="45.756045" lon="11.2094467"><ele>783.0</ele><time>2026-04-07T09:38:01.967Z</time></trkpt><trkpt lat="45.7561183" lon="11.2094767"><ele>783.0</ele><time>2026-04-07T09:38:02.967Z</time></trkpt><trkpt lat="45.75621" lon="11.2095717"><ele>783.4</ele><time>2026-04-07T09:38:04.967Z</time></trkpt><trkpt lat="45.7562267" lon="11.209725"><ele>783.8</ele><time>2026-04-07T09:38:06.968Z</time></trkpt><trkpt lat="45.75628" lon="11.2098217"><ele>784.2</ele><time>2026-04-07T09:38:08.967Z</time></trkpt><trkpt lat="45.7564033" lon="11.209835"><ele>784.6</ele><time>2026-04-07T09:38:10.967Z</time></trkpt><trkpt lat="45.7564867" lon="11.209845"><ele>785.0</ele><time>2026-04-07T09:38:12.968Z</time></trkpt><trkpt lat="45.756405" lon="11.209875"><ele>785.0000000000001</ele><time>2026-04-07T09:38:16.968Z</time></trkpt><trkpt lat="45.7563383" lon="11.2098983"><ele>785.0</ele><time>2026-04-07T09:38:17.968Z</time></trkpt><trkpt lat="45.7562667" lon="11.20992"><ele>785.0</ele><time>2026-04-07T09:38:18.968Z</time></trkpt><trkpt lat="45.7561983" lon="11.2099283"><ele>785.0</ele><time>2026-04-07T09:38:19.968Z</time></trkpt><trkpt lat="45.7561217" lon="11.2098733"><ele>785.0000000000001</ele><time>2026-04-07T09:38:21.968Z</time></trkpt><trkpt lat="45.7560817" lon="11.209735"><ele>785.0</ele><time>2026-04-07T09:38:23.968Z</time></trkpt><trkpt lat="45.7559867" lon="11.209655"><ele>784.6666666666667</ele><time>2026-04-07T09:38:25.968Z</time></trkpt><trkpt lat="45.7559233" lon="11.2096467"><ele>784.3333333333334</ele><time>2026-04-07T09:38:26.967Z</time></trkpt><trkpt lat="45.7558383" lon="11.2096433"><ele>784.0</ele><time>2026-04-07T09:38:27.968Z</time></trkpt><trkpt lat="45.75575" lon="11.2096417"><ele>783.6666666666667</ele><time>2026-04-07T09:38:28.968Z</time></trkpt><trkpt lat="45.7556533" lon="11.2096317"><ele>783.3333333333334</ele><time>2026-04-07T09:38:29.968Z</time></trkpt><trkpt lat="45.7555533" lon="11.2096167"><ele>783.0</ele><time>2026-04-07T09:38:30.968Z</time></trkpt><trkpt lat="45.7554683" lon="11.2096067"><ele>783.0</ele><time>2026-04-07T09:38:31.968Z</time></trkpt><trkpt lat="45.755365" lon="11.2095683"><ele>783.0</ele><time>2026-04-07T09:38:33.968Z</time></trkpt><trkpt lat="45.7553983" lon="11.20968"><ele>783.0</ele><time>2026-04-07T09:38:37.967Z</time></trkpt><trkpt lat="45.75548" lon="11.209725"><ele>783.0</ele><time>2026-04-07T09:38:38.968Z</time></trkpt><trkpt lat="45.7555817" lon="11.2097683"><ele>783.0</ele><time>2026-04-07T09:38:39.968Z</time></trkpt><trkpt lat="45.7556783" lon="11.2098017"><ele>778.5999999999999</ele><time>2026-04-07T09:38:40.968Z</time></trkpt><trkpt lat="45.75576" lon="11.20984"><ele>774.1999999999999</ele><time>2026-04-07T09:38:41.967Z</time></trkpt><trkpt lat="45.7558267" lon="11.20988"><ele>769.8</ele><time>2026-04-07T09:38:42.967Z</time></trkpt><trkpt lat="45.755895" lon="11.209915"><ele>765.4</ele><time>2026-04-07T09:38:43.967Z</time></trkpt><trkpt lat="45.7559983" lon="11.210045"><ele>761.0</ele><time>2026-04-07T09:38:45.968Z</time></trkpt><trkpt lat="45.756055" lon="11.2101433"><ele>761.0</ele><time>2026-04-07T09:38:46.967Z</time></trkpt><trkpt lat="45.7560967" lon="11.21023"><ele>761.0</ele><time>2026-04-07T09:38:47.967Z</time></trkpt><trkpt lat="45.7561467" lon="11.2102867"><ele>761.0</ele><time>2026-04-07T09:38:48.968Z</time></trkpt><trkpt lat="45.7562417" lon="11.21032"><ele>761.0</ele><time>2026-04-07T09:38:50.967Z</time></trkpt><trkpt lat="45.7563383" lon="11.21029"><ele>761.0</ele><time>2026-04-07T09:38:52.968Z</time></trkpt><trkpt lat="45.7563917" lon="11.21034"><ele>761.0</ele><time>2026-04-07T09:38:54.968Z</time></trkpt><trkpt lat="45.7563167" lon="11.21041"><ele>761.0</ele><time>2026-04-07T09:38:57.968Z</time></trkpt><trkpt lat="45.7562433" lon="11.2103933"><ele>761.0</ele><time>2026-04-07T09:38:58.967Z</time></trkpt><trkpt lat="45.7561683" lon="11.2103683"><ele>761.0</ele><time>2026-04-07T09:38:59.968Z</time></trkpt><trkpt lat="45.756095" lon="11.2103283"><ele>761.0</ele><time>2026-04-07T09:39:00.968Z</time></trkpt><trkpt lat="45.756025" lon="11.21026"><ele>761.0</ele><time>2026-04-07T09:39:01.967Z</time></trkpt><trkpt lat="45.7559583" lon="11.21018"><ele>761.0</ele><time>2026-04-07T09:39:02.968Z</time></trkpt><trkpt lat="45.7559083" lon="11.21012"><ele>759.5714285714286</ele><time>2026-04-07T09:39:03.967Z</time></trkpt><trkpt lat="45.7558483" lon="11.2100783"><ele>758.1428571428571</ele><time>2026-04-07T09:39:04.968Z</time></trkpt><trkpt lat="45.755785" lon="11.2100433"><ele>756.7142857142858</ele><time>2026-04-07T09:39:05.968Z</time></trkpt><trkpt lat="45.7557117" lon="11.2100333"><ele>755.2857142857142</ele><time>2026-04-07T09:39:06.968Z</time></trkpt><trkpt lat="45.7556367" lon="11.2100283"><ele>753.8571428571429</ele><time>2026-04-07T09:39:07.967Z</time></trkpt><trkpt lat="45.7555617" lon="11.210025"><ele>752.4285714285714</ele><time>2026-04-07T09:39:08.968Z</time></trkpt><trkpt lat="45.75549" lon="11.21002"><ele>751.0</ele><time>2026-04-07T09:39:09.967Z</time></trkpt><trkpt lat="45.7554267" lon="11.210015"><ele>751.0</ele><time>2026-04-07T09:39:10.968Z</time></trkpt><trkpt lat="45.7553617" lon="11.2100483"><ele>751.0</ele><time>2026-04-07T09:39:12.968Z</time></trkpt><trkpt lat="45.7553867" lon="11.2101367"><ele>751.0</ele><time>2026-04-07T09:39:14.968Z</time></trkpt><trkpt lat="45.755445" lon="11.2101733"><ele>751.0</ele><time>2026-04-07T09:39:15.968Z</time></trkpt><trkpt lat="45.75554" lon="11.2101833"><ele>751.0</ele><time>2026-04-07T09:39:16.967Z</time></trkpt><trkpt lat="45.7556467" lon="11.2101917"><ele>751.0</ele><time>2026-04-07T09:39:17.967Z</time></trkpt><trkpt lat="45.7557383" lon="11.2102117"><ele>751.0000000000001</ele><time>2026-04-07T09:39:18.967Z</time></trkpt><trkpt lat="45.7558083" lon="11.21025"><ele>751.0</ele><time>2026-04-07T09:39:19.968Z</time></trkpt><trkpt lat="45.755865" lon="11.2103"><ele>751.0</ele><time>2026-04-07T09:39:20.968Z</time></trkpt><trkpt lat="45.7559067" lon="11.2103683"><ele>751.0</ele><time>2026-04-07T09:39:21.968Z</time></trkpt><trkpt lat="45.7559383" lon="11.2104533"><ele>751.0</ele><time>2026-04-07T09:39:22.968Z</time></trkpt><trkpt lat="45.7559867" lon="11.2105467"><ele>751.0000000000001</ele><time>2026-04-07T09:39:23.968Z</time></trkpt><trkpt lat="45.7560367" lon="11.2106233"><ele>751.0</ele><time>2026-04-07T09:39:24.967Z</time></trkpt><trkpt lat="45.7561533" lon="11.2106967"><ele>744.0</ele><time>2026-04-07T09:39:26.968Z</time></trkpt><trkpt lat="45.7562317" lon="11.2107017"><ele>737.0</ele><time>2026-04-07T09:39:27.968Z</time></trkpt><trkpt lat="45.7563317" lon="11.2106867"><ele>730.0</ele><time>2026-04-07T09:39:28.967Z</time></trkpt><trkpt lat="45.7564367" lon="11.2106767"><ele>723.0</ele><time>2026-04-07T09:39:29.968Z</time></trkpt><trkpt lat="45.7565283" lon="11.2106767"><ele>716.0</ele><time>2026-04-07T09:39:30.968Z</time></trkpt><trkpt lat="45.7566167" lon="11.21067"><ele>716.0</ele><time>2026-04-07T09:39:31.968Z</time></trkpt><trkpt lat="45.7566883" lon="11.2106583"><ele>716.0</ele><time>2026-04-07T09:39:32.967Z</time></trkpt><trkpt lat="45.7567567" lon="11.2106167"><ele>716.0</ele><time>2026-04-07T09:39:33.968Z</time></trkpt><trkpt lat="45.756805" lon="11.2105583"><ele>716.0</ele><time>2026-04-07T09:39:34.968Z</time></trkpt><trkpt lat="45.7568717" lon="11.2105067"><ele>716.0</ele><time>2026-04-07T09:39:35.968Z</time></trkpt><trkpt lat="45.757015" lon="11.2104717"><ele>716.0</ele><time>2026-04-07T09:39:37.968Z</time></trkpt><trkpt lat="45.75709" lon="11.2104883"><ele>722.0</ele><time>2026-04-07T09:39:38.968Z</time></trkpt><trkpt lat="45.757155" lon="11.2105017"><ele>728.0</ele><time>2026-04-07T09:39:39.967Z</time></trkpt><trkpt lat="45.7572617" lon="11.2104467"><ele>734.0</ele><time>2026-04-07T09:39:41.968Z</time></trkpt><trkpt lat="45.7573317" lon="11.21038"><ele>740.0</ele><time>2026-04-07T09:39:42.967Z</time></trkpt><trkpt lat="45.757415" lon="11.2103067"><ele>746.0</ele><time>2026-04-07T09:39:43.967Z</time></trkpt><trkpt lat="45.7575017" lon="11.2102483"><ele>746.0</ele><time>2026-04-07T09:39:44.967Z</time></trkpt><trkpt lat="45.7575933" lon="11.210195"><ele>746.0</ele><time>2026-04-07T09:39:45.968Z</time></trkpt><trkpt lat="45.7576833" lon="11.2101683"><ele>746.0</ele><time>2026-04-07T09:39:46.968Z</time></trkpt><trkpt lat="45.7577733" lon="11.21015"><ele>746.0</ele><time>2026-04-07T09:39:47.968Z</time></trkpt><trkpt lat="45.7578567" lon="11.2101567"><ele>746.0</ele><time>2026-04-07T09:39:48.968Z</time></trkpt><trkpt lat="45.7579367" lon="11.21018"><ele>746.0</ele><time>2026-04-07T09:39:49.968Z</time></trkpt><trkpt lat="45.7580083" lon="11.21021"><ele>740.1666666666666</ele><time>2026-04-07T09:39:50.968Z</time></trkpt><trkpt lat="45.75808" lon="11.21024"><ele>734.3333333333333</ele><time>2026-04-07T09:39:51.967Z</time></trkpt><trkpt lat="45.7581517" lon="11.2102517"><ele>728.5</ele><time>2026-04-07T09:39:52.968Z</time></trkpt><trkpt lat="45.7582533" lon="11.2101883"><ele>722.6666666666666</ele><time>2026-04-07T09:39:54.968Z</time></trkpt><trkpt lat="45.7582933" lon="11.2101183"><ele>716.8333333333334</ele><time>2026-04-07T09:39:55.968Z</time></trkpt><trkpt lat="45.75832" lon="11.2100183"><ele>711.0</ele><time>2026-04-07T09:39:56.968Z</time></trkpt><trkpt lat="45.7583467" lon="11.2098883"><ele>712.5999999999999</ele><time>2026-04-07T09:39:57.968Z</time></trkpt><trkpt lat="45.758355" lon="11.20973"><ele>714.2</ele><time>2026-04-07T09:39:58.967Z</time></trkpt><trkpt lat="45.758355" lon="11.2095833"><ele>715.8</ele><time>2026-04-07T09:39:59.968Z</time></trkpt><trkpt lat="45.758345" lon="11.20943"><ele>717.4000000000001</ele><time>2026-04-07T09:40:00.968Z</time></trkpt><trkpt lat="45.7583583" lon="11.2093133"><ele>719.0</ele><time>2026-04-07T09:40:01.967Z</time></trkpt><trkpt lat="45.7583667" lon="11.2092117"><ele>719.0</ele><time>2026-04-07T09:40:02.967Z</time></trkpt><trkpt lat="45.7583733" lon="11.2091067"><ele>719.0</ele><time>2026-04-07T09:40:03.968Z</time></trkpt><trkpt lat="45.7583517" lon="11.20898"><ele>719.0</ele><time>2026-04-07T09:40:05.967Z</time></trkpt><trkpt lat="45.7582967" lon="11.2088767"><ele>719.0</ele><time>2026-04-07T09:40:07.968Z</time></trkpt><trkpt lat="45.7582483" lon="11.2088117"><ele>719.0</ele><time>2026-04-07T09:40:08.968Z</time></trkpt><trkpt lat="45.75819" lon="11.208735"><ele>719.0</ele><time>2026-04-07T09:40:09.967Z</time></trkpt><trkpt lat="45.75813" lon="11.2086333"><ele>719.4000000000001</ele><time>2026-04-07T09:40:10.968Z</time></trkpt><trkpt lat="45.7580783" lon="11.2085283"><ele>719.8</ele><time>2026-04-07T09:40:11.968Z</time></trkpt><trkpt lat="45.758035" lon="11.2084217"><ele>720.2</ele><time>2026-04-07T09:40:12.967Z</time></trkpt><trkpt lat="45.7580133" lon="11.2082933"><ele>720.5999999999999</ele><time>2026-04-07T09:40:13.967Z</time></trkpt><trkpt lat="45.7580033" lon="11.2081933"><ele>721.0</ele><time>2026-04-07T09:40:14.968Z</time></trkpt><trkpt lat="45.7580217" lon="11.2080267"><ele>722.0</ele><time>2026-04-07T09:40:16.968Z</time></trkpt><trkpt lat="45.7580633" lon="11.2079433"><ele>723.0</ele><time>2026-04-07T09:40:17.968Z</time></trkpt><trkpt lat="45.7581283" lon="11.20787"><ele>724.0</ele><time>2026-04-07T09:40:18.967Z</time></trkpt><trkpt lat="45.75821" lon="11.2077933"><ele>725.0</ele><time>2026-04-07T09:40:19.968Z</time></trkpt><trkpt lat="45.7582683" lon="11.2077133"><ele>726.0</ele><time>2026-04-07T09:40:20.968Z</time></trkpt><trkpt lat="45.758325" lon="11.20764"><ele>727.0</ele><time>2026-04-07T09:40:21.968Z</time></trkpt><trkpt lat="45.7583567" lon="11.2075617"><ele>727.0</ele><time>2026-04-07T09:40:22.968Z</time></trkpt><trkpt lat="45.758345" lon="11.20735"><ele>727.0</ele><time>2026-04-07T09:40:24.968Z</time></trkpt><trkpt lat="45.758305" lon="11.2071917"><ele>727.0</ele><time>2026-04-07T09:40:25.967Z</time></trkpt><trkpt lat="45.75827" lon="11.2070233"><ele>727.0</ele><time>2026-04-07T09:40:26.967Z</time></trkpt><trkpt lat="45.7582467" lon="11.2068817"><ele>727.8</ele><time>2026-04-07T09:40:27.968Z</time></trkpt><trkpt lat="45.7582333" lon="11.2067683"><ele>728.6</ele><time>2026-04-07T09:40:28.968Z</time></trkpt><trkpt lat="45.758215" lon="11.2066733"><ele>729.4</ele><time>2026-04-07T09:40:29.968Z</time></trkpt><trkpt lat="45.7581983" lon="11.20649"><ele>730.1999999999999</ele><time>2026-04-07T09:40:31.968Z</time></trkpt><trkpt lat="45.758215" lon="11.2063567"><ele>731.0</ele><time>2026-04-07T09:40:32.967Z</time></trkpt><trkpt lat="45.7582517" lon="11.2062283"><ele>732.5</ele><time>2026-04-07T09:40:33.967Z</time></trkpt><trkpt lat="45.7583067" lon="11.2061133"><ele>734.0</ele><time>2026-04-07T09:40:34.968Z</time></trkpt><trkpt lat="45.7583783" lon="11.2059867"><ele>735.5</ele><time>2026-04-07T09:40:35.968Z</time></trkpt><trkpt lat="45.7584667" lon="11.2058233"><ele>737.0</ele><time>2026-04-07T09:40:36.967Z</time></trkpt><trkpt lat="45.7585667" lon="11.2056433"><ele>737.0</ele><time>2026-04-07T09:40:37.968Z</time></trkpt><trkpt lat="45.75867" lon="11.2054583"><ele>737.0</ele><time>2026-04-07T09:40:38.967Z</time></trkpt><trkpt lat="45.7587733" lon="11.2052583"><ele>737.0</ele><time>2026-04-07T09:40:39.967Z</time></trkpt><trkpt lat="45.7588783" lon="11.2050567"><ele>737.0</ele><time>2026-04-07T09:40:40.967Z</time></trkpt><trkpt lat="45.7589783" lon="11.2048433"><ele>737.0</ele><time>2026-04-07T09:40:41.966Z</time></trkpt><trkpt lat="45.7590833" lon="11.2046333"><ele>737.0</ele><time>2026-04-07T09:40:42.967Z</time></trkpt><trkpt lat="45.7592033" lon="11.2044417"><ele>737.0</ele><time>2026-04-07T09:40:43.967Z</time></trkpt><trkpt lat="45.759335" lon="11.204265"><ele>737.0</ele><time>2026-04-07T09:40:44.967Z</time></trkpt><trkpt lat="45.7594717" lon="11.2041017"><ele>737.0</ele><time>2026-04-07T09:40:45.967Z</time></trkpt><trkpt lat="45.759605" lon="11.20394"><ele>745.6666666666666</ele><time>2026-04-07T09:40:46.967Z</time></trkpt><trkpt lat="45.7597333" lon="11.2037667"><ele>754.3333333333334</ele><time>2026-04-07T09:40:47.966Z</time></trkpt><trkpt lat="45.7598567" lon="11.2035733"><ele>763.0</ele><time>2026-04-07T09:40:48.967Z</time></trkpt><trkpt lat="45.7599667" lon="11.203385"><ele>763.0</ele><time>2026-04-07T09:40:49.966Z</time></trkpt><trkpt lat="45.760065" lon="11.2031783"><ele>763.0</ele><time>2026-04-07T09:40:50.966Z</time></trkpt><trkpt lat="45.76016" lon="11.2029617"><ele>763.0</ele><time>2026-04-07T09:40:51.966Z</time></trkpt><trkpt lat="45.7602267" lon="11.2027367"><ele>762.6666666666667</ele><time>2026-04-07T09:40:52.967Z</time></trkpt><trkpt lat="45.7602717" lon="11.2024767"><ele>762.3333333333334</ele><time>2026-04-07T09:40:53.966Z</time></trkpt><trkpt lat="45.7603117" lon="11.2022167"><ele>762.0</ele><time>2026-04-07T09:40:54.967Z</time></trkpt><trkpt lat="45.76036" lon="11.2019783"><ele>762.0</ele><time>2026-04-07T09:40:55.966Z</time></trkpt><trkpt lat="45.7603867" lon="11.20174"><ele>762.0</ele><time>2026-04-07T09:40:56.967Z</time></trkpt><trkpt lat="45.7604" lon="11.201505"><ele>762.0</ele><time>2026-04-07T09:40:57.967Z</time></trkpt><trkpt lat="45.7603967" lon="11.201265"><ele>765.25</ele><time>2026-04-07T09:40:58.967Z</time></trkpt><trkpt lat="45.7603967" lon="11.2010467"><ele>768.5</ele><time>2026-04-07T09:40:59.967Z</time></trkpt><trkpt lat="45.76042" lon="11.200855"><ele>771.75</ele><time>2026-04-07T09:41:00.966Z</time></trkpt><trkpt lat="45.7604667" lon="11.2006783"><ele>775.0</ele><time>2026-04-07T09:41:01.967Z</time></trkpt><trkpt lat="45.76052" lon="11.2004733"><ele>779.3333333333333</ele><time>2026-04-07T09:41:02.967Z</time></trkpt><trkpt lat="45.7605717" lon="11.2002467"><ele>783.6666666666667</ele><time>2026-04-07T09:41:03.967Z</time></trkpt><trkpt lat="45.7606083" lon="11.1999867"><ele>788.0</ele><time>2026-04-07T09:41:04.966Z</time></trkpt><trkpt lat="45.760635" lon="11.1997467"><ele>790.0</ele><time>2026-04-07T09:41:05.967Z</time></trkpt><trkpt lat="45.7606917" lon="11.1995183"><ele>792.0</ele><time>2026-04-07T09:41:06.966Z</time></trkpt><trkpt lat="45.7607717" lon="11.1993633"><ele>794.0</ele><time>2026-04-07T09:41:07.967Z</time></trkpt><trkpt lat="45.7608717" lon="11.19924"><ele>796.0</ele><time>2026-04-07T09:41:08.967Z</time></trkpt><trkpt lat="45.7609717" lon="11.1991617"><ele>801.1666666666666</ele><time>2026-04-07T09:41:09.966Z</time></trkpt><trkpt lat="45.76106" lon="11.1990917"><ele>806.3333333333333</ele><time>2026-04-07T09:41:10.967Z</time></trkpt><trkpt lat="45.7611167" lon="11.19901"><ele>811.5</ele><time>2026-04-07T09:41:11.967Z</time></trkpt><trkpt lat="45.761155" lon="11.1988867"><ele>816.6666666666667</ele><time>2026-04-07T09:41:12.967Z</time></trkpt><trkpt lat="45.76117" lon="11.1987667"><ele>821.8333333333334</ele><time>2026-04-07T09:41:13.966Z</time></trkpt><trkpt lat="45.7611383" lon="11.19865"><ele>827.0</ele><time>2026-04-07T09:41:14.967Z</time></trkpt><trkpt lat="45.7610883" lon="11.19855"><ele>824.0</ele><time>2026-04-07T09:41:15.967Z</time></trkpt><trkpt lat="45.7610167" lon="11.1984917"><ele>821.0</ele><time>2026-04-07T09:41:16.967Z</time></trkpt><trkpt lat="45.760935" lon="11.19847"><ele>818.0</ele><time>2026-04-07T09:41:17.966Z</time></trkpt><trkpt lat="45.7608383" lon="11.1985067"><ele>815.0</ele><time>2026-04-07T09:41:18.967Z</time></trkpt><trkpt lat="45.7607383" lon="11.198605"><ele>812.0</ele><time>2026-04-07T09:41:19.967Z</time></trkpt><trkpt lat="45.760615" lon="11.1987517"><ele>812.0</ele><time>2026-04-07T09:41:20.967Z</time></trkpt><trkpt lat="45.7604933" lon="11.1989767"><ele>812.0</ele><time>2026-04-07T09:41:21.967Z</time></trkpt><trkpt lat="45.760405" lon="11.199195"><ele>812.0</ele><time>2026-04-07T09:41:22.967Z</time></trkpt><trkpt lat="45.7603517" lon="11.1993683"><ele>808.8</ele><time>2026-04-07T09:41:23.967Z</time></trkpt><trkpt lat="45.76031" lon="11.1994983"><ele>805.6</ele><time>2026-04-07T09:41:24.967Z</time></trkpt><trkpt lat="45.7602633" lon="11.1995617"><ele>802.4</ele><time>2026-04-07T09:41:25.967Z</time></trkpt><trkpt lat="45.7601733" lon="11.199545"><ele>799.1999999999999</ele><time>2026-04-07T09:41:27.967Z</time></trkpt><trkpt lat="45.7601417" lon="11.199375"><ele>796.0</ele><time>2026-04-07T09:41:29.966Z</time></trkpt><trkpt lat="45.7601683" lon="11.1992433"><ele>796.0</ele><time>2026-04-07T09:41:30.967Z</time></trkpt><trkpt lat="45.76023" lon="11.199085"><ele>796.0</ele><time>2026-04-07T09:41:31.967Z</time></trkpt><trkpt lat="45.7603217" lon="11.1988833"><ele>796.0</ele><time>2026-04-07T09:41:32.967Z</time></trkpt><trkpt lat="45.7604183" lon="11.198645"><ele>801.3333333333333</ele><time>2026-04-07T09:41:33.967Z</time></trkpt><trkpt lat="45.7604967" lon="11.1983933"><ele>806.6666666666667</ele><time>2026-04-07T09:41:34.966Z</time></trkpt><trkpt lat="45.7605583" lon="11.1981233"><ele>812.0</ele><time>2026-04-07T09:41:35.967Z</time></trkpt><trkpt lat="45.760605" lon="11.19787"><ele>815.75</ele><time>2026-04-07T09:41:36.967Z</time></trkpt><trkpt lat="45.7606367" lon="11.1976383"><ele>819.5</ele><time>2026-04-07T09:41:37.967Z</time></trkpt><trkpt lat="45.7606583" lon="11.1974267"><ele>823.25</ele><time>2026-04-07T09:41:38.966Z</time></trkpt><trkpt lat="45.7606767" lon="11.197235"><ele>827.0</ele><time>2026-04-07T09:41:39.967Z</time></trkpt><trkpt lat="45.7607133" lon="11.197075"><ele>837.0</ele><time>2026-04-07T09:41:40.967Z</time></trkpt><trkpt lat="45.760775" lon="11.1969517"><ele>847.0</ele><time>2026-04-07T09:41:41.967Z</time></trkpt><trkpt lat="45.7608617" lon="11.196855"><ele>857.0</ele><time>2026-04-07T09:41:42.966Z</time></trkpt><trkpt lat="45.7610017" lon="11.1967933"><ele>867.0</ele><time>2026-04-07T09:41:43.967Z</time></trkpt><trkpt lat="45.761145" lon="11.196785"><ele>869.75</ele><time>2026-04-07T09:41:44.967Z</time></trkpt><trkpt lat="45.7612867" lon="11.196795"><ele>872.5</ele><time>2026-04-07T09:41:45.967Z</time></trkpt><trkpt lat="45.761405" lon="11.196845"><ele>875.25</ele><time>2026-04-07T09:41:46.967Z</time></trkpt><trkpt lat="45.761495" lon="11.1969183"><ele>878.0</ele><time>2026-04-07T09:41:47.967Z</time></trkpt><trkpt lat="45.7615783" lon="11.1970033"><ele>878.0</ele><time>2026-04-07T09:41:48.966Z</time></trkpt><trkpt lat="45.76165" lon="11.19707"><ele>878.0</ele><time>2026-04-07T09:41:49.967Z</time></trkpt><trkpt lat="45.7617367" lon="11.1970817"><ele>878.0</ele><time>2026-04-07T09:41:50.966Z</time></trkpt><trkpt lat="45.76182" lon="11.19707"><ele>878.0</ele><time>2026-04-07T09:41:51.967Z</time></trkpt><trkpt lat="45.7619083" lon="11.1969967"><ele>878.0</ele><time>2026-04-07T09:41:52.966Z</time></trkpt><trkpt lat="45.76202" lon="11.1968983"><ele>881.3333333333334</ele><time>2026-04-07T09:41:53.967Z</time></trkpt><trkpt lat="45.762165" lon="11.1967183"><ele>884.6666666666667</ele><time>2026-04-07T09:41:54.966Z</time></trkpt><trkpt lat="45.7622717" lon="11.1965917"><ele>888.0</ele><time>2026-04-07T09:41:55.966Z</time></trkpt><trkpt lat="45.7623717" lon="11.19648"><ele>888.0</ele><time>2026-04-07T09:41:56.967Z</time></trkpt><trkpt lat="45.7624733" lon="11.1963883"><ele>888.0</ele><time>2026-04-07T09:41:57.967Z</time></trkpt><trkpt lat="45.7625733" lon="11.1963183"><ele>888.0</ele><time>2026-04-07T09:41:58.966Z</time></trkpt><trkpt lat="45.762685" lon="11.196295"><ele>888.0</ele><time>2026-04-07T09:41:59.966Z</time></trkpt><trkpt lat="45.7627767" lon="11.19632"><ele>888.0</ele><time>2026-04-07T09:42:00.966Z</time></trkpt><trkpt lat="45.762855" lon="11.1963717"><ele>887.5999999999999</ele><time>2026-04-07T09:42:01.966Z</time></trkpt><trkpt lat="45.762915" lon="11.1964467"><ele>887.1999999999999</ele><time>2026-04-07T09:42:02.967Z</time></trkpt><trkpt lat="45.76295" lon="11.1965533"><ele>886.8</ele><time>2026-04-07T09:42:03.967Z</time></trkpt><trkpt lat="45.7629483" lon="11.19669"><ele>886.4</ele><time>2026-04-07T09:42:04.966Z</time></trkpt><trkpt lat="45.76292" lon="11.196865"><ele>886.0</ele><time>2026-04-07T09:42:05.967Z</time></trkpt><trkpt lat="45.7628783" lon="11.1970617"><ele>884.4</ele><time>2026-04-07T09:42:06.967Z</time></trkpt><trkpt lat="45.76286" lon="11.19726"><ele>882.8</ele><time>2026-04-07T09:42:07.967Z</time></trkpt><trkpt lat="45.7628533" lon="11.1974233"><ele>881.1999999999999</ele><time>2026-04-07T09:42:08.966Z</time></trkpt><trkpt lat="45.76288" lon="11.1975217"><ele>879.5999999999999</ele><time>2026-04-07T09:42:09.966Z</time></trkpt><trkpt lat="45.76297" lon="11.1976183"><ele>878.0</ele><time>2026-04-07T09:42:11.967Z</time></trkpt><trkpt lat="45.7630733" lon="11.197485"><ele>878.0</ele><time>2026-04-07T09:42:13.967Z</time></trkpt><trkpt lat="45.763115" lon="11.197345"><ele>878.0</ele><time>2026-04-07T09:42:14.966Z</time></trkpt><trkpt lat="45.7631367" lon="11.1971567"><ele>878.0</ele><time>2026-04-07T09:42:15.967Z</time></trkpt><trkpt lat="45.763155" lon="11.1969167"><ele>878.0</ele><time>2026-04-07T09:42:16.967Z</time></trkpt><trkpt lat="45.7631883" lon="11.1966533"><ele>879.5999999999999</ele><time>2026-04-07T09:42:17.967Z</time></trkpt><trkpt lat="45.7632117" lon="11.1964333"><ele>881.1999999999999</ele><time>2026-04-07T09:42:18.967Z</time></trkpt><trkpt lat="45.7632383" lon="11.1962867"><ele>882.8</ele><time>2026-04-07T09:42:19.967Z</time></trkpt><trkpt lat="45.763275" lon="11.1962017"><ele>884.4</ele><time>2026-04-07T09:42:20.967Z</time></trkpt><trkpt lat="45.7633733" lon="11.196165"><ele>886.0</ele><time>2026-04-07T09:42:22.967Z</time></trkpt><trkpt lat="45.7634183" lon="11.1963067"><ele>886.0</ele><time>2026-04-07T09:42:24.967Z</time></trkpt><trkpt lat="45.7634067" lon="11.1964633"><ele>886.0</ele><time>2026-04-07T09:42:25.966Z</time></trkpt><trkpt lat="45.7633667" lon="11.1966717"><ele>886.0</ele><time>2026-04-07T09:42:26.966Z</time></trkpt><trkpt lat="45.763325" lon="11.1969033"><ele>886.0</ele><time>2026-04-07T09:42:27.967Z</time></trkpt><trkpt lat="45.7633217" lon="11.1971067"><ele>884.0</ele><time>2026-04-07T09:42:28.966Z</time></trkpt><trkpt lat="45.76336" lon="11.1972117"><ele>881.9999999999999</ele><time>2026-04-07T09:42:29.966Z</time></trkpt><trkpt lat="45.7634217" lon="11.197265"><ele>879.9999999999999</ele><time>2026-04-07T09:42:30.966Z</time></trkpt><trkpt lat="45.7634967" lon="11.1972733"><ele>878.0</ele><time>2026-04-07T09:42:31.967Z</time></trkpt><trkpt lat="45.76358" lon="11.197225"><ele>876.0</ele><time>2026-04-07T09:42:32.967Z</time></trkpt><trkpt lat="45.7636867" lon="11.1971133"><ele>888.3333333333333</ele><time>2026-04-07T09:42:33.967Z</time></trkpt><trkpt lat="45.76379" lon="11.1969667"><ele>900.6666666666666</ele><time>2026-04-07T09:42:34.967Z</time></trkpt><trkpt lat="45.76387" lon="11.1967667"><ele>913.0</ele><time>2026-04-07T09:42:35.967Z</time></trkpt><trkpt lat="45.7639217" lon="11.196555"><ele>917.75</ele><time>2026-04-07T09:42:36.966Z</time></trkpt><trkpt lat="45.7639217" lon="11.196375"><ele>922.5</ele><time>2026-04-07T09:42:37.967Z</time></trkpt><trkpt lat="45.76389" lon="11.1962067"><ele>927.25</ele><time>2026-04-07T09:42:38.967Z</time></trkpt><trkpt lat="45.76382" lon="11.1960667"><ele>932.0</ele><time>2026-04-07T09:42:39.967Z</time></trkpt><trkpt lat="45.763735" lon="11.1959333"><ele>932.0</ele><time>2026-04-07T09:42:40.967Z</time></trkpt><trkpt lat="45.76365" lon="11.1958133"><ele>932.0</ele><time>2026-04-07T09:42:41.966Z</time></trkpt><trkpt lat="45.763605" lon="11.1956833"><ele>932.0</ele><time>2026-04-07T09:42:42.967Z</time></trkpt><trkpt lat="45.7636117" lon="11.1955433"><ele>932.0</ele><time>2026-04-07T09:42:43.966Z</time></trkpt><trkpt lat="45.7636583" lon="11.1953683"><ele>932.0</ele><time>2026-04-07T09:42:44.966Z</time></trkpt><trkpt lat="45.763725" lon="11.1951783"><ele>932.25</ele><time>2026-04-07T09:42:45.967Z</time></trkpt><trkpt lat="45.76378" lon="11.19497"><ele>932.5</ele><time>2026-04-07T09:42:46.967Z</time></trkpt><trkpt lat="45.7638033" lon="11.1947667"><ele>932.75</ele><time>2026-04-07T09:42:47.966Z</time></trkpt><trkpt lat="45.763775" lon="11.1945667"><ele>933.0</ele><time>2026-04-07T09:42:48.966Z</time></trkpt><trkpt lat="45.763705" lon="11.194385"><ele>933.0</ele><time>2026-04-07T09:42:49.967Z</time></trkpt><trkpt lat="45.7636" lon="11.1942033"><ele>933.0</ele><time>2026-04-07T09:42:50.967Z</time></trkpt><trkpt lat="45.763475" lon="11.19407"><ele>933.0</ele><time>2026-04-07T09:42:51.967Z</time></trkpt><trkpt lat="45.7633283" lon="11.1940083"><ele>935.0</ele><time>2026-04-07T09:42:52.967Z</time></trkpt><trkpt lat="45.7631917" lon="11.1939733"><ele>937.0</ele><time>2026-04-07T09:42:53.966Z</time></trkpt><trkpt lat="45.7630683" lon="11.19398"><ele>939.0</ele><time>2026-04-07T09:42:54.966Z</time></trkpt><trkpt lat="45.7629583" lon="11.19403"><ele>941.0</ele><time>2026-04-07T09:42:55.966Z</time></trkpt><trkpt lat="45.7628633" lon="11.1941017"><ele>940.0</ele><time>2026-04-07T09:42:56.966Z</time></trkpt><trkpt lat="45.7627733" lon="11.1942083"><ele>939.0</ele><time>2026-04-07T09:42:57.966Z</time></trkpt><trkpt lat="45.7626867" lon="11.19435"><ele>938.0</ele><time>2026-04-07T09:42:58.967Z</time></trkpt><trkpt lat="45.7626" lon="11.1945333"><ele>937.0</ele><time>2026-04-07T09:42:59.967Z</time></trkpt><trkpt lat="45.7625367" lon="11.1947233"><ele>931.25</ele><time>2026-04-07T09:43:00.967Z</time></trkpt><trkpt lat="45.7624683" lon="11.194865"><ele>925.5</ele><time>2026-04-07T09:43:01.966Z</time></trkpt><trkpt lat="45.7623983" lon="11.194965"><ele>919.75</ele><time>2026-04-07T09:43:02.967Z</time></trkpt><trkpt lat="45.7622817" lon="11.195015"><ele>914.0</ele><time>2026-04-07T09:43:03.967Z</time></trkpt><trkpt lat="45.7621583" lon="11.195055"><ele>914.0</ele><time>2026-04-07T09:43:04.967Z</time></trkpt><trkpt lat="45.76203" lon="11.195105"><ele>914.0</ele><time>2026-04-07T09:43:05.967Z</time></trkpt><trkpt lat="45.7618983" lon="11.1951317"><ele>914.0</ele><time>2026-04-07T09:43:06.967Z</time></trkpt><trkpt lat="45.7617583" lon="11.1951067"><ele>914.0</ele><time>2026-04-07T09:43:07.966Z</time></trkpt><trkpt lat="45.7616033" lon="11.1950567"><ele>919.3333333333334</ele><time>2026-04-07T09:43:08.966Z</time></trkpt><trkpt lat="45.7614367" lon="11.19504"><ele>924.6666666666667</ele><time>2026-04-07T09:43:09.967Z</time></trkpt><trkpt lat="45.7612683" lon="11.195025"><ele>930.0</ele><time>2026-04-07T09:43:10.966Z</time></trkpt><trkpt lat="45.7611033" lon="11.194985"><ele>930.6666666666667</ele><time>2026-04-07T09:43:11.966Z</time></trkpt><trkpt lat="45.76094" lon="11.1949083"><ele>931.3333333333334</ele><time>2026-04-07T09:43:12.967Z</time></trkpt><trkpt lat="45.7607833" lon="11.1948117"><ele>932.0</ele><time>2026-04-07T09:43:13.967Z</time></trkpt><trkpt lat="45.7606583" lon="11.1946683"><ele>935.5</ele><time>2026-04-07T09:43:14.966Z</time></trkpt><trkpt lat="45.7605417" lon="11.19453"><ele>939.0</ele><time>2026-04-07T09:43:15.967Z</time></trkpt><trkpt lat="45.7604667" lon="11.1943783"><ele>942.5</ele><time>2026-04-07T09:43:16.967Z</time></trkpt><trkpt lat="45.76045" lon="11.194225"><ele>946.0</ele><time>2026-04-07T09:43:17.966Z</time></trkpt><trkpt lat="45.76046" lon="11.1940717"><ele>950.75</ele><time>2026-04-07T09:43:18.967Z</time></trkpt><trkpt lat="45.7605133" lon="11.1939383"><ele>955.5</ele><time>2026-04-07T09:43:19.967Z</time></trkpt><trkpt lat="45.7605883" lon="11.1938367"><ele>960.25</ele><time>2026-04-07T09:43:20.967Z</time></trkpt><trkpt lat="45.7607083" lon="11.19377"><ele>965.0</ele><time>2026-04-07T09:43:21.966Z</time></trkpt><trkpt lat="45.7608583" lon="11.1937567"><ele>966.6666666666667</ele><time>2026-04-07T09:43:22.966Z</time></trkpt><trkpt lat="45.7610383" lon="11.193805"><ele>968.3333333333333</ele><time>2026-04-07T09:43:23.967Z</time></trkpt><trkpt lat="45.7612233" lon="11.1938833"><ele>970.0</ele><time>2026-04-07T09:43:24.967Z</time></trkpt><trkpt lat="45.7613983" lon="11.1939733"><ele>963.6666666666666</ele><time>2026-04-07T09:43:25.967Z</time></trkpt><trkpt lat="45.7615767" lon="11.194055"><ele>957.3333333333333</ele><time>2026-04-07T09:43:26.967Z</time></trkpt><trkpt lat="45.7617367" lon="11.194125"><ele>951.0</ele><time>2026-04-07T09:43:27.967Z</time></trkpt><trkpt lat="45.761865" lon="11.1941833"><ele>953.0</ele><time>2026-04-07T09:43:28.967Z</time></trkpt><trkpt lat="45.761965" lon="11.194205"><ele>954.9999999999999</ele><time>2026-04-07T09:43:29.967Z</time></trkpt><trkpt lat="45.7620483" lon="11.1941867"><ele>956.9999999999999</ele><time>2026-04-07T09:43:30.966Z</time></trkpt><trkpt lat="45.7620983" lon="11.1941283"><ele>959.0</ele><time>2026-04-07T09:43:31.967Z</time></trkpt><trkpt lat="45.76208" lon="11.1939567"><ele>961.0</ele><time>2026-04-07T09:43:33.967Z</time></trkpt><trkpt lat="45.76202" lon="11.19388"><ele>961.0</ele><time>2026-04-07T09:43:34.966Z</time></trkpt><trkpt lat="45.7619167" lon="11.19382"><ele>961.0</ele><time>2026-04-07T09:43:35.967Z</time></trkpt><trkpt lat="45.7617717" lon="11.193745"><ele>961.0</ele><time>2026-04-07T09:43:36.967Z</time></trkpt><trkpt lat="45.76161" lon="11.1936517"><ele>961.0</ele><time>2026-04-07T09:43:37.967Z</time></trkpt><trkpt lat="45.7614533" lon="11.19353"><ele>964.0</ele><time>2026-04-07T09:43:38.967Z</time></trkpt><trkpt lat="45.76131" lon="11.1934117"><ele>967.0</ele><time>2026-04-07T09:43:39.966Z</time></trkpt><trkpt lat="45.7611717" lon="11.1932817"><ele>970.0</ele><time>2026-04-07T09:43:40.967Z</time></trkpt><trkpt lat="45.76104" lon="11.1931583"><ele>978.0</ele><time>2026-04-07T09:43:41.967Z</time></trkpt><trkpt lat="45.7608967" lon="11.1930467"><ele>986.0</ele><time>2026-04-07T09:43:42.967Z</time></trkpt><trkpt lat="45.7607367" lon="11.1929667"><ele>994.0</ele><time>2026-04-07T09:43:43.966Z</time></trkpt><trkpt lat="45.7605867" lon="11.1929483"><ele>994.0</ele><time>2026-04-07T09:43:44.966Z</time></trkpt><trkpt lat="45.7604133" lon="11.192965"><ele>994.0</ele><time>2026-04-07T09:43:45.966Z</time></trkpt><trkpt lat="45.76024" lon="11.1930133"><ele>994.0</ele><time>2026-04-07T09:43:46.966Z</time></trkpt><trkpt lat="45.7600617" lon="11.19306"><ele>994.3333333333333</ele><time>2026-04-07T09:43:47.966Z</time></trkpt><trkpt lat="45.75988" lon="11.193085"><ele>994.6666666666667</ele><time>2026-04-07T09:43:48.966Z</time></trkpt><trkpt lat="45.759715" lon="11.1930717"><ele>995.0</ele><time>2026-04-07T09:43:49.965Z</time></trkpt><trkpt lat="45.7595617" lon="11.1930617"><ele>995.0</ele><time>2026-04-07T09:43:50.965Z</time></trkpt><trkpt lat="45.7594283" lon="11.1930667"><ele>995.0</ele><time>2026-04-07T09:43:51.966Z</time></trkpt><trkpt lat="45.7593167" lon="11.193075"><ele>995.0</ele><time>2026-04-07T09:43:52.966Z</time></trkpt><trkpt lat="45.7592133" lon="11.1931"><ele>995.0</ele><time>2026-04-07T09:43:53.965Z</time></trkpt><trkpt lat="45.7591217" lon="11.1931233"><ele>995.0</ele><time>2026-04-07T09:43:54.966Z</time></trkpt><trkpt lat="45.7590417" lon="11.1931383"><ele>996.4</ele><time>2026-04-07T09:43:55.965Z</time></trkpt><trkpt lat="45.7589317" lon="11.1931467"><ele>997.8</ele><time>2026-04-07T09:43:57.966Z</time></trkpt><trkpt lat="45.7588383" lon="11.193125"><ele>999.2</ele><time>2026-04-07T09:43:59.965Z</time></trkpt><trkpt lat="45.7587883" lon="11.19304"><ele>1000.6</ele><time>2026-04-07T09:44:01.965Z</time></trkpt><trkpt lat="45.758755" lon="11.1928633"><ele>1002.0</ele><time>2026-04-07T09:44:03.966Z</time></trkpt><trkpt lat="45.7587417" lon="11.1927567"><ele>1002.0</ele><time>2026-04-07T09:44:04.966Z</time></trkpt><trkpt lat="45.7587233" lon="11.1926467"><ele>1002.0</ele><time>2026-04-07T09:44:05.966Z</time></trkpt><trkpt lat="45.7586867" lon="11.1925383"><ele>1002.0</ele><time>2026-04-07T09:44:06.966Z</time></trkpt><trkpt lat="45.7586383" lon="11.1924317"><ele>1002.0</ele><time>2026-04-07T09:44:07.966Z</time></trkpt><trkpt lat="45.75859" lon="11.1923283"><ele>1002.0</ele><time>2026-04-07T09:44:08.965Z</time></trkpt><trkpt lat="45.7585417" lon="11.192225"><ele>1002.0</ele><time>2026-04-07T09:44:09.966Z</time></trkpt><trkpt lat="45.7584917" lon="11.1921283"><ele>1001.8333333333334</ele><time>2026-04-07T09:44:10.966Z</time></trkpt><trkpt lat="45.7584367" lon="11.1920483"><ele>1001.6666666666667</ele><time>2026-04-07T09:44:11.965Z</time></trkpt><trkpt lat="45.758375" lon="11.1919717"><ele>1001.5</ele><time>2026-04-07T09:44:12.966Z</time></trkpt><trkpt lat="45.7583067" lon="11.1919083"><ele>1001.3333333333334</ele><time>2026-04-07T09:44:13.966Z</time></trkpt><trkpt lat="45.7582333" lon="11.19186"><ele>1001.1666666666667</ele><time>2026-04-07T09:44:14.965Z</time></trkpt><trkpt lat="45.758155" lon="11.191805"><ele>1001.0</ele><time>2026-04-07T09:44:15.966Z</time></trkpt><trkpt lat="45.75808" lon="11.19176"><ele>1001.0000000000001</ele><time>2026-04-07T09:44:16.966Z</time></trkpt><trkpt lat="45.758005" lon="11.1917167"><ele>1001.0</ele><time>2026-04-07T09:44:17.966Z</time></trkpt><trkpt lat="45.7579217" lon="11.1916867"><ele>1001.0</ele><time>2026-04-07T09:44:18.966Z</time></trkpt><trkpt lat="45.75785" lon="11.19167"><ele>1001.0</ele><time>2026-04-07T09:44:19.965Z</time></trkpt><trkpt lat="45.7577767" lon="11.1916567"><ele>1001.0000000000001</ele><time>2026-04-07T09:44:20.965Z</time></trkpt><trkpt lat="45.7577017" lon="11.1916533"><ele>1001.0</ele><time>2026-04-07T09:44:21.965Z</time></trkpt><trkpt lat="45.757605" lon="11.191675"><ele>998.5000000000001</ele><time>2026-04-07T09:44:22.966Z</time></trkpt><trkpt lat="45.7575083" lon="11.1917267"><ele>996.0</ele><time>2026-04-07T09:44:23.966Z</time></trkpt><trkpt lat="45.7574317" lon="11.1917933"><ele>993.5</ele><time>2026-04-07T09:44:24.965Z</time></trkpt><trkpt lat="45.757365" lon="11.191875"><ele>991.0</ele><time>2026-04-07T09:44:25.965Z</time></trkpt><trkpt lat="45.75731" lon="11.1919567"><ele>988.5000000000001</ele><time>2026-04-07T09:44:26.965Z</time></trkpt><trkpt lat="45.757255" lon="11.1920183"><ele>986.0</ele><time>2026-04-07T09:44:27.966Z</time></trkpt><trkpt lat="45.75715" lon="11.19204"><ele>986.0000000000001</ele><time>2026-04-07T09:44:29.966Z</time></trkpt><trkpt lat="45.757055" lon="11.1919483"><ele>986.0</ele><time>2026-04-07T09:44:31.965Z</time></trkpt><trkpt lat="45.7570133" lon="11.1918633"><ele>986.0</ele><time>2026-04-07T09:44:32.965Z</time></trkpt><trkpt lat="45.756975" lon="11.1917517"><ele>986.0</ele><time>2026-04-07T09:44:33.966Z</time></trkpt><trkpt lat="45.7569417" lon="11.19164"><ele>986.0000000000001</ele><time>2026-04-07T09:44:34.966Z</time></trkpt><trkpt lat="45.7569017" lon="11.19157"><ele>986.0</ele><time>2026-04-07T09:44:35.965Z</time></trkpt><trkpt lat="45.7567967" lon="11.1914983"><ele>986.5</ele><time>2026-04-07T09:44:37.965Z</time></trkpt><trkpt lat="45.7566917" lon="11.191525"><ele>987.0</ele><time>2026-04-07T09:44:39.966Z</time></trkpt><trkpt lat="45.7565783" lon="11.1915683"><ele>987.5</ele><time>2026-04-07T09:44:41.966Z</time></trkpt><trkpt lat="45.75647" lon="11.1915683"><ele>988.0</ele><time>2026-04-07T09:44:43.965Z</time></trkpt><trkpt lat="45.7563517" lon="11.1914933"><ele>987.9999999999999</ele><time>2026-04-07T09:44:45.966Z</time></trkpt><trkpt lat="45.7562833" lon="11.191475"><ele>988.0</ele><time>2026-04-07T09:44:46.966Z</time></trkpt><trkpt lat="45.756205" lon="11.1914833"><ele>988.0</ele><time>2026-04-07T09:44:47.966Z</time></trkpt><trkpt lat="45.7561233" lon="11.1915"><ele>988.0</ele><time>2026-04-07T09:44:48.965Z</time></trkpt><trkpt lat="45.756055" lon="11.1915133"><ele>987.9999999999999</ele><time>2026-04-07T09:44:49.965Z</time></trkpt><trkpt lat="45.7559467" lon="11.1915367"><ele>988.0</ele><time>2026-04-07T09:44:51.966Z</time></trkpt><trkpt lat="45.755845" lon="11.19154"><ele>989.0</ele><time>2026-04-07T09:44:53.966Z</time></trkpt><trkpt lat="45.7557667" lon="11.1915833"><ele>990.0</ele><time>2026-04-07T09:44:55.965Z</time></trkpt><trkpt lat="45.7556883" lon="11.1917133"><ele>991.0</ele><time>2026-04-07T09:44:57.965Z</time></trkpt><trkpt lat="45.7556783" lon="11.1918317"><ele>992.0</ele><time>2026-04-07T09:44:58.965Z</time></trkpt><trkpt lat="45.7556833" lon="11.1919583"><ele>993.0</ele><time>2026-04-07T09:44:59.966Z</time></trkpt><trkpt lat="45.755695" lon="11.1920667"><ele>993.0</ele><time>2026-04-07T09:45:00.966Z</time></trkpt><trkpt lat="45.75571" lon="11.1921833"><ele>993.0</ele><time>2026-04-07T09:45:01.966Z</time></trkpt><trkpt lat="45.75571" lon="11.1923033"><ele>993.0</ele><time>2026-04-07T09:45:02.966Z</time></trkpt><trkpt lat="45.7557017" lon="11.192425"><ele>993.0</ele><time>2026-04-07T09:45:03.966Z</time></trkpt><trkpt lat="45.7557" lon="11.192545"><ele>993.0</ele><time>2026-04-07T09:45:04.966Z</time></trkpt><trkpt lat="45.7556983" lon="11.192665"><ele>993.0</ele><time>2026-04-07T09:45:05.966Z</time></trkpt><trkpt lat="45.7556967" lon="11.19278"><ele>992.5999999999999</ele><time>2026-04-07T09:45:06.966Z</time></trkpt><trkpt lat="45.75568" lon="11.1928867"><ele>992.1999999999999</ele><time>2026-04-07T09:45:07.965Z</time></trkpt><trkpt lat="45.7556533" lon="11.1930083"><ele>991.8</ele><time>2026-04-07T09:45:08.965Z</time></trkpt><trkpt lat="45.7556133" lon="11.1931533"><ele>991.4</ele><time>2026-04-07T09:45:09.966Z</time></trkpt><trkpt lat="45.755595" lon="11.1932833"><ele>991.0</ele><time>2026-04-07T09:45:10.966Z</time></trkpt><trkpt lat="45.7555917" lon="11.193415"><ele>991.6666666666666</ele><time>2026-04-07T09:45:11.966Z</time></trkpt><trkpt lat="45.7556067" lon="11.1935367"><ele>992.3333333333333</ele><time>2026-04-07T09:45:12.966Z</time></trkpt><trkpt lat="45.7556117" lon="11.193645"><ele>993.0</ele><time>2026-04-07T09:45:13.966Z</time></trkpt><trkpt lat="45.7556183" lon="11.1937533"><ele>993.6666666666667</ele><time>2026-04-07T09:45:14.966Z</time></trkpt><trkpt lat="45.755625" lon="11.1938433"><ele>994.3333333333334</ele><time>2026-04-07T09:45:15.966Z</time></trkpt><trkpt lat="45.7556083" lon="11.1940117"><ele>995.0</ele><time>2026-04-07T09:45:17.965Z</time></trkpt><trkpt lat="45.7556233" lon="11.1941533"><ele>995.8</ele><time>2026-04-07T09:45:19.966Z</time></trkpt><trkpt lat="45.755725" lon="11.1942417"><ele>996.6</ele><time>2026-04-07T09:45:21.966Z</time></trkpt><trkpt lat="45.7558117" lon="11.1942833"><ele>997.4000000000001</ele><time>2026-04-07T09:45:22.966Z</time></trkpt><trkpt lat="45.75591" lon="11.1943117"><ele>998.2</ele><time>2026-04-07T09:45:23.965Z</time></trkpt><trkpt lat="45.75601" lon="11.194345"><ele>999.0</ele><time>2026-04-07T09:45:24.966Z</time></trkpt><trkpt lat="45.7560967" lon="11.1943883"><ele>999.0</ele><time>2026-04-07T09:45:25.966Z</time></trkpt><trkpt lat="45.756175" lon="11.19444"><ele>999.0</ele><time>2026-04-07T09:45:26.965Z</time></trkpt><trkpt lat="45.7562433" lon="11.19449"><ele>999.0</ele><time>2026-04-07T09:45:27.966Z</time></trkpt><trkpt lat="45.756305" lon="11.19454"><ele>999.0</ele><time>2026-04-07T09:45:28.966Z</time></trkpt><trkpt lat="45.756365" lon="11.1945717"><ele>999.0</ele><time>2026-04-07T09:45:29.966Z</time></trkpt><trkpt lat="45.7564367" lon="11.1945933"><ele>999.0</ele><time>2026-04-07T09:45:30.966Z</time></trkpt><trkpt lat="45.7565283" lon="11.1946383"><ele>999.0</ele><time>2026-04-07T09:45:32.966Z</time></trkpt><trkpt lat="45.7565867" lon="11.1947417"><ele>999.0000000000001</ele><time>2026-04-07T09:45:36.966Z</time></trkpt><trkpt lat="45.75664" lon="11.1948383"><ele>999.0000000000001</ele><time>2026-04-07T09:45:38.966Z</time></trkpt><trkpt lat="45.756725" lon="11.1948767"><ele>999.0</ele><time>2026-04-07T09:45:40.966Z</time></trkpt><trkpt lat="45.75683" lon="11.1949067"><ele>999.0</ele><time>2026-04-07T09:45:42.966Z</time></trkpt><trkpt lat="45.7569017" lon="11.19495"><ele>1003.2</ele><time>2026-04-07T09:45:43.965Z</time></trkpt><trkpt lat="45.7569867" lon="11.1950383"><ele>1007.4000000000001</ele><time>2026-04-07T09:45:44.966Z</time></trkpt><trkpt lat="45.7570717" lon="11.195115"><ele>1011.6</ele><time>2026-04-07T09:45:45.966Z</time></trkpt><trkpt lat="45.75715" lon="11.195185"><ele>1015.8</ele><time>2026-04-07T09:45:46.966Z</time></trkpt><trkpt lat="45.7572183" lon="11.1952417"><ele>1020.0</ele><time>2026-04-07T09:45:47.966Z</time></trkpt><trkpt lat="45.7572833" lon="11.19529"><ele>1020.0</ele><time>2026-04-07T09:45:48.966Z</time></trkpt><trkpt lat="45.757385" lon="11.1953767"><ele>1020.0</ele><time>2026-04-07T09:45:50.965Z</time></trkpt><trkpt lat="45.7574383" lon="11.195515"><ele>1020.0</ele><time>2026-04-07T09:45:52.966Z</time></trkpt><trkpt lat="45.7574483" lon="11.19561"><ele>1020.0</ele><time>2026-04-07T09:45:53.966Z</time></trkpt><trkpt lat="45.7574617" lon="11.195705"><ele>1020.0</ele><time>2026-04-07T09:45:54.966Z</time></trkpt><trkpt lat="45.75749" lon="11.19583"><ele>1025.0</ele><time>2026-04-07T09:45:55.966Z</time></trkpt><trkpt lat="45.7575233" lon="11.1959683"><ele>1030.0</ele><time>2026-04-07T09:45:56.966Z</time></trkpt><trkpt lat="45.757555" lon="11.1960767"><ele>1035.0</ele><time>2026-04-07T09:45:57.966Z</time></trkpt><trkpt lat="45.75757" lon="11.1962283"><ele>1040.0</ele><time>2026-04-07T09:45:59.965Z</time></trkpt><trkpt lat="45.7575533" lon="11.1963783"><ele>1045.0</ele><time>2026-04-07T09:46:01.965Z</time></trkpt><trkpt lat="45.7575283" lon="11.1964817"><ele>1047.2</ele><time>2026-04-07T09:46:02.966Z</time></trkpt><trkpt lat="45.7575083" lon="11.1965933"><ele>1049.4</ele><time>2026-04-07T09:46:03.965Z</time></trkpt><trkpt lat="45.7575" lon="11.1967333"><ele>1051.6</ele><time>2026-04-07T09:46:04.966Z</time></trkpt><trkpt lat="45.7575167" lon="11.1968817"><ele>1053.8</ele><time>2026-04-07T09:46:05.965Z</time></trkpt><trkpt lat="45.7575333" lon="11.1970133"><ele>1056.0</ele><time>2026-04-07T09:46:06.966Z</time></trkpt><trkpt lat="45.7575517" lon="11.19714"><ele>1056.0</ele><time>2026-04-07T09:46:07.966Z</time></trkpt><trkpt lat="45.7575717" lon="11.19727"><ele>1056.0</ele><time>2026-04-07T09:46:08.966Z</time></trkpt><trkpt lat="45.7576133" lon="11.1974"><ele>1056.0</ele><time>2026-04-07T09:46:09.965Z</time></trkpt><trkpt lat="45.757665" lon="11.19753"><ele>1056.0</ele><time>2026-04-07T09:46:10.965Z</time></trkpt><trkpt lat="45.7577117" lon="11.197625"><ele>1056.0</ele><time>2026-04-07T09:46:11.965Z</time></trkpt><trkpt lat="45.7577467" lon="11.1977033"><ele>1056.0</ele><time>2026-04-07T09:46:12.966Z</time></trkpt><trkpt lat="45.75781" lon="11.1978067"><ele>1049.0</ele><time>2026-04-07T09:46:14.965Z</time></trkpt><trkpt lat="45.757855" lon="11.1979267"><ele>1042.0</ele><time>2026-04-07T09:46:16.966Z</time></trkpt><trkpt lat="45.757875" lon="11.1980733"><ele>1035.0</ele><time>2026-04-07T09:46:18.966Z</time></trkpt><trkpt lat="45.7578783" lon="11.1982367"><ele>1028.0</ele><time>2026-04-07T09:46:20.965Z</time></trkpt><trkpt lat="45.7578583" lon="11.1983267"><ele>1021.0</ele><time>2026-04-07T09:46:21.966Z</time></trkpt><trkpt lat="45.7578217" lon="11.198435"><ele>1018.9999999999999</ele><time>2026-04-07T09:46:22.966Z</time></trkpt><trkpt lat="45.7577717" lon="11.1985433"><ele>1017.0</ele><time>2026-04-07T09:46:23.965Z</time></trkpt><trkpt lat="45.75773" lon="11.1986467"><ele>1015.0</ele><time>2026-04-07T09:46:24.965Z</time></trkpt><trkpt lat="45.7576933" lon="11.1987567"><ele>1013.0</ele><time>2026-04-07T09:46:25.966Z</time></trkpt><trkpt lat="45.7576583" lon="11.1988533"><ele>1010.9999999999999</ele><time>2026-04-07T09:46:26.966Z</time></trkpt><trkpt lat="45.7576267" lon="11.1989417"><ele>1009.0</ele><time>2026-04-07T09:46:27.966Z</time></trkpt><trkpt lat="45.7575917" lon="11.1990833"><ele>1008.9999999999999</ele><time>2026-04-07T09:46:29.966Z</time></trkpt><trkpt lat="45.7576033" lon="11.1991967"><ele>1009.0</ele><time>2026-04-07T09:46:42.966Z</time></trkpt><trkpt lat="45.7576133" lon="11.1990733"><ele>1009.0</ele><time>2026-04-07T09:46:56.966Z</time></trkpt><trkpt lat="45.7576533" lon="11.1989083"><ele>1009.0</ele><time>2026-04-07T09:46:58.965Z</time></trkpt><trkpt lat="45.7576867" lon="11.1988317"><ele>1008.9999999999999</ele><time>2026-04-07T09:46:59.966Z</time></trkpt><trkpt lat="45.7577067" lon="11.1987417"><ele>1009.0</ele><time>2026-04-07T09:47:00.966Z</time></trkpt><trkpt lat="45.7577317" lon="11.198655"><ele>1008.9999999999999</ele><time>2026-04-07T09:47:01.965Z</time></trkpt><trkpt lat="45.7577683" lon="11.198575"><ele>1009.0</ele><time>2026-04-07T09:47:02.965Z</time></trkpt><trkpt lat="45.757815" lon="11.1985067"><ele>1009.0</ele><time>2026-04-07T09:47:03.965Z</time></trkpt><trkpt lat="45.7578817" lon="11.1984"><ele>1009.0</ele><time>2026-04-07T09:47:05.964Z</time></trkpt><trkpt lat="45.7579233" lon="11.1982917"><ele>1008.9999999999999</ele><time>2026-04-07T09:47:07.964Z</time></trkpt><trkpt lat="45.7579467" lon="11.19818"><ele>1009.0</ele><time>2026-04-07T09:47:09.965Z</time></trkpt><trkpt lat="45.7579517" lon="11.1980567"><ele>1011.4000000000001</ele><time>2026-04-07T09:47:11.964Z</time></trkpt><trkpt lat="45.7579317" lon="11.1979333"><ele>1013.8000000000001</ele><time>2026-04-07T09:47:13.965Z</time></trkpt><trkpt lat="45.7578833" lon="11.19778"><ele>1016.1999999999999</ele><time>2026-04-07T09:47:15.964Z</time></trkpt><trkpt lat="45.7578483" lon="11.19767"><ele>1018.5999999999999</ele><time>2026-04-07T09:47:16.965Z</time></trkpt><trkpt lat="45.7577933" lon="11.1975633"><ele>1021.0</ele><time>2026-04-07T09:47:17.964Z</time></trkpt><trkpt lat="45.7577367" lon="11.197435"><ele>1028.0</ele><time>2026-04-07T09:47:18.964Z</time></trkpt><trkpt lat="45.7576883" lon="11.19731"><ele>1035.0</ele><time>2026-04-07T09:47:19.965Z</time></trkpt><trkpt lat="45.757655" lon="11.1972"><ele>1042.0</ele><time>2026-04-07T09:47:20.965Z</time></trkpt><trkpt lat="45.75763" lon="11.19707"><ele>1049.0</ele><time>2026-04-07T09:47:21.964Z</time></trkpt><trkpt lat="45.7576133" lon="11.1969167"><ele>1056.0</ele><time>2026-04-07T09:47:22.964Z</time></trkpt><trkpt lat="45.75761" lon="11.1967633"><ele>1056.0</ele><time>2026-04-07T09:47:23.965Z</time></trkpt><trkpt lat="45.75761" lon="11.1966133"><ele>1056.0</ele><time>2026-04-07T09:47:24.964Z</time></trkpt><trkpt lat="45.7576117" lon="11.1964733"><ele>1056.0</ele><time>2026-04-07T09:47:25.964Z</time></trkpt><trkpt lat="45.75762" lon="11.1963483"><ele>1056.0</ele><time>2026-04-07T09:47:26.965Z</time></trkpt><trkpt lat="45.7576667" lon="11.1961867"><ele>1056.0</ele><time>2026-04-07T09:47:28.965Z</time></trkpt><trkpt lat="45.7576867" lon="11.1960433"><ele>1054.1666666666667</ele><time>2026-04-07T09:47:30.965Z</time></trkpt><trkpt lat="45.7576617" lon="11.195915"><ele>1052.3333333333333</ele><time>2026-04-07T09:47:32.965Z</time></trkpt><trkpt lat="45.757625" lon="11.1957867"><ele>1050.5</ele><time>2026-04-07T09:47:34.964Z</time></trkpt><trkpt lat="45.75759" lon="11.1956583"><ele>1048.6666666666665</ele><time>2026-04-07T09:47:36.964Z</time></trkpt><trkpt lat="45.7575717" lon="11.1955483"><ele>1046.8333333333333</ele><time>2026-04-07T09:47:38.965Z</time></trkpt><trkpt lat="45.75756" lon="11.1954467"><ele>1045.0</ele><time>2026-04-07T09:47:41.965Z</time></trkpt><trkpt lat="45.7574933" lon="11.19545"><ele>1045.0</ele><time>2026-04-07T09:47:44.964Z</time></trkpt><trkpt lat="45.7574383" lon="11.19553"><ele>1045.0</ele><time>2026-04-07T09:47:46.965Z</time></trkpt><trkpt lat="45.7573683" lon="11.19563"><ele>1045.0</ele><time>2026-04-07T09:47:48.964Z</time></trkpt><trkpt lat="45.7572967" lon="11.1956817"><ele>1045.0</ele><time>2026-04-07T09:47:50.965Z</time></trkpt><trkpt lat="45.75728" lon="11.1957817"><ele>1045.0</ele><time>2026-04-07T09:47:53.965Z</time></trkpt><trkpt lat="45.7572233" lon="11.1958717"><ele>1045.0</ele><time>2026-04-07T09:47:56.964Z</time></trkpt><trkpt lat="45.7571817" lon="11.1959417"><ele>1045.0</ele><time>2026-04-07T09:47:58.964Z</time></trkpt><trkpt lat="45.7572267" lon="11.1960133"><ele>1045.0</ele><time>2026-04-07T09:48:53.964Z</time></trkpt><trkpt lat="45.7572983" lon="11.1960183"><ele>1045.0</ele><time>2026-04-07T09:48:55.965Z</time></trkpt><trkpt lat="45.7573667" lon="11.1960333"><ele>1045.0</ele><time>2026-04-07T09:48:57.965Z</time></trkpt><trkpt lat="45.7574367" lon="11.1960917"><ele>1045.0</ele><time>2026-04-07T09:49:10.964Z</time></trkpt><trkpt lat="45.7574667" lon="11.1962117"><ele>1045.0</ele><time>2026-04-07T09:49:16.965Z</time></trkpt><trkpt lat="45.7574183" lon="11.1963167"><ele>1045.0</ele><time>2026-04-07T09:49:19.965Z</time></trkpt><trkpt lat="45.7573567" lon="11.1964033"><ele>1045.0</ele><time>2026-04-07T09:49:21.965Z</time></trkpt><trkpt lat="45.7573183" lon="11.19651"><ele>1045.0</ele><time>2026-04-07T09:49:23.965Z</time></trkpt><trkpt lat="45.757305" lon="11.1966417"><ele>1045.0</ele><time>2026-04-07T09:49:25.964Z</time></trkpt><trkpt lat="45.757305" lon="11.1967667"><ele>1045.0</ele><time>2026-04-07T09:49:27.965Z</time></trkpt><trkpt lat="45.7572933" lon="11.196865"><ele>1045.0</ele><time>2026-04-07T09:49:29.965Z</time></trkpt><trkpt lat="45.7572683" lon="11.19695"><ele>1046.8333333333333</ele><time>2026-04-07T09:49:31.965Z</time></trkpt><trkpt lat="45.7572183" lon="11.1970617"><ele>1048.6666666666665</ele><time>2026-04-07T09:49:34.965Z</time></trkpt><trkpt lat="45.75717" lon="11.1971433"><ele>1050.5</ele><time>2026-04-07T09:49:36.965Z</time></trkpt><trkpt lat="45.7570941" lon="11.1971824"><ele>1052.3333333333333</ele><time>2026-04-07T09:49:39.965Z</time></trkpt><trkpt lat="45.7570081" lon="11.1971977"><ele>1054.1666666666667</ele><time>2026-04-07T09:49:42.964Z</time></trkpt><trkpt lat="45.7569275" lon="11.1971806"><ele>1056.0</ele><time>2026-04-07T09:49:45.965Z</time></trkpt><trkpt lat="45.756849" lon="11.1971197"><ele>1059.2857142857142</ele><time>2026-04-07T09:49:48.965Z</time></trkpt><trkpt lat="45.7567737" lon="11.1971726"><ele>1062.5714285714287</ele><time>2026-04-07T09:50:22.964Z</time></trkpt><trkpt lat="45.7566981" lon="11.1972041"><ele>1065.857142857143</ele><time>2026-04-07T09:50:24.965Z</time></trkpt><trkpt lat="45.7566297" lon="11.1972377"><ele>1069.142857142857</ele><time>2026-04-07T09:50:26.965Z</time></trkpt><trkpt lat="45.7565736" lon="11.1972981"><ele>1072.4285714285713</ele><time>2026-04-07T09:50:28.965Z</time></trkpt><trkpt lat="45.7565242" lon="11.1973673"><ele>1075.7142857142858</ele><time>2026-04-07T09:50:30.964Z</time></trkpt><trkpt lat="45.7564561" lon="11.1973847"><ele>1079.0</ele><time>2026-04-07T09:50:33.964Z</time></trkpt><trkpt lat="45.756392" lon="11.1972899"><ele>1079.0</ele><time>2026-04-07T09:51:56.964Z</time></trkpt><trkpt lat="45.7563304" lon="11.1972375"><ele>1079.0</ele><time>2026-04-07T09:51:57.963Z</time></trkpt><trkpt lat="45.7562542" lon="11.1971744"><ele>1079.0</ele><time>2026-04-07T09:51:58.963Z</time></trkpt><trkpt lat="45.7561622" lon="11.1970988"><ele>1079.0</ele><time>2026-04-07T09:51:59.964Z</time></trkpt><trkpt lat="45.7560782" lon="11.1970386"><ele>1079.0</ele><time>2026-04-07T09:52:00.964Z</time></trkpt><trkpt lat="45.7560007" lon="11.1969837"><ele>1079.0</ele><time>2026-04-07T09:52:01.963Z</time></trkpt><trkpt lat="45.7559207" lon="11.1969226"><ele>1080.6000000000001</ele><time>2026-04-07T09:52:02.964Z</time></trkpt><trkpt lat="45.7558391" lon="11.196851"><ele>1082.2</ele><time>2026-04-07T09:52:03.964Z</time></trkpt><trkpt lat="45.7557662" lon="11.196754"><ele>1083.8000000000002</ele><time>2026-04-07T09:52:04.964Z</time></trkpt><trkpt lat="45.7557025" lon="11.1966642"><ele>1085.4</ele><time>2026-04-07T09:52:05.964Z</time></trkpt><trkpt lat="45.7556455" lon="11.1965674"><ele>1087.0</ele><time>2026-04-07T09:52:06.963Z</time></trkpt><trkpt lat="45.7555913" lon="11.1964862"><ele>1087.0</ele><time>2026-04-07T09:52:07.963Z</time></trkpt><trkpt lat="45.7555033" lon="11.196415"><ele>1087.0</ele><time>2026-04-07T09:52:09.963Z</time></trkpt><trkpt lat="45.7554067" lon="11.196485"><ele>1087.0</ele><time>2026-04-07T09:52:11.964Z</time></trkpt><trkpt lat="45.7553183" lon="11.1965833"><ele>1087.0</ele><time>2026-04-07T09:52:13.963Z</time></trkpt><trkpt lat="45.755235" lon="11.1965633"><ele>1087.0</ele><time>2026-04-07T09:52:15.963Z</time></trkpt><trkpt lat="45.755155" lon="11.196475"><ele>1088.6666666666665</ele><time>2026-04-07T09:52:17.963Z</time></trkpt><trkpt lat="45.75511" lon="11.1964017"><ele>1090.3333333333333</ele><time>2026-04-07T09:52:18.964Z</time></trkpt><trkpt lat="45.7550667" lon="11.1963333"><ele>1092.0</ele><time>2026-04-07T09:52:19.964Z</time></trkpt><trkpt lat="45.7549933" lon="11.1962167"><ele>1093.6666666666667</ele><time>2026-04-07T09:52:21.964Z</time></trkpt><trkpt lat="45.75494" lon="11.1961383"><ele>1095.3333333333335</ele><time>2026-04-07T09:52:23.963Z</time></trkpt><trkpt lat="45.7548783" lon="11.19612"><ele>1097.0</ele><time>2026-04-07T09:52:26.964Z</time></trkpt><trkpt lat="45.7549117" lon="11.1962717"><ele>1097.0</ele><time>2026-04-07T09:52:29.963Z</time></trkpt><trkpt lat="45.7549583" lon="11.1964567"><ele>1097.0</ele><time>2026-04-07T09:52:31.963Z</time></trkpt><trkpt lat="45.75496" lon="11.1965733"><ele>1097.0</ele><time>2026-04-07T09:52:32.963Z</time></trkpt><trkpt lat="45.7549483" lon="11.19668"><ele>1097.0</ele><time>2026-04-07T09:52:33.963Z</time></trkpt><trkpt lat="45.75494" lon="11.1967733"><ele>1097.0</ele><time>2026-04-07T09:52:34.964Z</time></trkpt><trkpt lat="45.7549383" lon="11.1968667"><ele>1097.0</ele><time>2026-04-07T09:52:35.963Z</time></trkpt><trkpt lat="45.7549467" lon="11.1969733"><ele>1096.3333333333335</ele><time>2026-04-07T09:52:36.964Z</time></trkpt><trkpt lat="45.754965" lon="11.19709"><ele>1095.6666666666667</ele><time>2026-04-07T09:52:37.964Z</time></trkpt><trkpt lat="45.754985" lon="11.1972083"><ele>1095.0</ele><time>2026-04-07T09:52:38.964Z</time></trkpt><trkpt lat="45.754995" lon="11.1973117"><ele>1094.3333333333333</ele><time>2026-04-07T09:52:39.964Z</time></trkpt><trkpt lat="45.755" lon="11.1974083"><ele>1093.6666666666665</ele><time>2026-04-07T09:52:40.963Z</time></trkpt><trkpt lat="45.7550333" lon="11.1975617"><ele>1093.0</ele><time>2026-04-07T09:52:42.964Z</time></trkpt><trkpt lat="45.7551033" lon="11.19765"><ele>1093.0</ele><time>2026-04-07T09:52:44.964Z</time></trkpt><trkpt lat="45.755165" lon="11.1976983"><ele>1093.0</ele><time>2026-04-07T09:52:45.964Z</time></trkpt><trkpt lat="45.7552217" lon="11.1977533"><ele>1093.0</ele><time>2026-04-07T09:52:46.963Z</time></trkpt><trkpt lat="45.7552783" lon="11.1978283"><ele>1093.0</ele><time>2026-04-07T09:52:47.964Z</time></trkpt><trkpt lat="45.7553183" lon="11.1979167"><ele>1093.0</ele><time>2026-04-07T09:52:48.964Z</time></trkpt><trkpt lat="45.755355" lon="11.1979933"><ele>1093.0</ele><time>2026-04-07T09:52:49.964Z</time></trkpt><trkpt lat="45.755425" lon="11.1980667"><ele>1093.0</ele><time>2026-04-07T09:52:51.964Z</time></trkpt><trkpt lat="45.75546" lon="11.1981533"><ele>1093.0</ele><time>2026-04-07T09:52:54.964Z</time></trkpt><trkpt lat="45.7553717" lon="11.1981417"><ele>1093.0</ele><time>2026-04-07T09:52:57.964Z</time></trkpt><trkpt lat="45.7552833" lon="11.19806"><ele>1093.0</ele><time>2026-04-07T09:52:59.963Z</time></trkpt><trkpt lat="45.7551817" lon="11.1979633"><ele>1093.0</ele><time>2026-04-07T09:53:01.963Z</time></trkpt><trkpt lat="45.75512" lon="11.19794"><ele>1093.0</ele><time>2026-04-07T09:53:02.964Z</time></trkpt><trkpt lat="45.7550033" lon="11.1979767"><ele>1091.5</ele><time>2026-04-07T09:53:04.963Z</time></trkpt><trkpt lat="45.75491" lon="11.1980933"><ele>1090.0</ele><time>2026-04-07T09:53:06.964Z</time></trkpt><trkpt lat="45.754865" lon="11.19817"><ele>1088.5</ele><time>2026-04-07T09:53:07.963Z</time></trkpt><trkpt lat="45.75481" lon="11.1982483"><ele>1087.0</ele><time>2026-04-07T09:53:08.964Z</time></trkpt><trkpt lat="45.7547567" lon="11.1983"><ele>1085.5</ele><time>2026-04-07T09:53:09.963Z</time></trkpt><trkpt lat="45.7546933" lon="11.1983467"><ele>1084.0</ele><time>2026-04-07T09:53:10.964Z</time></trkpt><trkpt lat="45.7546167" lon="11.1983917"><ele>1081.5</ele><time>2026-04-07T09:53:11.964Z</time></trkpt><trkpt lat="45.754535" lon="11.1984333"><ele>1079.0</ele><time>2026-04-07T09:53:12.964Z</time></trkpt><trkpt lat="45.7544533" lon="11.1984717"><ele>1076.5</ele><time>2026-04-07T09:53:13.964Z</time></trkpt><trkpt lat="45.7543833" lon="11.1984667"><ele>1074.0</ele><time>2026-04-07T09:53:14.963Z</time></trkpt><trkpt lat="45.7543033" lon="11.1984683"><ele>1071.5</ele><time>2026-04-07T09:53:15.964Z</time></trkpt><trkpt lat="45.75422" lon="11.19846"><ele>1069.0</ele><time>2026-04-07T09:53:16.964Z</time></trkpt><trkpt lat="45.754145" lon="11.1984467"><ele>1067.142857142857</ele><time>2026-04-07T09:53:17.964Z</time></trkpt><trkpt lat="45.7540717" lon="11.1984517"><ele>1065.2857142857144</ele><time>2026-04-07T09:53:18.964Z</time></trkpt><trkpt lat="45.754" lon="11.1984683"><ele>1063.4285714285716</ele><time>2026-04-07T09:53:19.963Z</time></trkpt><trkpt lat="45.7539383" lon="11.1984917"><ele>1061.5714285714287</ele><time>2026-04-07T09:53:20.963Z</time></trkpt><trkpt lat="45.7538683" lon="11.1984583"><ele>1059.7142857142858</ele><time>2026-04-07T09:53:22.964Z</time></trkpt><trkpt lat="45.7539133" lon="11.198385"><ele>1057.857142857143</ele><time>2026-04-07T09:53:25.963Z</time></trkpt><trkpt lat="45.7540067" lon="11.1983783"><ele>1056.0</ele><time>2026-04-07T09:53:27.963Z</time></trkpt><trkpt lat="45.7540833" lon="11.1983633"><ele>1056.0</ele><time>2026-04-07T09:53:28.964Z</time></trkpt><trkpt lat="45.754165" lon="11.1983467"><ele>1056.0</ele><time>2026-04-07T09:53:29.964Z</time></trkpt><trkpt lat="45.754235" lon="11.1983283"><ele>1056.0</ele><time>2026-04-07T09:53:30.964Z</time></trkpt><trkpt lat="45.7543367" lon="11.1982283"><ele>1056.0</ele><time>2026-04-07T09:53:32.964Z</time></trkpt><trkpt lat="45.7543683" lon="11.1981267"><ele>1056.0</ele><time>2026-04-07T09:53:33.964Z</time></trkpt><trkpt lat="45.75439" lon="11.1979717"><ele>1055.8</ele><time>2026-04-07T09:53:34.964Z</time></trkpt><trkpt lat="45.7543867" lon="11.1977983"><ele>1055.6</ele><time>2026-04-07T09:53:35.964Z</time></trkpt><trkpt lat="45.75438" lon="11.1976417"><ele>1055.4</ele><time>2026-04-07T09:53:36.964Z</time></trkpt><trkpt lat="45.7543617" lon="11.1975033"><ele>1055.2</ele><time>2026-04-07T09:53:37.963Z</time></trkpt><trkpt lat="45.7543467" lon="11.1973767"><ele>1055.0</ele><time>2026-04-07T09:53:38.964Z</time></trkpt><trkpt lat="45.7543083" lon="11.1972833"><ele>1059.0</ele><time>2026-04-07T09:53:39.964Z</time></trkpt><trkpt lat="45.7542567" lon="11.1972067"><ele>1063.0</ele><time>2026-04-07T09:53:40.963Z</time></trkpt><trkpt lat="45.7541967" lon="11.1971533"><ele>1067.0</ele><time>2026-04-07T09:53:41.963Z</time></trkpt><trkpt lat="45.7541117" lon="11.1971383"><ele>1071.0</ele><time>2026-04-07T09:53:42.964Z</time></trkpt><trkpt lat="45.7540317" lon="11.1971583"><ele>1075.0</ele><time>2026-04-07T09:53:43.964Z</time></trkpt><trkpt lat="45.75395" lon="11.1972133"><ele>1079.0</ele><time>2026-04-07T09:53:44.964Z</time></trkpt><trkpt lat="45.7538783" lon="11.197255"><ele>1079.0</ele><time>2026-04-07T09:53:45.963Z</time></trkpt><trkpt lat="45.7538017" lon="11.1972617"><ele>1079.0</ele><time>2026-04-07T09:53:46.964Z</time></trkpt><trkpt lat="45.7537217" lon="11.1972333"><ele>1079.0</ele><time>2026-04-07T09:53:47.963Z</time></trkpt><trkpt lat="45.753635" lon="11.197185"><ele>1079.0</ele><time>2026-04-07T09:53:48.964Z</time></trkpt><trkpt lat="45.753535" lon="11.1971333"><ele>1079.0</ele><time>2026-04-07T09:53:49.964Z</time></trkpt><trkpt lat="45.7534517" lon="11.197105"><ele>1079.0</ele><time>2026-04-07T09:53:50.964Z</time></trkpt><trkpt lat="45.75338" lon="11.1970917"><ele>1074.0</ele><time>2026-04-07T09:53:51.964Z</time></trkpt><trkpt lat="45.7533167" lon="11.1970583"><ele>1069.0</ele><time>2026-04-07T09:53:52.964Z</time></trkpt><trkpt lat="45.7532433" lon="11.1969983"><ele>1064.0</ele><time>2026-04-07T09:53:53.964Z</time></trkpt><trkpt lat="45.753155" lon="11.196905"><ele>1059.0</ele><time>2026-04-07T09:53:54.964Z</time></trkpt><trkpt lat="45.7530617" lon="11.1968067"><ele>1054.0</ele><time>2026-04-07T09:53:55.963Z</time></trkpt><trkpt lat="45.752955" lon="11.196715"><ele>1054.0</ele><time>2026-04-07T09:53:56.964Z</time></trkpt><trkpt lat="45.7528583" lon="11.196645"><ele>1054.0</ele><time>2026-04-07T09:53:57.963Z</time></trkpt><trkpt lat="45.75276" lon="11.19658"><ele>1054.0</ele><time>2026-04-07T09:53:58.964Z</time></trkpt><trkpt lat="45.7526533" lon="11.1965133"><ele>1054.0</ele><time>2026-04-07T09:53:59.963Z</time></trkpt><trkpt lat="45.7525583" lon="11.1964617"><ele>1054.0</ele><time>2026-04-07T09:54:00.963Z</time></trkpt><trkpt lat="45.7524667" lon="11.196425"><ele>1056.8333333333333</ele><time>2026-04-07T09:54:01.963Z</time></trkpt><trkpt lat="45.752375" lon="11.1964133"><ele>1059.6666666666665</ele><time>2026-04-07T09:54:02.964Z</time></trkpt><trkpt lat="45.75229" lon="11.1964117"><ele>1062.5</ele><time>2026-04-07T09:54:03.963Z</time></trkpt><trkpt lat="45.752195" lon="11.1964333"><ele>1065.3333333333333</ele><time>2026-04-07T09:54:04.964Z</time></trkpt><trkpt lat="45.7521133" lon="11.19646"><ele>1068.1666666666667</ele><time>2026-04-07T09:54:05.964Z</time></trkpt><trkpt lat="45.7520483" lon="11.1964833"><ele>1071.0</ele><time>2026-04-07T09:54:06.963Z</time></trkpt><trkpt lat="45.7519817" lon="11.1964983"><ele>1071.0</ele><time>2026-04-07T09:54:07.964Z</time></trkpt><trkpt lat="45.7519167" lon="11.1964833"><ele>1071.0</ele><time>2026-04-07T09:54:08.964Z</time></trkpt><trkpt lat="45.751855" lon="11.19645"><ele>1071.0</ele><time>2026-04-07T09:54:09.964Z</time></trkpt><trkpt lat="45.751785" lon="11.1964017"><ele>1071.0</ele><time>2026-04-07T09:54:10.964Z</time></trkpt><trkpt lat="45.7516967" lon="11.19634"><ele>1071.0</ele><time>2026-04-07T09:54:11.963Z</time></trkpt><trkpt lat="45.75159" lon="11.1962733"><ele>1071.0</ele><time>2026-04-07T09:54:12.964Z</time></trkpt><trkpt lat="45.7514633" lon="11.196225"><ele>1066.8</ele><time>2026-04-07T09:54:13.964Z</time></trkpt><trkpt lat="45.7513483" lon="11.1962067"><ele>1062.6</ele><time>2026-04-07T09:54:14.964Z</time></trkpt><trkpt lat="45.7512433" lon="11.1962383"><ele>1058.4</ele><time>2026-04-07T09:54:15.964Z</time></trkpt><trkpt lat="45.7511533" lon="11.196265"><ele>1054.2</ele><time>2026-04-07T09:54:16.963Z</time></trkpt><trkpt lat="45.75108" lon="11.196275"><ele>1050.0</ele><time>2026-04-07T09:54:17.964Z</time></trkpt><trkpt lat="45.7510133" lon="11.19626"><ele>1051.4</ele><time>2026-04-07T09:54:18.964Z</time></trkpt><trkpt lat="45.750945" lon="11.1962067"><ele>1052.8</ele><time>2026-04-07T09:54:19.964Z</time></trkpt><trkpt lat="45.75086" lon="11.1961183"><ele>1054.2</ele><time>2026-04-07T09:54:20.964Z</time></trkpt><trkpt lat="45.7507717" lon="11.19598"><ele>1055.6</ele><time>2026-04-07T09:54:21.964Z</time></trkpt><trkpt lat="45.7506983" lon="11.19582"><ele>1057.0</ele><time>2026-04-07T09:54:22.964Z</time></trkpt><trkpt lat="45.7506467" lon="11.19567"><ele>1057.0</ele><time>2026-04-07T09:54:23.964Z</time></trkpt><trkpt lat="45.7505917" lon="11.1955383"><ele>1057.0</ele><time>2026-04-07T09:54:24.964Z</time></trkpt><trkpt lat="45.7505167" lon="11.1954033"><ele>1057.0</ele><time>2026-04-07T09:54:25.964Z</time></trkpt><trkpt lat="45.7504317" lon="11.19527"><ele>1057.0</ele><time>2026-04-07T09:54:26.963Z</time></trkpt><trkpt lat="45.7503483" lon="11.1951317"><ele>1057.0</ele><time>2026-04-07T09:54:27.964Z</time></trkpt><trkpt lat="45.750275" lon="11.1949983"><ele>1057.0</ele><time>2026-04-07T09:54:28.964Z</time></trkpt><trkpt lat="45.7502017" lon="11.1948867"><ele>1057.0</ele><time>2026-04-07T09:54:29.964Z</time></trkpt><trkpt lat="45.750125" lon="11.1948017"><ele>1057.0</ele><time>2026-04-07T09:54:30.964Z</time></trkpt><trkpt lat="45.7500183" lon="11.1947367"><ele>1057.0</ele><time>2026-04-07T09:54:31.964Z</time></trkpt><trkpt lat="45.7498933" lon="11.1946867"><ele>1058.25</ele><time>2026-04-07T09:54:32.964Z</time></trkpt><trkpt lat="45.74977" lon="11.1946783"><ele>1059.5</ele><time>2026-04-07T09:54:33.964Z</time></trkpt><trkpt lat="45.74965" lon="11.1947083"><ele>1060.75</ele><time>2026-04-07T09:54:34.964Z</time></trkpt><trkpt lat="45.749525" lon="11.1947967"><ele>1062.0</ele><time>2026-04-07T09:54:35.964Z</time></trkpt><trkpt lat="45.7494117" lon="11.1949117"><ele>1054.6</ele><time>2026-04-07T09:54:36.964Z</time></trkpt><trkpt lat="45.74932" lon="11.1950117"><ele>1047.2</ele><time>2026-04-07T09:54:37.963Z</time></trkpt><trkpt lat="45.74923" lon="11.1951133"><ele>1039.8</ele><time>2026-04-07T09:54:38.964Z</time></trkpt><trkpt lat="45.7491417" lon="11.1952033"><ele>1032.4</ele><time>2026-04-07T09:54:39.964Z</time></trkpt><trkpt lat="45.7490633" lon="11.1952567"><ele>1025.0</ele><time>2026-04-07T09:54:40.963Z</time></trkpt><trkpt lat="45.7489933" lon="11.195275"><ele>1025.0</ele><time>2026-04-07T09:54:41.963Z</time></trkpt><trkpt lat="45.7489283" lon="11.1952617"><ele>1025.0</ele><time>2026-04-07T09:54:42.963Z</time></trkpt><trkpt lat="45.748845" lon="11.195215"><ele>1025.0</ele><time>2026-04-07T09:54:43.963Z</time></trkpt><trkpt lat="45.7487267" lon="11.1951583"><ele>1025.0</ele><time>2026-04-07T09:54:44.963Z</time></trkpt><trkpt lat="45.7485917" lon="11.1951083"><ele>1025.0</ele><time>2026-04-07T09:54:45.963Z</time></trkpt><trkpt lat="45.7484617" lon="11.195075"><ele>1025.0</ele><time>2026-04-07T09:54:46.963Z</time></trkpt><trkpt lat="45.7483433" lon="11.195065"><ele>1025.0</ele><time>2026-04-07T09:54:47.963Z</time></trkpt><trkpt lat="45.7482417" lon="11.1950817"><ele>1025.0</ele><time>2026-04-07T09:54:48.963Z</time></trkpt><trkpt lat="45.7481383" lon="11.195115"><ele>1025.0</ele><time>2026-04-07T09:54:49.963Z</time></trkpt><trkpt lat="45.7480467" lon="11.195115"><ele>1025.0</ele><time>2026-04-07T09:54:50.963Z</time></trkpt><trkpt lat="45.7479633" lon="11.19511"><ele>1025.0</ele><time>2026-04-07T09:54:51.963Z</time></trkpt><trkpt lat="45.74789" lon="11.195115"><ele>1025.0</ele><time>2026-04-07T09:54:52.963Z</time></trkpt><trkpt lat="45.7478217" lon="11.1951267"><ele>1025.0</ele><time>2026-04-07T09:54:53.963Z</time></trkpt><trkpt lat="45.7477133" lon="11.1952033"><ele>1025.0</ele><time>2026-04-07T09:54:55.963Z</time></trkpt><trkpt lat="45.7476767" lon="11.195305"><ele>1025.0</ele><time>2026-04-07T09:54:56.962Z</time></trkpt><trkpt lat="45.74766" lon="11.1954167"><ele>1025.0</ele><time>2026-04-07T09:54:57.962Z</time></trkpt><trkpt lat="45.7476467" lon="11.1955083"><ele>1022.6666666666667</ele><time>2026-04-07T09:54:58.962Z</time></trkpt><trkpt lat="45.7476167" lon="11.19562"><ele>1020.3333333333334</ele><time>2026-04-07T09:54:59.963Z</time></trkpt><trkpt lat="45.7475583" lon="11.1957267"><ele>1018.0</ele><time>2026-04-07T09:55:00.963Z</time></trkpt><trkpt lat="45.7474867" lon="11.1958"><ele>1015.6666666666667</ele><time>2026-04-07T09:55:01.963Z</time></trkpt><trkpt lat="45.747405" lon="11.1958483"><ele>1013.3333333333334</ele><time>2026-04-07T09:55:02.962Z</time></trkpt><trkpt lat="45.7473233" lon="11.1958733"><ele>1011.0</ele><time>2026-04-07T09:55:03.963Z</time></trkpt><trkpt lat="45.7472433" lon="11.19586"><ele>1011.0</ele><time>2026-04-07T09:55:04.962Z</time></trkpt><trkpt lat="45.7471633" lon="11.1958183"><ele>1011.0</ele><time>2026-04-07T09:55:05.962Z</time></trkpt><trkpt lat="45.74708" lon="11.1958033"><ele>1011.0</ele><time>2026-04-07T09:55:06.963Z</time></trkpt><trkpt lat="45.7470083" lon="11.19582"><ele>1011.0</ele><time>2026-04-07T09:55:07.962Z</time></trkpt><trkpt lat="45.7469317" lon="11.1958633"><ele>1011.0</ele><time>2026-04-07T09:55:08.962Z</time></trkpt><trkpt lat="45.7468667" lon="11.1959367"><ele>1011.0</ele><time>2026-04-07T09:55:09.962Z</time></trkpt><trkpt lat="45.7467867" lon="11.1960283"><ele>1017.25</ele><time>2026-04-07T09:55:10.962Z</time></trkpt><trkpt lat="45.7466833" lon="11.1961167"><ele>1023.5</ele><time>2026-04-07T09:55:11.963Z</time></trkpt><trkpt lat="45.7465583" lon="11.1962117"><ele>1029.75</ele><time>2026-04-07T09:55:12.962Z</time></trkpt><trkpt lat="45.7464367" lon="11.19631"><ele>1036.0</ele><time>2026-04-07T09:55:13.963Z</time></trkpt><trkpt lat="45.746325" lon="11.1963883"><ele>1036.0</ele><time>2026-04-07T09:55:14.963Z</time></trkpt><trkpt lat="45.746225" lon="11.19646"><ele>1036.0</ele><time>2026-04-07T09:55:15.962Z</time></trkpt><trkpt lat="45.7461433" lon="11.1965383"><ele>1036.0</ele><time>2026-04-07T09:55:16.963Z</time></trkpt><trkpt lat="45.7460617" lon="11.19662"><ele>1036.0</ele><time>2026-04-07T09:55:17.962Z</time></trkpt><trkpt lat="45.7459817" lon="11.196685"><ele>1036.0</ele><time>2026-04-07T09:55:18.963Z</time></trkpt><trkpt lat="45.7458733" lon="11.1966817"><ele>1034.5</ele><time>2026-04-07T09:55:20.963Z</time></trkpt><trkpt lat="45.74576" lon="11.1965967"><ele>1033.0</ele><time>2026-04-07T09:55:22.963Z</time></trkpt><trkpt lat="45.7456817" lon="11.19649"><ele>1031.5</ele><time>2026-04-07T09:55:23.963Z</time></trkpt><trkpt lat="45.7455817" lon="11.1963683"><ele>1030.0</ele><time>2026-04-07T09:55:24.962Z</time></trkpt><trkpt lat="45.745485" lon="11.1962667"><ele>1030.0</ele><time>2026-04-07T09:55:25.963Z</time></trkpt><trkpt lat="45.7454067" lon="11.1961817"><ele>1030.0</ele><time>2026-04-07T09:55:26.963Z</time></trkpt><trkpt lat="45.7453417" lon="11.196115"><ele>1030.0</ele><time>2026-04-07T09:55:27.963Z</time></trkpt><trkpt lat="45.7452983" lon="11.1960067"><ele>1030.0</ele><time>2026-04-07T09:55:29.963Z</time></trkpt><trkpt lat="45.74532" lon="11.195855"><ele>1030.0</ele><time>2026-04-07T09:55:31.963Z</time></trkpt><trkpt lat="45.74534" lon="11.19573"><ele>1035.5</ele><time>2026-04-07T09:55:32.963Z</time></trkpt><trkpt lat="45.7453483" lon="11.19556"><ele>1041.0</ele><time>2026-04-07T09:55:33.962Z</time></trkpt><trkpt lat="45.745345" lon="11.19538"><ele>1046.5</ele><time>2026-04-07T09:55:34.963Z</time></trkpt><trkpt lat="45.74533" lon="11.1951933"><ele>1052.0</ele><time>2026-04-07T09:55:35.963Z</time></trkpt><trkpt lat="45.7452867" lon="11.1950117"><ele>1057.75</ele><time>2026-04-07T09:55:36.962Z</time></trkpt><trkpt lat="45.74523" lon="11.19482"><ele>1063.5</ele><time>2026-04-07T09:55:37.963Z</time></trkpt><trkpt lat="45.7451717" lon="11.1946467"><ele>1069.25</ele><time>2026-04-07T09:55:38.963Z</time></trkpt><trkpt lat="45.745115" lon="11.1944783"><ele>1075.0</ele><time>2026-04-07T09:55:39.963Z</time></trkpt><trkpt lat="45.74506" lon="11.1943233"><ele>1067.8</ele><time>2026-04-07T09:55:40.963Z</time></trkpt><trkpt lat="45.7450233" lon="11.194175"><ele>1060.6</ele><time>2026-04-07T09:55:41.963Z</time></trkpt><trkpt lat="45.74499" lon="11.1940383"><ele>1053.4</ele><time>2026-04-07T09:55:42.963Z</time></trkpt><trkpt lat="45.7449617" lon="11.193925"><ele>1046.2</ele><time>2026-04-07T09:55:43.963Z</time></trkpt><trkpt lat="45.7449217" lon="11.1938083"><ele>1039.0</ele><time>2026-04-07T09:55:44.963Z</time></trkpt><trkpt lat="45.7448767" lon="11.1937117"><ele>1039.0</ele><time>2026-04-07T09:55:45.963Z</time></trkpt><trkpt lat="45.74482" lon="11.1936233"><ele>1039.0</ele><time>2026-04-07T09:55:46.963Z</time></trkpt><trkpt lat="45.7447367" lon="11.193575"><ele>1039.0</ele><time>2026-04-07T09:55:47.963Z</time></trkpt><trkpt lat="45.7446433" lon="11.1935333"><ele>1039.0</ele><time>2026-04-07T09:55:48.963Z</time></trkpt><trkpt lat="45.7445417" lon="11.193495"><ele>1039.0</ele><time>2026-04-07T09:55:49.962Z</time></trkpt><trkpt lat="45.7444567" lon="11.193455"><ele>1036.6000000000001</ele><time>2026-04-07T09:55:50.963Z</time></trkpt><trkpt lat="45.7443683" lon="11.1933967"><ele>1034.2</ele><time>2026-04-07T09:55:51.962Z</time></trkpt><trkpt lat="45.744285" lon="11.19332"><ele>1031.8000000000002</ele><time>2026-04-07T09:55:52.963Z</time></trkpt><trkpt lat="45.7442067" lon="11.1932317"><ele>1029.4</ele><time>2026-04-07T09:55:53.963Z</time></trkpt><trkpt lat="45.7441367" lon="11.193165"><ele>1027.0</ele><time>2026-04-07T09:55:54.963Z</time></trkpt><trkpt lat="45.744075" lon="11.1931067"><ele>1027.0</ele><time>2026-04-07T09:55:55.963Z</time></trkpt><trkpt lat="45.74402" lon="11.1930617"><ele>1027.0</ele><time>2026-04-07T09:55:56.963Z</time></trkpt><trkpt lat="45.7439467" lon="11.19306"><ele>1027.0</ele><time>2026-04-07T09:55:58.962Z</time></trkpt><trkpt lat="45.7438967" lon="11.1931383"><ele>1027.0</ele><time>2026-04-07T09:56:00.963Z</time></trkpt><trkpt lat="45.743925" lon="11.193255"><ele>1027.0</ele><time>2026-04-07T09:56:02.962Z</time></trkpt><trkpt lat="45.7439883" lon="11.1932833"><ele>1027.0</ele><time>2026-04-07T09:56:04.963Z</time></trkpt><trkpt lat="45.7439067" lon="11.1933283"><ele>1022.2</ele><time>2026-04-07T09:56:11.963Z</time></trkpt><trkpt lat="45.7438433" lon="11.1933133"><ele>1017.4000000000001</ele><time>2026-04-07T09:56:12.963Z</time></trkpt><trkpt lat="45.74375" lon="11.193295"><ele>1012.5999999999999</ele><time>2026-04-07T09:56:13.963Z</time></trkpt><trkpt lat="45.74363" lon="11.1932683"><ele>1007.8</ele><time>2026-04-07T09:56:14.963Z</time></trkpt><trkpt lat="45.7434833" lon="11.1932383"><ele>1003.0</ele><time>2026-04-07T09:56:15.963Z</time></trkpt><trkpt lat="45.7433367" lon="11.1932083"><ele>1003.0</ele><time>2026-04-07T09:56:16.963Z</time></trkpt><trkpt lat="45.7432083" lon="11.193175"><ele>1003.0</ele><time>2026-04-07T09:56:17.962Z</time></trkpt><trkpt lat="45.743105" lon="11.1931467"><ele>1003.0</ele><time>2026-04-07T09:56:18.962Z</time></trkpt><trkpt lat="45.743" lon="11.1931283"><ele>1003.0</ele><time>2026-04-07T09:56:19.962Z</time></trkpt><trkpt lat="45.7429017" lon="11.193115"><ele>1003.0</ele><time>2026-04-07T09:56:20.963Z</time></trkpt><trkpt lat="45.742805" lon="11.1931017"><ele>1002.9999999999999</ele><time>2026-04-07T09:56:21.963Z</time></trkpt><trkpt lat="45.7427283" lon="11.1930817"><ele>1003.0</ele><time>2026-04-07T09:56:22.963Z</time></trkpt><trkpt lat="45.7426617" lon="11.1930667"><ele>1003.0</ele><time>2026-04-07T09:56:23.963Z</time></trkpt><trkpt lat="45.742555" lon="11.1930717"><ele>1003.0</ele><time>2026-04-07T09:56:25.963Z</time></trkpt><trkpt lat="45.742525" lon="11.19317"><ele>1002.9999999999999</ele><time>2026-04-07T09:56:27.963Z</time></trkpt><trkpt lat="45.7425617" lon="11.1932933"><ele>1003.0</ele><time>2026-04-07T09:56:29.963Z</time></trkpt><trkpt lat="45.7426033" lon="11.1933733"><ele>999.4</ele><time>2026-04-07T09:56:30.962Z</time></trkpt><trkpt lat="45.7426617" lon="11.1934633"><ele>995.8</ele><time>2026-04-07T09:56:31.962Z</time></trkpt><trkpt lat="45.7427333" lon="11.1935717"><ele>992.2</ele><time>2026-04-07T09:56:32.963Z</time></trkpt><trkpt lat="45.7428167" lon="11.1936617"><ele>988.6</ele><time>2026-04-07T09:56:33.963Z</time></trkpt><trkpt lat="45.7429067" lon="11.19374"><ele>985.0</ele><time>2026-04-07T09:56:34.963Z</time></trkpt><trkpt lat="45.74299" lon="11.19383"><ele>984.9999999999999</ele><time>2026-04-07T09:56:35.962Z</time></trkpt><trkpt lat="45.7430667" lon="11.1939017"><ele>985.0</ele><time>2026-04-07T09:56:36.963Z</time></trkpt><trkpt lat="45.7431633" lon="11.1939517"><ele>985.0</ele><time>2026-04-07T09:56:37.963Z</time></trkpt><trkpt lat="45.7432383" lon="11.1940217"><ele>985.0</ele><time>2026-04-07T09:56:38.963Z</time></trkpt><trkpt lat="45.7433133" lon="11.1940817"><ele>984.9999999999999</ele><time>2026-04-07T09:56:39.963Z</time></trkpt><trkpt lat="45.74338" lon="11.1941433"><ele>985.0</ele><time>2026-04-07T09:56:40.962Z</time></trkpt><trkpt lat="45.7434383" lon="11.194195"><ele>979.2</ele><time>2026-04-07T09:56:41.963Z</time></trkpt><trkpt lat="45.7435067" lon="11.194295"><ele>973.4</ele><time>2026-04-07T09:56:43.962Z</time></trkpt><trkpt lat="45.7435083" lon="11.1943867"><ele>967.5999999999999</ele><time>2026-04-07T09:56:45.962Z</time></trkpt><trkpt lat="45.74345" lon="11.19443"><ele>961.8</ele><time>2026-04-07T09:56:47.963Z</time></trkpt><trkpt lat="45.74331" lon="11.1943983"><ele>956.0</ele><time>2026-04-07T09:56:49.963Z</time></trkpt><trkpt lat="45.7432283" lon="11.1943867"><ele>956.0000000000001</ele><time>2026-04-07T09:56:50.963Z</time></trkpt><trkpt lat="45.7431517" lon="11.1944"><ele>956.0</ele><time>2026-04-07T09:56:51.963Z</time></trkpt><trkpt lat="45.7430767" lon="11.1944483"><ele>956.0</ele><time>2026-04-07T09:56:52.963Z</time></trkpt><trkpt lat="45.7429967" lon="11.19451"><ele>956.0</ele><time>2026-04-07T09:56:53.963Z</time></trkpt><trkpt lat="45.74292" lon="11.1945683"><ele>956.0000000000001</ele><time>2026-04-07T09:56:54.963Z</time></trkpt><trkpt lat="45.7428283" lon="11.19463"><ele>956.0</ele><time>2026-04-07T09:56:55.962Z</time></trkpt><trkpt lat="45.742655" lon="11.194725"><ele>954.6666666666667</ele><time>2026-04-07T09:56:57.963Z</time></trkpt><trkpt lat="45.7425683" lon="11.19476"><ele>953.3333333333334</ele><time>2026-04-07T09:56:58.963Z</time></trkpt><trkpt lat="45.7424883" lon="11.1947883"><ele>952.0</ele><time>2026-04-07T09:56:59.963Z</time></trkpt><trkpt lat="45.74241" lon="11.1948167"><ele>950.6666666666667</ele><time>2026-04-07T09:57:00.963Z</time></trkpt><trkpt lat="45.7423183" lon="11.1948433"><ele>949.3333333333334</ele><time>2026-04-07T09:57:01.963Z</time></trkpt><trkpt lat="45.7422317" lon="11.1948617"><ele>948.0</ele><time>2026-04-07T09:57:02.963Z</time></trkpt><trkpt lat="45.742145" lon="11.1948833"><ele>944.6666666666666</ele><time>2026-04-07T09:57:03.963Z</time></trkpt><trkpt lat="45.7420533" lon="11.1949033"><ele>941.3333333333333</ele><time>2026-04-07T09:57:04.963Z</time></trkpt><trkpt lat="45.7419617" lon="11.19493"><ele>938.0</ele><time>2026-04-07T09:57:05.963Z</time></trkpt><trkpt lat="45.741875" lon="11.1949617"><ele>934.6666666666666</ele><time>2026-04-07T09:57:06.963Z</time></trkpt><trkpt lat="45.7418" lon="11.1949883"><ele>931.3333333333333</ele><time>2026-04-07T09:57:07.962Z</time></trkpt><trkpt lat="45.7417283" lon="11.1950017"><ele>928.0</ele><time>2026-04-07T09:57:08.962Z</time></trkpt><trkpt lat="45.7416633" lon="11.1950217"><ele>925.2</ele><time>2026-04-07T09:57:09.963Z</time></trkpt><trkpt lat="45.7415867" lon="11.1950767"><ele>922.4</ele><time>2026-04-07T09:57:11.962Z</time></trkpt><trkpt lat="45.7415783" lon="11.195205"><ele>919.6000000000001</ele><time>2026-04-07T09:57:13.963Z</time></trkpt><trkpt lat="45.7416267" lon="11.195375"><ele>916.8000000000001</ele><time>2026-04-07T09:57:15.963Z</time></trkpt><trkpt lat="45.7416667" lon="11.1954717"><ele>914.0</ele><time>2026-04-07T09:57:16.963Z</time></trkpt><trkpt lat="45.741725" lon="11.1955767"><ele>914.0000000000001</ele><time>2026-04-07T09:57:17.963Z</time></trkpt><trkpt lat="45.7417783" lon="11.1956667"><ele>914.0</ele><time>2026-04-07T09:57:18.963Z</time></trkpt><trkpt lat="45.741825" lon="11.1957483"><ele>914.0</ele><time>2026-04-07T09:57:19.963Z</time></trkpt><trkpt lat="45.7418983" lon="11.1958733"><ele>914.0</ele><time>2026-04-07T09:57:21.963Z</time></trkpt><trkpt lat="45.7418967" lon="11.195965"><ele>914.0000000000001</ele><time>2026-04-07T09:57:23.963Z</time></trkpt><trkpt lat="45.7418517" lon="11.1960333"><ele>914.0</ele><time>2026-04-07T09:57:25.963Z</time></trkpt><trkpt lat="45.741735" lon="11.1960533"><ele>910.4000000000001</ele><time>2026-04-07T09:57:27.963Z</time></trkpt><trkpt lat="45.74165" lon="11.196065"><ele>906.8000000000001</ele><time>2026-04-07T09:57:28.963Z</time></trkpt><trkpt lat="45.7415483" lon="11.1960817"><ele>903.1999999999999</ele><time>2026-04-07T09:57:29.963Z</time></trkpt><trkpt lat="45.7414467" lon="11.196115"><ele>899.5999999999999</ele><time>2026-04-07T09:57:30.962Z</time></trkpt><trkpt lat="45.74136" lon="11.1961367"><ele>896.0</ele><time>2026-04-07T09:57:31.963Z</time></trkpt><trkpt lat="45.7412867" lon="11.1961333"><ele>896.0</ele><time>2026-04-07T09:57:32.962Z</time></trkpt><trkpt lat="45.7412" lon="11.19607"><ele>895.9999999999999</ele><time>2026-04-07T09:57:34.963Z</time></trkpt><trkpt lat="45.7411633" lon="11.1959583"><ele>895.9999999999999</ele><time>2026-04-07T09:57:36.963Z</time></trkpt><trkpt lat="45.7411733" lon="11.1957633"><ele>896.0</ele><time>2026-04-07T09:57:38.963Z</time></trkpt><trkpt lat="45.7411817" lon="11.1956617"><ele>896.0</ele><time>2026-04-07T09:57:39.963Z</time></trkpt><trkpt lat="45.741175" lon="11.1955633"><ele>895.8</ele><time>2026-04-07T09:57:40.963Z</time></trkpt><trkpt lat="45.7411317" lon="11.195405"><ele>895.5999999999999</ele><time>2026-04-07T09:57:42.962Z</time></trkpt><trkpt lat="45.7410467" lon="11.1953317"><ele>895.4</ele><time>2026-04-07T09:57:44.962Z</time></trkpt><trkpt lat="45.7409567" lon="11.1953483"><ele>895.2</ele><time>2026-04-07T09:57:46.963Z</time></trkpt><trkpt lat="45.740845" lon="11.1953983"><ele>895.0</ele><time>2026-04-07T09:57:48.963Z</time></trkpt><trkpt lat="45.7407483" lon="11.1953767"><ele>895.0</ele><time>2026-04-07T09:57:50.963Z</time></trkpt><trkpt lat="45.7406467" lon="11.19529"><ele>895.0</ele><time>2026-04-07T09:57:52.962Z</time></trkpt><trkpt lat="45.7405333" lon="11.19527"><ele>895.0</ele><time>2026-04-07T09:57:54.963Z</time></trkpt><trkpt lat="45.7404233" lon="11.1953767"><ele>895.0</ele><time>2026-04-07T09:57:56.962Z</time></trkpt><trkpt lat="45.7403683" lon="11.1954233"><ele>895.0</ele><time>2026-04-07T09:57:57.963Z</time></trkpt><trkpt lat="45.740305" lon="11.19543"><ele>894.9999999999999</ele><time>2026-04-07T09:57:58.963Z</time></trkpt><trkpt lat="45.7402317" lon="11.1954017"><ele>895.0</ele><time>2026-04-07T09:57:59.963Z</time></trkpt><trkpt lat="45.7401533" lon="11.195335"><ele>895.0</ele><time>2026-04-07T09:58:00.962Z</time></trkpt><trkpt lat="45.7400733" lon="11.195245"><ele>895.0</ele><time>2026-04-07T09:58:01.963Z</time></trkpt><trkpt lat="45.7400117" lon="11.195165"><ele>894.9999999999999</ele><time>2026-04-07T09:58:02.963Z</time></trkpt><trkpt lat="45.7399567" lon="11.19511"><ele>895.0</ele><time>2026-04-07T09:58:03.963Z</time></trkpt><trkpt lat="45.7398617" lon="11.195075"><ele>894.4</ele><time>2026-04-07T09:58:05.962Z</time></trkpt><trkpt lat="45.739735" lon="11.1951217"><ele>893.8</ele><time>2026-04-07T09:58:07.963Z</time></trkpt><trkpt lat="45.7396667" lon="11.195185"><ele>893.2</ele><time>2026-04-07T09:58:08.962Z</time></trkpt><trkpt lat="45.7396067" lon="11.1952633"><ele>892.6</ele><time>2026-04-07T09:58:09.963Z</time></trkpt><trkpt lat="45.739555" lon="11.1953383"><ele>892.0</ele><time>2026-04-07T09:58:10.963Z</time></trkpt><trkpt lat="45.7394583" lon="11.1953867"><ele>893.2</ele><time>2026-04-07T09:58:12.962Z</time></trkpt><trkpt lat="45.7393467" lon="11.1953217"><ele>894.4000000000001</ele><time>2026-04-07T09:58:14.963Z</time></trkpt><trkpt lat="45.739265" lon="11.1952517"><ele>895.5999999999999</ele><time>2026-04-07T09:58:15.962Z</time></trkpt><trkpt lat="45.7391633" lon="11.1951817"><ele>896.8</ele><time>2026-04-07T09:58:16.963Z</time></trkpt><trkpt lat="45.73905" lon="11.1951483"><ele>898.0</ele><time>2026-04-07T09:58:17.962Z</time></trkpt><trkpt lat="45.7389517" lon="11.19515"><ele>898.0</ele><time>2026-04-07T09:58:18.963Z</time></trkpt><trkpt lat="45.7388517" lon="11.1951917"><ele>898.0</ele><time>2026-04-07T09:58:19.963Z</time></trkpt><trkpt lat="45.7387533" lon="11.1952533"><ele>898.0</ele><time>2026-04-07T09:58:20.962Z</time></trkpt><trkpt lat="45.738665" lon="11.19533"><ele>898.0</ele><time>2026-04-07T09:58:21.962Z</time></trkpt><trkpt lat="45.7385867" lon="11.195425"><ele>898.0</ele><time>2026-04-07T09:58:22.963Z</time></trkpt><trkpt lat="45.7385367" lon="11.1955317"><ele>896.6666666666666</ele><time>2026-04-07T09:58:23.963Z</time></trkpt><trkpt lat="45.7385067" lon="11.1956367"><ele>895.3333333333333</ele><time>2026-04-07T09:58:24.963Z</time></trkpt><trkpt lat="45.7384733" lon="11.195735"><ele>894.0</ele><time>2026-04-07T09:58:25.963Z</time></trkpt><trkpt lat="45.7383767" lon="11.19584"><ele>892.6666666666667</ele><time>2026-04-07T09:58:27.963Z</time></trkpt><trkpt lat="45.7383133" lon="11.195865"><ele>891.3333333333334</ele><time>2026-04-07T09:58:28.963Z</time></trkpt><trkpt lat="45.738225" lon="11.1958767"><ele>890.0</ele><time>2026-04-07T09:58:29.963Z</time></trkpt><trkpt lat="45.7381217" lon="11.1959067"><ele>890.0</ele><time>2026-04-07T09:58:30.963Z</time></trkpt><trkpt lat="45.738025" lon="11.1959533"><ele>890.0</ele><time>2026-04-07T09:58:31.962Z</time></trkpt><trkpt lat="45.73795" lon="11.1960217"><ele>890.0</ele><time>2026-04-07T09:58:32.962Z</time></trkpt><trkpt lat="45.7378783" lon="11.19612"><ele>890.0</ele><time>2026-04-07T09:58:33.963Z</time></trkpt><trkpt lat="45.73782" lon="11.196235"><ele>890.0</ele><time>2026-04-07T09:58:34.963Z</time></trkpt><trkpt lat="45.737765" lon="11.196355"><ele>890.0</ele><time>2026-04-07T09:58:35.963Z</time></trkpt><trkpt lat="45.7376967" lon="11.1964433"><ele>890.0</ele><time>2026-04-07T09:58:36.963Z</time></trkpt><trkpt lat="45.737625" lon="11.1965"><ele>890.0</ele><time>2026-04-07T09:58:37.962Z</time></trkpt><trkpt lat="45.7375483" lon="11.1965383"><ele>890.0</ele><time>2026-04-07T09:58:38.963Z</time></trkpt><trkpt lat="45.7374517" lon="11.196575"><ele>890.0</ele><time>2026-04-07T09:58:39.963Z</time></trkpt><trkpt lat="45.7373533" lon="11.19662"><ele>890.0</ele><time>2026-04-07T09:58:40.963Z</time></trkpt><trkpt lat="45.7372567" lon="11.1966783"><ele>890.0</ele><time>2026-04-07T09:58:41.963Z</time></trkpt><trkpt lat="45.7371667" lon="11.1967617"><ele>890.0</ele><time>2026-04-07T09:58:42.963Z</time></trkpt><trkpt lat="45.737075" lon="11.1968683"><ele>890.0</ele><time>2026-04-07T09:58:43.963Z</time></trkpt><trkpt lat="45.736995" lon="11.1969733"><ele>890.0</ele><time>2026-04-07T09:58:44.963Z</time></trkpt><trkpt lat="45.7369217" lon="11.1970633"><ele>892.6</ele><time>2026-04-07T09:58:45.963Z</time></trkpt><trkpt lat="45.7368517" lon="11.1971217"><ele>895.2</ele><time>2026-04-07T09:58:46.963Z</time></trkpt><trkpt lat="45.736765" lon="11.197155"><ele>897.8</ele><time>2026-04-07T09:58:47.963Z</time></trkpt><trkpt lat="45.7366533" lon="11.1971783"><ele>900.4</ele><time>2026-04-07T09:58:48.963Z</time></trkpt><trkpt lat="45.736535" lon="11.197175"><ele>903.0</ele><time>2026-04-07T09:58:49.963Z</time></trkpt><trkpt lat="45.7364267" lon="11.197175"><ele>903.0</ele><time>2026-04-07T09:58:50.963Z</time></trkpt><trkpt lat="45.7363433" lon="11.1971383"><ele>903.0</ele><time>2026-04-07T09:58:51.962Z</time></trkpt><trkpt lat="45.7362617" lon="11.1971267"><ele>903.0</ele><time>2026-04-07T09:58:52.962Z</time></trkpt><trkpt lat="45.7361867" lon="11.197135"><ele>903.0</ele><time>2026-04-07T09:58:53.962Z</time></trkpt><trkpt lat="45.7361183" lon="11.1971767"><ele>903.0</ele><time>2026-04-07T09:58:54.962Z</time></trkpt><trkpt lat="45.7360533" lon="11.1972567"><ele>903.0</ele><time>2026-04-07T09:58:55.963Z</time></trkpt><trkpt lat="45.7359817" lon="11.1973467"><ele>901.8</ele><time>2026-04-07T09:58:56.963Z</time></trkpt><trkpt lat="45.7359117" lon="11.1974433"><ele>900.5999999999999</ele><time>2026-04-07T09:58:57.963Z</time></trkpt><trkpt lat="45.7358333" lon="11.197525"><ele>899.4000000000001</ele><time>2026-04-07T09:58:58.962Z</time></trkpt><trkpt lat="45.735735" lon="11.1976083"><ele>898.2</ele><time>2026-04-07T09:58:59.963Z</time></trkpt><trkpt lat="45.735625" lon="11.197685"><ele>897.0</ele><time>2026-04-07T09:59:00.962Z</time></trkpt><trkpt lat="45.73552" lon="11.1977517"><ele>897.0</ele><time>2026-04-07T09:59:01.963Z</time></trkpt><trkpt lat="45.73543" lon="11.1978217"><ele>897.0</ele><time>2026-04-07T09:59:02.963Z</time></trkpt><trkpt lat="45.7353583" lon="11.1978817"><ele>897.0</ele><time>2026-04-07T09:59:03.962Z</time></trkpt><trkpt lat="45.735295" lon="11.1979167"><ele>897.0</ele><time>2026-04-07T09:59:04.963Z</time></trkpt><trkpt lat="45.735185" lon="11.1979167"><ele>897.0</ele><time>2026-04-07T09:59:06.963Z</time></trkpt><trkpt lat="45.7351267" lon="11.1978783"><ele>897.0</ele><time>2026-04-07T09:59:07.962Z</time></trkpt><trkpt lat="45.73505" lon="11.197825"><ele>900.4000000000001</ele><time>2026-04-07T09:59:08.963Z</time></trkpt><trkpt lat="45.7349567" lon="11.1977817"><ele>903.8000000000001</ele><time>2026-04-07T09:59:09.963Z</time></trkpt><trkpt lat="45.7348583" lon="11.1977467"><ele>907.2</ele><time>2026-04-07T09:59:10.963Z</time></trkpt><trkpt lat="45.73476" lon="11.1977567"><ele>910.6</ele><time>2026-04-07T09:59:11.963Z</time></trkpt><trkpt lat="45.7346567" lon="11.1978117"><ele>914.0</ele><time>2026-04-07T09:59:12.962Z</time></trkpt><trkpt lat="45.73458" lon="11.19788"><ele>914.0000000000001</ele><time>2026-04-07T09:59:13.963Z</time></trkpt><trkpt lat="45.7345117" lon="11.1979383"><ele>914.0</ele><time>2026-04-07T09:59:14.963Z</time></trkpt><trkpt lat="45.7344517" lon="11.1979783"><ele>914.0</ele><time>2026-04-07T09:59:15.962Z</time></trkpt><trkpt lat="45.7343767" lon="11.1980017"><ele>914.0</ele><time>2026-04-07T09:59:16.962Z</time></trkpt><trkpt lat="45.734285" lon="11.1980067"><ele>914.0000000000001</ele><time>2026-04-07T09:59:17.963Z</time></trkpt><trkpt lat="45.734185" lon="11.1979933"><ele>914.0</ele><time>2026-04-07T09:59:18.963Z</time></trkpt><trkpt lat="45.7340833" lon="11.1979717"><ele>915.0000000000001</ele><time>2026-04-07T09:59:19.963Z</time></trkpt><trkpt lat="45.7340017" lon="11.1979383"><ele>916.0</ele><time>2026-04-07T09:59:20.962Z</time></trkpt><trkpt lat="45.733935" lon="11.197895"><ele>917.0</ele><time>2026-04-07T09:59:21.962Z</time></trkpt><trkpt lat="45.73388" lon="11.1978233"><ele>918.0</ele><time>2026-04-07T09:59:22.962Z</time></trkpt><trkpt lat="45.7338217" lon="11.1977333"><ele>919.0000000000001</ele><time>2026-04-07T09:59:23.962Z</time></trkpt><trkpt lat="45.7337567" lon="11.1976517"><ele>920.0</ele><time>2026-04-07T09:59:24.962Z</time></trkpt><trkpt lat="45.7336933" lon="11.1975967"><ele>920.0</ele><time>2026-04-07T09:59:25.961Z</time></trkpt><trkpt lat="45.7336233" lon="11.1975617"><ele>920.0</ele><time>2026-04-07T09:59:26.961Z</time></trkpt><trkpt lat="45.7335267" lon="11.1975667"><ele>920.0</ele><time>2026-04-07T09:59:27.962Z</time></trkpt><trkpt lat="45.7334117" lon="11.1975883"><ele>920.0</ele><time>2026-04-07T09:59:28.962Z</time></trkpt><trkpt lat="45.733305" lon="11.1976083"><ele>920.0</ele><time>2026-04-07T09:59:29.962Z</time></trkpt><trkpt lat="45.7332233" lon="11.197595"><ele>919.3333333333334</ele><time>2026-04-07T09:59:30.961Z</time></trkpt><trkpt lat="45.733145" lon="11.19755"><ele>918.6666666666667</ele><time>2026-04-07T09:59:31.961Z</time></trkpt><trkpt lat="45.7330617" lon="11.197495"><ele>918.0</ele><time>2026-04-07T09:59:32.962Z</time></trkpt><trkpt lat="45.7329667" lon="11.197435"><ele>917.3333333333333</ele><time>2026-04-07T09:59:33.962Z</time></trkpt><trkpt lat="45.7328767" lon="11.1974017"><ele>916.6666666666666</ele><time>2026-04-07T09:59:34.961Z</time></trkpt><trkpt lat="45.73281" lon="11.1973783"><ele>916.0</ele><time>2026-04-07T09:59:35.962Z</time></trkpt><trkpt lat="45.7327417" lon="11.1973433"><ele>918.3333333333333</ele><time>2026-04-07T09:59:36.961Z</time></trkpt><trkpt lat="45.732665" lon="11.1972867"><ele>920.6666666666666</ele><time>2026-04-07T09:59:37.962Z</time></trkpt><trkpt lat="45.73258" lon="11.1972467"><ele>923.0</ele><time>2026-04-07T09:59:38.962Z</time></trkpt><trkpt lat="45.7324833" lon="11.1972267"><ele>925.3333333333333</ele><time>2026-04-07T09:59:39.962Z</time></trkpt><trkpt lat="45.7323933" lon="11.1972117"><ele>927.6666666666666</ele><time>2026-04-07T09:59:40.961Z</time></trkpt><trkpt lat="45.7323317" lon="11.1971917"><ele>930.0</ele><time>2026-04-07T09:59:41.962Z</time></trkpt><trkpt lat="45.7322183" lon="11.1971117"><ele>930.0</ele><time>2026-04-07T09:59:43.961Z</time></trkpt><trkpt lat="45.732125" lon="11.1969967"><ele>930.0</ele><time>2026-04-07T09:59:45.962Z</time></trkpt><trkpt lat="45.732075" lon="11.1969083"><ele>930.0</ele><time>2026-04-07T09:59:46.962Z</time></trkpt><trkpt lat="45.7320183" lon="11.1968067"><ele>930.0</ele><time>2026-04-07T09:59:47.962Z</time></trkpt><trkpt lat="45.7319617" lon="11.196695"><ele>930.0</ele><time>2026-04-07T09:59:48.961Z</time></trkpt><trkpt lat="45.7319133" lon="11.1966033"><ele>929.3333333333334</ele><time>2026-04-07T09:59:49.962Z</time></trkpt><trkpt lat="45.7318617" lon="11.1965283"><ele>928.6666666666667</ele><time>2026-04-07T09:59:50.962Z</time></trkpt><trkpt lat="45.7318083" lon="11.1964783"><ele>928.0</ele><time>2026-04-07T09:59:51.962Z</time></trkpt><trkpt lat="45.731705" lon="11.19646"><ele>927.3333333333334</ele><time>2026-04-07T09:59:53.962Z</time></trkpt><trkpt lat="45.73163" lon="11.1965233"><ele>926.6666666666667</ele><time>2026-04-07T09:59:55.962Z</time></trkpt><trkpt lat="45.7316033" lon="11.1966533"><ele>926.0</ele><time>2026-04-07T09:59:57.962Z</time></trkpt><trkpt lat="45.7315917" lon="11.196745"><ele>923.1999999999999</ele><time>2026-04-07T09:59:58.962Z</time></trkpt><trkpt lat="45.7315867" lon="11.19687"><ele>920.3999999999999</ele><time>2026-04-07T09:59:59.962Z</time></trkpt><trkpt lat="45.7315717" lon="11.19702"><ele>917.6</ele><time>2026-04-07T10:00:00.961Z</time></trkpt><trkpt lat="45.7315567" lon="11.1971783"><ele>914.8</ele><time>2026-04-07T10:00:01.961Z</time></trkpt><trkpt lat="45.7315217" lon="11.1973067"><ele>912.0</ele><time>2026-04-07T10:00:02.962Z</time></trkpt><trkpt lat="45.73148" lon="11.19743"><ele>908.8</ele><time>2026-04-07T10:00:03.962Z</time></trkpt><trkpt lat="45.7314533" lon="11.1975767"><ele>905.6</ele><time>2026-04-07T10:00:04.962Z</time></trkpt><trkpt lat="45.7314367" lon="11.1977167"><ele>902.3999999999999</ele><time>2026-04-07T10:00:05.961Z</time></trkpt><trkpt lat="45.7314217" lon="11.19785"><ele>899.1999999999999</ele><time>2026-04-07T10:00:06.961Z</time></trkpt><trkpt lat="45.7314333" lon="11.197985"><ele>896.0</ele><time>2026-04-07T10:00:07.962Z</time></trkpt><trkpt lat="45.7314583" lon="11.19815"><ele>895.25</ele><time>2026-04-07T10:00:08.961Z</time></trkpt><trkpt lat="45.731475" lon="11.19832"><ele>894.5</ele><time>2026-04-07T10:00:09.961Z</time></trkpt><trkpt lat="45.731495" lon="11.198505"><ele>893.75</ele><time>2026-04-07T10:00:10.962Z</time></trkpt><trkpt lat="45.7315433" lon="11.1986967"><ele>893.0</ele><time>2026-04-07T10:00:11.962Z</time></trkpt><trkpt lat="45.7315883" lon="11.1988967"><ele>895.0</ele><time>2026-04-07T10:00:12.962Z</time></trkpt><trkpt lat="45.7316383" lon="11.1990767"><ele>897.0</ele><time>2026-04-07T10:00:13.962Z</time></trkpt><trkpt lat="45.7316883" lon="11.1992167"><ele>899.0</ele><time>2026-04-07T10:00:14.961Z</time></trkpt><trkpt lat="45.73173" lon="11.1993517"><ele>901.0</ele><time>2026-04-07T10:00:15.961Z</time></trkpt><trkpt lat="45.7317617" lon="11.199485"><ele>903.0</ele><time>2026-04-07T10:00:16.962Z</time></trkpt><trkpt lat="45.731785" lon="11.1996267"><ele>903.0</ele><time>2026-04-07T10:00:17.962Z</time></trkpt><trkpt lat="45.731805" lon="11.1997833"><ele>903.0</ele><time>2026-04-07T10:00:18.962Z</time></trkpt><trkpt lat="45.7318183" lon="11.199935"><ele>903.0</ele><time>2026-04-07T10:00:19.962Z</time></trkpt><trkpt lat="45.7318367" lon="11.20009"><ele>903.0</ele><time>2026-04-07T10:00:20.961Z</time></trkpt><trkpt lat="45.7318683" lon="11.2002533"><ele>903.0</ele><time>2026-04-07T10:00:21.962Z</time></trkpt><trkpt lat="45.7319083" lon="11.2004117"><ele>901.2</ele><time>2026-04-07T10:00:22.962Z</time></trkpt><trkpt lat="45.7319733" lon="11.2005533"><ele>899.4</ele><time>2026-04-07T10:00:23.962Z</time></trkpt><trkpt lat="45.7320317" lon="11.200685"><ele>897.6000000000001</ele><time>2026-04-07T10:00:24.962Z</time></trkpt><trkpt lat="45.7320933" lon="11.2007933"><ele>895.8000000000001</ele><time>2026-04-07T10:00:25.962Z</time></trkpt><trkpt lat="45.7321417" lon="11.2008767"><ele>894.0</ele><time>2026-04-07T10:00:26.962Z</time></trkpt><trkpt lat="45.7321933" lon="11.201015"><ele>894.0</ele><time>2026-04-07T10:00:28.961Z</time></trkpt><trkpt lat="45.7322067" lon="11.2012067"><ele>894.0000000000001</ele><time>2026-04-07T10:00:30.962Z</time></trkpt><trkpt lat="45.7322" lon="11.20132"><ele>894.0000000000001</ele><time>2026-04-07T10:00:31.961Z</time></trkpt><trkpt lat="45.7321867" lon="11.201425"><ele>894.0</ele><time>2026-04-07T10:00:33.962Z</time></trkpt><trkpt lat="45.7321017" lon="11.2014783"><ele>894.0</ele><time>2026-04-07T10:00:36.962Z</time></trkpt><trkpt lat="45.7319967" lon="11.2014517"><ele>894.0</ele><time>2026-04-07T10:00:38.962Z</time></trkpt><trkpt lat="45.7318967" lon="11.20137"><ele>894.0000000000001</ele><time>2026-04-07T10:00:40.961Z</time></trkpt><trkpt lat="45.7318533" lon="11.201295"><ele>894.0000000000001</ele><time>2026-04-07T10:00:41.962Z</time></trkpt><trkpt lat="45.7317733" lon="11.201175"><ele>894.0</ele><time>2026-04-07T10:00:43.962Z</time></trkpt><trkpt lat="45.7316533" lon="11.2011533"><ele>894.0</ele><time>2026-04-07T10:00:45.961Z</time></trkpt><trkpt lat="45.7315733" lon="11.2011933"><ele>897.6</ele><time>2026-04-07T10:00:46.962Z</time></trkpt><trkpt lat="45.731485" lon="11.2012783"><ele>901.2</ele><time>2026-04-07T10:00:47.961Z</time></trkpt><trkpt lat="45.7313983" lon="11.2013967"><ele>904.8000000000001</ele><time>2026-04-07T10:00:48.962Z</time></trkpt><trkpt lat="45.7313283" lon="11.2014967"><ele>908.4000000000001</ele><time>2026-04-07T10:00:49.962Z</time></trkpt><trkpt lat="45.73126" lon="11.2015517"><ele>912.0</ele><time>2026-04-07T10:00:50.961Z</time></trkpt><trkpt lat="45.7311883" lon="11.20158"><ele>912.0</ele><time>2026-04-07T10:00:51.962Z</time></trkpt><trkpt lat="45.7311233" lon="11.2015667"><ele>912.0</ele><time>2026-04-07T10:00:52.962Z</time></trkpt><trkpt lat="45.7310533" lon="11.20153"><ele>912.0</ele><time>2026-04-07T10:00:53.962Z</time></trkpt><trkpt lat="45.73097" lon="11.2014683"><ele>912.0</ele><time>2026-04-07T10:00:54.962Z</time></trkpt><trkpt lat="45.7309" lon="11.201405"><ele>912.0</ele><time>2026-04-07T10:00:55.962Z</time></trkpt><trkpt lat="45.730855" lon="11.2013417"><ele>912.0</ele><time>2026-04-07T10:00:56.961Z</time></trkpt><trkpt lat="45.7308167" lon="11.201235"><ele>913.1666666666666</ele><time>2026-04-07T10:00:58.962Z</time></trkpt><trkpt lat="45.7308883" lon="11.2011167"><ele>914.3333333333333</ele><time>2026-04-07T10:01:00.961Z</time></trkpt><trkpt lat="45.730955" lon="11.20105"><ele>915.5</ele><time>2026-04-07T10:01:01.961Z</time></trkpt><trkpt lat="45.7310283" lon="11.2009867"><ele>916.6666666666666</ele><time>2026-04-07T10:01:02.961Z</time></trkpt><trkpt lat="45.7311083" lon="11.2009283"><ele>917.8333333333333</ele><time>2026-04-07T10:01:03.962Z</time></trkpt><trkpt lat="45.73118" lon="11.2008767"><ele>919.0</ele><time>2026-04-07T10:01:04.962Z</time></trkpt><trkpt lat="45.7312467" lon="11.2008233"><ele>919.0</ele><time>2026-04-07T10:01:05.962Z</time></trkpt><trkpt lat="45.7313133" lon="11.2006983"><ele>919.0000000000001</ele><time>2026-04-07T10:01:07.962Z</time></trkpt><trkpt lat="45.7312617" lon="11.20057"><ele>919.0000000000001</ele><time>2026-04-07T10:01:09.962Z</time></trkpt><trkpt lat="45.7311967" lon="11.2005067"><ele>919.0</ele><time>2026-04-07T10:01:10.962Z</time></trkpt><trkpt lat="45.731135" lon="11.2004333"><ele>919.0</ele><time>2026-04-07T10:01:11.961Z</time></trkpt><trkpt lat="45.73109" lon="11.200335"><ele>922.1666666666666</ele><time>2026-04-07T10:01:12.962Z</time></trkpt><trkpt lat="45.7310517" lon="11.2002283"><ele>925.3333333333333</ele><time>2026-04-07T10:01:13.961Z</time></trkpt><trkpt lat="45.7310167" lon="11.2001033"><ele>928.5</ele><time>2026-04-07T10:01:14.962Z</time></trkpt><trkpt lat="45.7310033" lon="11.1999633"><ele>931.6666666666667</ele><time>2026-04-07T10:01:15.962Z</time></trkpt><trkpt lat="45.7310017" lon="11.199855"><ele>934.8333333333334</ele><time>2026-04-07T10:01:16.962Z</time></trkpt><trkpt lat="45.7309967" lon="11.1997167"><ele>938.0</ele><time>2026-04-07T10:01:18.962Z</time></trkpt><trkpt lat="45.7309667" lon="11.1996167"><ele>939.3333333333334</ele><time>2026-04-07T10:01:20.961Z</time></trkpt><trkpt lat="45.7309233" lon="11.1995083"><ele>940.6666666666667</ele><time>2026-04-07T10:01:27.962Z</time></trkpt><trkpt lat="45.73086" lon="11.1993967"><ele>942.0</ele><time>2026-04-07T10:02:12.962Z</time></trkpt><trkpt lat="45.730805" lon="11.199325"><ele>943.3333333333333</ele><time>2026-04-07T10:02:13.961Z</time></trkpt><trkpt lat="45.7307467" lon="11.1992617"><ele>944.6666666666666</ele><time>2026-04-07T10:02:14.962Z</time></trkpt><trkpt lat="45.7306933" lon="11.199185"><ele>946.0</ele><time>2026-04-07T10:02:15.961Z</time></trkpt><trkpt lat="45.73065" lon="11.199115"><ele>945.9999999999999</ele><time>2026-04-07T10:02:16.962Z</time></trkpt><trkpt lat="45.7306017" lon="11.1990283"><ele>946.0</ele><time>2026-04-07T10:02:17.962Z</time></trkpt><trkpt lat="45.7305533" lon="11.1989267"><ele>946.0</ele><time>2026-04-07T10:02:18.962Z</time></trkpt><trkpt lat="45.7305067" lon="11.1988183"><ele>946.0</ele><time>2026-04-07T10:02:19.961Z</time></trkpt><trkpt lat="45.7304533" lon="11.1986983"><ele>945.9999999999999</ele><time>2026-04-07T10:02:20.962Z</time></trkpt><trkpt lat="45.7304033" lon="11.1985917"><ele>946.0</ele><time>2026-04-07T10:02:21.961Z</time></trkpt><trkpt lat="45.7303567" lon="11.1984717"><ele>944.9999999999999</ele><time>2026-04-07T10:02:22.962Z</time></trkpt><trkpt lat="45.730325" lon="11.1983483"><ele>944.0</ele><time>2026-04-07T10:02:23.962Z</time></trkpt><trkpt lat="45.73029" lon="11.1982383"><ele>943.0</ele><time>2026-04-07T10:02:24.962Z</time></trkpt><trkpt lat="45.730265" lon="11.1981383"><ele>942.0</ele><time>2026-04-07T10:02:25.961Z</time></trkpt><trkpt lat="45.7302333" lon="11.1980233"><ele>940.9999999999999</ele><time>2026-04-07T10:02:26.961Z</time></trkpt><trkpt lat="45.73022" lon="11.1979167"><ele>940.0</ele><time>2026-04-07T10:02:27.961Z</time></trkpt><trkpt lat="45.730205" lon="11.1978167"><ele>947.6</ele><time>2026-04-07T10:02:28.962Z</time></trkpt><trkpt lat="45.73017" lon="11.197655"><ele>955.2</ele><time>2026-04-07T10:02:30.962Z</time></trkpt><trkpt lat="45.7301033" lon="11.1975183"><ele>962.8</ele><time>2026-04-07T10:02:32.962Z</time></trkpt><trkpt lat="45.73006" lon="11.19745"><ele>970.4</ele><time>2026-04-07T10:02:33.961Z</time></trkpt><trkpt lat="45.7299883" lon="11.1973117"><ele>978.0</ele><time>2026-04-07T10:02:35.962Z</time></trkpt><trkpt lat="45.7299233" lon="11.19718"><ele>978.5999999999999</ele><time>2026-04-07T10:02:37.962Z</time></trkpt><trkpt lat="45.7298583" lon="11.1970417"><ele>979.1999999999999</ele><time>2026-04-07T10:02:39.961Z</time></trkpt><trkpt lat="45.7297983" lon="11.1969067"><ele>979.8</ele><time>2026-04-07T10:02:41.962Z</time></trkpt><trkpt lat="45.7297183" lon="11.1968017"><ele>980.4</ele><time>2026-04-07T10:02:43.962Z</time></trkpt><trkpt lat="45.729655" lon="11.1967067"><ele>981.0</ele><time>2026-04-07T10:02:45.962Z</time></trkpt><trkpt lat="45.72959" lon="11.1966233"><ele>981.0</ele><time>2026-04-07T10:02:47.962Z</time></trkpt><trkpt lat="45.7295317" lon="11.1965333"><ele>980.9999999999999</ele><time>2026-04-07T10:02:49.962Z</time></trkpt><trkpt lat="45.7294983" lon="11.19643"><ele>980.9999999999999</ele><time>2026-04-07T10:02:51.962Z</time></trkpt><trkpt lat="45.7294833" lon="11.196285"><ele>981.0</ele><time>2026-04-07T10:02:53.962Z</time></trkpt><trkpt lat="45.7294533" lon="11.1961583"><ele>981.0</ele><time>2026-04-07T10:02:55.961Z</time></trkpt><trkpt lat="45.7294517" lon="11.1960283"><ele>982.1999999999999</ele><time>2026-04-07T10:02:57.962Z</time></trkpt><trkpt lat="45.72945" lon="11.1959033"><ele>983.3999999999999</ele><time>2026-04-07T10:02:59.962Z</time></trkpt><trkpt lat="45.729455" lon="11.1957633"><ele>984.6</ele><time>2026-04-07T10:03:01.961Z</time></trkpt><trkpt lat="45.7294517" lon="11.195625"><ele>985.8</ele><time>2026-04-07T10:03:03.961Z</time></trkpt><trkpt lat="45.7294333" lon="11.1954833"><ele>987.0</ele><time>2026-04-07T10:03:05.962Z</time></trkpt><trkpt lat="45.7294067" lon="11.1953883"><ele>993.5</ele><time>2026-04-07T10:03:07.962Z</time></trkpt><trkpt lat="45.729365" lon="11.1953183"><ele>1000.0</ele><time>2026-04-07T10:03:09.961Z</time></trkpt><trkpt lat="45.72929" lon="11.1952617"><ele>1006.5</ele><time>2026-04-07T10:03:11.962Z</time></trkpt><trkpt lat="45.72921" lon="11.1951817"><ele>1013.0</ele><time>2026-04-07T10:03:13.962Z</time></trkpt><trkpt lat="45.7291567" lon="11.1950883"><ele>1019.5</ele><time>2026-04-07T10:03:15.961Z</time></trkpt><trkpt lat="45.7291283" lon="11.1949817"><ele>1026.0</ele><time>2026-04-07T10:03:17.962Z</time></trkpt><trkpt lat="45.7291183" lon="11.1948633"><ele>1028.3999999999999</ele><time>2026-04-07T10:03:19.961Z</time></trkpt><trkpt lat="45.7291133" lon="11.1947267"><ele>1030.8</ele><time>2026-04-07T10:03:21.961Z</time></trkpt><trkpt lat="45.7290933" lon="11.1945917"><ele>1033.1999999999998</ele><time>2026-04-07T10:03:23.961Z</time></trkpt><trkpt lat="45.729065" lon="11.1944667"><ele>1035.6</ele><time>2026-04-07T10:03:25.962Z</time></trkpt><trkpt lat="45.72904" lon="11.19432"><ele>1038.0</ele><time>2026-04-07T10:03:27.962Z</time></trkpt><trkpt lat="45.729025" lon="11.1941667"><ele>1038.0</ele><time>2026-04-07T10:03:29.962Z</time></trkpt><trkpt lat="45.728975" lon="11.19404"><ele>1038.0</ele><time>2026-04-07T10:03:31.962Z</time></trkpt><trkpt lat="45.7288983" lon="11.1939183"><ele>1038.0</ele><time>2026-04-07T10:03:33.961Z</time></trkpt><trkpt lat="45.72885" lon="11.19378"><ele>1038.0</ele><time>2026-04-07T10:03:35.962Z</time></trkpt><trkpt lat="45.7287883" lon="11.193645"><ele>1038.0</ele><time>2026-04-07T10:03:37.961Z</time></trkpt><trkpt lat="45.7287217" lon="11.19353"><ele>1041.0</ele><time>2026-04-07T10:03:39.962Z</time></trkpt><trkpt lat="45.7286833" lon="11.19344"><ele>1044.0</ele><time>2026-04-07T10:03:41.962Z</time></trkpt><trkpt lat="45.72867" lon="11.19333"><ele>1047.0</ele><time>2026-04-07T10:03:43.961Z</time></trkpt><trkpt lat="45.7286767" lon="11.19323"><ele>1050.0</ele><time>2026-04-07T10:03:45.962Z</time></trkpt><trkpt lat="45.7286883" lon="11.193105"><ele>1053.0</ele><time>2026-04-07T10:03:47.962Z</time></trkpt><trkpt lat="45.7286933" lon="11.19298"><ele>1056.0</ele><time>2026-04-07T10:03:49.962Z</time></trkpt><trkpt lat="45.7286667" lon="11.1928167"><ele>1057.0</ele><time>2026-04-07T10:03:51.961Z</time></trkpt><trkpt lat="45.7286383" lon="11.19273"><ele>1058.0</ele><time>2026-04-07T10:03:52.961Z</time></trkpt><trkpt lat="45.7286017" lon="11.19265"><ele>1059.0</ele><time>2026-04-07T10:03:53.961Z</time></trkpt><trkpt lat="45.7285517" lon="11.19256"><ele>1060.0</ele><time>2026-04-07T10:03:54.962Z</time></trkpt><trkpt lat="45.7284833" lon="11.1924833"><ele>1061.0</ele><time>2026-04-07T10:03:55.962Z</time></trkpt><trkpt lat="45.728415" lon="11.1924133"><ele>1062.0</ele><time>2026-04-07T10:03:56.962Z</time></trkpt><trkpt lat="45.7283533" lon="11.1923433"><ele>1065.6666666666667</ele><time>2026-04-07T10:03:57.962Z</time></trkpt><trkpt lat="45.7283" lon="11.1922767"><ele>1069.3333333333333</ele><time>2026-04-07T10:03:58.962Z</time></trkpt><trkpt lat="45.7282483" lon="11.19221"><ele>1073.0</ele><time>2026-04-07T10:03:59.962Z</time></trkpt><trkpt lat="45.7281983" lon="11.1921517"><ele>1076.6666666666665</ele><time>2026-04-07T10:04:00.961Z</time></trkpt><trkpt lat="45.7281033" lon="11.192055"><ele>1080.3333333333333</ele><time>2026-04-07T10:04:02.961Z</time></trkpt><trkpt lat="45.7280317" lon="11.191985"><ele>1084.0</ele><time>2026-04-07T10:04:04.961Z</time></trkpt><trkpt lat="45.727945" lon="11.191985"><ele>1084.0</ele><time>2026-04-07T10:04:06.962Z</time></trkpt><trkpt lat="45.72786" lon="11.192085"><ele>1084.0</ele><time>2026-04-07T10:04:08.961Z</time></trkpt><trkpt lat="45.7278333" lon="11.1921667"><ele>1084.0</ele><time>2026-04-07T10:04:09.962Z</time></trkpt><trkpt lat="45.7278217" lon="11.1922817"><ele>1084.0</ele><time>2026-04-07T10:04:11.962Z</time></trkpt><trkpt lat="45.72774" lon="11.19242"><ele>1084.0</ele><time>2026-04-07T10:04:13.962Z</time></trkpt><trkpt lat="45.7276917" lon="11.1924867"><ele>1084.0</ele><time>2026-04-07T10:04:14.962Z</time></trkpt><trkpt lat="45.7276267" lon="11.1925433"><ele>1078.8333333333333</ele><time>2026-04-07T10:04:15.962Z</time></trkpt><trkpt lat="45.727575" lon="11.1925967"><ele>1073.6666666666665</ele><time>2026-04-07T10:04:16.961Z</time></trkpt><trkpt lat="45.7275233" lon="11.192655"><ele>1068.5</ele><time>2026-04-07T10:04:17.962Z</time></trkpt><trkpt lat="45.7274667" lon="11.1927017"><ele>1063.3333333333333</ele><time>2026-04-07T10:04:18.962Z</time></trkpt><trkpt lat="45.7273617" lon="11.1927733"><ele>1058.1666666666667</ele><time>2026-04-07T10:04:20.961Z</time></trkpt><trkpt lat="45.7272367" lon="11.1928017"><ele>1053.0</ele><time>2026-04-07T10:04:22.962Z</time></trkpt><trkpt lat="45.7271583" lon="11.1928133"><ele>1053.0</ele><time>2026-04-07T10:04:23.961Z</time></trkpt><trkpt lat="45.7270717" lon="11.1928283"><ele>1053.0</ele><time>2026-04-07T10:04:24.962Z</time></trkpt><trkpt lat="45.72698" lon="11.1928783"><ele>1053.0</ele><time>2026-04-07T10:04:25.962Z</time></trkpt><trkpt lat="45.726885" lon="11.1929517"><ele>1053.0</ele><time>2026-04-07T10:04:26.962Z</time></trkpt><trkpt lat="45.72679" lon="11.1930483"><ele>1053.0</ele><time>2026-04-07T10:04:27.962Z</time></trkpt><trkpt lat="45.726705" lon="11.193155"><ele>1049.0</ele><time>2026-04-07T10:04:28.962Z</time></trkpt><trkpt lat="45.7266217" lon="11.19327"><ele>1045.0</ele><time>2026-04-07T10:04:29.961Z</time></trkpt><trkpt lat="45.7265433" lon="11.1933983"><ele>1041.0</ele><time>2026-04-07T10:04:30.96Z</time></trkpt><trkpt lat="45.72647" lon="11.1935383"><ele>1037.0</ele><time>2026-04-07T10:04:31.961Z</time></trkpt><trkpt lat="45.7264083" lon="11.1936683"><ele>1037.0</ele><time>2026-04-07T10:04:32.961Z</time></trkpt><trkpt lat="45.72635" lon="11.1937817"><ele>1037.0</ele><time>2026-04-07T10:04:33.961Z</time></trkpt><trkpt lat="45.726295" lon="11.1938783"><ele>1037.0</ele><time>2026-04-07T10:04:34.961Z</time></trkpt><trkpt lat="45.7262583" lon="11.1939617"><ele>1037.0</ele><time>2026-04-07T10:04:35.961Z</time></trkpt><trkpt lat="45.72622" lon="11.1940383"><ele>1037.0</ele><time>2026-04-07T10:04:36.961Z</time></trkpt><trkpt lat="45.726125" lon="11.1941467"><ele>1037.0</ele><time>2026-04-07T10:04:38.961Z</time></trkpt><trkpt lat="45.7260567" lon="11.1942"><ele>1037.1666666666667</ele><time>2026-04-07T10:04:39.961Z</time></trkpt><trkpt lat="45.7259883" lon="11.1942533"><ele>1037.3333333333335</ele><time>2026-04-07T10:04:40.961Z</time></trkpt><trkpt lat="45.72588" lon="11.1943267"><ele>1037.5</ele><time>2026-04-07T10:04:42.961Z</time></trkpt><trkpt lat="45.72579" lon="11.19431"><ele>1037.6666666666667</ele><time>2026-04-07T10:04:44.961Z</time></trkpt><trkpt lat="45.72573" lon="11.1942667"><ele>1037.8333333333333</ele><time>2026-04-07T10:04:45.961Z</time></trkpt><trkpt lat="45.7256483" lon="11.1942183"><ele>1038.0</ele><time>2026-04-07T10:04:46.961Z</time></trkpt><trkpt lat="45.7255617" lon="11.194185"><ele>1038.0</ele><time>2026-04-07T10:04:47.961Z</time></trkpt><trkpt lat="45.7254783" lon="11.1941417"><ele>1038.0</ele><time>2026-04-07T10:04:48.961Z</time></trkpt><trkpt lat="45.725405" lon="11.1941067"><ele>1038.0</ele><time>2026-04-07T10:04:49.961Z</time></trkpt><trkpt lat="45.7253117" lon="11.194085"><ele>1038.0</ele><time>2026-04-07T10:04:50.96Z</time></trkpt><trkpt lat="45.7252117" lon="11.1940683"><ele>1038.0</ele><time>2026-04-07T10:04:51.961Z</time></trkpt><trkpt lat="45.7251133" lon="11.194055"><ele>1037.0</ele><time>2026-04-07T10:04:52.961Z</time></trkpt><trkpt lat="45.725025" lon="11.19404"><ele>1036.0</ele><time>2026-04-07T10:04:53.961Z</time></trkpt><trkpt lat="45.7249467" lon="11.1940333"><ele>1035.0</ele><time>2026-04-07T10:04:54.96Z</time></trkpt><trkpt lat="45.72486" lon="11.19405"><ele>1034.0</ele><time>2026-04-07T10:04:55.96Z</time></trkpt><trkpt lat="45.7247817" lon="11.194075"><ele>1033.0</ele><time>2026-04-07T10:04:56.961Z</time></trkpt><trkpt lat="45.72471" lon="11.1940983"><ele>1032.0</ele><time>2026-04-07T10:04:57.961Z</time></trkpt><trkpt lat="45.7246417" lon="11.1941183"><ele>1032.0</ele><time>2026-04-07T10:04:58.96Z</time></trkpt><trkpt lat="45.7245167" lon="11.19412"><ele>1032.0</ele><time>2026-04-07T10:05:00.961Z</time></trkpt><trkpt lat="45.72444" lon="11.1941183"><ele>1032.0</ele><time>2026-04-07T10:05:01.96Z</time></trkpt><trkpt lat="45.7243617" lon="11.1941333"><ele>1032.0</ele><time>2026-04-07T10:05:02.96Z</time></trkpt><trkpt lat="45.7242867" lon="11.1941633"><ele>1032.0</ele><time>2026-04-07T10:05:03.961Z</time></trkpt><trkpt lat="45.7242033" lon="11.194225"><ele>1030.8333333333333</ele><time>2026-04-07T10:05:04.96Z</time></trkpt><trkpt lat="45.7241317" lon="11.1942917"><ele>1029.6666666666667</ele><time>2026-04-07T10:05:05.961Z</time></trkpt><trkpt lat="45.72407" lon="11.1943583"><ele>1028.5</ele><time>2026-04-07T10:05:06.961Z</time></trkpt><trkpt lat="45.724015" lon="11.1944133"><ele>1027.3333333333335</ele><time>2026-04-07T10:05:07.961Z</time></trkpt><trkpt lat="45.7239517" lon="11.1944667"><ele>1026.1666666666667</ele><time>2026-04-07T10:05:08.961Z</time></trkpt><trkpt lat="45.7238833" lon="11.19451"><ele>1025.0</ele><time>2026-04-07T10:05:09.961Z</time></trkpt><trkpt lat="45.7238083" lon="11.194535"><ele>1025.0</ele><time>2026-04-07T10:05:10.96Z</time></trkpt><trkpt lat="45.7237367" lon="11.1945333"><ele>1025.0</ele><time>2026-04-07T10:05:11.961Z</time></trkpt><trkpt lat="45.7236633" lon="11.1944617"><ele>1025.0</ele><time>2026-04-07T10:05:13.961Z</time></trkpt><trkpt lat="45.7236467" lon="11.19429"><ele>1025.0</ele><time>2026-04-07T10:05:15.961Z</time></trkpt><trkpt lat="45.723645" lon="11.1941817"><ele>1025.0</ele><time>2026-04-07T10:05:16.961Z</time></trkpt><trkpt lat="45.7236383" lon="11.1940667"><ele>1025.0</ele><time>2026-04-07T10:05:17.961Z</time></trkpt><trkpt lat="45.7236267" lon="11.1939633"><ele>1029.4</ele><time>2026-04-07T10:05:18.96Z</time></trkpt><trkpt lat="45.7236383" lon="11.1938"><ele>1033.8</ele><time>2026-04-07T10:05:20.961Z</time></trkpt><trkpt lat="45.7236583" lon="11.1936467"><ele>1038.2</ele><time>2026-04-07T10:05:22.961Z</time></trkpt><trkpt lat="45.7236367" lon="11.1934867"><ele>1042.6</ele><time>2026-04-07T10:05:24.96Z</time></trkpt><trkpt lat="45.7236117" lon="11.19339"><ele>1047.0</ele><time>2026-04-07T10:05:25.961Z</time></trkpt><trkpt lat="45.7235783" lon="11.1932783"><ele>1043.2</ele><time>2026-04-07T10:05:26.961Z</time></trkpt><trkpt lat="45.72354" lon="11.193165"><ele>1039.4</ele><time>2026-04-07T10:05:27.961Z</time></trkpt><trkpt lat="45.7234967" lon="11.1930617"><ele>1035.6</ele><time>2026-04-07T10:05:28.961Z</time></trkpt><trkpt lat="45.723455" lon="11.192975"><ele>1031.8</ele><time>2026-04-07T10:05:29.961Z</time></trkpt><trkpt lat="45.7233983" lon="11.1928117"><ele>1028.0</ele><time>2026-04-07T10:05:31.961Z</time></trkpt><trkpt lat="45.7233767" lon="11.192705"><ele>1028.0</ele><time>2026-04-07T10:05:32.961Z</time></trkpt><trkpt lat="45.7233617" lon="11.1925883"><ele>1028.0</ele><time>2026-04-07T10:05:33.961Z</time></trkpt><trkpt lat="45.72336" lon="11.1924933"><ele>1028.0</ele><time>2026-04-07T10:05:34.961Z</time></trkpt><trkpt lat="45.72337" lon="11.1923983"><ele>1028.0</ele><time>2026-04-07T10:05:35.96Z</time></trkpt><trkpt lat="45.7233833" lon="11.1922933"><ele>1028.0</ele><time>2026-04-07T10:05:36.961Z</time></trkpt><trkpt lat="45.7234117" lon="11.1921683"><ele>1028.0</ele><time>2026-04-07T10:05:37.96Z</time></trkpt><trkpt lat="45.7234417" lon="11.1920233"><ele>1029.6666666666667</ele><time>2026-04-07T10:05:38.961Z</time></trkpt><trkpt lat="45.7234683" lon="11.19188"><ele>1031.3333333333335</ele><time>2026-04-07T10:05:39.96Z</time></trkpt><trkpt lat="45.723485" lon="11.1917467"><ele>1033.0</ele><time>2026-04-07T10:05:40.961Z</time></trkpt><trkpt lat="45.7234933" lon="11.1916183"><ele>1034.6666666666667</ele><time>2026-04-07T10:05:41.961Z</time></trkpt><trkpt lat="45.7235017" lon="11.1914967"><ele>1036.3333333333333</ele><time>2026-04-07T10:05:42.96Z</time></trkpt><trkpt lat="45.723485" lon="11.1913933"><ele>1038.0</ele><time>2026-04-07T10:05:43.961Z</time></trkpt><trkpt lat="45.7234467" lon="11.1913067"><ele>1040.8333333333333</ele><time>2026-04-07T10:05:44.961Z</time></trkpt><trkpt lat="45.7233883" lon="11.1912433"><ele>1043.6666666666667</ele><time>2026-04-07T10:05:45.961Z</time></trkpt><trkpt lat="45.723315" lon="11.1911967"><ele>1046.5</ele><time>2026-04-07T10:05:46.961Z</time></trkpt><trkpt lat="45.72325" lon="11.1911617"><ele>1049.3333333333335</ele><time>2026-04-07T10:05:47.96Z</time></trkpt><trkpt lat="45.72315" lon="11.1911483"><ele>1052.1666666666667</ele><time>2026-04-07T10:05:49.961Z</time></trkpt><trkpt lat="45.7230433" lon="11.1911667"><ele>1055.0</ele><time>2026-04-07T10:06:01.96Z</time></trkpt><trkpt lat="45.72299" lon="11.1911033"><ele>1055.0</ele><time>2026-04-07T10:06:03.96Z</time></trkpt><trkpt lat="45.72291" lon="11.191055"><ele>1055.0</ele><time>2026-04-07T10:06:05.961Z</time></trkpt><trkpt lat="45.722815" lon="11.1910467"><ele>1055.0</ele><time>2026-04-07T10:06:07.961Z</time></trkpt><trkpt lat="45.72273" lon="11.1910467"><ele>1055.0</ele><time>2026-04-07T10:06:09.961Z</time></trkpt><trkpt lat="45.7226567" lon="11.191055"><ele>1055.0</ele><time>2026-04-07T10:06:11.96Z</time></trkpt><trkpt lat="45.7225817" lon="11.19105"><ele>1055.0</ele><time>2026-04-07T10:06:13.961Z</time></trkpt><trkpt lat="45.72248" lon="11.1910317"><ele>1050.8333333333335</ele><time>2026-04-07T10:06:15.96Z</time></trkpt><trkpt lat="45.7223933" lon="11.19103"><ele>1046.6666666666667</ele><time>2026-04-07T10:06:17.961Z</time></trkpt><trkpt lat="45.7223067" lon="11.1910333"><ele>1042.5</ele><time>2026-04-07T10:06:19.96Z</time></trkpt><trkpt lat="45.722235" lon="11.191025"><ele>1038.3333333333333</ele><time>2026-04-07T10:06:21.961Z</time></trkpt><trkpt lat="45.722165" lon="11.191085"><ele>1034.1666666666665</ele><time>2026-04-07T10:06:24.961Z</time></trkpt><trkpt lat="45.7222" lon="11.1912083"><ele>1030.0</ele><time>2026-04-07T10:06:27.96Z</time></trkpt><trkpt lat="45.7222783" lon="11.1912917"><ele>1030.0</ele><time>2026-04-07T10:06:29.961Z</time></trkpt><trkpt lat="45.722355" lon="11.19136"><ele>1030.0</ele><time>2026-04-07T10:06:31.96Z</time></trkpt><trkpt lat="45.72243" lon="11.19143"><ele>1030.0</ele><time>2026-04-07T10:06:33.96Z</time></trkpt><trkpt lat="45.7225083" lon="11.1915183"><ele>1030.0</ele><time>2026-04-07T10:06:35.96Z</time></trkpt><trkpt lat="45.722605" lon="11.1916117"><ele>1030.0</ele><time>2026-04-07T10:06:37.961Z</time></trkpt><trkpt lat="45.7226917" lon="11.191695"><ele>1031.6</ele><time>2026-04-07T10:06:39.961Z</time></trkpt><trkpt lat="45.7227317" lon="11.19182"><ele>1033.2</ele><time>2026-04-07T10:06:41.96Z</time></trkpt><trkpt lat="45.7227183" lon="11.1919567"><ele>1034.8</ele><time>2026-04-07T10:06:43.96Z</time></trkpt><trkpt lat="45.7226567" lon="11.1920667"><ele>1036.4</ele><time>2026-04-07T10:06:45.961Z</time></trkpt><trkpt lat="45.7225967" lon="11.192095"><ele>1038.0</ele><time>2026-04-07T10:06:47.961Z</time></trkpt><trkpt lat="45.7225383" lon="11.1919817"><ele>1032.6666666666667</ele><time>2026-04-07T10:06:50.96Z</time></trkpt><trkpt lat="45.72248" lon="11.1919283"><ele>1027.3333333333333</ele><time>2026-04-07T10:06:52.961Z</time></trkpt><trkpt lat="45.7223833" lon="11.1919333"><ele>1022.0</ele><time>2026-04-07T10:06:54.961Z</time></trkpt><trkpt lat="45.722295" lon="11.19197"><ele>1016.6666666666666</ele><time>2026-04-07T10:06:56.961Z</time></trkpt><trkpt lat="45.7222067" lon="11.192005"><ele>1011.3333333333333</ele><time>2026-04-07T10:06:58.961Z</time></trkpt><trkpt lat="45.7221383" lon="11.1919667"><ele>1006.0</ele><time>2026-04-07T10:07:01.961Z</time></trkpt><trkpt lat="45.7221983" lon="11.1920717"><ele>1006.0</ele><time>2026-04-07T10:07:37.961Z</time></trkpt><trkpt lat="45.7221333" lon="11.1921383"><ele>1005.9999999999999</ele><time>2026-04-07T10:07:40.96Z</time></trkpt><trkpt lat="45.722055" lon="11.19209"><ele>1005.9999999999999</ele><time>2026-04-07T10:07:42.961Z</time></trkpt><trkpt lat="45.7219733" lon="11.191955"><ele>1006.0</ele><time>2026-04-07T10:07:44.961Z</time></trkpt><trkpt lat="45.7219083" lon="11.1918483"><ele>1006.0</ele><time>2026-04-07T10:07:45.961Z</time></trkpt><trkpt lat="45.72184" lon="11.191735"><ele>1006.0</ele><time>2026-04-07T10:07:46.961Z</time></trkpt><trkpt lat="45.7217667" lon="11.191625"><ele>1005.9999999999999</ele><time>2026-04-07T10:07:47.961Z</time></trkpt><trkpt lat="45.7216717" lon="11.1915333"><ele>1005.9999999999999</ele><time>2026-04-07T10:07:48.961Z</time></trkpt><trkpt lat="45.7215733" lon="11.1914417"><ele>1006.0</ele><time>2026-04-07T10:07:49.961Z</time></trkpt><trkpt lat="45.7214833" lon="11.1913667"><ele>1006.0</ele><time>2026-04-07T10:07:50.961Z</time></trkpt><trkpt lat="45.7214017" lon="11.1913033"><ele>1005.9999999999999</ele><time>2026-04-07T10:07:51.961Z</time></trkpt><trkpt lat="45.7213233" lon="11.19124"><ele>1006.0</ele><time>2026-04-07T10:07:52.961Z</time></trkpt><trkpt lat="45.7212483" lon="11.19119"><ele>1006.0</ele><time>2026-04-07T10:07:53.961Z</time></trkpt><trkpt lat="45.7211767" lon="11.1911467"><ele>1006.0</ele><time>2026-04-07T10:07:54.96Z</time></trkpt><trkpt lat="45.721095" lon="11.1911233"><ele>1005.9999999999999</ele><time>2026-04-07T10:07:55.961Z</time></trkpt><trkpt lat="45.721015" lon="11.1910933"><ele>1006.0</ele><time>2026-04-07T10:07:56.961Z</time></trkpt><trkpt lat="45.7209367" lon="11.1910633"><ele>1001.8333333333333</ele><time>2026-04-07T10:07:57.961Z</time></trkpt><trkpt lat="45.720855" lon="11.19103"><ele>997.6666666666666</ele><time>2026-04-07T10:07:58.961Z</time></trkpt><trkpt lat="45.7207833" lon="11.191"><ele>993.5</ele><time>2026-04-07T10:07:59.961Z</time></trkpt><trkpt lat="45.720715" lon="11.1909883"><ele>989.3333333333333</ele><time>2026-04-07T10:08:00.96Z</time></trkpt><trkpt lat="45.7206433" lon="11.1909883"><ele>985.1666666666666</ele><time>2026-04-07T10:08:01.96Z</time></trkpt><trkpt lat="45.7205617" lon="11.1910183"><ele>981.0</ele><time>2026-04-07T10:08:02.961Z</time></trkpt><trkpt lat="45.720485" lon="11.1910583"><ele>981.0</ele><time>2026-04-07T10:08:03.961Z</time></trkpt><trkpt lat="45.7203933" lon="11.1911133"><ele>980.9999999999999</ele><time>2026-04-07T10:08:04.961Z</time></trkpt><trkpt lat="45.7203" lon="11.1911783"><ele>980.9999999999999</ele><time>2026-04-07T10:08:05.96Z</time></trkpt><trkpt lat="45.7202183" lon="11.1912383"><ele>981.0</ele><time>2026-04-07T10:08:06.96Z</time></trkpt><trkpt lat="45.7201033" lon="11.1913067"><ele>981.0</ele><time>2026-04-07T10:08:07.961Z</time></trkpt><trkpt lat="45.7200017" lon="11.1913583"><ele>980.4</ele><time>2026-04-07T10:08:08.961Z</time></trkpt><trkpt lat="45.7199167" lon="11.19139"><ele>979.8</ele><time>2026-04-07T10:08:09.96Z</time></trkpt><trkpt lat="45.7198317" lon="11.1914017"><ele>979.1999999999999</ele><time>2026-04-07T10:08:10.961Z</time></trkpt><trkpt lat="45.7197367" lon="11.191405"><ele>978.5999999999999</ele><time>2026-04-07T10:08:11.961Z</time></trkpt><trkpt lat="45.7196383" lon="11.19141"><ele>978.0</ele><time>2026-04-07T10:08:12.961Z</time></trkpt><trkpt lat="45.7195417" lon="11.19142"><ele>978.0</ele><time>2026-04-07T10:08:13.96Z</time></trkpt><trkpt lat="45.719455" lon="11.1914267"><ele>978.0000000000001</ele><time>2026-04-07T10:08:14.961Z</time></trkpt><trkpt lat="45.719375" lon="11.1914433"><ele>978.0</ele><time>2026-04-07T10:08:15.961Z</time></trkpt><trkpt lat="45.719305" lon="11.1914667"><ele>978.0</ele><time>2026-04-07T10:08:16.96Z</time></trkpt><trkpt lat="45.7192367" lon="11.19149"><ele>978.0000000000001</ele><time>2026-04-07T10:08:17.96Z</time></trkpt><trkpt lat="45.7191817" lon="11.1915383"><ele>978.0</ele><time>2026-04-07T10:08:18.96Z</time></trkpt><trkpt lat="45.7191267" lon="11.19159"><ele>978.0</ele><time>2026-04-07T10:08:19.96Z</time></trkpt><trkpt lat="45.7190283" lon="11.191675"><ele>971.3333333333334</ele><time>2026-04-07T10:08:21.961Z</time></trkpt><trkpt lat="45.718955" lon="11.19169"><ele>964.6666666666667</ele><time>2026-04-07T10:08:22.961Z</time></trkpt><trkpt lat="45.718855" lon="11.1917133"><ele>958.0</ele><time>2026-04-07T10:08:23.961Z</time></trkpt><trkpt lat="45.71876" lon="11.191745"><ele>951.3333333333334</ele><time>2026-04-07T10:08:24.961Z</time></trkpt><trkpt lat="45.7186733" lon="11.19177"><ele>944.6666666666667</ele><time>2026-04-07T10:08:25.96Z</time></trkpt><trkpt lat="45.718595" lon="11.1917817"><ele>938.0</ele><time>2026-04-07T10:08:26.961Z</time></trkpt><trkpt lat="45.7185067" lon="11.1917867"><ele>937.1666666666667</ele><time>2026-04-07T10:08:27.961Z</time></trkpt><trkpt lat="45.71843" lon="11.1917783"><ele>936.3333333333334</ele><time>2026-04-07T10:08:28.961Z</time></trkpt><trkpt lat="45.7183283" lon="11.19172"><ele>935.5</ele><time>2026-04-07T10:08:30.961Z</time></trkpt><trkpt lat="45.7182833" lon="11.1916533"><ele>934.6666666666667</ele><time>2026-04-07T10:08:31.961Z</time></trkpt><trkpt lat="45.7182233" lon="11.191575"><ele>933.8333333333334</ele><time>2026-04-07T10:08:32.961Z</time></trkpt><trkpt lat="45.7181533" lon="11.191485"><ele>933.0</ele><time>2026-04-07T10:08:33.96Z</time></trkpt><trkpt lat="45.7180617" lon="11.1913767"><ele>937.8</ele><time>2026-04-07T10:08:34.96Z</time></trkpt><trkpt lat="45.7179867" lon="11.19127"><ele>942.5999999999999</ele><time>2026-04-07T10:08:35.961Z</time></trkpt><trkpt lat="45.7179233" lon="11.1911617"><ele>947.4000000000001</ele><time>2026-04-07T10:08:36.961Z</time></trkpt><trkpt lat="45.717865" lon="11.1910433"><ele>952.2</ele><time>2026-04-07T10:08:37.961Z</time></trkpt><trkpt lat="45.7178133" lon="11.1909283"><ele>957.0</ele><time>2026-04-07T10:08:38.961Z</time></trkpt><trkpt lat="45.7177683" lon="11.1908433"><ele>955.8333333333334</ele><time>2026-04-07T10:08:39.961Z</time></trkpt><trkpt lat="45.7177133" lon="11.1907833"><ele>954.6666666666667</ele><time>2026-04-07T10:08:40.961Z</time></trkpt><trkpt lat="45.7176433" lon="11.1907433"><ele>953.5</ele><time>2026-04-07T10:08:41.96Z</time></trkpt><trkpt lat="45.7175717" lon="11.190715"><ele>952.3333333333334</ele><time>2026-04-07T10:08:42.96Z</time></trkpt><trkpt lat="45.7174683" lon="11.1906467"><ele>951.1666666666667</ele><time>2026-04-07T10:08:44.961Z</time></trkpt><trkpt lat="45.71742" lon="11.1905767"><ele>950.0</ele><time>2026-04-07T10:08:45.961Z</time></trkpt><trkpt lat="45.7173767" lon="11.1904717"><ele>950.0</ele><time>2026-04-07T10:08:46.961Z</time></trkpt><trkpt lat="45.7173267" lon="11.190335"><ele>950.0</ele><time>2026-04-07T10:08:47.96Z</time></trkpt><trkpt lat="45.7172733" lon="11.1901983"><ele>950.0</ele><time>2026-04-07T10:08:48.961Z</time></trkpt><trkpt lat="45.7172233" lon="11.190065"><ele>950.0</ele><time>2026-04-07T10:08:49.96Z</time></trkpt><trkpt lat="45.7171767" lon="11.1899433"><ele>950.0</ele><time>2026-04-07T10:08:50.96Z</time></trkpt><trkpt lat="45.7171333" lon="11.18982"><ele>950.8</ele><time>2026-04-07T10:08:51.96Z</time></trkpt><trkpt lat="45.7170833" lon="11.1896917"><ele>951.6</ele><time>2026-04-07T10:08:52.961Z</time></trkpt><trkpt lat="45.7170383" lon="11.18957"><ele>952.4000000000001</ele><time>2026-04-07T10:08:53.96Z</time></trkpt><trkpt lat="45.7169933" lon="11.1894517"><ele>953.2</ele><time>2026-04-07T10:08:54.961Z</time></trkpt><trkpt lat="45.7169533" lon="11.189345"><ele>954.0</ele><time>2026-04-07T10:08:55.961Z</time></trkpt><trkpt lat="45.7169217" lon="11.1892383"><ele>954.6</ele><time>2026-04-07T10:08:56.961Z</time></trkpt><trkpt lat="45.7168933" lon="11.18914"><ele>955.2</ele><time>2026-04-07T10:08:57.961Z</time></trkpt><trkpt lat="45.7168567" lon="11.1890083"><ele>955.8000000000001</ele><time>2026-04-07T10:08:59.961Z</time></trkpt><trkpt lat="45.71688" lon="11.18886"><ele>956.4000000000001</ele><time>2026-04-07T10:09:02.96Z</time></trkpt><trkpt lat="45.7169067" lon="11.1886933"><ele>957.0</ele><time>2026-04-07T10:09:04.961Z</time></trkpt><trkpt lat="45.7169067" lon="11.188545"><ele>948.0</ele><time>2026-04-07T10:09:06.961Z</time></trkpt><trkpt lat="45.7168983" lon="11.1884417"><ele>939.0</ele><time>2026-04-07T10:09:09.961Z</time></trkpt><trkpt lat="45.7168667" lon="11.1883633"><ele>930.0</ele><time>2026-04-07T10:09:21.96Z</time></trkpt><trkpt lat="45.7168283" lon="11.1881783"><ele>921.0</ele><time>2026-04-07T10:09:23.959Z</time></trkpt><trkpt lat="45.7168067" lon="11.1880533"><ele>912.0</ele><time>2026-04-07T10:09:24.959Z</time></trkpt><trkpt lat="45.7167983" lon="11.187915"><ele>912.0</ele><time>2026-04-07T10:09:25.96Z</time></trkpt><trkpt lat="45.7168133" lon="11.187775"><ele>912.0</ele><time>2026-04-07T10:09:26.96Z</time></trkpt><trkpt lat="45.71685" lon="11.187655"><ele>912.0</ele><time>2026-04-07T10:09:27.959Z</time></trkpt><trkpt lat="45.71692" lon="11.187525"><ele>912.0</ele><time>2026-04-07T10:09:28.959Z</time></trkpt><trkpt lat="45.71698" lon="11.1873867"><ele>912.0</ele><time>2026-04-07T10:09:29.96Z</time></trkpt><trkpt lat="45.7170433" lon="11.1872617"><ele>919.6</ele><time>2026-04-07T10:09:30.96Z</time></trkpt><trkpt lat="45.7171033" lon="11.1871333"><ele>927.2</ele><time>2026-04-07T10:09:31.959Z</time></trkpt><trkpt lat="45.7171617" lon="11.1870133"><ele>934.8</ele><time>2026-04-07T10:09:32.96Z</time></trkpt><trkpt lat="45.7172133" lon="11.1869017"><ele>942.4</ele><time>2026-04-07T10:09:33.96Z</time></trkpt><trkpt lat="45.7172567" lon="11.186785"><ele>950.0</ele><time>2026-04-07T10:09:34.959Z</time></trkpt><trkpt lat="45.7172967" lon="11.186665"><ele>950.0</ele><time>2026-04-07T10:09:35.96Z</time></trkpt><trkpt lat="45.7173317" lon="11.1865567"><ele>950.0</ele><time>2026-04-07T10:09:36.96Z</time></trkpt><trkpt lat="45.717325" lon="11.1864417"><ele>950.0</ele><time>2026-04-07T10:09:37.96Z</time></trkpt><trkpt lat="45.7172717" lon="11.18633"><ele>950.0</ele><time>2026-04-07T10:09:38.959Z</time></trkpt><trkpt lat="45.7171917" lon="11.18624"><ele>950.0</ele><time>2026-04-07T10:09:39.96Z</time></trkpt><trkpt lat="45.7170583" lon="11.186185"><ele>951.6666666666667</ele><time>2026-04-07T10:09:40.96Z</time></trkpt><trkpt lat="45.7169083" lon="11.186135"><ele>953.3333333333333</ele><time>2026-04-07T10:09:41.959Z</time></trkpt><trkpt lat="45.7167583" lon="11.1860717"><ele>955.0</ele><time>2026-04-07T10:09:42.959Z</time></trkpt><trkpt lat="45.7165983" lon="11.1859817"><ele>955.0</ele><time>2026-04-07T10:09:43.96Z</time></trkpt><trkpt lat="45.7164633" lon="11.1858517"><ele>955.0</ele><time>2026-04-07T10:09:44.96Z</time></trkpt><trkpt lat="45.7163383" lon="11.185735"><ele>955.0</ele><time>2026-04-07T10:09:45.959Z</time></trkpt><trkpt lat="45.7162233" lon="11.1856583"><ele>955.0</ele><time>2026-04-07T10:09:46.96Z</time></trkpt><trkpt lat="45.7161133" lon="11.1856167"><ele>956.8</ele><time>2026-04-07T10:09:47.959Z</time></trkpt><trkpt lat="45.7159783" lon="11.1856567"><ele>958.6</ele><time>2026-04-07T10:09:48.96Z</time></trkpt><trkpt lat="45.7158833" lon="11.1856783"><ele>960.4000000000001</ele><time>2026-04-07T10:09:49.96Z</time></trkpt><trkpt lat="45.71581" lon="11.1856733"><ele>962.2</ele><time>2026-04-07T10:09:50.959Z</time></trkpt><trkpt lat="45.71573" lon="11.185555"><ele>964.0</ele><time>2026-04-07T10:09:52.959Z</time></trkpt><trkpt lat="45.71572" lon="11.1854433"><ele>964.0</ele><time>2026-04-07T10:09:53.96Z</time></trkpt><trkpt lat="45.7157033" lon="11.1853083"><ele>964.0</ele><time>2026-04-07T10:09:54.96Z</time></trkpt><trkpt lat="45.7156883" lon="11.1851383"><ele>964.0</ele><time>2026-04-07T10:09:55.96Z</time></trkpt><trkpt lat="45.7156517" lon="11.18496"><ele>964.0</ele><time>2026-04-07T10:09:56.96Z</time></trkpt><trkpt lat="45.7155933" lon="11.1848"><ele>969.0</ele><time>2026-04-07T10:09:57.96Z</time></trkpt><trkpt lat="45.7155067" lon="11.1846683"><ele>974.0000000000001</ele><time>2026-04-07T10:09:58.959Z</time></trkpt><trkpt lat="45.71542" lon="11.1845617"><ele>979.0000000000001</ele><time>2026-04-07T10:09:59.959Z</time></trkpt><trkpt lat="45.7153617" lon="11.1844617"><ele>984.0</ele><time>2026-04-07T10:10:00.959Z</time></trkpt><trkpt lat="45.71533" lon="11.1843417"><ele>989.0</ele><time>2026-04-07T10:10:01.96Z</time></trkpt><trkpt lat="45.7153233" lon="11.184195"><ele>989.0000000000001</ele><time>2026-04-07T10:10:02.96Z</time></trkpt><trkpt lat="45.7153217" lon="11.1840617"><ele>989.0</ele><time>2026-04-07T10:10:03.959Z</time></trkpt><trkpt lat="45.7153083" lon="11.183945"><ele>989.0</ele><time>2026-04-07T10:10:04.96Z</time></trkpt><trkpt lat="45.7152633" lon="11.1838517"><ele>989.0</ele><time>2026-04-07T10:10:05.959Z</time></trkpt><trkpt lat="45.7152083" lon="11.1838"><ele>989.0000000000001</ele><time>2026-04-07T10:10:06.96Z</time></trkpt><trkpt lat="45.7151183" lon="11.1837233"><ele>989.0</ele><time>2026-04-07T10:10:08.96Z</time></trkpt><trkpt lat="45.7150533" lon="11.1836567"><ele>985.0000000000001</ele><time>2026-04-07T10:10:10.959Z</time></trkpt><trkpt lat="45.7149983" lon="11.183575"><ele>981.0</ele><time>2026-04-07T10:10:13.96Z</time></trkpt><trkpt lat="45.7149267" lon="11.183585"><ele>977.0</ele><time>2026-04-07T10:10:18.96Z</time></trkpt><trkpt lat="45.7149433" lon="11.183675"><ele>973.0</ele><time>2026-04-07T10:10:20.96Z</time></trkpt><trkpt lat="45.7150267" lon="11.1837617"><ele>969.0000000000001</ele><time>2026-04-07T10:10:22.96Z</time></trkpt><trkpt lat="45.7150883" lon="11.1838333"><ele>965.0</ele><time>2026-04-07T10:10:23.96Z</time></trkpt><trkpt lat="45.715165" lon="11.1839117"><ele>965.0000000000001</ele><time>2026-04-07T10:10:24.959Z</time></trkpt><trkpt lat="45.7152333" lon="11.18399"><ele>965.0</ele><time>2026-04-07T10:10:25.959Z</time></trkpt><trkpt lat="45.7152817" lon="11.18408"><ele>965.0</ele><time>2026-04-07T10:10:26.96Z</time></trkpt><trkpt lat="45.7153" lon="11.184215"><ele>965.0</ele><time>2026-04-07T10:10:27.96Z</time></trkpt><trkpt lat="45.7153" lon="11.1843467"><ele>965.0000000000001</ele><time>2026-04-07T10:10:28.96Z</time></trkpt><trkpt lat="45.7153117" lon="11.184465"><ele>965.0</ele><time>2026-04-07T10:10:29.959Z</time></trkpt><trkpt lat="45.7153383" lon="11.184565"><ele>964.8</ele><time>2026-04-07T10:10:30.96Z</time></trkpt><trkpt lat="45.7153783" lon="11.1846717"><ele>964.6</ele><time>2026-04-07T10:10:31.959Z</time></trkpt><trkpt lat="45.7154533" lon="11.184775"><ele>964.4000000000001</ele><time>2026-04-07T10:10:32.96Z</time></trkpt><trkpt lat="45.7155433" lon="11.184865"><ele>964.2</ele><time>2026-04-07T10:10:33.96Z</time></trkpt><trkpt lat="45.7156183" lon="11.1849817"><ele>964.0</ele><time>2026-04-07T10:10:34.959Z</time></trkpt><trkpt lat="45.71567" lon="11.185135"><ele>964.0</ele><time>2026-04-07T10:10:35.96Z</time></trkpt><trkpt lat="45.7157033" lon="11.18532"><ele>964.0000000000001</ele><time>2026-04-07T10:10:36.96Z</time></trkpt><trkpt lat="45.7157217" lon="11.1854983"><ele>964.0000000000001</ele><time>2026-04-07T10:10:37.96Z</time></trkpt><trkpt lat="45.715755" lon="11.185625"><ele>964.0</ele><time>2026-04-07T10:10:38.96Z</time></trkpt><trkpt lat="45.7157967" lon="11.1857167"><ele>964.0</ele><time>2026-04-07T10:10:39.96Z</time></trkpt><trkpt lat="45.7158517" lon="11.18578"><ele>962.2</ele><time>2026-04-07T10:10:40.96Z</time></trkpt><trkpt lat="45.7159233" lon="11.1858217"><ele>960.4000000000001</ele><time>2026-04-07T10:10:41.959Z</time></trkpt><trkpt lat="45.7160083" lon="11.185835"><ele>958.6</ele><time>2026-04-07T10:10:42.96Z</time></trkpt><trkpt lat="45.7161133" lon="11.1858467"><ele>956.8</ele><time>2026-04-07T10:10:43.959Z</time></trkpt><trkpt lat="45.7162433" lon="11.185865"><ele>955.0</ele><time>2026-04-07T10:10:44.959Z</time></trkpt><trkpt lat="45.716405" lon="11.1859467"><ele>955.0</ele><time>2026-04-07T10:10:45.96Z</time></trkpt><trkpt lat="45.716555" lon="11.1860767"><ele>955.0</ele><time>2026-04-07T10:10:46.96Z</time></trkpt><trkpt lat="45.7166867" lon="11.186175"><ele>955.0</ele><time>2026-04-07T10:10:47.959Z</time></trkpt><trkpt lat="45.716805" lon="11.18625"><ele>954.0</ele><time>2026-04-07T10:10:48.96Z</time></trkpt><trkpt lat="45.7169233" lon="11.1862883"><ele>953.0</ele><time>2026-04-07T10:10:49.96Z</time></trkpt><trkpt lat="45.717035" lon="11.18632"><ele>952.0</ele><time>2026-04-07T10:10:50.959Z</time></trkpt><trkpt lat="45.717135" lon="11.1863683"><ele>951.0</ele><time>2026-04-07T10:10:51.96Z</time></trkpt><trkpt lat="45.7172067" lon="11.1864433"><ele>950.0</ele><time>2026-04-07T10:10:52.959Z</time></trkpt><trkpt lat="45.71724" lon="11.1865383"><ele>950.0</ele><time>2026-04-07T10:10:53.96Z</time></trkpt><trkpt lat="45.71724" lon="11.1866367"><ele>950.0</ele><time>2026-04-07T10:10:54.959Z</time></trkpt><trkpt lat="45.71722" lon="11.1867583"><ele>950.0</ele><time>2026-04-07T10:10:55.959Z</time></trkpt><trkpt lat="45.7171683" lon="11.1869083"><ele>950.0</ele><time>2026-04-07T10:10:56.96Z</time></trkpt><trkpt lat="45.7170817" lon="11.18709"><ele>950.0</ele><time>2026-04-07T10:10:57.96Z</time></trkpt><trkpt lat="45.717" lon="11.187295"><ele>951.25</ele><time>2026-04-07T10:10:58.96Z</time></trkpt><trkpt lat="45.71692" lon="11.187485"><ele>952.5</ele><time>2026-04-07T10:10:59.96Z</time></trkpt><trkpt lat="45.7168417" lon="11.1876517"><ele>953.75</ele><time>2026-04-07T10:11:00.96Z</time></trkpt><trkpt lat="45.716785" lon="11.18781"><ele>955.0</ele><time>2026-04-07T10:11:01.96Z</time></trkpt><trkpt lat="45.7167733" lon="11.1879617"><ele>944.25</ele><time>2026-04-07T10:11:02.96Z</time></trkpt><trkpt lat="45.7167767" lon="11.1881433"><ele>933.5</ele><time>2026-04-07T10:11:03.959Z</time></trkpt><trkpt lat="45.716775" lon="11.1883267"><ele>922.75</ele><time>2026-04-07T10:11:04.959Z</time></trkpt><trkpt lat="45.71677" lon="11.1885033"><ele>912.0</ele><time>2026-04-07T10:11:05.96Z</time></trkpt><trkpt lat="45.71672" lon="11.1886733"><ele>910.75</ele><time>2026-04-07T10:11:06.959Z</time></trkpt><trkpt lat="45.7166683" lon="11.18882"><ele>909.5</ele><time>2026-04-07T10:11:07.96Z</time></trkpt><trkpt lat="45.7166283" lon="11.1889817"><ele>908.25</ele><time>2026-04-07T10:11:08.96Z</time></trkpt><trkpt lat="45.7166083" lon="11.18914"><ele>907.0</ele><time>2026-04-07T10:11:09.959Z</time></trkpt><trkpt lat="45.716615" lon="11.1893383"><ele>906.3333333333333</ele><time>2026-04-07T10:11:10.959Z</time></trkpt><trkpt lat="45.7166167" lon="11.1895567"><ele>905.6666666666667</ele><time>2026-04-07T10:11:11.96Z</time></trkpt><trkpt lat="45.716605" lon="11.1898017"><ele>905.0</ele><time>2026-04-07T10:11:12.96Z</time></trkpt><trkpt lat="45.7165733" lon="11.1900583"><ele>903.75</ele><time>2026-04-07T10:11:13.96Z</time></trkpt><trkpt lat="45.7165433" lon="11.1902883"><ele>902.5</ele><time>2026-04-07T10:11:14.96Z</time></trkpt><trkpt lat="45.7165033" lon="11.1904883"><ele>901.25</ele><time>2026-04-07T10:11:15.959Z</time></trkpt><trkpt lat="45.7164383" lon="11.190665"><ele>900.0</ele><time>2026-04-07T10:11:16.96Z</time></trkpt><trkpt lat="45.7163667" lon="11.190785"><ele>899.6666666666666</ele><time>2026-04-07T10:11:17.96Z</time></trkpt><trkpt lat="45.7163133" lon="11.19088"><ele>899.3333333333333</ele><time>2026-04-07T10:11:18.96Z</time></trkpt><trkpt lat="45.716275" lon="11.190965"><ele>899.0</ele><time>2026-04-07T10:11:19.959Z</time></trkpt><trkpt lat="45.7162567" lon="11.1910667"><ele>898.6666666666666</ele><time>2026-04-07T10:11:20.96Z</time></trkpt><trkpt lat="45.7162617" lon="11.1911817"><ele>898.3333333333333</ele><time>2026-04-07T10:11:21.959Z</time></trkpt><trkpt lat="45.7162767" lon="11.191295"><ele>898.0</ele><time>2026-04-07T10:11:22.96Z</time></trkpt><trkpt lat="45.71631" lon="11.1913933"><ele>898.0</ele><time>2026-04-07T10:11:23.96Z</time></trkpt><trkpt lat="45.7163667" lon="11.19148"><ele>898.0</ele><time>2026-04-07T10:11:24.96Z</time></trkpt><trkpt lat="45.7164533" lon="11.1915567"><ele>898.0</ele><time>2026-04-07T10:11:25.959Z</time></trkpt><trkpt lat="45.716545" lon="11.1916433"><ele>898.0</ele><time>2026-04-07T10:11:26.959Z</time></trkpt><trkpt lat="45.7166033" lon="11.1917467"><ele>898.0</ele><time>2026-04-07T10:11:27.96Z</time></trkpt><trkpt lat="45.71664" lon="11.1918583"><ele>897.2</ele><time>2026-04-07T10:11:28.96Z</time></trkpt><trkpt lat="45.7166533" lon="11.1919817"><ele>896.4</ele><time>2026-04-07T10:11:29.959Z</time></trkpt><trkpt lat="45.71666" lon="11.1921183"><ele>895.6000000000001</ele><time>2026-04-07T10:11:30.96Z</time></trkpt><trkpt lat="45.716635" lon="11.1922867"><ele>894.8000000000001</ele><time>2026-04-07T10:11:31.959Z</time></trkpt><trkpt lat="45.7166083" lon="11.192455"><ele>894.0</ele><time>2026-04-07T10:11:32.959Z</time></trkpt><trkpt lat="45.7166" lon="11.1926233"><ele>890.5</ele><time>2026-04-07T10:11:33.959Z</time></trkpt><trkpt lat="45.7166167" lon="11.1927983"><ele>887.0</ele><time>2026-04-07T10:11:34.96Z</time></trkpt><trkpt lat="45.7166717" lon="11.1929683"><ele>883.5</ele><time>2026-04-07T10:11:35.96Z</time></trkpt><trkpt lat="45.7167583" lon="11.193155"><ele>880.0</ele><time>2026-04-07T10:11:36.96Z</time></trkpt><trkpt lat="45.7168383" lon="11.1933433"><ele>878.4</ele><time>2026-04-07T10:11:37.96Z</time></trkpt><trkpt lat="45.7169117" lon="11.1935167"><ele>876.8</ele><time>2026-04-07T10:11:38.959Z</time></trkpt><trkpt lat="45.716975" lon="11.19366"><ele>875.2</ele><time>2026-04-07T10:11:39.959Z</time></trkpt><trkpt lat="45.7170283" lon="11.1937717"><ele>873.6</ele><time>2026-04-07T10:11:40.96Z</time></trkpt><trkpt lat="45.717095" lon="11.1938483"><ele>872.0</ele><time>2026-04-07T10:11:41.96Z</time></trkpt><trkpt lat="45.7171733" lon="11.1938917"><ele>872.0</ele><time>2026-04-07T10:11:42.96Z</time></trkpt><trkpt lat="45.71729" lon="11.19387"><ele>872.0</ele><time>2026-04-07T10:11:43.96Z</time></trkpt><trkpt lat="45.717435" lon="11.1938333"><ele>872.0</ele><time>2026-04-07T10:11:44.96Z</time></trkpt><trkpt lat="45.717595" lon="11.193805"><ele>872.0</ele><time>2026-04-07T10:11:45.959Z</time></trkpt><trkpt lat="45.7177517" lon="11.1937833"><ele>872.75</ele><time>2026-04-07T10:11:46.96Z</time></trkpt><trkpt lat="45.717905" lon="11.1937633"><ele>873.5</ele><time>2026-04-07T10:11:47.959Z</time></trkpt><trkpt lat="45.718055" lon="11.1937517"><ele>874.25</ele><time>2026-04-07T10:11:48.96Z</time></trkpt><trkpt lat="45.7181983" lon="11.1937417"><ele>875.0</ele><time>2026-04-07T10:11:49.959Z</time></trkpt><trkpt lat="45.718335" lon="11.1937417"><ele>875.0</ele><time>2026-04-07T10:11:50.959Z</time></trkpt><trkpt lat="45.718455" lon="11.1937917"><ele>875.0</ele><time>2026-04-07T10:11:51.959Z</time></trkpt><trkpt lat="45.7185783" lon="11.19387"><ele>875.0</ele><time>2026-04-07T10:11:52.96Z</time></trkpt><trkpt lat="45.71871" lon="11.193955"><ele>875.0</ele><time>2026-04-07T10:11:53.959Z</time></trkpt><trkpt lat="45.7188533" lon="11.194035"><ele>866.75</ele><time>2026-04-07T10:11:54.96Z</time></trkpt><trkpt lat="45.71898" lon="11.1940783"><ele>858.5</ele><time>2026-04-07T10:11:55.96Z</time></trkpt><trkpt lat="45.719105" lon="11.1941033"><ele>850.25</ele><time>2026-04-07T10:11:56.959Z</time></trkpt><trkpt lat="45.7192117" lon="11.1941083"><ele>842.0</ele><time>2026-04-07T10:11:57.96Z</time></trkpt><trkpt lat="45.719315" lon="11.1941183"><ele>842.0000000000001</ele><time>2026-04-07T10:11:58.959Z</time></trkpt><trkpt lat="45.7193983" lon="11.1941633"><ele>842.0</ele><time>2026-04-07T10:11:59.96Z</time></trkpt><trkpt lat="45.71944" lon="11.1942367"><ele>842.0</ele><time>2026-04-07T10:12:00.96Z</time></trkpt><trkpt lat="45.7194567" lon="11.1943367"><ele>842.0</ele><time>2026-04-07T10:12:01.959Z</time></trkpt><trkpt lat="45.719485" lon="11.1944217"><ele>842.0</ele><time>2026-04-07T10:12:02.959Z</time></trkpt><trkpt lat="45.7195283" lon="11.1945017"><ele>842.0000000000001</ele><time>2026-04-07T10:12:03.959Z</time></trkpt><trkpt lat="45.719595" lon="11.1945717"><ele>842.0</ele><time>2026-04-07T10:12:04.96Z</time></trkpt><trkpt lat="45.7196517" lon="11.1946417"><ele>845.0</ele><time>2026-04-07T10:12:05.96Z</time></trkpt><trkpt lat="45.7196917" lon="11.194735"><ele>848.0</ele><time>2026-04-07T10:12:06.96Z</time></trkpt><trkpt lat="45.7197033" lon="11.19484"><ele>851.0</ele><time>2026-04-07T10:12:07.96Z</time></trkpt><trkpt lat="45.7196833" lon="11.194955"><ele>854.0</ele><time>2026-04-07T10:12:08.96Z</time></trkpt><trkpt lat="45.71962" lon="11.1950933"><ele>857.0</ele><time>2026-04-07T10:12:09.96Z</time></trkpt><trkpt lat="45.719505" lon="11.1952367"><ele>851.0</ele><time>2026-04-07T10:12:10.959Z</time></trkpt><trkpt lat="45.7193483" lon="11.1953883"><ele>845.0</ele><time>2026-04-07T10:12:11.96Z</time></trkpt><trkpt lat="45.7191417" lon="11.1955583"><ele>839.0</ele><time>2026-04-07T10:12:12.96Z</time></trkpt><trkpt lat="45.7189483" lon="11.195745"><ele>839.0</ele><time>2026-04-07T10:12:13.96Z</time></trkpt><trkpt lat="45.71877" lon="11.1959317"><ele>839.0</ele><time>2026-04-07T10:12:14.96Z</time></trkpt><trkpt lat="45.7186167" lon="11.1961017"><ele>839.0</ele><time>2026-04-07T10:12:15.96Z</time></trkpt><trkpt lat="45.7184433" lon="11.1962517"><ele>836.3333333333334</ele><time>2026-04-07T10:12:16.96Z</time></trkpt><trkpt lat="45.718295" lon="11.1963967"><ele>833.6666666666667</ele><time>2026-04-07T10:12:17.96Z</time></trkpt><trkpt lat="45.7181517" lon="11.1965283"><ele>831.0</ele><time>2026-04-07T10:12:18.96Z</time></trkpt><trkpt lat="45.7180167" lon="11.196655"><ele>831.0</ele><time>2026-04-07T10:12:19.96Z</time></trkpt><trkpt lat="45.717865" lon="11.1967917"><ele>831.0</ele><time>2026-04-07T10:12:20.96Z</time></trkpt><trkpt lat="45.71771" lon="11.1969617"><ele>831.0</ele><time>2026-04-07T10:12:21.959Z</time></trkpt><trkpt lat="45.717555" lon="11.19715"><ele>826.0</ele><time>2026-04-07T10:12:22.959Z</time></trkpt><trkpt lat="45.7174017" lon="11.197325"><ele>821.0</ele><time>2026-04-07T10:12:23.96Z</time></trkpt><trkpt lat="45.717235" lon="11.1974867"><ele>816.0</ele><time>2026-04-07T10:12:24.96Z</time></trkpt><trkpt lat="45.7170983" lon="11.1976733"><ele>816.0</ele><time>2026-04-07T10:12:25.959Z</time></trkpt><trkpt lat="45.71697" lon="11.1978317"><ele>816.0</ele><time>2026-04-07T10:12:26.959Z</time></trkpt><trkpt lat="45.7168567" lon="11.198"><ele>816.0</ele><time>2026-04-07T10:12:27.959Z</time></trkpt><trkpt lat="45.716735" lon="11.1981567"><ele>810.3333333333333</ele><time>2026-04-07T10:12:28.96Z</time></trkpt><trkpt lat="45.716595" lon="11.1982933"><ele>804.6666666666666</ele><time>2026-04-07T10:12:29.96Z</time></trkpt><trkpt lat="45.7164383" lon="11.1984367"><ele>799.0</ele><time>2026-04-07T10:12:30.959Z</time></trkpt><trkpt lat="45.716275" lon="11.198565"><ele>799.0</ele><time>2026-04-07T10:12:31.959Z</time></trkpt><trkpt lat="45.71612" lon="11.1986717"><ele>799.0</ele><time>2026-04-07T10:12:32.96Z</time></trkpt><trkpt lat="45.7159733" lon="11.1987733"><ele>799.0</ele><time>2026-04-07T10:12:33.959Z</time></trkpt><trkpt lat="45.7158533" lon="11.1988517"><ele>793.75</ele><time>2026-04-07T10:12:34.959Z</time></trkpt><trkpt lat="45.715745" lon="11.1989467"><ele>788.5</ele><time>2026-04-07T10:12:35.959Z</time></trkpt><trkpt lat="45.7156583" lon="11.199055"><ele>783.25</ele><time>2026-04-07T10:12:36.96Z</time></trkpt><trkpt lat="45.715605" lon="11.1991867"><ele>778.0</ele><time>2026-04-07T10:12:37.959Z</time></trkpt><trkpt lat="45.7155867" lon="11.1993333"><ele>778.0</ele><time>2026-04-07T10:12:38.96Z</time></trkpt><trkpt lat="45.7155733" lon="11.199475"><ele>778.0</ele><time>2026-04-07T10:12:39.959Z</time></trkpt><trkpt lat="45.7155283" lon="11.1995983"><ele>778.0</ele><time>2026-04-07T10:12:40.959Z</time></trkpt><trkpt lat="45.7154433" lon="11.1997117"><ele>778.0</ele><time>2026-04-07T10:12:41.96Z</time></trkpt><trkpt lat="45.71534" lon="11.19981"><ele>778.0</ele><time>2026-04-07T10:12:42.96Z</time></trkpt><trkpt lat="45.715225" lon="11.199905"><ele>774.8</ele><time>2026-04-07T10:12:43.959Z</time></trkpt><trkpt lat="45.71511" lon="11.1999633"><ele>771.5999999999999</ele><time>2026-04-07T10:12:44.959Z</time></trkpt><trkpt lat="45.7150017" lon="11.1999883"><ele>768.4000000000001</ele><time>2026-04-07T10:12:45.96Z</time></trkpt><trkpt lat="45.7149" lon="11.199995"><ele>765.2</ele><time>2026-04-07T10:12:46.96Z</time></trkpt><trkpt lat="45.714815" lon="11.1999983"><ele>762.0</ele><time>2026-04-07T10:12:47.959Z</time></trkpt><trkpt lat="45.7147367" lon="11.2000017"><ele>762.0</ele><time>2026-04-07T10:12:48.96Z</time></trkpt><trkpt lat="45.71466" lon="11.2000033"><ele>762.0</ele><time>2026-04-07T10:12:49.96Z</time></trkpt><trkpt lat="45.7145867" lon="11.2000117"><ele>762.0</ele><time>2026-04-07T10:12:50.959Z</time></trkpt><trkpt lat="45.7144717" lon="11.20007"><ele>762.0</ele><time>2026-04-07T10:12:52.96Z</time></trkpt><trkpt lat="45.7143867" lon="11.2001883"><ele>762.0</ele><time>2026-04-07T10:12:54.96Z</time></trkpt><trkpt lat="45.7143333" lon="11.2003367"><ele>760.8</ele><time>2026-04-07T10:12:56.96Z</time></trkpt><trkpt lat="45.71431" lon="11.20049"><ele>759.6</ele><time>2026-04-07T10:12:58.96Z</time></trkpt><trkpt lat="45.7142733" lon="11.20059"><ele>758.4</ele><time>2026-04-07T10:13:00.96Z</time></trkpt><trkpt lat="45.714165" lon="11.200675"><ele>757.1999999999999</ele><time>2026-04-07T10:13:02.96Z</time></trkpt><trkpt lat="45.71407" lon="11.2007183"><ele>756.0</ele><time>2026-04-07T10:13:03.96Z</time></trkpt><trkpt lat="45.7139467" lon="11.2007933"><ele>756.0</ele><time>2026-04-07T10:13:04.96Z</time></trkpt><trkpt lat="45.71381" lon="11.2008767"><ele>756.0</ele><time>2026-04-07T10:13:05.959Z</time></trkpt><trkpt lat="45.7136683" lon="11.2009667"><ele>756.0</ele><time>2026-04-07T10:13:06.959Z</time></trkpt><trkpt lat="45.7135367" lon="11.2010733"><ele>751.0</ele><time>2026-04-07T10:13:07.96Z</time></trkpt><trkpt lat="45.7134133" lon="11.2011517"><ele>746.0</ele><time>2026-04-07T10:13:08.96Z</time></trkpt><trkpt lat="45.7132967" lon="11.2012233"><ele>741.0</ele><time>2026-04-07T10:13:09.959Z</time></trkpt><trkpt lat="45.713195" lon="11.2012833"><ele>736.0</ele><time>2026-04-07T10:13:10.96Z</time></trkpt><trkpt lat="45.7131083" lon="11.2013417"><ele>736.0</ele><time>2026-04-07T10:13:11.959Z</time></trkpt><trkpt lat="45.7130367" lon="11.20144"><ele>736.0</ele><time>2026-04-07T10:13:12.959Z</time></trkpt><trkpt lat="45.7129717" lon="11.20157"><ele>736.0</ele><time>2026-04-07T10:13:13.959Z</time></trkpt><trkpt lat="45.7129083" lon="11.2016983"><ele>736.0</ele><time>2026-04-07T10:13:14.959Z</time></trkpt><trkpt lat="45.7128467" lon="11.2018317"><ele>736.0</ele><time>2026-04-07T10:13:15.96Z</time></trkpt><trkpt lat="45.7127817" lon="11.2019733"><ele>735.5</ele><time>2026-04-07T10:13:16.96Z</time></trkpt><trkpt lat="45.71274" lon="11.2021417"><ele>735.0</ele><time>2026-04-07T10:13:17.96Z</time></trkpt><trkpt lat="45.7127083" lon="11.2023283"><ele>734.5</ele><time>2026-04-07T10:13:18.96Z</time></trkpt><trkpt lat="45.7126767" lon="11.2024983"><ele>734.0</ele><time>2026-04-07T10:13:19.959Z</time></trkpt><trkpt lat="45.71263" lon="11.2026467"><ele>735.3333333333333</ele><time>2026-04-07T10:13:20.959Z</time></trkpt><trkpt lat="45.7125967" lon="11.2027767"><ele>736.6666666666666</ele><time>2026-04-07T10:13:21.959Z</time></trkpt><trkpt lat="45.712565" lon="11.2028983"><ele>738.0</ele><time>2026-04-07T10:13:22.96Z</time></trkpt><trkpt lat="45.712535" lon="11.203005"><ele>739.3333333333334</ele><time>2026-04-07T10:13:23.96Z</time></trkpt><trkpt lat="45.7125083" lon="11.2031033"><ele>740.6666666666667</ele><time>2026-04-07T10:13:24.96Z</time></trkpt><trkpt lat="45.71248" lon="11.2031867"><ele>742.0</ele><time>2026-04-07T10:13:25.959Z</time></trkpt><trkpt lat="45.7124333" lon="11.203345"><ele>743.0</ele><time>2026-04-07T10:13:27.96Z</time></trkpt><trkpt lat="45.7124017" lon="11.2034233"><ele>744.0</ele><time>2026-04-07T10:13:28.96Z</time></trkpt><trkpt lat="45.7123533" lon="11.2035033"><ele>745.0</ele><time>2026-04-07T10:13:29.96Z</time></trkpt><trkpt lat="45.712285" lon="11.203595"><ele>746.0</ele><time>2026-04-07T10:13:30.959Z</time></trkpt><trkpt lat="45.71218" lon="11.2036883"><ele>747.0</ele><time>2026-04-07T10:13:31.96Z</time></trkpt><trkpt lat="45.712045" lon="11.2037833"><ele>747.0</ele><time>2026-04-07T10:13:32.959Z</time></trkpt><trkpt lat="45.71191" lon="11.2038717"><ele>747.0</ele><time>2026-04-07T10:13:33.959Z</time></trkpt><trkpt lat="45.7117833" lon="11.20394"><ele>747.0</ele><time>2026-04-07T10:13:34.959Z</time></trkpt><trkpt lat="45.7116467" lon="11.203985"><ele>747.0</ele><time>2026-04-07T10:13:35.959Z</time></trkpt><trkpt lat="45.7115183" lon="11.204015"><ele>746.8</ele><time>2026-04-07T10:13:36.959Z</time></trkpt><trkpt lat="45.7114017" lon="11.2040383"><ele>746.6</ele><time>2026-04-07T10:13:37.959Z</time></trkpt><trkpt lat="45.7113017" lon="11.2040433"><ele>746.4</ele><time>2026-04-07T10:13:38.959Z</time></trkpt><trkpt lat="45.7112117" lon="11.2040483"><ele>746.1999999999999</ele><time>2026-04-07T10:13:39.959Z</time></trkpt><trkpt lat="45.7111183" lon="11.2040633"><ele>746.0</ele><time>2026-04-07T10:13:40.958Z</time></trkpt><trkpt lat="45.71103" lon="11.2040983"><ele>745.5</ele><time>2026-04-07T10:13:41.959Z</time></trkpt><trkpt lat="45.71095" lon="11.20415"><ele>745.0</ele><time>2026-04-07T10:13:42.958Z</time></trkpt><trkpt lat="45.71088" lon="11.2042117"><ele>744.5</ele><time>2026-04-07T10:13:43.959Z</time></trkpt><trkpt lat="45.7108217" lon="11.2042767"><ele>744.0</ele><time>2026-04-07T10:13:44.959Z</time></trkpt><trkpt lat="45.7107717" lon="11.2043517"><ele>743.5</ele><time>2026-04-07T10:13:45.959Z</time></trkpt><trkpt lat="45.7107317" lon="11.2044467"><ele>743.0</ele><time>2026-04-07T10:13:46.959Z</time></trkpt><trkpt lat="45.7107167" lon="11.20456"><ele>743.0</ele><time>2026-04-07T10:13:47.959Z</time></trkpt><trkpt lat="45.7106883" lon="11.2046867"><ele>743.0</ele><time>2026-04-07T10:13:48.959Z</time></trkpt><trkpt lat="45.7106417" lon="11.2048133"><ele>743.0</ele><time>2026-04-07T10:13:49.958Z</time></trkpt><trkpt lat="45.710565" lon="11.2049367"><ele>743.0</ele><time>2026-04-07T10:13:50.959Z</time></trkpt><trkpt lat="45.7104517" lon="11.20508"><ele>744.0</ele><time>2026-04-07T10:13:51.959Z</time></trkpt><trkpt lat="45.7103317" lon="11.2052133"><ele>745.0</ele><time>2026-04-07T10:13:52.959Z</time></trkpt><trkpt lat="45.7102117" lon="11.2053283"><ele>746.0</ele><time>2026-04-07T10:13:53.959Z</time></trkpt><trkpt lat="45.7101033" lon="11.20544"><ele>747.0</ele><time>2026-04-07T10:13:54.958Z</time></trkpt><trkpt lat="45.7099967" lon="11.205545"><ele>744.25</ele><time>2026-04-07T10:13:55.959Z</time></trkpt><trkpt lat="45.7099017" lon="11.2056567"><ele>741.5</ele><time>2026-04-07T10:13:56.959Z</time></trkpt><trkpt lat="45.7098133" lon="11.2057867"><ele>738.75</ele><time>2026-04-07T10:13:57.959Z</time></trkpt><trkpt lat="45.7097267" lon="11.2059283"><ele>736.0</ele><time>2026-04-07T10:13:58.959Z</time></trkpt><trkpt lat="45.7096383" lon="11.2060717"><ele>736.0</ele><time>2026-04-07T10:13:59.959Z</time></trkpt><trkpt lat="45.709555" lon="11.2062117"><ele>736.0</ele><time>2026-04-07T10:14:00.959Z</time></trkpt><trkpt lat="45.709485" lon="11.20637"><ele>736.0</ele><time>2026-04-07T10:14:01.958Z</time></trkpt><trkpt lat="45.709435" lon="11.2065333"><ele>736.0</ele><time>2026-04-07T10:14:02.959Z</time></trkpt><trkpt lat="45.7093967" lon="11.206685"><ele>734.5</ele><time>2026-04-07T10:14:03.959Z</time></trkpt><trkpt lat="45.7093583" lon="11.20681"><ele>733.0</ele><time>2026-04-07T10:14:04.958Z</time></trkpt><trkpt lat="45.7093133" lon="11.2069133"><ele>731.5</ele><time>2026-04-07T10:14:05.958Z</time></trkpt><trkpt lat="45.7092533" lon="11.2070067"><ele>730.0</ele><time>2026-04-07T10:14:06.959Z</time></trkpt><trkpt lat="45.7091883" lon="11.2070633"><ele>728.5</ele><time>2026-04-07T10:14:07.959Z</time></trkpt><trkpt lat="45.7090917" lon="11.2070783"><ele>727.0</ele><time>2026-04-07T10:14:08.958Z</time></trkpt><trkpt lat="45.7089717" lon="11.20707"><ele>727.0</ele><time>2026-04-07T10:14:09.958Z</time></trkpt><trkpt lat="45.7088367" lon="11.2070733"><ele>727.0</ele><time>2026-04-07T10:14:10.959Z</time></trkpt><trkpt lat="45.7087067" lon="11.2070983"><ele>727.0</ele><time>2026-04-07T10:14:11.958Z</time></trkpt><trkpt lat="45.7085867" lon="11.2071567"><ele>727.0</ele><time>2026-04-07T10:14:12.959Z</time></trkpt><trkpt lat="45.70849" lon="11.2072467"><ele>725.1666666666667</ele><time>2026-04-07T10:14:13.959Z</time></trkpt><trkpt lat="45.7084117" lon="11.2073517"><ele>723.3333333333334</ele><time>2026-04-07T10:14:14.959Z</time></trkpt><trkpt lat="45.708345" lon="11.207435"><ele>721.5</ele><time>2026-04-07T10:14:15.959Z</time></trkpt><trkpt lat="45.7082767" lon="11.2074967"><ele>719.6666666666666</ele><time>2026-04-07T10:14:16.959Z</time></trkpt><trkpt lat="45.7081967" lon="11.2075217"><ele>717.8333333333333</ele><time>2026-04-07T10:14:17.959Z</time></trkpt><trkpt lat="45.7081233" lon="11.2075217"><ele>716.0</ele><time>2026-04-07T10:14:18.959Z</time></trkpt><trkpt lat="45.708025" lon="11.2075267"><ele>716.0</ele><time>2026-04-07T10:14:19.959Z</time></trkpt><trkpt lat="45.7079283" lon="11.2075517"><ele>716.0</ele><time>2026-04-07T10:14:20.959Z</time></trkpt><trkpt lat="45.707825" lon="11.2075883"><ele>716.0</ele><time>2026-04-07T10:14:21.959Z</time></trkpt><trkpt lat="45.707725" lon="11.2076317"><ele>716.0</ele><time>2026-04-07T10:14:22.959Z</time></trkpt><trkpt lat="45.7076317" lon="11.20771"><ele>716.0</ele><time>2026-04-07T10:14:23.959Z</time></trkpt><trkpt lat="45.7075533" lon="11.2078167"><ele>718.5</ele><time>2026-04-07T10:14:24.958Z</time></trkpt><trkpt lat="45.707465" lon="11.20793"><ele>721.0</ele><time>2026-04-07T10:14:25.958Z</time></trkpt><trkpt lat="45.7073783" lon="11.2080633"><ele>723.5</ele><time>2026-04-07T10:14:26.959Z</time></trkpt><trkpt lat="45.7072933" lon="11.2081983"><ele>726.0</ele><time>2026-04-07T10:14:27.959Z</time></trkpt><trkpt lat="45.7072367" lon="11.208325"><ele>726.8333333333334</ele><time>2026-04-07T10:14:28.959Z</time></trkpt><trkpt lat="45.7072167" lon="11.2084467"><ele>727.6666666666666</ele><time>2026-04-07T10:14:29.958Z</time></trkpt><trkpt lat="45.7072083" lon="11.208555"><ele>728.5</ele><time>2026-04-07T10:14:30.959Z</time></trkpt><trkpt lat="45.707195" lon="11.20865"><ele>729.3333333333333</ele><time>2026-04-07T10:14:31.958Z</time></trkpt><trkpt lat="45.7071583" lon="11.2088117"><ele>730.1666666666666</ele><time>2026-04-07T10:14:33.959Z</time></trkpt><trkpt lat="45.7071233" lon="11.208945"><ele>731.0</ele><time>2026-04-07T10:14:35.958Z</time></trkpt><trkpt lat="45.70711" lon="11.2090417"><ele>731.0</ele><time>2026-04-07T10:14:37.958Z</time></trkpt><trkpt lat="45.7070933" lon="11.2091367"><ele>731.0</ele><time>2026-04-07T10:14:39.959Z</time></trkpt><trkpt lat="45.7070567" lon="11.209235"><ele>731.0</ele><time>2026-04-07T10:14:42.959Z</time></trkpt><trkpt lat="45.707005" lon="11.2092983"><ele>731.0</ele><time>2026-04-07T10:14:46.958Z</time></trkpt><trkpt lat="45.707075" lon="11.20928"><ele>731.0</ele><time>2026-04-07T10:15:09.959Z</time></trkpt><trkpt lat="45.7070883" lon="11.2094"><ele>731.0</ele><time>2026-04-07T10:15:17.958Z</time></trkpt></trkseg><trkseg><trkpt lat="45.7100733" lon="11.21128"><ele>613.0</ele><time>2026-04-07T11:52:15.931Z</time></trkpt><trkpt lat="45.71006" lon="11.2113883"><ele>613.0</ele><time>2026-04-07T11:54:42.931Z</time></trkpt><trkpt lat="45.71003" lon="11.2115283"><ele>613.0</ele><time>2026-04-07T11:54:44.93Z</time></trkpt><trkpt lat="45.710025" lon="11.2116283"><ele>613.0</ele><time>2026-04-07T11:54:46.93Z</time></trkpt><trkpt lat="45.710025" lon="11.2117533"><ele>613.0</ele><time>2026-04-07T11:54:49.93Z</time></trkpt><trkpt lat="45.710035" lon="11.2118717"><ele>613.0</ele><time>2026-04-07T11:54:51.93Z</time></trkpt><trkpt lat="45.710035" lon="11.2120133"><ele>612.8</ele><time>2026-04-07T11:54:53.93Z</time></trkpt><trkpt lat="45.7100267" lon="11.2121567"><ele>612.5999999999999</ele><time>2026-04-07T11:54:55.931Z</time></trkpt><trkpt lat="45.7099917" lon="11.2123017"><ele>612.4000000000001</ele><time>2026-04-07T11:54:57.931Z</time></trkpt><trkpt lat="45.7099583" lon="11.21246"><ele>612.2</ele><time>2026-04-07T11:54:59.93Z</time></trkpt><trkpt lat="45.70993" lon="11.2125967"><ele>612.0</ele><time>2026-04-07T11:55:01.931Z</time></trkpt><trkpt lat="45.7098783" lon="11.2127233"><ele>611.7142857142857</ele><time>2026-04-07T11:55:03.93Z</time></trkpt><trkpt lat="45.7098367" lon="11.2128067"><ele>611.4285714285714</ele><time>2026-04-07T11:55:04.931Z</time></trkpt><trkpt lat="45.7097967" lon="11.2128933"><ele>611.1428571428571</ele><time>2026-04-07T11:55:05.93Z</time></trkpt><trkpt lat="45.7097667" lon="11.2129783"><ele>610.8571428571429</ele><time>2026-04-07T11:55:06.931Z</time></trkpt><trkpt lat="45.7097383" lon="11.2130667"><ele>610.5714285714286</ele><time>2026-04-07T11:55:07.931Z</time></trkpt><trkpt lat="45.7097333" lon="11.21316"><ele>610.2857142857143</ele><time>2026-04-07T11:55:08.931Z</time></trkpt><trkpt lat="45.7096917" lon="11.2132667"><ele>610.0</ele><time>2026-04-07T11:55:10.931Z</time></trkpt><trkpt lat="45.709605" lon="11.2132783"><ele>610.0</ele><time>2026-04-07T11:55:13.93Z</time></trkpt><trkpt lat="45.7095667" lon="11.2131833"><ele>610.0</ele><time>2026-04-07T11:55:15.93Z</time></trkpt><trkpt lat="45.70953" lon="11.2130283"><ele>610.0</ele><time>2026-04-07T11:55:17.931Z</time></trkpt><trkpt lat="45.709495" lon="11.2128633"><ele>610.0</ele><time>2026-04-07T11:55:19.93Z</time></trkpt><trkpt lat="45.7094583" lon="11.2127183"><ele>610.0</ele><time>2026-04-07T11:55:21.931Z</time></trkpt><trkpt lat="45.70945" lon="11.2126183"><ele>610.0</ele><time>2026-04-07T11:55:23.931Z</time></trkpt><trkpt lat="45.7094633" lon="11.2125"><ele>610.0</ele><time>2026-04-07T11:55:25.931Z</time></trkpt><trkpt lat="45.709465" lon="11.2123317"><ele>610.0</ele><time>2026-04-07T11:55:27.931Z</time></trkpt><trkpt lat="45.709465" lon="11.2122367"><ele>610.0</ele><time>2026-04-07T11:55:28.931Z</time></trkpt><trkpt lat="45.7094583" lon="11.2120867"><ele>610.0</ele><time>2026-04-07T11:55:30.931Z</time></trkpt><trkpt lat="45.709405" lon="11.2119083"><ele>616.6</ele><time>2026-04-07T11:55:32.931Z</time></trkpt><trkpt lat="45.7093567" lon="11.2118233"><ele>623.2</ele><time>2026-04-07T11:55:33.93Z</time></trkpt><trkpt lat="45.7092983" lon="11.2117333"><ele>629.8</ele><time>2026-04-07T11:55:34.93Z</time></trkpt><trkpt lat="45.7092317" lon="11.21164"><ele>636.4</ele><time>2026-04-07T11:55:35.93Z</time></trkpt><trkpt lat="45.7091567" lon="11.21153"><ele>643.0</ele><time>2026-04-07T11:55:36.93Z</time></trkpt><trkpt lat="45.7090883" lon="11.2114183"><ele>643.3333333333334</ele><time>2026-04-07T11:55:37.931Z</time></trkpt><trkpt lat="45.709025" lon="11.21131"><ele>643.6666666666667</ele><time>2026-04-07T11:55:38.93Z</time></trkpt><trkpt lat="45.708975" lon="11.2112183"><ele>644.0</ele><time>2026-04-07T11:55:39.93Z</time></trkpt><trkpt lat="45.7089283" lon="11.21113"><ele>644.3333333333334</ele><time>2026-04-07T11:55:40.93Z</time></trkpt><trkpt lat="45.7088817" lon="11.2110383"><ele>644.6666666666666</ele><time>2026-04-07T11:55:41.93Z</time></trkpt><trkpt lat="45.7088333" lon="11.2109567"><ele>645.0</ele><time>2026-04-07T11:55:42.93Z</time></trkpt><trkpt lat="45.7087933" lon="11.2108683"><ele>645.0</ele><time>2026-04-07T11:55:43.93Z</time></trkpt><trkpt lat="45.70875" lon="11.2107817"><ele>645.0</ele><time>2026-04-07T11:55:44.93Z</time></trkpt><trkpt lat="45.7086983" lon="11.2107117"><ele>645.0</ele><time>2026-04-07T11:55:45.93Z</time></trkpt><trkpt lat="45.7086133" lon="11.2106633"><ele>645.0</ele><time>2026-04-07T11:55:47.93Z</time></trkpt><trkpt lat="45.7085433" lon="11.2107417"><ele>645.0</ele><time>2026-04-07T11:55:49.929Z</time></trkpt><trkpt lat="45.7084667" lon="11.2108383"><ele>645.0</ele><time>2026-04-07T11:55:51.929Z</time></trkpt><trkpt lat="45.70842" lon="11.2109683"><ele>650.8</ele><time>2026-04-07T11:55:53.93Z</time></trkpt><trkpt lat="45.7084133" lon="11.2111617"><ele>656.6</ele><time>2026-04-07T11:55:55.93Z</time></trkpt><trkpt lat="45.7084083" lon="11.2112767"><ele>662.4000000000001</ele><time>2026-04-07T11:55:56.929Z</time></trkpt><trkpt lat="45.708405" lon="11.2113767"><ele>668.2</ele><time>2026-04-07T11:55:57.929Z</time></trkpt><trkpt lat="45.7083817" lon="11.21152"><ele>674.0</ele><time>2026-04-07T11:55:59.93Z</time></trkpt><trkpt lat="45.7083183" lon="11.211585"><ele>674.0</ele><time>2026-04-07T11:56:01.93Z</time></trkpt><trkpt lat="45.7082117" lon="11.2116133"><ele>674.0</ele><time>2026-04-07T11:56:03.93Z</time></trkpt><trkpt lat="45.70814" lon="11.2116417"><ele>674.0</ele><time>2026-04-07T11:56:04.93Z</time></trkpt><trkpt lat="45.70808" lon="11.2116717"><ele>674.0</ele><time>2026-04-07T11:56:05.93Z</time></trkpt><trkpt lat="45.7080217" lon="11.2117767"><ele>674.0</ele><time>2026-04-07T11:56:07.929Z</time></trkpt><trkpt lat="45.7079883" lon="11.2119667"><ele>674.0</ele><time>2026-04-07T11:56:09.929Z</time></trkpt><trkpt lat="45.7079717" lon="11.21209"><ele>674.0</ele><time>2026-04-07T11:56:10.93Z</time></trkpt><trkpt lat="45.7079533" lon="11.2122033"><ele>674.0</ele><time>2026-04-07T11:56:11.929Z</time></trkpt><trkpt lat="45.7079283" lon="11.2123033"><ele>674.0</ele><time>2026-04-07T11:56:12.929Z</time></trkpt><trkpt lat="45.7078917" lon="11.2123967"><ele>674.0</ele><time>2026-04-07T11:56:13.929Z</time></trkpt><trkpt lat="45.7078517" lon="11.212475"><ele>674.0</ele><time>2026-04-07T11:56:14.929Z</time></trkpt><trkpt lat="45.7078067" lon="11.2125483"><ele>675.0</ele><time>2026-04-07T11:56:15.93Z</time></trkpt><trkpt lat="45.7077267" lon="11.212645"><ele>676.0</ele><time>2026-04-07T11:56:17.93Z</time></trkpt><trkpt lat="45.7076767" lon="11.2127717"><ele>677.0</ele><time>2026-04-07T11:56:19.929Z</time></trkpt><trkpt lat="45.7076467" lon="11.2129433"><ele>678.0</ele><time>2026-04-07T11:56:21.93Z</time></trkpt><trkpt lat="45.7076383" lon="11.2130467"><ele>679.0</ele><time>2026-04-07T11:56:22.929Z</time></trkpt><trkpt lat="45.7076317" lon="11.2131417"><ele>677.6666666666667</ele><time>2026-04-07T11:56:23.929Z</time></trkpt><trkpt lat="45.7076417" lon="11.213245"><ele>676.3333333333334</ele><time>2026-04-07T11:56:24.929Z</time></trkpt><trkpt lat="45.707645" lon="11.2133617"><ele>675.0</ele><time>2026-04-07T11:56:25.929Z</time></trkpt><trkpt lat="45.707645" lon="11.2134883"><ele>673.6666666666666</ele><time>2026-04-07T11:56:26.93Z</time></trkpt><trkpt lat="45.70764" lon="11.2136317"><ele>672.3333333333333</ele><time>2026-04-07T11:56:27.93Z</time></trkpt><trkpt lat="45.7076433" lon="11.2137567"><ele>671.0</ele><time>2026-04-07T11:56:28.93Z</time></trkpt><trkpt lat="45.7076417" lon="11.2138733"><ele>671.0</ele><time>2026-04-07T11:56:29.93Z</time></trkpt><trkpt lat="45.7076317" lon="11.21398"><ele>671.0</ele><time>2026-04-07T11:56:30.929Z</time></trkpt><trkpt lat="45.70758" lon="11.2140983"><ele>671.0</ele><time>2026-04-07T11:56:32.93Z</time></trkpt><trkpt lat="45.7074717" lon="11.21406"><ele>671.0</ele><time>2026-04-07T11:56:34.93Z</time></trkpt><trkpt lat="45.7073967" lon="11.213965"><ele>671.0</ele><time>2026-04-07T11:56:35.93Z</time></trkpt><trkpt lat="45.7073233" lon="11.21384"><ele>671.0</ele><time>2026-04-07T11:56:36.929Z</time></trkpt><trkpt lat="45.7072667" lon="11.2136817"><ele>671.0</ele><time>2026-04-07T11:56:37.93Z</time></trkpt><trkpt lat="45.707215" lon="11.2135133"><ele>671.0</ele><time>2026-04-07T11:56:38.93Z</time></trkpt><trkpt lat="45.7071717" lon="11.213335"><ele>671.0</ele><time>2026-04-07T11:56:39.929Z</time></trkpt><trkpt lat="45.70711" lon="11.2131767"><ele>673.0</ele><time>2026-04-07T11:56:40.93Z</time></trkpt><trkpt lat="45.7070283" lon="11.21302"><ele>675.0</ele><time>2026-04-07T11:56:41.93Z</time></trkpt><trkpt lat="45.70695" lon="11.2128817"><ele>677.0</ele><time>2026-04-07T11:56:42.93Z</time></trkpt><trkpt lat="45.7068867" lon="11.2127533"><ele>679.0</ele><time>2026-04-07T11:56:43.93Z</time></trkpt><trkpt lat="45.70683" lon="11.2126317"><ele>674.4000000000001</ele><time>2026-04-07T11:56:44.93Z</time></trkpt><trkpt lat="45.7067783" lon="11.212535"><ele>669.8</ele><time>2026-04-07T11:56:45.93Z</time></trkpt><trkpt lat="45.7067117" lon="11.212465"><ele>665.2</ele><time>2026-04-07T11:56:46.93Z</time></trkpt><trkpt lat="45.7066417" lon="11.2124267"><ele>660.5999999999999</ele><time>2026-04-07T11:56:47.93Z</time></trkpt><trkpt lat="45.706535" lon="11.2124267"><ele>656.0</ele><time>2026-04-07T11:56:49.93Z</time></trkpt><trkpt lat="45.7065033" lon="11.2125667"><ele>656.0</ele><time>2026-04-07T11:56:51.93Z</time></trkpt><trkpt lat="45.7065283" lon="11.21268"><ele>656.0</ele><time>2026-04-07T11:56:52.929Z</time></trkpt><trkpt lat="45.7065717" lon="11.2128033"><ele>656.0</ele><time>2026-04-07T11:56:53.93Z</time></trkpt><trkpt lat="45.706595" lon="11.2129133"><ele>656.0</ele><time>2026-04-07T11:56:54.93Z</time></trkpt><trkpt lat="45.7065783" lon="11.2130083"><ele>656.0</ele><time>2026-04-07T11:56:55.93Z</time></trkpt><trkpt lat="45.70653" lon="11.2130933"><ele>656.0</ele><time>2026-04-07T11:56:56.93Z</time></trkpt><trkpt lat="45.70648" lon="11.2131483"><ele>654.0</ele><time>2026-04-07T11:56:57.93Z</time></trkpt><trkpt lat="45.7064233" lon="11.2131933"><ele>652.0</ele><time>2026-04-07T11:56:58.93Z</time></trkpt><trkpt lat="45.7063567" lon="11.2133183"><ele>650.0</ele><time>2026-04-07T11:57:00.929Z</time></trkpt><trkpt lat="45.706405" lon="11.2134717"><ele>648.0</ele><time>2026-04-07T11:57:02.93Z</time></trkpt><trkpt lat="45.70648" lon="11.2135367"><ele>646.0</ele><time>2026-04-07T11:57:03.93Z</time></trkpt><trkpt lat="45.706565" lon="11.2136033"><ele>646.0</ele><time>2026-04-07T11:57:04.93Z</time></trkpt><trkpt lat="45.7066567" lon="11.2136917"><ele>646.0</ele><time>2026-04-07T11:57:05.929Z</time></trkpt><trkpt lat="45.70673" lon="11.2138183"><ele>646.0</ele><time>2026-04-07T11:57:06.929Z</time></trkpt><trkpt lat="45.7067767" lon="11.2139883"><ele>646.0</ele><time>2026-04-07T11:57:07.93Z</time></trkpt><trkpt lat="45.7068033" lon="11.2141783"><ele>643.1999999999999</ele><time>2026-04-07T11:57:08.929Z</time></trkpt><trkpt lat="45.706825" lon="11.2143567"><ele>640.4</ele><time>2026-04-07T11:57:09.929Z</time></trkpt><trkpt lat="45.7068383" lon="11.2145133"><ele>637.6</ele><time>2026-04-07T11:57:10.93Z</time></trkpt><trkpt lat="45.7068317" lon="11.21464"><ele>634.8</ele><time>2026-04-07T11:57:11.93Z</time></trkpt><trkpt lat="45.7068033" lon="11.2147617"><ele>632.0</ele><time>2026-04-07T11:57:12.93Z</time></trkpt><trkpt lat="45.7067683" lon="11.214875"><ele>630.2</ele><time>2026-04-07T11:57:13.93Z</time></trkpt><trkpt lat="45.7067467" lon="11.2149867"><ele>628.4000000000001</ele><time>2026-04-07T11:57:14.93Z</time></trkpt><trkpt lat="45.70676" lon="11.2151133"><ele>626.5999999999999</ele><time>2026-04-07T11:57:15.93Z</time></trkpt><trkpt lat="45.70679" lon="11.2152433"><ele>624.8</ele><time>2026-04-07T11:57:16.93Z</time></trkpt><trkpt lat="45.706815" lon="11.215385"><ele>623.0</ele><time>2026-04-07T11:57:17.93Z</time></trkpt><trkpt lat="45.7068233" lon="11.2155567"><ele>620.0</ele><time>2026-04-07T11:57:18.93Z</time></trkpt><trkpt lat="45.70681" lon="11.2157483"><ele>617.0</ele><time>2026-04-07T11:57:19.93Z</time></trkpt><trkpt lat="45.7067733" lon="11.2159183"><ele>614.0</ele><time>2026-04-07T11:57:20.93Z</time></trkpt><trkpt lat="45.7067233" lon="11.2160667"><ele>611.0</ele><time>2026-04-07T11:57:21.929Z</time></trkpt><trkpt lat="45.7066633" lon="11.216175"><ele>611.0</ele><time>2026-04-07T11:57:22.929Z</time></trkpt><trkpt lat="45.70659" lon="11.2162367"><ele>611.0</ele><time>2026-04-07T11:57:23.93Z</time></trkpt><trkpt lat="45.7065183" lon="11.216275"><ele>611.0</ele><time>2026-04-07T11:57:24.929Z</time></trkpt><trkpt lat="45.70645" lon="11.2163167"><ele>611.0</ele><time>2026-04-07T11:57:25.93Z</time></trkpt><trkpt lat="45.7063633" lon="11.2164233"><ele>611.0</ele><time>2026-04-07T11:57:27.93Z</time></trkpt><trkpt lat="45.7063517" lon="11.2165183"><ele>611.0</ele><time>2026-04-07T11:57:28.93Z</time></trkpt><trkpt lat="45.70636" lon="11.2166117"><ele>609.4</ele><time>2026-04-07T11:57:29.93Z</time></trkpt><trkpt lat="45.7063817" lon="11.2167183"><ele>607.8</ele><time>2026-04-07T11:57:30.93Z</time></trkpt><trkpt lat="45.706435" lon="11.2168567"><ele>606.1999999999999</ele><time>2026-04-07T11:57:31.93Z</time></trkpt><trkpt lat="45.70651" lon="11.2170067"><ele>604.6</ele><time>2026-04-07T11:57:32.93Z</time></trkpt><trkpt lat="45.7065783" lon="11.2171567"><ele>603.0</ele><time>2026-04-07T11:57:33.93Z</time></trkpt><trkpt lat="45.70663" lon="11.2172883"><ele>600.0</ele><time>2026-04-07T11:57:34.929Z</time></trkpt><trkpt lat="45.7066733" lon="11.2174"><ele>597.0</ele><time>2026-04-07T11:57:35.93Z</time></trkpt><trkpt lat="45.7066983" lon="11.2174883"><ele>594.0</ele><time>2026-04-07T11:57:36.93Z</time></trkpt><trkpt lat="45.7067633" lon="11.217595"><ele>591.0</ele><time>2026-04-07T11:57:38.93Z</time></trkpt><trkpt lat="45.706885" lon="11.2175983"><ele>588.0</ele><time>2026-04-07T11:57:40.929Z</time></trkpt><trkpt lat="45.7069567" lon="11.2176617"><ele>588.0</ele><time>2026-04-07T11:57:42.929Z</time></trkpt><trkpt lat="45.706925" lon="11.2177633"><ele>588.0</ele><time>2026-04-07T11:57:44.929Z</time></trkpt><trkpt lat="45.7068717" lon="11.217815"><ele>588.0</ele><time>2026-04-07T11:57:45.93Z</time></trkpt><trkpt lat="45.7068233" lon="11.2178783"><ele>588.0</ele><time>2026-04-07T11:57:46.93Z</time></trkpt><trkpt lat="45.7067883" lon="11.217975"><ele>588.0</ele><time>2026-04-07T11:57:47.93Z</time></trkpt><trkpt lat="45.7067767" lon="11.21807"><ele>588.0</ele><time>2026-04-07T11:57:48.93Z</time></trkpt><trkpt lat="45.7067717" lon="11.2181867"><ele>588.0</ele><time>2026-04-07T11:57:50.929Z</time></trkpt><trkpt lat="45.7067783" lon="11.2182983"><ele>585.1999999999999</ele><time>2026-04-07T11:57:59.93Z</time></trkpt><trkpt lat="45.70678" lon="11.21844"><ele>582.4</ele><time>2026-04-07T11:58:01.93Z</time></trkpt><trkpt lat="45.706775" lon="11.2185817"><ele>579.5999999999999</ele><time>2026-04-07T11:58:03.929Z</time></trkpt><trkpt lat="45.7067533" lon="11.2186933"><ele>576.8</ele><time>2026-04-07T11:58:05.93Z</time></trkpt><trkpt lat="45.7067317" lon="11.218815"><ele>574.0</ele><time>2026-04-07T11:58:07.93Z</time></trkpt><trkpt lat="45.706685" lon="11.2189333"><ele>571.3333333333334</ele><time>2026-04-07T11:58:09.93Z</time></trkpt><trkpt lat="45.7066183" lon="11.2190317"><ele>568.6666666666667</ele><time>2026-04-07T11:58:11.929Z</time></trkpt><trkpt lat="45.7066433" lon="11.2191467"><ele>566.0</ele><time>2026-04-07T11:58:14.929Z</time></trkpt><trkpt lat="45.7067067" lon="11.219175"><ele>563.3333333333334</ele><time>2026-04-07T11:58:16.929Z</time></trkpt><trkpt lat="45.7067817" lon="11.219135"><ele>560.6666666666666</ele><time>2026-04-07T11:58:18.928Z</time></trkpt><trkpt lat="45.7068633" lon="11.2190667"><ele>558.0</ele><time>2026-04-07T11:58:21.929Z</time></trkpt><trkpt lat="45.7069317" lon="11.2190767"><ele>558.0</ele><time>2026-04-07T11:58:24.929Z</time></trkpt><trkpt lat="45.706955" lon="11.2191767"><ele>558.0</ele><time>2026-04-07T11:58:27.929Z</time></trkpt><trkpt lat="45.7069133" lon="11.2192517"><ele>558.0</ele><time>2026-04-07T11:58:30.929Z</time></trkpt><trkpt lat="45.70686" lon="11.2193033"><ele>558.0</ele><time>2026-04-07T11:58:32.929Z</time></trkpt><trkpt lat="45.7067917" lon="11.219385"><ele>558.0</ele><time>2026-04-07T11:58:34.929Z</time></trkpt><trkpt lat="45.706735" lon="11.219475"><ele>558.0</ele><time>2026-04-07T11:58:36.928Z</time></trkpt><trkpt lat="45.706675" lon="11.2195617"><ele>558.0</ele><time>2026-04-07T11:58:38.929Z</time></trkpt><trkpt lat="45.70661" lon="11.2196283"><ele>558.0</ele><time>2026-04-07T11:58:40.929Z</time></trkpt><trkpt lat="45.7066033" lon="11.2197317"><ele>558.0</ele><time>2026-04-07T11:58:57.928Z</time></trkpt><trkpt lat="45.7065" lon="11.2197767"><ele>558.0</ele><time>2026-04-07T11:59:06.929Z</time></trkpt><trkpt lat="45.7064067" lon="11.2198133"><ele>558.0</ele><time>2026-04-07T11:59:08.928Z</time></trkpt><trkpt lat="45.7063683" lon="11.2199317"><ele>558.0</ele><time>2026-04-07T11:59:10.929Z</time></trkpt><trkpt lat="45.706365" lon="11.220125"><ele>553.1666666666666</ele><time>2026-04-07T11:59:12.929Z</time></trkpt><trkpt lat="45.7063767" lon="11.22024"><ele>548.3333333333334</ele><time>2026-04-07T11:59:13.929Z</time></trkpt><trkpt lat="45.7063983" lon="11.2203433"><ele>543.5</ele><time>2026-04-07T11:59:14.929Z</time></trkpt><trkpt lat="45.7064367" lon="11.2204767"><ele>538.6666666666667</ele><time>2026-04-07T11:59:16.929Z</time></trkpt><trkpt lat="45.706525" lon="11.2205067"><ele>533.8333333333334</ele><time>2026-04-07T11:59:18.929Z</time></trkpt><trkpt lat="45.7066017" lon="11.2204633"><ele>529.0</ele><time>2026-04-07T11:59:19.928Z</time></trkpt><trkpt lat="45.7066833" lon="11.2203867"><ele>529.0</ele><time>2026-04-07T11:59:20.929Z</time></trkpt><trkpt lat="45.706785" lon="11.2202683"><ele>529.0</ele><time>2026-04-07T11:59:21.928Z</time></trkpt><trkpt lat="45.706915" lon="11.2201183"><ele>529.0</ele><time>2026-04-07T11:59:22.928Z</time></trkpt><trkpt lat="45.70704" lon="11.2199917"><ele>530.5</ele><time>2026-04-07T11:59:23.929Z</time></trkpt><trkpt lat="45.7071683" lon="11.219895"><ele>532.0</ele><time>2026-04-07T11:59:24.929Z</time></trkpt><trkpt lat="45.7072983" lon="11.21982"><ele>533.5</ele><time>2026-04-07T11:59:25.929Z</time></trkpt><trkpt lat="45.7074083" lon="11.2197917"><ele>535.0</ele><time>2026-04-07T11:59:26.929Z</time></trkpt><trkpt lat="45.707515" lon="11.21975"><ele>535.0</ele><time>2026-04-07T11:59:27.929Z</time></trkpt><trkpt lat="45.7076167" lon="11.21969"><ele>535.0</ele><time>2026-04-07T11:59:28.929Z</time></trkpt><trkpt lat="45.70771" lon="11.219615"><ele>535.0</ele><time>2026-04-07T11:59:29.929Z</time></trkpt><trkpt lat="45.7077933" lon="11.2195417"><ele>535.0</ele><time>2026-04-07T11:59:30.929Z</time></trkpt><trkpt lat="45.707865" lon="11.2194633"><ele>535.0</ele><time>2026-04-07T11:59:31.928Z</time></trkpt><trkpt lat="45.70792" lon="11.2193733"><ele>530.5</ele><time>2026-04-07T11:59:32.928Z</time></trkpt><trkpt lat="45.70796" lon="11.2192783"><ele>526.0</ele><time>2026-04-07T11:59:33.929Z</time></trkpt><trkpt lat="45.7079833" lon="11.21919"><ele>521.5</ele><time>2026-04-07T11:59:34.929Z</time></trkpt><trkpt lat="45.7080267" lon="11.2191033"><ele>517.0</ele><time>2026-04-07T11:59:36.929Z</time></trkpt><trkpt lat="45.7080633" lon="11.21925"><ele>512.5</ele><time>2026-04-07T11:59:39.928Z</time></trkpt><trkpt lat="45.70804" lon="11.2193783"><ele>508.0</ele><time>2026-04-07T11:59:40.928Z</time></trkpt><trkpt lat="45.7080033" lon="11.2195367"><ele>508.0</ele><time>2026-04-07T11:59:41.929Z</time></trkpt><trkpt lat="45.7079567" lon="11.2196967"><ele>508.0</ele><time>2026-04-07T11:59:42.929Z</time></trkpt><trkpt lat="45.707905" lon="11.2198483"><ele>508.0</ele><time>2026-04-07T11:59:43.929Z</time></trkpt><trkpt lat="45.7078467" lon="11.2199817"><ele>508.0</ele><time>2026-04-07T11:59:44.929Z</time></trkpt><trkpt lat="45.7077867" lon="11.2201033"><ele>508.79999999999995</ele><time>2026-04-07T11:59:45.929Z</time></trkpt><trkpt lat="45.7077167" lon="11.2202067"><ele>509.59999999999997</ele><time>2026-04-07T11:59:46.928Z</time></trkpt><trkpt lat="45.7076467" lon="11.2203083"><ele>510.40000000000003</ele><time>2026-04-07T11:59:47.929Z</time></trkpt><trkpt lat="45.7075767" lon="11.2203967"><ele>511.20000000000005</ele><time>2026-04-07T11:59:48.928Z</time></trkpt><trkpt lat="45.70751" lon="11.2204733"><ele>512.0</ele><time>2026-04-07T11:59:49.929Z</time></trkpt><trkpt lat="45.7074517" lon="11.2205517"><ele>512.0</ele><time>2026-04-07T11:59:50.928Z</time></trkpt><trkpt lat="45.7073883" lon="11.220635"><ele>512.0</ele><time>2026-04-07T11:59:51.928Z</time></trkpt><trkpt lat="45.70732" lon="11.2207183"><ele>512.0</ele><time>2026-04-07T11:59:52.928Z</time></trkpt><trkpt lat="45.7072517" lon="11.2208"><ele>512.0</ele><time>2026-04-07T11:59:53.928Z</time></trkpt><trkpt lat="45.707175" lon="11.220885"><ele>512.0</ele><time>2026-04-07T11:59:54.929Z</time></trkpt><trkpt lat="45.70709" lon="11.2209583"><ele>510.0</ele><time>2026-04-07T11:59:55.929Z</time></trkpt><trkpt lat="45.70699" lon="11.2210283"><ele>508.0</ele><time>2026-04-07T11:59:56.928Z</time></trkpt><trkpt lat="45.7068783" lon="11.2211"><ele>506.0</ele><time>2026-04-07T11:59:57.929Z</time></trkpt><trkpt lat="45.7067783" lon="11.2212"><ele>504.0</ele><time>2026-04-07T11:59:58.929Z</time></trkpt><trkpt lat="45.7066933" lon="11.2213017"><ele>504.0</ele><time>2026-04-07T11:59:59.929Z</time></trkpt><trkpt lat="45.706615" lon="11.2214133"><ele>504.0</ele><time>2026-04-07T12:00:00.929Z</time></trkpt><trkpt lat="45.7065433" lon="11.2215317"><ele>504.0</ele><time>2026-04-07T12:00:01.928Z</time></trkpt><trkpt lat="45.7064683" lon="11.2216467"><ele>504.0</ele><time>2026-04-07T12:00:02.929Z</time></trkpt><trkpt lat="45.70639" lon="11.221765"><ele>504.0</ele><time>2026-04-07T12:00:03.929Z</time></trkpt><trkpt lat="45.7063233" lon="11.2219033"><ele>499.0</ele><time>2026-04-07T12:00:04.928Z</time></trkpt><trkpt lat="45.7062583" lon="11.2220383"><ele>494.0</ele><time>2026-04-07T12:00:05.929Z</time></trkpt><trkpt lat="45.7062" lon="11.2221833"><ele>489.0</ele><time>2026-04-07T12:00:06.928Z</time></trkpt><trkpt lat="45.7061417" lon="11.2223283"><ele>484.0</ele><time>2026-04-07T12:00:07.928Z</time></trkpt><trkpt lat="45.7060867" lon="11.2224883"><ele>480.5</ele><time>2026-04-07T12:00:08.929Z</time></trkpt><trkpt lat="45.706015" lon="11.2226433"><ele>477.0</ele><time>2026-04-07T12:00:09.929Z</time></trkpt><trkpt lat="45.7059467" lon="11.22279"><ele>473.5</ele><time>2026-04-07T12:00:10.928Z</time></trkpt><trkpt lat="45.7058783" lon="11.2229167"><ele>470.0</ele><time>2026-04-07T12:00:11.929Z</time></trkpt><trkpt lat="45.7058183" lon="11.2230133"><ele>470.0</ele><time>2026-04-07T12:00:12.928Z</time></trkpt><trkpt lat="45.7057767" lon="11.2230833"><ele>470.0</ele><time>2026-04-07T12:00:13.929Z</time></trkpt><trkpt lat="45.7057567" lon="11.2232417"><ele>470.0</ele><time>2026-04-07T12:00:15.929Z</time></trkpt><trkpt lat="45.7057917" lon="11.2234017"><ele>470.0</ele><time>2026-04-07T12:00:17.929Z</time></trkpt><trkpt lat="45.7057917" lon="11.2235083"><ele>470.0</ele><time>2026-04-07T12:00:18.929Z</time></trkpt><trkpt lat="45.7057883" lon="11.2236383"><ele>467.99999999999994</ele><time>2026-04-07T12:00:19.929Z</time></trkpt><trkpt lat="45.705765" lon="11.2237933"><ele>466.0</ele><time>2026-04-07T12:00:20.928Z</time></trkpt><trkpt lat="45.7057483" lon="11.2239267"><ele>464.0</ele><time>2026-04-07T12:00:21.929Z</time></trkpt><trkpt lat="45.705715" lon="11.2240433"><ele>462.0</ele><time>2026-04-07T12:00:22.929Z</time></trkpt><trkpt lat="45.7056867" lon="11.22414"><ele>459.99999999999994</ele><time>2026-04-07T12:00:23.928Z</time></trkpt><trkpt lat="45.70567" lon="11.224235"><ele>458.0</ele><time>2026-04-07T12:00:24.929Z</time></trkpt><trkpt lat="45.7056467" lon="11.2243267"><ele>457.42857142857144</ele><time>2026-04-07T12:00:25.928Z</time></trkpt><trkpt lat="45.70562" lon="11.22443"><ele>456.8571428571429</ele><time>2026-04-07T12:00:26.929Z</time></trkpt><trkpt lat="45.70559" lon="11.2245367"><ele>456.28571428571433</ele><time>2026-04-07T12:00:27.929Z</time></trkpt><trkpt lat="45.705545" lon="11.2246217"><ele>455.7142857142857</ele><time>2026-04-07T12:00:28.929Z</time></trkpt><trkpt lat="45.7055067" lon="11.2247117"><ele>455.1428571428572</ele><time>2026-04-07T12:00:29.929Z</time></trkpt><trkpt lat="45.705485" lon="11.2248"><ele>454.5714285714286</ele><time>2026-04-07T12:00:30.929Z</time></trkpt><trkpt lat="45.70545" lon="11.2248767"><ele>454.0</ele><time>2026-04-07T12:00:31.929Z</time></trkpt><trkpt lat="45.705425" lon="11.22496"><ele>454.00000000000006</ele><time>2026-04-07T12:00:32.929Z</time></trkpt><trkpt lat="45.70539" lon="11.225065"><ele>454.0</ele><time>2026-04-07T12:00:33.929Z</time></trkpt><trkpt lat="45.70536" lon="11.225165"><ele>454.0</ele><time>2026-04-07T12:00:34.928Z</time></trkpt><trkpt lat="45.7053267" lon="11.2252733"><ele>454.0</ele><time>2026-04-07T12:00:35.929Z</time></trkpt><trkpt lat="45.7052867" lon="11.225355"><ele>454.00000000000006</ele><time>2026-04-07T12:00:36.928Z</time></trkpt><trkpt lat="45.7052017" lon="11.2254783"><ele>454.0</ele><time>2026-04-07T12:00:38.928Z</time></trkpt><trkpt lat="45.705105" lon="11.2255517"><ele>452.6666666666667</ele><time>2026-04-07T12:00:40.929Z</time></trkpt><trkpt lat="45.705045" lon="11.225645"><ele>451.33333333333337</ele><time>2026-04-07T12:00:42.927Z</time></trkpt><trkpt lat="45.7050517" lon="11.2257383"><ele>450.0</ele><time>2026-04-07T12:00:45.928Z</time></trkpt><trkpt lat="45.705" lon="11.2258083"><ele>448.66666666666663</ele><time>2026-04-07T12:00:48.927Z</time></trkpt><trkpt lat="45.7048883" lon="11.22586"><ele>447.3333333333333</ele><time>2026-04-07T12:00:50.928Z</time></trkpt><trkpt lat="45.7048083" lon="11.2258917"><ele>446.0</ele><time>2026-04-07T12:00:51.928Z</time></trkpt><trkpt lat="45.7047267" lon="11.2259317"><ele>446.20000000000005</ele><time>2026-04-07T12:00:52.928Z</time></trkpt><trkpt lat="45.7046633" lon="11.2259583"><ele>446.40000000000003</ele><time>2026-04-07T12:00:53.927Z</time></trkpt><trkpt lat="45.70457" lon="11.2259317"><ele>446.6</ele><time>2026-04-07T12:00:55.928Z</time></trkpt><trkpt lat="45.704495" lon="11.2257867"><ele>446.8</ele><time>2026-04-07T12:00:57.928Z</time></trkpt><trkpt lat="45.70442" lon="11.2256833"><ele>447.0</ele><time>2026-04-07T12:00:58.927Z</time></trkpt><trkpt lat="45.704315" lon="11.22558"><ele>447.0</ele><time>2026-04-07T12:00:59.927Z</time></trkpt><trkpt lat="45.7042183" lon="11.225475"><ele>447.00000000000006</ele><time>2026-04-07T12:01:00.928Z</time></trkpt><trkpt lat="45.7041317" lon="11.2253817"><ele>447.00000000000006</ele><time>2026-04-07T12:01:01.928Z</time></trkpt><trkpt lat="45.7040533" lon="11.2252767"><ele>447.0</ele><time>2026-04-07T12:01:02.927Z</time></trkpt><trkpt lat="45.703995" lon="11.2251617"><ele>447.0</ele><time>2026-04-07T12:01:03.927Z</time></trkpt><trkpt lat="45.70397" lon="11.2250517"><ele>447.0</ele><time>2026-04-07T12:01:04.927Z</time></trkpt><trkpt lat="45.7039133" lon="11.2249517"><ele>447.00000000000006</ele><time>2026-04-07T12:01:05.927Z</time></trkpt><trkpt lat="45.70384" lon="11.2248483"><ele>447.00000000000006</ele><time>2026-04-07T12:01:06.928Z</time></trkpt><trkpt lat="45.70375" lon="11.224745"><ele>447.0</ele><time>2026-04-07T12:01:07.928Z</time></trkpt><trkpt lat="45.7036683" lon="11.2246533"><ele>447.0</ele><time>2026-04-07T12:01:08.927Z</time></trkpt><trkpt lat="45.7036183" lon="11.2245833"><ele>448.4285714285714</ele><time>2026-04-07T12:01:09.928Z</time></trkpt><trkpt lat="45.7035667" lon="11.224495"><ele>449.8571428571429</ele><time>2026-04-07T12:01:11.928Z</time></trkpt><trkpt lat="45.7035033" lon="11.2244583"><ele>451.28571428571433</ele><time>2026-04-07T12:01:15.927Z</time></trkpt><trkpt lat="45.7034633" lon="11.2245533"><ele>452.7142857142857</ele><time>2026-04-07T12:01:18.927Z</time></trkpt><trkpt lat="45.7035033" lon="11.2246283"><ele>454.14285714285717</ele><time>2026-04-07T12:01:22.928Z</time></trkpt><trkpt lat="45.7035" lon="11.2245033"><ele>455.5714285714286</ele><time>2026-04-07T12:01:48.928Z</time></trkpt><trkpt lat="45.7034633" lon="11.22442"><ele>457.00000000000006</ele><time>2026-04-07T12:01:49.928Z</time></trkpt><trkpt lat="45.7034167" lon="11.224315"><ele>457.0</ele><time>2026-04-07T12:01:50.928Z</time></trkpt><trkpt lat="45.7033633" lon="11.2242033"><ele>457.00000000000006</ele><time>2026-04-07T12:01:51.927Z</time></trkpt><trkpt lat="45.7033133" lon="11.22408"><ele>457.00000000000006</ele><time>2026-04-07T12:01:52.928Z</time></trkpt><trkpt lat="45.7032633" lon="11.223955"><ele>457.0</ele><time>2026-04-07T12:01:53.927Z</time></trkpt><trkpt lat="45.7032333" lon="11.2238233"><ele>457.0</ele><time>2026-04-07T12:01:54.927Z</time></trkpt><trkpt lat="45.7032267" lon="11.22368"><ele>456.83333333333337</ele><time>2026-04-07T12:01:55.928Z</time></trkpt><trkpt lat="45.7032317" lon="11.2235333"><ele>456.6666666666667</ele><time>2026-04-07T12:01:56.928Z</time></trkpt><trkpt lat="45.7032183" lon="11.2234217"><ele>456.5</ele><time>2026-04-07T12:01:57.928Z</time></trkpt><trkpt lat="45.7032333" lon="11.223315"><ele>456.33333333333337</ele><time>2026-04-07T12:01:58.928Z</time></trkpt><trkpt lat="45.70326" lon="11.2232233"><ele>456.1666666666667</ele><time>2026-04-07T12:01:59.928Z</time></trkpt><trkpt lat="45.70327" lon="11.2231067"><ele>456.0</ele><time>2026-04-07T12:02:00.928Z</time></trkpt><trkpt lat="45.70328" lon="11.223"><ele>456.0</ele><time>2026-04-07T12:02:01.928Z</time></trkpt><trkpt lat="45.7032667" lon="11.222875"><ele>456.0</ele><time>2026-04-07T12:02:02.928Z</time></trkpt><trkpt lat="45.703245" lon="11.2227217"><ele>456.0</ele><time>2026-04-07T12:02:03.928Z</time></trkpt><trkpt lat="45.7031867" lon="11.22253"><ele>456.0</ele><time>2026-04-07T12:02:04.927Z</time></trkpt><trkpt lat="45.70314" lon="11.22234"><ele>455.6</ele><time>2026-04-07T12:02:05.928Z</time></trkpt><trkpt lat="45.7030967" lon="11.222155"><ele>455.20000000000005</ele><time>2026-04-07T12:02:06.928Z</time></trkpt><trkpt lat="45.7030683" lon="11.2219783"><ele>454.79999999999995</ele><time>2026-04-07T12:02:07.927Z</time></trkpt><trkpt lat="45.7030583" lon="11.2218383"><ele>454.4</ele><time>2026-04-07T12:02:08.928Z</time></trkpt><trkpt lat="45.7030267" lon="11.2217233"><ele>454.0</ele><time>2026-04-07T12:02:09.927Z</time></trkpt><trkpt lat="45.702965" lon="11.221625"><ele>454.00000000000006</ele><time>2026-04-07T12:02:10.928Z</time></trkpt><trkpt lat="45.7028883" lon="11.2215567"><ele>454.0</ele><time>2026-04-07T12:02:11.928Z</time></trkpt><trkpt lat="45.7028033" lon="11.2215233"><ele>454.0</ele><time>2026-04-07T12:02:12.927Z</time></trkpt><trkpt lat="45.7027167" lon="11.2215067"><ele>454.0</ele><time>2026-04-07T12:02:13.928Z</time></trkpt><trkpt lat="45.7026483" lon="11.2214783"><ele>454.00000000000006</ele><time>2026-04-07T12:02:14.928Z</time></trkpt><trkpt lat="45.7025767" lon="11.221415"><ele>454.0</ele><time>2026-04-07T12:02:15.928Z</time></trkpt><trkpt lat="45.7025117" lon="11.22131"><ele>454.75</ele><time>2026-04-07T12:02:16.928Z</time></trkpt><trkpt lat="45.70247" lon="11.2211717"><ele>455.5</ele><time>2026-04-07T12:02:17.928Z</time></trkpt><trkpt lat="45.7024333" lon="11.2209833"><ele>456.25</ele><time>2026-04-07T12:02:18.928Z</time></trkpt><trkpt lat="45.7023783" lon="11.22079"><ele>457.0</ele><time>2026-04-07T12:02:19.928Z</time></trkpt><trkpt lat="45.702325" lon="11.2205983"><ele>457.0</ele><time>2026-04-07T12:02:20.927Z</time></trkpt><trkpt lat="45.702245" lon="11.220385"><ele>457.0</ele><time>2026-04-07T12:02:21.927Z</time></trkpt><trkpt lat="45.7021517" lon="11.220165"><ele>457.0</ele><time>2026-04-07T12:02:22.927Z</time></trkpt><trkpt lat="45.7020617" lon="11.2199683"><ele>457.6666666666667</ele><time>2026-04-07T12:02:23.928Z</time></trkpt><trkpt lat="45.7019683" lon="11.219785"><ele>458.33333333333337</ele><time>2026-04-07T12:02:24.928Z</time></trkpt><trkpt lat="45.7018667" lon="11.21961"><ele>459.0</ele><time>2026-04-07T12:02:25.927Z</time></trkpt><trkpt lat="45.7017783" lon="11.21944"><ele>463.33333333333337</ele><time>2026-04-07T12:02:26.928Z</time></trkpt><trkpt lat="45.7017133" lon="11.2192583"><ele>467.6666666666667</ele><time>2026-04-07T12:02:27.928Z</time></trkpt><trkpt lat="45.7016683" lon="11.2190483"><ele>472.0</ele><time>2026-04-07T12:02:28.927Z</time></trkpt><trkpt lat="45.70165" lon="11.21881"><ele>472.0</ele><time>2026-04-07T12:02:29.927Z</time></trkpt><trkpt lat="45.7016283" lon="11.218585"><ele>472.0</ele><time>2026-04-07T12:02:30.927Z</time></trkpt><trkpt lat="45.701605" lon="11.2183833"><ele>472.0</ele><time>2026-04-07T12:02:31.928Z</time></trkpt><trkpt lat="45.7015783" lon="11.2182217"><ele>472.0</ele><time>2026-04-07T12:02:32.928Z</time></trkpt><trkpt lat="45.701555" lon="11.218045"><ele>471.75</ele><time>2026-04-07T12:02:33.928Z</time></trkpt><trkpt lat="45.701525" lon="11.2178567"><ele>471.5</ele><time>2026-04-07T12:02:34.928Z</time></trkpt><trkpt lat="45.7015133" lon="11.2176533"><ele>471.25</ele><time>2026-04-07T12:02:35.927Z</time></trkpt><trkpt lat="45.7014883" lon="11.2174417"><ele>471.0</ele><time>2026-04-07T12:02:36.927Z</time></trkpt><trkpt lat="45.7014567" lon="11.21723"><ele>470.33333333333337</ele><time>2026-04-07T12:02:37.928Z</time></trkpt><trkpt lat="45.7014067" lon="11.2170133"><ele>469.6666666666667</ele><time>2026-04-07T12:02:38.927Z</time></trkpt><trkpt lat="45.7013483" lon="11.21679"><ele>469.0</ele><time>2026-04-07T12:02:39.927Z</time></trkpt><trkpt lat="45.701295" lon="11.2165567"><ele>470.0</ele><time>2026-04-07T12:02:40.928Z</time></trkpt><trkpt lat="45.701245" lon="11.2163067"><ele>471.0</ele><time>2026-04-07T12:02:41.928Z</time></trkpt><trkpt lat="45.701215" lon="11.2160633"><ele>472.0</ele><time>2026-04-07T12:02:42.927Z</time></trkpt><trkpt lat="45.7011917" lon="11.2158217"><ele>473.25</ele><time>2026-04-07T12:02:43.927Z</time></trkpt><trkpt lat="45.701175" lon="11.2155867"><ele>474.5</ele><time>2026-04-07T12:02:44.928Z</time></trkpt><trkpt lat="45.701165" lon="11.2153683"><ele>475.75</ele><time>2026-04-07T12:02:45.928Z</time></trkpt><trkpt lat="45.7011433" lon="11.2151833"><ele>477.0</ele><time>2026-04-07T12:02:46.927Z</time></trkpt><trkpt lat="45.701135" lon="11.21502"><ele>477.0</ele><time>2026-04-07T12:02:47.928Z</time></trkpt><trkpt lat="45.701115" lon="11.2148433"><ele>477.0</ele><time>2026-04-07T12:02:48.928Z</time></trkpt><trkpt lat="45.7011067" lon="11.21465"><ele>477.0</ele><time>2026-04-07T12:02:49.927Z</time></trkpt><trkpt lat="45.7010983" lon="11.2144517"><ele>477.0</ele><time>2026-04-07T12:02:50.928Z</time></trkpt><trkpt lat="45.70108" lon="11.2142517"><ele>480.33333333333337</ele><time>2026-04-07T12:02:51.928Z</time></trkpt><trkpt lat="45.7010417" lon="11.2140483"><ele>483.6666666666667</ele><time>2026-04-07T12:02:52.928Z</time></trkpt><trkpt lat="45.700975" lon="11.21383"><ele>487.0</ele><time>2026-04-07T12:02:53.928Z</time></trkpt><trkpt lat="45.7008883" lon="11.2136033"><ele>487.0</ele><time>2026-04-07T12:02:54.928Z</time></trkpt><trkpt lat="45.7007917" lon="11.2133867"><ele>487.0</ele><time>2026-04-07T12:02:55.928Z</time></trkpt><trkpt lat="45.700675" lon="11.2132067"><ele>487.0</ele><time>2026-04-07T12:02:56.928Z</time></trkpt><trkpt lat="45.700535" lon="11.2130633"><ele>485.5</ele><time>2026-04-07T12:02:57.928Z</time></trkpt><trkpt lat="45.7003967" lon="11.21295"><ele>484.0</ele><time>2026-04-07T12:02:58.927Z</time></trkpt><trkpt lat="45.7002717" lon="11.2128883"><ele>482.5</ele><time>2026-04-07T12:02:59.927Z</time></trkpt><trkpt lat="45.7001517" lon="11.2128317"><ele>481.0</ele><time>2026-04-07T12:03:00.927Z</time></trkpt><trkpt lat="45.70005" lon="11.21275"><ele>484.75</ele><time>2026-04-07T12:03:01.928Z</time></trkpt><trkpt lat="45.699965" lon="11.2126217"><ele>488.5</ele><time>2026-04-07T12:03:02.927Z</time></trkpt><trkpt lat="45.6999167" lon="11.212445"><ele>492.25</ele><time>2026-04-07T12:03:03.928Z</time></trkpt><trkpt lat="45.6998833" lon="11.2122317"><ele>496.0</ele><time>2026-04-07T12:03:04.928Z</time></trkpt><trkpt lat="45.6998583" lon="11.2119883"><ele>496.0</ele><time>2026-04-07T12:03:05.927Z</time></trkpt><trkpt lat="45.6998333" lon="11.2117233"><ele>496.0</ele><time>2026-04-07T12:03:06.927Z</time></trkpt><trkpt lat="45.69981" lon="11.2114467"><ele>496.0</ele><time>2026-04-07T12:03:07.928Z</time></trkpt><trkpt lat="45.69979" lon="11.2111933"><ele>496.0</ele><time>2026-04-07T12:03:08.928Z</time></trkpt><trkpt lat="45.6997817" lon="11.2109567"><ele>496.0</ele><time>2026-04-07T12:03:09.927Z</time></trkpt><trkpt lat="45.699785" lon="11.2107567"><ele>496.0</ele><time>2026-04-07T12:03:10.928Z</time></trkpt><trkpt lat="45.6997667" lon="11.2105733"><ele>496.0</ele><time>2026-04-07T12:03:11.927Z</time></trkpt><trkpt lat="45.6997133" lon="11.2104017"><ele>496.0</ele><time>2026-04-07T12:03:12.928Z</time></trkpt><trkpt lat="45.69963" lon="11.210225"><ele>496.0</ele><time>2026-04-07T12:03:13.928Z</time></trkpt><trkpt lat="45.69954" lon="11.2100267"><ele>496.0</ele><time>2026-04-07T12:03:14.927Z</time></trkpt><trkpt lat="45.6994417" lon="11.2098367"><ele>501.0</ele><time>2026-04-07T12:03:15.927Z</time></trkpt><trkpt lat="45.6993517" lon="11.2096517"><ele>506.0</ele><time>2026-04-07T12:03:16.926Z</time></trkpt><trkpt lat="45.699285" lon="11.2094633"><ele>511.0</ele><time>2026-04-07T12:03:17.926Z</time></trkpt><trkpt lat="45.69921" lon="11.2092867"><ele>516.0</ele><time>2026-04-07T12:03:18.926Z</time></trkpt><trkpt lat="45.6991467" lon="11.2090933"><ele>517.6666666666666</ele><time>2026-04-07T12:03:19.926Z</time></trkpt><trkpt lat="45.69909" lon="11.2088867"><ele>519.3333333333333</ele><time>2026-04-07T12:03:20.927Z</time></trkpt><trkpt lat="45.6990167" lon="11.2086717"><ele>521.0</ele><time>2026-04-07T12:03:21.927Z</time></trkpt><trkpt lat="45.6989283" lon="11.208455"><ele>521.0</ele><time>2026-04-07T12:03:22.927Z</time></trkpt><trkpt lat="45.69882" lon="11.2082517"><ele>521.0</ele><time>2026-04-07T12:03:23.927Z</time></trkpt><trkpt lat="45.6987083" lon="11.2080667"><ele>521.0</ele><time>2026-04-07T12:03:24.926Z</time></trkpt><trkpt lat="45.6986033" lon="11.207905"><ele>523.2</ele><time>2026-04-07T12:03:25.926Z</time></trkpt><trkpt lat="45.6985133" lon="11.2077517"><ele>525.4000000000001</ele><time>2026-04-07T12:03:26.926Z</time></trkpt><trkpt lat="45.6984533" lon="11.2076283"><ele>527.6</ele><time>2026-04-07T12:03:27.927Z</time></trkpt><trkpt lat="45.6984317" lon="11.2075333"><ele>529.8000000000001</ele><time>2026-04-07T12:03:28.927Z</time></trkpt><trkpt lat="45.69849" lon="11.207385"><ele>532.0</ele><time>2026-04-07T12:03:30.927Z</time></trkpt><trkpt lat="45.6985667" lon="11.2073417"><ele>531.4</ele><time>2026-04-07T12:03:31.927Z</time></trkpt><trkpt lat="45.698665" lon="11.2073333"><ele>530.8000000000001</ele><time>2026-04-07T12:03:32.927Z</time></trkpt><trkpt lat="45.698795" lon="11.2073367"><ele>530.2</ele><time>2026-04-07T12:03:33.927Z</time></trkpt><trkpt lat="45.6989033" lon="11.2073283"><ele>529.6</ele><time>2026-04-07T12:03:34.927Z</time></trkpt><trkpt lat="45.6990017" lon="11.2072867"><ele>529.0</ele><time>2026-04-07T12:03:35.927Z</time></trkpt><trkpt lat="45.6990817" lon="11.2072"><ele>530.75</ele><time>2026-04-07T12:03:36.927Z</time></trkpt><trkpt lat="45.6991417" lon="11.2070817"><ele>532.5</ele><time>2026-04-07T12:03:37.927Z</time></trkpt><trkpt lat="45.6991867" lon="11.2069067"><ele>534.25</ele><time>2026-04-07T12:03:38.926Z</time></trkpt><trkpt lat="45.69922" lon="11.206715"><ele>536.0</ele><time>2026-04-07T12:03:39.926Z</time></trkpt><trkpt lat="45.6992667" lon="11.2065267"><ele>538.6666666666666</ele><time>2026-04-07T12:03:40.926Z</time></trkpt><trkpt lat="45.6993" lon="11.2063267"><ele>541.3333333333334</ele><time>2026-04-07T12:03:41.926Z</time></trkpt><trkpt lat="45.69935" lon="11.2061083"><ele>544.0</ele><time>2026-04-07T12:03:42.927Z</time></trkpt><trkpt lat="45.6994067" lon="11.2059"><ele>542.0</ele><time>2026-04-07T12:03:43.927Z</time></trkpt><trkpt lat="45.69946" lon="11.20569"><ele>540.0</ele><time>2026-04-07T12:03:44.927Z</time></trkpt><trkpt lat="45.6995167" lon="11.20548"><ele>538.0</ele><time>2026-04-07T12:03:45.926Z</time></trkpt><trkpt lat="45.6995833" lon="11.205245"><ele>538.0</ele><time>2026-04-07T12:03:46.927Z</time></trkpt><trkpt lat="45.6996583" lon="11.2050283"><ele>538.0</ele><time>2026-04-07T12:03:47.927Z</time></trkpt><trkpt lat="45.6997483" lon="11.2048317"><ele>538.0</ele><time>2026-04-07T12:03:48.927Z</time></trkpt><trkpt lat="45.6998583" lon="11.20463"><ele>540.6666666666667</ele><time>2026-04-07T12:03:49.927Z</time></trkpt><trkpt lat="45.6999533" lon="11.20444"><ele>543.3333333333334</ele><time>2026-04-07T12:03:50.927Z</time></trkpt><trkpt lat="45.7000217" lon="11.20424"><ele>546.0</ele><time>2026-04-07T12:03:51.927Z</time></trkpt><trkpt lat="45.7000667" lon="11.20405"><ele>547.4</ele><time>2026-04-07T12:03:52.927Z</time></trkpt><trkpt lat="45.700095" lon="11.20388"><ele>548.8</ele><time>2026-04-07T12:03:53.926Z</time></trkpt><trkpt lat="45.7001133" lon="11.2037183"><ele>550.1999999999999</ele><time>2026-04-07T12:03:54.927Z</time></trkpt><trkpt lat="45.70014" lon="11.2035667"><ele>551.6</ele><time>2026-04-07T12:03:55.927Z</time></trkpt><trkpt lat="45.70016" lon="11.203425"><ele>553.0</ele><time>2026-04-07T12:03:56.927Z</time></trkpt><trkpt lat="45.70019" lon="11.2032583"><ele>552.3333333333334</ele><time>2026-04-07T12:03:57.927Z</time></trkpt><trkpt lat="45.7002517" lon="11.2030717"><ele>551.6666666666666</ele><time>2026-04-07T12:03:58.927Z</time></trkpt><trkpt lat="45.7003117" lon="11.2028717"><ele>551.0</ele><time>2026-04-07T12:03:59.926Z</time></trkpt><trkpt lat="45.7003767" lon="11.2026517"><ele>551.0</ele><time>2026-04-07T12:04:00.927Z</time></trkpt><trkpt lat="45.7004333" lon="11.2024283"><ele>551.0</ele><time>2026-04-07T12:04:01.927Z</time></trkpt><trkpt lat="45.700515" lon="11.20222"><ele>551.0</ele><time>2026-04-07T12:04:02.927Z</time></trkpt><trkpt lat="45.7005917" lon="11.2020417"><ele>554.0</ele><time>2026-04-07T12:04:03.926Z</time></trkpt><trkpt lat="45.7006417" lon="11.201895"><ele>557.0</ele><time>2026-04-07T12:04:04.927Z</time></trkpt><trkpt lat="45.7007033" lon="11.2017533"><ele>560.0</ele><time>2026-04-07T12:04:05.927Z</time></trkpt><trkpt lat="45.7007633" lon="11.201615"><ele>563.0</ele><time>2026-04-07T12:04:06.927Z</time></trkpt><trkpt lat="45.700815" lon="11.2014683"><ele>565.4</ele><time>2026-04-07T12:04:07.927Z</time></trkpt><trkpt lat="45.7008733" lon="11.201325"><ele>567.8</ele><time>2026-04-07T12:04:08.927Z</time></trkpt><trkpt lat="45.700935" lon="11.201185"><ele>570.2</ele><time>2026-04-07T12:04:09.927Z</time></trkpt><trkpt lat="45.7009883" lon="11.2010533"><ele>572.6</ele><time>2026-04-07T12:04:10.927Z</time></trkpt><trkpt lat="45.701035" lon="11.2009433"><ele>575.0</ele><time>2026-04-07T12:04:11.927Z</time></trkpt><trkpt lat="45.701075" lon="11.2008283"><ele>574.3333333333333</ele><time>2026-04-07T12:04:12.927Z</time></trkpt><trkpt lat="45.7011183" lon="11.2007367"><ele>573.6666666666666</ele><time>2026-04-07T12:04:13.927Z</time></trkpt><trkpt lat="45.7011583" lon="11.2006367"><ele>573.0</ele><time>2026-04-07T12:04:14.927Z</time></trkpt><trkpt lat="45.7011967" lon="11.20054"><ele>572.3333333333334</ele><time>2026-04-07T12:04:15.926Z</time></trkpt><trkpt lat="45.7012383" lon="11.200435"><ele>571.6666666666667</ele><time>2026-04-07T12:04:16.927Z</time></trkpt><trkpt lat="45.7012783" lon="11.2003333"><ele>571.0</ele><time>2026-04-07T12:04:17.927Z</time></trkpt><trkpt lat="45.7013267" lon="11.2002467"><ele>572.7142857142858</ele><time>2026-04-07T12:04:18.926Z</time></trkpt><trkpt lat="45.701375" lon="11.2001567"><ele>574.4285714285714</ele><time>2026-04-07T12:04:19.927Z</time></trkpt><trkpt lat="45.7014133" lon="11.200065"><ele>576.1428571428571</ele><time>2026-04-07T12:04:20.927Z</time></trkpt><trkpt lat="45.7014483" lon="11.1999833"><ele>577.8571428571429</ele><time>2026-04-07T12:04:21.926Z</time></trkpt><trkpt lat="45.7014883" lon="11.1999067"><ele>579.5714285714286</ele><time>2026-04-07T12:04:22.927Z</time></trkpt><trkpt lat="45.701515" lon="11.199825"><ele>581.2857142857143</ele><time>2026-04-07T12:04:23.926Z</time></trkpt><trkpt lat="45.7015633" lon="11.199735"><ele>583.0</ele><time>2026-04-07T12:04:24.926Z</time></trkpt><trkpt lat="45.7016183" lon="11.199655"><ele>583.4</ele><time>2026-04-07T12:04:25.927Z</time></trkpt><trkpt lat="45.7016817" lon="11.199595"><ele>583.8</ele><time>2026-04-07T12:04:26.926Z</time></trkpt><trkpt lat="45.7017533" lon="11.1995133"><ele>584.2</ele><time>2026-04-07T12:04:27.926Z</time></trkpt><trkpt lat="45.7018167" lon="11.199425"><ele>584.6</ele><time>2026-04-07T12:04:28.927Z</time></trkpt><trkpt lat="45.70187" lon="11.199295"><ele>585.0</ele><time>2026-04-07T12:04:29.926Z</time></trkpt><trkpt lat="45.7019267" lon="11.1991817"><ele>585.0</ele><time>2026-04-07T12:04:30.927Z</time></trkpt><trkpt lat="45.701985" lon="11.1990517"><ele>585.0</ele><time>2026-04-07T12:04:31.927Z</time></trkpt><trkpt lat="45.702035" lon="11.19892"><ele>585.0</ele><time>2026-04-07T12:04:32.927Z</time></trkpt><trkpt lat="45.70207" lon="11.1987983"><ele>585.0</ele><time>2026-04-07T12:04:33.927Z</time></trkpt><trkpt lat="45.7021033" lon="11.198665"><ele>585.0</ele><time>2026-04-07T12:04:34.927Z</time></trkpt><trkpt lat="45.7021217" lon="11.198535"><ele>586.7142857142858</ele><time>2026-04-07T12:04:35.927Z</time></trkpt><trkpt lat="45.7021383" lon="11.198415"><ele>588.4285714285714</ele><time>2026-04-07T12:04:36.927Z</time></trkpt><trkpt lat="45.7021483" lon="11.1983117"><ele>590.1428571428571</ele><time>2026-04-07T12:04:37.926Z</time></trkpt><trkpt lat="45.70216" lon="11.1982167"><ele>591.8571428571429</ele><time>2026-04-07T12:04:38.927Z</time></trkpt><trkpt lat="45.70217" lon="11.19812"><ele>593.5714285714286</ele><time>2026-04-07T12:04:39.927Z</time></trkpt><trkpt lat="45.70218" lon="11.19802"><ele>595.2857142857143</ele><time>2026-04-07T12:04:40.927Z</time></trkpt><trkpt lat="45.7021933" lon="11.197925"><ele>597.0</ele><time>2026-04-07T12:04:41.927Z</time></trkpt><trkpt lat="45.7021983" lon="11.197755"><ele>598.2</ele><time>2026-04-07T12:04:43.926Z</time></trkpt><trkpt lat="45.7021867" lon="11.1975833"><ele>599.4000000000001</ele><time>2026-04-07T12:04:45.926Z</time></trkpt><trkpt lat="45.70218" lon="11.1974933"><ele>600.5999999999999</ele><time>2026-04-07T12:04:46.926Z</time></trkpt><trkpt lat="45.7021617" lon="11.1973267"><ele>601.8</ele><time>2026-04-07T12:04:48.927Z</time></trkpt><trkpt lat="45.7021667" lon="11.1971467"><ele>603.0</ele><time>2026-04-07T12:04:50.927Z</time></trkpt><trkpt lat="45.7022" lon="11.1969917"><ele>604.3333333333334</ele><time>2026-04-07T12:04:52.927Z</time></trkpt><trkpt lat="45.7022267" lon="11.1969083"><ele>605.6666666666666</ele><time>2026-04-07T12:04:53.927Z</time></trkpt><trkpt lat="45.7022533" lon="11.196825"><ele>607.0</ele><time>2026-04-07T12:04:54.926Z</time></trkpt><trkpt lat="45.7022683" lon="11.19673"><ele>608.3333333333333</ele><time>2026-04-07T12:04:55.927Z</time></trkpt><trkpt lat="45.7023033" lon="11.196565"><ele>609.6666666666666</ele><time>2026-04-07T12:04:57.927Z</time></trkpt><trkpt lat="45.7023017" lon="11.1964517"><ele>611.0</ele><time>2026-04-07T12:04:58.926Z</time></trkpt><trkpt lat="45.702315" lon="11.19629"><ele>611.75</ele><time>2026-04-07T12:04:59.927Z</time></trkpt><trkpt lat="45.702325" lon="11.19612"><ele>612.5</ele><time>2026-04-07T12:05:00.927Z</time></trkpt><trkpt lat="45.7023417" lon="11.195915"><ele>613.25</ele><time>2026-04-07T12:05:01.927Z</time></trkpt><trkpt lat="45.7023517" lon="11.1956767"><ele>614.0</ele><time>2026-04-07T12:05:02.926Z</time></trkpt><trkpt lat="45.7023717" lon="11.1954333"><ele>614.25</ele><time>2026-04-07T12:05:03.926Z</time></trkpt><trkpt lat="45.7023783" lon="11.1952067"><ele>614.5</ele><time>2026-04-07T12:05:04.927Z</time></trkpt><trkpt lat="45.70238" lon="11.1950117"><ele>614.75</ele><time>2026-04-07T12:05:05.927Z</time></trkpt><trkpt lat="45.7023583" lon="11.1948233"><ele>615.0</ele><time>2026-04-07T12:05:06.927Z</time></trkpt><trkpt lat="45.7023217" lon="11.1946333"><ele>616.0</ele><time>2026-04-07T12:05:07.926Z</time></trkpt><trkpt lat="45.7022683" lon="11.19443"><ele>617.0</ele><time>2026-04-07T12:05:08.927Z</time></trkpt><trkpt lat="45.7022217" lon="11.194225"><ele>618.0</ele><time>2026-04-07T12:05:09.927Z</time></trkpt><trkpt lat="45.7021917" lon="11.1940333"><ele>619.0</ele><time>2026-04-07T12:05:10.927Z</time></trkpt><trkpt lat="45.7021867" lon="11.1938483"><ele>620.75</ele><time>2026-04-07T12:05:11.926Z</time></trkpt><trkpt lat="45.7021933" lon="11.1936767"><ele>622.5</ele><time>2026-04-07T12:05:12.927Z</time></trkpt><trkpt lat="45.70222" lon="11.19352"><ele>624.25</ele><time>2026-04-07T12:05:13.927Z</time></trkpt><trkpt lat="45.702265" lon="11.1933483"><ele>626.0</ele><time>2026-04-07T12:05:14.926Z</time></trkpt><trkpt lat="45.7023117" lon="11.193145"><ele>627.0</ele><time>2026-04-07T12:05:15.926Z</time></trkpt><trkpt lat="45.7023533" lon="11.1929333"><ele>628.0</ele><time>2026-04-07T12:05:16.927Z</time></trkpt><trkpt lat="45.70239" lon="11.19274"><ele>629.0</ele><time>2026-04-07T12:05:17.927Z</time></trkpt><trkpt lat="45.7024183" lon="11.1925567"><ele>630.0</ele><time>2026-04-07T12:05:18.927Z</time></trkpt><trkpt lat="45.7024283" lon="11.19238"><ele>630.2</ele><time>2026-04-07T12:05:19.926Z</time></trkpt><trkpt lat="45.7024317" lon="11.192225"><ele>630.4</ele><time>2026-04-07T12:05:20.927Z</time></trkpt><trkpt lat="45.7024383" lon="11.1920883"><ele>630.6</ele><time>2026-04-07T12:05:21.926Z</time></trkpt><trkpt lat="45.70245" lon="11.1919533"><ele>630.8</ele><time>2026-04-07T12:05:22.927Z</time></trkpt><trkpt lat="45.7024567" lon="11.1918317"><ele>631.0</ele><time>2026-04-07T12:05:23.926Z</time></trkpt><trkpt lat="45.7024583" lon="11.191725"><ele>631.0</ele><time>2026-04-07T12:05:24.927Z</time></trkpt><trkpt lat="45.7024633" lon="11.1916283"><ele>631.0</ele><time>2026-04-07T12:05:25.927Z</time></trkpt><trkpt lat="45.7024667" lon="11.1915367"><ele>631.0</ele><time>2026-04-07T12:05:26.927Z</time></trkpt><trkpt lat="45.7024667" lon="11.1914383"><ele>631.0</ele><time>2026-04-07T12:05:27.926Z</time></trkpt><trkpt lat="45.70245" lon="11.19134"><ele>631.0</ele><time>2026-04-07T12:05:28.927Z</time></trkpt><trkpt lat="45.7024183" lon="11.19124"><ele>631.0</ele><time>2026-04-07T12:05:29.927Z</time></trkpt><trkpt lat="45.70239" lon="11.191145"><ele>631.0</ele><time>2026-04-07T12:05:30.927Z</time></trkpt><trkpt lat="45.7023583" lon="11.19105"><ele>630.5</ele><time>2026-04-07T12:05:31.926Z</time></trkpt><trkpt lat="45.7023283" lon="11.1909533"><ele>630.0</ele><time>2026-04-07T12:05:32.927Z</time></trkpt><trkpt lat="45.7023033" lon="11.19086"><ele>629.5</ele><time>2026-04-07T12:05:33.927Z</time></trkpt><trkpt lat="45.70228" lon="11.1907567"><ele>629.0</ele><time>2026-04-07T12:05:34.927Z</time></trkpt><trkpt lat="45.7022567" lon="11.1906583"><ele>628.5</ele><time>2026-04-07T12:05:35.927Z</time></trkpt><trkpt lat="45.7022333" lon="11.1905517"><ele>628.0</ele><time>2026-04-07T12:05:36.927Z</time></trkpt><trkpt lat="45.70221" lon="11.190435"><ele>627.5</ele><time>2026-04-07T12:05:37.926Z</time></trkpt><trkpt lat="45.7021933" lon="11.190315"><ele>627.0</ele><time>2026-04-07T12:05:38.927Z</time></trkpt><trkpt lat="45.7021883" lon="11.1902"><ele>626.5</ele><time>2026-04-07T12:05:39.927Z</time></trkpt><trkpt lat="45.7021867" lon="11.19009"><ele>626.0</ele><time>2026-04-07T12:05:40.926Z</time></trkpt><trkpt lat="45.702205" lon="11.1899817"><ele>625.5</ele><time>2026-04-07T12:05:41.926Z</time></trkpt><trkpt lat="45.7022333" lon="11.1898683"><ele>625.0</ele><time>2026-04-07T12:05:42.927Z</time></trkpt><trkpt lat="45.7022767" lon="11.189785"><ele>626.6666666666667</ele><time>2026-04-07T12:05:43.927Z</time></trkpt><trkpt lat="45.7023183" lon="11.189695"><ele>628.3333333333334</ele><time>2026-04-07T12:05:44.927Z</time></trkpt><trkpt lat="45.7023633" lon="11.1896067"><ele>630.0</ele><time>2026-04-07T12:05:45.927Z</time></trkpt><trkpt lat="45.7023933" lon="11.1895167"><ele>631.6666666666666</ele><time>2026-04-07T12:05:46.926Z</time></trkpt><trkpt lat="45.7024567" lon="11.18935"><ele>633.3333333333333</ele><time>2026-04-07T12:05:48.927Z</time></trkpt><trkpt lat="45.70249" lon="11.1892667"><ele>635.0</ele><time>2026-04-07T12:05:49.926Z</time></trkpt><trkpt lat="45.7025117" lon="11.189155"><ele>635.0</ele><time>2026-04-07T12:05:50.927Z</time></trkpt><trkpt lat="45.70252" lon="11.189045"><ele>635.0</ele><time>2026-04-07T12:05:51.926Z</time></trkpt><trkpt lat="45.702515" lon="11.188935"><ele>635.0</ele><time>2026-04-07T12:05:52.926Z</time></trkpt><trkpt lat="45.702505" lon="11.1888183"><ele>635.0</ele><time>2026-04-07T12:05:53.926Z</time></trkpt><trkpt lat="45.7024783" lon="11.18872"><ele>635.0</ele><time>2026-04-07T12:05:54.925Z</time></trkpt><trkpt lat="45.7024467" lon="11.1885617"><ele>635.0</ele><time>2026-04-07T12:05:56.926Z</time></trkpt><trkpt lat="45.702415" lon="11.18844"><ele>637.2</ele><time>2026-04-07T12:05:58.925Z</time></trkpt><trkpt lat="45.7023717" lon="11.188285"><ele>639.4</ele><time>2026-04-07T12:06:00.926Z</time></trkpt><trkpt lat="45.7023317" lon="11.1881217"><ele>641.5999999999999</ele><time>2026-04-07T12:06:02.926Z</time></trkpt><trkpt lat="45.7023033" lon="11.18803"><ele>643.8</ele><time>2026-04-07T12:06:03.926Z</time></trkpt><trkpt lat="45.7022767" lon="11.1879317"><ele>646.0</ele><time>2026-04-07T12:06:04.925Z</time></trkpt><trkpt lat="45.70225" lon="11.1878017"><ele>648.0</ele><time>2026-04-07T12:06:05.925Z</time></trkpt><trkpt lat="45.7022183" lon="11.1876233"><ele>650.0</ele><time>2026-04-07T12:06:06.925Z</time></trkpt><trkpt lat="45.7021983" lon="11.187405"><ele>652.0</ele><time>2026-04-07T12:06:07.926Z</time></trkpt><trkpt lat="45.7021933" lon="11.1871767"><ele>654.0</ele><time>2026-04-07T12:06:08.926Z</time></trkpt><trkpt lat="45.7022133" lon="11.1869333"><ele>654.6666666666666</ele><time>2026-04-07T12:06:09.926Z</time></trkpt><trkpt lat="45.7022333" lon="11.18666"><ele>655.3333333333333</ele><time>2026-04-07T12:06:10.925Z</time></trkpt><trkpt lat="45.7022583" lon="11.1863783"><ele>656.0</ele><time>2026-04-07T12:06:11.926Z</time></trkpt><trkpt lat="45.7023" lon="11.1861083"><ele>657.0</ele><time>2026-04-07T12:06:12.926Z</time></trkpt><trkpt lat="45.7023217" lon="11.1858667"><ele>658.0</ele><time>2026-04-07T12:06:13.926Z</time></trkpt><trkpt lat="45.7023367" lon="11.1856283"><ele>659.0</ele><time>2026-04-07T12:06:14.926Z</time></trkpt><trkpt lat="45.7023633" lon="11.1854267"><ele>659.25</ele><time>2026-04-07T12:06:15.926Z</time></trkpt><trkpt lat="45.702395" lon="11.1852617"><ele>659.5</ele><time>2026-04-07T12:06:16.925Z</time></trkpt><trkpt lat="45.7024133" lon="11.1850967"><ele>659.75</ele><time>2026-04-07T12:06:17.925Z</time></trkpt><trkpt lat="45.702415" lon="11.184925"><ele>660.0</ele><time>2026-04-07T12:06:18.925Z</time></trkpt><trkpt lat="45.7023867" lon="11.184755"><ele>660.8</ele><time>2026-04-07T12:06:19.926Z</time></trkpt><trkpt lat="45.7023383" lon="11.1845917"><ele>661.6</ele><time>2026-04-07T12:06:20.926Z</time></trkpt><trkpt lat="45.7022883" lon="11.18444"><ele>662.4000000000001</ele><time>2026-04-07T12:06:21.926Z</time></trkpt><trkpt lat="45.7022483" lon="11.1843067"><ele>663.2</ele><time>2026-04-07T12:06:22.926Z</time></trkpt><trkpt lat="45.7021967" lon="11.18421"><ele>664.0</ele><time>2026-04-07T12:06:23.925Z</time></trkpt><trkpt lat="45.7021067" lon="11.1841633"><ele>664.0</ele><time>2026-04-07T12:06:25.926Z</time></trkpt><trkpt lat="45.7020617" lon="11.1843017"><ele>664.0</ele><time>2026-04-07T12:06:27.926Z</time></trkpt><trkpt lat="45.7020633" lon="11.18445"><ele>664.0</ele><time>2026-04-07T12:06:28.925Z</time></trkpt><trkpt lat="45.7020767" lon="11.1846117"><ele>664.0</ele><time>2026-04-07T12:06:29.925Z</time></trkpt><trkpt lat="45.7020633" lon="11.1847533"><ele>664.0</ele><time>2026-04-07T12:06:30.926Z</time></trkpt><trkpt lat="45.7020167" lon="11.1848667"><ele>663.0</ele><time>2026-04-07T12:06:31.926Z</time></trkpt><trkpt lat="45.7019367" lon="11.1849717"><ele>662.0</ele><time>2026-04-07T12:06:32.926Z</time></trkpt><trkpt lat="45.7018283" lon="11.18508"><ele>661.0</ele><time>2026-04-07T12:06:33.926Z</time></trkpt><trkpt lat="45.701725" lon="11.185195"><ele>660.0</ele><time>2026-04-07T12:06:34.926Z</time></trkpt><trkpt lat="45.7016383" lon="11.1852883"><ele>662.0</ele><time>2026-04-07T12:06:35.926Z</time></trkpt><trkpt lat="45.7015717" lon="11.185345"><ele>664.0</ele><time>2026-04-07T12:06:36.926Z</time></trkpt><trkpt lat="45.7015067" lon="11.1853733"><ele>666.0</ele><time>2026-04-07T12:06:37.926Z</time></trkpt><trkpt lat="45.7013967" lon="11.1852917"><ele>668.0</ele><time>2026-04-07T12:06:39.926Z</time></trkpt><trkpt lat="45.7013633" lon="11.1851983"><ele>670.0</ele><time>2026-04-07T12:06:40.926Z</time></trkpt><trkpt lat="45.7013583" lon="11.185055"><ele>672.0</ele><time>2026-04-07T12:06:41.926Z</time></trkpt><trkpt lat="45.7013817" lon="11.1848533"><ele>674.0</ele><time>2026-04-07T12:06:42.926Z</time></trkpt><trkpt lat="45.7014317" lon="11.1845867"><ele>676.0</ele><time>2026-04-07T12:06:43.926Z</time></trkpt><trkpt lat="45.7014783" lon="11.1843283"><ele>678.0</ele><time>2026-04-07T12:06:44.926Z</time></trkpt><trkpt lat="45.701505" lon="11.1840633"><ele>679.6666666666666</ele><time>2026-04-07T12:06:45.926Z</time></trkpt><trkpt lat="45.7015367" lon="11.1838083"><ele>681.3333333333333</ele><time>2026-04-07T12:06:46.926Z</time></trkpt><trkpt lat="45.7015567" lon="11.1835317"><ele>683.0</ele><time>2026-04-07T12:06:47.926Z</time></trkpt><trkpt lat="45.701585" lon="11.18325"><ele>686.6666666666666</ele><time>2026-04-07T12:06:48.926Z</time></trkpt><trkpt lat="45.7016" lon="11.1829567"><ele>690.3333333333334</ele><time>2026-04-07T12:06:49.926Z</time></trkpt><trkpt lat="45.7016217" lon="11.1826533"><ele>694.0</ele><time>2026-04-07T12:06:50.925Z</time></trkpt><trkpt lat="45.70164" lon="11.1823583"><ele>695.6666666666667</ele><time>2026-04-07T12:06:51.926Z</time></trkpt><trkpt lat="45.7016667" lon="11.1820717"><ele>697.3333333333334</ele><time>2026-04-07T12:06:52.925Z</time></trkpt><trkpt lat="45.7016917" lon="11.1817967"><ele>699.0</ele><time>2026-04-07T12:06:53.926Z</time></trkpt><trkpt lat="45.7017067" lon="11.18154"><ele>702.6666666666666</ele><time>2026-04-07T12:06:54.925Z</time></trkpt><trkpt lat="45.7017283" lon="11.1813183"><ele>706.3333333333333</ele><time>2026-04-07T12:06:55.926Z</time></trkpt><trkpt lat="45.7017733" lon="11.1811033"><ele>710.0</ele><time>2026-04-07T12:06:56.925Z</time></trkpt><trkpt lat="45.7018383" lon="11.1809083"><ele>711.0</ele><time>2026-04-07T12:06:57.926Z</time></trkpt><trkpt lat="45.701945" lon="11.180685"><ele>712.0</ele><time>2026-04-07T12:06:58.925Z</time></trkpt><trkpt lat="45.702065" lon="11.180445"><ele>713.0</ele><time>2026-04-07T12:06:59.925Z</time></trkpt><trkpt lat="45.70218" lon="11.18022"><ele>713.0</ele><time>2026-04-07T12:07:00.926Z</time></trkpt><trkpt lat="45.7022867" lon="11.1799933"><ele>713.0</ele><time>2026-04-07T12:07:01.926Z</time></trkpt><trkpt lat="45.7023817" lon="11.1797917"><ele>713.0</ele><time>2026-04-07T12:07:02.925Z</time></trkpt><trkpt lat="45.7024717" lon="11.1796083"><ele>715.3333333333333</ele><time>2026-04-07T12:07:03.925Z</time></trkpt><trkpt lat="45.7025533" lon="11.17944"><ele>717.6666666666666</ele><time>2026-04-07T12:07:04.926Z</time></trkpt><trkpt lat="45.7026533" lon="11.1792833"><ele>720.0</ele><time>2026-04-07T12:07:05.926Z</time></trkpt><trkpt lat="45.7027817" lon="11.17913"><ele>722.3333333333334</ele><time>2026-04-07T12:07:06.926Z</time></trkpt><trkpt lat="45.70292" lon="11.1789817"><ele>724.6666666666667</ele><time>2026-04-07T12:07:07.926Z</time></trkpt><trkpt lat="45.703065" lon="11.178845"><ele>727.0</ele><time>2026-04-07T12:07:08.926Z</time></trkpt><trkpt lat="45.7032283" lon="11.1787133"><ele>727.0</ele><time>2026-04-07T12:07:09.925Z</time></trkpt><trkpt lat="45.7033833" lon="11.1785683"><ele>727.0</ele><time>2026-04-07T12:07:10.925Z</time></trkpt><trkpt lat="45.7035283" lon="11.1784367"><ele>727.0</ele><time>2026-04-07T12:07:11.926Z</time></trkpt><trkpt lat="45.703665" lon="11.178325"><ele>727.5</ele><time>2026-04-07T12:07:12.925Z</time></trkpt><trkpt lat="45.7037733" lon="11.1782"><ele>728.0</ele><time>2026-04-07T12:07:13.926Z</time></trkpt><trkpt lat="45.7038433" lon="11.1780517"><ele>728.5</ele><time>2026-04-07T12:07:14.925Z</time></trkpt><trkpt lat="45.7038767" lon="11.1778933"><ele>729.0</ele><time>2026-04-07T12:07:15.925Z</time></trkpt><trkpt lat="45.703875" lon="11.1777217"><ele>730.75</ele><time>2026-04-07T12:07:16.926Z</time></trkpt><trkpt lat="45.7038383" lon="11.1775533"><ele>732.5</ele><time>2026-04-07T12:07:17.926Z</time></trkpt><trkpt lat="45.703775" lon="11.1773633"><ele>734.25</ele><time>2026-04-07T12:07:18.926Z</time></trkpt><trkpt lat="45.7036567" lon="11.1771733"><ele>736.0</ele><time>2026-04-07T12:07:19.925Z</time></trkpt><trkpt lat="45.7035317" lon="11.177005"><ele>740.5</ele><time>2026-04-07T12:07:20.926Z</time></trkpt><trkpt lat="45.70341" lon="11.176885"><ele>745.0</ele><time>2026-04-07T12:07:21.925Z</time></trkpt><trkpt lat="45.703315" lon="11.1767833"><ele>749.5</ele><time>2026-04-07T12:07:22.926Z</time></trkpt><trkpt lat="45.70325" lon="11.1766633"><ele>754.0</ele><time>2026-04-07T12:07:23.926Z</time></trkpt><trkpt lat="45.7032" lon="11.1765217"><ele>757.0</ele><time>2026-04-07T12:07:24.926Z</time></trkpt><trkpt lat="45.7031517" lon="11.17637"><ele>760.0</ele><time>2026-04-07T12:07:25.926Z</time></trkpt><trkpt lat="45.7031067" lon="11.1762117"><ele>763.0</ele><time>2026-04-07T12:07:26.926Z</time></trkpt><trkpt lat="45.7030633" lon="11.1760417"><ele>766.0</ele><time>2026-04-07T12:07:27.925Z</time></trkpt><trkpt lat="45.7030333" lon="11.1758733"><ele>766.0</ele><time>2026-04-07T12:07:28.926Z</time></trkpt><trkpt lat="45.7030167" lon="11.175705"><ele>766.0</ele><time>2026-04-07T12:07:29.925Z</time></trkpt><trkpt lat="45.7030167" lon="11.17553"><ele>766.0</ele><time>2026-04-07T12:07:30.926Z</time></trkpt><trkpt lat="45.70301" lon="11.17535"><ele>766.0</ele><time>2026-04-07T12:07:31.925Z</time></trkpt><trkpt lat="45.7029617" lon="11.1751733"><ele>767.75</ele><time>2026-04-07T12:07:32.926Z</time></trkpt><trkpt lat="45.702915" lon="11.1750083"><ele>769.5</ele><time>2026-04-07T12:07:33.926Z</time></trkpt><trkpt lat="45.7028683" lon="11.1748517"><ele>771.25</ele><time>2026-04-07T12:07:34.926Z</time></trkpt><trkpt lat="45.7028317" lon="11.1747017"><ele>773.0</ele><time>2026-04-07T12:07:35.925Z</time></trkpt><trkpt lat="45.70282" lon="11.1745483"><ele>774.2</ele><time>2026-04-07T12:07:36.926Z</time></trkpt><trkpt lat="45.7028333" lon="11.1743817"><ele>775.4</ele><time>2026-04-07T12:07:37.925Z</time></trkpt><trkpt lat="45.702865" lon="11.1742183"><ele>776.6</ele><time>2026-04-07T12:07:38.925Z</time></trkpt><trkpt lat="45.7028917" lon="11.1740917"><ele>777.8000000000001</ele><time>2026-04-07T12:07:39.925Z</time></trkpt><trkpt lat="45.7029233" lon="11.1739933"><ele>779.0</ele><time>2026-04-07T12:07:40.926Z</time></trkpt><trkpt lat="45.7029667" lon="11.173925"><ele>779.0</ele><time>2026-04-07T12:07:41.926Z</time></trkpt><trkpt lat="45.7030267" lon="11.1738967"><ele>779.0</ele><time>2026-04-07T12:07:42.925Z</time></trkpt><trkpt lat="45.70315" lon="11.1739833"><ele>779.0</ele><time>2026-04-07T12:07:44.926Z</time></trkpt><trkpt lat="45.7032" lon="11.1740967"><ele>779.0</ele><time>2026-04-07T12:07:45.925Z</time></trkpt><trkpt lat="45.70322" lon="11.1742383"><ele>779.0</ele><time>2026-04-07T12:07:46.926Z</time></trkpt><trkpt lat="45.7032067" lon="11.1744217"><ele>779.0</ele><time>2026-04-07T12:07:47.926Z</time></trkpt><trkpt lat="45.7031717" lon="11.1746033"><ele>779.0</ele><time>2026-04-07T12:07:48.926Z</time></trkpt><trkpt lat="45.7031467" lon="11.1747617"><ele>779.0</ele><time>2026-04-07T12:07:49.926Z</time></trkpt><trkpt lat="45.7031533" lon="11.174855"><ele>779.0</ele><time>2026-04-07T12:07:50.926Z</time></trkpt><trkpt lat="45.7032233" lon="11.174915"><ele>779.0</ele><time>2026-04-07T12:07:52.926Z</time></trkpt><trkpt lat="45.7033183" lon="11.174795"><ele>779.0</ele><time>2026-04-07T12:07:54.925Z</time></trkpt><trkpt lat="45.703365" lon="11.1746833"><ele>779.0</ele><time>2026-04-07T12:07:55.926Z</time></trkpt><trkpt lat="45.7034133" lon="11.1745667"><ele>779.0</ele><time>2026-04-07T12:07:56.925Z</time></trkpt><trkpt lat="45.7034467" lon="11.174405"><ele>779.0</ele><time>2026-04-07T12:07:57.926Z</time></trkpt><trkpt lat="45.7034533" lon="11.1741317"><ele>780.3333333333334</ele><time>2026-04-07T12:07:58.926Z</time></trkpt><trkpt lat="45.7034217" lon="11.173805"><ele>781.6666666666667</ele><time>2026-04-07T12:07:59.926Z</time></trkpt><trkpt lat="45.7034033" lon="11.1735233"><ele>783.0</ele><time>2026-04-07T12:08:00.925Z</time></trkpt><trkpt lat="45.7033917" lon="11.1732983"><ele>784.0</ele><time>2026-04-07T12:08:01.925Z</time></trkpt><trkpt lat="45.7033817" lon="11.17309"><ele>785.0</ele><time>2026-04-07T12:08:02.926Z</time></trkpt><trkpt lat="45.7033783" lon="11.1729"><ele>786.0</ele><time>2026-04-07T12:08:03.926Z</time></trkpt><trkpt lat="45.7033917" lon="11.1727367"><ele>787.0</ele><time>2026-04-07T12:08:04.925Z</time></trkpt><trkpt lat="45.7034033" lon="11.172585"><ele>787.0</ele><time>2026-04-07T12:08:05.925Z</time></trkpt><trkpt lat="45.703395" lon="11.1724483"><ele>787.0</ele><time>2026-04-07T12:08:06.926Z</time></trkpt><trkpt lat="45.70338" lon="11.1723367"><ele>787.0</ele><time>2026-04-07T12:08:07.926Z</time></trkpt><trkpt lat="45.7033233" lon="11.1722333"><ele>787.0</ele><time>2026-04-07T12:08:08.926Z</time></trkpt><trkpt lat="45.7032367" lon="11.1721533"><ele>787.0</ele><time>2026-04-07T12:08:09.925Z</time></trkpt><trkpt lat="45.7031367" lon="11.172125"><ele>788.0</ele><time>2026-04-07T12:08:10.925Z</time></trkpt><trkpt lat="45.7030033" lon="11.1721483"><ele>789.0</ele><time>2026-04-07T12:08:11.926Z</time></trkpt><trkpt lat="45.7028717" lon="11.1721983"><ele>790.0</ele><time>2026-04-07T12:08:12.926Z</time></trkpt><trkpt lat="45.7027533" lon="11.1722383"><ele>791.0</ele><time>2026-04-07T12:08:13.926Z</time></trkpt><trkpt lat="45.7026583" lon="11.172265"><ele>793.1428571428571</ele><time>2026-04-07T12:08:14.926Z</time></trkpt><trkpt lat="45.70258" lon="11.172275"><ele>795.2857142857142</ele><time>2026-04-07T12:08:15.925Z</time></trkpt><trkpt lat="45.7025083" lon="11.1722533"><ele>797.4285714285714</ele><time>2026-04-07T12:08:16.925Z</time></trkpt><trkpt lat="45.7024533" lon="11.1721983"><ele>799.5714285714286</ele><time>2026-04-07T12:08:17.925Z</time></trkpt><trkpt lat="45.7024167" lon="11.1721233"><ele>801.7142857142857</ele><time>2026-04-07T12:08:18.926Z</time></trkpt><trkpt lat="45.70241" lon="11.1720333"><ele>803.8571428571429</ele><time>2026-04-07T12:08:19.925Z</time></trkpt><trkpt lat="45.7024633" lon="11.171935"><ele>806.0</ele><time>2026-04-07T12:08:20.925Z</time></trkpt><trkpt lat="45.7025533" lon="11.17185"><ele>806.0000000000001</ele><time>2026-04-07T12:08:21.925Z</time></trkpt><trkpt lat="45.70266" lon="11.1717867"><ele>806.0</ele><time>2026-04-07T12:08:22.926Z</time></trkpt><trkpt lat="45.7027367" lon="11.17171"><ele>806.0</ele><time>2026-04-07T12:08:23.926Z</time></trkpt><trkpt lat="45.702785" lon="11.1716183"><ele>806.0</ele><time>2026-04-07T12:08:24.925Z</time></trkpt><trkpt lat="45.702775" lon="11.1715217"><ele>806.0000000000001</ele><time>2026-04-07T12:08:25.925Z</time></trkpt><trkpt lat="45.702725" lon="11.1714267"><ele>806.0</ele><time>2026-04-07T12:08:26.926Z</time></trkpt><trkpt lat="45.702625" lon="11.17135"><ele>807.5999999999999</ele><time>2026-04-07T12:08:27.926Z</time></trkpt><trkpt lat="45.7024833" lon="11.1712783"><ele>809.2</ele><time>2026-04-07T12:08:28.925Z</time></trkpt><trkpt lat="45.7023733" lon="11.1712117"><ele>810.8</ele><time>2026-04-07T12:08:29.926Z</time></trkpt><trkpt lat="45.70229" lon="11.171155"><ele>812.4000000000001</ele><time>2026-04-07T12:08:30.926Z</time></trkpt><trkpt lat="45.7022433" lon="11.1710817"><ele>814.0</ele><time>2026-04-07T12:08:31.926Z</time></trkpt><trkpt lat="45.7022117" lon="11.1709967"><ele>814.0</ele><time>2026-04-07T12:08:32.925Z</time></trkpt><trkpt lat="45.7022267" lon="11.1708083"><ele>814.0</ele><time>2026-04-07T12:08:34.924Z</time></trkpt><trkpt lat="45.7022717" lon="11.1706817"><ele>814.0</ele><time>2026-04-07T12:08:35.925Z</time></trkpt><trkpt lat="45.7023417" lon="11.1705317"><ele>814.0</ele><time>2026-04-07T12:08:36.925Z</time></trkpt><trkpt lat="45.7024233" lon="11.17037"><ele>816.5</ele><time>2026-04-07T12:08:37.924Z</time></trkpt><trkpt lat="45.702495" lon="11.17021"><ele>819.0</ele><time>2026-04-07T12:08:38.925Z</time></trkpt><trkpt lat="45.7025583" lon="11.1700583"><ele>821.5</ele><time>2026-04-07T12:08:39.925Z</time></trkpt><trkpt lat="45.7025833" lon="11.1699033"><ele>824.0</ele><time>2026-04-07T12:08:40.925Z</time></trkpt><trkpt lat="45.702585" lon="11.169765"><ele>826.0000000000001</ele><time>2026-04-07T12:08:41.925Z</time></trkpt><trkpt lat="45.702595" lon="11.1696417"><ele>828.0</ele><time>2026-04-07T12:08:42.925Z</time></trkpt><trkpt lat="45.702585" lon="11.1695083"><ele>830.0</ele><time>2026-04-07T12:08:43.924Z</time></trkpt><trkpt lat="45.70257" lon="11.169385"><ele>832.0</ele><time>2026-04-07T12:08:44.924Z</time></trkpt><trkpt lat="45.702545" lon="11.1692783"><ele>834.0000000000001</ele><time>2026-04-07T12:08:45.925Z</time></trkpt><trkpt lat="45.7025083" lon="11.1691833"><ele>836.0</ele><time>2026-04-07T12:08:46.924Z</time></trkpt><trkpt lat="45.7024533" lon="11.1691033"><ele>836.0</ele><time>2026-04-07T12:08:47.925Z</time></trkpt><trkpt lat="45.7023883" lon="11.1690417"><ele>836.0</ele><time>2026-04-07T12:08:48.924Z</time></trkpt><trkpt lat="45.7023167" lon="11.1690217"><ele>836.0</ele><time>2026-04-07T12:08:49.925Z</time></trkpt><trkpt lat="45.702235" lon="11.1690433"><ele>836.0</ele><time>2026-04-07T12:08:50.925Z</time></trkpt><trkpt lat="45.702165" lon="11.1691233"><ele>836.0</ele><time>2026-04-07T12:08:51.924Z</time></trkpt><trkpt lat="45.702105" lon="11.1692833"><ele>836.0</ele><time>2026-04-07T12:08:52.925Z</time></trkpt><trkpt lat="45.70204" lon="11.1694417"><ele>836.0</ele><time>2026-04-07T12:08:53.924Z</time></trkpt><trkpt lat="45.7019583" lon="11.16955"><ele>836.0</ele><time>2026-04-07T12:08:54.925Z</time></trkpt><trkpt lat="45.7018817" lon="11.1695967"><ele>836.0</ele><time>2026-04-07T12:08:55.925Z</time></trkpt><trkpt lat="45.7018" lon="11.169615"><ele>836.0</ele><time>2026-04-07T12:08:56.924Z</time></trkpt><trkpt lat="45.7017083" lon="11.1696167"><ele>837.8333333333334</ele><time>2026-04-07T12:08:57.924Z</time></trkpt><trkpt lat="45.7016267" lon="11.1695983"><ele>839.6666666666667</ele><time>2026-04-07T12:08:58.925Z</time></trkpt><trkpt lat="45.701545" lon="11.169565"><ele>841.5</ele><time>2026-04-07T12:08:59.924Z</time></trkpt><trkpt lat="45.70148" lon="11.1694917"><ele>843.3333333333333</ele><time>2026-04-07T12:09:00.925Z</time></trkpt><trkpt lat="45.7014317" lon="11.1694017"><ele>845.1666666666666</ele><time>2026-04-07T12:09:01.924Z</time></trkpt><trkpt lat="45.701415" lon="11.1692783"><ele>847.0</ele><time>2026-04-07T12:09:02.925Z</time></trkpt><trkpt lat="45.70143" lon="11.169135"><ele>848.8</ele><time>2026-04-07T12:09:03.925Z</time></trkpt><trkpt lat="45.7014783" lon="11.1690067"><ele>850.6</ele><time>2026-04-07T12:09:04.925Z</time></trkpt><trkpt lat="45.70155" lon="11.1688883"><ele>852.3999999999999</ele><time>2026-04-07T12:09:05.925Z</time></trkpt><trkpt lat="45.7016283" lon="11.1687883"><ele>854.1999999999999</ele><time>2026-04-07T12:09:06.925Z</time></trkpt><trkpt lat="45.7016867" lon="11.1686933"><ele>856.0</ele><time>2026-04-07T12:09:07.925Z</time></trkpt><trkpt lat="45.7017167" lon="11.16857"><ele>856.0</ele><time>2026-04-07T12:09:08.924Z</time></trkpt><trkpt lat="45.701715" lon="11.1684183"><ele>855.9999999999999</ele><time>2026-04-07T12:09:09.925Z</time></trkpt><trkpt lat="45.701705" lon="11.168255"><ele>855.9999999999999</ele><time>2026-04-07T12:09:10.924Z</time></trkpt><trkpt lat="45.7016817" lon="11.1680967"><ele>856.0</ele><time>2026-04-07T12:09:11.925Z</time></trkpt><trkpt lat="45.70167" lon="11.1679533"><ele>856.0</ele><time>2026-04-07T12:09:12.924Z</time></trkpt><trkpt lat="45.7016583" lon="11.167825"><ele>857.8333333333333</ele><time>2026-04-07T12:09:13.925Z</time></trkpt><trkpt lat="45.7016533" lon="11.167715"><ele>859.6666666666666</ele><time>2026-04-07T12:09:14.924Z</time></trkpt><trkpt lat="45.7016733" lon="11.1676217"><ele>861.5</ele><time>2026-04-07T12:09:15.924Z</time></trkpt><trkpt lat="45.7017233" lon="11.1675533"><ele>863.3333333333333</ele><time>2026-04-07T12:09:16.925Z</time></trkpt><trkpt lat="45.7018033" lon="11.1675117"><ele>865.1666666666666</ele><time>2026-04-07T12:09:17.924Z</time></trkpt><trkpt lat="45.7019233" lon="11.1674867"><ele>867.0</ele><time>2026-04-07T12:09:18.925Z</time></trkpt><trkpt lat="45.702055" lon="11.167475"><ele>868.25</ele><time>2026-04-07T12:09:19.925Z</time></trkpt><trkpt lat="45.70218" lon="11.1674517"><ele>869.5</ele><time>2026-04-07T12:09:20.925Z</time></trkpt><trkpt lat="45.7022967" lon="11.1674567"><ele>870.75</ele><time>2026-04-07T12:09:21.925Z</time></trkpt><trkpt lat="45.7024" lon="11.1674983"><ele>872.0</ele><time>2026-04-07T12:09:22.925Z</time></trkpt><trkpt lat="45.70249" lon="11.1675817"><ele>872.0</ele><time>2026-04-07T12:09:23.924Z</time></trkpt><trkpt lat="45.7025633" lon="11.1677067"><ele>872.0</ele><time>2026-04-07T12:09:24.924Z</time></trkpt><trkpt lat="45.7026283" lon="11.1678367"><ele>872.0</ele><time>2026-04-07T12:09:25.925Z</time></trkpt><trkpt lat="45.7027017" lon="11.1679717"><ele>872.0</ele><time>2026-04-07T12:09:26.924Z</time></trkpt><trkpt lat="45.7027683" lon="11.1680633"><ele>872.0</ele><time>2026-04-07T12:09:27.924Z</time></trkpt><trkpt lat="45.702845" lon="11.16814"><ele>874.4000000000001</ele><time>2026-04-07T12:09:28.924Z</time></trkpt><trkpt lat="45.702925" lon="11.1681883"><ele>876.8000000000001</ele><time>2026-04-07T12:09:29.925Z</time></trkpt><trkpt lat="45.703025" lon="11.1681867"><ele>879.2</ele><time>2026-04-07T12:09:30.925Z</time></trkpt><trkpt lat="45.7031283" lon="11.1681467"><ele>881.6</ele><time>2026-04-07T12:09:31.925Z</time></trkpt><trkpt lat="45.703225" lon="11.1680717"><ele>884.0</ele><time>2026-04-07T12:09:32.925Z</time></trkpt><trkpt lat="45.7032983" lon="11.1679683"><ele>884.0</ele><time>2026-04-07T12:09:33.924Z</time></trkpt><trkpt lat="45.7033417" lon="11.1678483"><ele>884.0000000000001</ele><time>2026-04-07T12:09:34.924Z</time></trkpt><trkpt lat="45.7033483" lon="11.1677233"><ele>884.0000000000001</ele><time>2026-04-07T12:09:35.925Z</time></trkpt><trkpt lat="45.7033317" lon="11.1676017"><ele>884.0</ele><time>2026-04-07T12:09:36.925Z</time></trkpt><trkpt lat="45.7032783" lon="11.1674717"><ele>884.0</ele><time>2026-04-07T12:09:37.924Z</time></trkpt><trkpt lat="45.7031933" lon="11.1673583"><ele>888.3333333333334</ele><time>2026-04-07T12:09:38.925Z</time></trkpt><trkpt lat="45.7030617" lon="11.16726"><ele>892.6666666666667</ele><time>2026-04-07T12:09:39.925Z</time></trkpt><trkpt lat="45.7029033" lon="11.167165"><ele>897.0</ele><time>2026-04-07T12:09:40.925Z</time></trkpt><trkpt lat="45.702775" lon="11.1670817"><ele>895.6</ele><time>2026-04-07T12:09:41.925Z</time></trkpt><trkpt lat="45.702665" lon="11.1670067"><ele>894.2</ele><time>2026-04-07T12:09:42.924Z</time></trkpt><trkpt lat="45.7025683" lon="11.1669583"><ele>892.8</ele><time>2026-04-07T12:09:43.925Z</time></trkpt><trkpt lat="45.7024933" lon="11.1669117"><ele>891.4</ele><time>2026-04-07T12:09:44.924Z</time></trkpt><trkpt lat="45.7024283" lon="11.1667867"><ele>890.0</ele><time>2026-04-07T12:09:46.925Z</time></trkpt><trkpt lat="45.7024883" lon="11.1667233"><ele>890.0</ele><time>2026-04-07T12:09:48.924Z</time></trkpt><trkpt lat="45.7025667" lon="11.1667367"><ele>890.0</ele><time>2026-04-07T12:09:49.925Z</time></trkpt><trkpt lat="45.7026883" lon="11.166775"><ele>890.0</ele><time>2026-04-07T12:09:50.924Z</time></trkpt><trkpt lat="45.7028217" lon="11.1668"><ele>890.0</ele><time>2026-04-07T12:09:51.925Z</time></trkpt><trkpt lat="45.7029567" lon="11.1667917"><ele>891.75</ele><time>2026-04-07T12:09:52.924Z</time></trkpt><trkpt lat="45.7030983" lon="11.16675"><ele>893.5</ele><time>2026-04-07T12:09:53.925Z</time></trkpt><trkpt lat="45.7032267" lon="11.1667"><ele>895.25</ele><time>2026-04-07T12:09:54.924Z</time></trkpt><trkpt lat="45.7033483" lon="11.1666467"><ele>897.0</ele><time>2026-04-07T12:09:55.924Z</time></trkpt><trkpt lat="45.7034533" lon="11.1665983"><ele>897.0</ele><time>2026-04-07T12:09:56.925Z</time></trkpt><trkpt lat="45.703535" lon="11.1665367"><ele>897.0</ele><time>2026-04-07T12:09:57.924Z</time></trkpt><trkpt lat="45.7035767" lon="11.1664667"><ele>897.0</ele><time>2026-04-07T12:09:58.925Z</time></trkpt><trkpt lat="45.703565" lon="11.16631"><ele>897.0</ele><time>2026-04-07T12:10:00.925Z</time></trkpt><trkpt lat="45.7034967" lon="11.1662267"><ele>897.0</ele><time>2026-04-07T12:10:01.925Z</time></trkpt><trkpt lat="45.7033733" lon="11.166145"><ele>900.0</ele><time>2026-04-07T12:10:02.925Z</time></trkpt><trkpt lat="45.7032367" lon="11.16604"><ele>903.0</ele><time>2026-04-07T12:10:03.925Z</time></trkpt><trkpt lat="45.7031083" lon="11.1659183"><ele>906.0</ele><time>2026-04-07T12:10:04.924Z</time></trkpt><trkpt lat="45.7029783" lon="11.1658"><ele>907.25</ele><time>2026-04-07T12:10:05.924Z</time></trkpt><trkpt lat="45.702855" lon="11.165695"><ele>908.5</ele><time>2026-04-07T12:10:06.924Z</time></trkpt><trkpt lat="45.70274" lon="11.1655983"><ele>909.75</ele><time>2026-04-07T12:10:07.925Z</time></trkpt><trkpt lat="45.70264" lon="11.16551"><ele>911.0</ele><time>2026-04-07T12:10:08.925Z</time></trkpt><trkpt lat="45.7025417" lon="11.1654183"><ele>911.0</ele><time>2026-04-07T12:10:09.924Z</time></trkpt><trkpt lat="45.7024517" lon="11.165315"><ele>910.9999999999999</ele><time>2026-04-07T12:10:10.925Z</time></trkpt><trkpt lat="45.7023783" lon="11.165195"><ele>910.9999999999999</ele><time>2026-04-07T12:10:11.925Z</time></trkpt><trkpt lat="45.702325" lon="11.1650767"><ele>911.0</ele><time>2026-04-07T12:10:12.924Z</time></trkpt><trkpt lat="45.702285" lon="11.1649417"><ele>911.0</ele><time>2026-04-07T12:10:13.925Z</time></trkpt><trkpt lat="45.7022583" lon="11.1648117"><ele>912.4</ele><time>2026-04-07T12:10:14.925Z</time></trkpt><trkpt lat="45.7022333" lon="11.1646683"><ele>913.8</ele><time>2026-04-07T12:10:15.924Z</time></trkpt><trkpt lat="45.70221" lon="11.1645283"><ele>915.1999999999999</ele><time>2026-04-07T12:10:16.925Z</time></trkpt><trkpt lat="45.70221" lon="11.1643967"><ele>916.5999999999999</ele><time>2026-04-07T12:10:17.925Z</time></trkpt><trkpt lat="45.7022183" lon="11.1642617"><ele>918.0</ele><time>2026-04-07T12:10:18.925Z</time></trkpt><trkpt lat="45.7022467" lon="11.1641717"><ele>918.0</ele><time>2026-04-07T12:10:19.924Z</time></trkpt><trkpt lat="45.7023083" lon="11.164115"><ele>918.0</ele><time>2026-04-07T12:10:20.925Z</time></trkpt><trkpt lat="45.7023917" lon="11.1641033"><ele>918.0</ele><time>2026-04-07T12:10:21.925Z</time></trkpt><trkpt lat="45.70249" lon="11.1641433"><ele>918.0</ele><time>2026-04-07T12:10:22.925Z</time></trkpt><trkpt lat="45.70259" lon="11.16422"><ele>918.0</ele><time>2026-04-07T12:10:23.924Z</time></trkpt><trkpt lat="45.7026717" lon="11.164295"><ele>919.3333333333334</ele><time>2026-04-07T12:10:24.924Z</time></trkpt><trkpt lat="45.70275" lon="11.16434"><ele>920.6666666666667</ele><time>2026-04-07T12:10:25.924Z</time></trkpt><trkpt lat="45.7028267" lon="11.1643533"><ele>922.0</ele><time>2026-04-07T12:10:26.925Z</time></trkpt><trkpt lat="45.702915" lon="11.1643267"><ele>923.3333333333334</ele><time>2026-04-07T12:10:27.924Z</time></trkpt><trkpt lat="45.702995" lon="11.1642683"><ele>924.6666666666667</ele><time>2026-04-07T12:10:28.925Z</time></trkpt><trkpt lat="45.7030633" lon="11.1641517"><ele>926.0</ele><time>2026-04-07T12:10:29.925Z</time></trkpt><trkpt lat="45.7030967" lon="11.1640067"><ele>929.0</ele><time>2026-04-07T12:10:30.925Z</time></trkpt><trkpt lat="45.7030933" lon="11.163865"><ele>932.0</ele><time>2026-04-07T12:10:31.925Z</time></trkpt><trkpt lat="45.70305" lon="11.1637217"><ele>935.0</ele><time>2026-04-07T12:10:32.924Z</time></trkpt><trkpt lat="45.7029583" lon="11.16359"><ele>938.0</ele><time>2026-04-07T12:10:33.925Z</time></trkpt><trkpt lat="45.702855" lon="11.163465"><ele>938.0</ele><time>2026-04-07T12:10:34.925Z</time></trkpt><trkpt lat="45.7027533" lon="11.1633533"><ele>938.0</ele><time>2026-04-07T12:10:35.925Z</time></trkpt><trkpt lat="45.702655" lon="11.1632517"><ele>938.0</ele><time>2026-04-07T12:10:36.925Z</time></trkpt><trkpt lat="45.7025617" lon="11.16315"><ele>938.0</ele><time>2026-04-07T12:10:37.925Z</time></trkpt><trkpt lat="45.70246" lon="11.1630533"><ele>938.75</ele><time>2026-04-07T12:10:38.925Z</time></trkpt><trkpt lat="45.7023517" lon="11.1629467"><ele>939.5</ele><time>2026-04-07T12:10:39.924Z</time></trkpt><trkpt lat="45.7022467" lon="11.162845"><ele>940.25</ele><time>2026-04-07T12:10:40.924Z</time></trkpt><trkpt lat="45.7021483" lon="11.1627433"><ele>941.0</ele><time>2026-04-07T12:10:41.925Z</time></trkpt><trkpt lat="45.7020617" lon="11.16264"><ele>941.0000000000001</ele><time>2026-04-07T12:10:42.924Z</time></trkpt><trkpt lat="45.702005" lon="11.162535"><ele>941.0</ele><time>2026-04-07T12:10:43.925Z</time></trkpt><trkpt lat="45.70197" lon="11.1624417"><ele>941.0</ele><time>2026-04-07T12:10:44.924Z</time></trkpt><trkpt lat="45.7019467" lon="11.1622933"><ele>941.0</ele><time>2026-04-07T12:10:46.925Z</time></trkpt><trkpt lat="45.7019733" lon="11.1622083"><ele>941.0000000000001</ele><time>2026-04-07T12:10:55.924Z</time></trkpt><trkpt lat="45.701935" lon="11.16232"><ele>941.0</ele><time>2026-04-07T12:12:45.924Z</time></trkpt><trkpt lat="45.701985" lon="11.1622617"><ele>940.9999999999999</ele><time>2026-04-07T12:12:54.924Z</time></trkpt><trkpt lat="45.7019217" lon="11.1622833"><ele>941.0</ele><time>2026-04-07T12:13:57.924Z</time></trkpt><trkpt lat="45.7019533" lon="11.1623833"><ele>940.9999999999999</ele><time>2026-04-07T12:14:00.923Z</time></trkpt><trkpt lat="45.7019833" lon="11.1623017"><ele>940.9999999999999</ele><time>2026-04-07T12:14:03.924Z</time></trkpt><trkpt lat="45.7019733" lon="11.162205"><ele>941.0</ele><time>2026-04-07T12:14:06.924Z</time></trkpt><trkpt lat="45.7019067" lon="11.1622167"><ele>940.9999999999999</ele><time>2026-04-07T12:14:10.923Z</time></trkpt><trkpt lat="45.7018567" lon="11.1622767"><ele>940.9999999999999</ele><time>2026-04-07T12:14:40.923Z</time></trkpt><trkpt lat="45.7017883" lon="11.1623"><ele>941.5999999999999</ele><time>2026-04-07T12:14:42.922Z</time></trkpt><trkpt lat="45.7017083" lon="11.1623717"><ele>942.1999999999999</ele><time>2026-04-07T12:14:51.922Z</time></trkpt><trkpt lat="45.7016017" lon="11.16244"><ele>942.8000000000001</ele><time>2026-04-07T12:14:53.923Z</time></trkpt><trkpt lat="45.7015217" lon="11.16246"><ele>943.4000000000001</ele><time>2026-04-07T12:14:55.922Z</time></trkpt><trkpt lat="45.7014467" lon="11.1624117"><ele>944.0</ele><time>2026-04-07T12:14:57.923Z</time></trkpt><trkpt lat="45.70134" lon="11.1623067"><ele>945.4285714285713</ele><time>2026-04-07T12:14:59.923Z</time></trkpt><trkpt lat="45.70129" lon="11.16224"><ele>946.8571428571429</ele><time>2026-04-07T12:15:00.923Z</time></trkpt><trkpt lat="45.7012317" lon="11.1621633"><ele>948.2857142857142</ele><time>2026-04-07T12:15:01.922Z</time></trkpt><trkpt lat="45.7011767" lon="11.1621"><ele>949.7142857142857</ele><time>2026-04-07T12:15:02.923Z</time></trkpt><trkpt lat="45.7011217" lon="11.1620517"><ele>951.1428571428571</ele><time>2026-04-07T12:15:03.922Z</time></trkpt><trkpt lat="45.7010617" lon="11.1620033"><ele>952.5714285714286</ele><time>2026-04-07T12:15:04.923Z</time></trkpt><trkpt lat="45.7010033" lon="11.1619417"><ele>954.0</ele><time>2026-04-07T12:15:05.923Z</time></trkpt><trkpt lat="45.70094" lon="11.161885"><ele>954.0</ele><time>2026-04-07T12:15:06.923Z</time></trkpt><trkpt lat="45.7008633" lon="11.1618283"><ele>954.0</ele><time>2026-04-07T12:15:07.923Z</time></trkpt><trkpt lat="45.7007867" lon="11.1617783"><ele>954.0</ele><time>2026-04-07T12:15:08.923Z</time></trkpt><trkpt lat="45.700715" lon="11.16174"><ele>954.0</ele><time>2026-04-07T12:15:09.923Z</time></trkpt><trkpt lat="45.7006533" lon="11.1616967"><ele>954.0</ele><time>2026-04-07T12:15:10.923Z</time></trkpt><trkpt lat="45.7005517" lon="11.16163"><ele>954.0</ele><time>2026-04-07T12:15:12.922Z</time></trkpt><trkpt lat="45.7004967" lon="11.1615367"><ele>955.6</ele><time>2026-04-07T12:15:14.923Z</time></trkpt><trkpt lat="45.7004533" lon="11.1614683"><ele>957.2</ele><time>2026-04-07T12:15:16.922Z</time></trkpt><trkpt lat="45.7003683" lon="11.161465"><ele>958.8000000000001</ele><time>2026-04-07T12:15:18.923Z</time></trkpt><trkpt lat="45.7002683" lon="11.16146"><ele>960.4000000000001</ele><time>2026-04-07T12:15:20.923Z</time></trkpt><trkpt lat="45.7001433" lon="11.1614317"><ele>962.0</ele><time>2026-04-07T12:15:22.922Z</time></trkpt><trkpt lat="45.7000283" lon="11.1614567"><ele>962.0000000000001</ele><time>2026-04-07T12:15:24.923Z</time></trkpt><trkpt lat="45.6999433" lon="11.1615033"><ele>962.0</ele><time>2026-04-07T12:15:26.923Z</time></trkpt><trkpt lat="45.6998983" lon="11.1615817"><ele>962.0</ele><time>2026-04-07T12:15:28.923Z</time></trkpt><trkpt lat="45.69983" lon="11.1615917"><ele>962.0</ele><time>2026-04-07T12:15:31.923Z</time></trkpt><trkpt lat="45.6998067" lon="11.1614883"><ele>962.0000000000001</ele><time>2026-04-07T12:15:33.923Z</time></trkpt><trkpt lat="45.6997783" lon="11.1613433"><ele>962.0</ele><time>2026-04-07T12:15:35.923Z</time></trkpt><trkpt lat="45.6997283" lon="11.161205"><ele>962.0</ele><time>2026-04-07T12:15:37.923Z</time></trkpt><trkpt lat="45.699695" lon="11.1611183"><ele>962.0</ele><time>2026-04-07T12:15:38.923Z</time></trkpt><trkpt lat="45.699665" lon="11.1610367"><ele>962.0</ele><time>2026-04-07T12:15:39.923Z</time></trkpt><trkpt lat="45.69963" lon="11.16095"><ele>962.0</ele><time>2026-04-07T12:15:40.922Z</time></trkpt><trkpt lat="45.6995783" lon="11.1608017"><ele>962.0</ele><time>2026-04-07T12:15:42.922Z</time></trkpt><trkpt lat="45.69955" lon="11.16061"><ele>964.6666666666667</ele><time>2026-04-07T12:15:44.923Z</time></trkpt><trkpt lat="45.69954" lon="11.1605133"><ele>967.3333333333334</ele><time>2026-04-07T12:15:45.923Z</time></trkpt><trkpt lat="45.699525" lon="11.160415"><ele>970.0</ele><time>2026-04-07T12:15:46.923Z</time></trkpt><trkpt lat="45.6995033" lon="11.16032"><ele>972.6666666666667</ele><time>2026-04-07T12:15:47.923Z</time></trkpt><trkpt lat="45.6994783" lon="11.160155"><ele>975.3333333333334</ele><time>2026-04-07T12:15:49.923Z</time></trkpt><trkpt lat="45.69944" lon="11.16002"><ele>978.0</ele><time>2026-04-07T12:15:51.922Z</time></trkpt><trkpt lat="45.6993833" lon="11.159895"><ele>981.0</ele><time>2026-04-07T12:15:53.922Z</time></trkpt><trkpt lat="45.699315" lon="11.1597533"><ele>984.0</ele><time>2026-04-07T12:15:55.923Z</time></trkpt><trkpt lat="45.6992483" lon="11.1595983"><ele>987.0</ele><time>2026-04-07T12:15:57.923Z</time></trkpt><trkpt lat="45.6992033" lon="11.159465"><ele>990.0</ele><time>2026-04-07T12:15:59.923Z</time></trkpt><trkpt lat="45.6991267" lon="11.1593683"><ele>990.0</ele><time>2026-04-07T12:16:01.923Z</time></trkpt><trkpt lat="45.69906" lon="11.1593717"><ele>990.0</ele><time>2026-04-07T12:16:03.923Z</time></trkpt><trkpt lat="45.699025" lon="11.1594933"><ele>990.0</ele><time>2026-04-07T12:16:05.923Z</time></trkpt><trkpt lat="45.6990167" lon="11.1596117"><ele>990.0</ele><time>2026-04-07T12:16:07.922Z</time></trkpt><trkpt lat="45.699045" lon="11.1596967"><ele>990.0</ele><time>2026-04-07T12:20:25.92Z</time></trkpt><trkpt lat="45.6990433" lon="11.1597967"><ele>990.0</ele><time>2026-04-07T12:20:29.921Z</time></trkpt><trkpt lat="45.6989883" lon="11.1598683"><ele>990.0</ele><time>2026-04-07T12:20:33.921Z</time></trkpt><trkpt lat="45.6989333" lon="11.1597867"><ele>990.0</ele><time>2026-04-07T12:20:36.921Z</time></trkpt><trkpt lat="45.6989183" lon="11.1596883"><ele>990.0</ele><time>2026-04-07T12:20:38.921Z</time></trkpt><trkpt lat="45.6989183" lon="11.159575"><ele>990.0</ele><time>2026-04-07T12:20:41.921Z</time></trkpt><trkpt lat="45.698925" lon="11.1594383"><ele>990.0</ele><time>2026-04-07T12:20:44.92Z</time></trkpt><trkpt lat="45.6989083" lon="11.1593233"><ele>990.0</ele><time>2026-04-07T12:20:46.921Z</time></trkpt><trkpt lat="45.6988883" lon="11.159185"><ele>990.0</ele><time>2026-04-07T12:20:49.921Z</time></trkpt><trkpt lat="45.69886" lon="11.15908"><ele>990.0</ele><time>2026-04-07T12:20:51.921Z</time></trkpt><trkpt lat="45.698825" lon="11.158975"><ele>990.0</ele><time>2026-04-07T12:20:53.921Z</time></trkpt><trkpt lat="45.6987867" lon="11.1589"><ele>990.0</ele><time>2026-04-07T12:20:55.921Z</time></trkpt><trkpt lat="45.698755" lon="11.1588133"><ele>990.0</ele><time>2026-04-07T12:20:57.92Z</time></trkpt><trkpt lat="45.69873" lon="11.1587083"><ele>990.0</ele><time>2026-04-07T12:20:59.921Z</time></trkpt><trkpt lat="45.69869" lon="11.1586067"><ele>992.6666666666666</ele><time>2026-04-07T12:21:01.921Z</time></trkpt><trkpt lat="45.6986283" lon="11.1585217"><ele>995.3333333333333</ele><time>2026-04-07T12:21:03.921Z</time></trkpt><trkpt lat="45.69857" lon="11.158445"><ele>998.0</ele><time>2026-04-07T12:21:05.92Z</time></trkpt><trkpt lat="45.698495" lon="11.15835"><ele>1000.6666666666666</ele><time>2026-04-07T12:21:07.921Z</time></trkpt><trkpt lat="45.6984283" lon="11.15829"><ele>1003.3333333333333</ele><time>2026-04-07T12:21:09.921Z</time></trkpt><trkpt lat="45.6983867" lon="11.158215"><ele>1006.0</ele><time>2026-04-07T12:21:11.92Z</time></trkpt><trkpt lat="45.6983867" lon="11.158105"><ele>1010.4999999999999</ele><time>2026-04-07T12:21:13.921Z</time></trkpt><trkpt lat="45.6983983" lon="11.1580117"><ele>1015.0</ele><time>2026-04-07T12:21:37.92Z</time></trkpt><trkpt lat="45.698385" lon="11.1578783"><ele>1019.5</ele><time>2026-04-07T12:21:38.921Z</time></trkpt><trkpt lat="45.6983533" lon="11.1577533"><ele>1024.0</ele><time>2026-04-07T12:22:46.921Z</time></trkpt><trkpt lat="45.6983233" lon="11.1576583"><ele>1028.5</ele><time>2026-04-07T12:23:04.919Z</time></trkpt><trkpt lat="45.6982883" lon="11.1575817"><ele>1033.0</ele><time>2026-04-07T12:23:06.92Z</time></trkpt><trkpt lat="45.6982517" lon="11.1575"><ele>1033.0</ele><time>2026-04-07T12:23:10.919Z</time></trkpt><trkpt lat="45.6983217" lon="11.157505"><ele>1033.0</ele><time>2026-04-07T12:23:14.92Z</time></trkpt><trkpt lat="45.6983917" lon="11.1574417"><ele>1033.0</ele><time>2026-04-07T12:23:18.92Z</time></trkpt><trkpt lat="45.6984417" lon="11.1573"><ele>1033.0</ele><time>2026-04-07T12:24:14.92Z</time></trkpt><trkpt lat="45.6983783" lon="11.1573167"><ele>1033.0</ele><time>2026-04-07T12:24:16.92Z</time></trkpt><trkpt lat="45.6982983" lon="11.1573133"><ele>1033.0</ele><time>2026-04-07T12:24:18.92Z</time></trkpt><trkpt lat="45.6981883" lon="11.1572683"><ele>1039.2</ele><time>2026-04-07T12:24:20.919Z</time></trkpt><trkpt lat="45.69809" lon="11.1572483"><ele>1045.4</ele><time>2026-04-07T12:24:22.92Z</time></trkpt><trkpt lat="45.6980183" lon="11.1571633"><ele>1051.6000000000001</ele><time>2026-04-07T12:24:25.92Z</time></trkpt><trkpt lat="45.6979483" lon="11.1570567"><ele>1057.8</ele><time>2026-04-07T12:24:27.92Z</time></trkpt><trkpt lat="45.6978783" lon="11.1570067"><ele>1064.0</ele><time>2026-04-07T12:24:29.919Z</time></trkpt><trkpt lat="45.697765" lon="11.1570217"><ele>1065.8333333333335</ele><time>2026-04-07T12:24:31.919Z</time></trkpt><trkpt lat="45.6977" lon="11.1570567"><ele>1067.6666666666667</ele><time>2026-04-07T12:24:32.92Z</time></trkpt><trkpt lat="45.6976433" lon="11.1570967"><ele>1069.5</ele><time>2026-04-07T12:24:33.919Z</time></trkpt><trkpt lat="45.69757" lon="11.157165"><ele>1071.3333333333333</ele><time>2026-04-07T12:24:35.92Z</time></trkpt><trkpt lat="45.6975033" lon="11.1572233"><ele>1073.1666666666665</ele><time>2026-04-07T12:24:37.919Z</time></trkpt><trkpt lat="45.6974" lon="11.1572133"><ele>1075.0</ele><time>2026-04-07T12:24:40.919Z</time></trkpt><trkpt lat="45.6973067" lon="11.157185"><ele>1075.0</ele><time>2026-04-07T12:24:42.92Z</time></trkpt><trkpt lat="45.697245" lon="11.1571633"><ele>1075.0</ele><time>2026-04-07T12:24:43.92Z</time></trkpt><trkpt lat="45.6971317" lon="11.1571283"><ele>1075.0</ele><time>2026-04-07T12:24:45.92Z</time></trkpt><trkpt lat="45.69705" lon="11.157085"><ele>1075.0</ele><time>2026-04-07T12:24:47.92Z</time></trkpt><trkpt lat="45.6969317" lon="11.1570583"><ele>1075.0</ele><time>2026-04-07T12:24:49.92Z</time></trkpt><trkpt lat="45.6968233" lon="11.157035"><ele>1078.3333333333333</ele><time>2026-04-07T12:24:51.92Z</time></trkpt><trkpt lat="45.6967267" lon="11.1570017"><ele>1081.6666666666665</ele><time>2026-04-07T12:24:53.919Z</time></trkpt><trkpt lat="45.6966233" lon="11.1569767"><ele>1085.0</ele><time>2026-04-07T12:24:55.919Z</time></trkpt><trkpt lat="45.6965217" lon="11.1569583"><ele>1088.3333333333333</ele><time>2026-04-07T12:24:57.92Z</time></trkpt><trkpt lat="45.6964533" lon="11.1569833"><ele>1091.6666666666667</ele><time>2026-04-07T12:24:59.92Z</time></trkpt><trkpt lat="45.6964133" lon="11.1570533"><ele>1095.0</ele><time>2026-04-07T12:25:01.92Z</time></trkpt><trkpt lat="45.69642" lon="11.1571467"><ele>1095.0</ele><time>2026-04-07T12:25:03.92Z</time></trkpt><trkpt lat="45.6964783" lon="11.1572283"><ele>1095.0</ele><time>2026-04-07T12:25:05.92Z</time></trkpt><trkpt lat="45.69658" lon="11.1573117"><ele>1095.0</ele><time>2026-04-07T12:25:07.919Z</time></trkpt><trkpt lat="45.6966817" lon="11.1573817"><ele>1095.0</ele><time>2026-04-07T12:25:09.92Z</time></trkpt><trkpt lat="45.69675" lon="11.157455"><ele>1095.0</ele><time>2026-04-07T12:25:11.919Z</time></trkpt><trkpt lat="45.6967817" lon="11.1576"><ele>1093.6</ele><time>2026-04-07T12:25:13.92Z</time></trkpt><trkpt lat="45.6968033" lon="11.1577733"><ele>1092.2</ele><time>2026-04-07T12:25:15.92Z</time></trkpt><trkpt lat="45.696855" lon="11.1578983"><ele>1090.8</ele><time>2026-04-07T12:25:17.92Z</time></trkpt><trkpt lat="45.6969317" lon="11.157975"><ele>1089.4</ele><time>2026-04-07T12:25:19.92Z</time></trkpt><trkpt lat="45.6969933" lon="11.158045"><ele>1088.0</ele><time>2026-04-07T12:25:21.92Z</time></trkpt><trkpt lat="45.6970633" lon="11.1581483"><ele>1090.4</ele><time>2026-04-07T12:25:23.92Z</time></trkpt><trkpt lat="45.69708" lon="11.1582633"><ele>1092.8</ele><time>2026-04-07T12:25:25.919Z</time></trkpt><trkpt lat="45.6970533" lon="11.1583967"><ele>1095.2</ele><time>2026-04-07T12:25:27.92Z</time></trkpt><trkpt lat="45.6970133" lon="11.1585583"><ele>1097.6</ele><time>2026-04-07T12:25:29.92Z</time></trkpt><trkpt lat="45.6969717" lon="11.1586633"><ele>1100.0</ele><time>2026-04-07T12:25:31.92Z</time></trkpt><trkpt lat="45.6969" lon="11.1587"><ele>1100.0</ele><time>2026-04-07T12:25:33.92Z</time></trkpt><trkpt lat="45.696825" lon="11.1586983"><ele>1100.0</ele><time>2026-04-07T12:25:35.919Z</time></trkpt><trkpt lat="45.69677" lon="11.1586483"><ele>1100.0</ele><time>2026-04-07T12:25:37.919Z</time></trkpt><trkpt lat="45.6967033" lon="11.1585833"><ele>1100.0</ele><time>2026-04-07T12:25:39.92Z</time></trkpt><trkpt lat="45.6966217" lon="11.1585167"><ele>1100.0</ele><time>2026-04-07T12:25:41.92Z</time></trkpt><trkpt lat="45.6965433" lon="11.1585017"><ele>1100.0</ele><time>2026-04-07T12:25:43.92Z</time></trkpt><trkpt lat="45.6964783" lon="11.15846"><ele>1100.0</ele><time>2026-04-07T12:25:45.919Z</time></trkpt><trkpt lat="45.6964267" lon="11.1584083"><ele>1100.0</ele><time>2026-04-07T12:25:47.919Z</time></trkpt><trkpt lat="45.696355" lon="11.1584133"><ele>1100.0</ele><time>2026-04-07T12:25:49.918Z</time></trkpt><trkpt lat="45.696265" lon="11.1584767"><ele>1100.0</ele><time>2026-04-07T12:25:51.919Z</time></trkpt><trkpt lat="45.6962117" lon="11.158525"><ele>1100.0</ele><time>2026-04-07T12:25:52.918Z</time></trkpt><trkpt lat="45.6961117" lon="11.158595"><ele>1100.0</ele><time>2026-04-07T12:25:54.919Z</time></trkpt><trkpt lat="45.69606" lon="11.1586883"><ele>1100.0</ele><time>2026-04-07T12:25:56.918Z</time></trkpt><trkpt lat="45.6960667" lon="11.1588"><ele>1100.0</ele><time>2026-04-07T12:25:58.918Z</time></trkpt><trkpt lat="45.6961267" lon="11.1588783"><ele>1100.0</ele><time>2026-04-07T12:26:00.919Z</time></trkpt><trkpt lat="45.6962117" lon="11.158925"><ele>1100.0</ele><time>2026-04-07T12:26:02.919Z</time></trkpt><trkpt lat="45.6963233" lon="11.1590017"><ele>1100.0</ele><time>2026-04-07T12:26:04.919Z</time></trkpt><trkpt lat="45.6964233" lon="11.1590367"><ele>1101.5</ele><time>2026-04-07T12:26:06.918Z</time></trkpt><trkpt lat="45.6964883" lon="11.159105"><ele>1103.0</ele><time>2026-04-07T12:26:08.918Z</time></trkpt><trkpt lat="45.6965167" lon="11.1592233"><ele>1104.5</ele><time>2026-04-07T12:26:10.919Z</time></trkpt><trkpt lat="45.6965033" lon="11.1593117"><ele>1106.0</ele><time>2026-04-07T12:26:12.919Z</time></trkpt><trkpt lat="45.6964633" lon="11.159435"><ele>1107.5</ele><time>2026-04-07T12:26:14.919Z</time></trkpt><trkpt lat="45.6964367" lon="11.1595267"><ele>1109.0</ele><time>2026-04-07T12:26:15.918Z</time></trkpt><trkpt lat="45.6964017" lon="11.1596233"><ele>1109.0</ele><time>2026-04-07T12:26:16.918Z</time></trkpt><trkpt lat="45.6963617" lon="11.159705"><ele>1109.0</ele><time>2026-04-07T12:26:17.919Z</time></trkpt><trkpt lat="45.6962883" lon="11.15983"><ele>1109.0</ele><time>2026-04-07T12:26:19.919Z</time></trkpt><trkpt lat="45.69623" lon="11.1599183"><ele>1109.0</ele><time>2026-04-07T12:26:21.919Z</time></trkpt><trkpt lat="45.6962" lon="11.1600017"><ele>1109.0</ele><time>2026-04-07T12:26:23.918Z</time></trkpt><trkpt lat="45.6961767" lon="11.1601283"><ele>1109.0</ele><time>2026-04-07T12:26:25.918Z</time></trkpt><trkpt lat="45.696175" lon="11.16023"><ele>1110.0</ele><time>2026-04-07T12:26:27.919Z</time></trkpt><trkpt lat="45.6961767" lon="11.1603383"><ele>1111.0</ele><time>2026-04-07T12:26:29.919Z</time></trkpt><trkpt lat="45.69615" lon="11.1604283"><ele>1112.0</ele><time>2026-04-07T12:26:31.918Z</time></trkpt><trkpt lat="45.6960683" lon="11.1605"><ele>1113.0</ele><time>2026-04-07T12:26:33.919Z</time></trkpt><trkpt lat="45.69596" lon="11.1605683"><ele>1114.0</ele><time>2026-04-07T12:26:35.919Z</time></trkpt><trkpt lat="45.695865" lon="11.160645"><ele>1117.0</ele><time>2026-04-07T12:26:37.918Z</time></trkpt><trkpt lat="45.6957933" lon="11.160725"><ele>1120.0</ele><time>2026-04-07T12:26:39.919Z</time></trkpt><trkpt lat="45.6958133" lon="11.160825"><ele>1123.0</ele><time>2026-04-07T12:26:42.918Z</time></trkpt><trkpt lat="45.6958883" lon="11.16082"><ele>1126.0</ele><time>2026-04-07T12:26:44.919Z</time></trkpt><trkpt lat="45.69597" lon="11.1607983"><ele>1129.0</ele><time>2026-04-07T12:26:46.919Z</time></trkpt><trkpt lat="45.696005" lon="11.1609017"><ele>1132.0</ele><time>2026-04-07T12:26:49.919Z</time></trkpt><trkpt lat="45.6959683" lon="11.1610117"><ele>1132.0</ele><time>2026-04-07T12:26:51.919Z</time></trkpt><trkpt lat="45.695925" lon="11.1611583"><ele>1132.0</ele><time>2026-04-07T12:26:53.919Z</time></trkpt><trkpt lat="45.6959167" lon="11.1613083"><ele>1132.0</ele><time>2026-04-07T12:26:55.918Z</time></trkpt><trkpt lat="45.6959667" lon="11.161395"><ele>1132.0</ele><time>2026-04-07T12:26:57.919Z</time></trkpt><trkpt lat="45.696055" lon="11.1614367"><ele>1132.0</ele><time>2026-04-07T12:26:59.918Z</time></trkpt><trkpt lat="45.6961333" lon="11.1615183"><ele>1134.4</ele><time>2026-04-07T12:27:01.918Z</time></trkpt><trkpt lat="45.696205" lon="11.1616033"><ele>1136.8000000000002</ele><time>2026-04-07T12:27:03.919Z</time></trkpt><trkpt lat="45.6963083" lon="11.1616467"><ele>1139.2</ele><time>2026-04-07T12:27:05.918Z</time></trkpt><trkpt lat="45.6964267" lon="11.1616367"><ele>1141.6000000000001</ele><time>2026-04-07T12:27:07.918Z</time></trkpt><trkpt lat="45.6965433" lon="11.1616083"><ele>1144.0</ele><time>2026-04-07T12:27:09.918Z</time></trkpt><trkpt lat="45.69664" lon="11.1616033"><ele>1144.0</ele><time>2026-04-07T12:27:11.919Z</time></trkpt><trkpt lat="45.6966983" lon="11.1616633"><ele>1144.0</ele><time>2026-04-07T12:27:13.919Z</time></trkpt><trkpt lat="45.6966367" lon="11.1617717"><ele>1144.0</ele><time>2026-04-07T12:27:16.918Z</time></trkpt><trkpt lat="45.6965733" lon="11.1618733"><ele>1144.0</ele><time>2026-04-07T12:27:18.919Z</time></trkpt><trkpt lat="45.696515" lon="11.1619783"><ele>1144.0</ele><time>2026-04-07T12:27:20.919Z</time></trkpt><trkpt lat="45.6964383" lon="11.162095"><ele>1144.0</ele><time>2026-04-07T12:27:22.919Z</time></trkpt><trkpt lat="45.6963783" lon="11.1622167"><ele>1144.0</ele><time>2026-04-07T12:27:24.918Z</time></trkpt><trkpt lat="45.6963433" lon="11.162335"><ele>1144.0</ele><time>2026-04-07T12:27:26.918Z</time></trkpt><trkpt lat="45.696335" lon="11.1624567"><ele>1144.0</ele><time>2026-04-07T12:27:28.918Z</time></trkpt><trkpt lat="45.6962983" lon="11.1625583"><ele>1144.0</ele><time>2026-04-07T12:27:31.919Z</time></trkpt><trkpt lat="45.6962283" lon="11.1625867"><ele>1144.0</ele><time>2026-04-07T12:27:33.918Z</time></trkpt><trkpt lat="45.6961633" lon="11.16262"><ele>1144.0</ele><time>2026-04-07T12:27:34.918Z</time></trkpt><trkpt lat="45.696105" lon="11.162655"><ele>1144.0</ele><time>2026-04-07T12:27:35.919Z</time></trkpt><trkpt lat="45.69601" lon="11.162695"><ele>1144.0</ele><time>2026-04-07T12:27:37.919Z</time></trkpt><trkpt lat="45.6959" lon="11.162675"><ele>1144.0</ele><time>2026-04-07T12:27:39.918Z</time></trkpt><trkpt lat="45.6957933" lon="11.1626883"><ele>1144.0</ele><time>2026-04-07T12:27:41.919Z</time></trkpt><trkpt lat="45.6957317" lon="11.162715"><ele>1144.0</ele><time>2026-04-07T12:27:42.918Z</time></trkpt><trkpt lat="45.6956433" lon="11.1627533"><ele>1145.4</ele><time>2026-04-07T12:27:44.918Z</time></trkpt><trkpt lat="45.6955267" lon="11.16275"><ele>1146.8000000000002</ele><time>2026-04-07T12:27:46.918Z</time></trkpt><trkpt lat="45.6954633" lon="11.1627417"><ele>1148.1999999999998</ele><time>2026-04-07T12:27:47.919Z</time></trkpt><trkpt lat="45.6953633" lon="11.16276"><ele>1149.6</ele><time>2026-04-07T12:27:49.919Z</time></trkpt><trkpt lat="45.6952817" lon="11.1628267"><ele>1151.0</ele><time>2026-04-07T12:27:51.919Z</time></trkpt><trkpt lat="45.6952217" lon="11.1629217"><ele>1152.6</ele><time>2026-04-07T12:27:53.919Z</time></trkpt><trkpt lat="45.695165" lon="11.1630417"><ele>1154.1999999999998</ele><time>2026-04-07T12:27:55.918Z</time></trkpt><trkpt lat="45.6951033" lon="11.1631467"><ele>1155.8000000000002</ele><time>2026-04-07T12:27:57.918Z</time></trkpt><trkpt lat="45.69505" lon="11.16328"><ele>1157.4</ele><time>2026-04-07T12:27:59.919Z</time></trkpt><trkpt lat="45.6950283" lon="11.1633933"><ele>1159.0</ele><time>2026-04-07T12:28:01.919Z</time></trkpt><trkpt lat="45.6949933" lon="11.16352"><ele>1159.0</ele><time>2026-04-07T12:28:03.919Z</time></trkpt><trkpt lat="45.6949417" lon="11.1636483"><ele>1159.0</ele><time>2026-04-07T12:28:05.918Z</time></trkpt><trkpt lat="45.69488" lon="11.1637817"><ele>1159.0</ele><time>2026-04-07T12:28:07.919Z</time></trkpt><trkpt lat="45.694865" lon="11.16394"><ele>1159.0</ele><time>2026-04-07T12:28:09.919Z</time></trkpt><trkpt lat="45.6948717" lon="11.16407"><ele>1159.0</ele><time>2026-04-07T12:28:11.918Z</time></trkpt><trkpt lat="45.694835" lon="11.1641617"><ele>1158.0</ele><time>2026-04-07T12:28:13.918Z</time></trkpt><trkpt lat="45.6947933" lon="11.1642633"><ele>1157.0</ele><time>2026-04-07T12:28:15.918Z</time></trkpt><trkpt lat="45.694805" lon="11.1643617"><ele>1156.0</ele><time>2026-04-07T12:28:17.918Z</time></trkpt><trkpt lat="45.694855" lon="11.16447"><ele>1155.0</ele><time>2026-04-07T12:28:19.919Z</time></trkpt><trkpt lat="45.694895" lon="11.1645767"><ele>1154.0</ele><time>2026-04-07T12:28:21.919Z</time></trkpt><trkpt lat="45.6949333" lon="11.1646983"><ele>1153.0</ele><time>2026-04-07T12:28:23.919Z</time></trkpt><trkpt lat="45.694985" lon="11.164815"><ele>1154.0</ele><time>2026-04-07T12:28:25.918Z</time></trkpt><trkpt lat="45.6949817" lon="11.1649383"><ele>1155.0</ele><time>2026-04-07T12:28:28.919Z</time></trkpt><trkpt lat="45.6949333" lon="11.1650167"><ele>1156.0</ele><time>2026-04-07T12:28:30.918Z</time></trkpt><trkpt lat="45.6948433" lon="11.1650917"><ele>1157.0</ele><time>2026-04-07T12:28:32.919Z</time></trkpt><trkpt lat="45.6947433" lon="11.1651767"><ele>1158.0</ele><time>2026-04-07T12:28:34.919Z</time></trkpt><trkpt lat="45.6946967" lon="11.1652883"><ele>1158.0</ele><time>2026-04-07T12:28:36.918Z</time></trkpt><trkpt lat="45.6946883" lon="11.1653883"><ele>1158.0</ele><time>2026-04-07T12:28:38.917Z</time></trkpt><trkpt lat="45.6946733" lon="11.1654767"><ele>1158.0</ele><time>2026-04-07T12:28:40.918Z</time></trkpt><trkpt lat="45.694645" lon="11.1656217"><ele>1158.0</ele><time>2026-04-07T12:28:43.918Z</time></trkpt><trkpt lat="45.6946117" lon="11.1657383"><ele>1158.0</ele><time>2026-04-07T12:28:45.918Z</time></trkpt><trkpt lat="45.6945967" lon="11.1658467"><ele>1158.0</ele><time>2026-04-07T12:28:47.918Z</time></trkpt><trkpt lat="45.6945733" lon="11.1659383"><ele>1158.0</ele><time>2026-04-07T12:28:49.918Z</time></trkpt><trkpt lat="45.6945433" lon="11.1660217"><ele>1158.0</ele><time>2026-04-07T12:28:51.918Z</time></trkpt><trkpt lat="45.6944883" lon="11.166125"><ele>1158.0</ele><time>2026-04-07T12:28:53.918Z</time></trkpt><trkpt lat="45.69445" lon="11.166225"><ele>1158.0</ele><time>2026-04-07T12:28:55.917Z</time></trkpt><trkpt lat="45.6944167" lon="11.1663067"><ele>1158.0</ele><time>2026-04-07T12:28:57.918Z</time></trkpt><trkpt lat="45.6943733" lon="11.1663967"><ele>1158.0</ele><time>2026-04-07T12:28:59.918Z</time></trkpt><trkpt lat="45.6943083" lon="11.1664767"><ele>1159.9999999999998</ele><time>2026-04-07T12:29:01.918Z</time></trkpt><trkpt lat="45.69426" lon="11.1665683"><ele>1162.0</ele><time>2026-04-07T12:29:03.918Z</time></trkpt><trkpt lat="45.69422" lon="11.166665"><ele>1164.0</ele><time>2026-04-07T12:29:05.917Z</time></trkpt><trkpt lat="45.69418" lon="11.1667517"><ele>1166.0</ele><time>2026-04-07T12:29:07.918Z</time></trkpt><trkpt lat="45.69416" lon="11.16684"><ele>1168.0</ele><time>2026-04-07T12:29:09.918Z</time></trkpt><trkpt lat="45.6941617" lon="11.1669333"><ele>1169.9999999999998</ele><time>2026-04-07T12:29:11.917Z</time></trkpt><trkpt lat="45.694185" lon="11.167035"><ele>1172.0</ele><time>2026-04-07T12:29:13.918Z</time></trkpt><trkpt lat="45.6941717" lon="11.1671783"><ele>1172.0</ele><time>2026-04-07T12:35:26.917Z</time></trkpt><trkpt lat="45.6941783" lon="11.1673517"><ele>1172.0</ele><time>2026-04-07T12:35:28.916Z</time></trkpt><trkpt lat="45.6941867" lon="11.1674467"><ele>1172.0</ele><time>2026-04-07T12:35:29.917Z</time></trkpt><trkpt lat="45.6941883" lon="11.16759"><ele>1172.0</ele><time>2026-04-07T12:35:31.917Z</time></trkpt><trkpt lat="45.6941617" lon="11.1676717"><ele>1172.0</ele><time>2026-04-07T12:35:33.916Z</time></trkpt><trkpt lat="45.6941433" lon="11.1677783"><ele>1172.0</ele><time>2026-04-07T12:35:35.917Z</time></trkpt><trkpt lat="45.6941417" lon="11.1679283"><ele>1173.0</ele><time>2026-04-07T12:35:37.916Z</time></trkpt><trkpt lat="45.694105" lon="11.1680283"><ele>1174.0</ele><time>2026-04-07T12:35:39.917Z</time></trkpt><trkpt lat="45.6940367" lon="11.1681417"><ele>1175.0</ele><time>2026-04-07T12:35:41.916Z</time></trkpt><trkpt lat="45.693955" lon="11.1682167"><ele>1176.0</ele><time>2026-04-07T12:35:43.916Z</time></trkpt><trkpt lat="45.69388" lon="11.1682217"><ele>1177.0</ele><time>2026-04-07T12:35:45.916Z</time></trkpt><trkpt lat="45.6938117" lon="11.1681867"><ele>1178.0</ele><time>2026-04-07T12:35:47.916Z</time></trkpt><trkpt lat="45.6937383" lon="11.1681733"><ele>1179.6</ele><time>2026-04-07T12:35:49.917Z</time></trkpt><trkpt lat="45.6936883" lon="11.1682317"><ele>1181.1999999999998</ele><time>2026-04-07T12:35:51.917Z</time></trkpt><trkpt lat="45.6936783" lon="11.168355"><ele>1182.8</ele><time>2026-04-07T12:35:53.916Z</time></trkpt><trkpt lat="45.6936417" lon="11.1684883"><ele>1184.3999999999999</ele><time>2026-04-07T12:35:55.917Z</time></trkpt><trkpt lat="45.6935533" lon="11.1686267"><ele>1186.0</ele><time>2026-04-07T12:35:57.916Z</time></trkpt><trkpt lat="45.6935017" lon="11.1687"><ele>1182.8</ele><time>2026-04-07T12:35:58.917Z</time></trkpt><trkpt lat="45.69344" lon="11.1688433"><ele>1179.6</ele><time>2026-04-07T12:36:00.916Z</time></trkpt><trkpt lat="45.69342" lon="11.169"><ele>1176.4</ele><time>2026-04-07T12:36:02.917Z</time></trkpt><trkpt lat="45.693385" lon="11.1691433"><ele>1173.2</ele><time>2026-04-07T12:36:04.916Z</time></trkpt><trkpt lat="45.6933217" lon="11.1692633"><ele>1170.0</ele><time>2026-04-07T12:36:06.915Z</time></trkpt><trkpt lat="45.69326" lon="11.16938"><ele>1170.0</ele><time>2026-04-07T12:36:08.916Z</time></trkpt><trkpt lat="45.6932183" lon="11.1695083"><ele>1170.0</ele><time>2026-04-07T12:36:10.916Z</time></trkpt><trkpt lat="45.69318" lon="11.1696617"><ele>1170.0</ele><time>2026-04-07T12:36:12.915Z</time></trkpt><trkpt lat="45.69315" lon="11.1697433"><ele>1170.0</ele><time>2026-04-07T12:36:13.915Z</time></trkpt><trkpt lat="45.6931167" lon="11.1698417"><ele>1170.0</ele><time>2026-04-07T12:36:14.916Z</time></trkpt><trkpt lat="45.6930817" lon="11.1699417"><ele>1170.0</ele><time>2026-04-07T12:36:15.916Z</time></trkpt><trkpt lat="45.6930467" lon="11.1700883"><ele>1171.2</ele><time>2026-04-07T12:36:17.915Z</time></trkpt><trkpt lat="45.692995" lon="11.1701733"><ele>1172.4</ele><time>2026-04-07T12:36:19.916Z</time></trkpt><trkpt lat="45.6929317" lon="11.1702433"><ele>1173.6</ele><time>2026-04-07T12:36:21.916Z</time></trkpt><trkpt lat="45.6928517" lon="11.1703233"><ele>1174.8</ele><time>2026-04-07T12:36:23.915Z</time></trkpt><trkpt lat="45.69275" lon="11.1704"><ele>1176.0</ele><time>2026-04-07T12:36:25.916Z</time></trkpt><trkpt lat="45.6926567" lon="11.1704683"><ele>1172.8</ele><time>2026-04-07T12:36:27.916Z</time></trkpt><trkpt lat="45.69255" lon="11.17051"><ele>1169.6</ele><time>2026-04-07T12:36:29.916Z</time></trkpt><trkpt lat="45.692455" lon="11.17052"><ele>1166.4</ele><time>2026-04-07T12:36:31.915Z</time></trkpt><trkpt lat="45.6923617" lon="11.170555"><ele>1163.2</ele><time>2026-04-07T12:36:33.916Z</time></trkpt><trkpt lat="45.6922717" lon="11.1706283"><ele>1160.0</ele><time>2026-04-07T12:36:35.916Z</time></trkpt><trkpt lat="45.6922117" lon="11.1707133"><ele>1157.8333333333335</ele><time>2026-04-07T12:36:37.916Z</time></trkpt><trkpt lat="45.6922167" lon="11.1708117"><ele>1155.6666666666667</ele><time>2026-04-07T12:36:39.916Z</time></trkpt><trkpt lat="45.6922883" lon="11.170875"><ele>1153.5</ele><time>2026-04-07T12:36:41.915Z</time></trkpt><trkpt lat="45.6923933" lon="11.170925"><ele>1151.3333333333333</ele><time>2026-04-07T12:36:43.915Z</time></trkpt><trkpt lat="45.6924533" lon="11.1709733"><ele>1149.1666666666665</ele><time>2026-04-07T12:36:44.915Z</time></trkpt><trkpt lat="45.6925083" lon="11.1710267"><ele>1147.0</ele><time>2026-04-07T12:36:45.916Z</time></trkpt><trkpt lat="45.692565" lon="11.1711433"><ele>1147.0</ele><time>2026-04-07T12:36:47.916Z</time></trkpt><trkpt lat="45.692545" lon="11.17124"><ele>1147.0</ele><time>2026-04-07T12:36:49.915Z</time></trkpt><trkpt lat="45.69246" lon="11.171325"><ele>1147.0</ele><time>2026-04-07T12:36:51.916Z</time></trkpt><trkpt lat="45.6923417" lon="11.1713967"><ele>1147.0</ele><time>2026-04-07T12:36:53.915Z</time></trkpt><trkpt lat="45.692275" lon="11.1714267"><ele>1147.0</ele><time>2026-04-07T12:36:54.915Z</time></trkpt><trkpt lat="45.6922017" lon="11.1714467"><ele>1147.0</ele><time>2026-04-07T12:36:55.916Z</time></trkpt><trkpt lat="45.6921383" lon="11.171465"><ele>1147.0</ele><time>2026-04-07T12:36:56.916Z</time></trkpt><trkpt lat="45.6920433" lon="11.1714433"><ele>1147.0</ele><time>2026-04-07T12:36:58.916Z</time></trkpt><trkpt lat="45.6919833" lon="11.1713617"><ele>1147.0</ele><time>2026-04-07T12:37:00.916Z</time></trkpt><trkpt lat="45.6919317" lon="11.1712483"><ele>1147.0</ele><time>2026-04-07T12:37:02.915Z</time></trkpt><trkpt lat="45.69186" lon="11.1711883"><ele>1147.0</ele><time>2026-04-07T12:37:04.916Z</time></trkpt><trkpt lat="45.6917867" lon="11.1712433"><ele>1147.0</ele><time>2026-04-07T12:37:06.916Z</time></trkpt><trkpt lat="45.6917233" lon="11.1714"><ele>1145.2</ele><time>2026-04-07T12:37:08.916Z</time></trkpt><trkpt lat="45.69169" lon="11.17148"><ele>1143.4</ele><time>2026-04-07T12:37:09.916Z</time></trkpt><trkpt lat="45.6916283" lon="11.1715867"><ele>1141.6</ele><time>2026-04-07T12:37:10.916Z</time></trkpt><trkpt lat="45.6915617" lon="11.1716917"><ele>1139.8</ele><time>2026-04-07T12:37:11.915Z</time></trkpt><trkpt lat="45.6914933" lon="11.1717967"><ele>1138.0</ele><time>2026-04-07T12:37:12.916Z</time></trkpt><trkpt lat="45.69141" lon="11.1718833"><ele>1136.0</ele><time>2026-04-07T12:37:13.915Z</time></trkpt><trkpt lat="45.6913167" lon="11.1719567"><ele>1134.0</ele><time>2026-04-07T12:37:14.915Z</time></trkpt><trkpt lat="45.6912233" lon="11.1720233"><ele>1132.0</ele><time>2026-04-07T12:37:15.916Z</time></trkpt><trkpt lat="45.6911517" lon="11.17209"><ele>1130.0</ele><time>2026-04-07T12:37:16.916Z</time></trkpt><trkpt lat="45.6910967" lon="11.172145"><ele>1128.0</ele><time>2026-04-07T12:37:17.916Z</time></trkpt><trkpt lat="45.6910417" lon="11.1721917"><ele>1126.0</ele><time>2026-04-07T12:37:18.915Z</time></trkpt><trkpt lat="45.6909883" lon="11.1722433"><ele>1126.0</ele><time>2026-04-07T12:37:19.916Z</time></trkpt><trkpt lat="45.6909317" lon="11.1722967"><ele>1126.0</ele><time>2026-04-07T12:37:20.916Z</time></trkpt><trkpt lat="45.6908367" lon="11.1723767"><ele>1126.0</ele><time>2026-04-07T12:37:22.916Z</time></trkpt><trkpt lat="45.6907483" lon="11.1724117"><ele>1126.0</ele><time>2026-04-07T12:37:24.915Z</time></trkpt><trkpt lat="45.6906483" lon="11.1723617"><ele>1126.0</ele><time>2026-04-07T12:37:26.916Z</time></trkpt><trkpt lat="45.6905917" lon="11.1723083"><ele>1126.0</ele><time>2026-04-07T12:37:27.916Z</time></trkpt><trkpt lat="45.690495" lon="11.1722117"><ele>1126.0</ele><time>2026-04-07T12:37:29.916Z</time></trkpt><trkpt lat="45.6903817" lon="11.1722167"><ele>1126.0</ele><time>2026-04-07T12:37:31.916Z</time></trkpt><trkpt lat="45.6903183" lon="11.1722533"><ele>1126.0</ele><time>2026-04-07T12:37:32.916Z</time></trkpt><trkpt lat="45.6902417" lon="11.1723"><ele>1126.0</ele><time>2026-04-07T12:37:33.916Z</time></trkpt><trkpt lat="45.6901683" lon="11.1723667"><ele>1126.0</ele><time>2026-04-07T12:37:34.915Z</time></trkpt><trkpt lat="45.6901017" lon="11.172405"><ele>1126.0</ele><time>2026-04-07T12:37:35.916Z</time></trkpt><trkpt lat="45.69004" lon="11.1724367"><ele>1125.0</ele><time>2026-04-07T12:37:36.916Z</time></trkpt><trkpt lat="45.6899567" lon="11.1724633"><ele>1124.0</ele><time>2026-04-07T12:37:38.916Z</time></trkpt><trkpt lat="45.6898883" lon="11.1724767"><ele>1123.0</ele><time>2026-04-07T12:37:46.915Z</time></trkpt><trkpt lat="45.689785" lon="11.17247"><ele>1122.0</ele><time>2026-04-07T12:37:48.916Z</time></trkpt><trkpt lat="45.6897217" lon="11.1724583"><ele>1121.0</ele><time>2026-04-07T12:37:49.916Z</time></trkpt><trkpt lat="45.6896433" lon="11.1724367"><ele>1120.0</ele><time>2026-04-07T12:37:50.916Z</time></trkpt><trkpt lat="45.6895217" lon="11.1724"><ele>1119.1666666666665</ele><time>2026-04-07T12:37:52.916Z</time></trkpt><trkpt lat="45.6894217" lon="11.1724383"><ele>1118.3333333333333</ele><time>2026-04-07T12:37:54.916Z</time></trkpt><trkpt lat="45.689375" lon="11.1725017"><ele>1117.5</ele><time>2026-04-07T12:37:55.916Z</time></trkpt><trkpt lat="45.68933" lon="11.1725717"><ele>1116.6666666666667</ele><time>2026-04-07T12:37:56.915Z</time></trkpt><trkpt lat="45.689275" lon="11.1726317"><ele>1115.8333333333335</ele><time>2026-04-07T12:37:57.916Z</time></trkpt><trkpt lat="45.6891617" lon="11.172705"><ele>1115.0</ele><time>2026-04-07T12:37:59.916Z</time></trkpt><trkpt lat="45.6890983" lon="11.1727317"><ele>1115.0</ele><time>2026-04-07T12:38:00.916Z</time></trkpt><trkpt lat="45.6890333" lon="11.17276"><ele>1115.0</ele><time>2026-04-07T12:38:01.916Z</time></trkpt><trkpt lat="45.6889633" lon="11.1727933"><ele>1115.0</ele><time>2026-04-07T12:38:02.916Z</time></trkpt><trkpt lat="45.6888933" lon="11.1728567"><ele>1115.0</ele><time>2026-04-07T12:38:03.915Z</time></trkpt><trkpt lat="45.688835" lon="11.1729267"><ele>1115.0</ele><time>2026-04-07T12:38:04.916Z</time></trkpt><trkpt lat="45.68878" lon="11.1729867"><ele>1115.0</ele><time>2026-04-07T12:38:05.916Z</time></trkpt><trkpt lat="45.688685" lon="11.1730633"><ele>1113.6</ele><time>2026-04-07T12:38:07.916Z</time></trkpt><trkpt lat="45.6885667" lon="11.1731017"><ele>1112.2</ele><time>2026-04-07T12:38:09.916Z</time></trkpt><trkpt lat="45.688435" lon="11.1731217"><ele>1110.8</ele><time>2026-04-07T12:38:11.916Z</time></trkpt><trkpt lat="45.6883583" lon="11.17317"><ele>1109.4</ele><time>2026-04-07T12:38:12.916Z</time></trkpt><trkpt lat="45.688275" lon="11.1732217"><ele>1108.0</ele><time>2026-04-07T12:38:13.915Z</time></trkpt><trkpt lat="45.6882017" lon="11.1732783"><ele>1106.6</ele><time>2026-04-07T12:38:14.916Z</time></trkpt><trkpt lat="45.68813" lon="11.1733483"><ele>1105.1999999999998</ele><time>2026-04-07T12:38:15.916Z</time></trkpt><trkpt lat="45.6880567" lon="11.1734333"><ele>1103.8</ele><time>2026-04-07T12:38:16.916Z</time></trkpt><trkpt lat="45.687975" lon="11.173525"><ele>1102.3999999999999</ele><time>2026-04-07T12:38:17.915Z</time></trkpt><trkpt lat="45.6878833" lon="11.173615"><ele>1101.0</ele><time>2026-04-07T12:38:18.916Z</time></trkpt><trkpt lat="45.6878033" lon="11.1737083"><ele>1101.1666666666667</ele><time>2026-04-07T12:38:19.915Z</time></trkpt><trkpt lat="45.687725" lon="11.1738133"><ele>1101.3333333333333</ele><time>2026-04-07T12:38:20.915Z</time></trkpt><trkpt lat="45.6876433" lon="11.1739167"><ele>1101.5</ele><time>2026-04-07T12:38:21.916Z</time></trkpt><trkpt lat="45.6875817" lon="11.1740067"><ele>1101.6666666666665</ele><time>2026-04-07T12:38:22.915Z</time></trkpt><trkpt lat="45.6875333" lon="11.1740817"><ele>1101.8333333333333</ele><time>2026-04-07T12:38:23.915Z</time></trkpt><trkpt lat="45.6874917" lon="11.174155"><ele>1102.0</ele><time>2026-04-07T12:38:24.916Z</time></trkpt><trkpt lat="45.6873967" lon="11.1742583"><ele>1102.0</ele><time>2026-04-07T12:38:26.916Z</time></trkpt><trkpt lat="45.687335" lon="11.17429"><ele>1102.0</ele><time>2026-04-07T12:38:27.916Z</time></trkpt><trkpt lat="45.6872617" lon="11.174305"><ele>1102.0</ele><time>2026-04-07T12:38:28.916Z</time></trkpt><trkpt lat="45.68719" lon="11.174305"><ele>1102.0</ele><time>2026-04-07T12:38:29.915Z</time></trkpt><trkpt lat="45.6870817" lon="11.174295"><ele>1102.0</ele><time>2026-04-07T12:38:31.916Z</time></trkpt><trkpt lat="45.6869983" lon="11.17426"><ele>1102.0</ele><time>2026-04-07T12:38:34.916Z</time></trkpt><trkpt lat="45.6869333" lon="11.174225"><ele>1103.0</ele><time>2026-04-07T12:38:37.916Z</time></trkpt><trkpt lat="45.68687" lon="11.1742067"><ele>1104.0</ele><time>2026-04-07T12:38:40.916Z</time></trkpt><trkpt lat="45.6867283" lon="11.1741583"><ele>1105.0</ele><time>2026-04-07T12:39:50.915Z</time></trkpt><trkpt lat="45.6866" lon="11.174145"><ele>1106.0</ele><time>2026-04-07T12:40:10.915Z</time></trkpt><trkpt lat="45.6865167" lon="11.174115"><ele>1107.0</ele><time>2026-04-07T12:40:15.914Z</time></trkpt><trkpt lat="45.6864517" lon="11.1740817"><ele>1107.0</ele><time>2026-04-07T12:40:18.914Z</time></trkpt><trkpt lat="45.68638" lon="11.1740583"><ele>1107.0</ele><time>2026-04-07T12:40:21.915Z</time></trkpt><trkpt lat="45.686285" lon="11.1740417"><ele>1107.0</ele><time>2026-04-07T12:40:24.915Z</time></trkpt><trkpt lat="45.6861783" lon="11.1740683"><ele>1107.0</ele><time>2026-04-07T12:40:26.915Z</time></trkpt><trkpt lat="45.6860883" lon="11.1740717"><ele>1107.0</ele><time>2026-04-07T12:40:28.914Z</time></trkpt><trkpt lat="45.686" lon="11.1740717"><ele>1106.0</ele><time>2026-04-07T12:40:30.915Z</time></trkpt><trkpt lat="45.6859217" lon="11.1741367"><ele>1105.0</ele><time>2026-04-07T12:40:32.915Z</time></trkpt><trkpt lat="45.68588" lon="11.1743317"><ele>1104.0</ele><time>2026-04-07T12:40:34.915Z</time></trkpt><trkpt lat="45.6858467" lon="11.1744533"><ele>1103.0</ele><time>2026-04-07T12:40:35.915Z</time></trkpt><trkpt lat="45.6858117" lon="11.1745283"><ele>1102.0</ele><time>2026-04-07T12:40:36.915Z</time></trkpt><trkpt lat="45.6857217" lon="11.1746067"><ele>1102.0</ele><time>2026-04-07T12:40:38.915Z</time></trkpt><trkpt lat="45.68558" lon="11.17462"><ele>1102.0</ele><time>2026-04-07T12:40:40.914Z</time></trkpt><trkpt lat="45.6854733" lon="11.1746583"><ele>1102.0</ele><time>2026-04-07T12:40:41.915Z</time></trkpt><trkpt lat="45.6853717" lon="11.1747233"><ele>1102.0</ele><time>2026-04-07T12:40:42.915Z</time></trkpt><trkpt lat="45.6852817" lon="11.1747917"><ele>1101.3333333333333</ele><time>2026-04-07T12:40:43.915Z</time></trkpt><trkpt lat="45.6852117" lon="11.1748533"><ele>1100.6666666666665</ele><time>2026-04-07T12:40:44.914Z</time></trkpt><trkpt lat="45.6851583" lon="11.1749367"><ele>1100.0</ele><time>2026-04-07T12:40:45.915Z</time></trkpt><trkpt lat="45.685105" lon="11.1750333"><ele>1099.3333333333333</ele><time>2026-04-07T12:40:46.915Z</time></trkpt><trkpt lat="45.6850567" lon="11.1751417"><ele>1098.6666666666667</ele><time>2026-04-07T12:40:47.914Z</time></trkpt><trkpt lat="45.6850117" lon="11.17525"><ele>1098.0</ele><time>2026-04-07T12:40:48.915Z</time></trkpt><trkpt lat="45.6849533" lon="11.1753583"><ele>1095.8</ele><time>2026-04-07T12:40:49.915Z</time></trkpt><trkpt lat="45.6848833" lon="11.1754433"><ele>1093.6</ele><time>2026-04-07T12:40:50.914Z</time></trkpt><trkpt lat="45.684805" lon="11.1754883"><ele>1091.4</ele><time>2026-04-07T12:40:51.915Z</time></trkpt><trkpt lat="45.684735" lon="11.175535"><ele>1089.2</ele><time>2026-04-07T12:40:52.915Z</time></trkpt><trkpt lat="45.6846483" lon="11.1756267"><ele>1087.0</ele><time>2026-04-07T12:40:54.915Z</time></trkpt><trkpt lat="45.6846217" lon="11.1758183"><ele>1085.1666666666665</ele><time>2026-04-07T12:40:56.914Z</time></trkpt><trkpt lat="45.6846283" lon="11.1759317"><ele>1083.3333333333333</ele><time>2026-04-07T12:40:57.915Z</time></trkpt><trkpt lat="45.68464" lon="11.176035"><ele>1081.5</ele><time>2026-04-07T12:40:58.915Z</time></trkpt><trkpt lat="45.684645" lon="11.176135"><ele>1079.6666666666667</ele><time>2026-04-07T12:40:59.915Z</time></trkpt><trkpt lat="45.6845967" lon="11.176255"><ele>1077.8333333333335</ele><time>2026-04-07T12:41:01.914Z</time></trkpt><trkpt lat="45.6845383" lon="11.17632"><ele>1076.0</ele><time>2026-04-07T12:41:02.915Z</time></trkpt><trkpt lat="45.6844667" lon="11.1763617"><ele>1076.857142857143</ele><time>2026-04-07T12:41:03.914Z</time></trkpt><trkpt lat="45.6843983" lon="11.1763967"><ele>1077.7142857142858</ele><time>2026-04-07T12:41:04.915Z</time></trkpt><trkpt lat="45.6843417" lon="11.176445"><ele>1078.5714285714287</ele><time>2026-04-07T12:41:05.914Z</time></trkpt><trkpt lat="45.6842983" lon="11.17652"><ele>1079.4285714285716</ele><time>2026-04-07T12:41:06.914Z</time></trkpt><trkpt lat="45.684265" lon="11.1766067"><ele>1080.2857142857142</ele><time>2026-04-07T12:41:07.915Z</time></trkpt><trkpt lat="45.6842467" lon="11.1767133"><ele>1081.1428571428573</ele><time>2026-04-07T12:41:08.915Z</time></trkpt><trkpt lat="45.6842267" lon="11.1768017"><ele>1082.0</ele><time>2026-04-07T12:41:09.915Z</time></trkpt><trkpt lat="45.6841933" lon="11.1768867"><ele>1082.0</ele><time>2026-04-07T12:41:10.915Z</time></trkpt><trkpt lat="45.6840983" lon="11.1769867"><ele>1082.0</ele><time>2026-04-07T12:41:12.915Z</time></trkpt><trkpt lat="45.68401" lon="11.1770767"><ele>1082.0</ele><time>2026-04-07T12:41:14.914Z</time></trkpt><trkpt lat="45.6839617" lon="11.1772233"><ele>1082.0</ele><time>2026-04-07T12:41:16.914Z</time></trkpt><trkpt lat="45.68397" lon="11.1773717"><ele>1082.0</ele><time>2026-04-07T12:41:18.915Z</time></trkpt><trkpt lat="45.684045" lon="11.177505"><ele>1082.6666666666667</ele><time>2026-04-07T12:41:20.915Z</time></trkpt><trkpt lat="45.6841067" lon="11.1775833"><ele>1083.3333333333335</ele><time>2026-04-07T12:41:21.915Z</time></trkpt><trkpt lat="45.6841683" lon="11.1776717"><ele>1084.0</ele><time>2026-04-07T12:41:22.915Z</time></trkpt><trkpt lat="45.68422" lon="11.1777683"><ele>1084.6666666666667</ele><time>2026-04-07T12:41:23.915Z</time></trkpt><trkpt lat="45.684265" lon="11.1778767"><ele>1085.3333333333333</ele><time>2026-04-07T12:41:24.914Z</time></trkpt><trkpt lat="45.6843" lon="11.1779833"><ele>1086.0</ele><time>2026-04-07T12:41:25.915Z</time></trkpt><trkpt lat="45.6843317" lon="11.1781033"><ele>1086.1666666666667</ele><time>2026-04-07T12:41:26.915Z</time></trkpt><trkpt lat="45.68434" lon="11.1782217"><ele>1086.3333333333333</ele><time>2026-04-07T12:41:27.915Z</time></trkpt><trkpt lat="45.684345" lon="11.1783367"><ele>1086.5</ele><time>2026-04-07T12:41:28.914Z</time></trkpt><trkpt lat="45.6843383" lon="11.1784367"><ele>1086.6666666666665</ele><time>2026-04-07T12:41:29.915Z</time></trkpt><trkpt lat="45.68427" lon="11.1785717"><ele>1086.8333333333333</ele><time>2026-04-07T12:41:31.914Z</time></trkpt><trkpt lat="45.68421" lon="11.17862"><ele>1087.0</ele><time>2026-04-07T12:41:32.915Z</time></trkpt><trkpt lat="45.68414" lon="11.178655"><ele>1087.0</ele><time>2026-04-07T12:41:33.915Z</time></trkpt><trkpt lat="45.6840367" lon="11.1787283"><ele>1087.0</ele><time>2026-04-07T12:41:35.915Z</time></trkpt><trkpt lat="45.6839783" lon="11.178775"><ele>1087.0</ele><time>2026-04-07T12:41:37.915Z</time></trkpt><trkpt lat="45.683925" lon="11.17883"><ele>1087.0</ele><time>2026-04-07T12:42:05.914Z</time></trkpt><trkpt lat="45.68387" lon="11.1789417"><ele>1087.0</ele><time>2026-04-07T12:42:07.914Z</time></trkpt><trkpt lat="45.6838233" lon="11.1790633"><ele>1087.0</ele><time>2026-04-07T12:42:09.914Z</time></trkpt><trkpt lat="45.68378" lon="11.1791917"><ele>1088.4</ele><time>2026-04-07T12:42:11.915Z</time></trkpt><trkpt lat="45.6837483" lon="11.1793217"><ele>1089.8000000000002</ele><time>2026-04-07T12:42:13.914Z</time></trkpt><trkpt lat="45.6837283" lon="11.17945"><ele>1091.2</ele><time>2026-04-07T12:42:15.915Z</time></trkpt><trkpt lat="45.6837367" lon="11.1795817"><ele>1092.6000000000001</ele><time>2026-04-07T12:42:17.914Z</time></trkpt><trkpt lat="45.6837833" lon="11.1797267"><ele>1094.0</ele><time>2026-04-07T12:42:19.915Z</time></trkpt><trkpt lat="45.6838167" lon="11.1798033"><ele>1094.0</ele><time>2026-04-07T12:42:20.915Z</time></trkpt><trkpt lat="45.6838517" lon="11.1798833"><ele>1094.0</ele><time>2026-04-07T12:42:21.915Z</time></trkpt><trkpt lat="45.6838967" lon="11.1799817"><ele>1094.0</ele><time>2026-04-07T12:42:22.915Z</time></trkpt><trkpt lat="45.6839617" lon="11.1801017"><ele>1094.0</ele><time>2026-04-07T12:42:23.914Z</time></trkpt><trkpt lat="45.6840267" lon="11.18022"><ele>1094.0</ele><time>2026-04-07T12:42:24.915Z</time></trkpt><trkpt lat="45.6840933" lon="11.180325"><ele>1094.0</ele><time>2026-04-07T12:42:25.915Z</time></trkpt><trkpt lat="45.684145" lon="11.1804233"><ele>1094.0</ele><time>2026-04-07T12:42:26.915Z</time></trkpt><trkpt lat="45.68419" lon="11.180505"><ele>1094.0</ele><time>2026-04-07T12:42:27.914Z</time></trkpt><trkpt lat="45.6842283" lon="11.1805867"><ele>1094.0</ele><time>2026-04-07T12:42:28.914Z</time></trkpt><trkpt lat="45.6842883" lon="11.1807167"><ele>1094.0</ele><time>2026-04-07T12:42:30.914Z</time></trkpt><trkpt lat="45.6843333" lon="11.180815"><ele>1094.0</ele><time>2026-04-07T12:42:33.915Z</time></trkpt><trkpt lat="45.6843733" lon="11.1809133"><ele>1093.0</ele><time>2026-04-07T12:42:38.914Z</time></trkpt><trkpt lat="45.6844117" lon="11.1809967"><ele>1092.0</ele><time>2026-04-07T12:42:42.914Z</time></trkpt><trkpt lat="45.68447" lon="11.1810667"><ele>1091.0</ele><time>2026-04-07T12:42:46.915Z</time></trkpt><trkpt lat="45.684525" lon="11.1811283"><ele>1090.0</ele><time>2026-04-07T12:42:50.915Z</time></trkpt><trkpt lat="45.684585" lon="11.1811867"><ele>1089.0</ele><time>2026-04-07T12:42:55.915Z</time></trkpt><trkpt lat="45.68465" lon="11.1812283"><ele>1088.0</ele><time>2026-04-07T12:42:59.915Z</time></trkpt><trkpt lat="45.6847233" lon="11.1812617"><ele>1087.0</ele><time>2026-04-07T12:43:03.915Z</time></trkpt><trkpt lat="45.6847917" lon="11.181325"><ele>1086.0</ele><time>2026-04-07T12:43:12.914Z</time></trkpt><trkpt lat="45.6848733" lon="11.181375"><ele>1085.0</ele><time>2026-04-07T12:43:16.914Z</time></trkpt><trkpt lat="45.6849483" lon="11.18146"><ele>1084.0</ele><time>2026-04-07T12:43:19.913Z</time></trkpt><trkpt lat="45.6850017" lon="11.181545"><ele>1083.0</ele><time>2026-04-07T12:43:21.913Z</time></trkpt><trkpt lat="45.6850317" lon="11.1816533"><ele>1082.0</ele><time>2026-04-07T12:43:23.913Z</time></trkpt><trkpt lat="45.685035" lon="11.1817717"><ele>1081.0</ele><time>2026-04-07T12:43:25.914Z</time></trkpt><trkpt lat="45.684995" lon="11.1819167"><ele>1080.0</ele><time>2026-04-07T12:43:27.914Z</time></trkpt><trkpt lat="45.684955" lon="11.1819933"><ele>1079.0</ele><time>2026-04-07T12:43:28.914Z</time></trkpt><trkpt lat="45.684885" lon="11.182115"><ele>1078.0</ele><time>2026-04-07T12:43:30.914Z</time></trkpt><trkpt lat="45.6848817" lon="11.1822717"><ele>1077.0</ele><time>2026-04-07T12:43:32.914Z</time></trkpt><trkpt lat="45.6849067" lon="11.182365"><ele>1076.0</ele><time>2026-04-07T12:43:33.913Z</time></trkpt><trkpt lat="45.684945" lon="11.1824533"><ele>1075.0</ele><time>2026-04-07T12:43:34.914Z</time></trkpt><trkpt lat="45.6849967" lon="11.18256"><ele>1073.5</ele><time>2026-04-07T12:43:35.913Z</time></trkpt><trkpt lat="45.6850383" lon="11.1826533"><ele>1072.0</ele><time>2026-04-07T12:43:36.914Z</time></trkpt><trkpt lat="45.6850817" lon="11.182745"><ele>1070.5</ele><time>2026-04-07T12:43:37.914Z</time></trkpt><trkpt lat="45.6851183" lon="11.182845"><ele>1069.0</ele><time>2026-04-07T12:43:38.913Z</time></trkpt><trkpt lat="45.685155" lon="11.1829517"><ele>1067.5</ele><time>2026-04-07T12:43:39.914Z</time></trkpt><trkpt lat="45.6852033" lon="11.1830617"><ele>1066.0</ele><time>2026-04-07T12:43:40.913Z</time></trkpt><trkpt lat="45.6852517" lon="11.183165"><ele>1063.8</ele><time>2026-04-07T12:43:41.914Z</time></trkpt><trkpt lat="45.68532" lon="11.183275"><ele>1061.6</ele><time>2026-04-07T12:43:42.914Z</time></trkpt><trkpt lat="45.6853867" lon="11.1833883"><ele>1059.4</ele><time>2026-04-07T12:43:43.913Z</time></trkpt><trkpt lat="45.6854633" lon="11.1835183"><ele>1057.2</ele><time>2026-04-07T12:43:44.913Z</time></trkpt><trkpt lat="45.6855183" lon="11.1836183"><ele>1055.0</ele><time>2026-04-07T12:43:45.913Z</time></trkpt><trkpt lat="45.6855683" lon="11.183725"><ele>1055.0</ele><time>2026-04-07T12:43:46.913Z</time></trkpt><trkpt lat="45.6856083" lon="11.18383"><ele>1055.0</ele><time>2026-04-07T12:43:47.913Z</time></trkpt><trkpt lat="45.6856367" lon="11.1839467"><ele>1055.0</ele><time>2026-04-07T12:43:48.914Z</time></trkpt><trkpt lat="45.6856517" lon="11.1840567"><ele>1055.0</ele><time>2026-04-07T12:43:49.914Z</time></trkpt><trkpt lat="45.6856717" lon="11.184185"><ele>1055.0</ele><time>2026-04-07T12:43:50.914Z</time></trkpt><trkpt lat="45.6856967" lon="11.18432"><ele>1055.0</ele><time>2026-04-07T12:43:51.914Z</time></trkpt><trkpt lat="45.6857317" lon="11.1844333"><ele>1056.6</ele><time>2026-04-07T12:43:52.913Z</time></trkpt><trkpt lat="45.6857933" lon="11.1845367"><ele>1058.2</ele><time>2026-04-07T12:43:53.914Z</time></trkpt><trkpt lat="45.6858717" lon="11.1846417"><ele>1059.8</ele><time>2026-04-07T12:43:54.914Z</time></trkpt><trkpt lat="45.6859583" lon="11.1847383"><ele>1061.4</ele><time>2026-04-07T12:43:55.914Z</time></trkpt><trkpt lat="45.6860583" lon="11.1848167"><ele>1063.0</ele><time>2026-04-07T12:43:56.913Z</time></trkpt><trkpt lat="45.686165" lon="11.1848617"><ele>1064.8</ele><time>2026-04-07T12:43:57.914Z</time></trkpt><trkpt lat="45.686285" lon="11.1849017"><ele>1066.6</ele><time>2026-04-07T12:43:58.914Z</time></trkpt><trkpt lat="45.6863933" lon="11.1849483"><ele>1068.4</ele><time>2026-04-07T12:43:59.913Z</time></trkpt><trkpt lat="45.6864967" lon="11.1849833"><ele>1070.2</ele><time>2026-04-07T12:44:00.913Z</time></trkpt><trkpt lat="45.6866017" lon="11.185005"><ele>1072.0</ele><time>2026-04-07T12:44:01.914Z</time></trkpt><trkpt lat="45.6866867" lon="11.1850183"><ele>1072.0</ele><time>2026-04-07T12:44:02.914Z</time></trkpt><trkpt lat="45.68677" lon="11.1850183"><ele>1072.0</ele><time>2026-04-07T12:44:03.914Z</time></trkpt><trkpt lat="45.6868833" lon="11.1850217"><ele>1072.0</ele><time>2026-04-07T12:44:05.914Z</time></trkpt><trkpt lat="45.6869517" lon="11.185035"><ele>1072.0</ele><time>2026-04-07T12:44:07.913Z</time></trkpt><trkpt lat="45.6870083" lon="11.1851017"><ele>1072.0</ele><time>2026-04-07T12:44:26.913Z</time></trkpt><trkpt lat="45.687085" lon="11.18521"><ele>1072.0</ele><time>2026-04-07T12:44:28.914Z</time></trkpt><trkpt lat="45.6871317" lon="11.1852917"><ele>1070.8333333333333</ele><time>2026-04-07T12:44:30.913Z</time></trkpt><trkpt lat="45.687165" lon="11.185375"><ele>1069.6666666666665</ele><time>2026-04-07T12:44:38.913Z</time></trkpt><trkpt lat="45.6872033" lon="11.1854783"><ele>1068.5</ele><time>2026-04-07T12:44:41.913Z</time></trkpt><trkpt lat="45.687255" lon="11.1856033"><ele>1067.3333333333333</ele><time>2026-04-07T12:52:19.912Z</time></trkpt><trkpt lat="45.6871667" lon="11.1856567"><ele>1066.1666666666667</ele><time>2026-04-07T12:52:21.912Z</time></trkpt><trkpt lat="45.6871" lon="11.1856883"><ele>1065.0</ele><time>2026-04-07T12:52:22.912Z</time></trkpt><trkpt lat="45.6870267" lon="11.1857167"><ele>1065.0</ele><time>2026-04-07T12:52:23.912Z</time></trkpt><trkpt lat="45.6869467" lon="11.1857167"><ele>1065.0</ele><time>2026-04-07T12:52:24.911Z</time></trkpt><trkpt lat="45.6868817" lon="11.1857433"><ele>1065.0</ele><time>2026-04-07T12:52:25.911Z</time></trkpt><trkpt lat="45.6867883" lon="11.1858317"><ele>1065.0</ele><time>2026-04-07T12:52:27.912Z</time></trkpt><trkpt lat="45.686775" lon="11.186005"><ele>1065.0</ele><time>2026-04-07T12:52:29.912Z</time></trkpt><trkpt lat="45.6867967" lon="11.1861267"><ele>1066.0</ele><time>2026-04-07T12:52:30.912Z</time></trkpt><trkpt lat="45.6868383" lon="11.18627"><ele>1067.0</ele><time>2026-04-07T12:52:31.912Z</time></trkpt><trkpt lat="45.686885" lon="11.1864217"><ele>1068.0</ele><time>2026-04-07T12:52:32.912Z</time></trkpt><trkpt lat="45.6869383" lon="11.1865783"><ele>1069.0</ele><time>2026-04-07T12:52:33.911Z</time></trkpt><trkpt lat="45.6870033" lon="11.1867183"><ele>1069.0</ele><time>2026-04-07T12:52:34.912Z</time></trkpt><trkpt lat="45.6870667" lon="11.1868383"><ele>1069.0</ele><time>2026-04-07T12:52:35.912Z</time></trkpt><trkpt lat="45.687125" lon="11.186955"><ele>1069.0</ele><time>2026-04-07T12:52:36.911Z</time></trkpt><trkpt lat="45.6871717" lon="11.1870617"><ele>1069.0</ele><time>2026-04-07T12:52:37.911Z</time></trkpt><trkpt lat="45.68721" lon="11.18718"><ele>1069.0</ele><time>2026-04-07T12:52:38.911Z</time></trkpt><trkpt lat="45.687245" lon="11.1873"><ele>1070.8</ele><time>2026-04-07T12:52:39.912Z</time></trkpt><trkpt lat="45.68727" lon="11.1874267"><ele>1072.6000000000001</ele><time>2026-04-07T12:52:40.912Z</time></trkpt><trkpt lat="45.68729" lon="11.18756"><ele>1074.4</ele><time>2026-04-07T12:52:41.911Z</time></trkpt><trkpt lat="45.6872983" lon="11.187695"><ele>1076.2</ele><time>2026-04-07T12:52:42.912Z</time></trkpt><trkpt lat="45.687315" lon="11.1878267"><ele>1078.0</ele><time>2026-04-07T12:52:43.912Z</time></trkpt><trkpt lat="45.6873233" lon="11.18796"><ele>1078.0</ele><time>2026-04-07T12:52:44.912Z</time></trkpt><trkpt lat="45.68733" lon="11.1881"><ele>1078.0</ele><time>2026-04-07T12:52:45.912Z</time></trkpt><trkpt lat="45.6873383" lon="11.1882383"><ele>1078.0</ele><time>2026-04-07T12:52:46.911Z</time></trkpt><trkpt lat="45.6873467" lon="11.1883533"><ele>1078.0</ele><time>2026-04-07T12:52:47.912Z</time></trkpt><trkpt lat="45.68736" lon="11.1884667"><ele>1078.0</ele><time>2026-04-07T12:52:48.912Z</time></trkpt><trkpt lat="45.68738" lon="11.1885783"><ele>1078.0</ele><time>2026-04-07T12:52:49.912Z</time></trkpt><trkpt lat="45.687395" lon="11.1886733"><ele>1078.6666666666665</ele><time>2026-04-07T12:52:50.912Z</time></trkpt><trkpt lat="45.687405" lon="11.1888633"><ele>1079.3333333333333</ele><time>2026-04-07T12:52:52.911Z</time></trkpt><trkpt lat="45.6874" lon="11.1889617"><ele>1080.0</ele><time>2026-04-07T12:52:53.911Z</time></trkpt><trkpt lat="45.6873767" lon="11.189055"><ele>1080.6666666666667</ele><time>2026-04-07T12:52:54.911Z</time></trkpt><trkpt lat="45.6873483" lon="11.1891517"><ele>1081.3333333333335</ele><time>2026-04-07T12:52:55.912Z</time></trkpt><trkpt lat="45.6873217" lon="11.1892467"><ele>1082.0</ele><time>2026-04-07T12:52:56.912Z</time></trkpt><trkpt lat="45.68731" lon="11.18935"><ele>1083.1666666666667</ele><time>2026-04-07T12:52:57.912Z</time></trkpt><trkpt lat="45.6873" lon="11.1894467"><ele>1084.3333333333335</ele><time>2026-04-07T12:52:58.912Z</time></trkpt><trkpt lat="45.6873" lon="11.18956"><ele>1085.5</ele><time>2026-04-07T12:52:59.911Z</time></trkpt><trkpt lat="45.687295" lon="11.1896683"><ele>1086.6666666666667</ele><time>2026-04-07T12:53:00.912Z</time></trkpt><trkpt lat="45.68729" lon="11.1897667"><ele>1087.8333333333333</ele><time>2026-04-07T12:53:01.912Z</time></trkpt><trkpt lat="45.6872767" lon="11.1899183"><ele>1089.0</ele><time>2026-04-07T12:53:03.912Z</time></trkpt><trkpt lat="45.6872733" lon="11.19007"><ele>1089.6666666666667</ele><time>2026-04-07T12:53:05.912Z</time></trkpt><trkpt lat="45.687255" lon="11.1901633"><ele>1090.3333333333333</ele><time>2026-04-07T12:53:07.912Z</time></trkpt><trkpt lat="45.6871967" lon="11.1902233"><ele>1091.0</ele><time>2026-04-07T12:54:42.911Z</time></trkpt><trkpt lat="45.687125" lon="11.1903567"><ele>1091.6666666666665</ele><time>2026-04-07T12:54:44.911Z</time></trkpt><trkpt lat="45.687085" lon="11.1904317"><ele>1092.3333333333333</ele><time>2026-04-07T12:54:45.911Z</time></trkpt><trkpt lat="45.6870333" lon="11.1905083"><ele>1093.0</ele><time>2026-04-07T12:54:46.912Z</time></trkpt><trkpt lat="45.6869867" lon="11.1905867"><ele>1093.0</ele><time>2026-04-07T12:54:47.912Z</time></trkpt><trkpt lat="45.686945" lon="11.19066"><ele>1093.0</ele><time>2026-04-07T12:54:48.911Z</time></trkpt><trkpt lat="45.6869133" lon="11.190755"><ele>1093.0</ele><time>2026-04-07T12:54:49.912Z</time></trkpt><trkpt lat="45.6868767" lon="11.1908567"><ele>1093.0</ele><time>2026-04-07T12:54:50.912Z</time></trkpt><trkpt lat="45.686845" lon="11.190955"><ele>1093.0</ele><time>2026-04-07T12:54:51.912Z</time></trkpt><trkpt lat="45.6868183" lon="11.191045"><ele>1093.0</ele><time>2026-04-07T12:54:52.911Z</time></trkpt><trkpt lat="45.68679" lon="11.1911383"><ele>1093.0</ele><time>2026-04-07T12:54:53.911Z</time></trkpt><trkpt lat="45.6867483" lon="11.1912133"><ele>1091.1666666666665</ele><time>2026-04-07T12:54:54.912Z</time></trkpt><trkpt lat="45.6866717" lon="11.1913083"><ele>1089.3333333333333</ele><time>2026-04-07T12:54:56.912Z</time></trkpt><trkpt lat="45.6865617" lon="11.1914"><ele>1087.5</ele><time>2026-04-07T12:54:58.912Z</time></trkpt><trkpt lat="45.6865" lon="11.1914417"><ele>1085.6666666666667</ele><time>2026-04-07T12:54:59.911Z</time></trkpt><trkpt lat="45.686435" lon="11.1914967"><ele>1083.8333333333335</ele><time>2026-04-07T12:55:00.912Z</time></trkpt><trkpt lat="45.6863767" lon="11.1915533"><ele>1082.0</ele><time>2026-04-07T12:55:01.912Z</time></trkpt><trkpt lat="45.6862917" lon="11.191675"><ele>1082.0000000000002</ele><time>2026-04-07T12:55:03.912Z</time></trkpt><trkpt lat="45.686255" lon="11.1917533"><ele>1082.0</ele><time>2026-04-07T12:55:04.912Z</time></trkpt><trkpt lat="45.6862133" lon="11.1918367"><ele>1082.0</ele><time>2026-04-07T12:55:05.911Z</time></trkpt><trkpt lat="45.6861683" lon="11.1919083"><ele>1082.0</ele><time>2026-04-07T12:55:06.911Z</time></trkpt><trkpt lat="45.6861133" lon="11.19197"><ele>1082.0</ele><time>2026-04-07T12:55:07.911Z</time></trkpt><trkpt lat="45.6860433" lon="11.192025"><ele>1082.0000000000002</ele><time>2026-04-07T12:55:08.912Z</time></trkpt><trkpt lat="45.6859817" lon="11.1920833"><ele>1082.0</ele><time>2026-04-07T12:55:09.912Z</time></trkpt><trkpt lat="45.68593" lon="11.1921533"><ele>1085.0</ele><time>2026-04-07T12:55:10.912Z</time></trkpt><trkpt lat="45.6858833" lon="11.1922267"><ele>1088.0</ele><time>2026-04-07T12:55:11.912Z</time></trkpt><trkpt lat="45.6858333" lon="11.192285"><ele>1091.0</ele><time>2026-04-07T12:55:12.911Z</time></trkpt><trkpt lat="45.6857283" lon="11.192325"><ele>1094.0</ele><time>2026-04-07T12:55:14.912Z</time></trkpt><trkpt lat="45.6856283" lon="11.1923017"><ele>1097.0</ele><time>2026-04-07T12:55:16.912Z</time></trkpt><trkpt lat="45.6855283" lon="11.1922733"><ele>1100.0</ele><time>2026-04-07T12:55:18.912Z</time></trkpt><trkpt lat="45.68543" lon="11.1922733"><ele>1100.0</ele><time>2026-04-07T12:55:20.912Z</time></trkpt><trkpt lat="45.6853467" lon="11.1923333"><ele>1100.0</ele><time>2026-04-07T12:55:22.912Z</time></trkpt><trkpt lat="45.68524" lon="11.19242"><ele>1100.0</ele><time>2026-04-07T12:55:24.911Z</time></trkpt><trkpt lat="45.68517" lon="11.192485"><ele>1100.0</ele><time>2026-04-07T12:55:25.912Z</time></trkpt><trkpt lat="45.685105" lon="11.1925617"><ele>1100.0</ele><time>2026-04-07T12:55:26.912Z</time></trkpt><trkpt lat="45.685045" lon="11.192635"><ele>1094.8</ele><time>2026-04-07T12:55:27.912Z</time></trkpt><trkpt lat="45.6849883" lon="11.1927083"><ele>1089.6</ele><time>2026-04-07T12:55:28.912Z</time></trkpt><trkpt lat="45.6849317" lon="11.1927683"><ele>1084.4</ele><time>2026-04-07T12:55:29.912Z</time></trkpt><trkpt lat="45.6848417" lon="11.1928583"><ele>1079.2</ele><time>2026-04-07T12:55:31.912Z</time></trkpt><trkpt lat="45.6848233" lon="11.19297"><ele>1074.0</ele><time>2026-04-07T12:55:33.911Z</time></trkpt><trkpt lat="45.6849183" lon="11.1930583"><ele>1074.0</ele><time>2026-04-07T12:55:35.911Z</time></trkpt><trkpt lat="45.68504" lon="11.1930433"><ele>1074.0</ele><time>2026-04-07T12:55:37.912Z</time></trkpt><trkpt lat="45.6851317" lon="11.19314"><ele>1074.0</ele><time>2026-04-07T12:55:39.91Z</time></trkpt><trkpt lat="45.6851517" lon="11.19328"><ele>1074.0</ele><time>2026-04-07T12:55:41.91Z</time></trkpt><trkpt lat="45.6851367" lon="11.1933783"><ele>1074.0</ele><time>2026-04-07T12:55:42.91Z</time></trkpt><trkpt lat="45.685115" lon="11.193505"><ele>1071.2</ele><time>2026-04-07T12:55:43.911Z</time></trkpt><trkpt lat="45.6850867" lon="11.1936483"><ele>1068.4</ele><time>2026-04-07T12:55:44.91Z</time></trkpt><trkpt lat="45.685055" lon="11.193785"><ele>1065.6</ele><time>2026-04-07T12:55:45.911Z</time></trkpt><trkpt lat="45.685035" lon="11.1939217"><ele>1062.8</ele><time>2026-04-07T12:55:46.91Z</time></trkpt><trkpt lat="45.685015" lon="11.1940517"><ele>1060.0</ele><time>2026-04-07T12:55:47.91Z</time></trkpt><trkpt lat="45.6850083" lon="11.194165"><ele>1058.6666666666665</ele><time>2026-04-07T12:55:48.91Z</time></trkpt><trkpt lat="45.6850033" lon="11.1942867"><ele>1057.3333333333333</ele><time>2026-04-07T12:55:49.91Z</time></trkpt><trkpt lat="45.6850167" lon="11.1944"><ele>1056.0</ele><time>2026-04-07T12:55:50.911Z</time></trkpt><trkpt lat="45.6850417" lon="11.1945267"><ele>1054.6666666666667</ele><time>2026-04-07T12:55:51.911Z</time></trkpt><trkpt lat="45.6850867" lon="11.1946433"><ele>1053.3333333333335</ele><time>2026-04-07T12:55:52.911Z</time></trkpt><trkpt lat="45.68514" lon="11.194755"><ele>1052.0</ele><time>2026-04-07T12:55:53.91Z</time></trkpt><trkpt lat="45.6852033" lon="11.19484"><ele>1052.6</ele><time>2026-04-07T12:55:54.91Z</time></trkpt><trkpt lat="45.6852683" lon="11.1949083"><ele>1053.2</ele><time>2026-04-07T12:55:55.911Z</time></trkpt><trkpt lat="45.6853267" lon="11.19498"><ele>1053.8</ele><time>2026-04-07T12:55:56.911Z</time></trkpt><trkpt lat="45.6853833" lon="11.1951133"><ele>1054.4</ele><time>2026-04-07T12:55:58.911Z</time></trkpt><trkpt lat="45.68543" lon="11.1952533"><ele>1055.0</ele><time>2026-04-07T12:56:00.911Z</time></trkpt><trkpt lat="45.6854767" lon="11.1953633"><ele>1055.0</ele><time>2026-04-07T12:56:02.91Z</time></trkpt><trkpt lat="45.6855217" lon="11.19547"><ele>1055.0</ele><time>2026-04-07T12:56:04.911Z</time></trkpt><trkpt lat="45.6855733" lon="11.19557"><ele>1055.0</ele><time>2026-04-07T12:56:06.91Z</time></trkpt><trkpt lat="45.6856283" lon="11.195655"><ele>1055.0</ele><time>2026-04-07T12:56:08.911Z</time></trkpt><trkpt lat="45.6856783" lon="11.1957533"><ele>1055.0</ele><time>2026-04-07T12:56:10.911Z</time></trkpt><trkpt lat="45.6857" lon="11.1958483"><ele>1055.0</ele><time>2026-04-07T12:56:12.91Z</time></trkpt><trkpt lat="45.6857317" lon="11.1959633"><ele>1053.5</ele><time>2026-04-07T12:56:14.91Z</time></trkpt><trkpt lat="45.6857767" lon="11.19612"><ele>1052.0</ele><time>2026-04-07T12:56:16.91Z</time></trkpt><trkpt lat="45.6857883" lon="11.19621"><ele>1050.5</ele><time>2026-04-07T12:56:17.91Z</time></trkpt><trkpt lat="45.6857883" lon="11.1963017"><ele>1049.0</ele><time>2026-04-07T12:56:18.911Z</time></trkpt><trkpt lat="45.68575" lon="11.1964483"><ele>1047.5</ele><time>2026-04-07T12:56:20.91Z</time></trkpt><trkpt lat="45.6856883" lon="11.19652"><ele>1046.0</ele><time>2026-04-07T12:56:22.91Z</time></trkpt><trkpt lat="45.6855467" lon="11.196525"><ele>1046.0</ele><time>2026-04-07T12:56:24.911Z</time></trkpt><trkpt lat="45.6854267" lon="11.196505"><ele>1046.0</ele><time>2026-04-07T12:56:25.911Z</time></trkpt><trkpt lat="45.6852767" lon="11.1964683"><ele>1046.0</ele><time>2026-04-07T12:56:26.911Z</time></trkpt><trkpt lat="45.6851133" lon="11.1964383"><ele>1046.0</ele><time>2026-04-07T12:56:27.91Z</time></trkpt><trkpt lat="45.6849533" lon="11.196425"><ele>1043.75</ele><time>2026-04-07T12:56:28.911Z</time></trkpt><trkpt lat="45.684815" lon="11.19643"><ele>1041.5</ele><time>2026-04-07T12:56:29.911Z</time></trkpt><trkpt lat="45.6846883" lon="11.19646"><ele>1039.25</ele><time>2026-04-07T12:56:30.911Z</time></trkpt><trkpt lat="45.6845683" lon="11.1965167"><ele>1037.0</ele><time>2026-04-07T12:56:31.91Z</time></trkpt><trkpt lat="45.684435" lon="11.19658"><ele>1034.75</ele><time>2026-04-07T12:56:32.91Z</time></trkpt><trkpt lat="45.684295" lon="11.19664"><ele>1032.5</ele><time>2026-04-07T12:56:33.911Z</time></trkpt><trkpt lat="45.6841533" lon="11.19669"><ele>1030.25</ele><time>2026-04-07T12:56:34.911Z</time></trkpt><trkpt lat="45.6840183" lon="11.1967267"><ele>1028.0</ele><time>2026-04-07T12:56:35.91Z</time></trkpt><trkpt lat="45.68389" lon="11.1967667"><ele>1028.0</ele><time>2026-04-07T12:56:36.911Z</time></trkpt><trkpt lat="45.6837683" lon="11.1968333"><ele>1028.0</ele><time>2026-04-07T12:56:37.911Z</time></trkpt><trkpt lat="45.68364" lon="11.1969217"><ele>1028.0</ele><time>2026-04-07T12:56:38.911Z</time></trkpt><trkpt lat="45.6835283" lon="11.197035"><ele>1028.0</ele><time>2026-04-07T12:56:39.911Z</time></trkpt><trkpt lat="45.6834333" lon="11.1971433"><ele>1027.75</ele><time>2026-04-07T12:56:40.91Z</time></trkpt><trkpt lat="45.683335" lon="11.1972583"><ele>1027.5</ele><time>2026-04-07T12:56:41.911Z</time></trkpt><trkpt lat="45.6832467" lon="11.197355"><ele>1027.25</ele><time>2026-04-07T12:56:42.911Z</time></trkpt><trkpt lat="45.6831417" lon="11.197435"><ele>1027.0</ele><time>2026-04-07T12:56:43.911Z</time></trkpt><trkpt lat="45.6830283" lon="11.1974983"><ele>1027.5</ele><time>2026-04-07T12:56:44.91Z</time></trkpt><trkpt lat="45.6828983" lon="11.19755"><ele>1028.0</ele><time>2026-04-07T12:56:45.91Z</time></trkpt><trkpt lat="45.68278" lon="11.1975983"><ele>1028.5</ele><time>2026-04-07T12:56:46.91Z</time></trkpt><trkpt lat="45.68267" lon="11.1976333"><ele>1029.0</ele><time>2026-04-07T12:56:47.91Z</time></trkpt><trkpt lat="45.6825667" lon="11.1976767"><ele>1030.25</ele><time>2026-04-07T12:56:48.91Z</time></trkpt><trkpt lat="45.6824617" lon="11.19773"><ele>1031.5</ele><time>2026-04-07T12:56:49.91Z</time></trkpt><trkpt lat="45.6823683" lon="11.1977983"><ele>1032.75</ele><time>2026-04-07T12:56:50.911Z</time></trkpt><trkpt lat="45.6822667" lon="11.1978817"><ele>1034.0</ele><time>2026-04-07T12:56:51.911Z</time></trkpt><trkpt lat="45.6821683" lon="11.19799"><ele>1034.0</ele><time>2026-04-07T12:56:52.911Z</time></trkpt><trkpt lat="45.6820867" lon="11.198105"><ele>1034.0</ele><time>2026-04-07T12:56:53.91Z</time></trkpt><trkpt lat="45.6820033" lon="11.19826"><ele>1034.0</ele><time>2026-04-07T12:56:54.911Z</time></trkpt><trkpt lat="45.681925" lon="11.1984467"><ele>1034.0</ele><time>2026-04-07T12:56:55.91Z</time></trkpt><trkpt lat="45.6818467" lon="11.1986383"><ele>1032.5</ele><time>2026-04-07T12:56:56.911Z</time></trkpt><trkpt lat="45.6817683" lon="11.198845"><ele>1031.0</ele><time>2026-04-07T12:56:57.911Z</time></trkpt><trkpt lat="45.6817017" lon="11.1990283"><ele>1029.5</ele><time>2026-04-07T12:56:58.911Z</time></trkpt><trkpt lat="45.6816517" lon="11.1992167"><ele>1028.0</ele><time>2026-04-07T12:56:59.911Z</time></trkpt><trkpt lat="45.6816083" lon="11.1994"><ele>1028.0</ele><time>2026-04-07T12:57:00.91Z</time></trkpt><trkpt lat="45.6815767" lon="11.1995717"><ele>1028.0</ele><time>2026-04-07T12:57:01.91Z</time></trkpt><trkpt lat="45.6815483" lon="11.1997383"><ele>1028.0</ele><time>2026-04-07T12:57:02.911Z</time></trkpt><trkpt lat="45.6815067" lon="11.1998667"><ele>1028.0</ele><time>2026-04-07T12:57:03.91Z</time></trkpt><trkpt lat="45.6814583" lon="11.1999883"><ele>1028.0</ele><time>2026-04-07T12:57:04.911Z</time></trkpt><trkpt lat="45.6813883" lon="11.2001017"><ele>1024.25</ele><time>2026-04-07T12:57:05.911Z</time></trkpt><trkpt lat="45.681315" lon="11.20023"><ele>1020.5</ele><time>2026-04-07T12:57:06.911Z</time></trkpt><trkpt lat="45.68124" lon="11.200365"><ele>1016.75</ele><time>2026-04-07T12:57:07.911Z</time></trkpt><trkpt lat="45.6811767" lon="11.2005217"><ele>1013.0</ele><time>2026-04-07T12:57:08.911Z</time></trkpt><trkpt lat="45.6811167" lon="11.2006533"><ele>1017.2</ele><time>2026-04-07T12:57:09.911Z</time></trkpt><trkpt lat="45.68106" lon="11.2007717"><ele>1021.4</ele><time>2026-04-07T12:57:10.911Z</time></trkpt><trkpt lat="45.6809867" lon="11.2008667"><ele>1025.6000000000001</ele><time>2026-04-07T12:57:11.91Z</time></trkpt><trkpt lat="45.680895" lon="11.2009517"><ele>1029.8</ele><time>2026-04-07T12:57:12.911Z</time></trkpt><trkpt lat="45.6808083" lon="11.2010483"><ele>1034.0</ele><time>2026-04-07T12:57:13.91Z</time></trkpt><trkpt lat="45.6807283" lon="11.2011617"><ele>1034.0</ele><time>2026-04-07T12:57:14.911Z</time></trkpt><trkpt lat="45.68066" lon="11.2013067"><ele>1034.0</ele><time>2026-04-07T12:57:15.911Z</time></trkpt><trkpt lat="45.6806133" lon="11.201465"><ele>1034.0</ele><time>2026-04-07T12:57:16.91Z</time></trkpt><trkpt lat="45.6805817" lon="11.2016333"><ele>1034.0</ele><time>2026-04-07T12:57:17.91Z</time></trkpt><trkpt lat="45.680575" lon="11.2018217"><ele>1029.0</ele><time>2026-04-07T12:57:18.911Z</time></trkpt><trkpt lat="45.6805983" lon="11.2020167"><ele>1024.0</ele><time>2026-04-07T12:57:19.911Z</time></trkpt><trkpt lat="45.6806117" lon="11.202205"><ele>1019.0</ele><time>2026-04-07T12:57:20.91Z</time></trkpt><trkpt lat="45.6806117" lon="11.202365"><ele>1014.0</ele><time>2026-04-07T12:57:21.911Z</time></trkpt><trkpt lat="45.6805917" lon="11.2025117"><ele>1012.75</ele><time>2026-04-07T12:57:22.911Z</time></trkpt><trkpt lat="45.68055" lon="11.2026717"><ele>1011.5</ele><time>2026-04-07T12:57:23.911Z</time></trkpt><trkpt lat="45.6805033" lon="11.2028367"><ele>1010.25</ele><time>2026-04-07T12:57:24.911Z</time></trkpt><trkpt lat="45.68045" lon="11.20303"><ele>1009.0</ele><time>2026-04-07T12:57:25.91Z</time></trkpt><trkpt lat="45.6804067" lon="11.2032333"><ele>1007.5</ele><time>2026-04-07T12:57:26.911Z</time></trkpt><trkpt lat="45.6803783" lon="11.20344"><ele>1006.0</ele><time>2026-04-07T12:57:27.91Z</time></trkpt><trkpt lat="45.6803567" lon="11.2036317"><ele>1004.5</ele><time>2026-04-07T12:57:28.911Z</time></trkpt><trkpt lat="45.6803433" lon="11.20379"><ele>1003.0</ele><time>2026-04-07T12:57:29.911Z</time></trkpt><trkpt lat="45.6803167" lon="11.2039167"><ele>1002.4</ele><time>2026-04-07T12:57:30.911Z</time></trkpt><trkpt lat="45.6802717" lon="11.2040117"><ele>1001.8</ele><time>2026-04-07T12:57:31.911Z</time></trkpt><trkpt lat="45.680205" lon="11.20407"><ele>1001.2</ele><time>2026-04-07T12:57:32.911Z</time></trkpt><trkpt lat="45.6801167" lon="11.2040783"><ele>1000.6</ele><time>2026-04-07T12:57:33.91Z</time></trkpt><trkpt lat="45.6800133" lon="11.2040417"><ele>1000.0</ele><time>2026-04-07T12:57:34.911Z</time></trkpt><trkpt lat="45.67987" lon="11.2039733"><ele>1006.0</ele><time>2026-04-07T12:57:35.91Z</time></trkpt><trkpt lat="45.6797117" lon="11.2038917"><ele>1012.0</ele><time>2026-04-07T12:57:36.91Z</time></trkpt><trkpt lat="45.67956" lon="11.203815"><ele>1018.0</ele><time>2026-04-07T12:57:37.911Z</time></trkpt><trkpt lat="45.6794283" lon="11.2037483"><ele>1018.0</ele><time>2026-04-07T12:57:38.911Z</time></trkpt><trkpt lat="45.6793133" lon="11.2036667"><ele>1018.0</ele><time>2026-04-07T12:57:39.911Z</time></trkpt><trkpt lat="45.6792" lon="11.20358"><ele>1018.0</ele><time>2026-04-07T12:57:40.91Z</time></trkpt><trkpt lat="45.6790833" lon="11.2035283"><ele>1018.0</ele><time>2026-04-07T12:57:41.911Z</time></trkpt><trkpt lat="45.6789583" lon="11.2035117"><ele>1018.0</ele><time>2026-04-07T12:57:42.911Z</time></trkpt><trkpt lat="45.6788283" lon="11.2035233"><ele>1018.0</ele><time>2026-04-07T12:57:43.91Z</time></trkpt><trkpt lat="45.67871" lon="11.20354"><ele>1018.0</ele><time>2026-04-07T12:57:44.91Z</time></trkpt><trkpt lat="45.678605" lon="11.2035667"><ele>1018.0</ele><time>2026-04-07T12:57:45.911Z</time></trkpt><trkpt lat="45.6785167" lon="11.2036133"><ele>1018.8</ele><time>2026-04-07T12:57:46.91Z</time></trkpt><trkpt lat="45.67844" lon="11.2036933"><ele>1019.5999999999999</ele><time>2026-04-07T12:57:47.91Z</time></trkpt><trkpt lat="45.6783833" lon="11.20381"><ele>1020.4000000000001</ele><time>2026-04-07T12:57:48.91Z</time></trkpt><trkpt lat="45.67836" lon="11.2039533"><ele>1021.2</ele><time>2026-04-07T12:57:49.911Z</time></trkpt><trkpt lat="45.6783633" lon="11.2041317"><ele>1022.0</ele><time>2026-04-07T12:57:50.91Z</time></trkpt><trkpt lat="45.6783967" lon="11.20434"><ele>1020.0</ele><time>2026-04-07T12:57:51.911Z</time></trkpt><trkpt lat="45.6784417" lon="11.2045733"><ele>1018.0</ele><time>2026-04-07T12:57:52.91Z</time></trkpt><trkpt lat="45.6784867" lon="11.2048233"><ele>1016.0</ele><time>2026-04-07T12:57:53.911Z</time></trkpt><trkpt lat="45.67853" lon="11.2050367"><ele>1016.0</ele><time>2026-04-07T12:57:54.911Z</time></trkpt><trkpt lat="45.678565" lon="11.2052267"><ele>1016.0</ele><time>2026-04-07T12:57:55.91Z</time></trkpt><trkpt lat="45.67858" lon="11.2054033"><ele>1016.0</ele><time>2026-04-07T12:57:56.91Z</time></trkpt><trkpt lat="45.678585" lon="11.2055567"><ele>1016.0</ele><time>2026-04-07T12:57:57.911Z</time></trkpt><trkpt lat="45.6785767" lon="11.2056917"><ele>1017.25</ele><time>2026-04-07T12:57:58.911Z</time></trkpt><trkpt lat="45.67855" lon="11.20584"><ele>1018.5</ele><time>2026-04-07T12:57:59.911Z</time></trkpt><trkpt lat="45.6784967" lon="11.20599"><ele>1019.75</ele><time>2026-04-07T12:58:00.911Z</time></trkpt><trkpt lat="45.6784167" lon="11.2061467"><ele>1021.0</ele><time>2026-04-07T12:58:01.911Z</time></trkpt><trkpt lat="45.6783117" lon="11.2063117"><ele>1021.0</ele><time>2026-04-07T12:58:02.911Z</time></trkpt><trkpt lat="45.6781967" lon="11.2064717"><ele>1021.0</ele><time>2026-04-07T12:58:03.91Z</time></trkpt><trkpt lat="45.6780767" lon="11.2066483"><ele>1021.0</ele><time>2026-04-07T12:58:04.91Z</time></trkpt><trkpt lat="45.6779533" lon="11.2068433"><ele>1020.3333333333333</ele><time>2026-04-07T12:58:05.911Z</time></trkpt><trkpt lat="45.6778467" lon="11.20705"><ele>1019.6666666666667</ele><time>2026-04-07T12:58:06.91Z</time></trkpt><trkpt lat="45.6777483" lon="11.2072517"><ele>1019.0</ele><time>2026-04-07T12:58:07.91Z</time></trkpt><trkpt lat="45.6776567" lon="11.207445"><ele>1021.5</ele><time>2026-04-07T12:58:08.911Z</time></trkpt><trkpt lat="45.6775833" lon="11.2076233"><ele>1024.0</ele><time>2026-04-07T12:58:09.911Z</time></trkpt><trkpt lat="45.6775183" lon="11.2077867"><ele>1026.5</ele><time>2026-04-07T12:58:10.911Z</time></trkpt><trkpt lat="45.677455" lon="11.2079367"><ele>1029.0</ele><time>2026-04-07T12:58:11.911Z</time></trkpt><trkpt lat="45.6774083" lon="11.2080667"><ele>1028.6666666666667</ele><time>2026-04-07T12:58:12.911Z</time></trkpt><trkpt lat="45.6773633" lon="11.208175"><ele>1028.3333333333333</ele><time>2026-04-07T12:58:13.911Z</time></trkpt><trkpt lat="45.6773333" lon="11.2082817"><ele>1028.0</ele><time>2026-04-07T12:58:14.911Z</time></trkpt><trkpt lat="45.6773067" lon="11.2084117"><ele>1027.6666666666665</ele><time>2026-04-07T12:58:15.911Z</time></trkpt><trkpt lat="45.6772967" lon="11.20853"><ele>1027.3333333333333</ele><time>2026-04-07T12:58:16.911Z</time></trkpt><trkpt lat="45.677295" lon="11.2086583"><ele>1027.0</ele><time>2026-04-07T12:58:17.911Z</time></trkpt><trkpt lat="45.677325" lon="11.2087933"><ele>1027.0</ele><time>2026-04-07T12:58:18.91Z</time></trkpt><trkpt lat="45.677375" lon="11.2089367"><ele>1027.0</ele><time>2026-04-07T12:58:19.911Z</time></trkpt><trkpt lat="45.67741" lon="11.2090683"><ele>1027.0</ele><time>2026-04-07T12:58:20.911Z</time></trkpt><trkpt lat="45.6774333" lon="11.2091967"><ele>1027.0</ele><time>2026-04-07T12:58:21.911Z</time></trkpt><trkpt lat="45.6774417" lon="11.2093333"><ele>1027.0</ele><time>2026-04-07T12:58:22.911Z</time></trkpt><trkpt lat="45.67746" lon="11.2094417"><ele>1028.4</ele><time>2026-04-07T12:58:23.91Z</time></trkpt><trkpt lat="45.677535" lon="11.2096067"><ele>1029.8000000000002</ele><time>2026-04-07T12:58:25.91Z</time></trkpt><trkpt lat="45.677585" lon="11.2096983"><ele>1031.2</ele><time>2026-04-07T12:58:26.91Z</time></trkpt><trkpt lat="45.6776433" lon="11.2098167"><ele>1032.6000000000001</ele><time>2026-04-07T12:58:27.91Z</time></trkpt><trkpt lat="45.677705" lon="11.2099683"><ele>1034.0</ele><time>2026-04-07T12:58:28.911Z</time></trkpt><trkpt lat="45.6777667" lon="11.2101617"><ele>1033.0</ele><time>2026-04-07T12:58:29.91Z</time></trkpt><trkpt lat="45.6778417" lon="11.2103867"><ele>1032.0</ele><time>2026-04-07T12:58:30.91Z</time></trkpt><trkpt lat="45.6779117" lon="11.21061"><ele>1031.0</ele><time>2026-04-07T12:58:31.911Z</time></trkpt><trkpt lat="45.6779817" lon="11.210855"><ele>1031.0</ele><time>2026-04-07T12:58:32.911Z</time></trkpt><trkpt lat="45.6780583" lon="11.2110767"><ele>1031.0</ele><time>2026-04-07T12:58:33.911Z</time></trkpt><trkpt lat="45.6781417" lon="11.2112617"><ele>1031.0</ele><time>2026-04-07T12:58:34.911Z</time></trkpt><trkpt lat="45.6782133" lon="11.21143"><ele>1031.75</ele><time>2026-04-07T12:58:35.91Z</time></trkpt><trkpt lat="45.678285" lon="11.2115883"><ele>1032.5</ele><time>2026-04-07T12:58:36.91Z</time></trkpt><trkpt lat="45.6783583" lon="11.211755"><ele>1033.25</ele><time>2026-04-07T12:58:37.911Z</time></trkpt><trkpt lat="45.67843" lon="11.211925"><ele>1034.0</ele><time>2026-04-07T12:58:38.911Z</time></trkpt><trkpt lat="45.6785017" lon="11.2120767"><ele>1034.0</ele><time>2026-04-07T12:58:39.911Z</time></trkpt><trkpt lat="45.67857" lon="11.2122167"><ele>1034.0</ele><time>2026-04-07T12:58:40.911Z</time></trkpt><trkpt lat="45.6786283" lon="11.2123417"><ele>1034.0</ele><time>2026-04-07T12:58:41.911Z</time></trkpt><trkpt lat="45.6786833" lon="11.2124733"><ele>1034.0</ele><time>2026-04-07T12:58:42.911Z</time></trkpt><trkpt lat="45.6787233" lon="11.2126233"><ele>1034.0</ele><time>2026-04-07T12:58:43.91Z</time></trkpt><trkpt lat="45.6787583" lon="11.2127933"><ele>1029.25</ele><time>2026-04-07T12:58:44.91Z</time></trkpt><trkpt lat="45.6787883" lon="11.2129683"><ele>1024.5</ele><time>2026-04-07T12:58:45.91Z</time></trkpt><trkpt lat="45.6788217" lon="11.2131567"><ele>1019.75</ele><time>2026-04-07T12:58:46.911Z</time></trkpt><trkpt lat="45.67886" lon="11.213355"><ele>1015.0</ele><time>2026-04-07T12:58:47.91Z</time></trkpt><trkpt lat="45.67887" lon="11.2135667"><ele>1015.0</ele><time>2026-04-07T12:58:48.911Z</time></trkpt><trkpt lat="45.678865" lon="11.213805"><ele>1015.0</ele><time>2026-04-07T12:58:49.911Z</time></trkpt><trkpt lat="45.6788617" lon="11.214055"><ele>1015.0</ele><time>2026-04-07T12:58:50.91Z</time></trkpt><trkpt lat="45.6788667" lon="11.2143083"><ele>1015.5</ele><time>2026-04-07T12:58:51.911Z</time></trkpt><trkpt lat="45.67885" lon="11.2145417"><ele>1016.0</ele><time>2026-04-07T12:58:52.911Z</time></trkpt><trkpt lat="45.6788367" lon="11.2147467"><ele>1016.5</ele><time>2026-04-07T12:58:53.911Z</time></trkpt><trkpt lat="45.678835" lon="11.21492"><ele>1017.0</ele><time>2026-04-07T12:58:54.91Z</time></trkpt><trkpt lat="45.6788467" lon="11.2150733"><ele>1017.0</ele><time>2026-04-07T12:58:55.91Z</time></trkpt><trkpt lat="45.6788967" lon="11.2151983"><ele>1017.0</ele><time>2026-04-07T12:58:56.911Z</time></trkpt><trkpt lat="45.67896" lon="11.2152933"><ele>1017.0</ele><time>2026-04-07T12:58:57.91Z</time></trkpt><trkpt lat="45.679015" lon="11.2153867"><ele>1017.0</ele><time>2026-04-07T12:58:58.91Z</time></trkpt><trkpt lat="45.67907" lon="11.2155"><ele>1017.0</ele><time>2026-04-07T12:58:59.91Z</time></trkpt><trkpt lat="45.6791" lon="11.2156617"><ele>1020.25</ele><time>2026-04-07T12:59:00.909Z</time></trkpt><trkpt lat="45.6791167" lon="11.21585"><ele>1023.5</ele><time>2026-04-07T12:59:01.909Z</time></trkpt><trkpt lat="45.679125" lon="11.216065"><ele>1026.75</ele><time>2026-04-07T12:59:02.91Z</time></trkpt><trkpt lat="45.679115" lon="11.2162567"><ele>1030.0</ele><time>2026-04-07T12:59:03.91Z</time></trkpt><trkpt lat="45.6791067" lon="11.2164267"><ele>1031.6666666666665</ele><time>2026-04-07T12:59:04.909Z</time></trkpt><trkpt lat="45.6791267" lon="11.21657"><ele>1033.3333333333333</ele><time>2026-04-07T12:59:05.91Z</time></trkpt><trkpt lat="45.679175" lon="11.21668"><ele>1035.0</ele><time>2026-04-07T12:59:06.91Z</time></trkpt><trkpt lat="45.6792367" lon="11.2167433"><ele>1036.6666666666667</ele><time>2026-04-07T12:59:07.909Z</time></trkpt><trkpt lat="45.67932" lon="11.2167933"><ele>1038.3333333333335</ele><time>2026-04-07T12:59:08.909Z</time></trkpt><trkpt lat="45.6794" lon="11.2168517"><ele>1040.0</ele><time>2026-04-07T12:59:09.909Z</time></trkpt><trkpt lat="45.6794583" lon="11.2169467"><ele>1033.6</ele><time>2026-04-07T12:59:10.91Z</time></trkpt><trkpt lat="45.6794967" lon="11.21706"><ele>1027.2</ele><time>2026-04-07T12:59:11.91Z</time></trkpt><trkpt lat="45.67951" lon="11.2172133"><ele>1020.8</ele><time>2026-04-07T12:59:12.91Z</time></trkpt><trkpt lat="45.6795" lon="11.2173883"><ele>1014.4</ele><time>2026-04-07T12:59:13.91Z</time></trkpt><trkpt lat="45.679495" lon="11.2175717"><ele>1008.0</ele><time>2026-04-07T12:59:14.91Z</time></trkpt><trkpt lat="45.6794867" lon="11.2177283"><ele>1008.0</ele><time>2026-04-07T12:59:15.909Z</time></trkpt><trkpt lat="45.67948" lon="11.2178633"><ele>1008.0</ele><time>2026-04-07T12:59:16.91Z</time></trkpt><trkpt lat="45.679455" lon="11.2179583"><ele>1008.0</ele><time>2026-04-07T12:59:17.909Z</time></trkpt><trkpt lat="45.6794067" lon="11.2180333"><ele>1008.0</ele><time>2026-04-07T12:59:18.91Z</time></trkpt><trkpt lat="45.6793433" lon="11.21807"><ele>1008.0</ele><time>2026-04-07T12:59:19.909Z</time></trkpt><trkpt lat="45.6792533" lon="11.2180917"><ele>1008.0</ele><time>2026-04-07T12:59:20.91Z</time></trkpt><trkpt lat="45.679125" lon="11.2181067"><ele>1011.0</ele><time>2026-04-07T12:59:21.91Z</time></trkpt><trkpt lat="45.6790017" lon="11.218115"><ele>1014.0</ele><time>2026-04-07T12:59:22.91Z</time></trkpt><trkpt lat="45.67889" lon="11.2181233"><ele>1017.0</ele><time>2026-04-07T12:59:23.91Z</time></trkpt><trkpt lat="45.6787967" lon="11.21814"><ele>1020.0</ele><time>2026-04-07T12:59:24.91Z</time></trkpt><trkpt lat="45.6787183" lon="11.218165"><ele>1023.0</ele><time>2026-04-07T12:59:25.909Z</time></trkpt><trkpt lat="45.678635" lon="11.2182233"><ele>1024.0</ele><time>2026-04-07T12:59:27.91Z</time></trkpt><trkpt lat="45.6785883" lon="11.2183033"><ele>1025.0</ele><time>2026-04-07T13:00:03.91Z</time></trkpt><trkpt lat="45.67853" lon="11.2184267"><ele>1026.0</ele><time>2026-04-07T13:00:05.91Z</time></trkpt><trkpt lat="45.678515" lon="11.2185367"><ele>1027.0</ele><time>2026-04-07T13:00:06.91Z</time></trkpt><trkpt lat="45.6785283" lon="11.2186817"><ele>1028.0</ele><time>2026-04-07T13:00:07.91Z</time></trkpt><trkpt lat="45.6785583" lon="11.2188567"><ele>1025.75</ele><time>2026-04-07T13:00:08.909Z</time></trkpt><trkpt lat="45.6785983" lon="11.2190383"><ele>1023.5</ele><time>2026-04-07T13:00:09.909Z</time></trkpt><trkpt lat="45.6786367" lon="11.219215"><ele>1021.25</ele><time>2026-04-07T13:00:10.91Z</time></trkpt><trkpt lat="45.67868" lon="11.219405"><ele>1019.0</ele><time>2026-04-07T13:00:11.91Z</time></trkpt><trkpt lat="45.678715" lon="11.2196033"><ele>1018.0</ele><time>2026-04-07T13:00:12.909Z</time></trkpt><trkpt lat="45.6787483" lon="11.2198083"><ele>1017.0</ele><time>2026-04-07T13:00:13.91Z</time></trkpt><trkpt lat="45.67878" lon="11.2200067"><ele>1016.0</ele><time>2026-04-07T13:00:14.91Z</time></trkpt><trkpt lat="45.678815" lon="11.22022"><ele>1015.0</ele><time>2026-04-07T13:00:15.91Z</time></trkpt><trkpt lat="45.678845" lon="11.2204217"><ele>1014.75</ele><time>2026-04-07T13:00:16.91Z</time></trkpt><trkpt lat="45.6788833" lon="11.2206167"><ele>1014.5</ele><time>2026-04-07T13:00:17.909Z</time></trkpt><trkpt lat="45.6789217" lon="11.22081"><ele>1014.25</ele><time>2026-04-07T13:00:18.91Z</time></trkpt><trkpt lat="45.6789467" lon="11.2209983"><ele>1014.0</ele><time>2026-04-07T13:00:19.909Z</time></trkpt><trkpt lat="45.6789767" lon="11.2211683"><ele>1014.0</ele><time>2026-04-07T13:00:20.91Z</time></trkpt><trkpt lat="45.6790083" lon="11.22133"><ele>1014.0000000000001</ele><time>2026-04-07T13:00:21.91Z</time></trkpt><trkpt lat="45.6790483" lon="11.2214733"><ele>1014.0000000000001</ele><time>2026-04-07T13:00:22.91Z</time></trkpt><trkpt lat="45.6790983" lon="11.22161"><ele>1014.0</ele><time>2026-04-07T13:00:23.91Z</time></trkpt><trkpt lat="45.6791683" lon="11.2217233"><ele>1014.0</ele><time>2026-04-07T13:00:24.91Z</time></trkpt><trkpt lat="45.6792517" lon="11.2218083"><ele>1014.75</ele><time>2026-04-07T13:00:25.909Z</time></trkpt><trkpt lat="45.6793533" lon="11.221865"><ele>1015.5</ele><time>2026-04-07T13:00:26.909Z</time></trkpt><trkpt lat="45.679475" lon="11.2218667"><ele>1016.25</ele><time>2026-04-07T13:00:27.909Z</time></trkpt><trkpt lat="45.6796083" lon="11.22182"><ele>1017.0</ele><time>2026-04-07T13:00:28.91Z</time></trkpt><trkpt lat="45.6797633" lon="11.2217433"><ele>1017.6666666666667</ele><time>2026-04-07T13:00:29.91Z</time></trkpt><trkpt lat="45.6799317" lon="11.2216583"><ele>1018.3333333333334</ele><time>2026-04-07T13:00:30.91Z</time></trkpt><trkpt lat="45.680095" lon="11.221565"><ele>1019.0</ele><time>2026-04-07T13:00:31.91Z</time></trkpt><trkpt lat="45.6802667" lon="11.2214583"><ele>1022.0</ele><time>2026-04-07T13:00:32.91Z</time></trkpt><trkpt lat="45.6804317" lon="11.2213533"><ele>1025.0</ele><time>2026-04-07T13:00:33.91Z</time></trkpt><trkpt lat="45.68058" lon="11.2212583"><ele>1028.0</ele><time>2026-04-07T13:00:34.91Z</time></trkpt><trkpt lat="45.6807117" lon="11.2211817"><ele>1028.0</ele><time>2026-04-07T13:00:35.91Z</time></trkpt><trkpt lat="45.6808267" lon="11.2211117"><ele>1028.0</ele><time>2026-04-07T13:00:36.909Z</time></trkpt><trkpt lat="45.6809333" lon="11.22106"><ele>1028.0</ele><time>2026-04-07T13:00:37.909Z</time></trkpt><trkpt lat="45.6810433" lon="11.2210317"><ele>1028.0</ele><time>2026-04-07T13:00:38.91Z</time></trkpt><trkpt lat="45.6811483" lon="11.2210383"><ele>1027.8</ele><time>2026-04-07T13:00:39.91Z</time></trkpt><trkpt lat="45.6812583" lon="11.2210817"><ele>1027.6</ele><time>2026-04-07T13:00:40.91Z</time></trkpt><trkpt lat="45.6813633" lon="11.2211633"><ele>1027.4</ele><time>2026-04-07T13:00:41.91Z</time></trkpt><trkpt lat="45.68146" lon="11.2212417"><ele>1027.2</ele><time>2026-04-07T13:00:42.91Z</time></trkpt><trkpt lat="45.6815567" lon="11.2212933"><ele>1027.0</ele><time>2026-04-07T13:00:43.91Z</time></trkpt><trkpt lat="45.6816533" lon="11.2212933"><ele>1027.0</ele><time>2026-04-07T13:00:44.91Z</time></trkpt><trkpt lat="45.681745" lon="11.2212433"><ele>1027.0</ele><time>2026-04-07T13:00:45.909Z</time></trkpt><trkpt lat="45.681835" lon="11.221165"><ele>1027.0</ele><time>2026-04-07T13:00:46.909Z</time></trkpt><trkpt lat="45.68193" lon="11.22111"><ele>1027.0</ele><time>2026-04-07T13:00:47.91Z</time></trkpt><trkpt lat="45.6820333" lon="11.221115"><ele>1027.0</ele><time>2026-04-07T13:00:48.91Z</time></trkpt><trkpt lat="45.682155" lon="11.2211533"><ele>1025.5</ele><time>2026-04-07T13:00:49.91Z</time></trkpt><trkpt lat="45.6822917" lon="11.2212167"><ele>1024.0</ele><time>2026-04-07T13:00:50.909Z</time></trkpt><trkpt lat="45.6824333" lon="11.2212817"><ele>1022.5</ele><time>2026-04-07T13:00:51.909Z</time></trkpt><trkpt lat="45.6825567" lon="11.2213367"><ele>1021.0</ele><time>2026-04-07T13:00:52.909Z</time></trkpt><trkpt lat="45.682635" lon="11.2214017"><ele>1021.0</ele><time>2026-04-07T13:00:53.909Z</time></trkpt><trkpt lat="45.6826967" lon="11.2214717"><ele>1020.9999999999999</ele><time>2026-04-07T13:00:54.91Z</time></trkpt><trkpt lat="45.68275" lon="11.221565"><ele>1020.9999999999999</ele><time>2026-04-07T13:00:55.91Z</time></trkpt><trkpt lat="45.6827967" lon="11.22168"><ele>1021.0</ele><time>2026-04-07T13:00:56.91Z</time></trkpt><trkpt lat="45.6828333" lon="11.22183"><ele>1021.0</ele><time>2026-04-07T13:00:57.91Z</time></trkpt><trkpt lat="45.6828767" lon="11.2220067"><ele>1020.25</ele><time>2026-04-07T13:00:58.91Z</time></trkpt><trkpt lat="45.6829383" lon="11.2221983"><ele>1019.5</ele><time>2026-04-07T13:00:59.91Z</time></trkpt><trkpt lat="45.6829867" lon="11.2223833"><ele>1018.75</ele><time>2026-04-07T13:01:00.91Z</time></trkpt><trkpt lat="45.68305" lon="11.2225567"><ele>1018.0</ele><time>2026-04-07T13:01:01.91Z</time></trkpt><trkpt lat="45.6831" lon="11.2227467"><ele>1018.0</ele><time>2026-04-07T13:01:02.91Z</time></trkpt><trkpt lat="45.6831633" lon="11.222915"><ele>1018.0</ele><time>2026-04-07T13:01:03.91Z</time></trkpt><trkpt lat="45.6832333" lon="11.2230533"><ele>1018.0</ele><time>2026-04-07T13:01:04.909Z</time></trkpt><trkpt lat="45.6832817" lon="11.2231817"><ele>1018.0</ele><time>2026-04-07T13:01:05.91Z</time></trkpt><trkpt lat="45.6833117" lon="11.22331"><ele>1018.0</ele><time>2026-04-07T13:01:06.909Z</time></trkpt><trkpt lat="45.6833117" lon="11.22344"><ele>1017.0</ele><time>2026-04-07T13:01:07.909Z</time></trkpt><trkpt lat="45.6832883" lon="11.2235783"><ele>1016.0</ele><time>2026-04-07T13:01:08.91Z</time></trkpt><trkpt lat="45.6832617" lon="11.2237483"><ele>1015.0</ele><time>2026-04-07T13:01:09.91Z</time></trkpt><trkpt lat="45.683235" lon="11.22392"><ele>1014.0</ele><time>2026-04-07T13:01:10.91Z</time></trkpt><trkpt lat="45.6832267" lon="11.2240733"><ele>1012.8000000000001</ele><time>2026-04-07T13:01:11.909Z</time></trkpt><trkpt lat="45.68324" lon="11.224215"><ele>1011.6000000000001</ele><time>2026-04-07T13:01:12.909Z</time></trkpt><trkpt lat="45.6832833" lon="11.22435"><ele>1010.4</ele><time>2026-04-07T13:01:13.909Z</time></trkpt><trkpt lat="45.6833483" lon="11.224465"><ele>1009.2</ele><time>2026-04-07T13:01:14.909Z</time></trkpt><trkpt lat="45.6834317" lon="11.2245667"><ele>1008.0</ele><time>2026-04-07T13:01:15.91Z</time></trkpt><trkpt lat="45.68352" lon="11.2246533"><ele>1006.4</ele><time>2026-04-07T13:01:16.91Z</time></trkpt><trkpt lat="45.6836167" lon="11.2247117"><ele>1004.8</ele><time>2026-04-07T13:01:17.91Z</time></trkpt><trkpt lat="45.6837233" lon="11.2247267"><ele>1003.2</ele><time>2026-04-07T13:01:18.91Z</time></trkpt><trkpt lat="45.6838367" lon="11.2247117"><ele>1001.6</ele><time>2026-04-07T13:01:19.909Z</time></trkpt><trkpt lat="45.683935" lon="11.2246567"><ele>1000.0</ele><time>2026-04-07T13:01:20.91Z</time></trkpt><trkpt lat="45.6840217" lon="11.2245683"><ele>1000.0</ele><time>2026-04-07T13:01:21.909Z</time></trkpt><trkpt lat="45.6841133" lon="11.224455"><ele>1000.0</ele><time>2026-04-07T13:01:22.91Z</time></trkpt><trkpt lat="45.68422" lon="11.2243117"><ele>1000.0</ele><time>2026-04-07T13:01:23.91Z</time></trkpt><trkpt lat="45.6843283" lon="11.2241783"><ele>1000.0</ele><time>2026-04-07T13:01:24.91Z</time></trkpt><trkpt lat="45.6844367" lon="11.2240583"><ele>1000.4</ele><time>2026-04-07T13:01:25.91Z</time></trkpt><trkpt lat="45.68454" lon="11.2239517"><ele>1000.8</ele><time>2026-04-07T13:01:26.91Z</time></trkpt><trkpt lat="45.6846367" lon="11.22389"><ele>1001.2</ele><time>2026-04-07T13:01:27.91Z</time></trkpt><trkpt lat="45.6847367" lon="11.2238517"><ele>1001.6</ele><time>2026-04-07T13:01:28.909Z</time></trkpt><trkpt lat="45.6848383" lon="11.2238733"><ele>1002.0</ele><time>2026-04-07T13:01:29.91Z</time></trkpt><trkpt lat="45.6849267" lon="11.2239433"><ele>1001.75</ele><time>2026-04-07T13:01:30.91Z</time></trkpt><trkpt lat="45.6850183" lon="11.2240417"><ele>1001.5</ele><time>2026-04-07T13:01:31.909Z</time></trkpt><trkpt lat="45.68513" lon="11.2241367"><ele>1001.25</ele><time>2026-04-07T13:01:32.909Z</time></trkpt><trkpt lat="45.68526" lon="11.2242333"><ele>1001.0</ele><time>2026-04-07T13:01:33.91Z</time></trkpt><trkpt lat="45.685395" lon="11.2243"><ele>1001.0</ele><time>2026-04-07T13:01:34.909Z</time></trkpt><trkpt lat="45.6855217" lon="11.224345"><ele>1001.0</ele><time>2026-04-07T13:01:35.909Z</time></trkpt><trkpt lat="45.6856567" lon="11.2243767"><ele>1001.0</ele><time>2026-04-07T13:01:36.91Z</time></trkpt><trkpt lat="45.6858117" lon="11.2243783"><ele>1001.0</ele><time>2026-04-07T13:01:37.91Z</time></trkpt><trkpt lat="45.6859617" lon="11.2243833"><ele>998.5</ele><time>2026-04-07T13:01:38.91Z</time></trkpt><trkpt lat="45.686105" lon="11.224385"><ele>996.0</ele><time>2026-04-07T13:01:39.909Z</time></trkpt><trkpt lat="45.6862367" lon="11.2243917"><ele>993.5</ele><time>2026-04-07T13:01:40.91Z</time></trkpt><trkpt lat="45.6863617" lon="11.2243917"><ele>991.0</ele><time>2026-04-07T13:01:41.909Z</time></trkpt><trkpt lat="45.686475" lon="11.2243967"><ele>991.0</ele><time>2026-04-07T13:01:42.91Z</time></trkpt><trkpt lat="45.68658" lon="11.2244483"><ele>990.9999999999999</ele><time>2026-04-07T13:01:43.91Z</time></trkpt><trkpt lat="45.6866633" lon="11.224535"><ele>990.9999999999999</ele><time>2026-04-07T13:01:44.91Z</time></trkpt><trkpt lat="45.6867333" lon="11.2246583"><ele>991.0</ele><time>2026-04-07T13:01:45.91Z</time></trkpt><trkpt lat="45.68679" lon="11.224785"><ele>991.0</ele><time>2026-04-07T13:01:46.91Z</time></trkpt><trkpt lat="45.68683" lon="11.2249033"><ele>990.8333333333333</ele><time>2026-04-07T13:01:47.91Z</time></trkpt><trkpt lat="45.6868683" lon="11.22501"><ele>990.6666666666666</ele><time>2026-04-07T13:01:48.91Z</time></trkpt><trkpt lat="45.6869017" lon="11.2251083"><ele>990.5</ele><time>2026-04-07T13:01:49.91Z</time></trkpt><trkpt lat="45.6869433" lon="11.2251967"><ele>990.3333333333333</ele><time>2026-04-07T13:01:50.909Z</time></trkpt><trkpt lat="45.6869883" lon="11.2252733"><ele>990.1666666666666</ele><time>2026-04-07T13:01:51.91Z</time></trkpt><trkpt lat="45.6870467" lon="11.2253467"><ele>990.0</ele><time>2026-04-07T13:01:52.91Z</time></trkpt><trkpt lat="45.6871117" lon="11.225395"><ele>990.4</ele><time>2026-04-07T13:01:53.91Z</time></trkpt><trkpt lat="45.6872" lon="11.2254567"><ele>990.8</ele><time>2026-04-07T13:01:55.909Z</time></trkpt><trkpt lat="45.6872767" lon="11.22548"><ele>991.2</ele><time>2026-04-07T13:01:57.91Z</time></trkpt><trkpt lat="45.6874217" lon="11.2254683"><ele>991.6</ele><time>2026-04-07T13:02:05.909Z</time></trkpt><trkpt lat="45.6875367" lon="11.2254583"><ele>992.0</ele><time>2026-04-07T13:02:07.909Z</time></trkpt><trkpt lat="45.6876533" lon="11.22546"><ele>993.6666666666667</ele><time>2026-04-07T13:02:09.91Z</time></trkpt><trkpt lat="45.6877817" lon="11.22547"><ele>995.3333333333334</ele><time>2026-04-07T13:02:11.91Z</time></trkpt><trkpt lat="45.687855" lon="11.2254733"><ele>997.0</ele><time>2026-04-07T13:02:12.91Z</time></trkpt><trkpt lat="45.6879233" lon="11.22548"><ele>998.6666666666667</ele><time>2026-04-07T13:02:13.91Z</time></trkpt><trkpt lat="45.6879883" lon="11.225495"><ele>1000.3333333333334</ele><time>2026-04-07T13:02:14.91Z</time></trkpt><trkpt lat="45.68805" lon="11.2255133"><ele>1002.0</ele><time>2026-04-07T13:02:15.909Z</time></trkpt><trkpt lat="45.68817" lon="11.22557"><ele>1002.0</ele><time>2026-04-07T13:02:17.91Z</time></trkpt><trkpt lat="45.6882767" lon="11.2256067"><ele>1002.0</ele><time>2026-04-07T13:02:19.909Z</time></trkpt><trkpt lat="45.6883833" lon="11.2256417"><ele>1002.0</ele><time>2026-04-07T13:02:21.909Z</time></trkpt><trkpt lat="45.6884867" lon="11.22569"><ele>1002.0</ele><time>2026-04-07T13:02:23.909Z</time></trkpt><trkpt lat="45.6885917" lon="11.225725"><ele>1002.0</ele><time>2026-04-07T13:02:25.909Z</time></trkpt><trkpt lat="45.6886733" lon="11.22575"><ele>1003.6</ele><time>2026-04-07T13:02:27.909Z</time></trkpt><trkpt lat="45.6887133" lon="11.2258367"><ele>1005.2</ele><time>2026-04-07T13:02:29.908Z</time></trkpt><trkpt lat="45.6887083" lon="11.225945"><ele>1006.8</ele><time>2026-04-07T13:02:31.909Z</time></trkpt><trkpt lat="45.6886533" lon="11.2260683"><ele>1008.4</ele><time>2026-04-07T13:02:33.908Z</time></trkpt><trkpt lat="45.6885733" lon="11.2261967"><ele>1010.0</ele><time>2026-04-07T13:02:35.908Z</time></trkpt><trkpt lat="45.688475" lon="11.2263017"><ele>1010.0</ele><time>2026-04-07T13:02:37.909Z</time></trkpt><trkpt lat="45.688395" lon="11.226415"><ele>1010.0</ele><time>2026-04-07T13:02:39.909Z</time></trkpt><trkpt lat="45.68831" lon="11.2265083"><ele>1010.0</ele><time>2026-04-07T13:02:41.909Z</time></trkpt><trkpt lat="45.6882233" lon="11.2265983"><ele>1010.0</ele><time>2026-04-07T13:02:43.909Z</time></trkpt><trkpt lat="45.6881617" lon="11.2266883"><ele>1010.0</ele><time>2026-04-07T13:02:45.908Z</time></trkpt><trkpt lat="45.6881067" lon="11.2267567"><ele>1013.0000000000001</ele><time>2026-04-07T13:02:47.909Z</time></trkpt><trkpt lat="45.6880733" lon="11.2268617"><ele>1016.0</ele><time>2026-04-07T13:02:50.908Z</time></trkpt><trkpt lat="45.6881033" lon="11.226945"><ele>1019.0</ele><time>2026-04-07T13:02:52.909Z</time></trkpt><trkpt lat="45.68816" lon="11.2270183"><ele>1022.0</ele><time>2026-04-07T13:02:54.908Z</time></trkpt><trkpt lat="45.6882367" lon="11.2271183"><ele>1025.0</ele><time>2026-04-07T13:02:56.909Z</time></trkpt><trkpt lat="45.6883167" lon="11.2271933"><ele>1028.0</ele><time>2026-04-07T13:02:58.909Z</time></trkpt><trkpt lat="45.688425" lon="11.227215"><ele>1028.0</ele><time>2026-04-07T13:03:00.909Z</time></trkpt><trkpt lat="45.688545" lon="11.2272"><ele>1028.0</ele><time>2026-04-07T13:03:02.909Z</time></trkpt><trkpt lat="45.6886083" lon="11.2272067"><ele>1028.0</ele><time>2026-04-07T13:03:03.909Z</time></trkpt><trkpt lat="45.6887383" lon="11.2272433"><ele>1028.0</ele><time>2026-04-07T13:03:05.909Z</time></trkpt><trkpt lat="45.6887967" lon="11.2272783"><ele>1028.0</ele><time>2026-04-07T13:03:06.909Z</time></trkpt><trkpt lat="45.6888817" lon="11.2273467"><ele>1034.4</ele><time>2026-04-07T13:03:08.908Z</time></trkpt><trkpt lat="45.688955" lon="11.2274117"><ele>1040.8</ele><time>2026-04-07T13:03:10.909Z</time></trkpt><trkpt lat="45.6890283" lon="11.2274817"><ele>1047.2</ele><time>2026-04-07T13:03:12.909Z</time></trkpt><trkpt lat="45.6890917" lon="11.227545"><ele>1053.6</ele><time>2026-04-07T13:03:14.908Z</time></trkpt><trkpt lat="45.6891667" lon="11.2276283"><ele>1060.0</ele><time>2026-04-07T13:03:16.909Z</time></trkpt><trkpt lat="45.6892567" lon="11.22771"><ele>1060.0</ele><time>2026-04-07T13:03:18.909Z</time></trkpt><trkpt lat="45.6893817" lon="11.2277383"><ele>1060.0</ele><time>2026-04-07T13:03:20.909Z</time></trkpt><trkpt lat="45.689455" lon="11.2277467"><ele>1060.0</ele><time>2026-04-07T13:03:21.908Z</time></trkpt><trkpt lat="45.689525" lon="11.2277567"><ele>1060.0</ele><time>2026-04-07T13:03:22.909Z</time></trkpt><trkpt lat="45.68959" lon="11.2277633"><ele>1060.0</ele><time>2026-04-07T13:03:23.909Z</time></trkpt><trkpt lat="45.689665" lon="11.2277667"><ele>1060.0</ele><time>2026-04-07T13:03:24.908Z</time></trkpt><trkpt lat="45.6897383" lon="11.227765"><ele>1060.3333333333333</ele><time>2026-04-07T13:03:25.909Z</time></trkpt><trkpt lat="45.6898083" lon="11.2277617"><ele>1060.6666666666665</ele><time>2026-04-07T13:03:26.909Z</time></trkpt><trkpt lat="45.6898717" lon="11.22777"><ele>1061.0</ele><time>2026-04-07T13:03:27.909Z</time></trkpt><trkpt lat="45.6899867" lon="11.2278067"><ele>1061.3333333333333</ele><time>2026-04-07T13:03:29.908Z</time></trkpt><trkpt lat="45.6901117" lon="11.2278367"><ele>1061.6666666666667</ele><time>2026-04-07T13:03:31.908Z</time></trkpt><trkpt lat="45.690175" lon="11.2278467"><ele>1062.0</ele><time>2026-04-07T13:03:32.908Z</time></trkpt><trkpt lat="45.6902867" lon="11.227845"><ele>1062.0</ele><time>2026-04-07T13:03:34.909Z</time></trkpt><trkpt lat="45.6903183" lon="11.2279417"><ele>1062.0</ele><time>2026-04-07T13:03:38.909Z</time></trkpt><trkpt lat="45.6902417" lon="11.2280733"><ele>1062.0</ele><time>2026-04-07T13:03:41.909Z</time></trkpt><trkpt lat="45.6901967" lon="11.2281383"><ele>1062.0</ele><time>2026-04-07T13:03:42.908Z</time></trkpt><trkpt lat="45.6901383" lon="11.2281883"><ele>1062.0</ele><time>2026-04-07T13:03:43.909Z</time></trkpt><trkpt lat="45.6900583" lon="11.2282717"><ele>1062.0</ele><time>2026-04-07T13:03:45.908Z</time></trkpt><trkpt lat="45.6900033" lon="11.22835"><ele>1067.0</ele><time>2026-04-07T13:03:47.908Z</time></trkpt><trkpt lat="45.6899717" lon="11.2285133"><ele>1072.0</ele><time>2026-04-07T13:03:49.909Z</time></trkpt><trkpt lat="45.6899567" lon="11.2286183"><ele>1077.0</ele><time>2026-04-07T13:03:50.909Z</time></trkpt><trkpt lat="45.689945" lon="11.22873"><ele>1082.0</ele><time>2026-04-07T13:03:51.909Z</time></trkpt><trkpt lat="45.68993" lon="11.2288367"><ele>1087.0</ele><time>2026-04-07T13:03:52.909Z</time></trkpt><trkpt lat="45.6899033" lon="11.2289217"><ele>1092.0</ele><time>2026-04-07T13:03:53.908Z</time></trkpt><trkpt lat="45.6898817" lon="11.2290117"><ele>1094.6666666666667</ele><time>2026-04-07T13:03:54.908Z</time></trkpt><trkpt lat="45.68982" lon="11.2291367"><ele>1097.3333333333333</ele><time>2026-04-07T13:03:56.909Z</time></trkpt><trkpt lat="45.6897717" lon="11.22922"><ele>1100.0</ele><time>2026-04-07T13:03:58.909Z</time></trkpt><trkpt lat="45.6897633" lon="11.2293483"><ele>1102.6666666666665</ele><time>2026-04-07T13:04:11.908Z</time></trkpt><trkpt lat="45.6898133" lon="11.2294433"><ele>1105.3333333333333</ele><time>2026-04-07T13:04:13.908Z</time></trkpt><trkpt lat="45.6899" lon="11.2294917"><ele>1108.0</ele><time>2026-04-07T13:04:15.909Z</time></trkpt><trkpt lat="45.69001" lon="11.2294383"><ele>1108.0</ele><time>2026-04-07T13:04:17.909Z</time></trkpt><trkpt lat="45.69006" lon="11.2293783"><ele>1108.0</ele><time>2026-04-07T13:04:18.909Z</time></trkpt><trkpt lat="45.6901567" lon="11.2293167"><ele>1108.0</ele><time>2026-04-07T13:04:20.908Z</time></trkpt><trkpt lat="45.6902533" lon="11.229315"><ele>1108.0</ele><time>2026-04-07T13:04:22.909Z</time></trkpt><trkpt lat="45.690335" lon="11.229345"><ele>1108.0</ele><time>2026-04-07T13:04:24.908Z</time></trkpt><trkpt lat="45.6904067" lon="11.2294117"><ele>1108.0</ele><time>2026-04-07T13:04:26.909Z</time></trkpt><trkpt lat="45.69049" lon="11.2295367"><ele>1107.4</ele><time>2026-04-07T13:04:28.908Z</time></trkpt><trkpt lat="45.6905717" lon="11.229655"><ele>1106.8</ele><time>2026-04-07T13:04:30.909Z</time></trkpt><trkpt lat="45.690665" lon="11.2297083"><ele>1106.2</ele><time>2026-04-07T13:04:32.909Z</time></trkpt><trkpt lat="45.690785" lon="11.2296933"><ele>1105.6</ele><time>2026-04-07T13:04:34.909Z</time></trkpt><trkpt lat="45.690855" lon="11.22965"><ele>1105.0</ele><time>2026-04-07T13:04:35.909Z</time></trkpt><trkpt lat="45.6909133" lon="11.2295983"><ele>1105.0</ele><time>2026-04-07T13:04:36.909Z</time></trkpt><trkpt lat="45.6909717" lon="11.2295417"><ele>1105.0</ele><time>2026-04-07T13:04:37.909Z</time></trkpt><trkpt lat="45.6910383" lon="11.2294917"><ele>1105.0</ele><time>2026-04-07T13:04:39.909Z</time></trkpt><trkpt lat="45.691125" lon="11.229525"><ele>1105.0</ele><time>2026-04-07T13:04:42.909Z</time></trkpt><trkpt lat="45.6911917" lon="11.2296033"><ele>1105.0</ele><time>2026-04-07T13:04:45.909Z</time></trkpt><trkpt lat="45.6912917" lon="11.2296083"><ele>1105.0</ele><time>2026-04-07T13:08:21.907Z</time></trkpt><trkpt lat="45.6912283" lon="11.229605"><ele>1105.0</ele><time>2026-04-07T13:26:41.903Z</time></trkpt><trkpt lat="45.6911767" lon="11.2295233"><ele>1105.0</ele><time>2026-04-07T13:26:43.903Z</time></trkpt><trkpt lat="45.6911233" lon="11.22946"><ele>1105.0</ele><time>2026-04-07T13:26:45.902Z</time></trkpt><trkpt lat="45.6910583" lon="11.22948"><ele>1105.0</ele><time>2026-04-07T13:26:48.903Z</time></trkpt><trkpt lat="45.69099" lon="11.2295433"><ele>1105.0</ele><time>2026-04-07T13:26:51.903Z</time></trkpt><trkpt lat="45.69091" lon="11.2296067"><ele>1105.0</ele><time>2026-04-07T13:26:54.903Z</time></trkpt><trkpt lat="45.6908517" lon="11.229655"><ele>1105.0</ele><time>2026-04-07T13:26:56.903Z</time></trkpt><trkpt lat="45.6907933" lon="11.2296917"><ele>1105.0</ele><time>2026-04-07T13:26:59.903Z</time></trkpt><trkpt lat="45.69069" lon="11.2296533"><ele>1105.0</ele><time>2026-04-07T13:27:16.903Z</time></trkpt><trkpt lat="45.6906167" lon="11.2295267"><ele>1105.0</ele><time>2026-04-07T13:27:18.903Z</time></trkpt><trkpt lat="45.6905683" lon="11.229455"><ele>1105.0</ele><time>2026-04-07T13:27:19.902Z</time></trkpt><trkpt lat="45.69046" lon="11.2293617"><ele>1105.0</ele><time>2026-04-07T13:27:21.903Z</time></trkpt><trkpt lat="45.6903417" lon="11.229315"><ele>1105.0</ele><time>2026-04-07T13:27:23.903Z</time></trkpt><trkpt lat="45.6902317" lon="11.229305"><ele>1105.0</ele><time>2026-04-07T13:27:25.903Z</time></trkpt><trkpt lat="45.690115" lon="11.2293633"><ele>1105.0</ele><time>2026-04-07T13:27:27.903Z</time></trkpt><trkpt lat="45.69" lon="11.2294317"><ele>1105.4285714285713</ele><time>2026-04-07T13:27:29.903Z</time></trkpt><trkpt lat="45.6899333" lon="11.2294433"><ele>1105.857142857143</ele><time>2026-04-07T13:27:30.902Z</time></trkpt><trkpt lat="45.6898617" lon="11.229445"><ele>1106.2857142857142</ele><time>2026-04-07T13:27:31.903Z</time></trkpt><trkpt lat="45.6897867" lon="11.2294333"><ele>1106.7142857142858</ele><time>2026-04-07T13:27:32.902Z</time></trkpt><trkpt lat="45.68972" lon="11.2294083"><ele>1107.142857142857</ele><time>2026-04-07T13:27:33.903Z</time></trkpt><trkpt lat="45.6896517" lon="11.2293767"><ele>1107.5714285714284</ele><time>2026-04-07T13:27:34.903Z</time></trkpt><trkpt lat="45.68958" lon="11.2293367"><ele>1108.0</ele><time>2026-04-07T13:27:35.903Z</time></trkpt><trkpt lat="45.689495" lon="11.2293"><ele>1107.0</ele><time>2026-04-07T13:27:36.903Z</time></trkpt><trkpt lat="45.6893983" lon="11.2292783"><ele>1106.0</ele><time>2026-04-07T13:27:37.902Z</time></trkpt><trkpt lat="45.6892983" lon="11.229265"><ele>1105.0</ele><time>2026-04-07T13:27:38.902Z</time></trkpt><trkpt lat="45.6892117" lon="11.22926"><ele>1104.0</ele><time>2026-04-07T13:27:39.902Z</time></trkpt><trkpt lat="45.6891417" lon="11.22924"><ele>1103.0</ele><time>2026-04-07T13:27:40.903Z</time></trkpt><trkpt lat="45.68904" lon="11.2291867"><ele>1103.0</ele><time>2026-04-07T13:27:42.903Z</time></trkpt><trkpt lat="45.6889383" lon="11.2291517"><ele>1103.0</ele><time>2026-04-07T13:27:44.902Z</time></trkpt><trkpt lat="45.68887" lon="11.2291433"><ele>1103.0</ele><time>2026-04-07T13:27:45.903Z</time></trkpt><trkpt lat="45.68878" lon="11.2291517"><ele>1103.0</ele><time>2026-04-07T13:27:46.903Z</time></trkpt><trkpt lat="45.68868" lon="11.229175"><ele>1103.0</ele><time>2026-04-07T13:27:47.903Z</time></trkpt><trkpt lat="45.68859" lon="11.229195"><ele>1103.6666666666667</ele><time>2026-04-07T13:27:48.902Z</time></trkpt><trkpt lat="45.688495" lon="11.2292167"><ele>1104.3333333333335</ele><time>2026-04-07T13:27:49.903Z</time></trkpt><trkpt lat="45.6884183" lon="11.2292183"><ele>1105.0</ele><time>2026-04-07T13:27:50.903Z</time></trkpt><trkpt lat="45.6883317" lon="11.22921"><ele>1105.6666666666667</ele><time>2026-04-07T13:27:51.902Z</time></trkpt><trkpt lat="45.68825" lon="11.229205"><ele>1106.3333333333333</ele><time>2026-04-07T13:27:52.903Z</time></trkpt><trkpt lat="45.6881717" lon="11.2292067"><ele>1107.0</ele><time>2026-04-07T13:27:53.903Z</time></trkpt><trkpt lat="45.6881067" lon="11.2292283"><ele>1107.0</ele><time>2026-04-07T13:27:54.902Z</time></trkpt><trkpt lat="45.6880417" lon="11.2292783"><ele>1107.0</ele><time>2026-04-07T13:27:55.903Z</time></trkpt><trkpt lat="45.6879917" lon="11.2293583"><ele>1107.0</ele><time>2026-04-07T13:27:56.903Z</time></trkpt><trkpt lat="45.6879567" lon="11.2294417"><ele>1107.0</ele><time>2026-04-07T13:27:57.902Z</time></trkpt><trkpt lat="45.687925" lon="11.2295283"><ele>1107.0</ele><time>2026-04-07T13:27:58.903Z</time></trkpt><trkpt lat="45.6878917" lon="11.229605"><ele>1107.0</ele><time>2026-04-07T13:27:59.902Z</time></trkpt><trkpt lat="45.6878567" lon="11.2296817"><ele>1107.0</ele><time>2026-04-07T13:28:00.903Z</time></trkpt><trkpt lat="45.687815" lon="11.2297583"><ele>1107.5714285714287</ele><time>2026-04-07T13:28:01.902Z</time></trkpt><trkpt lat="45.6877783" lon="11.2298333"><ele>1108.142857142857</ele><time>2026-04-07T13:28:02.903Z</time></trkpt><trkpt lat="45.6877367" lon="11.2299067"><ele>1108.7142857142858</ele><time>2026-04-07T13:28:03.903Z</time></trkpt><trkpt lat="45.6876967" lon="11.22998"><ele>1109.2857142857142</ele><time>2026-04-07T13:28:04.902Z</time></trkpt><trkpt lat="45.6876167" lon="11.2301"><ele>1109.857142857143</ele><time>2026-04-07T13:28:06.903Z</time></trkpt><trkpt lat="45.68756" lon="11.2301517"><ele>1110.4285714285716</ele><time>2026-04-07T13:28:07.902Z</time></trkpt><trkpt lat="45.687495" lon="11.2301717"><ele>1111.0</ele><time>2026-04-07T13:28:08.902Z</time></trkpt><trkpt lat="45.6874267" lon="11.230155"><ele>1111.0</ele><time>2026-04-07T13:28:09.903Z</time></trkpt><trkpt lat="45.6873567" lon="11.2301433"><ele>1111.0</ele><time>2026-04-07T13:28:10.903Z</time></trkpt><trkpt lat="45.6872883" lon="11.2301233"><ele>1111.0</ele><time>2026-04-07T13:28:11.903Z</time></trkpt><trkpt lat="45.687175" lon="11.2300933"><ele>1111.0</ele><time>2026-04-07T13:28:13.903Z</time></trkpt><trkpt lat="45.68708" lon="11.2301067"><ele>1111.0</ele><time>2026-04-07T13:28:15.903Z</time></trkpt><trkpt lat="45.6870133" lon="11.2301717"><ele>1111.0</ele><time>2026-04-07T13:28:17.903Z</time></trkpt><trkpt lat="45.6869233" lon="11.2302817"><ele>1109.0</ele><time>2026-04-07T13:28:19.902Z</time></trkpt><trkpt lat="45.6868433" lon="11.230395"><ele>1107.0</ele><time>2026-04-07T13:28:21.903Z</time></trkpt><trkpt lat="45.6867733" lon="11.2305467"><ele>1105.0</ele><time>2026-04-07T13:28:23.903Z</time></trkpt><trkpt lat="45.6866883" lon="11.2306733"><ele>1103.0</ele><time>2026-04-07T13:28:25.903Z</time></trkpt><trkpt lat="45.68658" lon="11.2307633"><ele>1103.0</ele><time>2026-04-07T13:28:27.902Z</time></trkpt><trkpt lat="45.686515" lon="11.2308"><ele>1103.0</ele><time>2026-04-07T13:28:28.901Z</time></trkpt><trkpt lat="45.6864083" lon="11.2308517"><ele>1103.0</ele><time>2026-04-07T13:28:30.901Z</time></trkpt><trkpt lat="45.6862933" lon="11.23091"><ele>1103.0</ele><time>2026-04-07T13:28:32.902Z</time></trkpt><trkpt lat="45.6862283" lon="11.2309567"><ele>1103.0</ele><time>2026-04-07T13:28:33.901Z</time></trkpt><trkpt lat="45.6861667" lon="11.23101"><ele>1103.0</ele><time>2026-04-07T13:28:34.902Z</time></trkpt><trkpt lat="45.6861" lon="11.2310733"><ele>1101.6666666666667</ele><time>2026-04-07T13:28:35.902Z</time></trkpt><trkpt lat="45.68604" lon="11.2311483"><ele>1100.3333333333335</ele><time>2026-04-07T13:28:36.902Z</time></trkpt><trkpt lat="45.6859867" lon="11.231225"><ele>1099.0</ele><time>2026-04-07T13:28:37.901Z</time></trkpt><trkpt lat="45.6859367" lon="11.2313033"><ele>1097.6666666666667</ele><time>2026-04-07T13:28:38.902Z</time></trkpt><trkpt lat="45.68589" lon="11.2313667"><ele>1096.3333333333333</ele><time>2026-04-07T13:28:39.901Z</time></trkpt><trkpt lat="45.6858433" lon="11.2314283"><ele>1095.0</ele><time>2026-04-07T13:28:40.901Z</time></trkpt><trkpt lat="45.6857467" lon="11.2315083"><ele>1095.0</ele><time>2026-04-07T13:28:42.902Z</time></trkpt><trkpt lat="45.6856783" lon="11.23157"><ele>1095.0</ele><time>2026-04-07T13:28:44.902Z</time></trkpt><trkpt lat="45.68562" lon="11.2316633"><ele>1095.0</ele><time>2026-04-07T13:28:46.901Z</time></trkpt><trkpt lat="45.6855267" lon="11.2317733"><ele>1095.0</ele><time>2026-04-07T13:28:48.902Z</time></trkpt><trkpt lat="45.6854267" lon="11.2318667"><ele>1095.0</ele><time>2026-04-07T13:28:50.902Z</time></trkpt><trkpt lat="45.68536" lon="11.2319583"><ele>1095.0</ele><time>2026-04-07T13:28:52.901Z</time></trkpt><trkpt lat="45.6853067" lon="11.23206"><ele>1095.0</ele><time>2026-04-07T13:28:54.902Z</time></trkpt><trkpt lat="45.685275" lon="11.2321867"><ele>1095.0</ele><time>2026-04-07T13:28:56.902Z</time></trkpt><trkpt lat="45.6852683" lon="11.2323317"><ele>1095.0</ele><time>2026-04-07T13:28:58.902Z</time></trkpt><trkpt lat="45.685225" lon="11.2324917"><ele>1095.0</ele><time>2026-04-07T13:29:00.902Z</time></trkpt><trkpt lat="45.6851633" lon="11.2326033"><ele>1090.3333333333333</ele><time>2026-04-07T13:29:02.902Z</time></trkpt><trkpt lat="45.6850867" lon="11.23268"><ele>1085.6666666666667</ele><time>2026-04-07T13:29:04.902Z</time></trkpt><trkpt lat="45.684975" lon="11.2327867"><ele>1081.0</ele><time>2026-04-07T13:29:06.902Z</time></trkpt><trkpt lat="45.6849217" lon="11.232845"><ele>1076.3333333333335</ele><time>2026-04-07T13:29:07.902Z</time></trkpt><trkpt lat="45.6848633" lon="11.2328967"><ele>1071.6666666666667</ele><time>2026-04-07T13:29:08.902Z</time></trkpt><trkpt lat="45.6848033" lon="11.23294"><ele>1067.0</ele><time>2026-04-07T13:29:09.902Z</time></trkpt><trkpt lat="45.6847383" lon="11.2329783"><ele>1067.0</ele><time>2026-04-07T13:29:10.901Z</time></trkpt><trkpt lat="45.6846683" lon="11.233005"><ele>1067.0</ele><time>2026-04-07T13:29:11.902Z</time></trkpt><trkpt lat="45.6846017" lon="11.2330333"><ele>1067.0</ele><time>2026-04-07T13:29:12.902Z</time></trkpt><trkpt lat="45.684535" lon="11.23306"><ele>1067.0</ele><time>2026-04-07T13:29:13.902Z</time></trkpt><trkpt lat="45.684425" lon="11.2331017"><ele>1067.0</ele><time>2026-04-07T13:29:15.902Z</time></trkpt><trkpt lat="45.684335" lon="11.233175"><ele>1067.0</ele><time>2026-04-07T13:29:17.902Z</time></trkpt><trkpt lat="45.6842917" lon="11.2332533"><ele>1064.1666666666667</ele><time>2026-04-07T13:29:19.902Z</time></trkpt><trkpt lat="45.684255" lon="11.2333667"><ele>1061.3333333333335</ele><time>2026-04-07T13:29:21.902Z</time></trkpt><trkpt lat="45.6841983" lon="11.2334817"><ele>1058.5</ele><time>2026-04-07T13:29:23.902Z</time></trkpt><trkpt lat="45.6841267" lon="11.2335367"><ele>1055.6666666666667</ele><time>2026-04-07T13:29:25.902Z</time></trkpt><trkpt lat="45.6840467" lon="11.2335783"><ele>1052.8333333333333</ele><time>2026-04-07T13:29:27.902Z</time></trkpt><trkpt lat="45.68398" lon="11.2336767"><ele>1050.0</ele><time>2026-04-07T13:29:29.902Z</time></trkpt><trkpt lat="45.6839417" lon="11.23383"><ele>1050.0</ele><time>2026-04-07T13:29:31.901Z</time></trkpt><trkpt lat="45.6839167" lon="11.2339183"><ele>1050.0</ele><time>2026-04-07T13:29:32.902Z</time></trkpt><trkpt lat="45.6838833" lon="11.2340017"><ele>1050.0</ele><time>2026-04-07T13:29:33.902Z</time></trkpt><trkpt lat="45.68384" lon="11.2340933"><ele>1050.0</ele><time>2026-04-07T13:29:34.902Z</time></trkpt><trkpt lat="45.6837933" lon="11.234165"><ele>1050.0</ele><time>2026-04-07T13:29:35.902Z</time></trkpt><trkpt lat="45.68375" lon="11.2342433"><ele>1050.0</ele><time>2026-04-07T13:29:36.902Z</time></trkpt><trkpt lat="45.6837" lon="11.2343317"><ele>1050.0</ele><time>2026-04-07T13:29:37.901Z</time></trkpt><trkpt lat="45.6836383" lon="11.234425"><ele>1049.4</ele><time>2026-04-07T13:29:38.902Z</time></trkpt><trkpt lat="45.6835767" lon="11.2345167"><ele>1048.8</ele><time>2026-04-07T13:29:39.901Z</time></trkpt><trkpt lat="45.683515" lon="11.2346167"><ele>1048.2</ele><time>2026-04-07T13:29:40.901Z</time></trkpt><trkpt lat="45.68346" lon="11.23469"><ele>1047.6</ele><time>2026-04-07T13:29:41.901Z</time></trkpt><trkpt lat="45.6833867" lon="11.2347833"><ele>1047.0</ele><time>2026-04-07T13:29:43.902Z</time></trkpt><trkpt lat="45.6833267" lon="11.234895"><ele>1047.0</ele><time>2026-04-07T13:29:45.902Z</time></trkpt><trkpt lat="45.6832683" lon="11.23503"><ele>1047.0</ele><time>2026-04-07T13:29:47.902Z</time></trkpt><trkpt lat="45.6832217" lon="11.235195"><ele>1047.0</ele><time>2026-04-07T13:29:49.902Z</time></trkpt><trkpt lat="45.6831833" lon="11.2352867"><ele>1047.0</ele><time>2026-04-07T13:29:50.902Z</time></trkpt><trkpt lat="45.68314" lon="11.2353567"><ele>1047.0</ele><time>2026-04-07T13:29:51.902Z</time></trkpt><trkpt lat="45.6830817" lon="11.2354083"><ele>1047.0</ele><time>2026-04-07T13:29:52.902Z</time></trkpt><trkpt lat="45.6830133" lon="11.2354567"><ele>1047.0</ele><time>2026-04-07T13:29:53.902Z</time></trkpt><trkpt lat="45.682935" lon="11.2354933"><ele>1047.0</ele><time>2026-04-07T13:29:54.902Z</time></trkpt><trkpt lat="45.6828517" lon="11.23553"><ele>1047.0</ele><time>2026-04-07T13:29:55.902Z</time></trkpt><trkpt lat="45.6827833" lon="11.2355667"><ele>1047.0</ele><time>2026-04-07T13:29:56.901Z</time></trkpt><trkpt lat="45.6827167" lon="11.2355833"><ele>1047.0</ele><time>2026-04-07T13:29:57.902Z</time></trkpt><trkpt lat="45.68265" lon="11.2355933"><ele>1047.0</ele><time>2026-04-07T13:29:58.902Z</time></trkpt><trkpt lat="45.68255" lon="11.2356183"><ele>1044.0</ele><time>2026-04-07T13:30:00.901Z</time></trkpt><trkpt lat="45.6824517" lon="11.235675"><ele>1041.0</ele><time>2026-04-07T13:30:02.902Z</time></trkpt><trkpt lat="45.6823917" lon="11.2357067"><ele>1038.0</ele><time>2026-04-07T13:30:03.902Z</time></trkpt><trkpt lat="45.6823183" lon="11.235755"><ele>1035.0</ele><time>2026-04-07T13:30:05.902Z</time></trkpt><trkpt lat="45.6822783" lon="11.2358467"><ele>1032.0</ele><time>2026-04-07T13:30:07.902Z</time></trkpt><trkpt lat="45.68226" lon="11.236"><ele>1029.0</ele><time>2026-04-07T13:30:09.901Z</time></trkpt><trkpt lat="45.6822517" lon="11.236155"><ele>1029.0</ele><time>2026-04-07T13:30:11.902Z</time></trkpt><trkpt lat="45.6822617" lon="11.2362867"><ele>1029.0</ele><time>2026-04-07T13:30:13.902Z</time></trkpt><trkpt lat="45.6822833" lon="11.236375"><ele>1029.0</ele><time>2026-04-07T13:30:14.902Z</time></trkpt><trkpt lat="45.68231" lon="11.2364667"><ele>1029.0</ele><time>2026-04-07T13:30:15.901Z</time></trkpt><trkpt lat="45.68233" lon="11.2365533"><ele>1029.0</ele><time>2026-04-07T13:30:16.901Z</time></trkpt><trkpt lat="45.68234" lon="11.23668"><ele>1029.0</ele><time>2026-04-07T13:30:18.901Z</time></trkpt><trkpt lat="45.68232" lon="11.2367767"><ele>1029.8333333333333</ele><time>2026-04-07T13:30:20.902Z</time></trkpt><trkpt lat="45.68226" lon="11.2368333"><ele>1030.6666666666667</ele><time>2026-04-07T13:30:23.901Z</time></trkpt><trkpt lat="45.6821933" lon="11.2369417"><ele>1031.5</ele><time>2026-04-07T13:30:26.901Z</time></trkpt><trkpt lat="45.682155" lon="11.23702"><ele>1032.3333333333335</ele><time>2026-04-07T13:30:27.902Z</time></trkpt><trkpt lat="45.682095" lon="11.2371283"><ele>1033.1666666666667</ele><time>2026-04-07T13:30:29.902Z</time></trkpt><trkpt lat="45.6820283" lon="11.2372017"><ele>1034.0</ele><time>2026-04-07T13:30:31.901Z</time></trkpt><trkpt lat="45.681935" lon="11.237215"><ele>1027.5</ele><time>2026-04-07T13:30:33.902Z</time></trkpt><trkpt lat="45.68185" lon="11.23722"><ele>1021.0</ele><time>2026-04-07T13:30:35.902Z</time></trkpt><trkpt lat="45.681805" lon="11.2373017"><ele>1014.5</ele><time>2026-04-07T13:30:39.902Z</time></trkpt><trkpt lat="45.6818233" lon="11.23741"><ele>1008.0</ele><time>2026-04-07T13:30:41.902Z</time></trkpt><trkpt lat="45.68183" lon="11.237525"><ele>1001.5000000000001</ele><time>2026-04-07T13:30:43.902Z</time></trkpt><trkpt lat="45.681815" lon="11.237645"><ele>995.0</ele><time>2026-04-07T13:30:45.902Z</time></trkpt><trkpt lat="45.681815" lon="11.237785"><ele>995.1666666666667</ele><time>2026-04-07T13:30:47.902Z</time></trkpt><trkpt lat="45.6818417" lon="11.2379483"><ele>995.3333333333334</ele><time>2026-04-07T13:30:49.901Z</time></trkpt><trkpt lat="45.6818633" lon="11.2380817"><ele>995.5</ele><time>2026-04-07T13:30:51.902Z</time></trkpt><trkpt lat="45.681885" lon="11.2382"><ele>995.6666666666667</ele><time>2026-04-07T13:30:53.901Z</time></trkpt><trkpt lat="45.68191" lon="11.238305"><ele>995.8333333333334</ele><time>2026-04-07T13:30:55.902Z</time></trkpt><trkpt lat="45.6819517" lon="11.2383767"><ele>996.0</ele><time>2026-04-07T13:30:57.901Z</time></trkpt><trkpt lat="45.6820317" lon="11.23843"><ele>996.0</ele><time>2026-04-07T13:30:59.901Z</time></trkpt><trkpt lat="45.6821033" lon="11.2384783"><ele>996.0</ele><time>2026-04-07T13:31:01.901Z</time></trkpt><trkpt lat="45.6821733" lon="11.23849"><ele>996.0</ele><time>2026-04-07T13:31:03.902Z</time></trkpt><trkpt lat="45.6822433" lon="11.2384483"><ele>996.0</ele><time>2026-04-07T13:31:05.901Z</time></trkpt><trkpt lat="45.682335" lon="11.238405"><ele>996.0</ele><time>2026-04-07T13:31:07.902Z</time></trkpt><trkpt lat="45.682435" lon="11.2384217"><ele>996.0</ele><time>2026-04-07T13:31:09.901Z</time></trkpt><trkpt lat="45.6825467" lon="11.2384783"><ele>996.0</ele><time>2026-04-07T13:31:11.902Z</time></trkpt><trkpt lat="45.6826017" lon="11.2385317"><ele>995.9999999999999</ele><time>2026-04-07T13:31:12.902Z</time></trkpt><trkpt lat="45.6826983" lon="11.238625"><ele>995.9999999999999</ele><time>2026-04-07T13:31:14.901Z</time></trkpt><trkpt lat="45.6828117" lon="11.2387033"><ele>996.0</ele><time>2026-04-07T13:31:16.902Z</time></trkpt><trkpt lat="45.6828717" lon="11.2387417"><ele>996.0</ele><time>2026-04-07T13:31:17.902Z</time></trkpt><trkpt lat="45.682965" lon="11.2387817"><ele>997.4</ele><time>2026-04-07T13:31:19.901Z</time></trkpt><trkpt lat="45.6830567" lon="11.238785"><ele>998.8</ele><time>2026-04-07T13:31:21.902Z</time></trkpt><trkpt lat="45.6831767" lon="11.238815"><ele>1000.1999999999999</ele><time>2026-04-07T13:31:23.901Z</time></trkpt><trkpt lat="45.6832717" lon="11.238835"><ele>1001.5999999999999</ele><time>2026-04-07T13:31:25.902Z</time></trkpt><trkpt lat="45.683335" lon="11.23885"><ele>1003.0</ele><time>2026-04-07T13:31:26.902Z</time></trkpt><trkpt lat="45.6834267" lon="11.2388533"><ele>1003.0</ele><time>2026-04-07T13:31:28.902Z</time></trkpt><trkpt lat="45.6835233" lon="11.238865"><ele>1003.0</ele><time>2026-04-07T13:31:30.902Z</time></trkpt><trkpt lat="45.6836033" lon="11.2388533"><ele>1003.0</ele><time>2026-04-07T13:31:32.901Z</time></trkpt><trkpt lat="45.6836717" lon="11.2387683"><ele>1003.0</ele><time>2026-04-07T13:31:35.9Z</time></trkpt><trkpt lat="45.6837917" lon="11.2387583"><ele>1003.0</ele><time>2026-04-07T13:31:38.901Z</time></trkpt><trkpt lat="45.6838633" lon="11.2387867"><ele>1002.0</ele><time>2026-04-07T13:31:39.901Z</time></trkpt><trkpt lat="45.6839417" lon="11.238815"><ele>1001.0</ele><time>2026-04-07T13:31:40.901Z</time></trkpt><trkpt lat="45.6840117" lon="11.23885"><ele>1000.0</ele><time>2026-04-07T13:31:41.901Z</time></trkpt><trkpt lat="45.684115" lon="11.238885"><ele>999.0</ele><time>2026-04-07T13:31:43.901Z</time></trkpt><trkpt lat="45.6842317" lon="11.238895"><ele>998.0</ele><time>2026-04-07T13:31:45.901Z</time></trkpt><trkpt lat="45.6843417" lon="11.2388933"><ele>996.2</ele><time>2026-04-07T13:31:47.901Z</time></trkpt><trkpt lat="45.6844417" lon="11.2388683"><ele>994.4</ele><time>2026-04-07T13:31:49.9Z</time></trkpt><trkpt lat="45.6845633" lon="11.2388267"><ele>992.6000000000001</ele><time>2026-04-07T13:31:51.9Z</time></trkpt><trkpt lat="45.68467" lon="11.2388283"><ele>990.8000000000001</ele><time>2026-04-07T13:31:53.9Z</time></trkpt><trkpt lat="45.684765" lon="11.2388817"><ele>989.0</ele><time>2026-04-07T13:31:55.901Z</time></trkpt><trkpt lat="45.6848483" lon="11.2389533"><ele>982.8333333333334</ele><time>2026-04-07T13:31:57.901Z</time></trkpt><trkpt lat="45.6849333" lon="11.2389967"><ele>976.6666666666667</ele><time>2026-04-07T13:32:00.901Z</time></trkpt><trkpt lat="45.6850033" lon="11.2390217"><ele>970.5</ele><time>2026-04-07T13:32:02.901Z</time></trkpt><trkpt lat="45.6850783" lon="11.2390467"><ele>964.3333333333333</ele><time>2026-04-07T13:32:04.901Z</time></trkpt><trkpt lat="45.685165" lon="11.2390467"><ele>958.1666666666666</ele><time>2026-04-07T13:32:06.901Z</time></trkpt><trkpt lat="45.6852817" lon="11.23905"><ele>952.0</ele><time>2026-04-07T13:32:08.9Z</time></trkpt><trkpt lat="45.6853783" lon="11.2390483"><ele>952.8333333333333</ele><time>2026-04-07T13:32:10.901Z</time></trkpt><trkpt lat="45.6854717" lon="11.239075"><ele>953.6666666666666</ele><time>2026-04-07T13:32:12.901Z</time></trkpt><trkpt lat="45.685545" lon="11.2391083"><ele>954.5</ele><time>2026-04-07T13:32:14.9Z</time></trkpt><trkpt lat="45.6856167" lon="11.2390567"><ele>955.3333333333333</ele><time>2026-04-07T13:32:17.901Z</time></trkpt><trkpt lat="45.6856483" lon="11.238965"><ele>956.1666666666666</ele><time>2026-04-07T13:32:19.9Z</time></trkpt><trkpt lat="45.68568" lon="11.2388633"><ele>957.0</ele><time>2026-04-07T13:32:21.901Z</time></trkpt><trkpt lat="45.685705" lon="11.2387517"><ele>957.0</ele><time>2026-04-07T13:32:23.901Z</time></trkpt><trkpt lat="45.685745" lon="11.238625"><ele>957.0</ele><time>2026-04-07T13:32:25.901Z</time></trkpt><trkpt lat="45.6857783" lon="11.238545"><ele>957.0</ele><time>2026-04-07T13:32:27.901Z</time></trkpt><trkpt lat="45.6858217" lon="11.2384717"><ele>957.0</ele><time>2026-04-07T13:32:29.901Z</time></trkpt><trkpt lat="45.6858833" lon="11.238435"><ele>957.0</ele><time>2026-04-07T13:32:31.901Z</time></trkpt><trkpt lat="45.685985" lon="11.238435"><ele>957.0</ele><time>2026-04-07T13:32:33.9Z</time></trkpt><trkpt lat="45.6860883" lon="11.2384533"><ele>953.3333333333334</ele><time>2026-04-07T13:32:35.9Z</time></trkpt><trkpt lat="45.68615" lon="11.2384817"><ele>949.6666666666667</ele><time>2026-04-07T13:32:36.901Z</time></trkpt><trkpt lat="45.6862133" lon="11.23851"><ele>946.0</ele><time>2026-04-07T13:32:37.901Z</time></trkpt><trkpt lat="45.686275" lon="11.2385333"><ele>942.3333333333334</ele><time>2026-04-07T13:32:38.901Z</time></trkpt><trkpt lat="45.686375" lon="11.2385867"><ele>938.6666666666667</ele><time>2026-04-07T13:32:40.9Z</time></trkpt><trkpt lat="45.686455" lon="11.238665"><ele>935.0</ele><time>2026-04-07T13:32:42.901Z</time></trkpt><trkpt lat="45.686535" lon="11.2387333"><ele>935.0</ele><time>2026-04-07T13:32:44.9Z</time></trkpt><trkpt lat="45.6866083" lon="11.238735"><ele>935.0</ele><time>2026-04-07T13:32:46.901Z</time></trkpt><trkpt lat="45.686675" lon="11.2386317"><ele>935.0</ele><time>2026-04-07T13:32:49.901Z</time></trkpt><trkpt lat="45.68676" lon="11.238535"><ele>935.0</ele><time>2026-04-07T13:32:51.901Z</time></trkpt><trkpt lat="45.6868767" lon="11.238465"><ele>935.0</ele><time>2026-04-07T13:32:53.901Z</time></trkpt><trkpt lat="45.6869833" lon="11.2384267"><ele>930.8</ele><time>2026-04-07T13:32:55.901Z</time></trkpt><trkpt lat="45.68707" lon="11.23841"><ele>926.6</ele><time>2026-04-07T13:32:57.9Z</time></trkpt><trkpt lat="45.687165" lon="11.23834"><ele>922.4000000000001</ele><time>2026-04-07T13:33:00.901Z</time></trkpt><trkpt lat="45.6872733" lon="11.238255"><ele>918.2</ele><time>2026-04-07T13:33:02.901Z</time></trkpt><trkpt lat="45.6873433" lon="11.2382033"><ele>914.0</ele><time>2026-04-07T13:33:03.901Z</time></trkpt><trkpt lat="45.6874083" lon="11.2381417"><ele>914.0</ele><time>2026-04-07T13:33:04.901Z</time></trkpt><trkpt lat="45.68746" lon="11.2380833"><ele>914.0000000000001</ele><time>2026-04-07T13:33:05.901Z</time></trkpt><trkpt lat="45.6875567" lon="11.2380217"><ele>914.0000000000001</ele><time>2026-04-07T13:33:07.901Z</time></trkpt><trkpt lat="45.6876783" lon="11.2380667"><ele>914.0</ele><time>2026-04-07T13:33:09.9Z</time></trkpt><trkpt lat="45.6877417" lon="11.238145"><ele>914.0</ele><time>2026-04-07T13:33:10.9Z</time></trkpt><trkpt lat="45.687795" lon="11.23823"><ele>915.3333333333334</ele><time>2026-04-07T13:33:11.901Z</time></trkpt><trkpt lat="45.6878517" lon="11.23832"><ele>916.6666666666667</ele><time>2026-04-07T13:33:12.901Z</time></trkpt><trkpt lat="45.687925" lon="11.2383883"><ele>918.0</ele><time>2026-04-07T13:33:13.901Z</time></trkpt><trkpt lat="45.6880133" lon="11.2384583"><ele>919.3333333333333</ele><time>2026-04-07T13:33:14.9Z</time></trkpt><trkpt lat="45.6881" lon="11.2385233"><ele>920.6666666666666</ele><time>2026-04-07T13:33:15.9Z</time></trkpt><trkpt lat="45.6881683" lon="11.2385767"><ele>922.0</ele><time>2026-04-07T13:33:16.901Z</time></trkpt><trkpt lat="45.6882717" lon="11.2386667"><ele>921.9999999999999</ele><time>2026-04-07T13:33:18.901Z</time></trkpt><trkpt lat="45.68833" lon="11.23877"><ele>922.0</ele><time>2026-04-07T13:33:20.9Z</time></trkpt><trkpt lat="45.68837" lon="11.2388817"><ele>922.0</ele><time>2026-04-07T13:33:22.9Z</time></trkpt><trkpt lat="45.6883267" lon="11.2389817"><ele>922.0</ele><time>2026-04-07T13:33:24.901Z</time></trkpt><trkpt lat="45.6882517" lon="11.2390267"><ele>921.9999999999999</ele><time>2026-04-07T13:33:25.901Z</time></trkpt><trkpt lat="45.688175" lon="11.2390983"><ele>922.0</ele><time>2026-04-07T13:33:26.901Z</time></trkpt><trkpt lat="45.68809" lon="11.2391833"><ele>921.8333333333333</ele><time>2026-04-07T13:33:27.901Z</time></trkpt><trkpt lat="45.688015" lon="11.2392767"><ele>921.6666666666666</ele><time>2026-04-07T13:33:28.9Z</time></trkpt><trkpt lat="45.6879433" lon="11.2393667"><ele>921.5</ele><time>2026-04-07T13:33:29.901Z</time></trkpt><trkpt lat="45.68788" lon="11.23945"><ele>921.3333333333333</ele><time>2026-04-07T13:33:30.9Z</time></trkpt><trkpt lat="45.6878217" lon="11.23952"><ele>921.1666666666666</ele><time>2026-04-07T13:33:31.9Z</time></trkpt><trkpt lat="45.6877683" lon="11.23959"><ele>921.0</ele><time>2026-04-07T13:33:32.901Z</time></trkpt><trkpt lat="45.6877183" lon="11.2396483"><ele>918.0</ele><time>2026-04-07T13:33:33.901Z</time></trkpt><trkpt lat="45.6876633" lon="11.2397033"><ele>914.9999999999999</ele><time>2026-04-07T13:33:34.901Z</time></trkpt><trkpt lat="45.687575" lon="11.23981"><ele>911.9999999999999</ele><time>2026-04-07T13:33:36.9Z</time></trkpt><trkpt lat="45.687485" lon="11.2399083"><ele>909.0</ele><time>2026-04-07T13:33:38.901Z</time></trkpt><trkpt lat="45.68741" lon="11.2400217"><ele>906.0</ele><time>2026-04-07T13:33:40.9Z</time></trkpt><trkpt lat="45.6873583" lon="11.2401867"><ele>906.0</ele><time>2026-04-07T13:33:42.901Z</time></trkpt><trkpt lat="45.6873417" lon="11.240275"><ele>906.0</ele><time>2026-04-07T13:33:43.901Z</time></trkpt><trkpt lat="45.687285" lon="11.24041"><ele>906.0</ele><time>2026-04-07T13:33:45.9Z</time></trkpt><trkpt lat="45.6872583" lon="11.2405217"><ele>906.0</ele><time>2026-04-07T13:33:47.9Z</time></trkpt><trkpt lat="45.6872133" lon="11.24061"><ele>906.0</ele><time>2026-04-07T13:33:49.9Z</time></trkpt><trkpt lat="45.6871467" lon="11.2406583"><ele>906.0</ele><time>2026-04-07T13:33:51.9Z</time></trkpt><trkpt lat="45.68704" lon="11.24069"><ele>902.1999999999999</ele><time>2026-04-07T13:33:53.901Z</time></trkpt><trkpt lat="45.686925" lon="11.2407517"><ele>898.3999999999999</ele><time>2026-04-07T13:33:55.9Z</time></trkpt><trkpt lat="45.6868333" lon="11.24085"><ele>894.6</ele><time>2026-04-07T13:33:57.901Z</time></trkpt><trkpt lat="45.6867967" lon="11.2409933"><ele>890.8</ele><time>2026-04-07T13:33:59.9Z</time></trkpt><trkpt lat="45.6867533" lon="11.2411017"><ele>887.0</ele><time>2026-04-07T13:34:01.901Z</time></trkpt><trkpt lat="45.686655" lon="11.241125"><ele>887.0000000000001</ele><time>2026-04-07T13:34:03.901Z</time></trkpt><trkpt lat="45.6865767" lon="11.241125"><ele>887.0</ele><time>2026-04-07T13:34:04.9Z</time></trkpt><trkpt lat="45.6865033" lon="11.24112"><ele>887.0</ele><time>2026-04-07T13:34:05.901Z</time></trkpt><trkpt lat="45.6864167" lon="11.24111"><ele>887.0</ele><time>2026-04-07T13:34:06.901Z</time></trkpt><trkpt lat="45.6863267" lon="11.2410983"><ele>887.0000000000001</ele><time>2026-04-07T13:34:07.901Z</time></trkpt><trkpt lat="45.6862517" lon="11.2410717"><ele>887.0</ele><time>2026-04-07T13:34:08.9Z</time></trkpt><trkpt lat="45.6861683" lon="11.2410567"><ele>886.6</ele><time>2026-04-07T13:34:09.901Z</time></trkpt><trkpt lat="45.6860633" lon="11.241075"><ele>886.2</ele><time>2026-04-07T13:34:11.901Z</time></trkpt><trkpt lat="45.6859767" lon="11.241125"><ele>885.8</ele><time>2026-04-07T13:34:13.901Z</time></trkpt><trkpt lat="45.6859317" lon="11.24126"><ele>885.4</ele><time>2026-04-07T13:34:15.901Z</time></trkpt><trkpt lat="45.6859233" lon="11.24135"><ele>885.0</ele><time>2026-04-07T13:34:16.901Z</time></trkpt><trkpt lat="45.68589" lon="11.2414667"><ele>885.0</ele><time>2026-04-07T13:34:18.901Z</time></trkpt><trkpt lat="45.685815" lon="11.2415483"><ele>885.0</ele><time>2026-04-07T13:34:20.901Z</time></trkpt><trkpt lat="45.6857333" lon="11.2415633"><ele>885.0</ele><time>2026-04-07T13:34:21.901Z</time></trkpt><trkpt lat="45.68564" lon="11.2415767"><ele>885.0</ele><time>2026-04-07T13:34:22.9Z</time></trkpt><trkpt lat="45.68553" lon="11.2415817"><ele>885.0</ele><time>2026-04-07T13:34:23.901Z</time></trkpt><trkpt lat="45.6854333" lon="11.241585"><ele>885.0</ele><time>2026-04-07T13:34:24.9Z</time></trkpt><trkpt lat="45.6853433" lon="11.2415917"><ele>885.0</ele><time>2026-04-07T13:34:25.901Z</time></trkpt><trkpt lat="45.6852583" lon="11.2415833"><ele>885.0</ele><time>2026-04-07T13:34:26.9Z</time></trkpt><trkpt lat="45.6851867" lon="11.2415817"><ele>885.0</ele><time>2026-04-07T13:34:27.9Z</time></trkpt><trkpt lat="45.685115" lon="11.2415817"><ele>885.0</ele><time>2026-04-07T13:34:28.901Z</time></trkpt><trkpt lat="45.6850417" lon="11.2416033"><ele>885.0</ele><time>2026-04-07T13:34:29.901Z</time></trkpt><trkpt lat="45.684955" lon="11.24163"><ele>883.1666666666666</ele><time>2026-04-07T13:34:30.9Z</time></trkpt><trkpt lat="45.6848683" lon="11.2416783"><ele>881.3333333333333</ele><time>2026-04-07T13:34:31.9Z</time></trkpt><trkpt lat="45.6847933" lon="11.2417383"><ele>879.5</ele><time>2026-04-07T13:34:32.9Z</time></trkpt><trkpt lat="45.6847233" lon="11.24179"><ele>877.6666666666666</ele><time>2026-04-07T13:34:33.9Z</time></trkpt><trkpt lat="45.6846567" lon="11.2418283"><ele>875.8333333333333</ele><time>2026-04-07T13:34:34.9Z</time></trkpt><trkpt lat="45.6845833" lon="11.24186"><ele>874.0</ele><time>2026-04-07T13:34:35.9Z</time></trkpt><trkpt lat="45.684505" lon="11.241895"><ele>869.3333333333333</ele><time>2026-04-07T13:34:36.9Z</time></trkpt><trkpt lat="45.6844283" lon="11.2419233"><ele>864.6666666666666</ele><time>2026-04-07T13:34:37.9Z</time></trkpt><trkpt lat="45.6843567" lon="11.2419583"><ele>860.0</ele><time>2026-04-07T13:34:38.899Z</time></trkpt><trkpt lat="45.6843" lon="11.2420017"><ele>855.3333333333333</ele><time>2026-04-07T13:34:39.9Z</time></trkpt><trkpt lat="45.684245" lon="11.242055"><ele>850.6666666666666</ele><time>2026-04-07T13:34:40.899Z</time></trkpt><trkpt lat="45.6841433" lon="11.2421617"><ele>846.0</ele><time>2026-04-07T13:34:42.9Z</time></trkpt><trkpt lat="45.684045" lon="11.2422583"><ele>849.5</ele><time>2026-04-07T13:34:44.9Z</time></trkpt><trkpt lat="45.6839383" lon="11.2422983"><ele>853.0</ele><time>2026-04-07T13:34:46.9Z</time></trkpt><trkpt lat="45.683855" lon="11.24232"><ele>856.5</ele><time>2026-04-07T13:34:48.9Z</time></trkpt><trkpt lat="45.6838083" lon="11.24243"><ele>860.0</ele><time>2026-04-07T13:34:50.9Z</time></trkpt><trkpt lat="45.68379" lon="11.2425233"><ele>863.5</ele><time>2026-04-07T13:34:51.9Z</time></trkpt><trkpt lat="45.68377" lon="11.24264"><ele>867.0</ele><time>2026-04-07T13:34:52.899Z</time></trkpt><trkpt lat="45.6837433" lon="11.242745"><ele>867.0</ele><time>2026-04-07T13:34:53.9Z</time></trkpt><trkpt lat="45.683715" lon="11.2428467"><ele>867.0</ele><time>2026-04-07T13:34:54.9Z</time></trkpt><trkpt lat="45.6836833" lon="11.2429317"><ele>867.0</ele><time>2026-04-07T13:34:55.899Z</time></trkpt><trkpt lat="45.6836333" lon="11.243015"><ele>867.0</ele><time>2026-04-07T13:34:56.9Z</time></trkpt><trkpt lat="45.6835783" lon="11.2430783"><ele>867.0</ele><time>2026-04-07T13:34:57.9Z</time></trkpt><trkpt lat="45.6834967" lon="11.2431733"><ele>867.0</ele><time>2026-04-07T13:34:59.9Z</time></trkpt><trkpt lat="45.6834183" lon="11.24326"><ele>859.4000000000001</ele><time>2026-04-07T13:35:01.9Z</time></trkpt><trkpt lat="45.6833667" lon="11.2434083"><ele>851.8000000000001</ele><time>2026-04-07T13:35:03.9Z</time></trkpt><trkpt lat="45.6833183" lon="11.2435183"><ele>844.2</ele><time>2026-04-07T13:35:05.9Z</time></trkpt><trkpt lat="45.6832567" lon="11.2434967"><ele>836.6</ele><time>2026-04-07T13:35:09.9Z</time></trkpt><trkpt lat="45.683285" lon="11.243395"><ele>829.0</ele><time>2026-04-07T13:35:11.9Z</time></trkpt><trkpt lat="45.6833417" lon="11.2432367"><ele>826.6</ele><time>2026-04-07T13:35:13.9Z</time></trkpt><trkpt lat="45.68342" lon="11.24311"><ele>824.2</ele><time>2026-04-07T13:35:15.9Z</time></trkpt><trkpt lat="45.6834683" lon="11.243035"><ele>821.8000000000001</ele><time>2026-04-07T13:35:16.899Z</time></trkpt><trkpt lat="45.6835067" lon="11.2429533"><ele>819.4000000000001</ele><time>2026-04-07T13:35:17.9Z</time></trkpt><trkpt lat="45.6835617" lon="11.2427917"><ele>817.0</ele><time>2026-04-07T13:35:19.9Z</time></trkpt><trkpt lat="45.683575" lon="11.2426917"><ele>816.9999999999999</ele><time>2026-04-07T13:35:20.899Z</time></trkpt><trkpt lat="45.6835717" lon="11.242595"><ele>817.0</ele><time>2026-04-07T13:35:21.9Z</time></trkpt><trkpt lat="45.6835633" lon="11.2424883"><ele>817.0</ele><time>2026-04-07T13:35:22.9Z</time></trkpt><trkpt lat="45.68357" lon="11.2423967"><ele>817.0</ele><time>2026-04-07T13:35:23.9Z</time></trkpt><trkpt lat="45.6835967" lon="11.2422433"><ele>816.9999999999999</ele><time>2026-04-07T13:35:25.899Z</time></trkpt><trkpt lat="45.6836667" lon="11.2420933"><ele>817.0</ele><time>2026-04-07T13:35:27.899Z</time></trkpt><trkpt lat="45.6837233" lon="11.2420167"><ele>821.8333333333333</ele><time>2026-04-07T13:35:28.899Z</time></trkpt><trkpt lat="45.6837883" lon="11.2419517"><ele>826.6666666666666</ele><time>2026-04-07T13:35:29.9Z</time></trkpt><trkpt lat="45.683845" lon="11.2418917"><ele>831.5</ele><time>2026-04-07T13:35:30.9Z</time></trkpt><trkpt lat="45.6838967" lon="11.241835"><ele>836.3333333333333</ele><time>2026-04-07T13:35:31.9Z</time></trkpt><trkpt lat="45.6839333" lon="11.241715"><ele>841.1666666666666</ele><time>2026-04-07T13:35:33.899Z</time></trkpt><trkpt lat="45.6838633" lon="11.2416467"><ele>846.0</ele><time>2026-04-07T13:35:35.9Z</time></trkpt><trkpt lat="45.6837717" lon="11.2416733"><ele>846.0</ele><time>2026-04-07T13:35:37.9Z</time></trkpt><trkpt lat="45.68365" lon="11.2417983"><ele>846.0</ele><time>2026-04-07T13:35:39.9Z</time></trkpt><trkpt lat="45.6835833" lon="11.2418833"><ele>846.0</ele><time>2026-04-07T13:35:40.899Z</time></trkpt><trkpt lat="45.6835283" lon="11.2419683"><ele>846.0</ele><time>2026-04-07T13:35:41.9Z</time></trkpt><trkpt lat="45.6834833" lon="11.24204"><ele>846.0</ele><time>2026-04-07T13:35:42.899Z</time></trkpt><trkpt lat="45.6834417" lon="11.24213"><ele>841.8571428571428</ele><time>2026-04-07T13:35:43.9Z</time></trkpt><trkpt lat="45.6834067" lon="11.2422133"><ele>837.7142857142858</ele><time>2026-04-07T13:35:44.9Z</time></trkpt><trkpt lat="45.6833633" lon="11.2423067"><ele>833.5714285714286</ele><time>2026-04-07T13:35:45.899Z</time></trkpt><trkpt lat="45.6833283" lon="11.24241"><ele>829.4285714285713</ele><time>2026-04-07T13:35:46.9Z</time></trkpt><trkpt lat="45.6833217" lon="11.2425267"><ele>825.2857142857142</ele><time>2026-04-07T13:35:47.9Z</time></trkpt><trkpt lat="45.6833067" lon="11.24262"><ele>821.1428571428571</ele><time>2026-04-07T13:35:48.9Z</time></trkpt><trkpt lat="45.6832783" lon="11.2427033"><ele>817.0</ele><time>2026-04-07T13:35:49.9Z</time></trkpt><trkpt lat="45.6832367" lon="11.2427783"><ele>816.9999999999999</ele><time>2026-04-07T13:35:50.899Z</time></trkpt><trkpt lat="45.6831817" lon="11.242855"><ele>817.0</ele><time>2026-04-07T13:35:51.9Z</time></trkpt><trkpt lat="45.6831183" lon="11.2429033"><ele>817.0</ele><time>2026-04-07T13:35:52.9Z</time></trkpt><trkpt lat="45.68305" lon="11.24297"><ele>817.0</ele><time>2026-04-07T13:35:53.899Z</time></trkpt><trkpt lat="45.6829933" lon="11.2430383"><ele>816.9999999999999</ele><time>2026-04-07T13:35:54.9Z</time></trkpt><trkpt lat="45.6829433" lon="11.2431167"><ele>817.0</ele><time>2026-04-07T13:35:55.9Z</time></trkpt><trkpt lat="45.6828917" lon="11.2432083"><ele>819.4000000000001</ele><time>2026-04-07T13:35:56.899Z</time></trkpt><trkpt lat="45.6828417" lon="11.2433217"><ele>821.8000000000001</ele><time>2026-04-07T13:35:57.9Z</time></trkpt><trkpt lat="45.682795" lon="11.2434333"><ele>824.2</ele><time>2026-04-07T13:35:58.899Z</time></trkpt><trkpt lat="45.682755" lon="11.243555"><ele>826.6</ele><time>2026-04-07T13:35:59.9Z</time></trkpt><trkpt lat="45.68272" lon="11.243675"><ele>829.0</ele><time>2026-04-07T13:36:00.899Z</time></trkpt><trkpt lat="45.68268" lon="11.24379"><ele>821.1666666666666</ele><time>2026-04-07T13:36:01.9Z</time></trkpt><trkpt lat="45.6826433" lon="11.2438883"><ele>813.3333333333333</ele><time>2026-04-07T13:36:02.9Z</time></trkpt><trkpt lat="45.682605" lon="11.2439733"><ele>805.5</ele><time>2026-04-07T13:36:03.9Z</time></trkpt><trkpt lat="45.6825383" lon="11.2440967"><ele>797.6666666666667</ele><time>2026-04-07T13:36:05.9Z</time></trkpt><trkpt lat="45.6824933" lon="11.2442067"><ele>789.8333333333334</ele><time>2026-04-07T13:36:07.899Z</time></trkpt><trkpt lat="45.682515" lon="11.2442967"><ele>782.0</ele><time>2026-04-07T13:36:09.899Z</time></trkpt><trkpt lat="45.6826167" lon="11.24433"><ele>782.0</ele><time>2026-04-07T13:36:11.9Z</time></trkpt><trkpt lat="45.6826933" lon="11.2443217"><ele>782.0</ele><time>2026-04-07T13:36:12.9Z</time></trkpt><trkpt lat="45.6827567" lon="11.2443117"><ele>782.0</ele><time>2026-04-07T13:36:13.9Z</time></trkpt><trkpt lat="45.6828417" lon="11.2443183"><ele>782.0</ele><time>2026-04-07T13:36:15.899Z</time></trkpt><trkpt lat="45.6827867" lon="11.244425"><ele>782.0</ele><time>2026-04-07T13:36:19.899Z</time></trkpt><trkpt lat="45.6826417" lon="11.2444533"><ele>782.0000000000001</ele><time>2026-04-07T13:36:21.9Z</time></trkpt><trkpt lat="45.6825483" lon="11.2444567"><ele>782.0</ele><time>2026-04-07T13:36:22.899Z</time></trkpt><trkpt lat="45.6824683" lon="11.244465"><ele>782.0</ele><time>2026-04-07T13:36:23.899Z</time></trkpt><trkpt lat="45.6823667" lon="11.2444783"><ele>782.0</ele><time>2026-04-07T13:36:25.899Z</time></trkpt><trkpt lat="45.68231" lon="11.244385"><ele>782.0000000000001</ele><time>2026-04-07T13:36:28.9Z</time></trkpt><trkpt lat="45.6823267" lon="11.244265"><ele>782.0</ele><time>2026-04-07T13:36:30.899Z</time></trkpt><trkpt lat="45.6823783" lon="11.244135"><ele>782.0</ele><time>2026-04-07T13:36:32.9Z</time></trkpt><trkpt lat="45.6824483" lon="11.2439917"><ele>782.0</ele><time>2026-04-07T13:36:34.9Z</time></trkpt><trkpt lat="45.6825" lon="11.2438133"><ele>782.0</ele><time>2026-04-07T13:36:36.899Z</time></trkpt><trkpt lat="45.6825083" lon="11.2437083"><ele>782.0</ele><time>2026-04-07T13:36:37.899Z</time></trkpt><trkpt lat="45.6825183" lon="11.2436017"><ele>782.0</ele><time>2026-04-07T13:36:38.9Z</time></trkpt><trkpt lat="45.6825267" lon="11.2434917"><ele>780.6666666666667</ele><time>2026-04-07T13:36:39.9Z</time></trkpt><trkpt lat="45.6825433" lon="11.24338"><ele>779.3333333333334</ele><time>2026-04-07T13:36:40.899Z</time></trkpt><trkpt lat="45.6825567" lon="11.2432533"><ele>778.0</ele><time>2026-04-07T13:36:41.9Z</time></trkpt><trkpt lat="45.6825717" lon="11.243145"><ele>776.6666666666667</ele><time>2026-04-07T13:36:42.9Z</time></trkpt><trkpt lat="45.682585" lon="11.24304"><ele>775.3333333333334</ele><time>2026-04-07T13:36:43.9Z</time></trkpt><trkpt lat="45.6825983" lon="11.2429433"><ele>774.0</ele><time>2026-04-07T13:36:44.899Z</time></trkpt><trkpt lat="45.6826167" lon="11.2428533"><ele>773.4285714285714</ele><time>2026-04-07T13:36:45.9Z</time></trkpt><trkpt lat="45.6826333" lon="11.242755"><ele>772.8571428571429</ele><time>2026-04-07T13:36:46.9Z</time></trkpt><trkpt lat="45.6826567" lon="11.24266"><ele>772.2857142857142</ele><time>2026-04-07T13:36:47.899Z</time></trkpt><trkpt lat="45.6826967" lon="11.2425733"><ele>771.7142857142858</ele><time>2026-04-07T13:36:48.899Z</time></trkpt><trkpt lat="45.68272" lon="11.2424817"><ele>771.1428571428571</ele><time>2026-04-07T13:36:49.9Z</time></trkpt><trkpt lat="45.68277" lon="11.2423933"><ele>770.5714285714286</ele><time>2026-04-07T13:36:51.899Z</time></trkpt><trkpt lat="45.6827283" lon="11.24229"><ele>770.0</ele><time>2026-04-07T13:36:53.899Z</time></trkpt><trkpt lat="45.6826117" lon="11.2422083"><ele>775.8</ele><time>2026-04-07T13:36:55.899Z</time></trkpt><trkpt lat="45.6825167" lon="11.2421783"><ele>781.6</ele><time>2026-04-07T13:36:56.9Z</time></trkpt><trkpt lat="45.682405" lon="11.2421533"><ele>787.4000000000001</ele><time>2026-04-07T13:36:57.9Z</time></trkpt><trkpt lat="45.682295" lon="11.2421217"><ele>793.2</ele><time>2026-04-07T13:36:58.899Z</time></trkpt><trkpt lat="45.682185" lon="11.2421033"><ele>799.0</ele><time>2026-04-07T13:36:59.9Z</time></trkpt><trkpt lat="45.6820867" lon="11.2420983"><ele>799.0</ele><time>2026-04-07T13:37:00.899Z</time></trkpt><trkpt lat="45.6819733" lon="11.2421033"><ele>799.0</ele><time>2026-04-07T13:37:01.899Z</time></trkpt><trkpt lat="45.6818533" lon="11.2421433"><ele>799.0</ele><time>2026-04-07T13:37:02.899Z</time></trkpt><trkpt lat="45.6817383" lon="11.2421567"><ele>799.0</ele><time>2026-04-07T13:37:03.899Z</time></trkpt><trkpt lat="45.68164" lon="11.2421833"><ele>801.0</ele><time>2026-04-07T13:37:04.9Z</time></trkpt><trkpt lat="45.6815433" lon="11.24221"><ele>803.0</ele><time>2026-04-07T13:37:05.9Z</time></trkpt><trkpt lat="45.6814617" lon="11.2422317"><ele>805.0</ele><time>2026-04-07T13:37:06.9Z</time></trkpt><trkpt lat="45.6813683" lon="11.24228"><ele>807.0</ele><time>2026-04-07T13:37:07.9Z</time></trkpt><trkpt lat="45.6812683" lon="11.2423233"><ele>809.0</ele><time>2026-04-07T13:37:08.9Z</time></trkpt><trkpt lat="45.6811717" lon="11.2423667"><ele>802.0000000000001</ele><time>2026-04-07T13:37:09.9Z</time></trkpt><trkpt lat="45.6810733" lon="11.242425"><ele>795.0</ele><time>2026-04-07T13:37:10.9Z</time></trkpt><trkpt lat="45.6809933" lon="11.2424733"><ele>788.0</ele><time>2026-04-07T13:37:11.899Z</time></trkpt><trkpt lat="45.6809133" lon="11.2425467"><ele>781.0</ele><time>2026-04-07T13:37:12.899Z</time></trkpt><trkpt lat="45.6808417" lon="11.2425917"><ele>774.0</ele><time>2026-04-07T13:37:13.899Z</time></trkpt><trkpt lat="45.680775" lon="11.24264"><ele>767.0</ele><time>2026-04-07T13:37:14.899Z</time></trkpt><trkpt lat="45.680665" lon="11.2427183"><ele>767.0</ele><time>2026-04-07T13:37:16.9Z</time></trkpt><trkpt lat="45.6805983" lon="11.2427317"><ele>767.0</ele><time>2026-04-07T13:37:17.899Z</time></trkpt><trkpt lat="45.6804717" lon="11.2427183"><ele>767.0</ele><time>2026-04-07T13:37:19.899Z</time></trkpt><trkpt lat="45.680405" lon="11.2427433"><ele>767.0</ele><time>2026-04-07T13:37:20.899Z</time></trkpt><trkpt lat="45.68034" lon="11.242785"><ele>767.0</ele><time>2026-04-07T13:37:21.9Z</time></trkpt><trkpt lat="45.68028" lon="11.2428317"><ele>767.0</ele><time>2026-04-07T13:37:22.9Z</time></trkpt><trkpt lat="45.6802233" lon="11.242875"><ele>765.8333333333333</ele><time>2026-04-07T13:37:23.9Z</time></trkpt><trkpt lat="45.6801133" lon="11.2429083"><ele>764.6666666666666</ele><time>2026-04-07T13:37:25.899Z</time></trkpt><trkpt lat="45.6799833" lon="11.242905"><ele>763.5</ele><time>2026-04-07T13:37:27.899Z</time></trkpt><trkpt lat="45.6799117" lon="11.2428917"><ele>762.3333333333334</ele><time>2026-04-07T13:37:28.9Z</time></trkpt><trkpt lat="45.6798467" lon="11.2428733"><ele>761.1666666666667</ele><time>2026-04-07T13:37:29.899Z</time></trkpt><trkpt lat="45.679785" lon="11.2428517"><ele>760.0</ele><time>2026-04-07T13:37:30.899Z</time></trkpt><trkpt lat="45.6796833" lon="11.242755"><ele>760.0</ele><time>2026-04-07T13:37:32.898Z</time></trkpt><trkpt lat="45.6796433" lon="11.2426833"><ele>760.0</ele><time>2026-04-07T13:37:33.899Z</time></trkpt><trkpt lat="45.6795717" lon="11.242575"><ele>760.0</ele><time>2026-04-07T13:37:35.899Z</time></trkpt><trkpt lat="45.6795417" lon="11.2424733"><ele>760.0</ele><time>2026-04-07T13:37:37.899Z</time></trkpt><trkpt lat="45.6795017" lon="11.2423967"><ele>760.0</ele><time>2026-04-07T13:37:39.899Z</time></trkpt><trkpt lat="45.6794383" lon="11.2424133"><ele>760.0</ele><time>2026-04-07T13:37:41.899Z</time></trkpt><trkpt lat="45.6794117" lon="11.2425333"><ele>760.0</ele><time>2026-04-07T13:37:43.898Z</time></trkpt><trkpt lat="45.6794417" lon="11.2427183"><ele>760.0</ele><time>2026-04-07T13:37:45.898Z</time></trkpt><trkpt lat="45.6794833" lon="11.2428367"><ele>760.0</ele><time>2026-04-07T13:37:46.898Z</time></trkpt><trkpt lat="45.679525" lon="11.2429433"><ele>760.0</ele><time>2026-04-07T13:37:47.898Z</time></trkpt><trkpt lat="45.6795633" lon="11.2430333"><ele>760.0</ele><time>2026-04-07T13:37:48.899Z</time></trkpt><trkpt lat="45.6796133" lon="11.2431083"><ele>752.0</ele><time>2026-04-07T13:37:49.899Z</time></trkpt><trkpt lat="45.6796617" lon="11.2431667"><ele>744.0</ele><time>2026-04-07T13:37:50.898Z</time></trkpt><trkpt lat="45.679725" lon="11.24321"><ele>736.0</ele><time>2026-04-07T13:37:51.899Z</time></trkpt><trkpt lat="45.6798017" lon="11.2432633"><ele>728.0</ele><time>2026-04-07T13:37:52.898Z</time></trkpt><trkpt lat="45.679885" lon="11.2433133"><ele>720.0</ele><time>2026-04-07T13:37:53.899Z</time></trkpt><trkpt lat="45.67996" lon="11.243355"><ele>712.0</ele><time>2026-04-07T13:37:54.898Z</time></trkpt><trkpt lat="45.68003" lon="11.2433967"><ele>711.9999999999999</ele><time>2026-04-07T13:37:55.899Z</time></trkpt><trkpt lat="45.6800933" lon="11.2434233"><ele>712.0</ele><time>2026-04-07T13:37:56.899Z</time></trkpt><trkpt lat="45.6802" lon="11.2434433"><ele>712.0</ele><time>2026-04-07T13:37:58.898Z</time></trkpt><trkpt lat="45.6802683" lon="11.2434383"><ele>712.0</ele><time>2026-04-07T13:37:59.898Z</time></trkpt><trkpt lat="45.6803333" lon="11.24343"><ele>712.0</ele><time>2026-04-07T13:38:00.899Z</time></trkpt><trkpt lat="45.6804" lon="11.2434183"><ele>711.9999999999999</ele><time>2026-04-07T13:38:01.899Z</time></trkpt><trkpt lat="45.680475" lon="11.2434167"><ele>712.0</ele><time>2026-04-07T13:38:02.899Z</time></trkpt><trkpt lat="45.68055" lon="11.24342"><ele>712.6666666666667</ele><time>2026-04-07T13:38:03.899Z</time></trkpt><trkpt lat="45.68063" lon="11.24342"><ele>713.3333333333334</ele><time>2026-04-07T13:38:04.898Z</time></trkpt><trkpt lat="45.6807033" lon="11.243405"><ele>714.0</ele><time>2026-04-07T13:38:05.899Z</time></trkpt><trkpt lat="45.68081" lon="11.2433467"><ele>714.6666666666666</ele><time>2026-04-07T13:38:07.899Z</time></trkpt><trkpt lat="45.68088" lon="11.243325"><ele>715.3333333333333</ele><time>2026-04-07T13:38:09.898Z</time></trkpt><trkpt lat="45.6809467" lon="11.2433367"><ele>716.0</ele><time>2026-04-07T13:38:11.899Z</time></trkpt><trkpt lat="45.68102" lon="11.2433417"><ele>717.4</ele><time>2026-04-07T13:38:13.899Z</time></trkpt><trkpt lat="45.681135" lon="11.2433033"><ele>718.8</ele><time>2026-04-07T13:38:15.898Z</time></trkpt><trkpt lat="45.681215" lon="11.2432717"><ele>720.1999999999999</ele><time>2026-04-07T13:38:16.899Z</time></trkpt><trkpt lat="45.6812983" lon="11.2432467"><ele>721.5999999999999</ele><time>2026-04-07T13:38:17.899Z</time></trkpt><trkpt lat="45.681375" lon="11.2432183"><ele>723.0</ele><time>2026-04-07T13:38:18.898Z</time></trkpt><trkpt lat="45.6814617" lon="11.243205"><ele>723.0</ele><time>2026-04-07T13:38:19.899Z</time></trkpt><trkpt lat="45.68153" lon="11.2432067"><ele>723.0</ele><time>2026-04-07T13:38:20.898Z</time></trkpt><trkpt lat="45.6815917" lon="11.2432867"><ele>723.0</ele><time>2026-04-07T13:38:22.899Z</time></trkpt><trkpt lat="45.681625" lon="11.2434067"><ele>723.0</ele><time>2026-04-07T13:38:23.899Z</time></trkpt><trkpt lat="45.681625" lon="11.24355"><ele>723.0</ele><time>2026-04-07T13:38:24.898Z</time></trkpt><trkpt lat="45.6816083" lon="11.2437117"><ele>723.0</ele><time>2026-04-07T13:38:25.899Z</time></trkpt><trkpt lat="45.6815817" lon="11.2438583"><ele>723.0</ele><time>2026-04-07T13:38:26.899Z</time></trkpt><trkpt lat="45.68155" lon="11.24399"><ele>723.0</ele><time>2026-04-07T13:38:27.899Z</time></trkpt><trkpt lat="45.6815233" lon="11.24412"><ele>723.0</ele><time>2026-04-07T13:38:28.898Z</time></trkpt><trkpt lat="45.6815117" lon="11.24425"><ele>723.0</ele><time>2026-04-07T13:38:29.899Z</time></trkpt><trkpt lat="45.6815167" lon="11.2443817"><ele>722.5999999999999</ele><time>2026-04-07T13:38:30.899Z</time></trkpt><trkpt lat="45.6815333" lon="11.2445133"><ele>722.1999999999999</ele><time>2026-04-07T13:38:31.898Z</time></trkpt><trkpt lat="45.68157" lon="11.2446433"><ele>721.8</ele><time>2026-04-07T13:38:32.899Z</time></trkpt><trkpt lat="45.68161" lon="11.2447567"><ele>721.4</ele><time>2026-04-07T13:38:33.899Z</time></trkpt><trkpt lat="45.6816617" lon="11.2448783"><ele>721.0</ele><time>2026-04-07T13:38:34.899Z</time></trkpt><trkpt lat="45.681735" lon="11.244995"><ele>720.6666666666667</ele><time>2026-04-07T13:38:35.899Z</time></trkpt><trkpt lat="45.6818067" lon="11.2450983"><ele>720.3333333333334</ele><time>2026-04-07T13:38:36.899Z</time></trkpt><trkpt lat="45.6818667" lon="11.245185"><ele>720.0</ele><time>2026-04-07T13:38:37.899Z</time></trkpt><trkpt lat="45.6819267" lon="11.2452467"><ele>719.6666666666666</ele><time>2026-04-07T13:38:38.899Z</time></trkpt><trkpt lat="45.681995" lon="11.2453033"><ele>719.3333333333333</ele><time>2026-04-07T13:38:39.899Z</time></trkpt><trkpt lat="45.6820583" lon="11.2453783"><ele>719.0</ele><time>2026-04-07T13:38:40.899Z</time></trkpt><trkpt lat="45.6821083" lon="11.2454633"><ele>720.5</ele><time>2026-04-07T13:38:41.898Z</time></trkpt><trkpt lat="45.6821517" lon="11.2455367"><ele>722.0</ele><time>2026-04-07T13:38:42.899Z</time></trkpt><trkpt lat="45.6821867" lon="11.2456183"><ele>723.5</ele><time>2026-04-07T13:38:43.899Z</time></trkpt><trkpt lat="45.6822067" lon="11.2457433"><ele>725.0</ele><time>2026-04-07T13:38:45.899Z</time></trkpt><trkpt lat="45.6821083" lon="11.2457983"><ele>726.5</ele><time>2026-04-07T13:38:47.899Z</time></trkpt><trkpt lat="45.6820083" lon="11.2458067"><ele>728.0</ele><time>2026-04-07T13:38:48.899Z</time></trkpt><trkpt lat="45.6819217" lon="11.2458383"><ele>728.0</ele><time>2026-04-07T13:38:49.898Z</time></trkpt><trkpt lat="45.6818233" lon="11.2459"><ele>728.0</ele><time>2026-04-07T13:38:50.898Z</time></trkpt><trkpt lat="45.6817167" lon="11.245965"><ele>728.0</ele><time>2026-04-07T13:38:51.899Z</time></trkpt><trkpt lat="45.6816167" lon="11.2460483"><ele>728.0</ele><time>2026-04-07T13:38:52.899Z</time></trkpt><trkpt lat="45.6815333" lon="11.2461167"><ele>728.0</ele><time>2026-04-07T13:38:53.898Z</time></trkpt><trkpt lat="45.681445" lon="11.2461583"><ele>728.0</ele><time>2026-04-07T13:38:54.899Z</time></trkpt><trkpt lat="45.6813433" lon="11.2461817"><ele>728.0</ele><time>2026-04-07T13:38:55.899Z</time></trkpt><trkpt lat="45.6812383" lon="11.24619"><ele>728.0</ele><time>2026-04-07T13:38:56.899Z</time></trkpt><trkpt lat="45.681145" lon="11.2461767"><ele>728.0</ele><time>2026-04-07T13:38:57.899Z</time></trkpt><trkpt lat="45.6810717" lon="11.24616"><ele>728.0</ele><time>2026-04-07T13:38:58.899Z</time></trkpt><trkpt lat="45.681005" lon="11.2461683"><ele>728.0</ele><time>2026-04-07T13:38:59.899Z</time></trkpt><trkpt lat="45.68094" lon="11.2461833"><ele>729.75</ele><time>2026-04-07T13:39:00.899Z</time></trkpt><trkpt lat="45.68087" lon="11.2462283"><ele>731.5</ele><time>2026-04-07T13:39:01.898Z</time></trkpt><trkpt lat="45.680785" lon="11.2462983"><ele>733.25</ele><time>2026-04-07T13:39:02.898Z</time></trkpt><trkpt lat="45.6806733" lon="11.24641"><ele>735.0</ele><time>2026-04-07T13:39:03.899Z</time></trkpt><trkpt lat="45.680555" lon="11.2465283"><ele>735.0</ele><time>2026-04-07T13:39:04.898Z</time></trkpt><trkpt lat="45.6804517" lon="11.24663"><ele>735.0</ele><time>2026-04-07T13:39:05.899Z</time></trkpt><trkpt lat="45.6803583" lon="11.2467067"><ele>735.0</ele><time>2026-04-07T13:39:06.898Z</time></trkpt><trkpt lat="45.6802733" lon="11.2467683"><ele>735.0</ele><time>2026-04-07T13:39:07.899Z</time></trkpt><trkpt lat="45.6801883" lon="11.2468167"><ele>735.0</ele><time>2026-04-07T13:39:08.899Z</time></trkpt><trkpt lat="45.6801133" lon="11.2468433"><ele>732.6</ele><time>2026-04-07T13:39:09.898Z</time></trkpt><trkpt lat="45.680005" lon="11.2468767"><ele>730.2</ele><time>2026-04-07T13:39:11.898Z</time></trkpt><trkpt lat="45.6799117" lon="11.2469533"><ele>727.8</ele><time>2026-04-07T13:39:13.899Z</time></trkpt><trkpt lat="45.6798533" lon="11.247125"><ele>725.4</ele><time>2026-04-07T13:39:15.899Z</time></trkpt><trkpt lat="45.67984" lon="11.247235"><ele>723.0</ele><time>2026-04-07T13:39:16.898Z</time></trkpt><trkpt lat="45.679815" lon="11.2473417"><ele>723.0</ele><time>2026-04-07T13:39:17.899Z</time></trkpt><trkpt lat="45.6797733" lon="11.2474317"><ele>723.0</ele><time>2026-04-07T13:39:18.899Z</time></trkpt><trkpt lat="45.67974" lon="11.2475117"><ele>723.0</ele><time>2026-04-07T13:39:19.899Z</time></trkpt><trkpt lat="45.679725" lon="11.2476467"><ele>723.0</ele><time>2026-04-07T13:39:21.898Z</time></trkpt><trkpt lat="45.6797667" lon="11.24776"><ele>723.0</ele><time>2026-04-07T13:39:23.899Z</time></trkpt><trkpt lat="45.6798517" lon="11.2478583"><ele>723.0</ele><time>2026-04-07T13:39:25.898Z</time></trkpt><trkpt lat="45.6799367" lon="11.2479233"><ele>723.0000000000001</ele><time>2026-04-07T13:39:27.898Z</time></trkpt><trkpt lat="45.6800017" lon="11.2479783"><ele>723.0</ele><time>2026-04-07T13:39:29.899Z</time></trkpt><trkpt lat="45.6800633" lon="11.248015"><ele>723.0</ele><time>2026-04-07T13:39:37.899Z</time></trkpt><trkpt lat="45.6801567" lon="11.2480033"><ele>723.0</ele><time>2026-04-07T13:39:39.898Z</time></trkpt><trkpt lat="45.680195" lon="11.2479083"><ele>723.0</ele><time>2026-04-07T13:39:42.899Z</time></trkpt><trkpt lat="45.680155" lon="11.2478367"><ele>723.0000000000001</ele><time>2026-04-07T13:39:44.898Z</time></trkpt><trkpt lat="45.680115" lon="11.2477583"><ele>723.0</ele><time>2026-04-07T13:39:46.898Z</time></trkpt><trkpt lat="45.6800983" lon="11.24767"><ele>723.0</ele><time>2026-04-07T13:39:48.899Z</time></trkpt><trkpt lat="45.6801317" lon="11.2475583"><ele>723.0</ele><time>2026-04-07T13:39:50.899Z</time></trkpt><trkpt lat="45.6801467" lon="11.2474533"><ele>723.0</ele><time>2026-04-07T13:39:52.899Z</time></trkpt><trkpt lat="45.6801917" lon="11.247355"><ele>723.0</ele><time>2026-04-07T13:39:55.898Z</time></trkpt><trkpt lat="45.6801167" lon="11.2474383"><ele>723.0</ele><time>2026-04-07T13:40:37.897Z</time></trkpt><trkpt lat="45.6801017" lon="11.24756"><ele>723.0</ele><time>2026-04-07T13:40:39.898Z</time></trkpt><trkpt lat="45.6800917" lon="11.247675"><ele>723.0</ele><time>2026-04-07T13:40:41.898Z</time></trkpt><trkpt lat="45.6801067" lon="11.2477717"><ele>723.0</ele><time>2026-04-07T13:40:43.897Z</time></trkpt><trkpt lat="45.6801483" lon="11.24786"><ele>723.0</ele><time>2026-04-07T13:40:45.897Z</time></trkpt><trkpt lat="45.6801867" lon="11.2479567"><ele>723.0</ele><time>2026-04-07T13:40:47.898Z</time></trkpt><trkpt lat="45.68013" lon="11.2480033"><ele>723.0</ele><time>2026-04-07T13:40:51.898Z</time></trkpt><trkpt lat="45.6801933" lon="11.2481133"><ele>723.0</ele><time>2026-04-07T13:41:00.897Z</time></trkpt><trkpt lat="45.68026" lon="11.2482"><ele>725.0</ele><time>2026-04-07T13:41:02.898Z</time></trkpt><trkpt lat="45.680325" lon="11.2482833"><ele>727.0</ele><time>2026-04-07T13:41:04.898Z</time></trkpt><trkpt lat="45.6803883" lon="11.2483883"><ele>729.0</ele><time>2026-04-07T13:41:06.898Z</time></trkpt><trkpt lat="45.6804583" lon="11.2484833"><ele>731.0</ele><time>2026-04-07T13:41:08.898Z</time></trkpt><trkpt lat="45.6805317" lon="11.248545"><ele>733.0</ele><time>2026-04-07T13:41:10.897Z</time></trkpt><trkpt lat="45.6806183" lon="11.2485933"><ele>733.0</ele><time>2026-04-07T13:41:12.897Z</time></trkpt><trkpt lat="45.680715" lon="11.2486317"><ele>733.0</ele><time>2026-04-07T13:41:14.898Z</time></trkpt><trkpt lat="45.6807783" lon="11.2487033"><ele>733.0</ele><time>2026-04-07T13:41:16.897Z</time></trkpt><trkpt lat="45.6808617" lon="11.2487917"><ele>733.0</ele><time>2026-04-07T13:41:19.898Z</time></trkpt><trkpt lat="45.68097" lon="11.2488317"><ele>733.0</ele><time>2026-04-07T13:41:21.898Z</time></trkpt><trkpt lat="45.681035" lon="11.2488533"><ele>734.0</ele><time>2026-04-07T13:41:22.898Z</time></trkpt><trkpt lat="45.681115" lon="11.24886"><ele>735.0</ele><time>2026-04-07T13:41:23.898Z</time></trkpt><trkpt lat="45.6811983" lon="11.2488517"><ele>736.0</ele><time>2026-04-07T13:41:24.898Z</time></trkpt><trkpt lat="45.6813267" lon="11.24889"><ele>737.0</ele><time>2026-04-07T13:41:26.898Z</time></trkpt><trkpt lat="45.6813367" lon="11.24904"><ele>738.0</ele><time>2026-04-07T13:41:29.898Z</time></trkpt><trkpt lat="45.6813167" lon="11.2491933"><ele>738.0</ele><time>2026-04-07T13:41:31.898Z</time></trkpt><trkpt lat="45.681285" lon="11.2492883"><ele>738.0</ele><time>2026-04-07T13:41:32.898Z</time></trkpt><trkpt lat="45.68126" lon="11.2493717"><ele>738.0</ele><time>2026-04-07T13:41:33.898Z</time></trkpt><trkpt lat="45.681225" lon="11.2494583"><ele>738.0</ele><time>2026-04-07T13:41:35.898Z</time></trkpt><trkpt lat="45.6811933" lon="11.2495667"><ele>738.0</ele><time>2026-04-07T13:41:48.897Z</time></trkpt><trkpt lat="45.6811417" lon="11.2496583"><ele>738.0</ele><time>2026-04-07T13:41:50.898Z</time></trkpt><trkpt lat="45.6810517" lon="11.2497817"><ele>734.0</ele><time>2026-04-07T13:41:52.898Z</time></trkpt><trkpt lat="45.68098" lon="11.2499183"><ele>730.0</ele><time>2026-04-07T13:41:54.897Z</time></trkpt><trkpt lat="45.6809167" lon="11.250055"><ele>726.0</ele><time>2026-04-07T13:41:56.898Z</time></trkpt><trkpt lat="45.6808583" lon="11.2501733"><ele>722.0</ele><time>2026-04-07T13:41:58.897Z</time></trkpt><trkpt lat="45.680805" lon="11.250275"><ele>718.0</ele><time>2026-04-07T13:42:00.898Z</time></trkpt><trkpt lat="45.6807417" lon="11.2503417"><ele>718.0</ele><time>2026-04-07T13:42:02.898Z</time></trkpt><trkpt lat="45.680655" lon="11.2504017"><ele>718.0</ele><time>2026-04-07T13:42:04.898Z</time></trkpt><trkpt lat="45.6805617" lon="11.2505"><ele>718.0</ele><time>2026-04-07T13:42:06.897Z</time></trkpt><trkpt lat="45.6804767" lon="11.2506233"><ele>718.0</ele><time>2026-04-07T13:42:08.898Z</time></trkpt><trkpt lat="45.6803833" lon="11.2507317"><ele>717.8333333333334</ele><time>2026-04-07T13:42:10.898Z</time></trkpt><trkpt lat="45.6803267" lon="11.2508183"><ele>717.6666666666667</ele><time>2026-04-07T13:42:12.897Z</time></trkpt><trkpt lat="45.6802667" lon="11.250885"><ele>717.5</ele><time>2026-04-07T13:42:14.897Z</time></trkpt><trkpt lat="45.6802117" lon="11.250945"><ele>717.3333333333334</ele><time>2026-04-07T13:42:16.898Z</time></trkpt><trkpt lat="45.6801483" lon="11.251025"><ele>717.1666666666666</ele><time>2026-04-07T13:42:22.897Z</time></trkpt><trkpt lat="45.6801033" lon="11.251105"><ele>717.0</ele><time>2026-04-07T13:42:24.897Z</time></trkpt><trkpt lat="45.6800517" lon="11.2511983"><ele>717.0</ele><time>2026-04-07T13:42:26.898Z</time></trkpt><trkpt lat="45.680005" lon="11.2512883"><ele>717.0</ele><time>2026-04-07T13:42:28.897Z</time></trkpt><trkpt lat="45.6799467" lon="11.251355"><ele>717.0</ele><time>2026-04-07T13:42:30.898Z</time></trkpt><trkpt lat="45.6798983" lon="11.2514383"><ele>717.0</ele><time>2026-04-07T13:42:46.898Z</time></trkpt><trkpt lat="45.6798583" lon="11.2516133"><ele>717.0</ele><time>2026-04-07T13:43:57.897Z</time></trkpt><trkpt lat="45.6798267" lon="11.2517533"><ele>722.0</ele><time>2026-04-07T13:44:07.897Z</time></trkpt><trkpt lat="45.6798117" lon="11.2518617"><ele>727.0</ele><time>2026-04-07T13:44:10.897Z</time></trkpt><trkpt lat="45.6798267" lon="11.252015"><ele>732.0</ele><time>2026-04-07T13:44:52.897Z</time></trkpt><trkpt lat="45.6798033" lon="11.2521467"><ele>737.0</ele><time>2026-04-07T13:44:55.896Z</time></trkpt><trkpt lat="45.6797833" lon="11.2522333"><ele>742.0</ele><time>2026-04-07T13:44:57.897Z</time></trkpt><trkpt lat="45.6797767" lon="11.2523267"><ele>747.0</ele><time>2026-04-07T13:45:00.897Z</time></trkpt><trkpt lat="45.67969" lon="11.2523867"><ele>751.5</ele><time>2026-04-07T13:49:51.895Z</time></trkpt><trkpt lat="45.6796" lon="11.2524033"><ele>756.0</ele><time>2026-04-07T13:49:53.895Z</time></trkpt><trkpt lat="45.6795483" lon="11.2524567"><ele>760.5</ele><time>2026-04-07T13:49:55.895Z</time></trkpt><trkpt lat="45.6795333" lon="11.2525533"><ele>765.0</ele><time>2026-04-07T13:49:57.895Z</time></trkpt><trkpt lat="45.679615" lon="11.252545"><ele>769.5</ele><time>2026-04-07T13:50:00.895Z</time></trkpt><trkpt lat="45.6796933" lon="11.2525133"><ele>774.0</ele><time>2026-04-07T13:50:02.895Z</time></trkpt><trkpt lat="45.6797633" lon="11.25252"><ele>774.0</ele><time>2026-04-07T13:50:04.895Z</time></trkpt><trkpt lat="45.6798517" lon="11.2525333"><ele>774.0</ele><time>2026-04-07T13:50:06.895Z</time></trkpt><trkpt lat="45.6799283" lon="11.2525367"><ele>774.0</ele><time>2026-04-07T13:50:08.895Z</time></trkpt><trkpt lat="45.6799983" lon="11.2525317"><ele>774.0</ele><time>2026-04-07T13:50:10.895Z</time></trkpt><trkpt lat="45.680085" lon="11.2525367"><ele>774.0</ele><time>2026-04-07T13:50:12.895Z</time></trkpt><trkpt lat="45.6801667" lon="11.252555"><ele>774.0</ele><time>2026-04-07T13:50:14.895Z</time></trkpt><trkpt lat="45.6802467" lon="11.2525617"><ele>779.8333333333334</ele><time>2026-04-07T13:50:16.894Z</time></trkpt><trkpt lat="45.6803017" lon="11.2526467"><ele>785.6666666666667</ele><time>2026-04-07T13:50:19.894Z</time></trkpt><trkpt lat="45.6803117" lon="11.2527383"><ele>791.5</ele><time>2026-04-07T13:50:21.895Z</time></trkpt><trkpt lat="45.6803517" lon="11.252835"><ele>797.3333333333334</ele><time>2026-04-07T13:50:23.894Z</time></trkpt><trkpt lat="45.6804017" lon="11.2529233"><ele>803.1666666666667</ele><time>2026-04-07T13:50:26.894Z</time></trkpt><trkpt lat="45.68043" lon="11.253005"><ele>809.0</ele><time>2026-04-07T13:50:45.895Z</time></trkpt><trkpt lat="45.6803533" lon="11.25306"><ele>809.0000000000001</ele><time>2026-04-07T13:50:48.895Z</time></trkpt><trkpt lat="45.680275" lon="11.2530217"><ele>809.0</ele><time>2026-04-07T13:50:51.895Z</time></trkpt><trkpt lat="45.68011" lon="11.2530067"><ele>809.0</ele><time>2026-04-07T13:53:32.893Z</time></trkpt><trkpt lat="45.6800483" lon="11.25303"><ele>809.0</ele><time>2026-04-07T13:55:45.892Z</time></trkpt><trkpt lat="45.6799817" lon="11.2530567"><ele>809.0000000000001</ele><time>2026-04-07T13:55:49.892Z</time></trkpt><trkpt lat="45.6799333" lon="11.2531167"><ele>809.0</ele><time>2026-04-07T13:56:02.893Z</time></trkpt><trkpt lat="45.679845" lon="11.2532067"><ele>806.6</ele><time>2026-04-07T13:56:09.892Z</time></trkpt><trkpt lat="45.6797767" lon="11.25326"><ele>804.2</ele><time>2026-04-07T13:56:12.892Z</time></trkpt><trkpt lat="45.6796767" lon="11.2533067"><ele>801.8000000000001</ele><time>2026-04-07T13:56:26.893Z</time></trkpt><trkpt lat="45.6795867" lon="11.2533517"><ele>799.4000000000001</ele><time>2026-04-07T13:56:29.893Z</time></trkpt><trkpt lat="45.6794833" lon="11.2533833"><ele>797.0</ele><time>2026-04-07T13:56:35.893Z</time></trkpt><trkpt lat="45.6794033" lon="11.253385"><ele>793.1666666666667</ele><time>2026-04-07T13:56:38.891Z</time></trkpt><trkpt lat="45.67932" lon="11.253385"><ele>789.3333333333334</ele><time>2026-04-07T13:56:41.891Z</time></trkpt><trkpt lat="45.6792383" lon="11.25339"><ele>785.5</ele><time>2026-04-07T13:56:52.891Z</time></trkpt><trkpt lat="45.6791433" lon="11.2533733"><ele>781.6666666666667</ele><time>2026-04-07T13:56:55.892Z</time></trkpt><trkpt lat="45.6790533" lon="11.25339"><ele>777.8333333333334</ele><time>2026-04-07T13:56:58.892Z</time></trkpt><trkpt lat="45.6789867" lon="11.2534283"><ele>774.0</ele><time>2026-04-07T13:57:01.892Z</time></trkpt><trkpt lat="45.6789367" lon="11.2535117"><ele>774.0</ele><time>2026-04-07T13:57:05.892Z</time></trkpt><trkpt lat="45.6789317" lon="11.25371"><ele>774.0</ele><time>2026-04-07T13:57:28.891Z</time></trkpt><trkpt lat="45.6789567" lon="11.25383"><ele>774.0</ele><time>2026-04-07T13:57:31.892Z</time></trkpt><trkpt lat="45.67898" lon="11.25396"><ele>774.0</ele><time>2026-04-07T13:57:34.892Z</time></trkpt><trkpt lat="45.67903" lon="11.254085"><ele>774.0</ele><time>2026-04-07T13:57:37.891Z</time></trkpt><trkpt lat="45.679085" lon="11.2541833"><ele>776.3333333333334</ele><time>2026-04-07T13:57:39.892Z</time></trkpt><trkpt lat="45.6791317" lon="11.2542667"><ele>778.6666666666667</ele><time>2026-04-07T13:57:41.892Z</time></trkpt><trkpt lat="45.6791667" lon="11.25436"><ele>781.0</ele><time>2026-04-07T13:57:43.892Z</time></trkpt><trkpt lat="45.6792167" lon="11.2544583"><ele>783.3333333333334</ele><time>2026-04-07T13:57:45.891Z</time></trkpt><trkpt lat="45.679265" lon="11.2545583"><ele>785.6666666666667</ele><time>2026-04-07T13:57:47.892Z</time></trkpt><trkpt lat="45.67931" lon="11.254665"><ele>788.0</ele><time>2026-04-07T13:57:49.891Z</time></trkpt><trkpt lat="45.6793617" lon="11.254755"><ele>789.1666666666667</ele><time>2026-04-07T13:57:51.892Z</time></trkpt><trkpt lat="45.6794183" lon="11.2548317"><ele>790.3333333333334</ele><time>2026-04-07T13:57:53.892Z</time></trkpt><trkpt lat="45.6794717" lon="11.2549133"><ele>791.5</ele><time>2026-04-07T13:57:55.891Z</time></trkpt><trkpt lat="45.67952" lon="11.2550083"><ele>792.6666666666667</ele><time>2026-04-07T13:57:57.892Z</time></trkpt><trkpt lat="45.679555" lon="11.255105"><ele>793.8333333333334</ele><time>2026-04-07T13:57:59.892Z</time></trkpt><trkpt lat="45.6795667" lon="11.2552517"><ele>795.0</ele><time>2026-04-07T13:58:02.892Z</time></trkpt><trkpt lat="45.679575" lon="11.25536"><ele>795.0</ele><time>2026-04-07T13:58:04.892Z</time></trkpt><trkpt lat="45.67959" lon="11.2554833"><ele>795.0</ele><time>2026-04-07T13:58:06.891Z</time></trkpt><trkpt lat="45.6795717" lon="11.25561"><ele>795.0</ele><time>2026-04-07T13:58:08.892Z</time></trkpt><trkpt lat="45.679565" lon="11.2557183"><ele>795.0</ele><time>2026-04-07T13:58:11.892Z</time></trkpt><trkpt lat="45.6795433" lon="11.255805"><ele>795.0</ele><time>2026-04-07T13:58:14.892Z</time></trkpt><trkpt lat="45.679495" lon="11.2558867"><ele>795.0</ele><time>2026-04-07T13:58:17.892Z</time></trkpt><trkpt lat="45.6794317" lon="11.2559717"><ele>792.0</ele><time>2026-04-07T13:58:20.892Z</time></trkpt><trkpt lat="45.67946" lon="11.256085"><ele>789.0</ele><time>2026-04-07T13:58:25.892Z</time></trkpt><trkpt lat="45.6795183" lon="11.2561467"><ele>786.0</ele><time>2026-04-07T13:58:27.892Z</time></trkpt><trkpt lat="45.679575" lon="11.2562117"><ele>783.0</ele><time>2026-04-07T13:58:29.892Z</time></trkpt><trkpt lat="45.679635" lon="11.2562733"><ele>780.0</ele><time>2026-04-07T13:58:31.891Z</time></trkpt><trkpt lat="45.6797133" lon="11.2563467"><ele>777.0</ele><time>2026-04-07T13:58:34.892Z</time></trkpt><trkpt lat="45.6797583" lon="11.25641"><ele>772.0</ele><time>2026-04-07T13:58:36.891Z</time></trkpt><trkpt lat="45.6798033" lon="11.2564883"><ele>767.0</ele><time>2026-04-07T13:58:38.892Z</time></trkpt><trkpt lat="45.6798683" lon="11.25656"><ele>762.0</ele><time>2026-04-07T13:58:40.892Z</time></trkpt><trkpt lat="45.67995" lon="11.2566183"><ele>757.0</ele><time>2026-04-07T13:58:42.892Z</time></trkpt><trkpt lat="45.6800267" lon="11.25664"><ele>752.0</ele><time>2026-04-07T13:58:44.892Z</time></trkpt><trkpt lat="45.6800933" lon="11.2566683"><ele>747.0</ele><time>2026-04-07T13:58:46.891Z</time></trkpt><trkpt lat="45.6801267" lon="11.25678"><ele>747.0</ele><time>2026-04-07T13:58:49.892Z</time></trkpt><trkpt lat="45.6801183" lon="11.25688"><ele>747.0</ele><time>2026-04-07T13:58:51.892Z</time></trkpt><trkpt lat="45.6801" lon="11.2569783"><ele>747.0</ele><time>2026-04-07T13:58:53.892Z</time></trkpt><trkpt lat="45.68008" lon="11.2570833"><ele>747.0</ele><time>2026-04-07T13:58:55.892Z</time></trkpt><trkpt lat="45.6800817" lon="11.2572483"><ele>747.0</ele><time>2026-04-07T13:58:57.891Z</time></trkpt><trkpt lat="45.6800967" lon="11.25734"><ele>747.0</ele><time>2026-04-07T13:58:58.892Z</time></trkpt><trkpt lat="45.6801283" lon="11.257495"><ele>745.0</ele><time>2026-04-07T13:59:00.892Z</time></trkpt><trkpt lat="45.6801667" lon="11.2576067"><ele>743.0</ele><time>2026-04-07T13:59:02.892Z</time></trkpt><trkpt lat="45.680225" lon="11.2576583"><ele>741.0</ele><time>2026-04-07T13:59:04.891Z</time></trkpt><trkpt lat="45.68031" lon="11.2576483"><ele>739.0</ele><time>2026-04-07T13:59:06.892Z</time></trkpt><trkpt lat="45.6804017" lon="11.2575933"><ele>737.0</ele><time>2026-04-07T13:59:08.891Z</time></trkpt><trkpt lat="45.6804667" lon="11.2575633"><ele>735.0</ele><time>2026-04-07T13:59:09.89Z</time></trkpt><trkpt lat="45.6805333" lon="11.2575367"><ele>735.0</ele><time>2026-04-07T13:59:10.891Z</time></trkpt><trkpt lat="45.6806017" lon="11.2575167"><ele>735.0</ele><time>2026-04-07T13:59:11.891Z</time></trkpt><trkpt lat="45.680695" lon="11.2575283"><ele>735.0</ele><time>2026-04-07T13:59:13.891Z</time></trkpt><trkpt lat="45.6807633" lon="11.2575817"><ele>735.0</ele><time>2026-04-07T13:59:15.89Z</time></trkpt><trkpt lat="45.6808133" lon="11.257655"><ele>735.0</ele><time>2026-04-07T13:59:17.891Z</time></trkpt><trkpt lat="45.68085" lon="11.2577467"><ele>735.0</ele><time>2026-04-07T13:59:19.891Z</time></trkpt><trkpt lat="45.6809317" lon="11.2578667"><ele>735.0</ele><time>2026-04-07T13:59:21.89Z</time></trkpt><trkpt lat="45.681025" lon="11.25795"><ele>735.0</ele><time>2026-04-07T13:59:23.891Z</time></trkpt><trkpt lat="45.6811067" lon="11.2580367"><ele>735.0</ele><time>2026-04-07T13:59:25.891Z</time></trkpt><trkpt lat="45.681145" lon="11.2581433"><ele>735.0</ele><time>2026-04-07T13:59:27.891Z</time></trkpt><trkpt lat="45.6811717" lon="11.2582933"><ele>735.0</ele><time>2026-04-07T13:59:29.891Z</time></trkpt><trkpt lat="45.68118" lon="11.258435"><ele>736.3333333333334</ele><time>2026-04-07T13:59:31.891Z</time></trkpt><trkpt lat="45.6811667" lon="11.2585717"><ele>737.6666666666666</ele><time>2026-04-07T13:59:33.891Z</time></trkpt><trkpt lat="45.6811183" lon="11.2586733"><ele>739.0</ele><time>2026-04-07T13:59:35.891Z</time></trkpt><trkpt lat="45.6810667" lon="11.2587417"><ele>740.3333333333333</ele><time>2026-04-07T13:59:37.89Z</time></trkpt><trkpt lat="45.6810117" lon="11.2588433"><ele>741.6666666666666</ele><time>2026-04-07T13:59:39.891Z</time></trkpt><trkpt lat="45.680975" lon="11.2589833"><ele>743.0</ele><time>2026-04-07T13:59:41.891Z</time></trkpt><trkpt lat="45.6809283" lon="11.2591033"><ele>738.2</ele><time>2026-04-07T13:59:43.891Z</time></trkpt><trkpt lat="45.6808733" lon="11.2591833"><ele>733.4</ele><time>2026-04-07T13:59:45.89Z</time></trkpt><trkpt lat="45.6807733" lon="11.259185"><ele>728.6</ele><time>2026-04-07T13:59:47.891Z</time></trkpt><trkpt lat="45.6806817" lon="11.2591817"><ele>723.8000000000001</ele><time>2026-04-07T13:59:49.891Z</time></trkpt><trkpt lat="45.6805967" lon="11.25926"><ele>719.0</ele><time>2026-04-07T13:59:51.891Z</time></trkpt><trkpt lat="45.6805567" lon="11.25937"><ele>719.0</ele><time>2026-04-07T13:59:53.891Z</time></trkpt><trkpt lat="45.6805117" lon="11.2595117"><ele>719.0</ele><time>2026-04-07T13:59:55.891Z</time></trkpt><trkpt lat="45.6804717" lon="11.2596583"><ele>719.0</ele><time>2026-04-07T13:59:57.891Z</time></trkpt><trkpt lat="45.68045" lon="11.2597967"><ele>719.0</ele><time>2026-04-07T13:59:59.891Z</time></trkpt><trkpt lat="45.68043" lon="11.2599333"><ele>719.0</ele><time>2026-04-07T14:00:01.891Z</time></trkpt><trkpt lat="45.6803983" lon="11.2600767"><ele>717.6</ele><time>2026-04-07T14:00:03.891Z</time></trkpt><trkpt lat="45.6803833" lon="11.2602317"><ele>716.2</ele><time>2026-04-07T14:00:05.891Z</time></trkpt><trkpt lat="45.6803717" lon="11.260375"><ele>714.8000000000001</ele><time>2026-04-07T14:00:07.891Z</time></trkpt><trkpt lat="45.6803733" lon="11.260515"><ele>713.4000000000001</ele><time>2026-04-07T14:00:09.89Z</time></trkpt><trkpt lat="45.6804133" lon="11.2606367"><ele>712.0</ele><time>2026-04-07T14:00:11.891Z</time></trkpt><trkpt lat="45.680475" lon="11.2606917"><ele>712.0</ele><time>2026-04-07T14:00:13.89Z</time></trkpt><trkpt lat="45.6805617" lon="11.2606517"><ele>712.0</ele><time>2026-04-07T14:00:16.891Z</time></trkpt><trkpt lat="45.680615" lon="11.2605617"><ele>712.0</ele><time>2026-04-07T14:00:18.891Z</time></trkpt><trkpt lat="45.6806517" lon="11.2604667"><ele>712.0</ele><time>2026-04-07T14:00:20.891Z</time></trkpt><trkpt lat="45.680695" lon="11.260375"><ele>712.0</ele><time>2026-04-07T14:00:22.891Z</time></trkpt><trkpt lat="45.6807333" lon="11.2602767"><ele>712.0</ele><time>2026-04-07T14:00:24.89Z</time></trkpt><trkpt lat="45.6807817" lon="11.2602067"><ele>712.0</ele><time>2026-04-07T14:00:26.891Z</time></trkpt><trkpt lat="45.6808617" lon="11.2601733"><ele>712.0</ele><time>2026-04-07T14:00:28.89Z</time></trkpt><trkpt lat="45.6809833" lon="11.2601367"><ele>712.0</ele><time>2026-04-07T14:00:30.89Z</time></trkpt><trkpt lat="45.681045" lon="11.2601117"><ele>712.0</ele><time>2026-04-07T14:00:31.891Z</time></trkpt><trkpt lat="45.68116" lon="11.26006"><ele>712.0</ele><time>2026-04-07T14:00:33.891Z</time></trkpt><trkpt lat="45.6812617" lon="11.26"><ele>714.5</ele><time>2026-04-07T14:00:35.891Z</time></trkpt><trkpt lat="45.681345" lon="11.2599517"><ele>717.0</ele><time>2026-04-07T14:00:37.891Z</time></trkpt><trkpt lat="45.68143" lon="11.259885"><ele>719.5</ele><time>2026-04-07T14:00:39.891Z</time></trkpt><trkpt lat="45.681505" lon="11.25983"><ele>722.0</ele><time>2026-04-07T14:00:41.891Z</time></trkpt><trkpt lat="45.6815667" lon="11.2597967"><ele>724.5</ele><time>2026-04-07T14:00:42.891Z</time></trkpt><trkpt lat="45.6816583" lon="11.2597433"><ele>727.0</ele><time>2026-04-07T14:00:44.89Z</time></trkpt><trkpt lat="45.6817617" lon="11.2597183"><ele>727.0</ele><time>2026-04-07T14:00:46.891Z</time></trkpt><trkpt lat="45.6818467" lon="11.2596917"><ele>727.0</ele><time>2026-04-07T14:00:48.891Z</time></trkpt><trkpt lat="45.6819367" lon="11.2596683"><ele>727.0</ele><time>2026-04-07T14:00:50.891Z</time></trkpt><trkpt lat="45.6820283" lon="11.2596417"><ele>727.0</ele><time>2026-04-07T14:00:52.891Z</time></trkpt><trkpt lat="45.6821333" lon="11.2596167"><ele>727.0</ele><time>2026-04-07T14:00:54.891Z</time></trkpt><trkpt lat="45.68225" lon="11.25958"><ele>724.6</ele><time>2026-04-07T14:00:56.891Z</time></trkpt><trkpt lat="45.68232" lon="11.25957"><ele>722.2</ele><time>2026-04-07T14:00:57.891Z</time></trkpt><trkpt lat="45.682435" lon="11.2595567"><ele>719.8</ele><time>2026-04-07T14:00:59.89Z</time></trkpt><trkpt lat="45.682555" lon="11.25956"><ele>717.4</ele><time>2026-04-07T14:01:01.891Z</time></trkpt><trkpt lat="45.6826767" lon="11.259565"><ele>715.0</ele><time>2026-04-07T14:01:03.891Z</time></trkpt><trkpt lat="45.6827817" lon="11.2595733"><ele>712.3333333333334</ele><time>2026-04-07T14:01:05.891Z</time></trkpt><trkpt lat="45.6828833" lon="11.25958"><ele>709.6666666666667</ele><time>2026-04-07T14:01:07.89Z</time></trkpt><trkpt lat="45.6829683" lon="11.2595817"><ele>707.0</ele><time>2026-04-07T14:01:09.891Z</time></trkpt><trkpt lat="45.683035" lon="11.2595883"><ele>704.3333333333334</ele><time>2026-04-07T14:01:13.891Z</time></trkpt><trkpt lat="45.6831133" lon="11.25961"><ele>701.6666666666666</ele><time>2026-04-07T14:01:19.891Z</time></trkpt><trkpt lat="45.683185" lon="11.2596283"><ele>699.0</ele><time>2026-04-07T14:01:21.891Z</time></trkpt><trkpt lat="45.68325" lon="11.2596433"><ele>699.0</ele><time>2026-04-07T14:01:23.891Z</time></trkpt><trkpt lat="45.6832983" lon="11.259575"><ele>699.0</ele><time>2026-04-07T14:03:18.889Z</time></trkpt><trkpt lat="45.6834417" lon="11.2595017"><ele>699.0</ele><time>2026-04-07T14:03:20.89Z</time></trkpt><trkpt lat="45.6835467" lon="11.2594267"><ele>699.0</ele><time>2026-04-07T14:03:21.889Z</time></trkpt><trkpt lat="45.6836617" lon="11.25935"><ele>696.8000000000001</ele><time>2026-04-07T14:03:22.89Z</time></trkpt><trkpt lat="45.683765" lon="11.259245"><ele>694.6</ele><time>2026-04-07T14:03:23.89Z</time></trkpt><trkpt lat="45.6838567" lon="11.2591467"><ele>692.4</ele><time>2026-04-07T14:03:24.89Z</time></trkpt><trkpt lat="45.683935" lon="11.2590583"><ele>690.2</ele><time>2026-04-07T14:03:25.889Z</time></trkpt><trkpt lat="45.6840067" lon="11.25896"><ele>688.0</ele><time>2026-04-07T14:03:26.889Z</time></trkpt><trkpt lat="45.6840917" lon="11.2588533"><ele>688.0</ele><time>2026-04-07T14:03:27.889Z</time></trkpt><trkpt lat="45.6841617" lon="11.2587467"><ele>688.0</ele><time>2026-04-07T14:03:28.889Z</time></trkpt><trkpt lat="45.6842333" lon="11.25864"><ele>688.0</ele><time>2026-04-07T14:03:29.89Z</time></trkpt><trkpt lat="45.6843033" lon="11.2585083"><ele>688.0</ele><time>2026-04-07T14:03:30.889Z</time></trkpt><trkpt lat="45.6843667" lon="11.2583633"><ele>688.0</ele><time>2026-04-07T14:03:31.889Z</time></trkpt><trkpt lat="45.6844167" lon="11.25823"><ele>678.8</ele><time>2026-04-07T14:03:32.89Z</time></trkpt><trkpt lat="45.6844517" lon="11.2581083"><ele>669.5999999999999</ele><time>2026-04-07T14:03:33.89Z</time></trkpt><trkpt lat="45.6844833" lon="11.257975"><ele>660.4000000000001</ele><time>2026-04-07T14:03:34.89Z</time></trkpt><trkpt lat="45.6845117" lon="11.257835"><ele>651.2</ele><time>2026-04-07T14:03:35.89Z</time></trkpt><trkpt lat="45.6845317" lon="11.2576917"><ele>642.0</ele><time>2026-04-07T14:03:36.89Z</time></trkpt><trkpt lat="45.684555" lon="11.2575483"><ele>642.0</ele><time>2026-04-07T14:03:37.89Z</time></trkpt><trkpt lat="45.6845817" lon="11.2573833"><ele>642.0</ele><time>2026-04-07T14:03:38.89Z</time></trkpt><trkpt lat="45.6846067" lon="11.2572233"><ele>642.0</ele><time>2026-04-07T14:03:39.89Z</time></trkpt><trkpt lat="45.68464" lon="11.2570333"><ele>642.0</ele><time>2026-04-07T14:03:40.89Z</time></trkpt><trkpt lat="45.68469" lon="11.2568583"><ele>646.5</ele><time>2026-04-07T14:03:41.89Z</time></trkpt><trkpt lat="45.6847283" lon="11.2566833"><ele>651.0</ele><time>2026-04-07T14:03:42.889Z</time></trkpt><trkpt lat="45.6847717" lon="11.25654"><ele>655.5</ele><time>2026-04-07T14:03:43.89Z</time></trkpt><trkpt lat="45.68482" lon="11.2563983"><ele>660.0</ele><time>2026-04-07T14:03:44.89Z</time></trkpt><trkpt lat="45.68489" lon="11.2562533"><ele>663.8</ele><time>2026-04-07T14:03:45.889Z</time></trkpt><trkpt lat="45.684955" lon="11.2561417"><ele>667.6</ele><time>2026-04-07T14:03:46.889Z</time></trkpt><trkpt lat="45.6850367" lon="11.2560333"><ele>671.4000000000001</ele><time>2026-04-07T14:03:47.889Z</time></trkpt><trkpt lat="45.6851167" lon="11.25593"><ele>675.2</ele><time>2026-04-07T14:03:48.89Z</time></trkpt><trkpt lat="45.685195" lon="11.2558283"><ele>679.0</ele><time>2026-04-07T14:03:49.889Z</time></trkpt><trkpt lat="45.6852767" lon="11.2557367"><ele>675.1666666666667</ele><time>2026-04-07T14:03:50.89Z</time></trkpt><trkpt lat="45.6853517" lon="11.255655"><ele>671.3333333333334</ele><time>2026-04-07T14:03:51.89Z</time></trkpt><trkpt lat="45.685435" lon="11.25558"><ele>667.5</ele><time>2026-04-07T14:03:52.89Z</time></trkpt><trkpt lat="45.6855083" lon="11.2555383"><ele>663.6666666666666</ele><time>2026-04-07T14:03:53.89Z</time></trkpt><trkpt lat="45.6855733" lon="11.2554967"><ele>659.8333333333333</ele><time>2026-04-07T14:03:54.89Z</time></trkpt><trkpt lat="45.6856383" lon="11.255435"><ele>656.0</ele><time>2026-04-07T14:03:55.889Z</time></trkpt><trkpt lat="45.6856883" lon="11.25537"><ele>656.0</ele><time>2026-04-07T14:03:56.889Z</time></trkpt><trkpt lat="45.6857517" lon="11.2552667"><ele>656.0</ele><time>2026-04-07T14:03:57.89Z</time></trkpt><trkpt lat="45.6858117" lon="11.255125"><ele>656.0</ele><time>2026-04-07T14:03:58.89Z</time></trkpt><trkpt lat="45.6858767" lon="11.2549633"><ele>656.0</ele><time>2026-04-07T14:03:59.89Z</time></trkpt><trkpt lat="45.685935" lon="11.254805"><ele>658.25</ele><time>2026-04-07T14:04:00.89Z</time></trkpt><trkpt lat="45.6860067" lon="11.2546517"><ele>660.5</ele><time>2026-04-07T14:04:01.89Z</time></trkpt><trkpt lat="45.6860917" lon="11.2545"><ele>662.75</ele><time>2026-04-07T14:04:02.89Z</time></trkpt><trkpt lat="45.686185" lon="11.2543533"><ele>665.0</ele><time>2026-04-07T14:04:03.89Z</time></trkpt><trkpt lat="45.68628" lon="11.2542033"><ele>658.0</ele><time>2026-04-07T14:04:04.889Z</time></trkpt><trkpt lat="45.6863683" lon="11.254065"><ele>651.0</ele><time>2026-04-07T14:04:05.889Z</time></trkpt><trkpt lat="45.6864517" lon="11.25391"><ele>644.0</ele><time>2026-04-07T14:04:06.89Z</time></trkpt><trkpt lat="45.6865383" lon="11.2537367"><ele>637.0</ele><time>2026-04-07T14:04:07.89Z</time></trkpt><trkpt lat="45.686635" lon="11.25355"><ele>637.0</ele><time>2026-04-07T14:04:08.89Z</time></trkpt><trkpt lat="45.68673" lon="11.253365"><ele>637.0</ele><time>2026-04-07T14:04:09.888Z</time></trkpt><trkpt lat="45.6868133" lon="11.2531983"><ele>637.0</ele><time>2026-04-07T14:04:10.889Z</time></trkpt><trkpt lat="45.6868933" lon="11.2530217"><ele>632.75</ele><time>2026-04-07T14:04:11.888Z</time></trkpt><trkpt lat="45.686985" lon="11.2528567"><ele>628.5</ele><time>2026-04-07T14:04:12.889Z</time></trkpt><trkpt lat="45.687085" lon="11.2527033"><ele>624.25</ele><time>2026-04-07T14:04:13.889Z</time></trkpt><trkpt lat="45.6871933" lon="11.2525433"><ele>620.0</ele><time>2026-04-07T14:04:14.889Z</time></trkpt><trkpt lat="45.6873067" lon="11.25239"><ele>625.0</ele><time>2026-04-07T14:04:15.889Z</time></trkpt><trkpt lat="45.6874183" lon="11.2522517"><ele>630.0</ele><time>2026-04-07T14:04:16.889Z</time></trkpt><trkpt lat="45.6875217" lon="11.2521233"><ele>635.0</ele><time>2026-04-07T14:04:17.889Z</time></trkpt><trkpt lat="45.6876283" lon="11.25203"><ele>640.0</ele><time>2026-04-07T14:04:18.889Z</time></trkpt><trkpt lat="45.6877367" lon="11.251945"><ele>637.3333333333334</ele><time>2026-04-07T14:04:19.889Z</time></trkpt><trkpt lat="45.6878333" lon="11.2518767"><ele>634.6666666666667</ele><time>2026-04-07T14:04:20.889Z</time></trkpt><trkpt lat="45.6879117" lon="11.2518217"><ele>632.0</ele><time>2026-04-07T14:04:21.889Z</time></trkpt><trkpt lat="45.6879883" lon="11.251765"><ele>629.3333333333334</ele><time>2026-04-07T14:04:22.889Z</time></trkpt><trkpt lat="45.6880467" lon="11.2517083"><ele>626.6666666666666</ele><time>2026-04-07T14:04:23.889Z</time></trkpt><trkpt lat="45.6881233" lon="11.2516783"><ele>624.0</ele><time>2026-04-07T14:04:24.889Z</time></trkpt><trkpt lat="45.6882" lon="11.2516683"><ele>624.0</ele><time>2026-04-07T14:04:25.889Z</time></trkpt><trkpt lat="45.6882683" lon="11.25168"><ele>624.0</ele><time>2026-04-07T14:04:26.889Z</time></trkpt><trkpt lat="45.688345" lon="11.2516917"><ele>624.0</ele><time>2026-04-07T14:04:27.889Z</time></trkpt><trkpt lat="45.6884483" lon="11.2516867"><ele>624.0</ele><time>2026-04-07T14:04:28.889Z</time></trkpt><trkpt lat="45.6885533" lon="11.2516667"><ele>624.0</ele><time>2026-04-07T14:04:29.888Z</time></trkpt><trkpt lat="45.6886667" lon="11.2516233"><ele>625.5</ele><time>2026-04-07T14:04:30.889Z</time></trkpt><trkpt lat="45.6887717" lon="11.2515633"><ele>627.0</ele><time>2026-04-07T14:04:31.889Z</time></trkpt><trkpt lat="45.6888733" lon="11.2514867"><ele>628.5</ele><time>2026-04-07T14:04:32.889Z</time></trkpt><trkpt lat="45.688975" lon="11.2513917"><ele>630.0</ele><time>2026-04-07T14:04:33.888Z</time></trkpt><trkpt lat="45.6890667" lon="11.25129"><ele>630.0</ele><time>2026-04-07T14:04:34.889Z</time></trkpt><trkpt lat="45.689155" lon="11.25119"><ele>630.0</ele><time>2026-04-07T14:04:35.889Z</time></trkpt><trkpt lat="45.6892433" lon="11.2510833"><ele>630.0</ele><time>2026-04-07T14:04:36.889Z</time></trkpt><trkpt lat="45.6893283" lon="11.250965"><ele>630.0</ele><time>2026-04-07T14:04:37.889Z</time></trkpt><trkpt lat="45.6894067" lon="11.2508317"><ele>626.6</ele><time>2026-04-07T14:04:38.888Z</time></trkpt><trkpt lat="45.68948" lon="11.250715"><ele>623.2</ele><time>2026-04-07T14:04:39.888Z</time></trkpt><trkpt lat="45.6895517" lon="11.2505967"><ele>619.8</ele><time>2026-04-07T14:04:40.889Z</time></trkpt><trkpt lat="45.6896283" lon="11.250505"><ele>616.4</ele><time>2026-04-07T14:04:41.889Z</time></trkpt><trkpt lat="45.6897133" lon="11.2504217"><ele>613.0</ele><time>2026-04-07T14:04:42.888Z</time></trkpt><trkpt lat="45.68979" lon="11.250345"><ele>613.0</ele><time>2026-04-07T14:04:43.888Z</time></trkpt><trkpt lat="45.68986" lon="11.2502317"><ele>613.0</ele><time>2026-04-07T14:04:44.889Z</time></trkpt><trkpt lat="45.6899367" lon="11.2501133"><ele>613.0</ele><time>2026-04-07T14:04:45.889Z</time></trkpt><trkpt lat="45.6899967" lon="11.2499867"><ele>613.0</ele><time>2026-04-07T14:04:46.889Z</time></trkpt><trkpt lat="45.6900467" lon="11.2498733"><ele>613.0</ele><time>2026-04-07T14:04:47.888Z</time></trkpt><trkpt lat="45.69009" lon="11.24978"><ele>613.0</ele><time>2026-04-07T14:04:48.889Z</time></trkpt><trkpt lat="45.6901467" lon="11.2496817"><ele>613.0</ele><time>2026-04-07T14:04:50.888Z</time></trkpt><trkpt lat="45.6901883" lon="11.24976"><ele>613.0</ele><time>2026-04-07T14:04:53.889Z</time></trkpt><trkpt lat="45.6901467" lon="11.249945"><ele>613.0</ele><time>2026-04-07T14:04:55.888Z</time></trkpt><trkpt lat="45.6901267" lon="11.2501"><ele>613.0</ele><time>2026-04-07T14:04:56.888Z</time></trkpt><trkpt lat="45.69012" lon="11.25027"><ele>613.0</ele><time>2026-04-07T14:04:57.889Z</time></trkpt><trkpt lat="45.6901317" lon="11.2504367"><ele>613.0</ele><time>2026-04-07T14:04:58.889Z</time></trkpt><trkpt lat="45.6901533" lon="11.2505817"><ele>613.0</ele><time>2026-04-07T14:04:59.889Z</time></trkpt><trkpt lat="45.6901567" lon="11.2507067"><ele>613.0</ele><time>2026-04-07T14:05:00.888Z</time></trkpt><trkpt lat="45.6901517" lon="11.250835"><ele>613.0</ele><time>2026-04-07T14:05:01.889Z</time></trkpt><trkpt lat="45.69013" lon="11.2509667"><ele>608.1999999999999</ele><time>2026-04-07T14:05:02.889Z</time></trkpt><trkpt lat="45.6900933" lon="11.2511033"><ele>603.4</ele><time>2026-04-07T14:05:03.889Z</time></trkpt><trkpt lat="45.69005" lon="11.2512317"><ele>598.5999999999999</ele><time>2026-04-07T14:05:04.889Z</time></trkpt><trkpt lat="45.6900167" lon="11.25136"><ele>593.8</ele><time>2026-04-07T14:05:05.889Z</time></trkpt><trkpt lat="45.6900117" lon="11.2515"><ele>589.0</ele><time>2026-04-07T14:05:06.889Z</time></trkpt><trkpt lat="45.69002" lon="11.2516683"><ele>586.75</ele><time>2026-04-07T14:05:07.889Z</time></trkpt><trkpt lat="45.6900317" lon="11.2518567"><ele>584.5</ele><time>2026-04-07T14:05:08.889Z</time></trkpt><trkpt lat="45.6900433" lon="11.2520383"><ele>582.25</ele><time>2026-04-07T14:05:09.889Z</time></trkpt><trkpt lat="45.6900533" lon="11.2522067"><ele>580.0</ele><time>2026-04-07T14:05:10.889Z</time></trkpt><trkpt lat="45.690055" lon="11.2523733"><ele>577.6666666666667</ele><time>2026-04-07T14:05:11.889Z</time></trkpt><trkpt lat="45.6900517" lon="11.2525183"><ele>575.3333333333334</ele><time>2026-04-07T14:05:12.889Z</time></trkpt><trkpt lat="45.69005" lon="11.2526267"><ele>573.0</ele><time>2026-04-07T14:05:13.889Z</time></trkpt><trkpt lat="45.690035" lon="11.252795"><ele>570.6666666666666</ele><time>2026-04-07T14:05:15.888Z</time></trkpt><trkpt lat="45.6900017" lon="11.2528717"><ele>568.3333333333333</ele><time>2026-04-07T14:05:16.889Z</time></trkpt><trkpt lat="45.6899417" lon="11.2529583"><ele>566.0</ele><time>2026-04-07T14:05:17.889Z</time></trkpt><trkpt lat="45.6898533" lon="11.2530667"><ele>562.0</ele><time>2026-04-07T14:05:18.889Z</time></trkpt><trkpt lat="45.6897433" lon="11.2532"><ele>558.0</ele><time>2026-04-07T14:05:19.888Z</time></trkpt><trkpt lat="45.689635" lon="11.253325"><ele>554.0</ele><time>2026-04-07T14:05:20.888Z</time></trkpt><trkpt lat="45.689535" lon="11.2534317"><ele>550.0</ele><time>2026-04-07T14:05:21.888Z</time></trkpt><trkpt lat="45.689445" lon="11.25352"><ele>553.25</ele><time>2026-04-07T14:05:22.889Z</time></trkpt><trkpt lat="45.6893617" lon="11.2535983"><ele>556.5</ele><time>2026-04-07T14:05:23.889Z</time></trkpt><trkpt lat="45.6892583" lon="11.2536567"><ele>559.75</ele><time>2026-04-07T14:05:24.889Z</time></trkpt><trkpt lat="45.6891417" lon="11.25372"><ele>563.0</ele><time>2026-04-07T14:05:25.889Z</time></trkpt><trkpt lat="45.6890117" lon="11.25377"><ele>563.0</ele><time>2026-04-07T14:05:26.889Z</time></trkpt><trkpt lat="45.68887" lon="11.2538033"><ele>563.0</ele><time>2026-04-07T14:05:27.888Z</time></trkpt><trkpt lat="45.6887483" lon="11.2538117"><ele>563.0</ele><time>2026-04-07T14:05:28.889Z</time></trkpt><trkpt lat="45.6886333" lon="11.2538267"><ele>563.0</ele><time>2026-04-07T14:05:29.889Z</time></trkpt><trkpt lat="45.6885417" lon="11.253855"><ele>562.4285714285714</ele><time>2026-04-07T14:05:30.889Z</time></trkpt><trkpt lat="45.68847" lon="11.2538983"><ele>561.8571428571429</ele><time>2026-04-07T14:05:31.889Z</time></trkpt><trkpt lat="45.6884083" lon="11.2539633"><ele>561.2857142857143</ele><time>2026-04-07T14:05:32.889Z</time></trkpt><trkpt lat="45.6883733" lon="11.254045"><ele>560.7142857142858</ele><time>2026-04-07T14:05:33.889Z</time></trkpt><trkpt lat="45.6883633" lon="11.2541533"><ele>560.1428571428572</ele><time>2026-04-07T14:05:34.888Z</time></trkpt><trkpt lat="45.6883833" lon="11.25426"><ele>559.5714285714286</ele><time>2026-04-07T14:05:35.889Z</time></trkpt><trkpt lat="45.68842" lon="11.2543367"><ele>559.0</ele><time>2026-04-07T14:05:36.889Z</time></trkpt><trkpt lat="45.688475" lon="11.2543867"><ele>559.0</ele><time>2026-04-07T14:05:37.889Z</time></trkpt><trkpt lat="45.6885717" lon="11.25447"><ele>559.0</ele><time>2026-04-07T14:05:39.889Z</time></trkpt><trkpt lat="45.68863" lon="11.2546483"><ele>559.0</ele><time>2026-04-07T14:05:41.889Z</time></trkpt><trkpt lat="45.688645" lon="11.2547767"><ele>559.0</ele><time>2026-04-07T14:05:42.889Z</time></trkpt><trkpt lat="45.6886633" lon="11.2548867"><ele>559.0</ele><time>2026-04-07T14:05:43.889Z</time></trkpt><trkpt lat="45.6886817" lon="11.2549967"><ele>555.8333333333334</ele><time>2026-04-07T14:05:44.889Z</time></trkpt><trkpt lat="45.6886917" lon="11.2550933"><ele>552.6666666666667</ele><time>2026-04-07T14:05:45.889Z</time></trkpt><trkpt lat="45.688685" lon="11.255255"><ele>549.5</ele><time>2026-04-07T14:05:47.889Z</time></trkpt><trkpt lat="45.68867" lon="11.2553433"><ele>546.3333333333334</ele><time>2026-04-07T14:05:48.889Z</time></trkpt><trkpt lat="45.6886483" lon="11.25546"><ele>543.1666666666666</ele><time>2026-04-07T14:05:49.889Z</time></trkpt><trkpt lat="45.6886317" lon="11.255595"><ele>540.0</ele><time>2026-04-07T14:05:50.889Z</time></trkpt><trkpt lat="45.688625" lon="11.2557267"><ele>539.1666666666666</ele><time>2026-04-07T14:05:51.888Z</time></trkpt><trkpt lat="45.68862" lon="11.25585"><ele>538.3333333333334</ele><time>2026-04-07T14:05:52.889Z</time></trkpt><trkpt lat="45.6886133" lon="11.2559767"><ele>537.5</ele><time>2026-04-07T14:05:53.888Z</time></trkpt><trkpt lat="45.6885967" lon="11.2560867"><ele>536.6666666666667</ele><time>2026-04-07T14:05:54.889Z</time></trkpt><trkpt lat="45.6885833" lon="11.25619"><ele>535.8333333333334</ele><time>2026-04-07T14:05:55.889Z</time></trkpt><trkpt lat="45.6885767" lon="11.2562983"><ele>535.0</ele><time>2026-04-07T14:05:56.888Z</time></trkpt><trkpt lat="45.68856" lon="11.2563917"><ele>534.1666666666667</ele><time>2026-04-07T14:05:57.889Z</time></trkpt><trkpt lat="45.688545" lon="11.2564833"><ele>533.3333333333334</ele><time>2026-04-07T14:05:58.888Z</time></trkpt><trkpt lat="45.688535" lon="11.25661"><ele>532.5</ele><time>2026-04-07T14:06:00.889Z</time></trkpt><trkpt lat="45.68854" lon="11.25671"><ele>531.6666666666666</ele><time>2026-04-07T14:06:02.889Z</time></trkpt><trkpt lat="45.6885633" lon="11.2567983"><ele>530.8333333333333</ele><time>2026-04-07T14:06:04.889Z</time></trkpt><trkpt lat="45.6886617" lon="11.2568617"><ele>530.0</ele><time>2026-04-07T14:06:06.889Z</time></trkpt><trkpt lat="45.6887467" lon="11.25682"><ele>530.0</ele><time>2026-04-07T14:06:08.889Z</time></trkpt><trkpt lat="45.6888433" lon="11.2567083"><ele>530.0</ele><time>2026-04-07T14:06:10.889Z</time></trkpt><trkpt lat="45.6888967" lon="11.2565867"><ele>530.0</ele><time>2026-04-07T14:06:11.889Z</time></trkpt><trkpt lat="45.6889583" lon="11.256435"><ele>530.0</ele><time>2026-04-07T14:06:12.889Z</time></trkpt><trkpt lat="45.6890317" lon="11.25629"><ele>531.25</ele><time>2026-04-07T14:06:13.889Z</time></trkpt><trkpt lat="45.6891233" lon="11.2561517"><ele>532.5</ele><time>2026-04-07T14:06:14.888Z</time></trkpt><trkpt lat="45.6892117" lon="11.2560167"><ele>533.75</ele><time>2026-04-07T14:06:15.888Z</time></trkpt><trkpt lat="45.6892917" lon="11.2558917"><ele>535.0</ele><time>2026-04-07T14:06:16.889Z</time></trkpt><trkpt lat="45.6893683" lon="11.2557733"><ele>531.2</ele><time>2026-04-07T14:06:17.889Z</time></trkpt><trkpt lat="45.6894367" lon="11.2556633"><ele>527.4</ele><time>2026-04-07T14:06:18.889Z</time></trkpt><trkpt lat="45.68951" lon="11.2555817"><ele>523.6</ele><time>2026-04-07T14:06:19.889Z</time></trkpt><trkpt lat="45.689585" lon="11.2555067"><ele>519.8</ele><time>2026-04-07T14:06:20.888Z</time></trkpt><trkpt lat="45.6896483" lon="11.255425"><ele>516.0</ele><time>2026-04-07T14:06:21.889Z</time></trkpt><trkpt lat="45.6896933" lon="11.2553333"><ele>516.0</ele><time>2026-04-07T14:06:22.888Z</time></trkpt><trkpt lat="45.6897267" lon="11.25525"><ele>516.0</ele><time>2026-04-07T14:06:23.888Z</time></trkpt><trkpt lat="45.689725" lon="11.2550633"><ele>516.0</ele><time>2026-04-07T14:06:25.889Z</time></trkpt><trkpt lat="45.6897467" lon="11.2549717"><ele>516.0</ele><time>2026-04-07T14:06:26.888Z</time></trkpt><trkpt lat="45.6897783" lon="11.2548783"><ele>516.0</ele><time>2026-04-07T14:06:27.889Z</time></trkpt><trkpt lat="45.6898633" lon="11.25473"><ele>513.75</ele><time>2026-04-07T14:06:29.888Z</time></trkpt><trkpt lat="45.689955" lon="11.2546767"><ele>511.5</ele><time>2026-04-07T14:06:30.889Z</time></trkpt><trkpt lat="45.6900617" lon="11.2546267"><ele>509.25</ele><time>2026-04-07T14:06:31.888Z</time></trkpt><trkpt lat="45.690195" lon="11.2546"><ele>507.0</ele><time>2026-04-07T14:06:32.889Z</time></trkpt><trkpt lat="45.69031" lon="11.254565"><ele>507.0</ele><time>2026-04-07T14:06:33.889Z</time></trkpt><trkpt lat="45.69042" lon="11.25451"><ele>507.0</ele><time>2026-04-07T14:06:34.889Z</time></trkpt><trkpt lat="45.6905417" lon="11.2544317"><ele>507.0</ele><time>2026-04-07T14:06:35.889Z</time></trkpt><trkpt lat="45.69067" lon="11.2543183"><ele>507.0</ele><time>2026-04-07T14:06:36.888Z</time></trkpt><trkpt lat="45.6907933" lon="11.2541883"><ele>507.0</ele><time>2026-04-07T14:06:37.889Z</time></trkpt><trkpt lat="45.690885" lon="11.2540883"><ele>507.0</ele><time>2026-04-07T14:06:38.889Z</time></trkpt><trkpt lat="45.6910083" lon="11.25401"><ele>507.0</ele><time>2026-04-07T14:06:39.889Z</time></trkpt><trkpt lat="45.691125" lon="11.2539233"><ele>507.0</ele><time>2026-04-07T14:06:40.888Z</time></trkpt><trkpt lat="45.6912483" lon="11.2538183"><ele>502.66666666666663</ele><time>2026-04-07T14:06:41.889Z</time></trkpt><trkpt lat="45.6913817" lon="11.2536983"><ele>498.3333333333333</ele><time>2026-04-07T14:06:42.889Z</time></trkpt><trkpt lat="45.6915267" lon="11.2535667"><ele>494.0</ele><time>2026-04-07T14:06:43.889Z</time></trkpt><trkpt lat="45.69166" lon="11.2534233"><ele>494.0</ele><time>2026-04-07T14:06:44.889Z</time></trkpt><trkpt lat="45.6917867" lon="11.2532783"><ele>494.0</ele><time>2026-04-07T14:06:45.888Z</time></trkpt><trkpt lat="45.6918983" lon="11.2531467"><ele>494.0</ele><time>2026-04-07T14:06:46.887Z</time></trkpt><trkpt lat="45.6920067" lon="11.25301"><ele>490.79999999999995</ele><time>2026-04-07T14:06:47.888Z</time></trkpt><trkpt lat="45.6920833" lon="11.2529167"><ele>487.59999999999997</ele><time>2026-04-07T14:06:48.888Z</time></trkpt><trkpt lat="45.692145" lon="11.2527817"><ele>484.4</ele><time>2026-04-07T14:06:49.887Z</time></trkpt><trkpt lat="45.6921917" lon="11.25266"><ele>481.2</ele><time>2026-04-07T14:06:50.888Z</time></trkpt><trkpt lat="45.6922383" lon="11.2525783"><ele>478.0</ele><time>2026-04-07T14:06:51.888Z</time></trkpt><trkpt lat="45.692305" lon="11.2524883"><ele>478.0</ele><time>2026-04-07T14:06:53.888Z</time></trkpt><trkpt lat="45.6923683" lon="11.2525183"><ele>477.99999999999994</ele><time>2026-04-07T14:06:55.887Z</time></trkpt><trkpt lat="45.692365" lon="11.25265"><ele>477.99999999999994</ele><time>2026-04-07T14:06:57.888Z</time></trkpt><trkpt lat="45.692335" lon="11.25277"><ele>478.0</ele><time>2026-04-07T14:06:58.888Z</time></trkpt><trkpt lat="45.692265" lon="11.252925"><ele>478.0</ele><time>2026-04-07T14:06:59.888Z</time></trkpt><trkpt lat="45.6922183" lon="11.2531117"><ele>473.0</ele><time>2026-04-07T14:07:00.888Z</time></trkpt><trkpt lat="45.69214" lon="11.2533283"><ele>468.0</ele><time>2026-04-07T14:07:01.888Z</time></trkpt><trkpt lat="45.6921083" lon="11.2535533"><ele>463.0</ele><time>2026-04-07T14:07:02.887Z</time></trkpt><trkpt lat="45.6920817" lon="11.2537783"><ele>460.0</ele><time>2026-04-07T14:07:03.888Z</time></trkpt><trkpt lat="45.6920567" lon="11.254005"><ele>457.0</ele><time>2026-04-07T14:07:04.888Z</time></trkpt><trkpt lat="45.6920217" lon="11.2541833"><ele>454.0</ele><time>2026-04-07T14:07:05.888Z</time></trkpt><trkpt lat="45.6919733" lon="11.254325"><ele>451.0</ele><time>2026-04-07T14:07:06.888Z</time></trkpt><trkpt lat="45.691935" lon="11.2544183"><ele>451.0</ele><time>2026-04-07T14:07:07.887Z</time></trkpt><trkpt lat="45.6919217" lon="11.2545667"><ele>451.0</ele><time>2026-04-07T14:07:09.888Z</time></trkpt><trkpt lat="45.6920483" lon="11.2544933"><ele>451.0</ele><time>2026-04-07T14:07:12.888Z</time></trkpt><trkpt lat="45.69214" lon="11.254355"><ele>451.0</ele><time>2026-04-07T14:07:13.887Z</time></trkpt><trkpt lat="45.6922467" lon="11.2541867"><ele>451.0</ele><time>2026-04-07T14:07:14.888Z</time></trkpt><trkpt lat="45.692335" lon="11.25406"><ele>451.0</ele><time>2026-04-07T14:07:15.887Z</time></trkpt><trkpt lat="45.6924067" lon="11.25397"><ele>451.0</ele><time>2026-04-07T14:07:16.888Z</time></trkpt><trkpt lat="45.6924717" lon="11.2539267"><ele>451.0</ele><time>2026-04-07T14:07:17.887Z</time></trkpt><trkpt lat="45.692565" lon="11.25394"><ele>451.0</ele><time>2026-04-07T14:07:19.887Z</time></trkpt><trkpt lat="45.69255" lon="11.2541017"><ele>451.0</ele><time>2026-04-07T14:07:21.887Z</time></trkpt><trkpt lat="45.6925083" lon="11.2542417"><ele>451.0</ele><time>2026-04-07T14:07:22.888Z</time></trkpt><trkpt lat="45.69244" lon="11.2544267"><ele>451.0</ele><time>2026-04-07T14:07:23.888Z</time></trkpt><trkpt lat="45.6923733" lon="11.2546233"><ele>451.0</ele><time>2026-04-07T14:07:24.887Z</time></trkpt><trkpt lat="45.6923333" lon="11.25479"><ele>452.0</ele><time>2026-04-07T14:07:25.888Z</time></trkpt><trkpt lat="45.6922917" lon="11.2549233"><ele>453.0</ele><time>2026-04-07T14:07:26.887Z</time></trkpt><trkpt lat="45.6922233" lon="11.2550183"><ele>454.0</ele><time>2026-04-07T14:07:27.887Z</time></trkpt><trkpt lat="45.6921367" lon="11.2551183"><ele>455.0</ele><time>2026-04-07T14:07:28.888Z</time></trkpt><trkpt lat="45.6920267" lon="11.2552117"><ele>456.0</ele><time>2026-04-07T14:07:29.888Z</time></trkpt><trkpt lat="45.6919067" lon="11.255315"><ele>456.0</ele><time>2026-04-07T14:07:30.887Z</time></trkpt><trkpt lat="45.69179" lon="11.2554083"><ele>456.0</ele><time>2026-04-07T14:07:31.888Z</time></trkpt><trkpt lat="45.6917" lon="11.2554833"><ele>456.0</ele><time>2026-04-07T14:07:32.888Z</time></trkpt><trkpt lat="45.6916267" lon="11.255565"><ele>456.0</ele><time>2026-04-07T14:07:33.887Z</time></trkpt><trkpt lat="45.6915633" lon="11.2556617"><ele>456.0</ele><time>2026-04-07T14:07:34.888Z</time></trkpt><trkpt lat="45.6915283" lon="11.25576"><ele>452.6</ele><time>2026-04-07T14:07:35.888Z</time></trkpt><trkpt lat="45.691515" lon="11.2558767"><ele>449.20000000000005</ele><time>2026-04-07T14:07:36.888Z</time></trkpt><trkpt lat="45.6915267" lon="11.256005"><ele>445.79999999999995</ele><time>2026-04-07T14:07:37.888Z</time></trkpt><trkpt lat="45.6915717" lon="11.2561133"><ele>442.4</ele><time>2026-04-07T14:07:38.888Z</time></trkpt><trkpt lat="45.6916517" lon="11.2562083"><ele>439.0</ele><time>2026-04-07T14:07:39.888Z</time></trkpt><trkpt lat="45.6917317" lon="11.2563133"><ele>439.0</ele><time>2026-04-07T14:07:40.887Z</time></trkpt><trkpt lat="45.691785" lon="11.25644"><ele>439.0</ele><time>2026-04-07T14:07:41.888Z</time></trkpt><trkpt lat="45.6918217" lon="11.2566067"><ele>439.0</ele><time>2026-04-07T14:07:42.887Z</time></trkpt><trkpt lat="45.69185" lon="11.25681"><ele>439.0</ele><time>2026-04-07T14:07:43.888Z</time></trkpt><trkpt lat="45.6918733" lon="11.2570117"><ele>438.79999999999995</ele><time>2026-04-07T14:07:44.887Z</time></trkpt><trkpt lat="45.6919" lon="11.2571917"><ele>438.59999999999997</ele><time>2026-04-07T14:07:45.888Z</time></trkpt><trkpt lat="45.69191" lon="11.25735"><ele>438.4</ele><time>2026-04-07T14:07:46.888Z</time></trkpt><trkpt lat="45.69192" lon="11.257495"><ele>438.2</ele><time>2026-04-07T14:07:47.887Z</time></trkpt><trkpt lat="45.6919217" lon="11.2576133"><ele>438.0</ele><time>2026-04-07T14:07:48.887Z</time></trkpt><trkpt lat="45.69191" lon="11.2577117"><ele>437.4</ele><time>2026-04-07T14:07:49.888Z</time></trkpt><trkpt lat="45.6918833" lon="11.2578383"><ele>436.79999999999995</ele><time>2026-04-07T14:07:51.888Z</time></trkpt><trkpt lat="45.6919417" lon="11.25779"><ele>436.2</ele><time>2026-04-07T14:07:56.888Z</time></trkpt><trkpt lat="45.692" lon="11.2576183"><ele>435.6</ele><time>2026-04-07T14:07:58.887Z</time></trkpt><trkpt lat="45.6920633" lon="11.257515"><ele>435.0</ele><time>2026-04-07T14:07:59.888Z</time></trkpt><trkpt lat="45.6921383" lon="11.257435"><ele>430.6666666666667</ele><time>2026-04-07T14:08:00.887Z</time></trkpt><trkpt lat="45.6922067" lon="11.2573633"><ele>426.33333333333337</ele><time>2026-04-07T14:08:01.887Z</time></trkpt><trkpt lat="45.6922667" lon="11.2573"><ele>422.0</ele><time>2026-04-07T14:08:02.888Z</time></trkpt><trkpt lat="45.6923183" lon="11.2571517"><ele>417.6666666666667</ele><time>2026-04-07T14:08:04.887Z</time></trkpt><trkpt lat="45.6923167" lon="11.2570483"><ele>413.33333333333337</ele><time>2026-04-07T14:08:05.888Z</time></trkpt><trkpt lat="45.6922917" lon="11.2569283"><ele>409.0</ele><time>2026-04-07T14:08:06.888Z</time></trkpt><trkpt lat="45.6922667" lon="11.2568167"><ele>409.00000000000006</ele><time>2026-04-07T14:08:07.887Z</time></trkpt><trkpt lat="45.692235" lon="11.256705"><ele>409.0</ele><time>2026-04-07T14:08:08.888Z</time></trkpt><trkpt lat="45.6922033" lon="11.256605"><ele>409.0</ele><time>2026-04-07T14:08:09.887Z</time></trkpt><trkpt lat="45.6921883" lon="11.2564933"><ele>409.0</ele><time>2026-04-07T14:08:10.887Z</time></trkpt><trkpt lat="45.6921833" lon="11.2563817"><ele>409.00000000000006</ele><time>2026-04-07T14:08:11.888Z</time></trkpt><trkpt lat="45.69224" lon="11.256225"><ele>409.0</ele><time>2026-04-07T14:08:13.888Z</time></trkpt><trkpt lat="45.6923083" lon="11.2561833"><ele>411.75</ele><time>2026-04-07T14:08:14.888Z</time></trkpt><trkpt lat="45.6923983" lon="11.256135"><ele>414.5</ele><time>2026-04-07T14:08:15.887Z</time></trkpt><trkpt lat="45.6925" lon="11.256065"><ele>417.25</ele><time>2026-04-07T14:08:16.888Z</time></trkpt><trkpt lat="45.6926083" lon="11.255945"><ele>420.0</ele><time>2026-04-07T14:08:17.887Z</time></trkpt><trkpt lat="45.692705" lon="11.2558133"><ele>416.75</ele><time>2026-04-07T14:08:18.887Z</time></trkpt><trkpt lat="45.6927933" lon="11.25571"><ele>413.5</ele><time>2026-04-07T14:08:19.887Z</time></trkpt><trkpt lat="45.6928983" lon="11.255655"><ele>410.25</ele><time>2026-04-07T14:08:20.888Z</time></trkpt><trkpt lat="45.6930283" lon="11.2556417"><ele>407.0</ele><time>2026-04-07T14:08:21.888Z</time></trkpt><trkpt lat="45.6931817" lon="11.2556417"><ele>407.0</ele><time>2026-04-07T14:08:22.888Z</time></trkpt><trkpt lat="45.69332" lon="11.2556217"><ele>407.0</ele><time>2026-04-07T14:08:23.888Z</time></trkpt><trkpt lat="45.6934283" lon="11.25556"><ele>407.0</ele><time>2026-04-07T14:08:24.888Z</time></trkpt><trkpt lat="45.6935083" lon="11.2554567"><ele>407.0</ele><time>2026-04-07T14:08:25.888Z</time></trkpt><trkpt lat="45.6935933" lon="11.255335"><ele>405.66666666666663</ele><time>2026-04-07T14:08:26.888Z</time></trkpt><trkpt lat="45.693665" lon="11.2551617"><ele>404.33333333333337</ele><time>2026-04-07T14:08:27.888Z</time></trkpt><trkpt lat="45.6937283" lon="11.254955"><ele>403.0</ele><time>2026-04-07T14:08:28.887Z</time></trkpt><trkpt lat="45.69378" lon="11.25474"><ele>406.25</ele><time>2026-04-07T14:08:29.887Z</time></trkpt><trkpt lat="45.69382" lon="11.2545433"><ele>409.5</ele><time>2026-04-07T14:08:30.887Z</time></trkpt><trkpt lat="45.6938667" lon="11.2543717"><ele>412.75</ele><time>2026-04-07T14:08:31.888Z</time></trkpt><trkpt lat="45.6939283" lon="11.2542417"><ele>416.0</ele><time>2026-04-07T14:08:32.887Z</time></trkpt><trkpt lat="45.6940133" lon="11.254155"><ele>416.0</ele><time>2026-04-07T14:08:33.887Z</time></trkpt><trkpt lat="45.6941133" lon="11.25409"><ele>416.0</ele><time>2026-04-07T14:08:34.888Z</time></trkpt><trkpt lat="45.6942083" lon="11.254005"><ele>416.0</ele><time>2026-04-07T14:08:35.887Z</time></trkpt><trkpt lat="45.694295" lon="11.2538883"><ele>416.0</ele><time>2026-04-07T14:08:36.888Z</time></trkpt><trkpt lat="45.6943883" lon="11.253725"><ele>413.0</ele><time>2026-04-07T14:08:37.887Z</time></trkpt><trkpt lat="45.6944667" lon="11.2535417"><ele>410.0</ele><time>2026-04-07T14:08:38.888Z</time></trkpt><trkpt lat="45.6945467" lon="11.2533833"><ele>407.0</ele><time>2026-04-07T14:08:39.888Z</time></trkpt><trkpt lat="45.6946233" lon="11.2532717"><ele>404.0</ele><time>2026-04-07T14:08:40.888Z</time></trkpt><trkpt lat="45.6947" lon="11.2531783"><ele>407.16666666666663</ele><time>2026-04-07T14:08:41.888Z</time></trkpt><trkpt lat="45.69475" lon="11.2530817"><ele>410.3333333333333</ele><time>2026-04-07T14:08:42.888Z</time></trkpt><trkpt lat="45.6947683" lon="11.252975"><ele>413.5</ele><time>2026-04-07T14:08:43.888Z</time></trkpt><trkpt lat="45.69478" lon="11.2528683"><ele>416.66666666666663</ele><time>2026-04-07T14:08:44.888Z</time></trkpt><trkpt lat="45.6947917" lon="11.252775"><ele>419.8333333333333</ele><time>2026-04-07T14:08:45.887Z</time></trkpt><trkpt lat="45.6948583" lon="11.2526733"><ele>423.0</ele><time>2026-04-07T14:08:47.887Z</time></trkpt><trkpt lat="45.695" lon="11.2527183"><ele>423.0</ele><time>2026-04-07T14:08:49.888Z</time></trkpt><trkpt lat="45.6951083" lon="11.2527867"><ele>423.0</ele><time>2026-04-07T14:08:50.888Z</time></trkpt><trkpt lat="45.6952217" lon="11.25282"><ele>423.0</ele><time>2026-04-07T14:08:51.888Z</time></trkpt><trkpt lat="45.6953417" lon="11.25281"><ele>423.0</ele><time>2026-04-07T14:08:52.887Z</time></trkpt><trkpt lat="45.6954783" lon="11.2527483"><ele>418.5</ele><time>2026-04-07T14:08:53.888Z</time></trkpt><trkpt lat="45.6956117" lon="11.2526817"><ele>414.0</ele><time>2026-04-07T14:08:54.888Z</time></trkpt><trkpt lat="45.6957467" lon="11.2526067"><ele>409.5</ele><time>2026-04-07T14:08:55.887Z</time></trkpt><trkpt lat="45.6958567" lon="11.252565"><ele>405.0</ele><time>2026-04-07T14:08:56.887Z</time></trkpt><trkpt lat="45.69596" lon="11.2525617"><ele>405.0</ele><time>2026-04-07T14:08:57.888Z</time></trkpt><trkpt lat="45.6960467" lon="11.2525433"><ele>405.0</ele><time>2026-04-07T14:08:58.888Z</time></trkpt><trkpt lat="45.6961283" lon="11.2525167"><ele>405.0</ele><time>2026-04-07T14:08:59.887Z</time></trkpt><trkpt lat="45.6962" lon="11.2524783"><ele>405.0</ele><time>2026-04-07T14:09:00.888Z</time></trkpt><trkpt lat="45.6962683" lon="11.25244"><ele>405.0</ele><time>2026-04-07T14:09:01.887Z</time></trkpt><trkpt lat="45.6963317" lon="11.2524017"><ele>405.0</ele><time>2026-04-07T14:09:02.888Z</time></trkpt><trkpt lat="45.6964017" lon="11.25234"><ele>405.6666666666667</ele><time>2026-04-07T14:09:03.887Z</time></trkpt><trkpt lat="45.6964717" lon="11.2522667"><ele>406.33333333333337</ele><time>2026-04-07T14:09:04.887Z</time></trkpt><trkpt lat="45.6965217" lon="11.2521917"><ele>407.0</ele><time>2026-04-07T14:09:05.888Z</time></trkpt><trkpt lat="45.69657" lon="11.2521083"><ele>407.6666666666667</ele><time>2026-04-07T14:09:06.888Z</time></trkpt><trkpt lat="45.6966433" lon="11.2519833"><ele>408.33333333333337</ele><time>2026-04-07T14:09:08.888Z</time></trkpt><trkpt lat="45.6966817" lon="11.2519017"><ele>409.0</ele><time>2026-04-07T14:09:11.888Z</time></trkpt><trkpt lat="45.6967417" lon="11.2518483"><ele>409.00000000000006</ele><time>2026-04-07T14:09:13.888Z</time></trkpt><trkpt lat="45.6967917" lon="11.2517833"><ele>409.0</ele><time>2026-04-07T14:09:15.888Z</time></trkpt><trkpt lat="45.696855" lon="11.2517283"><ele>409.0</ele><time>2026-04-07T14:09:17.888Z</time></trkpt><trkpt lat="45.6969167" lon="11.2516533"><ele>409.0</ele><time>2026-04-07T14:09:19.887Z</time></trkpt><trkpt lat="45.697" lon="11.25158"><ele>409.00000000000006</ele><time>2026-04-07T14:09:21.888Z</time></trkpt><trkpt lat="45.6971033" lon="11.25147"><ele>409.0</ele><time>2026-04-07T14:09:23.887Z</time></trkpt><trkpt lat="45.6971717" lon="11.2513967"><ele>408.83333333333337</ele><time>2026-04-07T14:09:24.888Z</time></trkpt><trkpt lat="45.6972317" lon="11.251335"><ele>408.6666666666667</ele><time>2026-04-07T14:09:25.888Z</time></trkpt><trkpt lat="45.697305" lon="11.2512617"><ele>408.5</ele><time>2026-04-07T14:09:26.888Z</time></trkpt><trkpt lat="45.69736" lon="11.2512033"><ele>408.33333333333337</ele><time>2026-04-07T14:09:27.888Z</time></trkpt><trkpt lat="45.697415" lon="11.2511183"><ele>408.1666666666667</ele><time>2026-04-07T14:09:29.887Z</time></trkpt><trkpt lat="45.6974917" lon="11.2510533"><ele>408.0</ele><time>2026-04-07T14:09:31.887Z</time></trkpt><trkpt lat="45.6976067" lon="11.2509967"><ele>408.0</ele><time>2026-04-07T14:09:36.887Z</time></trkpt><trkpt lat="45.6977333" lon="11.2508917"><ele>408.0</ele><time>2026-04-07T14:09:38.886Z</time></trkpt><trkpt lat="45.6978217" lon="11.2508117"><ele>408.0</ele><time>2026-04-07T14:09:39.886Z</time></trkpt><trkpt lat="45.6979167" lon="11.2507233"><ele>408.0</ele><time>2026-04-07T14:09:40.887Z</time></trkpt><trkpt lat="45.6980117" lon="11.250635"><ele>407.3333333333333</ele><time>2026-04-07T14:09:41.886Z</time></trkpt><trkpt lat="45.6981" lon="11.2505433"><ele>406.66666666666663</ele><time>2026-04-07T14:09:42.887Z</time></trkpt><trkpt lat="45.698185" lon="11.250465"><ele>406.0</ele><time>2026-04-07T14:09:43.887Z</time></trkpt><trkpt lat="45.69826" lon="11.2504017"><ele>405.3333333333333</ele><time>2026-04-07T14:09:44.887Z</time></trkpt><trkpt lat="45.6983317" lon="11.2503983"><ele>404.66666666666663</ele><time>2026-04-07T14:09:45.887Z</time></trkpt><trkpt lat="45.6983967" lon="11.250425"><ele>404.0</ele><time>2026-04-07T14:09:46.887Z</time></trkpt><trkpt lat="45.698465" lon="11.2504917"><ele>403.99999999999994</ele><time>2026-04-07T14:09:47.886Z</time></trkpt><trkpt lat="45.6985283" lon="11.2505933"><ele>404.0</ele><time>2026-04-07T14:09:48.887Z</time></trkpt><trkpt lat="45.698585" lon="11.250705"><ele>404.0</ele><time>2026-04-07T14:09:49.886Z</time></trkpt><trkpt lat="45.6986467" lon="11.2508067"><ele>404.0</ele><time>2026-04-07T14:09:50.887Z</time></trkpt><trkpt lat="45.6987117" lon="11.2508833"><ele>403.99999999999994</ele><time>2026-04-07T14:09:51.887Z</time></trkpt><trkpt lat="45.698775" lon="11.2509517"><ele>404.0</ele><time>2026-04-07T14:09:52.887Z</time></trkpt><trkpt lat="45.6988533" lon="11.2510433"><ele>402.79999999999995</ele><time>2026-04-07T14:09:54.886Z</time></trkpt><trkpt lat="45.6989417" lon="11.2511633"><ele>401.59999999999997</ele><time>2026-04-07T14:09:56.886Z</time></trkpt><trkpt lat="45.6990067" lon="11.2512483"><ele>400.4</ele><time>2026-04-07T14:09:57.887Z</time></trkpt><trkpt lat="45.699075" lon="11.2513317"><ele>399.2</ele><time>2026-04-07T14:09:58.886Z</time></trkpt><trkpt lat="45.6991367" lon="11.25141"><ele>398.0</ele><time>2026-04-07T14:09:59.887Z</time></trkpt><trkpt lat="45.6991883" lon="11.2514917"><ele>398.0</ele><time>2026-04-07T14:10:00.887Z</time></trkpt><trkpt lat="45.699245" lon="11.2515467"><ele>398.0</ele><time>2026-04-07T14:10:01.887Z</time></trkpt><trkpt lat="45.6993533" lon="11.2516233"><ele>398.0</ele><time>2026-04-07T14:10:03.887Z</time></trkpt><trkpt lat="45.6994717" lon="11.2516233"><ele>398.0</ele><time>2026-04-07T14:10:05.887Z</time></trkpt><trkpt lat="45.69954" lon="11.2516133"><ele>398.0</ele><time>2026-04-07T14:10:06.887Z</time></trkpt><trkpt lat="45.6996133" lon="11.2516083"><ele>399.99999999999994</ele><time>2026-04-07T14:10:07.886Z</time></trkpt><trkpt lat="45.6996867" lon="11.2516233"><ele>402.0</ele><time>2026-04-07T14:10:08.887Z</time></trkpt><trkpt lat="45.699755" lon="11.251645"><ele>404.0</ele><time>2026-04-07T14:10:09.887Z</time></trkpt><trkpt lat="45.6998267" lon="11.25171"><ele>406.0</ele><time>2026-04-07T14:10:11.887Z</time></trkpt><trkpt lat="45.6998817" lon="11.2517817"><ele>407.99999999999994</ele><time>2026-04-07T14:10:44.887Z</time></trkpt><trkpt lat="45.6999583" lon="11.2517633"><ele>410.0</ele><time>2026-04-07T14:10:47.887Z</time></trkpt><trkpt lat="45.700005" lon="11.2516733"><ele>410.0</ele><time>2026-04-07T14:10:50.887Z</time></trkpt><trkpt lat="45.6999433" lon="11.2517283"><ele>410.0</ele><time>2026-04-07T14:11:03.887Z</time></trkpt><trkpt lat="45.699855" lon="11.2517467"><ele>410.0</ele><time>2026-04-07T14:11:28.887Z</time></trkpt><trkpt lat="45.699755" lon="11.2516717"><ele>410.0</ele><time>2026-04-07T14:11:30.887Z</time></trkpt><trkpt lat="45.6996583" lon="11.251615"><ele>410.0</ele><time>2026-04-07T14:11:32.887Z</time></trkpt><trkpt lat="45.6995633" lon="11.251615"><ele>410.0</ele><time>2026-04-07T14:11:34.887Z</time></trkpt><trkpt lat="45.6994433" lon="11.25163"><ele>410.0</ele><time>2026-04-07T14:11:36.886Z</time></trkpt><trkpt lat="45.6993383" lon="11.2516"><ele>410.0</ele><time>2026-04-07T14:11:38.887Z</time></trkpt><trkpt lat="45.6992467" lon="11.2515367"><ele>410.0</ele><time>2026-04-07T14:11:40.887Z</time></trkpt><trkpt lat="45.6991733" lon="11.2514517"><ele>410.0</ele><time>2026-04-07T14:11:42.886Z</time></trkpt><trkpt lat="45.6991117" lon="11.2513383"><ele>405.25</ele><time>2026-04-07T14:11:44.887Z</time></trkpt><trkpt lat="45.6990333" lon="11.2512283"><ele>400.5</ele><time>2026-04-07T14:11:46.887Z</time></trkpt><trkpt lat="45.698955" lon="11.25112"><ele>395.75</ele><time>2026-04-07T14:11:48.887Z</time></trkpt><trkpt lat="45.6988833" lon="11.2510133"><ele>391.0</ele><time>2026-04-07T14:11:50.887Z</time></trkpt><trkpt lat="45.69878" lon="11.2508867"><ele>391.00000000000006</ele><time>2026-04-07T14:11:52.886Z</time></trkpt><trkpt lat="45.6987133" lon="11.2508167"><ele>391.0</ele><time>2026-04-07T14:11:53.886Z</time></trkpt><trkpt lat="45.6986567" lon="11.250745"><ele>391.0</ele><time>2026-04-07T14:11:54.887Z</time></trkpt><trkpt lat="45.6986" lon="11.2506683"><ele>391.0</ele><time>2026-04-07T14:11:55.887Z</time></trkpt><trkpt lat="45.6985467" lon="11.2506017"><ele>391.00000000000006</ele><time>2026-04-07T14:11:56.886Z</time></trkpt><trkpt lat="45.698475" lon="11.250485"><ele>391.0</ele><time>2026-04-07T14:11:58.886Z</time></trkpt><trkpt lat="45.6984583" lon="11.250355"><ele>390.0</ele><time>2026-04-07T14:12:00.886Z</time></trkpt><trkpt lat="45.698515" lon="11.250225"><ele>389.0</ele><time>2026-04-07T14:12:02.887Z</time></trkpt><trkpt lat="45.6985717" lon="11.2501633"><ele>388.0</ele><time>2026-04-07T14:12:03.886Z</time></trkpt><trkpt lat="45.69865" lon="11.250085"><ele>387.0</ele><time>2026-04-07T14:12:04.887Z</time></trkpt><trkpt lat="45.698745" lon="11.249995"><ele>386.0</ele><time>2026-04-07T14:12:05.886Z</time></trkpt><trkpt lat="45.6988517" lon="11.249895"><ele>389.25</ele><time>2026-04-07T14:12:06.887Z</time></trkpt><trkpt lat="45.6989583" lon="11.2497917"><ele>392.5</ele><time>2026-04-07T14:12:07.886Z</time></trkpt><trkpt lat="45.6990733" lon="11.24969"><ele>395.75</ele><time>2026-04-07T14:12:08.887Z</time></trkpt><trkpt lat="45.69918" lon="11.24961"><ele>399.0</ele><time>2026-04-07T14:12:09.886Z</time></trkpt><trkpt lat="45.6992983" lon="11.2495417"><ele>396.75</ele><time>2026-04-07T14:12:10.886Z</time></trkpt><trkpt lat="45.699425" lon="11.249465"><ele>394.5</ele><time>2026-04-07T14:12:11.885Z</time></trkpt><trkpt lat="45.6995583" lon="11.2493733"><ele>392.25</ele><time>2026-04-07T14:12:12.885Z</time></trkpt><trkpt lat="45.6996883" lon="11.2492867"><ele>390.0</ele><time>2026-04-07T14:12:13.886Z</time></trkpt><trkpt lat="45.69983" lon="11.2491883"><ele>390.0</ele><time>2026-04-07T14:12:14.886Z</time></trkpt><trkpt lat="45.6999733" lon="11.2490933"><ele>390.0</ele><time>2026-04-07T14:12:15.885Z</time></trkpt><trkpt lat="45.7001183" lon="11.24898"><ele>390.0</ele><time>2026-04-07T14:12:16.886Z</time></trkpt><trkpt lat="45.7002517" lon="11.248845"><ele>392.0</ele><time>2026-04-07T14:12:17.886Z</time></trkpt><trkpt lat="45.7003817" lon="11.2486933"><ele>394.0</ele><time>2026-04-07T14:12:18.886Z</time></trkpt><trkpt lat="45.7005033" lon="11.2485167"><ele>396.0</ele><time>2026-04-07T14:12:19.886Z</time></trkpt><trkpt lat="45.7006267" lon="11.2483183"><ele>401.0</ele><time>2026-04-07T14:12:20.886Z</time></trkpt><trkpt lat="45.70075" lon="11.248105"><ele>406.0</ele><time>2026-04-07T14:12:21.886Z</time></trkpt><trkpt lat="45.7008617" lon="11.2478867"><ele>411.0</ele><time>2026-04-07T14:12:22.885Z</time></trkpt><trkpt lat="45.700975" lon="11.247665"><ele>407.0</ele><time>2026-04-07T14:12:23.885Z</time></trkpt><trkpt lat="45.701085" lon="11.24744"><ele>403.0</ele><time>2026-04-07T14:12:24.886Z</time></trkpt><trkpt lat="45.7011983" lon="11.247205"><ele>399.0</ele><time>2026-04-07T14:12:25.885Z</time></trkpt><trkpt lat="45.7013233" lon="11.24699"><ele>399.0</ele><time>2026-04-07T14:12:26.886Z</time></trkpt><trkpt lat="45.70144" lon="11.2467467"><ele>399.0</ele><time>2026-04-07T14:12:27.885Z</time></trkpt><trkpt lat="45.7015483" lon="11.2464983"><ele>399.0</ele><time>2026-04-07T14:12:28.886Z</time></trkpt><trkpt lat="45.7016583" lon="11.2462533"><ele>400.0</ele><time>2026-04-07T14:12:29.886Z</time></trkpt><trkpt lat="45.7017733" lon="11.2460067"><ele>401.0</ele><time>2026-04-07T14:12:30.885Z</time></trkpt><trkpt lat="45.701885" lon="11.24576"><ele>402.0</ele><time>2026-04-07T14:12:31.886Z</time></trkpt><trkpt lat="45.701995" lon="11.24552"><ele>402.0</ele><time>2026-04-07T14:12:32.885Z</time></trkpt><trkpt lat="45.7021033" lon="11.2452783"><ele>402.0</ele><time>2026-04-07T14:12:33.886Z</time></trkpt><trkpt lat="45.7022183" lon="11.2450517"><ele>402.0</ele><time>2026-04-07T14:12:34.886Z</time></trkpt><trkpt lat="45.7023333" lon="11.2448217"><ele>409.33333333333337</ele><time>2026-04-07T14:12:35.886Z</time></trkpt><trkpt lat="45.702455" lon="11.2446067"><ele>416.6666666666667</ele><time>2026-04-07T14:12:36.886Z</time></trkpt><trkpt lat="45.7025817" lon="11.2444067"><ele>424.0</ele><time>2026-04-07T14:12:37.886Z</time></trkpt><trkpt lat="45.7027067" lon="11.2442333"><ele>419.6666666666667</ele><time>2026-04-07T14:12:38.885Z</time></trkpt><trkpt lat="45.70283" lon="11.2440717"><ele>415.33333333333337</ele><time>2026-04-07T14:12:39.886Z</time></trkpt><trkpt lat="45.7029417" lon="11.2439067"><ele>411.0</ele><time>2026-04-07T14:12:40.886Z</time></trkpt><trkpt lat="45.7030383" lon="11.243735"><ele>411.0</ele><time>2026-04-07T14:12:41.886Z</time></trkpt><trkpt lat="45.7030967" lon="11.2435367"><ele>411.0</ele><time>2026-04-07T14:12:42.885Z</time></trkpt><trkpt lat="45.703135" lon="11.2433133"><ele>411.0</ele><time>2026-04-07T14:12:43.885Z</time></trkpt><trkpt lat="45.7031733" lon="11.243095"><ele>417.66666666666663</ele><time>2026-04-07T14:12:44.886Z</time></trkpt><trkpt lat="45.7032217" lon="11.2428933"><ele>424.3333333333333</ele><time>2026-04-07T14:12:45.885Z</time></trkpt><trkpt lat="45.7032817" lon="11.2427"><ele>431.0</ele><time>2026-04-07T14:12:46.885Z</time></trkpt><trkpt lat="45.7033767" lon="11.24251"><ele>431.0</ele><time>2026-04-07T14:12:47.885Z</time></trkpt><trkpt lat="45.703505" lon="11.24234"><ele>431.0</ele><time>2026-04-07T14:12:48.885Z</time></trkpt><trkpt lat="45.7036467" lon="11.242185"><ele>431.0</ele><time>2026-04-07T14:12:49.886Z</time></trkpt><trkpt lat="45.7037983" lon="11.2420217"><ele>424.66666666666663</ele><time>2026-04-07T14:12:50.886Z</time></trkpt><trkpt lat="45.7039383" lon="11.2418267"><ele>418.33333333333337</ele><time>2026-04-07T14:12:51.886Z</time></trkpt><trkpt lat="45.70409" lon="11.2416533"><ele>412.0</ele><time>2026-04-07T14:12:52.885Z</time></trkpt><trkpt lat="45.7042383" lon="11.2414717"><ele>412.0</ele><time>2026-04-07T14:12:53.886Z</time></trkpt><trkpt lat="45.70439" lon="11.241305"><ele>412.0</ele><time>2026-04-07T14:12:54.886Z</time></trkpt><trkpt lat="45.7045183" lon="11.2411533"><ele>412.0</ele><time>2026-04-07T14:12:55.885Z</time></trkpt><trkpt lat="45.7046467" lon="11.241005"><ele>412.0</ele><time>2026-04-07T14:12:56.886Z</time></trkpt><trkpt lat="45.7047683" lon="11.2408633"><ele>412.0</ele><time>2026-04-07T14:12:57.886Z</time></trkpt><trkpt lat="45.70488" lon="11.2407317"><ele>412.0</ele><time>2026-04-07T14:12:58.886Z</time></trkpt><trkpt lat="45.7049933" lon="11.2405933"><ele>413.75</ele><time>2026-04-07T14:12:59.886Z</time></trkpt><trkpt lat="45.7050983" lon="11.2404567"><ele>415.5</ele><time>2026-04-07T14:13:00.886Z</time></trkpt><trkpt lat="45.7052083" lon="11.2403267"><ele>417.25</ele><time>2026-04-07T14:13:01.886Z</time></trkpt><trkpt lat="45.7053217" lon="11.2402083"><ele>419.0</ele><time>2026-04-07T14:13:02.885Z</time></trkpt><trkpt lat="45.7054333" lon="11.240095"><ele>419.0</ele><time>2026-04-07T14:13:03.885Z</time></trkpt><trkpt lat="45.7055533" lon="11.23999"><ele>419.0</ele><time>2026-04-07T14:13:04.885Z</time></trkpt><trkpt lat="45.7056833" lon="11.2399117"><ele>419.0</ele><time>2026-04-07T14:13:05.886Z</time></trkpt><trkpt lat="45.7058067" lon="11.2398267"><ele>419.0</ele><time>2026-04-07T14:13:06.886Z</time></trkpt><trkpt lat="45.705905" lon="11.2397167"><ele>418.25</ele><time>2026-04-07T14:13:07.885Z</time></trkpt><trkpt lat="45.70598" lon="11.2395633"><ele>417.5</ele><time>2026-04-07T14:13:08.885Z</time></trkpt><trkpt lat="45.70603" lon="11.2393883"><ele>416.75</ele><time>2026-04-07T14:13:09.886Z</time></trkpt><trkpt lat="45.70606" lon="11.239195"><ele>416.0</ele><time>2026-04-07T14:13:10.885Z</time></trkpt><trkpt lat="45.7060667" lon="11.238985"><ele>426.5</ele><time>2026-04-07T14:13:11.886Z</time></trkpt><trkpt lat="45.7060867" lon="11.2387717"><ele>437.0</ele><time>2026-04-07T14:13:12.886Z</time></trkpt><trkpt lat="45.7061" lon="11.2385567"><ele>447.5</ele><time>2026-04-07T14:13:13.886Z</time></trkpt><trkpt lat="45.7061083" lon="11.238345"><ele>458.0</ele><time>2026-04-07T14:13:14.885Z</time></trkpt><trkpt lat="45.7061183" lon="11.2381617"><ele>455.49999999999994</ele><time>2026-04-07T14:13:15.885Z</time></trkpt><trkpt lat="45.70613" lon="11.2380117"><ele>453.0</ele><time>2026-04-07T14:13:16.885Z</time></trkpt><trkpt lat="45.70614" lon="11.237895"><ele>450.5</ele><time>2026-04-07T14:13:17.885Z</time></trkpt><trkpt lat="45.706175" lon="11.237785"><ele>448.0</ele><time>2026-04-07T14:13:19.886Z</time></trkpt><trkpt lat="45.7062267" lon="11.2378433"><ele>445.49999999999994</ele><time>2026-04-07T14:13:22.885Z</time></trkpt><trkpt lat="45.706235" lon="11.2379717"><ele>443.0</ele><time>2026-04-07T14:13:24.885Z</time></trkpt><trkpt lat="45.7062233" lon="11.23807"><ele>446.0</ele><time>2026-04-07T14:13:25.886Z</time></trkpt><trkpt lat="45.7062117" lon="11.23818"><ele>448.99999999999994</ele><time>2026-04-07T14:13:26.886Z</time></trkpt><trkpt lat="45.7062033" lon="11.2383083"><ele>451.99999999999994</ele><time>2026-04-07T14:13:27.885Z</time></trkpt><trkpt lat="45.7062" lon="11.2384533"><ele>455.0</ele><time>2026-04-07T14:13:28.886Z</time></trkpt><trkpt lat="45.7061917" lon="11.2386"><ele>458.0</ele><time>2026-04-07T14:13:29.886Z</time></trkpt><trkpt lat="45.7061917" lon="11.2387717"><ele>458.0</ele><time>2026-04-07T14:13:30.885Z</time></trkpt><trkpt lat="45.7061883" lon="11.238955"><ele>458.0</ele><time>2026-04-07T14:13:31.885Z</time></trkpt><trkpt lat="45.7061833" lon="11.23916"><ele>458.0</ele><time>2026-04-07T14:13:32.886Z</time></trkpt><trkpt lat="45.70618" lon="11.2393717"><ele>458.0</ele><time>2026-04-07T14:13:33.886Z</time></trkpt><trkpt lat="45.7061717" lon="11.2395767"><ele>458.79999999999995</ele><time>2026-04-07T14:13:34.885Z</time></trkpt><trkpt lat="45.7061633" lon="11.2397583"><ele>459.59999999999997</ele><time>2026-04-07T14:13:35.885Z</time></trkpt><trkpt lat="45.7061283" lon="11.2399117"><ele>460.40000000000003</ele><time>2026-04-07T14:13:36.886Z</time></trkpt><trkpt lat="45.70608" lon="11.2400417"><ele>461.20000000000005</ele><time>2026-04-07T14:13:37.885Z</time></trkpt><trkpt lat="45.7060217" lon="11.2401617"><ele>462.0</ele><time>2026-04-07T14:13:38.886Z</time></trkpt><trkpt lat="45.7059667" lon="11.2402933"><ele>453.0</ele><time>2026-04-07T14:13:39.886Z</time></trkpt><trkpt lat="45.7059317" lon="11.2404783"><ele>444.0</ele><time>2026-04-07T14:13:40.886Z</time></trkpt><trkpt lat="45.7059083" lon="11.24067"><ele>435.0</ele><time>2026-04-07T14:13:41.886Z</time></trkpt><trkpt lat="45.705885" lon="11.240875"><ele>426.0</ele><time>2026-04-07T14:13:42.886Z</time></trkpt><trkpt lat="45.7058883" lon="11.241095"><ele>426.0</ele><time>2026-04-07T14:13:43.886Z</time></trkpt><trkpt lat="45.7058983" lon="11.241325"><ele>426.0</ele><time>2026-04-07T14:13:44.886Z</time></trkpt><trkpt lat="45.7058783" lon="11.24154"><ele>426.0</ele><time>2026-04-07T14:13:45.885Z</time></trkpt><trkpt lat="45.7058367" lon="11.241755"><ele>427.75</ele><time>2026-04-07T14:13:46.885Z</time></trkpt><trkpt lat="45.7057767" lon="11.2419683"><ele>429.5</ele><time>2026-04-07T14:13:47.885Z</time></trkpt><trkpt lat="45.70572" lon="11.2421667"><ele>431.25</ele><time>2026-04-07T14:13:48.886Z</time></trkpt><trkpt lat="45.705655" lon="11.24234"><ele>433.0</ele><time>2026-04-07T14:13:49.886Z</time></trkpt><trkpt lat="45.705615" lon="11.2425467"><ele>438.33333333333337</ele><time>2026-04-07T14:13:50.885Z</time></trkpt><trkpt lat="45.7055767" lon="11.2427767"><ele>443.66666666666663</ele><time>2026-04-07T14:13:51.886Z</time></trkpt><trkpt lat="45.7055467" lon="11.2429933"><ele>449.0</ele><time>2026-04-07T14:13:52.886Z</time></trkpt><trkpt lat="45.705505" lon="11.24321"><ele>452.25</ele><time>2026-04-07T14:13:53.886Z</time></trkpt><trkpt lat="45.7054633" lon="11.243395"><ele>455.5</ele><time>2026-04-07T14:13:54.886Z</time></trkpt><trkpt lat="45.7054283" lon="11.2435683"><ele>458.75</ele><time>2026-04-07T14:13:55.885Z</time></trkpt><trkpt lat="45.70539" lon="11.24373"><ele>462.0</ele><time>2026-04-07T14:13:56.885Z</time></trkpt><trkpt lat="45.7053383" lon="11.2438667"><ele>464.40000000000003</ele><time>2026-04-07T14:13:57.886Z</time></trkpt><trkpt lat="45.7052867" lon="11.2439733"><ele>466.80000000000007</ele><time>2026-04-07T14:13:58.886Z</time></trkpt><trkpt lat="45.70522" lon="11.244085"><ele>469.2</ele><time>2026-04-07T14:13:59.886Z</time></trkpt><trkpt lat="45.705125" lon="11.2441833"><ele>471.6</ele><time>2026-04-07T14:14:00.886Z</time></trkpt><trkpt lat="45.7050267" lon="11.2442867"><ele>474.0</ele><time>2026-04-07T14:14:01.886Z</time></trkpt><trkpt lat="45.7049417" lon="11.2444367"><ele>471.33333333333337</ele><time>2026-04-07T14:14:02.886Z</time></trkpt><trkpt lat="45.7048633" lon="11.2446217"><ele>468.6666666666667</ele><time>2026-04-07T14:14:03.886Z</time></trkpt><trkpt lat="45.7047933" lon="11.2448217"><ele>466.0</ele><time>2026-04-07T14:14:04.886Z</time></trkpt><trkpt lat="45.7047417" lon="11.2450183"><ele>466.0</ele><time>2026-04-07T14:14:05.885Z</time></trkpt><trkpt lat="45.7047217" lon="11.2452183"><ele>466.0</ele><time>2026-04-07T14:14:06.885Z</time></trkpt><trkpt lat="45.7047167" lon="11.2454283"><ele>466.0</ele><time>2026-04-07T14:14:07.886Z</time></trkpt><trkpt lat="45.7047083" lon="11.2456083"><ele>466.0</ele><time>2026-04-07T14:14:08.885Z</time></trkpt><trkpt lat="45.7046783" lon="11.2457483"><ele>467.33333333333337</ele><time>2026-04-07T14:14:09.885Z</time></trkpt><trkpt lat="45.7046467" lon="11.2458667"><ele>468.6666666666667</ele><time>2026-04-07T14:14:10.886Z</time></trkpt><trkpt lat="45.7046283" lon="11.245975"><ele>470.0</ele><time>2026-04-07T14:14:11.886Z</time></trkpt><trkpt lat="45.7046317" lon="11.2460733"><ele>471.33333333333337</ele><time>2026-04-07T14:14:12.886Z</time></trkpt><trkpt lat="45.70467" lon="11.24617"><ele>472.6666666666667</ele><time>2026-04-07T14:14:13.886Z</time></trkpt><trkpt lat="45.7047483" lon="11.2462733"><ele>474.0</ele><time>2026-04-07T14:14:14.886Z</time></trkpt><trkpt lat="45.70485" lon="11.2463917"><ele>473.6</ele><time>2026-04-07T14:14:15.885Z</time></trkpt><trkpt lat="45.7049317" lon="11.2465183"><ele>473.2</ele><time>2026-04-07T14:14:16.886Z</time></trkpt><trkpt lat="45.7049883" lon="11.246645"><ele>472.80000000000007</ele><time>2026-04-07T14:14:17.885Z</time></trkpt><trkpt lat="45.705025" lon="11.2467633"><ele>472.40000000000003</ele><time>2026-04-07T14:14:18.886Z</time></trkpt><trkpt lat="45.70502" lon="11.2469267"><ele>472.0</ele><time>2026-04-07T14:14:20.885Z</time></trkpt><trkpt lat="45.70493" lon="11.2469683"><ele>472.0</ele><time>2026-04-07T14:14:22.886Z</time></trkpt><trkpt lat="45.704835" lon="11.2469417"><ele>472.00000000000006</ele><time>2026-04-07T14:14:23.885Z</time></trkpt><trkpt lat="45.7047333" lon="11.2469133"><ele>472.00000000000006</ele><time>2026-04-07T14:14:24.886Z</time></trkpt><trkpt lat="45.704625" lon="11.2469183"><ele>472.0</ele><time>2026-04-07T14:14:25.886Z</time></trkpt><trkpt lat="45.7045083" lon="11.24698"><ele>472.0</ele><time>2026-04-07T14:14:26.885Z</time></trkpt><trkpt lat="45.704415" lon="11.2471"><ele>472.25</ele><time>2026-04-07T14:14:27.886Z</time></trkpt><trkpt lat="45.7043333" lon="11.2472583"><ele>472.5</ele><time>2026-04-07T14:14:28.886Z</time></trkpt><trkpt lat="45.7042617" lon="11.2474417"><ele>472.75</ele><time>2026-04-07T14:14:29.885Z</time></trkpt><trkpt lat="45.7042083" lon="11.2476283"><ele>473.0</ele><time>2026-04-07T14:14:30.886Z</time></trkpt><trkpt lat="45.7041683" lon="11.2478317"><ele>473.0</ele><time>2026-04-07T14:14:31.886Z</time></trkpt><trkpt lat="45.70412" lon="11.2480217"><ele>473.0</ele><time>2026-04-07T14:14:32.886Z</time></trkpt><trkpt lat="45.704065" lon="11.2482067"><ele>473.0</ele><time>2026-04-07T14:14:33.886Z</time></trkpt><trkpt lat="45.7039883" lon="11.2483567"><ele>473.0</ele><time>2026-04-07T14:14:34.886Z</time></trkpt><trkpt lat="45.7038833" lon="11.248475"><ele>471.25</ele><time>2026-04-07T14:14:35.886Z</time></trkpt><trkpt lat="45.703765" lon="11.2485783"><ele>469.5</ele><time>2026-04-07T14:14:36.885Z</time></trkpt><trkpt lat="45.7036633" lon="11.2486883"><ele>467.75</ele><time>2026-04-07T14:14:37.886Z</time></trkpt><trkpt lat="45.7035733" lon="11.2488283"><ele>466.0</ele><time>2026-04-07T14:14:38.886Z</time></trkpt><trkpt lat="45.7035067" lon="11.2490033"><ele>470.6666666666667</ele><time>2026-04-07T14:14:39.886Z</time></trkpt><trkpt lat="45.70345" lon="11.24921"><ele>475.33333333333337</ele><time>2026-04-07T14:14:40.885Z</time></trkpt><trkpt lat="45.7033967" lon="11.2494083"><ele>480.0</ele><time>2026-04-07T14:14:41.886Z</time></trkpt><trkpt lat="45.7033417" lon="11.2496267"><ele>483.33333333333337</ele><time>2026-04-07T14:14:42.886Z</time></trkpt><trkpt lat="45.70329" lon="11.2498367"><ele>486.6666666666667</ele><time>2026-04-07T14:14:43.886Z</time></trkpt><trkpt lat="45.7032317" lon="11.2500483"><ele>490.0</ele><time>2026-04-07T14:14:44.886Z</time></trkpt><trkpt lat="45.7031633" lon="11.25026"><ele>490.0</ele><time>2026-04-07T14:14:45.886Z</time></trkpt><trkpt lat="45.7030983" lon="11.25048"><ele>490.0</ele><time>2026-04-07T14:14:46.885Z</time></trkpt><trkpt lat="45.70304" lon="11.2507067"><ele>490.0</ele><time>2026-04-07T14:14:47.885Z</time></trkpt><trkpt lat="45.70296" lon="11.2509133"><ele>490.6666666666667</ele><time>2026-04-07T14:14:48.886Z</time></trkpt><trkpt lat="45.7028783" lon="11.2511183"><ele>491.33333333333337</ele><time>2026-04-07T14:14:49.885Z</time></trkpt><trkpt lat="45.7027917" lon="11.2513017"><ele>492.0</ele><time>2026-04-07T14:14:50.885Z</time></trkpt><trkpt lat="45.7027267" lon="11.2514833"><ele>492.0</ele><time>2026-04-07T14:14:51.885Z</time></trkpt><trkpt lat="45.70268" lon="11.2516833"><ele>492.0</ele><time>2026-04-07T14:14:52.884Z</time></trkpt><trkpt lat="45.70264" lon="11.25189"><ele>492.0</ele><time>2026-04-07T14:14:53.885Z</time></trkpt><trkpt lat="45.7026033" lon="11.25207"><ele>492.0</ele><time>2026-04-07T14:14:54.885Z</time></trkpt><trkpt lat="45.70257" lon="11.25223"><ele>493.6</ele><time>2026-04-07T14:14:55.885Z</time></trkpt><trkpt lat="45.7025417" lon="11.2523733"><ele>495.20000000000005</ele><time>2026-04-07T14:14:56.885Z</time></trkpt><trkpt lat="45.70253" lon="11.25251"><ele>496.8</ele><time>2026-04-07T14:14:57.884Z</time></trkpt><trkpt lat="45.7025467" lon="11.2526367"><ele>498.4</ele><time>2026-04-07T14:14:58.884Z</time></trkpt><trkpt lat="45.7025833" lon="11.2527683"><ele>500.0</ele><time>2026-04-07T14:14:59.885Z</time></trkpt><trkpt lat="45.7026433" lon="11.2529"><ele>500.0</ele><time>2026-04-07T14:15:00.884Z</time></trkpt><trkpt lat="45.70271" lon="11.2530367"><ele>500.0</ele><time>2026-04-07T14:15:01.885Z</time></trkpt><trkpt lat="45.7027583" lon="11.2531667"><ele>500.0</ele><time>2026-04-07T14:15:02.885Z</time></trkpt><trkpt lat="45.7027833" lon="11.253305"><ele>500.0</ele><time>2026-04-07T14:15:03.884Z</time></trkpt><trkpt lat="45.7027783" lon="11.2534467"><ele>500.0</ele><time>2026-04-07T14:15:04.885Z</time></trkpt><trkpt lat="45.702755" lon="11.2536033"><ele>503.49999999999994</ele><time>2026-04-07T14:15:05.885Z</time></trkpt><trkpt lat="45.70275" lon="11.253745"><ele>507.0</ele><time>2026-04-07T14:15:06.884Z</time></trkpt><trkpt lat="45.7027683" lon="11.2538633"><ele>510.5</ele><time>2026-04-07T14:15:07.884Z</time></trkpt><trkpt lat="45.7028" lon="11.2539617"><ele>514.0</ele><time>2026-04-07T14:15:08.885Z</time></trkpt><trkpt lat="45.7028267" lon="11.254055"><ele>517.5</ele><time>2026-04-07T14:15:09.884Z</time></trkpt><trkpt lat="45.7027967" lon="11.2542017"><ele>521.0</ele><time>2026-04-07T14:15:11.885Z</time></trkpt><trkpt lat="45.7027383" lon="11.254245"><ele>521.0</ele><time>2026-04-07T14:15:12.884Z</time></trkpt><trkpt lat="45.70265" lon="11.2542583"><ele>521.0</ele><time>2026-04-07T14:15:13.885Z</time></trkpt><trkpt lat="45.7025417" lon="11.2542617"><ele>521.0</ele><time>2026-04-07T14:15:14.885Z</time></trkpt><trkpt lat="45.70243" lon="11.254285"><ele>521.0</ele><time>2026-04-07T14:15:15.885Z</time></trkpt><trkpt lat="45.7023333" lon="11.254335"><ele>521.0</ele><time>2026-04-07T14:15:16.884Z</time></trkpt><trkpt lat="45.7022567" lon="11.2544133"><ele>521.0</ele><time>2026-04-07T14:15:17.885Z</time></trkpt><trkpt lat="45.7022117" lon="11.2545233"><ele>521.0</ele><time>2026-04-07T14:15:18.885Z</time></trkpt><trkpt lat="45.702195" lon="11.2546467"><ele>521.0</ele><time>2026-04-07T14:15:19.885Z</time></trkpt><trkpt lat="45.702195" lon="11.2548033"><ele>521.0</ele><time>2026-04-07T14:15:20.885Z</time></trkpt><trkpt lat="45.7021933" lon="11.2549633"><ele>521.0</ele><time>2026-04-07T14:15:21.885Z</time></trkpt><trkpt lat="45.7021667" lon="11.2551133"><ele>521.8</ele><time>2026-04-07T14:15:22.884Z</time></trkpt><trkpt lat="45.7021233" lon="11.25524"><ele>522.6</ele><time>2026-04-07T14:15:23.885Z</time></trkpt><trkpt lat="45.7020567" lon="11.2553667"><ele>523.4</ele><time>2026-04-07T14:15:24.885Z</time></trkpt><trkpt lat="45.7019833" lon="11.25548"><ele>524.2</ele><time>2026-04-07T14:15:25.885Z</time></trkpt><trkpt lat="45.701905" lon="11.2555883"><ele>525.0</ele><time>2026-04-07T14:15:26.885Z</time></trkpt><trkpt lat="45.7018267" lon="11.255685"><ele>526.8333333333334</ele><time>2026-04-07T14:15:27.884Z</time></trkpt><trkpt lat="45.7017667" lon="11.2557767"><ele>528.6666666666666</ele><time>2026-04-07T14:15:28.885Z</time></trkpt><trkpt lat="45.7017283" lon="11.255895"><ele>530.5</ele><time>2026-04-07T14:15:29.884Z</time></trkpt><trkpt lat="45.7017183" lon="11.2559917"><ele>532.3333333333333</ele><time>2026-04-07T14:15:30.885Z</time></trkpt><trkpt lat="45.701735" lon="11.2560867"><ele>534.1666666666666</ele><time>2026-04-07T14:15:31.885Z</time></trkpt><trkpt lat="45.7017833" lon="11.2562233"><ele>536.0</ele><time>2026-04-07T14:15:33.885Z</time></trkpt><trkpt lat="45.7018033" lon="11.25637"><ele>537.0</ele><time>2026-04-07T14:15:35.884Z</time></trkpt><trkpt lat="45.7018167" lon="11.25651"><ele>538.0</ele><time>2026-04-07T14:15:37.884Z</time></trkpt><trkpt lat="45.7018217" lon="11.2566233"><ele>539.0</ele><time>2026-04-07T14:15:39.885Z</time></trkpt><trkpt lat="45.7018383" lon="11.25674"><ele>540.0</ele><time>2026-04-07T14:15:41.884Z</time></trkpt><trkpt lat="45.701855" lon="11.25685"><ele>541.0</ele><time>2026-04-07T14:15:43.885Z</time></trkpt><trkpt lat="45.7018767" lon="11.256965"><ele>542.0</ele><time>2026-04-07T14:15:45.885Z</time></trkpt><trkpt lat="45.701885" lon="11.2570633"><ele>542.0</ele><time>2026-04-07T14:15:47.884Z</time></trkpt><trkpt lat="45.70189" lon="11.2571717"><ele>542.0</ele><time>2026-04-07T14:16:08.885Z</time></trkpt><trkpt lat="45.70191" lon="11.2573333"><ele>542.0</ele><time>2026-04-07T14:16:33.885Z</time></trkpt><trkpt lat="45.7019317" lon="11.2574217"><ele>542.0</ele><time>2026-04-07T14:16:36.885Z</time></trkpt><trkpt lat="45.7020133" lon="11.2574633"><ele>542.0</ele><time>2026-04-07T14:16:43.885Z</time></trkpt><trkpt lat="45.7020467" lon="11.25758"><ele>542.0</ele><time>2026-04-07T14:16:46.885Z</time></trkpt><trkpt lat="45.7020483" lon="11.2576917"><ele>543.6</ele><time>2026-04-07T14:16:48.884Z</time></trkpt><trkpt lat="45.7020233" lon="11.25784"><ele>545.2</ele><time>2026-04-07T14:16:50.885Z</time></trkpt><trkpt lat="45.7019567" lon="11.2579983"><ele>546.8</ele><time>2026-04-07T14:16:52.884Z</time></trkpt><trkpt lat="45.7018933" lon="11.2580883"><ele>548.4</ele><time>2026-04-07T14:16:53.885Z</time></trkpt><trkpt lat="45.7018267" lon="11.2582033"><ele>550.0</ele><time>2026-04-07T14:16:54.885Z</time></trkpt><trkpt lat="45.701765" lon="11.25833"><ele>553.0</ele><time>2026-04-07T14:16:55.885Z</time></trkpt><trkpt lat="45.7017033" lon="11.2584567"><ele>556.0</ele><time>2026-04-07T14:16:56.884Z</time></trkpt><trkpt lat="45.7016483" lon="11.2585817"><ele>559.0</ele><time>2026-04-07T14:16:57.885Z</time></trkpt><trkpt lat="45.701585" lon="11.2587133"><ele>562.0</ele><time>2026-04-07T14:16:58.885Z</time></trkpt><trkpt lat="45.7015267" lon="11.258845"><ele>565.0</ele><time>2026-04-07T14:16:59.885Z</time></trkpt><trkpt lat="45.7014567" lon="11.2589983"><ele>569.5</ele><time>2026-04-07T14:17:00.885Z</time></trkpt><trkpt lat="45.7014" lon="11.2591617"><ele>574.0</ele><time>2026-04-07T14:17:01.885Z</time></trkpt><trkpt lat="45.701345" lon="11.2593183"><ele>578.5</ele><time>2026-04-07T14:17:02.885Z</time></trkpt><trkpt lat="45.7013083" lon="11.259465"><ele>583.0</ele><time>2026-04-07T14:17:03.884Z</time></trkpt><trkpt lat="45.7012767" lon="11.2596267"><ele>587.0</ele><time>2026-04-07T14:17:04.885Z</time></trkpt><trkpt lat="45.70128" lon="11.25981"><ele>591.0</ele><time>2026-04-07T14:17:05.884Z</time></trkpt><trkpt lat="45.70131" lon="11.2600033"><ele>595.0</ele><time>2026-04-07T14:17:06.885Z</time></trkpt><trkpt lat="45.7013183" lon="11.2602117"><ele>599.0</ele><time>2026-04-07T14:17:07.885Z</time></trkpt><trkpt lat="45.7013217" lon="11.2603917"><ele>599.0</ele><time>2026-04-07T14:17:08.885Z</time></trkpt><trkpt lat="45.7013067" lon="11.260545"><ele>599.0</ele><time>2026-04-07T14:17:09.885Z</time></trkpt><trkpt lat="45.7012667" lon="11.2606817"><ele>599.0</ele><time>2026-04-07T14:17:10.884Z</time></trkpt><trkpt lat="45.7012217" lon="11.2608067"><ele>599.0</ele><time>2026-04-07T14:17:11.885Z</time></trkpt><trkpt lat="45.70116" lon="11.2609383"><ele>599.0</ele><time>2026-04-07T14:17:12.885Z</time></trkpt><trkpt lat="45.7011083" lon="11.261085"><ele>599.0</ele><time>2026-04-07T14:17:13.885Z</time></trkpt><trkpt lat="45.7010533" lon="11.2612283"><ele>599.0</ele><time>2026-04-07T14:17:14.885Z</time></trkpt><trkpt lat="45.7010017" lon="11.2613583"><ele>599.0</ele><time>2026-04-07T14:17:15.885Z</time></trkpt><trkpt lat="45.7009467" lon="11.26147"><ele>599.0</ele><time>2026-04-07T14:17:16.885Z</time></trkpt><trkpt lat="45.7008817" lon="11.2615683"><ele>599.0</ele><time>2026-04-07T14:17:17.884Z</time></trkpt><trkpt lat="45.7008167" lon="11.2616583"><ele>599.0</ele><time>2026-04-07T14:17:18.885Z</time></trkpt><trkpt lat="45.70076" lon="11.2617583"><ele>599.0</ele><time>2026-04-07T14:17:19.885Z</time></trkpt><trkpt lat="45.7007217" lon="11.2618717"><ele>599.0</ele><time>2026-04-07T14:17:20.885Z</time></trkpt><trkpt lat="45.7007067" lon="11.2619933"><ele>599.0</ele><time>2026-04-07T14:17:21.884Z</time></trkpt><trkpt lat="45.7006967" lon="11.2621367"><ele>599.0</ele><time>2026-04-07T14:17:22.885Z</time></trkpt><trkpt lat="45.700665" lon="11.2622833"><ele>602.0</ele><time>2026-04-07T14:17:23.885Z</time></trkpt><trkpt lat="45.7006317" lon="11.2624467"><ele>605.0</ele><time>2026-04-07T14:17:24.884Z</time></trkpt><trkpt lat="45.700595" lon="11.262615"><ele>608.0</ele><time>2026-04-07T14:17:25.884Z</time></trkpt><trkpt lat="45.7005733" lon="11.2627783"><ele>611.0</ele><time>2026-04-07T14:17:26.884Z</time></trkpt><trkpt lat="45.7005683" lon="11.262925"><ele>611.0</ele><time>2026-04-07T14:17:27.885Z</time></trkpt><trkpt lat="45.7005683" lon="11.26305"><ele>611.0</ele><time>2026-04-07T14:17:28.884Z</time></trkpt><trkpt lat="45.7005483" lon="11.2631533"><ele>611.0</ele><time>2026-04-07T14:17:29.883Z</time></trkpt><trkpt lat="45.7005033" lon="11.2632433"><ele>611.0</ele><time>2026-04-07T14:17:30.884Z</time></trkpt><trkpt lat="45.70043" lon="11.263325"><ele>611.0</ele><time>2026-04-07T14:17:31.884Z</time></trkpt><trkpt lat="45.7003417" lon="11.2634283"><ele>611.0</ele><time>2026-04-07T14:17:32.883Z</time></trkpt><trkpt lat="45.7002467" lon="11.2635483"><ele>610.25</ele><time>2026-04-07T14:17:33.884Z</time></trkpt><trkpt lat="45.7001417" lon="11.263685"><ele>609.5</ele><time>2026-04-07T14:17:34.884Z</time></trkpt><trkpt lat="45.7000483" lon="11.2638033"><ele>608.75</ele><time>2026-04-07T14:17:35.883Z</time></trkpt><trkpt lat="45.699965" lon="11.2639233"><ele>608.0</ele><time>2026-04-07T14:17:36.884Z</time></trkpt><trkpt lat="45.6998817" lon="11.264035"><ele>612.5</ele><time>2026-04-07T14:17:37.883Z</time></trkpt><trkpt lat="45.6997933" lon="11.2641717"><ele>617.0</ele><time>2026-04-07T14:17:38.884Z</time></trkpt><trkpt lat="45.69973" lon="11.2643183"><ele>621.5</ele><time>2026-04-07T14:17:39.884Z</time></trkpt><trkpt lat="45.699685" lon="11.2644417"><ele>626.0</ele><time>2026-04-07T14:17:40.883Z</time></trkpt><trkpt lat="45.6996383" lon="11.2645783"><ele>626.0</ele><time>2026-04-07T14:17:41.883Z</time></trkpt><trkpt lat="45.6996067" lon="11.2647433"><ele>626.0</ele><time>2026-04-07T14:17:42.883Z</time></trkpt><trkpt lat="45.6995867" lon="11.264935"><ele>626.0</ele><time>2026-04-07T14:17:43.884Z</time></trkpt><trkpt lat="45.6995633" lon="11.2651233"><ele>626.0</ele><time>2026-04-07T14:17:44.883Z</time></trkpt><trkpt lat="45.699525" lon="11.2653017"><ele>625.5</ele><time>2026-04-07T14:17:45.884Z</time></trkpt><trkpt lat="45.6994583" lon="11.2654533"><ele>625.0</ele><time>2026-04-07T14:17:46.883Z</time></trkpt><trkpt lat="45.6993783" lon="11.2655917"><ele>624.5</ele><time>2026-04-07T14:17:47.883Z</time></trkpt><trkpt lat="45.699285" lon="11.265705"><ele>624.0</ele><time>2026-04-07T14:17:48.884Z</time></trkpt><trkpt lat="45.69919" lon="11.265795"><ele>627.0</ele><time>2026-04-07T14:17:49.884Z</time></trkpt><trkpt lat="45.69909" lon="11.2658533"><ele>630.0</ele><time>2026-04-07T14:17:50.884Z</time></trkpt><trkpt lat="45.6989917" lon="11.2658833"><ele>633.0</ele><time>2026-04-07T14:17:51.883Z</time></trkpt><trkpt lat="45.6989017" lon="11.265875"><ele>636.0</ele><time>2026-04-07T14:17:52.884Z</time></trkpt><trkpt lat="45.6988233" lon="11.2658217"><ele>639.0</ele><time>2026-04-07T14:17:53.884Z</time></trkpt><trkpt lat="45.6987667" lon="11.2657433"><ele>639.0</ele><time>2026-04-07T14:17:54.883Z</time></trkpt><trkpt lat="45.6987217" lon="11.2656583"><ele>639.0</ele><time>2026-04-07T14:17:55.884Z</time></trkpt><trkpt lat="45.6986317" lon="11.26558"><ele>639.0</ele><time>2026-04-07T14:17:57.883Z</time></trkpt><trkpt lat="45.69853" lon="11.2655917"><ele>639.0</ele><time>2026-04-07T14:17:59.884Z</time></trkpt><trkpt lat="45.6984667" lon="11.2656433"><ele>639.0</ele><time>2026-04-07T14:18:01.883Z</time></trkpt><trkpt lat="45.6984133" lon="11.2657417"><ele>639.0</ele><time>2026-04-07T14:18:03.884Z</time></trkpt><trkpt lat="45.6983817" lon="11.2658233"><ele>638.8333333333334</ele><time>2026-04-07T14:18:04.884Z</time></trkpt><trkpt lat="45.6983517" lon="11.265905"><ele>638.6666666666666</ele><time>2026-04-07T14:18:05.883Z</time></trkpt><trkpt lat="45.6983" lon="11.2659767"><ele>638.5</ele><time>2026-04-07T14:18:06.884Z</time></trkpt><trkpt lat="45.6982317" lon="11.266035"><ele>638.3333333333333</ele><time>2026-04-07T14:18:07.883Z</time></trkpt><trkpt lat="45.6981433" lon="11.26608"><ele>638.1666666666666</ele><time>2026-04-07T14:18:08.883Z</time></trkpt><trkpt lat="45.69805" lon="11.2661283"><ele>638.0</ele><time>2026-04-07T14:18:09.883Z</time></trkpt><trkpt lat="45.6979667" lon="11.2661833"><ele>638.0</ele><time>2026-04-07T14:18:10.884Z</time></trkpt><trkpt lat="45.6979133" lon="11.2662767"><ele>638.0</ele><time>2026-04-07T14:18:11.883Z</time></trkpt><trkpt lat="45.69787" lon="11.2663983"><ele>638.0</ele><time>2026-04-07T14:18:12.883Z</time></trkpt><trkpt lat="45.697835" lon="11.2665617"><ele>638.0</ele><time>2026-04-07T14:18:13.883Z</time></trkpt><trkpt lat="45.6978" lon="11.2667267"><ele>638.0</ele><time>2026-04-07T14:18:14.884Z</time></trkpt><trkpt lat="45.6977717" lon="11.266905"><ele>638.0</ele><time>2026-04-07T14:18:15.884Z</time></trkpt><trkpt lat="45.69776" lon="11.26708"><ele>638.0</ele><time>2026-04-07T14:18:16.884Z</time></trkpt><trkpt lat="45.6977467" lon="11.2672533"><ele>638.0</ele><time>2026-04-07T14:18:17.883Z</time></trkpt><trkpt lat="45.6977267" lon="11.267415"><ele>638.0</ele><time>2026-04-07T14:18:18.883Z</time></trkpt><trkpt lat="45.6976933" lon="11.26758"><ele>641.0</ele><time>2026-04-07T14:18:19.884Z</time></trkpt><trkpt lat="45.6976617" lon="11.267755"><ele>644.0</ele><time>2026-04-07T14:18:20.884Z</time></trkpt><trkpt lat="45.6976417" lon="11.2679367"><ele>647.0</ele><time>2026-04-07T14:18:21.884Z</time></trkpt><trkpt lat="45.6976583" lon="11.2681133"><ele>650.0</ele><time>2026-04-07T14:18:22.884Z</time></trkpt><trkpt lat="45.6976917" lon="11.2682567"><ele>651.8</ele><time>2026-04-07T14:18:23.884Z</time></trkpt><trkpt lat="45.69773" lon="11.2683683"><ele>653.6</ele><time>2026-04-07T14:18:24.884Z</time></trkpt><trkpt lat="45.6977767" lon="11.2684367"><ele>655.4000000000001</ele><time>2026-04-07T14:18:25.884Z</time></trkpt><trkpt lat="45.6979083" lon="11.26847"><ele>657.2</ele><time>2026-04-07T14:18:27.884Z</time></trkpt><trkpt lat="45.698" lon="11.26846"><ele>659.0</ele><time>2026-04-07T14:18:28.884Z</time></trkpt><trkpt lat="45.6981083" lon="11.2684567"><ele>661.5</ele><time>2026-04-07T14:18:29.884Z</time></trkpt><trkpt lat="45.698225" lon="11.2684817"><ele>664.0</ele><time>2026-04-07T14:18:30.883Z</time></trkpt><trkpt lat="45.6983283" lon="11.2685633"><ele>666.5</ele><time>2026-04-07T14:18:31.884Z</time></trkpt><trkpt lat="45.6984217" lon="11.2686533"><ele>669.0</ele><time>2026-04-07T14:18:32.884Z</time></trkpt><trkpt lat="45.6985167" lon="11.2687117"><ele>670.6</ele><time>2026-04-07T14:18:33.884Z</time></trkpt><trkpt lat="45.69861" lon="11.2687067"><ele>672.2</ele><time>2026-04-07T14:18:34.884Z</time></trkpt><trkpt lat="45.6987083" lon="11.268645"><ele>673.8000000000001</ele><time>2026-04-07T14:18:35.884Z</time></trkpt><trkpt lat="45.69881" lon="11.2685683"><ele>675.4000000000001</ele><time>2026-04-07T14:18:36.884Z</time></trkpt><trkpt lat="45.6989217" lon="11.268505"><ele>677.0</ele><time>2026-04-07T14:18:37.884Z</time></trkpt><trkpt lat="45.6990317" lon="11.268475"><ele>677.0</ele><time>2026-04-07T14:18:38.883Z</time></trkpt><trkpt lat="45.69913" lon="11.268475"><ele>677.0</ele><time>2026-04-07T14:18:39.884Z</time></trkpt><trkpt lat="45.6992117" lon="11.2684967"><ele>677.0</ele><time>2026-04-07T14:18:40.883Z</time></trkpt><trkpt lat="45.6992867" lon="11.2685217"><ele>677.0</ele><time>2026-04-07T14:18:41.884Z</time></trkpt><trkpt lat="45.699395" lon="11.2686683"><ele>677.0</ele><time>2026-04-07T14:18:43.883Z</time></trkpt><trkpt lat="45.6994567" lon="11.2687817"><ele>680.4000000000001</ele><time>2026-04-07T14:18:44.883Z</time></trkpt><trkpt lat="45.6995283" lon="11.268905"><ele>683.8000000000001</ele><time>2026-04-07T14:18:45.883Z</time></trkpt><trkpt lat="45.6996" lon="11.268995"><ele>687.2</ele><time>2026-04-07T14:18:46.883Z</time></trkpt><trkpt lat="45.699685" lon="11.2690117"><ele>690.6</ele><time>2026-04-07T14:18:47.884Z</time></trkpt><trkpt lat="45.699775" lon="11.2690117"><ele>694.0</ele><time>2026-04-07T14:18:48.883Z</time></trkpt><trkpt lat="45.69988" lon="11.26899"><ele>694.6</ele><time>2026-04-07T14:18:49.883Z</time></trkpt><trkpt lat="45.6999967" lon="11.26899"><ele>695.2</ele><time>2026-04-07T14:18:50.883Z</time></trkpt><trkpt lat="45.7000983" lon="11.269005"><ele>695.8000000000001</ele><time>2026-04-07T14:18:51.883Z</time></trkpt><trkpt lat="45.7001817" lon="11.2690217"><ele>696.4000000000001</ele><time>2026-04-07T14:18:52.883Z</time></trkpt><trkpt lat="45.70025" lon="11.2690567"><ele>697.0</ele><time>2026-04-07T14:18:53.884Z</time></trkpt><trkpt lat="45.70035" lon="11.2691667"><ele>695.4000000000001</ele><time>2026-04-07T14:18:55.884Z</time></trkpt><trkpt lat="45.70039" lon="11.2692367"><ele>693.8000000000001</ele><time>2026-04-07T14:18:56.883Z</time></trkpt><trkpt lat="45.70047" lon="11.2693467"><ele>692.2</ele><time>2026-04-07T14:18:58.883Z</time></trkpt><trkpt lat="45.70056" lon="11.26947"><ele>690.6</ele><time>2026-04-07T14:19:00.884Z</time></trkpt><trkpt lat="45.7006033" lon="11.269565"><ele>689.0</ele><time>2026-04-07T14:19:01.884Z</time></trkpt><trkpt lat="45.7006467" lon="11.2696683"><ele>690.5</ele><time>2026-04-07T14:19:02.884Z</time></trkpt><trkpt lat="45.7006783" lon="11.2697967"><ele>692.0</ele><time>2026-04-07T14:19:03.884Z</time></trkpt><trkpt lat="45.7007167" lon="11.2699267"><ele>693.5</ele><time>2026-04-07T14:19:04.884Z</time></trkpt><trkpt lat="45.70075" lon="11.2700467"><ele>695.0</ele><time>2026-04-07T14:19:05.884Z</time></trkpt><trkpt lat="45.7007783" lon="11.2701617"><ele>696.5</ele><time>2026-04-07T14:19:06.883Z</time></trkpt><trkpt lat="45.7008033" lon="11.270265"><ele>698.0</ele><time>2026-04-07T14:19:07.884Z</time></trkpt><trkpt lat="45.70083" lon="11.2703633"><ele>698.0</ele><time>2026-04-07T14:19:08.884Z</time></trkpt><trkpt lat="45.7008683" lon="11.2704467"><ele>698.0</ele><time>2026-04-07T14:19:09.884Z</time></trkpt><trkpt lat="45.7009183" lon="11.2705133"><ele>698.0</ele><time>2026-04-07T14:19:10.883Z</time></trkpt><trkpt lat="45.70099" lon="11.27057"><ele>698.0</ele><time>2026-04-07T14:19:11.884Z</time></trkpt><trkpt lat="45.7010667" lon="11.27061"><ele>698.0</ele><time>2026-04-07T14:19:12.884Z</time></trkpt><trkpt lat="45.7011467" lon="11.270655"><ele>698.0</ele><time>2026-04-07T14:19:13.884Z</time></trkpt><trkpt lat="45.7012133" lon="11.2706967"><ele>694.1666666666666</ele><time>2026-04-07T14:19:14.883Z</time></trkpt><trkpt lat="45.70127" lon="11.270745"><ele>690.3333333333333</ele><time>2026-04-07T14:19:15.884Z</time></trkpt><trkpt lat="45.70132" lon="11.2708033"><ele>686.5</ele><time>2026-04-07T14:19:16.884Z</time></trkpt><trkpt lat="45.7013617" lon="11.2708883"><ele>682.6666666666666</ele><time>2026-04-07T14:19:17.883Z</time></trkpt><trkpt lat="45.701405" lon="11.2709967"><ele>678.8333333333334</ele><time>2026-04-07T14:19:18.884Z</time></trkpt><trkpt lat="45.701455" lon="11.271115"><ele>675.0</ele><time>2026-04-07T14:19:19.884Z</time></trkpt><trkpt lat="45.7015" lon="11.2712183"><ele>675.0</ele><time>2026-04-07T14:19:20.883Z</time></trkpt><trkpt lat="45.7015417" lon="11.2713083"><ele>675.0</ele><time>2026-04-07T14:19:21.884Z</time></trkpt><trkpt lat="45.7015867" lon="11.2713833"><ele>675.0</ele><time>2026-04-07T14:19:22.884Z</time></trkpt><trkpt lat="45.7016317" lon="11.271455"><ele>675.0</ele><time>2026-04-07T14:19:23.884Z</time></trkpt><trkpt lat="45.7017117" lon="11.271565"><ele>675.0</ele><time>2026-04-07T14:19:25.883Z</time></trkpt><trkpt lat="45.70178" lon="11.2717067"><ele>675.0</ele><time>2026-04-07T14:19:27.884Z</time></trkpt><trkpt lat="45.7018067" lon="11.2718183"><ele>673.4</ele><time>2026-04-07T14:19:28.883Z</time></trkpt><trkpt lat="45.7018367" lon="11.2719633"><ele>671.8</ele><time>2026-04-07T14:19:29.884Z</time></trkpt><trkpt lat="45.7018667" lon="11.2721183"><ele>670.2</ele><time>2026-04-07T14:19:30.883Z</time></trkpt><trkpt lat="45.701895" lon="11.27227"><ele>668.6</ele><time>2026-04-07T14:19:31.884Z</time></trkpt><trkpt lat="45.70193" lon="11.27239"><ele>667.0</ele><time>2026-04-07T14:19:32.883Z</time></trkpt><trkpt lat="45.7019733" lon="11.2725017"><ele>667.0</ele><time>2026-04-07T14:19:33.884Z</time></trkpt><trkpt lat="45.702025" lon="11.2725867"><ele>667.0</ele><time>2026-04-07T14:19:34.884Z</time></trkpt><trkpt lat="45.702085" lon="11.2726517"><ele>667.0</ele><time>2026-04-07T14:19:35.883Z</time></trkpt><trkpt lat="45.7021667" lon="11.272765"><ele>667.0</ele><time>2026-04-07T14:19:37.883Z</time></trkpt><trkpt lat="45.7021733" lon="11.27288"><ele>667.0</ele><time>2026-04-07T14:19:39.884Z</time></trkpt><trkpt lat="45.70212" lon="11.2730367"><ele>669.3333333333334</ele><time>2026-04-07T14:19:41.884Z</time></trkpt><trkpt lat="45.7020983" lon="11.2731517"><ele>671.6666666666667</ele><time>2026-04-07T14:19:42.884Z</time></trkpt><trkpt lat="45.702085" lon="11.2732783"><ele>674.0</ele><time>2026-04-07T14:19:43.883Z</time></trkpt><trkpt lat="45.702085" lon="11.2733817"><ele>676.3333333333334</ele><time>2026-04-07T14:19:44.884Z</time></trkpt><trkpt lat="45.7021267" lon="11.273545"><ele>678.6666666666666</ele><time>2026-04-07T14:19:46.884Z</time></trkpt><trkpt lat="45.7021667" lon="11.2736183"><ele>681.0</ele><time>2026-04-07T14:19:47.884Z</time></trkpt><trkpt lat="45.7022283" lon="11.2736883"><ele>681.0</ele><time>2026-04-07T14:19:48.883Z</time></trkpt><trkpt lat="45.7022883" lon="11.27375"><ele>681.0</ele><time>2026-04-07T14:19:49.884Z</time></trkpt><trkpt lat="45.70234" lon="11.2738033"><ele>681.0</ele><time>2026-04-07T14:19:50.884Z</time></trkpt><trkpt lat="45.7024167" lon="11.2739233"><ele>681.0</ele><time>2026-04-07T14:19:52.883Z</time></trkpt><trkpt lat="45.7024533" lon="11.2740183"><ele>681.0</ele><time>2026-04-07T14:19:53.884Z</time></trkpt><trkpt lat="45.7024783" lon="11.2741417"><ele>681.0</ele><time>2026-04-07T14:19:54.883Z</time></trkpt><trkpt lat="45.7024917" lon="11.2742833"><ele>682.8333333333334</ele><time>2026-04-07T14:19:55.884Z</time></trkpt><trkpt lat="45.7025" lon="11.2744317"><ele>684.6666666666666</ele><time>2026-04-07T14:19:56.883Z</time></trkpt><trkpt lat="45.7025233" lon="11.27457"><ele>686.5</ele><time>2026-04-07T14:19:57.884Z</time></trkpt><trkpt lat="45.702545" lon="11.2746867"><ele>688.3333333333333</ele><time>2026-04-07T14:19:58.883Z</time></trkpt><trkpt lat="45.7025717" lon="11.2747883"><ele>690.1666666666666</ele><time>2026-04-07T14:19:59.884Z</time></trkpt><trkpt lat="45.702585" lon="11.2748967"><ele>692.0</ele><time>2026-04-07T14:20:00.884Z</time></trkpt><trkpt lat="45.7025767" lon="11.27502"><ele>693.0</ele><time>2026-04-07T14:20:01.884Z</time></trkpt><trkpt lat="45.7025717" lon="11.2751583"><ele>694.0</ele><time>2026-04-07T14:20:02.883Z</time></trkpt><trkpt lat="45.7025617" lon="11.2752883"><ele>695.0</ele><time>2026-04-07T14:20:03.883Z</time></trkpt><trkpt lat="45.7025533" lon="11.2754133"><ele>696.0</ele><time>2026-04-07T14:20:04.883Z</time></trkpt><trkpt lat="45.7025533" lon="11.275515"><ele>697.0</ele><time>2026-04-07T14:20:05.883Z</time></trkpt><trkpt lat="45.7025567" lon="11.27561"><ele>698.0</ele><time>2026-04-07T14:20:06.884Z</time></trkpt><trkpt lat="45.7026017" lon="11.2757767"><ele>699.3333333333333</ele><time>2026-04-07T14:20:08.884Z</time></trkpt><trkpt lat="45.7026467" lon="11.27585"><ele>700.6666666666666</ele><time>2026-04-07T14:20:09.884Z</time></trkpt><trkpt lat="45.702705" lon="11.2759167"><ele>702.0</ele><time>2026-04-07T14:20:10.884Z</time></trkpt><trkpt lat="45.7027633" lon="11.2759683"><ele>703.3333333333334</ele><time>2026-04-07T14:20:11.882Z</time></trkpt><trkpt lat="45.7028133" lon="11.2760267"><ele>704.6666666666667</ele><time>2026-04-07T14:20:12.882Z</time></trkpt><trkpt lat="45.7028817" lon="11.2761567"><ele>706.0</ele><time>2026-04-07T14:20:14.883Z</time></trkpt><trkpt lat="45.702935" lon="11.2763117"><ele>704.8333333333334</ele><time>2026-04-07T14:20:16.883Z</time></trkpt><trkpt lat="45.7029783" lon="11.276405"><ele>703.6666666666667</ele><time>2026-04-07T14:20:17.883Z</time></trkpt><trkpt lat="45.7030117" lon="11.2765067"><ele>702.5</ele><time>2026-04-07T14:20:18.883Z</time></trkpt><trkpt lat="45.703045" lon="11.2766217"><ele>701.3333333333334</ele><time>2026-04-07T14:20:19.882Z</time></trkpt><trkpt lat="45.7030717" lon="11.27674"><ele>700.1666666666666</ele><time>2026-04-07T14:20:20.883Z</time></trkpt><trkpt lat="45.7030917" lon="11.276855"><ele>699.0</ele><time>2026-04-07T14:20:21.882Z</time></trkpt><trkpt lat="45.7031033" lon="11.2769567"><ele>699.0</ele><time>2026-04-07T14:20:22.883Z</time></trkpt><trkpt lat="45.7031117" lon="11.2771133"><ele>699.0</ele><time>2026-04-07T14:20:24.882Z</time></trkpt><trkpt lat="45.70315" lon="11.27727"><ele>699.0</ele><time>2026-04-07T14:20:26.883Z</time></trkpt><trkpt lat="45.7031883" lon="11.2773633"><ele>699.0</ele><time>2026-04-07T14:20:27.883Z</time></trkpt><trkpt lat="45.70324" lon="11.27746"><ele>699.0</ele><time>2026-04-07T14:20:28.883Z</time></trkpt><trkpt lat="45.7032917" lon="11.2775483"><ele>698.0</ele><time>2026-04-07T14:20:29.883Z</time></trkpt><trkpt lat="45.7033367" lon="11.2776333"><ele>697.0</ele><time>2026-04-07T14:20:30.882Z</time></trkpt><trkpt lat="45.70339" lon="11.2777483"><ele>696.0</ele><time>2026-04-07T14:20:32.883Z</time></trkpt><trkpt lat="45.703375" lon="11.2778767"><ele>695.0</ele><time>2026-04-07T14:20:34.883Z</time></trkpt><trkpt lat="45.703345" lon="11.2780283"><ele>694.0</ele><time>2026-04-07T14:20:36.883Z</time></trkpt><trkpt lat="45.7033133" lon="11.2781317"><ele>692.8000000000001</ele><time>2026-04-07T14:20:38.882Z</time></trkpt><trkpt lat="45.7032633" lon="11.2782833"><ele>691.6</ele><time>2026-04-07T14:20:40.883Z</time></trkpt><trkpt lat="45.7032533" lon="11.2784417"><ele>690.4</ele><time>2026-04-07T14:20:42.883Z</time></trkpt><trkpt lat="45.703255" lon="11.2785967"><ele>689.2</ele><time>2026-04-07T14:20:44.883Z</time></trkpt><trkpt lat="45.703265" lon="11.2787417"><ele>688.0</ele><time>2026-04-07T14:20:46.882Z</time></trkpt><trkpt lat="45.703265" lon="11.2788333"><ele>687.2</ele><time>2026-04-07T14:20:47.883Z</time></trkpt><trkpt lat="45.7033" lon="11.2789883"><ele>686.4</ele><time>2026-04-07T14:20:49.882Z</time></trkpt><trkpt lat="45.7033867" lon="11.279085"><ele>685.6</ele><time>2026-04-07T14:20:51.883Z</time></trkpt><trkpt lat="45.7034767" lon="11.27911"><ele>684.8000000000001</ele><time>2026-04-07T14:20:53.883Z</time></trkpt><trkpt lat="45.7035617" lon="11.2791483"><ele>684.0</ele><time>2026-04-07T14:20:55.883Z</time></trkpt><trkpt lat="45.7036033" lon="11.2792717"><ele>678.6666666666666</ele><time>2026-04-07T14:20:57.882Z</time></trkpt><trkpt lat="45.7036233" lon="11.2793733"><ele>673.3333333333334</ele><time>2026-04-07T14:20:58.883Z</time></trkpt><trkpt lat="45.7036317" lon="11.2794783"><ele>668.0</ele><time>2026-04-07T14:20:59.883Z</time></trkpt><trkpt lat="45.7036483" lon="11.2795683"><ele>662.6666666666667</ele><time>2026-04-07T14:21:00.882Z</time></trkpt><trkpt lat="45.7036533" lon="11.2797233"><ele>657.3333333333334</ele><time>2026-04-07T14:21:02.883Z</time></trkpt><trkpt lat="45.7036383" lon="11.2798783"><ele>652.0</ele><time>2026-04-07T14:21:04.882Z</time></trkpt><trkpt lat="45.7036217" lon="11.2799883"><ele>650.6</ele><time>2026-04-07T14:21:05.883Z</time></trkpt><trkpt lat="45.7036133" lon="11.28008"><ele>649.2</ele><time>2026-04-07T14:21:06.882Z</time></trkpt><trkpt lat="45.7036117" lon="11.28024"><ele>647.8</ele><time>2026-04-07T14:21:08.882Z</time></trkpt><trkpt lat="45.7036033" lon="11.2804"><ele>646.4</ele><time>2026-04-07T14:21:10.882Z</time></trkpt><trkpt lat="45.70361" lon="11.2805667"><ele>645.0</ele><time>2026-04-07T14:21:12.883Z</time></trkpt><trkpt lat="45.7036367" lon="11.28074"><ele>643.3333333333334</ele><time>2026-04-07T14:21:14.883Z</time></trkpt><trkpt lat="45.703645" lon="11.2808383"><ele>641.6666666666666</ele><time>2026-04-07T14:21:15.882Z</time></trkpt><trkpt lat="45.70366" lon="11.2809383"><ele>640.0</ele><time>2026-04-07T14:21:16.883Z</time></trkpt><trkpt lat="45.7036767" lon="11.2810483"><ele>638.3333333333333</ele><time>2026-04-07T14:21:17.882Z</time></trkpt><trkpt lat="45.7036933" lon="11.2811517"><ele>636.6666666666666</ele><time>2026-04-07T14:21:18.883Z</time></trkpt><trkpt lat="45.7037033" lon="11.2812467"><ele>635.0</ele><time>2026-04-07T14:21:19.882Z</time></trkpt><trkpt lat="45.7037283" lon="11.2814083"><ele>634.5</ele><time>2026-04-07T14:21:21.883Z</time></trkpt><trkpt lat="45.703755" lon="11.2815483"><ele>634.0</ele><time>2026-04-07T14:21:23.882Z</time></trkpt><trkpt lat="45.7037733" lon="11.2816583"><ele>633.5</ele><time>2026-04-07T14:21:25.883Z</time></trkpt><trkpt lat="45.7037733" lon="11.2817633"><ele>633.0</ele><time>2026-04-07T14:21:27.883Z</time></trkpt><trkpt lat="45.7038533" lon="11.281765"><ele>632.5</ele><time>2026-04-07T14:21:31.883Z</time></trkpt><trkpt lat="45.703895" lon="11.28166"><ele>632.0</ele><time>2026-04-07T14:21:33.883Z</time></trkpt><trkpt lat="45.7039333" lon="11.2815383"><ele>632.5</ele><time>2026-04-07T14:21:35.882Z</time></trkpt><trkpt lat="45.7039617" lon="11.28136"><ele>633.0</ele><time>2026-04-07T14:21:37.882Z</time></trkpt><trkpt lat="45.70397" lon="11.2812617"><ele>633.5</ele><time>2026-04-07T14:21:38.883Z</time></trkpt><trkpt lat="45.7039833" lon="11.28116"><ele>634.0</ele><time>2026-04-07T14:21:39.883Z</time></trkpt><trkpt lat="45.704005" lon="11.2810383"><ele>634.5</ele><time>2026-04-07T14:21:40.883Z</time></trkpt><trkpt lat="45.704035" lon="11.280915"><ele>635.0</ele><time>2026-04-07T14:21:41.882Z</time></trkpt><trkpt lat="45.7040567" lon="11.280795"><ele>635.0</ele><time>2026-04-07T14:21:42.883Z</time></trkpt><trkpt lat="45.704085" lon="11.280695"><ele>635.0</ele><time>2026-04-07T14:21:43.883Z</time></trkpt><trkpt lat="45.7041133" lon="11.2805933"><ele>635.0</ele><time>2026-04-07T14:21:44.883Z</time></trkpt><trkpt lat="45.704155" lon="11.2805033"><ele>635.0</ele><time>2026-04-07T14:21:45.883Z</time></trkpt><trkpt lat="45.7041983" lon="11.280425"><ele>635.0</ele><time>2026-04-07T14:21:46.883Z</time></trkpt><trkpt lat="45.704275" lon="11.2803067"><ele>635.0</ele><time>2026-04-07T14:21:48.883Z</time></trkpt><trkpt lat="45.7043367" lon="11.2802183"><ele>635.0</ele><time>2026-04-07T14:21:50.883Z</time></trkpt><trkpt lat="45.7043983" lon="11.2801983"><ele>635.0</ele><time>2026-04-07T14:21:53.882Z</time></trkpt><trkpt lat="45.7044233" lon="11.2802867"><ele>635.0</ele><time>2026-04-07T14:21:55.883Z</time></trkpt><trkpt lat="45.7044567" lon="11.2804067"><ele>635.0</ele><time>2026-04-07T14:21:57.882Z</time></trkpt><trkpt lat="45.7044683" lon="11.2805317"><ele>635.0</ele><time>2026-04-07T14:21:59.882Z</time></trkpt><trkpt lat="45.7044583" lon="11.280655"><ele>635.0</ele><time>2026-04-07T14:22:02.882Z</time></trkpt><trkpt lat="45.7044033" lon="11.280765"><ele>635.0</ele><time>2026-04-07T14:22:06.883Z</time></trkpt><trkpt lat="45.7043667" lon="11.2808433"><ele>635.0</ele><time>2026-04-07T14:22:08.882Z</time></trkpt><trkpt lat="45.704385" lon="11.280945"><ele>635.0</ele><time>2026-04-07T14:22:10.883Z</time></trkpt><trkpt lat="45.704475" lon="11.2809717"><ele>635.0</ele><time>2026-04-07T14:22:13.882Z</time></trkpt><trkpt lat="45.7045967" lon="11.2809133"><ele>635.0</ele><time>2026-04-07T14:22:15.883Z</time></trkpt><trkpt lat="45.7046683" lon="11.2808767"><ele>635.0</ele><time>2026-04-07T14:22:16.883Z</time></trkpt><trkpt lat="45.7047333" lon="11.2808317"><ele>630.6</ele><time>2026-04-07T14:22:17.882Z</time></trkpt><trkpt lat="45.7047933" lon="11.2807783"><ele>626.2</ele><time>2026-04-07T14:22:18.883Z</time></trkpt><trkpt lat="45.704875" lon="11.2806917"><ele>621.8</ele><time>2026-04-07T14:22:20.883Z</time></trkpt><trkpt lat="45.704955" lon="11.2806233"><ele>617.4</ele><time>2026-04-07T14:22:22.882Z</time></trkpt><trkpt lat="45.7050333" lon="11.2805683"><ele>613.0</ele><time>2026-04-07T14:22:24.882Z</time></trkpt><trkpt lat="45.7050967" lon="11.2804517"><ele>613.0</ele><time>2026-04-07T14:22:26.883Z</time></trkpt><trkpt lat="45.7051417" lon="11.2802733"><ele>613.0</ele><time>2026-04-07T14:22:28.883Z</time></trkpt><trkpt lat="45.7051733" lon="11.2801767"><ele>613.0</ele><time>2026-04-07T14:22:29.882Z</time></trkpt><trkpt lat="45.7052183" lon="11.2801033"><ele>613.0</ele><time>2026-04-07T14:22:30.883Z</time></trkpt><trkpt lat="45.7052933" lon="11.2799783"><ele>613.0</ele><time>2026-04-07T14:22:32.883Z</time></trkpt><trkpt lat="45.7053767" lon="11.2798917"><ele>608.0</ele><time>2026-04-07T14:22:34.883Z</time></trkpt><trkpt lat="45.70547" lon="11.279885"><ele>603.0</ele><time>2026-04-07T14:22:36.882Z</time></trkpt><trkpt lat="45.705585" lon="11.2799967"><ele>598.0</ele><time>2026-04-07T14:22:38.883Z</time></trkpt><trkpt lat="45.7056517" lon="11.2800817"><ele>593.0</ele><time>2026-04-07T14:22:39.883Z</time></trkpt><trkpt lat="45.705705" lon="11.280165"><ele>588.0</ele><time>2026-04-07T14:22:40.883Z</time></trkpt><trkpt lat="45.705755" lon="11.2802417"><ele>588.0</ele><time>2026-04-07T14:22:41.883Z</time></trkpt><trkpt lat="45.7058083" lon="11.2803217"><ele>588.0</ele><time>2026-04-07T14:22:42.882Z</time></trkpt><trkpt lat="45.7058533" lon="11.2803867"><ele>588.0</ele><time>2026-04-07T14:22:43.882Z</time></trkpt><trkpt lat="45.705925" lon="11.2805033"><ele>588.0</ele><time>2026-04-07T14:22:45.883Z</time></trkpt><trkpt lat="45.7059667" lon="11.28066"><ele>588.0</ele><time>2026-04-07T14:22:47.882Z</time></trkpt><trkpt lat="45.7060033" lon="11.2808117"><ele>588.4</ele><time>2026-04-07T14:22:49.883Z</time></trkpt><trkpt lat="45.7060317" lon="11.280925"><ele>588.8</ele><time>2026-04-07T14:22:51.883Z</time></trkpt><trkpt lat="45.70605" lon="11.2810567"><ele>589.2</ele><time>2026-04-07T14:22:53.883Z</time></trkpt><trkpt lat="45.7061017" lon="11.2811433"><ele>589.6</ele><time>2026-04-07T14:22:55.883Z</time></trkpt><trkpt lat="45.706175" lon="11.2810617"><ele>590.0</ele><time>2026-04-07T14:22:57.882Z</time></trkpt><trkpt lat="45.7062233" lon="11.280915"><ele>583.4</ele><time>2026-04-07T14:22:59.882Z</time></trkpt><trkpt lat="45.7062533" lon="11.280725"><ele>576.8</ele><time>2026-04-07T14:23:01.881Z</time></trkpt><trkpt lat="45.7062517" lon="11.280615"><ele>570.2</ele><time>2026-04-07T14:23:02.882Z</time></trkpt><trkpt lat="45.70626" lon="11.2805217"><ele>563.6</ele><time>2026-04-07T14:23:03.881Z</time></trkpt><trkpt lat="45.7062517" lon="11.28035"><ele>557.0</ele><time>2026-04-07T14:23:05.882Z</time></trkpt><trkpt lat="45.7062333" lon="11.2802617"><ele>556.3333333333333</ele><time>2026-04-07T14:23:06.882Z</time></trkpt><trkpt lat="45.7062" lon="11.2801733"><ele>555.6666666666666</ele><time>2026-04-07T14:23:07.881Z</time></trkpt><trkpt lat="45.7061317" lon="11.28003"><ele>555.0</ele><time>2026-04-07T14:23:09.882Z</time></trkpt><trkpt lat="45.7060833" lon="11.2799533"><ele>554.3333333333334</ele><time>2026-04-07T14:23:10.881Z</time></trkpt><trkpt lat="45.7060367" lon="11.2798867"><ele>553.6666666666667</ele><time>2026-04-07T14:23:11.881Z</time></trkpt><trkpt lat="45.706005" lon="11.2797383"><ele>553.0</ele><time>2026-04-07T14:23:13.882Z</time></trkpt><trkpt lat="45.7060083" lon="11.2795617"><ele>552.1999999999999</ele><time>2026-04-07T14:23:15.881Z</time></trkpt><trkpt lat="45.706005" lon="11.27947"><ele>551.4</ele><time>2026-04-07T14:23:16.882Z</time></trkpt><trkpt lat="45.7060033" lon="11.2793"><ele>550.5999999999999</ele><time>2026-04-07T14:23:18.882Z</time></trkpt><trkpt lat="45.7059983" lon="11.2791533"><ele>549.8</ele><time>2026-04-07T14:23:20.881Z</time></trkpt><trkpt lat="45.706065" lon="11.2791433"><ele>549.0</ele><time>2026-04-07T14:23:23.882Z</time></trkpt><trkpt lat="45.7061867" lon="11.279145"><ele>549.0</ele><time>2026-04-07T14:23:25.881Z</time></trkpt><trkpt lat="45.7062583" lon="11.2791583"><ele>549.0</ele><time>2026-04-07T14:23:26.882Z</time></trkpt><trkpt lat="45.7063233" lon="11.2791717"><ele>549.0</ele><time>2026-04-07T14:23:27.882Z</time></trkpt><trkpt lat="45.706435" lon="11.2791533"><ele>549.0</ele><time>2026-04-07T14:23:29.882Z</time></trkpt><trkpt lat="45.7065417" lon="11.279085"><ele>549.0</ele><time>2026-04-07T14:23:31.881Z</time></trkpt><trkpt lat="45.7066417" lon="11.2789667"><ele>549.5</ele><time>2026-04-07T14:23:33.881Z</time></trkpt><trkpt lat="45.7067" lon="11.2788883"><ele>550.0</ele><time>2026-04-07T14:23:34.881Z</time></trkpt><trkpt lat="45.706765" lon="11.27882"><ele>550.5</ele><time>2026-04-07T14:23:35.882Z</time></trkpt><trkpt lat="45.7068167" lon="11.278755"><ele>551.0</ele><time>2026-04-07T14:23:36.882Z</time></trkpt><trkpt lat="45.7068933" lon="11.2786467"><ele>551.5</ele><time>2026-04-07T14:23:38.882Z</time></trkpt><trkpt lat="45.7069333" lon="11.2785417"><ele>552.0</ele><time>2026-04-07T14:23:40.882Z</time></trkpt><trkpt lat="45.70699" lon="11.2785017"><ele>548.8333333333334</ele><time>2026-04-07T14:23:42.882Z</time></trkpt><trkpt lat="45.7071" lon="11.2785583"><ele>545.6666666666666</ele><time>2026-04-07T14:23:44.882Z</time></trkpt><trkpt lat="45.7071833" lon="11.2785867"><ele>542.5</ele><time>2026-04-07T14:23:45.882Z</time></trkpt><trkpt lat="45.7072683" lon="11.278605"><ele>539.3333333333333</ele><time>2026-04-07T14:23:46.882Z</time></trkpt><trkpt lat="45.707345" lon="11.278635"><ele>536.1666666666666</ele><time>2026-04-07T14:23:47.881Z</time></trkpt><trkpt lat="45.7074083" lon="11.2786683"><ele>533.0</ele><time>2026-04-07T14:23:48.881Z</time></trkpt><trkpt lat="45.707505" lon="11.2787367"><ele>533.0</ele><time>2026-04-07T14:23:50.882Z</time></trkpt><trkpt lat="45.70758" lon="11.2788717"><ele>533.0</ele><time>2026-04-07T14:23:52.881Z</time></trkpt><trkpt lat="45.707655" lon="11.279005"><ele>533.0</ele><time>2026-04-07T14:23:54.881Z</time></trkpt><trkpt lat="45.7076883" lon="11.27914"><ele>533.0</ele><time>2026-04-07T14:23:56.881Z</time></trkpt><trkpt lat="45.7077" lon="11.2792567"><ele>533.0</ele><time>2026-04-07T14:23:58.882Z</time></trkpt><trkpt lat="45.707655" lon="11.2793733"><ele>533.0</ele><time>2026-04-07T14:24:00.881Z</time></trkpt><trkpt lat="45.7075983" lon="11.2795333"><ele>533.0</ele><time>2026-04-07T14:24:02.881Z</time></trkpt><trkpt lat="45.70759" lon="11.2796283"><ele>533.0</ele><time>2026-04-07T14:24:03.882Z</time></trkpt><trkpt lat="45.7075883" lon="11.27972"><ele>533.0</ele><time>2026-04-07T14:24:04.882Z</time></trkpt><trkpt lat="45.70756" lon="11.2798617"><ele>533.0</ele><time>2026-04-07T14:24:06.882Z</time></trkpt><trkpt lat="45.7074733" lon="11.2799867"><ele>532.1999999999999</ele><time>2026-04-07T14:24:08.882Z</time></trkpt><trkpt lat="45.7074167" lon="11.2800333"><ele>531.4</ele><time>2026-04-07T14:24:09.882Z</time></trkpt><trkpt lat="45.7073183" lon="11.2800867"><ele>530.5999999999999</ele><time>2026-04-07T14:24:11.882Z</time></trkpt><trkpt lat="45.7072183" lon="11.2800833"><ele>529.8</ele><time>2026-04-07T14:24:13.882Z</time></trkpt><trkpt lat="45.707115" lon="11.28009"><ele>529.0</ele><time>2026-04-07T14:24:15.882Z</time></trkpt><trkpt lat="45.7070417" lon="11.2801733"><ele>529.0</ele><time>2026-04-07T14:24:17.881Z</time></trkpt><trkpt lat="45.7070183" lon="11.2803533"><ele>529.0</ele><time>2026-04-07T14:24:19.881Z</time></trkpt><trkpt lat="45.7070133" lon="11.2804583"><ele>529.0</ele><time>2026-04-07T14:24:20.882Z</time></trkpt><trkpt lat="45.7070167" lon="11.280565"><ele>529.0</ele><time>2026-04-07T14:24:21.881Z</time></trkpt><trkpt lat="45.7070317" lon="11.2806667"><ele>529.0</ele><time>2026-04-07T14:24:22.882Z</time></trkpt><trkpt lat="45.7070917" lon="11.2808517"><ele>527.0</ele><time>2026-04-07T14:24:24.882Z</time></trkpt><trkpt lat="45.7071167" lon="11.2809817"><ele>525.0</ele><time>2026-04-07T14:24:25.882Z</time></trkpt><trkpt lat="45.707145" lon="11.28111"><ele>523.0</ele><time>2026-04-07T14:24:26.882Z</time></trkpt><trkpt lat="45.7071767" lon="11.2812033"><ele>521.0</ele><time>2026-04-07T14:24:27.882Z</time></trkpt><trkpt lat="45.7072083" lon="11.2813083"><ele>519.0</ele><time>2026-04-07T14:24:28.882Z</time></trkpt><trkpt lat="45.7072467" lon="11.2814133"><ele>517.0</ele><time>2026-04-07T14:24:29.882Z</time></trkpt><trkpt lat="45.70728" lon="11.2815067"><ele>515.4</ele><time>2026-04-07T14:24:30.882Z</time></trkpt><trkpt lat="45.70731" lon="11.2815867"><ele>513.8000000000001</ele><time>2026-04-07T14:24:31.881Z</time></trkpt><trkpt lat="45.707355" lon="11.28174"><ele>512.2</ele><time>2026-04-07T14:24:33.881Z</time></trkpt><trkpt lat="45.70733" lon="11.2818567"><ele>510.6</ele><time>2026-04-07T14:24:35.882Z</time></trkpt><trkpt lat="45.7072517" lon="11.28199"><ele>509.0</ele><time>2026-04-07T14:24:37.882Z</time></trkpt><trkpt lat="45.70719" lon="11.2820383"><ele>508.99999999999994</ele><time>2026-04-07T14:24:38.881Z</time></trkpt><trkpt lat="45.7070883" lon="11.2820917"><ele>509.0</ele><time>2026-04-07T14:24:40.881Z</time></trkpt><trkpt lat="45.7070117" lon="11.2821767"><ele>509.0</ele><time>2026-04-07T14:24:42.882Z</time></trkpt><trkpt lat="45.7069783" lon="11.2822717"><ele>509.0</ele><time>2026-04-07T14:24:43.882Z</time></trkpt><trkpt lat="45.70695" lon="11.2823733"><ele>508.99999999999994</ele><time>2026-04-07T14:24:44.882Z</time></trkpt><trkpt lat="45.7069233" lon="11.2824817"><ele>509.0</ele><time>2026-04-07T14:24:45.882Z</time></trkpt><trkpt lat="45.7069" lon="11.2825817"><ele>508.2</ele><time>2026-04-07T14:24:46.881Z</time></trkpt><trkpt lat="45.706845" lon="11.2827483"><ele>507.4</ele><time>2026-04-07T14:24:48.882Z</time></trkpt><trkpt lat="45.7068133" lon="11.2828283"><ele>506.6</ele><time>2026-04-07T14:24:49.882Z</time></trkpt><trkpt lat="45.7067767" lon="11.2829117"><ele>505.8</ele><time>2026-04-07T14:24:50.882Z</time></trkpt><trkpt lat="45.706735" lon="11.2829833"><ele>505.0</ele><time>2026-04-07T14:24:51.882Z</time></trkpt><trkpt lat="45.7066767" lon="11.2831383"><ele>505.0</ele><time>2026-04-07T14:24:53.881Z</time></trkpt><trkpt lat="45.706625" lon="11.2832867"><ele>505.0</ele><time>2026-04-07T14:24:55.882Z</time></trkpt><trkpt lat="45.70656" lon="11.2834317"><ele>505.0</ele><time>2026-04-07T14:24:57.882Z</time></trkpt><trkpt lat="45.7064933" lon="11.2835533"><ele>505.0</ele><time>2026-04-07T14:24:59.882Z</time></trkpt><trkpt lat="45.7064167" lon="11.28368"><ele>505.00000000000006</ele><time>2026-04-07T14:25:01.882Z</time></trkpt><trkpt lat="45.706385" lon="11.2838"><ele>505.0</ele><time>2026-04-07T14:25:03.881Z</time></trkpt><trkpt lat="45.706395" lon="11.2839083"><ele>505.0</ele><time>2026-04-07T14:25:46.882Z</time></trkpt><trkpt lat="45.7064617" lon="11.2838983"><ele>505.0</ele><time>2026-04-07T14:25:48.882Z</time></trkpt><trkpt lat="45.7065517" lon="11.2838917"><ele>505.00000000000006</ele><time>2026-04-07T14:25:50.88Z</time></trkpt><trkpt lat="45.7066617" lon="11.28383"><ele>505.0</ele><time>2026-04-07T14:25:52.881Z</time></trkpt><trkpt lat="45.70673" lon="11.2837783"><ele>505.00000000000006</ele><time>2026-04-07T14:25:53.881Z</time></trkpt><trkpt lat="45.7068033" lon="11.283755"><ele>505.0</ele><time>2026-04-07T14:25:54.881Z</time></trkpt><trkpt lat="45.7068733" lon="11.2837633"><ele>505.0</ele><time>2026-04-07T14:25:55.88Z</time></trkpt><trkpt lat="45.70695" lon="11.2838133"><ele>505.0</ele><time>2026-04-07T14:25:56.881Z</time></trkpt><trkpt lat="45.7070333" lon="11.2838517"><ele>505.00000000000006</ele><time>2026-04-07T14:25:57.881Z</time></trkpt><trkpt lat="45.707105" lon="11.2839033"><ele>505.0</ele><time>2026-04-07T14:25:58.881Z</time></trkpt><trkpt lat="45.7071833" lon="11.2839767"><ele>504.2</ele><time>2026-04-07T14:25:59.88Z</time></trkpt><trkpt lat="45.70727" lon="11.2840517"><ele>503.4</ele><time>2026-04-07T14:26:00.881Z</time></trkpt><trkpt lat="45.7073533" lon="11.2841033"><ele>502.6</ele><time>2026-04-07T14:26:01.88Z</time></trkpt><trkpt lat="45.7074367" lon="11.2841317"><ele>501.8</ele><time>2026-04-07T14:26:02.88Z</time></trkpt><trkpt lat="45.70753" lon="11.2841433"><ele>501.0</ele><time>2026-04-07T14:26:03.881Z</time></trkpt><trkpt lat="45.707625" lon="11.284145"><ele>501.0</ele><time>2026-04-07T14:26:04.88Z</time></trkpt><trkpt lat="45.707715" lon="11.2841467"><ele>501.0</ele><time>2026-04-07T14:26:05.881Z</time></trkpt><trkpt lat="45.7078067" lon="11.2841483"><ele>501.0</ele><time>2026-04-07T14:26:06.881Z</time></trkpt><trkpt lat="45.707895" lon="11.284145"><ele>501.0</ele><time>2026-04-07T14:26:07.881Z</time></trkpt><trkpt lat="45.7079717" lon="11.2841467"><ele>501.0</ele><time>2026-04-07T14:26:08.881Z</time></trkpt><trkpt lat="45.708045" lon="11.28416"><ele>501.0</ele><time>2026-04-07T14:26:09.88Z</time></trkpt><trkpt lat="45.7081117" lon="11.2841767"><ele>501.20000000000005</ele><time>2026-04-07T14:26:10.88Z</time></trkpt><trkpt lat="45.708185" lon="11.28421"><ele>501.40000000000003</ele><time>2026-04-07T14:26:11.881Z</time></trkpt><trkpt lat="45.7082617" lon="11.284255"><ele>501.6</ele><time>2026-04-07T14:26:12.881Z</time></trkpt><trkpt lat="45.7083333" lon="11.2842917"><ele>501.8</ele><time>2026-04-07T14:26:13.881Z</time></trkpt><trkpt lat="45.708465" lon="11.2843083"><ele>502.0</ele><time>2026-04-07T14:26:15.881Z</time></trkpt><trkpt lat="45.7085467" lon="11.2842833"><ele>501.6666666666667</ele><time>2026-04-07T14:26:16.881Z</time></trkpt><trkpt lat="45.7086283" lon="11.2842483"><ele>501.33333333333337</ele><time>2026-04-07T14:26:17.881Z</time></trkpt><trkpt lat="45.7086983" lon="11.2842183"><ele>501.0</ele><time>2026-04-07T14:26:18.88Z</time></trkpt><trkpt lat="45.7087617" lon="11.2842"><ele>500.66666666666663</ele><time>2026-04-07T14:26:19.881Z</time></trkpt><trkpt lat="45.7088767" lon="11.284235"><ele>500.3333333333333</ele><time>2026-04-07T14:26:21.881Z</time></trkpt><trkpt lat="45.7089433" lon="11.2842917"><ele>500.0</ele><time>2026-04-07T14:26:22.881Z</time></trkpt><trkpt lat="45.7090067" lon="11.2843583"><ele>500.0</ele><time>2026-04-07T14:26:23.881Z</time></trkpt><trkpt lat="45.7090883" lon="11.2844167"><ele>500.0</ele><time>2026-04-07T14:26:24.881Z</time></trkpt><trkpt lat="45.709185" lon="11.2844533"><ele>500.0</ele><time>2026-04-07T14:26:25.881Z</time></trkpt><trkpt lat="45.7092867" lon="11.284485"><ele>500.0</ele><time>2026-04-07T14:26:26.881Z</time></trkpt><trkpt lat="45.709385" lon="11.2845133"><ele>500.0</ele><time>2026-04-07T14:26:27.881Z</time></trkpt><trkpt lat="45.7094767" lon="11.2845467"><ele>499.49999999999994</ele><time>2026-04-07T14:26:28.881Z</time></trkpt><trkpt lat="45.7095617" lon="11.284565"><ele>499.0</ele><time>2026-04-07T14:26:29.881Z</time></trkpt><trkpt lat="45.7096483" lon="11.2845767"><ele>498.5</ele><time>2026-04-07T14:26:30.881Z</time></trkpt><trkpt lat="45.7097367" lon="11.2845583"><ele>498.0</ele><time>2026-04-07T14:26:31.881Z</time></trkpt><trkpt lat="45.7098217" lon="11.2845317"><ele>497.49999999999994</ele><time>2026-04-07T14:26:32.881Z</time></trkpt><trkpt lat="45.7099" lon="11.28452"><ele>497.0</ele><time>2026-04-07T14:26:33.88Z</time></trkpt><trkpt lat="45.7099717" lon="11.28451"><ele>497.0</ele><time>2026-04-07T14:26:34.88Z</time></trkpt><trkpt lat="45.710045" lon="11.2845117"><ele>497.00000000000006</ele><time>2026-04-07T14:26:35.881Z</time></trkpt><trkpt lat="45.7101117" lon="11.2845283"><ele>497.00000000000006</ele><time>2026-04-07T14:26:36.88Z</time></trkpt><trkpt lat="45.7102233" lon="11.28459"><ele>497.0</ele><time>2026-04-07T14:26:38.881Z</time></trkpt><trkpt lat="45.7103317" lon="11.2846217"><ele>497.0</ele><time>2026-04-07T14:26:40.881Z</time></trkpt><trkpt lat="45.7104133" lon="11.2845667"><ele>497.66666666666663</ele><time>2026-04-07T14:26:42.881Z</time></trkpt><trkpt lat="45.7104833" lon="11.2845533"><ele>498.3333333333333</ele><time>2026-04-07T14:26:44.88Z</time></trkpt><trkpt lat="45.7105617" lon="11.2845833"><ele>499.0</ele><time>2026-04-07T14:26:46.881Z</time></trkpt><trkpt lat="45.71065" lon="11.2846717"><ele>499.66666666666663</ele><time>2026-04-07T14:26:48.881Z</time></trkpt><trkpt lat="45.7107217" lon="11.2847933"><ele>500.3333333333333</ele><time>2026-04-07T14:26:50.881Z</time></trkpt><trkpt lat="45.71077" lon="11.2848617"><ele>501.0</ele><time>2026-04-07T14:26:51.88Z</time></trkpt><trkpt lat="45.71084" lon="11.284905"><ele>503.20000000000005</ele><time>2026-04-07T14:26:52.88Z</time></trkpt><trkpt lat="45.7109667" lon="11.2849217"><ele>505.40000000000003</ele><time>2026-04-07T14:26:54.88Z</time></trkpt><trkpt lat="45.7110283" lon="11.2850133"><ele>507.6</ele><time>2026-04-07T14:26:56.88Z</time></trkpt><trkpt lat="45.7110183" lon="11.285205"><ele>509.8</ele><time>2026-04-07T14:26:58.88Z</time></trkpt><trkpt lat="45.7110067" lon="11.2853283"><ele>512.0</ele><time>2026-04-07T14:26:59.881Z</time></trkpt><trkpt lat="45.7109933" lon="11.2854683"><ele>513.4</ele><time>2026-04-07T14:27:00.88Z</time></trkpt><trkpt lat="45.7109833" lon="11.2855983"><ele>514.8000000000001</ele><time>2026-04-07T14:27:01.88Z</time></trkpt><trkpt lat="45.710965" lon="11.2857217"><ele>516.2</ele><time>2026-04-07T14:27:02.881Z</time></trkpt><trkpt lat="45.7109333" lon="11.2858433"><ele>517.6</ele><time>2026-04-07T14:27:03.88Z</time></trkpt><trkpt lat="45.7108933" lon="11.2859717"><ele>519.0</ele><time>2026-04-07T14:27:04.881Z</time></trkpt><trkpt lat="45.7108517" lon="11.286105"><ele>519.0</ele><time>2026-04-07T14:27:05.881Z</time></trkpt><trkpt lat="45.71081" lon="11.286235"><ele>519.0</ele><time>2026-04-07T14:27:06.881Z</time></trkpt><trkpt lat="45.71078" lon="11.2863467"><ele>519.0</ele><time>2026-04-07T14:27:07.88Z</time></trkpt><trkpt lat="45.71077" lon="11.286505"><ele>519.0</ele><time>2026-04-07T14:27:09.88Z</time></trkpt><trkpt lat="45.7108383" lon="11.286655"><ele>519.0</ele><time>2026-04-07T14:27:11.881Z</time></trkpt><trkpt lat="45.7109" lon="11.28674"><ele>520.25</ele><time>2026-04-07T14:27:12.88Z</time></trkpt><trkpt lat="45.710995" lon="11.2868233"><ele>521.5</ele><time>2026-04-07T14:27:13.881Z</time></trkpt><trkpt lat="45.7110983" lon="11.2869117"><ele>522.75</ele><time>2026-04-07T14:27:14.881Z</time></trkpt><trkpt lat="45.7112017" lon="11.2869933"><ele>524.0</ele><time>2026-04-07T14:27:15.88Z</time></trkpt><trkpt lat="45.7113033" lon="11.28707"><ele>524.0</ele><time>2026-04-07T14:27:16.881Z</time></trkpt><trkpt lat="45.7113883" lon="11.2871517"><ele>524.0</ele><time>2026-04-07T14:27:17.881Z</time></trkpt><trkpt lat="45.7114683" lon="11.287235"><ele>524.0</ele><time>2026-04-07T14:27:18.881Z</time></trkpt><trkpt lat="45.7115383" lon="11.2873083"><ele>524.0</ele><time>2026-04-07T14:27:19.881Z</time></trkpt><trkpt lat="45.7116083" lon="11.28737"><ele>524.0</ele><time>2026-04-07T14:27:20.881Z</time></trkpt><trkpt lat="45.7116667" lon="11.2874317"><ele>524.0</ele><time>2026-04-07T14:27:21.881Z</time></trkpt><trkpt lat="45.7117617" lon="11.2875483"><ele>527.1666666666666</ele><time>2026-04-07T14:27:23.881Z</time></trkpt><trkpt lat="45.7118117" lon="11.28763"><ele>530.3333333333333</ele><time>2026-04-07T14:27:24.88Z</time></trkpt><trkpt lat="45.711875" lon="11.2877017"><ele>533.5</ele><time>2026-04-07T14:27:25.881Z</time></trkpt><trkpt lat="45.7119483" lon="11.2877617"><ele>536.6666666666666</ele><time>2026-04-07T14:27:26.88Z</time></trkpt><trkpt lat="45.7120283" lon="11.28779"><ele>539.8333333333334</ele><time>2026-04-07T14:27:27.881Z</time></trkpt><trkpt lat="45.7120967" lon="11.2877983"><ele>543.0</ele><time>2026-04-07T14:27:28.881Z</time></trkpt><trkpt lat="45.7121667" lon="11.2877917"><ele>543.0</ele><time>2026-04-07T14:27:29.881Z</time></trkpt><trkpt lat="45.712235" lon="11.2877833"><ele>543.0</ele><time>2026-04-07T14:27:30.881Z</time></trkpt><trkpt lat="45.7123117" lon="11.2878017"><ele>543.0</ele><time>2026-04-07T14:27:31.88Z</time></trkpt><trkpt lat="45.7123783" lon="11.2878367"><ele>543.0</ele><time>2026-04-07T14:27:32.88Z</time></trkpt><trkpt lat="45.7124333" lon="11.2878983"><ele>543.0</ele><time>2026-04-07T14:27:33.881Z</time></trkpt><trkpt lat="45.7124917" lon="11.2879717"><ele>543.0</ele><time>2026-04-07T14:27:34.88Z</time></trkpt><trkpt lat="45.7125717" lon="11.2880533"><ele>541.0</ele><time>2026-04-07T14:27:35.88Z</time></trkpt><trkpt lat="45.7126583" lon="11.2881267"><ele>539.0</ele><time>2026-04-07T14:27:36.88Z</time></trkpt><trkpt lat="45.7127217" lon="11.2882017"><ele>537.0</ele><time>2026-04-07T14:27:37.881Z</time></trkpt><trkpt lat="45.7127883" lon="11.2882567"><ele>535.0</ele><time>2026-04-07T14:27:38.881Z</time></trkpt><trkpt lat="45.7128383" lon="11.288325"><ele>533.0</ele><time>2026-04-07T14:27:39.881Z</time></trkpt><trkpt lat="45.7128733" lon="11.2884517"><ele>531.0</ele><time>2026-04-07T14:27:41.881Z</time></trkpt><trkpt lat="45.712815" lon="11.2886217"><ele>531.0</ele><time>2026-04-07T14:27:43.881Z</time></trkpt><trkpt lat="45.7127817" lon="11.2887467"><ele>531.0</ele><time>2026-04-07T14:27:44.881Z</time></trkpt><trkpt lat="45.71276" lon="11.2888917"><ele>531.0</ele><time>2026-04-07T14:27:45.88Z</time></trkpt><trkpt lat="45.7127483" lon="11.2890567"><ele>531.0</ele><time>2026-04-07T14:27:46.881Z</time></trkpt><trkpt lat="45.7127483" lon="11.2892283"><ele>531.0</ele><time>2026-04-07T14:27:47.881Z</time></trkpt><trkpt lat="45.71275" lon="11.2894017"><ele>529.2</ele><time>2026-04-07T14:27:48.88Z</time></trkpt><trkpt lat="45.71274" lon="11.2895617"><ele>527.4000000000001</ele><time>2026-04-07T14:27:49.881Z</time></trkpt><trkpt lat="45.7127317" lon="11.2897217"><ele>525.6</ele><time>2026-04-07T14:27:50.88Z</time></trkpt><trkpt lat="45.71273" lon="11.2898483"><ele>523.8000000000001</ele><time>2026-04-07T14:27:51.881Z</time></trkpt><trkpt lat="45.7127283" lon="11.28996"><ele>522.0</ele><time>2026-04-07T14:27:52.881Z</time></trkpt><trkpt lat="45.7127317" lon="11.290075"><ele>530.8333333333334</ele><time>2026-04-07T14:27:53.881Z</time></trkpt><trkpt lat="45.7127283" lon="11.2901667"><ele>539.6666666666666</ele><time>2026-04-07T14:27:54.881Z</time></trkpt><trkpt lat="45.7127367" lon="11.2903467"><ele>548.5</ele><time>2026-04-07T14:27:56.881Z</time></trkpt><trkpt lat="45.71273" lon="11.29044"><ele>557.3333333333333</ele><time>2026-04-07T14:27:57.881Z</time></trkpt><trkpt lat="45.7127133" lon="11.2905467"><ele>566.1666666666666</ele><time>2026-04-07T14:27:58.881Z</time></trkpt><trkpt lat="45.7126967" lon="11.2906583"><ele>575.0</ele><time>2026-04-07T14:27:59.881Z</time></trkpt><trkpt lat="45.7126867" lon="11.290775"><ele>575.0</ele><time>2026-04-07T14:28:00.881Z</time></trkpt><trkpt lat="45.7126683" lon="11.290895"><ele>575.0</ele><time>2026-04-07T14:28:01.881Z</time></trkpt><trkpt lat="45.7126533" lon="11.2910133"><ele>575.0</ele><time>2026-04-07T14:28:02.881Z</time></trkpt><trkpt lat="45.7126367" lon="11.2911267"><ele>575.0</ele><time>2026-04-07T14:28:03.881Z</time></trkpt><trkpt lat="45.71261" lon="11.291295"><ele>575.0</ele><time>2026-04-07T14:28:05.881Z</time></trkpt><trkpt lat="45.7126133" lon="11.29147"><ele>575.0</ele><time>2026-04-07T14:28:07.88Z</time></trkpt><trkpt lat="45.712625" lon="11.2915917"><ele>575.0</ele><time>2026-04-07T14:28:08.881Z</time></trkpt><trkpt lat="45.7126367" lon="11.29173"><ele>575.0</ele><time>2026-04-07T14:28:09.88Z</time></trkpt><trkpt lat="45.71265" lon="11.2918783"><ele>575.0</ele><time>2026-04-07T14:28:10.881Z</time></trkpt><trkpt lat="45.7126717" lon="11.29198"><ele>575.0</ele><time>2026-04-07T14:28:11.88Z</time></trkpt><trkpt lat="45.7126833" lon="11.2920733"><ele>575.0</ele><time>2026-04-07T14:28:12.881Z</time></trkpt><trkpt lat="45.7126667" lon="11.2922267"><ele>573.8333333333333</ele><time>2026-04-07T14:28:14.881Z</time></trkpt><trkpt lat="45.7126283" lon="11.29238"><ele>572.6666666666666</ele><time>2026-04-07T14:28:16.88Z</time></trkpt><trkpt lat="45.712645" lon="11.2925333"><ele>571.5</ele><time>2026-04-07T14:28:18.88Z</time></trkpt><trkpt lat="45.71268" lon="11.2926217"><ele>570.3333333333334</ele><time>2026-04-07T14:28:19.881Z</time></trkpt><trkpt lat="45.7127267" lon="11.2927117"><ele>569.1666666666667</ele><time>2026-04-07T14:28:20.881Z</time></trkpt><trkpt lat="45.712765" lon="11.2927967"><ele>568.0</ele><time>2026-04-07T14:28:21.881Z</time></trkpt><trkpt lat="45.7127867" lon="11.292895"><ele>559.8</ele><time>2026-04-07T14:28:22.88Z</time></trkpt><trkpt lat="45.7128083" lon="11.292985"><ele>551.5999999999999</ele><time>2026-04-07T14:28:23.881Z</time></trkpt><trkpt lat="45.71282" lon="11.2931"><ele>543.4000000000001</ele><time>2026-04-07T14:28:24.881Z</time></trkpt><trkpt lat="45.7128417" lon="11.2932383"><ele>535.2</ele><time>2026-04-07T14:28:25.88Z</time></trkpt><trkpt lat="45.7128867" lon="11.2933933"><ele>527.0</ele><time>2026-04-07T14:28:26.881Z</time></trkpt><trkpt lat="45.71294" lon="11.29355"><ele>527.0</ele><time>2026-04-07T14:28:27.881Z</time></trkpt><trkpt lat="45.7129867" lon="11.2936683"><ele>527.0</ele><time>2026-04-07T14:28:28.881Z</time></trkpt><trkpt lat="45.7130267" lon="11.2937767"><ele>527.0</ele><time>2026-04-07T14:28:29.881Z</time></trkpt><trkpt lat="45.7130617" lon="11.29388"><ele>527.0</ele><time>2026-04-07T14:28:30.881Z</time></trkpt><trkpt lat="45.71308" lon="11.29397"><ele>527.0</ele><time>2026-04-07T14:28:31.881Z</time></trkpt><trkpt lat="45.7130717" lon="11.2940633"><ele>527.0</ele><time>2026-04-07T14:28:32.881Z</time></trkpt><trkpt lat="45.713045" lon="11.2941483"><ele>527.4</ele><time>2026-04-07T14:28:33.881Z</time></trkpt><trkpt lat="45.7129983" lon="11.2942517"><ele>527.8000000000001</ele><time>2026-04-07T14:28:34.881Z</time></trkpt><trkpt lat="45.7129333" lon="11.2943667"><ele>528.2</ele><time>2026-04-07T14:28:35.88Z</time></trkpt><trkpt lat="45.7128533" lon="11.2944817"><ele>528.6</ele><time>2026-04-07T14:28:36.881Z</time></trkpt><trkpt lat="45.7127833" lon="11.29459"><ele>529.0</ele><time>2026-04-07T14:28:37.88Z</time></trkpt><trkpt lat="45.7127317" lon="11.2947"><ele>533.5</ele><time>2026-04-07T14:28:38.88Z</time></trkpt><trkpt lat="45.7126883" lon="11.2948117"><ele>538.0</ele><time>2026-04-07T14:28:39.881Z</time></trkpt><trkpt lat="45.7126633" lon="11.2949333"><ele>542.5</ele><time>2026-04-07T14:28:40.881Z</time></trkpt><trkpt lat="45.7126533" lon="11.2950517"><ele>547.0</ele><time>2026-04-07T14:28:41.881Z</time></trkpt><trkpt lat="45.71264" lon="11.295185"><ele>551.5</ele><time>2026-04-07T14:28:42.881Z</time></trkpt><trkpt lat="45.7126367" lon="11.29532"><ele>556.0</ele><time>2026-04-07T14:28:43.881Z</time></trkpt><trkpt lat="45.71264" lon="11.2954883"><ele>552.25</ele><time>2026-04-07T14:28:44.881Z</time></trkpt><trkpt lat="45.7126517" lon="11.2956567"><ele>548.5</ele><time>2026-04-07T14:28:45.88Z</time></trkpt><trkpt lat="45.7126533" lon="11.2958383"><ele>544.75</ele><time>2026-04-07T14:28:46.88Z</time></trkpt><trkpt lat="45.7126517" lon="11.2960167"><ele>541.0</ele><time>2026-04-07T14:28:47.88Z</time></trkpt><trkpt lat="45.7126733" lon="11.29617"><ele>541.0</ele><time>2026-04-07T14:28:48.88Z</time></trkpt><trkpt lat="45.712695" lon="11.2963083"><ele>541.0</ele><time>2026-04-07T14:28:49.88Z</time></trkpt><trkpt lat="45.712715" lon="11.2964317"><ele>541.0</ele><time>2026-04-07T14:28:50.88Z</time></trkpt><trkpt lat="45.712735" lon="11.2965467"><ele>541.0</ele><time>2026-04-07T14:28:51.879Z</time></trkpt><trkpt lat="45.712755" lon="11.2966533"><ele>541.0</ele><time>2026-04-07T14:28:52.88Z</time></trkpt><trkpt lat="45.7127767" lon="11.296755"><ele>541.0</ele><time>2026-04-07T14:28:53.88Z</time></trkpt><trkpt lat="45.7127783" lon="11.2968767"><ele>539.3333333333334</ele><time>2026-04-07T14:28:55.88Z</time></trkpt><trkpt lat="45.7126833" lon="11.296915"><ele>537.6666666666667</ele><time>2026-04-07T14:28:58.88Z</time></trkpt><trkpt lat="45.7126217" lon="11.29689"><ele>536.0</ele><time>2026-04-07T14:28:59.879Z</time></trkpt><trkpt lat="45.71254" lon="11.2968617"><ele>534.3333333333334</ele><time>2026-04-07T14:29:00.88Z</time></trkpt><trkpt lat="45.7124433" lon="11.2968317"><ele>532.6666666666666</ele><time>2026-04-07T14:29:01.88Z</time></trkpt><trkpt lat="45.7123667" lon="11.296835"><ele>531.0</ele><time>2026-04-07T14:29:02.88Z</time></trkpt><trkpt lat="45.71228" lon="11.2968733"><ele>531.0</ele><time>2026-04-07T14:29:03.879Z</time></trkpt><trkpt lat="45.7121967" lon="11.2969033"><ele>531.0</ele><time>2026-04-07T14:29:04.879Z</time></trkpt><trkpt lat="45.7121317" lon="11.2969517"><ele>531.0</ele><time>2026-04-07T14:29:05.88Z</time></trkpt><trkpt lat="45.7120333" lon="11.29703"><ele>531.0</ele><time>2026-04-07T14:29:07.88Z</time></trkpt><trkpt lat="45.711975" lon="11.297065"><ele>531.0</ele><time>2026-04-07T14:29:09.88Z</time></trkpt><trkpt lat="45.7119083" lon="11.2971017"><ele>531.0</ele><time>2026-04-07T14:29:12.879Z</time></trkpt><trkpt lat="45.71182" lon="11.2971383"><ele>533.0</ele><time>2026-04-07T14:29:14.88Z</time></trkpt><trkpt lat="45.7117217" lon="11.2972083"><ele>535.0</ele><time>2026-04-07T14:29:16.88Z</time></trkpt><trkpt lat="45.7116567" lon="11.297235"><ele>537.0</ele><time>2026-04-07T14:29:17.88Z</time></trkpt><trkpt lat="45.711575" lon="11.2972417"><ele>539.0</ele><time>2026-04-07T14:29:18.879Z</time></trkpt><trkpt lat="45.7114967" lon="11.29724"><ele>541.0</ele><time>2026-04-07T14:29:19.879Z</time></trkpt><trkpt lat="45.711415" lon="11.2972233"><ele>543.0</ele><time>2026-04-07T14:29:20.879Z</time></trkpt><trkpt lat="45.71134" lon="11.297205"><ele>543.0</ele><time>2026-04-07T14:29:21.879Z</time></trkpt><trkpt lat="45.7112633" lon="11.2972033"><ele>543.0</ele><time>2026-04-07T14:29:22.879Z</time></trkpt><trkpt lat="45.7111883" lon="11.2972067"><ele>543.0</ele><time>2026-04-07T14:29:23.879Z</time></trkpt><trkpt lat="45.7111233" lon="11.2971983"><ele>543.0</ele><time>2026-04-07T14:29:24.879Z</time></trkpt><trkpt lat="45.7110033" lon="11.2971633"><ele>543.0</ele><time>2026-04-07T14:29:26.88Z</time></trkpt><trkpt lat="45.7109433" lon="11.2971267"><ele>543.0</ele><time>2026-04-07T14:29:27.879Z</time></trkpt><trkpt lat="45.710885" lon="11.297085"><ele>541.1999999999999</ele><time>2026-04-07T14:29:28.88Z</time></trkpt><trkpt lat="45.7107783" lon="11.2970717"><ele>539.4</ele><time>2026-04-07T14:29:30.88Z</time></trkpt><trkpt lat="45.710695" lon="11.29712"><ele>537.5999999999999</ele><time>2026-04-07T14:29:32.88Z</time></trkpt><trkpt lat="45.7106867" lon="11.29721"><ele>535.8</ele><time>2026-04-07T14:29:36.88Z</time></trkpt><trkpt lat="45.7105883" lon="11.2971617"><ele>534.0</ele><time>2026-04-07T14:29:54.88Z</time></trkpt><trkpt lat="45.7104717" lon="11.2971"><ele>534.0</ele><time>2026-04-07T14:29:56.88Z</time></trkpt><trkpt lat="45.7104017" lon="11.2970617"><ele>534.0</ele><time>2026-04-07T14:29:57.88Z</time></trkpt><trkpt lat="45.7103283" lon="11.2970167"><ele>534.0</ele><time>2026-04-07T14:29:58.879Z</time></trkpt><trkpt lat="45.710265" lon="11.29698"><ele>534.0</ele><time>2026-04-07T14:29:59.88Z</time></trkpt><trkpt lat="45.7101417" lon="11.29695"><ele>534.0</ele><time>2026-04-07T14:30:01.88Z</time></trkpt><trkpt lat="45.7100633" lon="11.29695"><ele>534.0</ele><time>2026-04-07T14:30:02.88Z</time></trkpt><trkpt lat="45.7099767" lon="11.2969667"><ele>533.8</ele><time>2026-04-07T14:30:03.879Z</time></trkpt><trkpt lat="45.7098617" lon="11.29701"><ele>533.5999999999999</ele><time>2026-04-07T14:30:04.88Z</time></trkpt><trkpt lat="45.7097533" lon="11.29706"><ele>533.4</ele><time>2026-04-07T14:30:05.88Z</time></trkpt><trkpt lat="45.7096567" lon="11.2971067"><ele>533.1999999999999</ele><time>2026-04-07T14:30:06.88Z</time></trkpt><trkpt lat="45.709565" lon="11.2971583"><ele>533.0</ele><time>2026-04-07T14:30:07.88Z</time></trkpt><trkpt lat="45.7094917" lon="11.2972267"><ele>533.3333333333333</ele><time>2026-04-07T14:30:08.88Z</time></trkpt><trkpt lat="45.709435" lon="11.297295"><ele>533.6666666666666</ele><time>2026-04-07T14:30:09.88Z</time></trkpt><trkpt lat="45.7093733" lon="11.2973367"><ele>534.0</ele><time>2026-04-07T14:30:10.879Z</time></trkpt><trkpt lat="45.70931" lon="11.297345"><ele>534.3333333333334</ele><time>2026-04-07T14:30:11.88Z</time></trkpt><trkpt lat="45.7092483" lon="11.2973133"><ele>534.6666666666667</ele><time>2026-04-07T14:30:12.88Z</time></trkpt><trkpt lat="45.7091367" lon="11.2971917"><ele>535.0</ele><time>2026-04-07T14:30:14.88Z</time></trkpt><trkpt lat="45.7090733" lon="11.29716"><ele>535.0</ele><time>2026-04-07T14:30:15.88Z</time></trkpt><trkpt lat="45.709" lon="11.2971617"><ele>535.0</ele><time>2026-04-07T14:30:16.88Z</time></trkpt><trkpt lat="45.7089067" lon="11.2971767"><ele>535.0</ele><time>2026-04-07T14:30:17.88Z</time></trkpt><trkpt lat="45.7087883" lon="11.2972183"><ele>535.0</ele><time>2026-04-07T14:30:18.88Z</time></trkpt><trkpt lat="45.70865" lon="11.2972467"><ele>535.0</ele><time>2026-04-07T14:30:19.879Z</time></trkpt><trkpt lat="45.7085017" lon="11.2972683"><ele>521.0</ele><time>2026-04-07T14:30:20.88Z</time></trkpt><trkpt lat="45.708355" lon="11.2973017"><ele>507.0</ele><time>2026-04-07T14:30:21.88Z</time></trkpt><trkpt lat="45.7081883" lon="11.29736"><ele>493.0</ele><time>2026-04-07T14:30:22.879Z</time></trkpt><trkpt lat="45.7080233" lon="11.297435"><ele>493.0</ele><time>2026-04-07T14:30:23.88Z</time></trkpt><trkpt lat="45.70787" lon="11.2975217"><ele>493.0</ele><time>2026-04-07T14:30:24.88Z</time></trkpt><trkpt lat="45.7077267" lon="11.2975967"><ele>493.0</ele><time>2026-04-07T14:30:25.88Z</time></trkpt><trkpt lat="45.707595" lon="11.29766"><ele>494.2</ele><time>2026-04-07T14:30:26.879Z</time></trkpt><trkpt lat="45.7074783" lon="11.2977183"><ele>495.4</ele><time>2026-04-07T14:30:27.88Z</time></trkpt><trkpt lat="45.7073767" lon="11.29775"><ele>496.59999999999997</ele><time>2026-04-07T14:30:28.88Z</time></trkpt><trkpt lat="45.7072867" lon="11.2977533"><ele>497.79999999999995</ele><time>2026-04-07T14:30:29.879Z</time></trkpt><trkpt lat="45.70719" lon="11.29773"><ele>499.0</ele><time>2026-04-07T14:30:30.88Z</time></trkpt><trkpt lat="45.7070933" lon="11.2976817"><ele>499.00000000000006</ele><time>2026-04-07T14:30:31.88Z</time></trkpt><trkpt lat="45.7069967" lon="11.2976317"><ele>499.0</ele><time>2026-04-07T14:30:32.88Z</time></trkpt><trkpt lat="45.706905" lon="11.2976067"><ele>499.0</ele><time>2026-04-07T14:30:33.88Z</time></trkpt><trkpt lat="45.70681" lon="11.2976267"><ele>499.0</ele><time>2026-04-07T14:30:34.879Z</time></trkpt><trkpt lat="45.7067283" lon="11.2976633"><ele>499.00000000000006</ele><time>2026-04-07T14:30:35.88Z</time></trkpt><trkpt lat="45.706675" lon="11.2977267"><ele>499.0</ele><time>2026-04-07T14:30:36.88Z</time></trkpt><trkpt lat="45.70665" lon="11.2978283"><ele>500.25</ele><time>2026-04-07T14:30:37.88Z</time></trkpt><trkpt lat="45.7067" lon="11.2979033"><ele>501.5</ele><time>2026-04-07T14:30:39.88Z</time></trkpt><trkpt lat="45.706855" lon="11.29801"><ele>502.75</ele><time>2026-04-07T14:30:41.88Z</time></trkpt><trkpt lat="45.7069633" lon="11.29813"><ele>504.0</ele><time>2026-04-07T14:30:42.879Z</time></trkpt><trkpt lat="45.7070583" lon="11.2982583"><ele>497.4</ele><time>2026-04-07T14:30:43.879Z</time></trkpt><trkpt lat="45.707145" lon="11.298365"><ele>490.79999999999995</ele><time>2026-04-07T14:30:44.88Z</time></trkpt><trkpt lat="45.7072133" lon="11.2984433"><ele>484.20000000000005</ele><time>2026-04-07T14:30:45.88Z</time></trkpt><trkpt lat="45.7072333" lon="11.298575"><ele>477.6</ele><time>2026-04-07T14:30:47.879Z</time></trkpt><trkpt lat="45.7071517" lon="11.2986667"><ele>471.0</ele><time>2026-04-07T14:30:49.88Z</time></trkpt><trkpt lat="45.7070767" lon="11.2986783"><ele>471.0</ele><time>2026-04-07T14:30:50.88Z</time></trkpt><trkpt lat="45.70697" lon="11.298675"><ele>471.0</ele><time>2026-04-07T14:30:51.88Z</time></trkpt><trkpt lat="45.70688" lon="11.2986667"><ele>471.0</ele><time>2026-04-07T14:30:52.88Z</time></trkpt><trkpt lat="45.7068167" lon="11.29866"><ele>471.0</ele><time>2026-04-07T14:30:53.879Z</time></trkpt><trkpt lat="45.7066867" lon="11.2986583"><ele>471.0</ele><time>2026-04-07T14:31:06.879Z</time></trkpt><trkpt lat="45.70676" lon="11.2986417"><ele>471.0</ele><time>2026-04-07T14:31:31.879Z</time></trkpt><trkpt lat="45.7068733" lon="11.298665"><ele>471.0</ele><time>2026-04-07T14:31:33.88Z</time></trkpt><trkpt lat="45.7069917" lon="11.2986717"><ele>471.0</ele><time>2026-04-07T14:31:35.879Z</time></trkpt><trkpt lat="45.7070667" lon="11.298665"><ele>471.0</ele><time>2026-04-07T14:31:37.879Z</time></trkpt><trkpt lat="45.7070883" lon="11.2985733"><ele>471.0</ele><time>2026-04-07T14:31:40.88Z</time></trkpt><trkpt lat="45.7069917" lon="11.2985233"><ele>471.0</ele><time>2026-04-07T14:31:42.879Z</time></trkpt><trkpt lat="45.70692" lon="11.2984883"><ele>471.0</ele><time>2026-04-07T14:31:43.88Z</time></trkpt><trkpt lat="45.7068533" lon="11.2984483"><ele>471.0</ele><time>2026-04-07T14:31:44.879Z</time></trkpt><trkpt lat="45.7067983" lon="11.2983983"><ele>471.0</ele><time>2026-04-07T14:31:45.879Z</time></trkpt><trkpt lat="45.706715" lon="11.2983117"><ele>471.0</ele><time>2026-04-07T14:31:47.879Z</time></trkpt><trkpt lat="45.706635" lon="11.2982283"><ele>471.0</ele><time>2026-04-07T14:31:49.879Z</time></trkpt><trkpt lat="45.70655" lon="11.298185"><ele>471.6</ele><time>2026-04-07T14:31:51.878Z</time></trkpt><trkpt lat="45.706455" lon="11.2982033"><ele>472.20000000000005</ele><time>2026-04-07T14:31:53.879Z</time></trkpt><trkpt lat="45.70635" lon="11.2982783"><ele>472.79999999999995</ele><time>2026-04-07T14:31:55.878Z</time></trkpt><trkpt lat="45.7062967" lon="11.298335"><ele>473.4</ele><time>2026-04-07T14:31:56.879Z</time></trkpt><trkpt lat="45.7062117" lon="11.2984183"><ele>474.0</ele><time>2026-04-07T14:31:58.879Z</time></trkpt><trkpt lat="45.7061417" lon="11.2984917"><ele>479.79999999999995</ele><time>2026-04-07T14:32:00.878Z</time></trkpt><trkpt lat="45.7060533" lon="11.2985533"><ele>485.59999999999997</ele><time>2026-04-07T14:32:02.879Z</time></trkpt><trkpt lat="45.70598" lon="11.2985783"><ele>491.4</ele><time>2026-04-07T14:32:03.879Z</time></trkpt><trkpt lat="45.7058933" lon="11.2986267"><ele>497.2</ele><time>2026-04-07T14:32:04.879Z</time></trkpt><trkpt lat="45.705805" lon="11.298685"><ele>503.0</ele><time>2026-04-07T14:32:05.879Z</time></trkpt><trkpt lat="45.7057233" lon="11.29875"><ele>502.99999999999994</ele><time>2026-04-07T14:32:06.878Z</time></trkpt><trkpt lat="45.7056567" lon="11.298795"><ele>503.0</ele><time>2026-04-07T14:32:07.879Z</time></trkpt><trkpt lat="45.7055917" lon="11.2988383"><ele>503.0</ele><time>2026-04-07T14:32:08.878Z</time></trkpt><trkpt lat="45.7054783" lon="11.298905"><ele>503.0</ele><time>2026-04-07T14:32:10.879Z</time></trkpt><trkpt lat="45.7054183" lon="11.2989383"><ele>502.99999999999994</ele><time>2026-04-07T14:32:11.878Z</time></trkpt><trkpt lat="45.7053567" lon="11.2989683"><ele>503.0</ele><time>2026-04-07T14:32:12.878Z</time></trkpt><trkpt lat="45.7052883" lon="11.2989983"><ele>498.8333333333333</ele><time>2026-04-07T14:32:13.879Z</time></trkpt><trkpt lat="45.7052217" lon="11.2990183"><ele>494.66666666666663</ele><time>2026-04-07T14:32:14.879Z</time></trkpt><trkpt lat="45.70515" lon="11.299045"><ele>490.5</ele><time>2026-04-07T14:32:15.879Z</time></trkpt><trkpt lat="45.7050717" lon="11.29907"><ele>486.33333333333337</ele><time>2026-04-07T14:32:16.878Z</time></trkpt><trkpt lat="45.7049917" lon="11.2990983"><ele>482.1666666666667</ele><time>2026-04-07T14:32:17.878Z</time></trkpt><trkpt lat="45.7049233" lon="11.2991367"><ele>478.0</ele><time>2026-04-07T14:32:18.879Z</time></trkpt><trkpt lat="45.704845" lon="11.2991633"><ele>478.00000000000006</ele><time>2026-04-07T14:32:19.879Z</time></trkpt><trkpt lat="45.7047667" lon="11.2992167"><ele>478.0</ele><time>2026-04-07T14:32:20.878Z</time></trkpt><trkpt lat="45.7046833" lon="11.2992567"><ele>478.0</ele><time>2026-04-07T14:32:21.878Z</time></trkpt><trkpt lat="45.7046067" lon="11.2992783"><ele>478.0</ele><time>2026-04-07T14:32:22.879Z</time></trkpt><trkpt lat="45.7045367" lon="11.2992817"><ele>478.00000000000006</ele><time>2026-04-07T14:32:23.879Z</time></trkpt><trkpt lat="45.7044683" lon="11.299295"><ele>478.0</ele><time>2026-04-07T14:32:24.878Z</time></trkpt><trkpt lat="45.7044" lon="11.299285"><ele>478.00000000000006</ele><time>2026-04-07T14:32:25.879Z</time></trkpt><trkpt lat="45.70432" lon="11.299295"><ele>478.0</ele><time>2026-04-07T14:32:26.878Z</time></trkpt><trkpt lat="45.7042317" lon="11.2993083"><ele>478.00000000000006</ele><time>2026-04-07T14:32:27.878Z</time></trkpt><trkpt lat="45.704155" lon="11.29931"><ele>478.00000000000006</ele><time>2026-04-07T14:32:28.878Z</time></trkpt><trkpt lat="45.7040883" lon="11.299325"><ele>478.0</ele><time>2026-04-07T14:32:29.879Z</time></trkpt><trkpt lat="45.7040233" lon="11.299335"><ele>478.00000000000006</ele><time>2026-04-07T14:32:30.879Z</time></trkpt><trkpt lat="45.7039567" lon="11.29936"><ele>478.00000000000006</ele><time>2026-04-07T14:32:31.879Z</time></trkpt><trkpt lat="45.7038467" lon="11.2993767"><ele>478.00000000000006</ele><time>2026-04-07T14:32:33.879Z</time></trkpt><trkpt lat="45.703765" lon="11.2993683"><ele>478.0</ele><time>2026-04-07T14:32:35.878Z</time></trkpt><trkpt lat="45.7036833" lon="11.29934"><ele>478.0</ele><time>2026-04-07T14:32:37.878Z</time></trkpt><trkpt lat="45.7035783" lon="11.2993117"><ele>478.0</ele><time>2026-04-07T14:32:39.879Z</time></trkpt><trkpt lat="45.70349" lon="11.2992833"><ele>478.00000000000006</ele><time>2026-04-07T14:32:41.879Z</time></trkpt><trkpt lat="45.7034433" lon="11.2991967"><ele>478.0</ele><time>2026-04-07T14:32:43.878Z</time></trkpt><trkpt lat="45.7033883" lon="11.2990983"><ele>475.00000000000006</ele><time>2026-04-07T14:32:45.879Z</time></trkpt><trkpt lat="45.7033083" lon="11.299025"><ele>472.0</ele><time>2026-04-07T14:32:47.879Z</time></trkpt><trkpt lat="45.7032467" lon="11.29897"><ele>469.0</ele><time>2026-04-07T14:32:49.879Z</time></trkpt><trkpt lat="45.7031817" lon="11.2989417"><ele>466.0</ele><time>2026-04-07T14:32:52.878Z</time></trkpt><trkpt lat="45.7031617" lon="11.2990533"><ele>463.00000000000006</ele><time>2026-04-07T14:32:56.879Z</time></trkpt><trkpt lat="45.70317" lon="11.2992317"><ele>460.0</ele><time>2026-04-07T14:32:58.879Z</time></trkpt><trkpt lat="45.7031717" lon="11.2993267"><ele>460.00000000000006</ele><time>2026-04-07T14:32:59.879Z</time></trkpt><trkpt lat="45.7031683" lon="11.2994267"><ele>460.0</ele><time>2026-04-07T14:33:00.878Z</time></trkpt><trkpt lat="45.70315" lon="11.2995883"><ele>460.0</ele><time>2026-04-07T14:33:02.879Z</time></trkpt><trkpt lat="45.70315" lon="11.2997267"><ele>460.0</ele><time>2026-04-07T14:33:04.878Z</time></trkpt><trkpt lat="45.7031533" lon="11.2998233"><ele>460.00000000000006</ele><time>2026-04-07T14:33:06.878Z</time></trkpt><trkpt lat="45.703095" lon="11.2997667"><ele>460.0</ele><time>2026-04-07T14:33:14.879Z</time></trkpt><trkpt lat="45.7030867" lon="11.2996617"><ele>460.0</ele><time>2026-04-07T14:33:53.878Z</time></trkpt><trkpt lat="45.7031" lon="11.29949"><ele>460.0</ele><time>2026-04-07T14:33:55.879Z</time></trkpt><trkpt lat="45.7030933" lon="11.29937"><ele>460.0</ele><time>2026-04-07T14:33:56.879Z</time></trkpt><trkpt lat="45.7030633" lon="11.29925"><ele>460.0</ele><time>2026-04-07T14:33:57.879Z</time></trkpt><trkpt lat="45.703025" lon="11.29915"><ele>460.0</ele><time>2026-04-07T14:33:58.878Z</time></trkpt><trkpt lat="45.7029717" lon="11.2990467"><ele>460.00000000000006</ele><time>2026-04-07T14:33:59.878Z</time></trkpt><trkpt lat="45.7029183" lon="11.298955"><ele>460.0</ele><time>2026-04-07T14:34:00.878Z</time></trkpt><trkpt lat="45.702875" lon="11.2988633"><ele>460.0</ele><time>2026-04-07T14:34:01.879Z</time></trkpt><trkpt lat="45.702835" lon="11.29877"><ele>460.0</ele><time>2026-04-07T14:34:02.879Z</time></trkpt><trkpt lat="45.70281" lon="11.2986683"><ele>460.00000000000006</ele><time>2026-04-07T14:34:03.879Z</time></trkpt><trkpt lat="45.7027883" lon="11.2985733"><ele>460.0</ele><time>2026-04-07T14:34:04.879Z</time></trkpt><trkpt lat="45.7027633" lon="11.298385"><ele>460.0</ele><time>2026-04-07T14:34:06.879Z</time></trkpt><trkpt lat="45.7027483" lon="11.29828"><ele>460.0</ele><time>2026-04-07T14:34:07.878Z</time></trkpt><trkpt lat="45.7027183" lon="11.2981983"><ele>460.0</ele><time>2026-04-07T14:34:08.879Z</time></trkpt><trkpt lat="45.7026467" lon="11.2981017"><ele>460.0</ele><time>2026-04-07T14:34:10.878Z</time></trkpt><trkpt lat="45.7025533" lon="11.298015"><ele>460.0</ele><time>2026-04-07T14:34:12.879Z</time></trkpt><trkpt lat="45.702475" lon="11.2978783"><ele>460.0</ele><time>2026-04-07T14:34:14.879Z</time></trkpt><trkpt lat="45.7024267" lon="11.2977867"><ele>460.0</ele><time>2026-04-07T14:34:15.879Z</time></trkpt><trkpt lat="45.7023733" lon="11.2976983"><ele>460.0</ele><time>2026-04-07T14:34:16.879Z</time></trkpt><trkpt lat="45.7023217" lon="11.29762"><ele>460.0</ele><time>2026-04-07T14:34:17.879Z</time></trkpt><trkpt lat="45.7022283" lon="11.2974933"><ele>460.0</ele><time>2026-04-07T14:34:19.879Z</time></trkpt><trkpt lat="45.7021583" lon="11.2973533"><ele>460.00000000000006</ele><time>2026-04-07T14:34:21.879Z</time></trkpt><trkpt lat="45.7021317" lon="11.297265"><ele>460.0</ele><time>2026-04-07T14:34:22.879Z</time></trkpt><trkpt lat="45.702095" lon="11.2971717"><ele>460.0</ele><time>2026-04-07T14:34:23.878Z</time></trkpt><trkpt lat="45.7020567" lon="11.29709"><ele>460.0</ele><time>2026-04-07T14:34:24.878Z</time></trkpt><trkpt lat="45.7020283" lon="11.2969367"><ele>460.00000000000006</ele><time>2026-04-07T14:34:26.879Z</time></trkpt><trkpt lat="45.7020467" lon="11.2968483"><ele>460.0</ele><time>2026-04-07T14:34:27.878Z</time></trkpt><trkpt lat="45.702075" lon="11.2967533"><ele>460.1666666666667</ele><time>2026-04-07T14:34:28.878Z</time></trkpt><trkpt lat="45.702115" lon="11.2966383"><ele>460.33333333333337</ele><time>2026-04-07T14:34:29.878Z</time></trkpt><trkpt lat="45.7021367" lon="11.2965533"><ele>460.5</ele><time>2026-04-07T14:34:30.879Z</time></trkpt><trkpt lat="45.70214" lon="11.29643"><ele>460.66666666666663</ele><time>2026-04-07T14:34:32.878Z</time></trkpt><trkpt lat="45.7020717" lon="11.296415"><ele>460.8333333333333</ele><time>2026-04-07T14:34:34.879Z</time></trkpt><trkpt lat="45.701935" lon="11.29645"><ele>461.0</ele><time>2026-04-07T14:34:36.878Z</time></trkpt><trkpt lat="45.7018583" lon="11.29646"><ele>460.99999999999994</ele><time>2026-04-07T14:34:37.878Z</time></trkpt><trkpt lat="45.701785" lon="11.2964667"><ele>461.0</ele><time>2026-04-07T14:34:38.879Z</time></trkpt><trkpt lat="45.7017233" lon="11.2964967"><ele>461.0</ele><time>2026-04-07T14:34:39.879Z</time></trkpt><trkpt lat="45.7016667" lon="11.2965533"><ele>461.0</ele><time>2026-04-07T14:34:40.879Z</time></trkpt><trkpt lat="45.7016033" lon="11.29661"><ele>460.99999999999994</ele><time>2026-04-07T14:34:41.879Z</time></trkpt><trkpt lat="45.7015483" lon="11.2966583"><ele>461.0</ele><time>2026-04-07T14:34:42.878Z</time></trkpt><trkpt lat="45.701475" lon="11.29678"><ele>461.0</ele><time>2026-04-07T14:34:44.879Z</time></trkpt><trkpt lat="45.7014283" lon="11.2969317"><ele>461.0</ele><time>2026-04-07T14:34:46.879Z</time></trkpt><trkpt lat="45.701395" lon="11.297015"><ele>461.0</ele><time>2026-04-07T14:34:47.879Z</time></trkpt><trkpt lat="45.7013333" lon="11.297175"><ele>461.0</ele><time>2026-04-07T14:34:49.879Z</time></trkpt><trkpt lat="45.701255" lon="11.2973033"><ele>461.0</ele><time>2026-04-07T14:34:51.878Z</time></trkpt><trkpt lat="45.7011683" lon="11.297385"><ele>462.49999999999994</ele><time>2026-04-07T14:34:53.878Z</time></trkpt><trkpt lat="45.7010833" lon="11.2973867"><ele>464.0</ele><time>2026-04-07T14:34:55.878Z</time></trkpt><trkpt lat="45.70102" lon="11.2973783"><ele>465.5</ele><time>2026-04-07T14:34:56.878Z</time></trkpt><trkpt lat="45.700945" lon="11.29738"><ele>467.0</ele><time>2026-04-07T14:34:57.878Z</time></trkpt><trkpt lat="45.7008633" lon="11.2973967"><ele>468.49999999999994</ele><time>2026-04-07T14:34:58.878Z</time></trkpt><trkpt lat="45.70079" lon="11.297405"><ele>470.0</ele><time>2026-04-07T14:34:59.878Z</time></trkpt><trkpt lat="45.7007217" lon="11.297435"><ele>469.99999999999994</ele><time>2026-04-07T14:35:00.878Z</time></trkpt><trkpt lat="45.70065" lon="11.297475"><ele>470.0</ele><time>2026-04-07T14:35:01.877Z</time></trkpt><trkpt lat="45.70059" lon="11.2975367"><ele>470.0</ele><time>2026-04-07T14:35:02.878Z</time></trkpt><trkpt lat="45.7005333" lon="11.2976333"><ele>470.0</ele><time>2026-04-07T14:35:03.877Z</time></trkpt><trkpt lat="45.7004883" lon="11.2977567"><ele>469.99999999999994</ele><time>2026-04-07T14:35:04.877Z</time></trkpt><trkpt lat="45.700455" lon="11.2978983"><ele>470.0</ele><time>2026-04-07T14:35:05.877Z</time></trkpt><trkpt lat="45.7004183" lon="11.2980167"><ele>466.66666666666663</ele><time>2026-04-07T14:35:06.877Z</time></trkpt><trkpt lat="45.7003817" lon="11.298125"><ele>463.3333333333333</ele><time>2026-04-07T14:35:07.878Z</time></trkpt><trkpt lat="45.7003567" lon="11.2982583"><ele>460.0</ele><time>2026-04-07T14:35:08.878Z</time></trkpt><trkpt lat="45.7003517" lon="11.298385"><ele>456.66666666666663</ele><time>2026-04-07T14:35:09.877Z</time></trkpt><trkpt lat="45.7003433" lon="11.2985267"><ele>453.3333333333333</ele><time>2026-04-07T14:35:10.877Z</time></trkpt><trkpt lat="45.7003383" lon="11.298635"><ele>450.0</ele><time>2026-04-07T14:35:11.877Z</time></trkpt><trkpt lat="45.7003183" lon="11.298785"><ele>450.0</ele><time>2026-04-07T14:35:13.878Z</time></trkpt><trkpt lat="45.7002817" lon="11.2988633"><ele>450.0</ele><time>2026-04-07T14:35:15.878Z</time></trkpt><trkpt lat="45.7002" lon="11.298865"><ele>450.0</ele><time>2026-04-07T14:35:17.878Z</time></trkpt><trkpt lat="45.700085" lon="11.2988283"><ele>450.0</ele><time>2026-04-07T14:35:19.877Z</time></trkpt><trkpt lat="45.7000267" lon="11.298785"><ele>450.0</ele><time>2026-04-07T14:35:20.878Z</time></trkpt><trkpt lat="45.69993" lon="11.2987033"><ele>450.0</ele><time>2026-04-07T14:35:22.877Z</time></trkpt><trkpt lat="45.6998767" lon="11.2986483"><ele>453.0</ele><time>2026-04-07T14:35:23.878Z</time></trkpt><trkpt lat="45.6998167" lon="11.2985917"><ele>456.0</ele><time>2026-04-07T14:35:24.878Z</time></trkpt><trkpt lat="45.6997483" lon="11.2985567"><ele>459.0</ele><time>2026-04-07T14:35:25.878Z</time></trkpt><trkpt lat="45.69967" lon="11.2985033"><ele>462.0</ele><time>2026-04-07T14:35:27.878Z</time></trkpt><trkpt lat="45.6996167" lon="11.2983817"><ele>465.0</ele><time>2026-04-07T14:35:29.878Z</time></trkpt><trkpt lat="45.6995633" lon="11.2982617"><ele>468.0</ele><time>2026-04-07T14:35:31.878Z</time></trkpt><trkpt lat="45.6994717" lon="11.2982017"><ele>466.6666666666667</ele><time>2026-04-07T14:35:33.878Z</time></trkpt><trkpt lat="45.6993633" lon="11.2982633"><ele>465.33333333333337</ele><time>2026-04-07T14:35:35.877Z</time></trkpt><trkpt lat="45.6992917" lon="11.29833"><ele>464.0</ele><time>2026-04-07T14:35:36.877Z</time></trkpt><trkpt lat="45.699215" lon="11.2984"><ele>462.6666666666667</ele><time>2026-04-07T14:35:37.878Z</time></trkpt><trkpt lat="45.699145" lon="11.2984717"><ele>461.33333333333337</ele><time>2026-04-07T14:35:38.878Z</time></trkpt><trkpt lat="45.6990917" lon="11.2985217"><ele>460.0</ele><time>2026-04-07T14:35:39.877Z</time></trkpt><trkpt lat="45.6989983" lon="11.29853"><ele>460.0</ele><time>2026-04-07T14:35:41.878Z</time></trkpt><trkpt lat="45.6988983" lon="11.2984517"><ele>460.0</ele><time>2026-04-07T14:35:43.877Z</time></trkpt><trkpt lat="45.698825" lon="11.2983767"><ele>460.0</ele><time>2026-04-07T14:35:44.878Z</time></trkpt><trkpt lat="45.6987333" lon="11.298295"><ele>460.0</ele><time>2026-04-07T14:35:45.878Z</time></trkpt><trkpt lat="45.6986483" lon="11.2982317"><ele>460.0</ele><time>2026-04-07T14:35:46.878Z</time></trkpt><trkpt lat="45.6985633" lon="11.2981883"><ele>461.4</ele><time>2026-04-07T14:35:47.877Z</time></trkpt><trkpt lat="45.6984883" lon="11.2981467"><ele>462.8</ele><time>2026-04-07T14:35:48.877Z</time></trkpt><trkpt lat="45.6984267" lon="11.2981083"><ele>464.20000000000005</ele><time>2026-04-07T14:35:49.878Z</time></trkpt><trkpt lat="45.698335" lon="11.2980283"><ele>465.6</ele><time>2026-04-07T14:35:51.878Z</time></trkpt><trkpt lat="45.69825" lon="11.2979067"><ele>467.0</ele><time>2026-04-07T14:35:53.877Z</time></trkpt><trkpt lat="45.698195" lon="11.29783"><ele>467.0</ele><time>2026-04-07T14:35:54.877Z</time></trkpt><trkpt lat="45.6981417" lon="11.2977567"><ele>467.00000000000006</ele><time>2026-04-07T14:35:55.877Z</time></trkpt><trkpt lat="45.6980717" lon="11.2976433"><ele>467.00000000000006</ele><time>2026-04-07T14:35:57.878Z</time></trkpt><trkpt lat="45.6979883" lon="11.2975933"><ele>467.0</ele><time>2026-04-07T14:35:59.877Z</time></trkpt><trkpt lat="45.6979233" lon="11.2976417"><ele>467.0</ele><time>2026-04-07T14:36:01.877Z</time></trkpt><trkpt lat="45.6979083" lon="11.2978233"><ele>466.99999999999994</ele><time>2026-04-07T14:36:03.877Z</time></trkpt><trkpt lat="45.6979267" lon="11.2979433"><ele>467.0</ele><time>2026-04-07T14:36:04.878Z</time></trkpt><trkpt lat="45.697945" lon="11.2980667"><ele>467.0</ele><time>2026-04-07T14:36:05.877Z</time></trkpt><trkpt lat="45.6979667" lon="11.2981783"><ele>467.0</ele><time>2026-04-07T14:36:06.878Z</time></trkpt><trkpt lat="45.6980067" lon="11.2982883"><ele>466.99999999999994</ele><time>2026-04-07T14:36:07.878Z</time></trkpt><trkpt lat="45.69806" lon="11.2983983"><ele>467.0</ele><time>2026-04-07T14:36:08.877Z</time></trkpt><trkpt lat="45.6981083" lon="11.29849"><ele>462.66666666666663</ele><time>2026-04-07T14:36:09.878Z</time></trkpt><trkpt lat="45.69815" lon="11.2985817"><ele>458.3333333333333</ele><time>2026-04-07T14:36:10.878Z</time></trkpt><trkpt lat="45.6981983" lon="11.2986667"><ele>454.0</ele><time>2026-04-07T14:36:11.877Z</time></trkpt><trkpt lat="45.69825" lon="11.2987583"><ele>449.66666666666663</ele><time>2026-04-07T14:36:12.878Z</time></trkpt><trkpt lat="45.6983" lon="11.298865"><ele>445.3333333333333</ele><time>2026-04-07T14:36:13.878Z</time></trkpt><trkpt lat="45.698355" lon="11.2989633"><ele>441.0</ele><time>2026-04-07T14:36:14.878Z</time></trkpt><trkpt lat="45.69841" lon="11.299055"><ele>439.85714285714283</ele><time>2026-04-07T14:36:15.878Z</time></trkpt><trkpt lat="45.69846" lon="11.2991417"><ele>438.7142857142857</ele><time>2026-04-07T14:36:16.878Z</time></trkpt><trkpt lat="45.6985083" lon="11.2992233"><ele>437.57142857142856</ele><time>2026-04-07T14:36:17.878Z</time></trkpt><trkpt lat="45.6985433" lon="11.2993067"><ele>436.42857142857144</ele><time>2026-04-07T14:36:18.878Z</time></trkpt><trkpt lat="45.69858" lon="11.299395"><ele>435.2857142857143</ele><time>2026-04-07T14:36:19.878Z</time></trkpt><trkpt lat="45.6986117" lon="11.2994867"><ele>434.1428571428571</ele><time>2026-04-07T14:36:20.877Z</time></trkpt><trkpt lat="45.698645" lon="11.2995833"><ele>433.0</ele><time>2026-04-07T14:36:21.878Z</time></trkpt><trkpt lat="45.698665" lon="11.29969"><ele>429.1666666666667</ele><time>2026-04-07T14:36:22.877Z</time></trkpt><trkpt lat="45.6986833" lon="11.299795"><ele>425.33333333333337</ele><time>2026-04-07T14:36:23.877Z</time></trkpt><trkpt lat="45.6987067" lon="11.299935"><ele>421.5</ele><time>2026-04-07T14:36:24.878Z</time></trkpt><trkpt lat="45.6987267" lon="11.3000733"><ele>417.66666666666663</ele><time>2026-04-07T14:36:25.878Z</time></trkpt><trkpt lat="45.698745" lon="11.3001983"><ele>413.8333333333333</ele><time>2026-04-07T14:36:26.878Z</time></trkpt><trkpt lat="45.6987567" lon="11.3003183"><ele>410.0</ele><time>2026-04-07T14:36:27.878Z</time></trkpt><trkpt lat="45.69876" lon="11.300425"><ele>407.66666666666663</ele><time>2026-04-07T14:36:28.878Z</time></trkpt><trkpt lat="45.6987567" lon="11.30061"><ele>405.3333333333333</ele><time>2026-04-07T14:36:30.878Z</time></trkpt><trkpt lat="45.6987783" lon="11.3007"><ele>403.0</ele><time>2026-04-07T14:36:31.878Z</time></trkpt><trkpt lat="45.6988183" lon="11.3007883"><ele>400.66666666666663</ele><time>2026-04-07T14:36:32.878Z</time></trkpt><trkpt lat="45.6988683" lon="11.30087"><ele>398.3333333333333</ele><time>2026-04-07T14:36:33.878Z</time></trkpt><trkpt lat="45.6989283" lon="11.3009567"><ele>396.0</ele><time>2026-04-07T14:36:34.877Z</time></trkpt><trkpt lat="45.69898" lon="11.3010417"><ele>396.0</ele><time>2026-04-07T14:36:35.878Z</time></trkpt><trkpt lat="45.6990167" lon="11.301125"><ele>396.0</ele><time>2026-04-07T14:36:36.878Z</time></trkpt><trkpt lat="45.6990483" lon="11.3012033"><ele>396.0</ele><time>2026-04-07T14:36:37.878Z</time></trkpt><trkpt lat="45.6990717" lon="11.3013567"><ele>396.0</ele><time>2026-04-07T14:36:39.878Z</time></trkpt><trkpt lat="45.6991083" lon="11.3015067"><ele>396.0</ele><time>2026-04-07T14:36:41.878Z</time></trkpt><trkpt lat="45.6991767" lon="11.30163"><ele>395.6666666666667</ele><time>2026-04-07T14:36:43.878Z</time></trkpt><trkpt lat="45.6992817" lon="11.3017283"><ele>395.33333333333337</ele><time>2026-04-07T14:36:45.878Z</time></trkpt><trkpt lat="45.699335" lon="11.3017817"><ele>395.0</ele><time>2026-04-07T14:36:46.877Z</time></trkpt><trkpt lat="45.6993867" lon="11.3018467"><ele>394.6666666666667</ele><time>2026-04-07T14:36:47.877Z</time></trkpt><trkpt lat="45.6994417" lon="11.3019283"><ele>394.33333333333337</ele><time>2026-04-07T14:36:48.878Z</time></trkpt><trkpt lat="45.6994933" lon="11.3020333"><ele>394.0</ele><time>2026-04-07T14:36:49.877Z</time></trkpt><trkpt lat="45.699545" lon="11.30214"><ele>391.79999999999995</ele><time>2026-04-07T14:36:50.877Z</time></trkpt><trkpt lat="45.69959" lon="11.3022467"><ele>389.59999999999997</ele><time>2026-04-07T14:36:51.877Z</time></trkpt><trkpt lat="45.6996383" lon="11.3023433"><ele>387.4</ele><time>2026-04-07T14:36:52.877Z</time></trkpt><trkpt lat="45.6996917" lon="11.3024533"><ele>385.2</ele><time>2026-04-07T14:36:53.878Z</time></trkpt><trkpt lat="45.6997433" lon="11.3025517"><ele>383.0</ele><time>2026-04-07T14:36:54.878Z</time></trkpt><trkpt lat="45.6997967" lon="11.3026883"><ele>381.0</ele><time>2026-04-07T14:36:55.877Z</time></trkpt><trkpt lat="45.6998367" lon="11.3028283"><ele>379.0</ele><time>2026-04-07T14:36:56.878Z</time></trkpt><trkpt lat="45.699875" lon="11.3029667"><ele>377.0</ele><time>2026-04-07T14:36:57.878Z</time></trkpt><trkpt lat="45.69992" lon="11.3030883"><ele>375.0</ele><time>2026-04-07T14:36:58.878Z</time></trkpt><trkpt lat="45.6999633" lon="11.3032033"><ele>373.0</ele><time>2026-04-07T14:36:59.878Z</time></trkpt><trkpt lat="45.70002" lon="11.30332"><ele>371.79999999999995</ele><time>2026-04-07T14:37:00.878Z</time></trkpt><trkpt lat="45.7000717" lon="11.3034467"><ele>370.6</ele><time>2026-04-07T14:37:01.878Z</time></trkpt><trkpt lat="45.700135" lon="11.303545"><ele>369.4</ele><time>2026-04-07T14:37:02.878Z</time></trkpt><trkpt lat="45.7002117" lon="11.30364"><ele>368.20000000000005</ele><time>2026-04-07T14:37:03.878Z</time></trkpt><trkpt lat="45.70028" lon="11.3037433"><ele>367.0</ele><time>2026-04-07T14:37:04.878Z</time></trkpt><trkpt lat="45.7003333" lon="11.303865"><ele>363.20000000000005</ele><time>2026-04-07T14:37:05.878Z</time></trkpt><trkpt lat="45.700395" lon="11.303995"><ele>359.4</ele><time>2026-04-07T14:37:06.878Z</time></trkpt><trkpt lat="45.7004467" lon="11.3041167"><ele>355.6</ele><time>2026-04-07T14:37:07.878Z</time></trkpt><trkpt lat="45.7005067" lon="11.3042483"><ele>351.79999999999995</ele><time>2026-04-07T14:37:08.877Z</time></trkpt><trkpt lat="45.70056" lon="11.3043683"><ele>348.0</ele><time>2026-04-07T14:37:09.878Z</time></trkpt><trkpt lat="45.700625" lon="11.3044767"><ele>348.0</ele><time>2026-04-07T14:37:10.878Z</time></trkpt><trkpt lat="45.7006817" lon="11.3045733"><ele>348.0</ele><time>2026-04-07T14:37:11.878Z</time></trkpt><trkpt lat="45.7007333" lon="11.3046583"><ele>348.0</ele><time>2026-04-07T14:37:12.877Z</time></trkpt><trkpt lat="45.700795" lon="11.3047383"><ele>348.0</ele><time>2026-04-07T14:37:13.877Z</time></trkpt><trkpt lat="45.700865" lon="11.3048117"><ele>348.0</ele><time>2026-04-07T14:37:14.878Z</time></trkpt><trkpt lat="45.700925" lon="11.3048883"><ele>348.0</ele><time>2026-04-07T14:37:15.877Z</time></trkpt><trkpt lat="45.7009933" lon="11.3049583"><ele>347.8333333333333</ele><time>2026-04-07T14:37:16.878Z</time></trkpt><trkpt lat="45.7010633" lon="11.3050133"><ele>347.6666666666667</ele><time>2026-04-07T14:37:17.878Z</time></trkpt><trkpt lat="45.7011333" lon="11.3050617"><ele>347.5</ele><time>2026-04-07T14:37:18.878Z</time></trkpt><trkpt lat="45.7012033" lon="11.30511"><ele>347.33333333333337</ele><time>2026-04-07T14:37:19.877Z</time></trkpt><trkpt lat="45.7012633" lon="11.3051683"><ele>347.1666666666667</ele><time>2026-04-07T14:37:20.878Z</time></trkpt><trkpt lat="45.7013117" lon="11.3052517"><ele>347.0</ele><time>2026-04-07T14:37:21.877Z</time></trkpt><trkpt lat="45.7013483" lon="11.3053533"><ele>347.0</ele><time>2026-04-07T14:37:22.877Z</time></trkpt><trkpt lat="45.701385" lon="11.3054817"><ele>347.0</ele><time>2026-04-07T14:37:23.878Z</time></trkpt><trkpt lat="45.7014267" lon="11.30562"><ele>347.0</ele><time>2026-04-07T14:37:24.877Z</time></trkpt><trkpt lat="45.7014733" lon="11.3057717"><ele>347.0</ele><time>2026-04-07T14:37:25.877Z</time></trkpt><trkpt lat="45.7015217" lon="11.3059367"><ele>347.0</ele><time>2026-04-07T14:37:26.878Z</time></trkpt><trkpt lat="45.7015767" lon="11.3060983"><ele>345.25</ele><time>2026-04-07T14:37:27.877Z</time></trkpt><trkpt lat="45.70163" lon="11.30627"><ele>343.5</ele><time>2026-04-07T14:37:28.878Z</time></trkpt><trkpt lat="45.7016883" lon="11.30646"><ele>341.75</ele><time>2026-04-07T14:37:29.878Z</time></trkpt><trkpt lat="45.701735" lon="11.3066433"><ele>340.0</ele><time>2026-04-07T14:37:30.878Z</time></trkpt><trkpt lat="45.70178" lon="11.3068133"><ele>338.4</ele><time>2026-04-07T14:37:31.878Z</time></trkpt><trkpt lat="45.7018183" lon="11.306975"><ele>336.8</ele><time>2026-04-07T14:37:32.878Z</time></trkpt><trkpt lat="45.7018367" lon="11.3071217"><ele>335.20000000000005</ele><time>2026-04-07T14:37:33.878Z</time></trkpt><trkpt lat="45.7018433" lon="11.307265"><ele>333.6</ele><time>2026-04-07T14:37:34.878Z</time></trkpt><trkpt lat="45.7018267" lon="11.3073917"><ele>332.0</ele><time>2026-04-07T14:37:35.877Z</time></trkpt><trkpt lat="45.7017933" lon="11.307525"><ele>329.0</ele><time>2026-04-07T14:37:36.878Z</time></trkpt><trkpt lat="45.7017633" lon="11.3076817"><ele>326.0</ele><time>2026-04-07T14:37:37.877Z</time></trkpt><trkpt lat="45.7017517" lon="11.3078517"><ele>323.0</ele><time>2026-04-07T14:37:38.878Z</time></trkpt><trkpt lat="45.7017667" lon="11.3080467"><ele>320.0</ele><time>2026-04-07T14:37:39.878Z</time></trkpt><trkpt lat="45.7018083" lon="11.308255"><ele>319.25</ele><time>2026-04-07T14:37:40.878Z</time></trkpt><trkpt lat="45.70185" lon="11.3084617"><ele>318.5</ele><time>2026-04-07T14:37:41.878Z</time></trkpt><trkpt lat="45.701885" lon="11.3086633"><ele>317.75</ele><time>2026-04-07T14:37:42.878Z</time></trkpt><trkpt lat="45.7019183" lon="11.30885"><ele>317.0</ele><time>2026-04-07T14:37:43.877Z</time></trkpt><trkpt lat="45.7019533" lon="11.309025"><ele>314.0</ele><time>2026-04-07T14:37:44.878Z</time></trkpt><trkpt lat="45.70201" lon="11.30919"><ele>311.0</ele><time>2026-04-07T14:37:45.877Z</time></trkpt><trkpt lat="45.7020983" lon="11.3093467"><ele>308.0</ele><time>2026-04-07T14:37:46.877Z</time></trkpt><trkpt lat="45.7021967" lon="11.3095167"><ele>305.0</ele><time>2026-04-07T14:37:47.877Z</time></trkpt><trkpt lat="45.7023117" lon="11.3096867"><ele>302.6666666666667</ele><time>2026-04-07T14:37:48.878Z</time></trkpt><trkpt lat="45.7024333" lon="11.3098717"><ele>300.3333333333333</ele><time>2026-04-07T14:37:49.878Z</time></trkpt><trkpt lat="45.7025467" lon="11.3100733"><ele>298.0</ele><time>2026-04-07T14:37:50.877Z</time></trkpt><trkpt lat="45.7026583" lon="11.3102917"><ele>299.0</ele><time>2026-04-07T14:37:51.877Z</time></trkpt><trkpt lat="45.7027683" lon="11.3105033"><ele>300.0</ele><time>2026-04-07T14:37:52.877Z</time></trkpt><trkpt lat="45.7028767" lon="11.31071"><ele>301.0</ele><time>2026-04-07T14:37:53.878Z</time></trkpt><trkpt lat="45.70297" lon="11.3109083"><ele>297.3333333333333</ele><time>2026-04-07T14:37:54.878Z</time></trkpt><trkpt lat="45.7030767" lon="11.3111083"><ele>293.6666666666667</ele><time>2026-04-07T14:37:55.877Z</time></trkpt><trkpt lat="45.703195" lon="11.3113167"><ele>290.0</ele><time>2026-04-07T14:37:56.878Z</time></trkpt><trkpt lat="45.7033167" lon="11.3115117"><ele>289.6666666666667</ele><time>2026-04-07T14:37:57.877Z</time></trkpt><trkpt lat="45.7034417" lon="11.311675"><ele>289.3333333333333</ele><time>2026-04-07T14:37:58.877Z</time></trkpt><trkpt lat="45.7035667" lon="11.3117933"><ele>289.0</ele><time>2026-04-07T14:37:59.878Z</time></trkpt><trkpt lat="45.7037083" lon="11.3118833"><ele>287.0</ele><time>2026-04-07T14:38:00.878Z</time></trkpt><trkpt lat="45.703865" lon="11.3119567"><ele>285.0</ele><time>2026-04-07T14:38:01.877Z</time></trkpt><trkpt lat="45.704045" lon="11.3120083"><ele>283.0</ele><time>2026-04-07T14:38:02.877Z</time></trkpt><trkpt lat="45.70424" lon="11.3120617"><ele>283.3333333333333</ele><time>2026-04-07T14:38:03.877Z</time></trkpt><trkpt lat="45.704435" lon="11.3121167"><ele>283.6666666666667</ele><time>2026-04-07T14:38:04.876Z</time></trkpt><trkpt lat="45.7046133" lon="11.31218"><ele>284.0</ele><time>2026-04-07T14:38:05.877Z</time></trkpt><trkpt lat="45.7047817" lon="11.312235"><ele>282.6666666666667</ele><time>2026-04-07T14:38:06.877Z</time></trkpt><trkpt lat="45.704945" lon="11.3122767"><ele>281.3333333333333</ele><time>2026-04-07T14:38:07.877Z</time></trkpt><trkpt lat="45.7051017" lon="11.3122983"><ele>280.0</ele><time>2026-04-07T14:38:08.877Z</time></trkpt><trkpt lat="45.7052583" lon="11.3122967"><ele>278.5</ele><time>2026-04-07T14:38:09.877Z</time></trkpt><trkpt lat="45.7054033" lon="11.3122933"><ele>277.0</ele><time>2026-04-07T14:38:10.877Z</time></trkpt><trkpt lat="45.7055367" lon="11.31229"><ele>275.5</ele><time>2026-04-07T14:38:11.877Z</time></trkpt><trkpt lat="45.7056683" lon="11.312295"><ele>274.0</ele><time>2026-04-07T14:38:12.877Z</time></trkpt><trkpt lat="45.7057967" lon="11.3123183"><ele>274.0</ele><time>2026-04-07T14:38:13.877Z</time></trkpt><trkpt lat="45.7059133" lon="11.312345"><ele>274.0</ele><time>2026-04-07T14:38:14.876Z</time></trkpt><trkpt lat="45.7060283" lon="11.312395"><ele>274.0</ele><time>2026-04-07T14:38:15.876Z</time></trkpt><trkpt lat="45.7061417" lon="11.3124467"><ele>274.0</ele><time>2026-04-07T14:38:16.877Z</time></trkpt><trkpt lat="45.70625" lon="11.3124983"><ele>272.5</ele><time>2026-04-07T14:38:17.877Z</time></trkpt><trkpt lat="45.70635" lon="11.3125483"><ele>271.0</ele><time>2026-04-07T14:38:18.877Z</time></trkpt><trkpt lat="45.7064433" lon="11.312625"><ele>269.5</ele><time>2026-04-07T14:38:19.876Z</time></trkpt><trkpt lat="45.7065267" lon="11.31273"><ele>268.0</ele><time>2026-04-07T14:38:20.877Z</time></trkpt><trkpt lat="45.7066083" lon="11.312875"><ele>268.0</ele><time>2026-04-07T14:38:21.877Z</time></trkpt><trkpt lat="45.7066983" lon="11.3130483"><ele>268.0</ele><time>2026-04-07T14:38:22.877Z</time></trkpt><trkpt lat="45.70679" lon="11.31324"><ele>268.0</ele><time>2026-04-07T14:38:23.876Z</time></trkpt><trkpt lat="45.70688" lon="11.31345"><ele>266.0</ele><time>2026-04-07T14:38:24.876Z</time></trkpt><trkpt lat="45.7069783" lon="11.31364"><ele>264.0</ele><time>2026-04-07T14:38:25.876Z</time></trkpt><trkpt lat="45.707075" lon="11.3138033"><ele>262.0</ele><time>2026-04-07T14:38:26.877Z</time></trkpt><trkpt lat="45.7071683" lon="11.31396"><ele>260.3333333333333</ele><time>2026-04-07T14:38:27.877Z</time></trkpt><trkpt lat="45.7072783" lon="11.3140967"><ele>258.6666666666667</ele><time>2026-04-07T14:38:28.877Z</time></trkpt><trkpt lat="45.707395" lon="11.3142367"><ele>257.0</ele><time>2026-04-07T14:38:29.877Z</time></trkpt><trkpt lat="45.7075367" lon="11.3143517"><ele>257.0</ele><time>2026-04-07T14:38:30.876Z</time></trkpt><trkpt lat="45.7076983" lon="11.3144617"><ele>257.0</ele><time>2026-04-07T14:38:31.877Z</time></trkpt><trkpt lat="45.707875" lon="11.3145467"><ele>257.0</ele><time>2026-04-07T14:38:32.877Z</time></trkpt><trkpt lat="45.70804" lon="11.3146217"><ele>258.6666666666667</ele><time>2026-04-07T14:38:33.877Z</time></trkpt><trkpt lat="45.7082017" lon="11.3146817"><ele>260.3333333333333</ele><time>2026-04-07T14:38:34.877Z</time></trkpt><trkpt lat="45.7083733" lon="11.3146967"><ele>262.0</ele><time>2026-04-07T14:38:35.877Z</time></trkpt><trkpt lat="45.70854" lon="11.3146833"><ele>267.66666666666663</ele><time>2026-04-07T14:38:36.877Z</time></trkpt><trkpt lat="45.7087067" lon="11.31466"><ele>273.3333333333333</ele><time>2026-04-07T14:38:37.877Z</time></trkpt><trkpt lat="45.7088633" lon="11.3146633"><ele>279.0</ele><time>2026-04-07T14:38:38.877Z</time></trkpt><trkpt lat="45.7090067" lon="11.3147117"><ele>273.25</ele><time>2026-04-07T14:38:39.876Z</time></trkpt><trkpt lat="45.70914" lon="11.3147917"><ele>267.5</ele><time>2026-04-07T14:38:40.876Z</time></trkpt><trkpt lat="45.709275" lon="11.31485"><ele>261.75</ele><time>2026-04-07T14:38:41.877Z</time></trkpt><trkpt lat="45.7094117" lon="11.3148917"><ele>256.0</ele><time>2026-04-07T14:38:42.876Z</time></trkpt><trkpt lat="45.70955" lon="11.3149233"><ele>255.25</ele><time>2026-04-07T14:38:43.877Z</time></trkpt><trkpt lat="45.709685" lon="11.3149217"><ele>254.5</ele><time>2026-04-07T14:38:44.876Z</time></trkpt><trkpt lat="45.70983" lon="11.314905"><ele>253.75</ele><time>2026-04-07T14:38:45.877Z</time></trkpt><trkpt lat="45.709985" lon="11.3148533"><ele>253.0</ele><time>2026-04-07T14:38:46.877Z</time></trkpt><trkpt lat="45.7101533" lon="11.3148083"><ele>252.75</ele><time>2026-04-07T14:38:47.876Z</time></trkpt><trkpt lat="45.7103117" lon="11.31478"><ele>252.5</ele><time>2026-04-07T14:38:48.877Z</time></trkpt><trkpt lat="45.7104567" lon="11.314765"><ele>252.25</ele><time>2026-04-07T14:38:49.877Z</time></trkpt><trkpt lat="45.710595" lon="11.3147767"><ele>252.0</ele><time>2026-04-07T14:38:50.877Z</time></trkpt><trkpt lat="45.71073" lon="11.3148217"><ele>252.0</ele><time>2026-04-07T14:38:51.876Z</time></trkpt><trkpt lat="45.7108717" lon="11.3148867"><ele>252.0</ele><time>2026-04-07T14:38:52.877Z</time></trkpt><trkpt lat="45.7110333" lon="11.3149217"><ele>252.0</ele><time>2026-04-07T14:38:53.876Z</time></trkpt><trkpt lat="45.7112" lon="11.31496"><ele>251.25</ele><time>2026-04-07T14:38:54.876Z</time></trkpt><trkpt lat="45.711345" lon="11.3150133"><ele>250.5</ele><time>2026-04-07T14:38:55.877Z</time></trkpt><trkpt lat="45.711475" lon="11.3150483"><ele>249.75</ele><time>2026-04-07T14:38:56.877Z</time></trkpt><trkpt lat="45.7116133" lon="11.31506"><ele>249.0</ele><time>2026-04-07T14:38:57.876Z</time></trkpt><trkpt lat="45.7117317" lon="11.3150517"><ele>249.0</ele><time>2026-04-07T14:38:58.876Z</time></trkpt><trkpt lat="45.71184" lon="11.3150383"><ele>248.99999999999997</ele><time>2026-04-07T14:38:59.877Z</time></trkpt><trkpt lat="45.7119283" lon="11.31504"><ele>248.99999999999997</ele><time>2026-04-07T14:39:00.876Z</time></trkpt><trkpt lat="45.7119917" lon="11.31504"><ele>249.0</ele><time>2026-04-07T14:39:01.876Z</time></trkpt><trkpt lat="45.7120867" lon="11.3150333"><ele>249.0</ele><time>2026-04-07T14:39:03.877Z</time></trkpt><trkpt lat="45.71209" lon="11.3151933"><ele>247.0</ele><time>2026-04-07T14:39:08.876Z</time></trkpt><trkpt lat="45.7120883" lon="11.315315"><ele>244.99999999999997</ele><time>2026-04-07T14:39:09.877Z</time></trkpt><trkpt lat="45.712085" lon="11.3154717"><ele>242.99999999999997</ele><time>2026-04-07T14:39:10.876Z</time></trkpt><trkpt lat="45.712085" lon="11.315655"><ele>241.0</ele><time>2026-04-07T14:39:11.877Z</time></trkpt><trkpt lat="45.7120767" lon="11.315815"><ele>239.0</ele><time>2026-04-07T14:39:12.877Z</time></trkpt><trkpt lat="45.7120633" lon="11.3159383"><ele>238.16666666666669</ele><time>2026-04-07T14:39:13.877Z</time></trkpt><trkpt lat="45.7120317" lon="11.31608"><ele>237.33333333333334</ele><time>2026-04-07T14:39:15.877Z</time></trkpt><trkpt lat="45.711995" lon="11.3161683"><ele>236.5</ele><time>2026-04-07T14:39:17.877Z</time></trkpt><trkpt lat="45.7119783" lon="11.3162567"><ele>235.66666666666669</ele><time>2026-04-07T14:39:19.876Z</time></trkpt><trkpt lat="45.7119517" lon="11.3163633"><ele>234.83333333333334</ele><time>2026-04-07T14:39:22.876Z</time></trkpt><trkpt lat="45.711925" lon="11.3164917"><ele>234.0</ele><time>2026-04-07T14:39:26.877Z</time></trkpt><trkpt lat="45.7118933" lon="11.3166583"><ele>236.5</ele><time>2026-04-07T14:39:28.876Z</time></trkpt><trkpt lat="45.711875" lon="11.3167917"><ele>239.0</ele><time>2026-04-07T14:39:29.877Z</time></trkpt><trkpt lat="45.711865" lon="11.316945"><ele>241.5</ele><time>2026-04-07T14:39:30.877Z</time></trkpt><trkpt lat="45.7118767" lon="11.31712"><ele>244.0</ele><time>2026-04-07T14:39:31.877Z</time></trkpt><trkpt lat="45.711905" lon="11.3173167"><ele>239.66666666666666</ele><time>2026-04-07T14:39:32.877Z</time></trkpt><trkpt lat="45.711925" lon="11.3175333"><ele>235.33333333333331</ele><time>2026-04-07T14:39:33.877Z</time></trkpt><trkpt lat="45.7119167" lon="11.31777"><ele>231.0</ele><time>2026-04-07T14:39:34.877Z</time></trkpt><trkpt lat="45.7119417" lon="11.3179967"><ele>231.33333333333331</ele><time>2026-04-07T14:39:35.877Z</time></trkpt><trkpt lat="45.7119617" lon="11.3182317"><ele>231.66666666666666</ele><time>2026-04-07T14:39:36.877Z</time></trkpt><trkpt lat="45.7119983" lon="11.318435"><ele>232.0</ele><time>2026-04-07T14:39:37.877Z</time></trkpt><trkpt lat="45.7120033" lon="11.3186433"><ele>232.0</ele><time>2026-04-07T14:39:38.877Z</time></trkpt><trkpt lat="45.7120117" lon="11.3188233"><ele>232.0</ele><time>2026-04-07T14:39:39.876Z</time></trkpt><trkpt lat="45.7120233" lon="11.3189917"><ele>232.0</ele><time>2026-04-07T14:39:40.877Z</time></trkpt><trkpt lat="45.712055" lon="11.3191867"><ele>232.0</ele><time>2026-04-07T14:39:41.877Z</time></trkpt><trkpt lat="45.7120883" lon="11.3194"><ele>231.66666666666666</ele><time>2026-04-07T14:39:42.877Z</time></trkpt><trkpt lat="45.7121017" lon="11.3196367"><ele>231.33333333333331</ele><time>2026-04-07T14:39:43.876Z</time></trkpt><trkpt lat="45.7121117" lon="11.3198983"><ele>231.0</ele><time>2026-04-07T14:39:44.877Z</time></trkpt><trkpt lat="45.71212" lon="11.320175"><ele>230.0</ele><time>2026-04-07T14:39:45.876Z</time></trkpt><trkpt lat="45.7121333" lon="11.320445"><ele>229.0</ele><time>2026-04-07T14:39:46.877Z</time></trkpt><trkpt lat="45.7121433" lon="11.3206867"><ele>228.0</ele><time>2026-04-07T14:39:47.877Z</time></trkpt><trkpt lat="45.712155" lon="11.320935"><ele>227.66666666666669</ele><time>2026-04-07T14:39:48.877Z</time></trkpt><trkpt lat="45.7121633" lon="11.3211767"><ele>227.33333333333334</ele><time>2026-04-07T14:39:49.877Z</time></trkpt><trkpt lat="45.712175" lon="11.32141"><ele>227.0</ele><time>2026-04-07T14:39:50.877Z</time></trkpt><trkpt lat="45.7121767" lon="11.3216433"><ele>227.0</ele><time>2026-04-07T14:39:51.877Z</time></trkpt><trkpt lat="45.7121817" lon="11.3218833"><ele>227.0</ele><time>2026-04-07T14:39:52.877Z</time></trkpt><trkpt lat="45.7121883" lon="11.3221367"><ele>227.0</ele><time>2026-04-07T14:39:53.877Z</time></trkpt><trkpt lat="45.7121967" lon="11.3223833"><ele>227.0</ele><time>2026-04-07T14:39:54.877Z</time></trkpt><trkpt lat="45.7122083" lon="11.3226233"><ele>227.0</ele><time>2026-04-07T14:39:55.877Z</time></trkpt><trkpt lat="45.71222" lon="11.3228583"><ele>227.0</ele><time>2026-04-07T14:39:56.876Z</time></trkpt><trkpt lat="45.71223" lon="11.3231017"><ele>226.66666666666669</ele><time>2026-04-07T14:39:57.877Z</time></trkpt><trkpt lat="45.7122483" lon="11.32335"><ele>226.33333333333331</ele><time>2026-04-07T14:39:58.876Z</time></trkpt><trkpt lat="45.7122567" lon="11.3235817"><ele>226.0</ele><time>2026-04-07T14:39:59.877Z</time></trkpt><trkpt lat="45.7122633" lon="11.3237883"><ele>226.0</ele><time>2026-04-07T14:40:00.876Z</time></trkpt><trkpt lat="45.7122767" lon="11.3239933"><ele>226.0</ele><time>2026-04-07T14:40:01.876Z</time></trkpt><trkpt lat="45.7122917" lon="11.324205"><ele>226.0</ele><time>2026-04-07T14:40:02.877Z</time></trkpt><trkpt lat="45.712305" lon="11.3244267"><ele>226.0</ele><time>2026-04-07T14:40:03.877Z</time></trkpt><trkpt lat="45.71231" lon="11.3246633"><ele>225.75</ele><time>2026-04-07T14:40:04.876Z</time></trkpt><trkpt lat="45.7123183" lon="11.3248867"><ele>225.5</ele><time>2026-04-07T14:40:05.877Z</time></trkpt><trkpt lat="45.7123183" lon="11.3250933"><ele>225.25</ele><time>2026-04-07T14:40:06.876Z</time></trkpt><trkpt lat="45.7123183" lon="11.32529"><ele>225.0</ele><time>2026-04-07T14:40:07.876Z</time></trkpt><trkpt lat="45.71232" lon="11.3254433"><ele>224.8</ele><time>2026-04-07T14:40:08.877Z</time></trkpt><trkpt lat="45.71232" lon="11.3255783"><ele>224.6</ele><time>2026-04-07T14:40:09.877Z</time></trkpt><trkpt lat="45.71231" lon="11.3256933"><ele>224.39999999999998</ele><time>2026-04-07T14:40:10.876Z</time></trkpt><trkpt lat="45.712275" lon="11.325825"><ele>224.2</ele><time>2026-04-07T14:40:12.877Z</time></trkpt><trkpt lat="45.71218" lon="11.3259167"><ele>224.0</ele><time>2026-04-07T14:40:19.877Z</time></trkpt><trkpt lat="45.7121283" lon="11.3260467"><ele>224.0</ele><time>2026-04-07T14:40:21.877Z</time></trkpt><trkpt lat="45.7121317" lon="11.32616"><ele>223.99999999999997</ele><time>2026-04-07T14:40:22.876Z</time></trkpt><trkpt lat="45.7121583" lon="11.3263017"><ele>223.99999999999997</ele><time>2026-04-07T14:40:23.877Z</time></trkpt><trkpt lat="45.712215" lon="11.326465"><ele>224.0</ele><time>2026-04-07T14:40:24.877Z</time></trkpt><trkpt lat="45.7122533" lon="11.3266167"><ele>224.0</ele><time>2026-04-07T14:40:25.877Z</time></trkpt><trkpt lat="45.7123083" lon="11.326735"><ele>224.00000000000003</ele><time>2026-04-07T14:40:26.877Z</time></trkpt><trkpt lat="45.7123733" lon="11.3268117"><ele>224.0</ele><time>2026-04-07T14:40:27.877Z</time></trkpt><trkpt lat="45.712445" lon="11.32686"><ele>224.0</ele><time>2026-04-07T14:40:28.877Z</time></trkpt><trkpt lat="45.7125383" lon="11.326885"><ele>224.0</ele><time>2026-04-07T14:40:29.877Z</time></trkpt><trkpt lat="45.712635" lon="11.3269033"><ele>224.00000000000003</ele><time>2026-04-07T14:40:30.877Z</time></trkpt><trkpt lat="45.7127183" lon="11.326915"><ele>224.0</ele><time>2026-04-07T14:40:31.876Z</time></trkpt><trkpt lat="45.7128167" lon="11.3269083"><ele>223.2</ele><time>2026-04-07T14:40:32.876Z</time></trkpt><trkpt lat="45.712905" lon="11.3269183"><ele>222.39999999999998</ele><time>2026-04-07T14:40:33.877Z</time></trkpt><trkpt lat="45.713" lon="11.326925"><ele>221.6</ele><time>2026-04-07T14:40:34.876Z</time></trkpt><trkpt lat="45.713105" lon="11.3269433"><ele>220.8</ele><time>2026-04-07T14:40:35.876Z</time></trkpt><trkpt lat="45.7132033" lon="11.3269617"><ele>220.0</ele><time>2026-04-07T14:40:36.876Z</time></trkpt><trkpt lat="45.7133033" lon="11.3269767"><ele>219.99999999999997</ele><time>2026-04-07T14:40:37.876Z</time></trkpt><trkpt lat="45.7134017" lon="11.32699"><ele>220.0</ele><time>2026-04-07T14:40:38.877Z</time></trkpt><trkpt lat="45.7134883" lon="11.327"><ele>220.0</ele><time>2026-04-07T14:40:39.876Z</time></trkpt><trkpt lat="45.7135583" lon="11.3270167"><ele>220.0</ele><time>2026-04-07T14:40:40.876Z</time></trkpt><trkpt lat="45.71364" lon="11.3270333"><ele>219.99999999999997</ele><time>2026-04-07T14:40:41.876Z</time></trkpt><trkpt lat="45.7137233" lon="11.3270433"><ele>220.0</ele><time>2026-04-07T14:40:42.877Z</time></trkpt><trkpt lat="45.7138083" lon="11.3270567"><ele>220.16666666666666</ele><time>2026-04-07T14:40:43.876Z</time></trkpt><trkpt lat="45.7138867" lon="11.3270717"><ele>220.33333333333331</ele><time>2026-04-07T14:40:44.877Z</time></trkpt><trkpt lat="45.71396" lon="11.327095"><ele>220.5</ele><time>2026-04-07T14:40:45.877Z</time></trkpt><trkpt lat="45.7140617" lon="11.3271767"><ele>220.66666666666669</ele><time>2026-04-07T14:40:47.876Z</time></trkpt><trkpt lat="45.7141217" lon="11.3272717"><ele>220.83333333333334</ele><time>2026-04-07T14:40:49.877Z</time></trkpt><trkpt lat="45.7141617" lon="11.3273483"><ele>221.0</ele><time>2026-04-07T14:40:53.877Z</time></trkpt><trkpt lat="45.7141967" lon="11.3274633"><ele>221.0</ele><time>2026-04-07T14:40:56.877Z</time></trkpt><trkpt lat="45.7142467" lon="11.3276383"><ele>221.0</ele><time>2026-04-07T14:40:58.876Z</time></trkpt><trkpt lat="45.7142867" lon="11.327775"><ele>221.0</ele><time>2026-04-07T14:40:59.876Z</time></trkpt><trkpt lat="45.7143483" lon="11.3279183"><ele>221.0</ele><time>2026-04-07T14:41:00.876Z</time></trkpt><trkpt lat="45.7143867" lon="11.328085"><ele>221.25</ele><time>2026-04-07T14:41:01.877Z</time></trkpt><trkpt lat="45.7144383" lon="11.32827"><ele>221.5</ele><time>2026-04-07T14:41:02.876Z</time></trkpt><trkpt lat="45.714485" lon="11.3284667"><ele>221.75</ele><time>2026-04-07T14:41:03.877Z</time></trkpt><trkpt lat="45.7145367" lon="11.3286617"><ele>222.0</ele><time>2026-04-07T14:41:04.877Z</time></trkpt><trkpt lat="45.7145817" lon="11.3288767"><ele>222.33333333333331</ele><time>2026-04-07T14:41:05.877Z</time></trkpt><trkpt lat="45.7146567" lon="11.329075"><ele>222.66666666666666</ele><time>2026-04-07T14:41:06.876Z</time></trkpt><trkpt lat="45.7146733" lon="11.3293033"><ele>223.0</ele><time>2026-04-07T14:41:07.877Z</time></trkpt><trkpt lat="45.7147533" lon="11.32952"><ele>223.33333333333331</ele><time>2026-04-07T14:41:08.877Z</time></trkpt><trkpt lat="45.7148367" lon="11.3297283"><ele>223.66666666666669</ele><time>2026-04-07T14:41:09.877Z</time></trkpt><trkpt lat="45.7149117" lon="11.3299267"><ele>224.0</ele><time>2026-04-07T14:41:10.877Z</time></trkpt><trkpt lat="45.7149867" lon="11.3301267"><ele>224.0</ele><time>2026-04-07T14:41:11.876Z</time></trkpt><trkpt lat="45.7150633" lon="11.3303167"><ele>224.0</ele><time>2026-04-07T14:41:12.877Z</time></trkpt><trkpt lat="45.7151267" lon="11.3304967"><ele>224.0</ele><time>2026-04-07T14:41:13.877Z</time></trkpt><trkpt lat="45.715185" lon="11.3306567"><ele>224.0</ele><time>2026-04-07T14:41:14.876Z</time></trkpt><trkpt lat="45.7152367" lon="11.330815"><ele>225.0</ele><time>2026-04-07T14:41:15.877Z</time></trkpt><trkpt lat="45.7152917" lon="11.3309633"><ele>225.99999999999997</ele><time>2026-04-07T14:41:16.877Z</time></trkpt><trkpt lat="45.71533" lon="11.3311117"><ele>226.99999999999997</ele><time>2026-04-07T14:41:17.876Z</time></trkpt><trkpt lat="45.715365" lon="11.331235"><ele>228.0</ele><time>2026-04-07T14:41:18.876Z</time></trkpt><trkpt lat="45.7153933" lon="11.3313467"><ele>229.0</ele><time>2026-04-07T14:41:19.875Z</time></trkpt><trkpt lat="45.71541" lon="11.3314417"><ele>229.2</ele><time>2026-04-07T14:41:20.876Z</time></trkpt><trkpt lat="45.71541" lon="11.3315417"><ele>229.39999999999998</ele><time>2026-04-07T14:41:21.875Z</time></trkpt><trkpt lat="45.715385" lon="11.33165"><ele>229.6</ele><time>2026-04-07T14:41:22.875Z</time></trkpt><trkpt lat="45.7153467" lon="11.33176"><ele>229.8</ele><time>2026-04-07T14:41:23.876Z</time></trkpt><trkpt lat="45.7152983" lon="11.3319083"><ele>230.0</ele><time>2026-04-07T14:41:24.876Z</time></trkpt><trkpt lat="45.71525" lon="11.3320667"><ele>228.0</ele><time>2026-04-07T14:41:25.876Z</time></trkpt><trkpt lat="45.7152267" lon="11.332235"><ele>226.0</ele><time>2026-04-07T14:41:26.876Z</time></trkpt><trkpt lat="45.7152033" lon="11.332405"><ele>224.0</ele><time>2026-04-07T14:41:27.876Z</time></trkpt><trkpt lat="45.71518" lon="11.33256"><ele>222.0</ele><time>2026-04-07T14:41:28.875Z</time></trkpt><trkpt lat="45.7151533" lon="11.332685"><ele>220.0</ele><time>2026-04-07T14:41:29.875Z</time></trkpt><trkpt lat="45.7151217" lon="11.3327717"><ele>219.99999999999997</ele><time>2026-04-07T14:41:30.876Z</time></trkpt><trkpt lat="45.71505" lon="11.3328417"><ele>220.0</ele><time>2026-04-07T14:41:32.876Z</time></trkpt><trkpt lat="45.7149433" lon="11.3329167"><ele>220.0</ele><time>2026-04-07T14:41:34.875Z</time></trkpt><trkpt lat="45.7148833" lon="11.3329833"><ele>220.0</ele><time>2026-04-07T14:41:35.875Z</time></trkpt><trkpt lat="45.7148483" lon="11.3330733"><ele>219.99999999999997</ele><time>2026-04-07T14:41:36.875Z</time></trkpt><trkpt lat="45.7148517" lon="11.333175"><ele>220.0</ele><time>2026-04-07T14:41:37.876Z</time></trkpt><trkpt lat="45.714875" lon="11.3332667"><ele>219.85714285714283</ele><time>2026-04-07T14:41:38.875Z</time></trkpt><trkpt lat="45.7149183" lon="11.3333433"><ele>219.71428571428572</ele><time>2026-04-07T14:41:39.876Z</time></trkpt><trkpt lat="45.7149683" lon="11.3334"><ele>219.57142857142856</ele><time>2026-04-07T14:41:40.875Z</time></trkpt><trkpt lat="45.71502" lon="11.3334517"><ele>219.42857142857142</ele><time>2026-04-07T14:41:41.876Z</time></trkpt><trkpt lat="45.7150617" lon="11.33353"><ele>219.28571428571428</ele><time>2026-04-07T14:41:42.875Z</time></trkpt><trkpt lat="45.7150883" lon="11.3336367"><ele>219.14285714285714</ele><time>2026-04-07T14:41:43.876Z</time></trkpt><trkpt lat="45.7151067" lon="11.3337683"><ele>219.0</ele><time>2026-04-07T14:41:44.876Z</time></trkpt><trkpt lat="45.7151133" lon="11.3339167"><ele>219.0</ele><time>2026-04-07T14:41:45.876Z</time></trkpt><trkpt lat="45.71512" lon="11.3340967"><ele>219.0</ele><time>2026-04-07T14:41:46.876Z</time></trkpt><trkpt lat="45.7151283" lon="11.3342883"><ele>219.0</ele><time>2026-04-07T14:41:47.876Z</time></trkpt><trkpt lat="45.7151317" lon="11.3345033"><ele>219.0</ele><time>2026-04-07T14:41:48.875Z</time></trkpt><trkpt lat="45.7151417" lon="11.334705"><ele>219.75</ele><time>2026-04-07T14:41:49.876Z</time></trkpt><trkpt lat="45.7151233" lon="11.3349083"><ele>220.5</ele><time>2026-04-07T14:41:50.876Z</time></trkpt><trkpt lat="45.7151433" lon="11.3350683"><ele>221.25</ele><time>2026-04-07T14:41:51.876Z</time></trkpt><trkpt lat="45.7151567" lon="11.335225"><ele>222.0</ele><time>2026-04-07T14:41:52.876Z</time></trkpt><trkpt lat="45.71517" lon="11.33537"><ele>222.0</ele><time>2026-04-07T14:41:53.875Z</time></trkpt><trkpt lat="45.7151817" lon="11.3354717"><ele>222.0</ele><time>2026-04-07T14:41:54.875Z</time></trkpt><trkpt lat="45.71519" lon="11.3355633"><ele>222.0</ele><time>2026-04-07T14:41:55.876Z</time></trkpt><trkpt lat="45.715205" lon="11.3357033"><ele>222.0</ele><time>2026-04-07T14:41:57.876Z</time></trkpt><trkpt lat="45.7152167" lon="11.3357983"><ele>222.0</ele><time>2026-04-07T14:41:59.876Z</time></trkpt><trkpt lat="45.7152367" lon="11.335915"><ele>222.0</ele><time>2026-04-07T14:42:01.876Z</time></trkpt><trkpt lat="45.71524" lon="11.3361017"><ele>222.0</ele><time>2026-04-07T14:42:03.875Z</time></trkpt><trkpt lat="45.7152417" lon="11.33621"><ele>222.0</ele><time>2026-04-07T14:42:04.876Z</time></trkpt><trkpt lat="45.7152467" lon="11.3363067"><ele>222.0</ele><time>2026-04-07T14:42:05.876Z</time></trkpt><trkpt lat="45.7152617" lon="11.3364667"><ele>222.0</ele><time>2026-04-07T14:42:07.876Z</time></trkpt><trkpt lat="45.7152767" lon="11.3366467"><ele>222.0</ele><time>2026-04-07T14:42:09.875Z</time></trkpt><trkpt lat="45.7152867" lon="11.3367533"><ele>222.0</ele><time>2026-04-07T14:42:10.875Z</time></trkpt><trkpt lat="45.7152933" lon="11.3368717"><ele>222.0</ele><time>2026-04-07T14:42:11.876Z</time></trkpt><trkpt lat="45.7153017" lon="11.3369983"><ele>222.0</ele><time>2026-04-07T14:42:12.876Z</time></trkpt><trkpt lat="45.7153083" lon="11.337125"><ele>222.0</ele><time>2026-04-07T14:42:13.876Z</time></trkpt><trkpt lat="45.7153183" lon="11.3372517"><ele>222.0</ele><time>2026-04-07T14:42:14.876Z</time></trkpt><trkpt lat="45.7153317" lon="11.3373783"><ele>222.0</ele><time>2026-04-07T14:42:15.876Z</time></trkpt><trkpt lat="45.71534" lon="11.3374917"><ele>221.66666666666666</ele><time>2026-04-07T14:42:16.875Z</time></trkpt><trkpt lat="45.7153483" lon="11.3376067"><ele>221.33333333333331</ele><time>2026-04-07T14:42:17.876Z</time></trkpt><trkpt lat="45.7153533" lon="11.3377317"><ele>221.0</ele><time>2026-04-07T14:42:18.876Z</time></trkpt><trkpt lat="45.715355" lon="11.337855"><ele>220.66666666666666</ele><time>2026-04-07T14:42:19.876Z</time></trkpt><trkpt lat="45.7153617" lon="11.3379617"><ele>220.33333333333331</ele><time>2026-04-07T14:42:20.875Z</time></trkpt><trkpt lat="45.71537" lon="11.3380733"><ele>220.0</ele><time>2026-04-07T14:42:21.876Z</time></trkpt><trkpt lat="45.715375" lon="11.3381917"><ele>219.85714285714283</ele><time>2026-04-07T14:42:22.876Z</time></trkpt><trkpt lat="45.715375" lon="11.3383017"><ele>219.71428571428572</ele><time>2026-04-07T14:42:23.876Z</time></trkpt><trkpt lat="45.715385" lon="11.338395"><ele>219.57142857142856</ele><time>2026-04-07T14:42:24.876Z</time></trkpt><trkpt lat="45.7153933" lon="11.338485"><ele>219.42857142857142</ele><time>2026-04-07T14:42:26.876Z</time></trkpt><trkpt lat="45.7154117" lon="11.3385867"><ele>219.28571428571428</ele><time>2026-04-07T14:42:34.876Z</time></trkpt><trkpt lat="45.7154167" lon="11.3387033"><ele>219.14285714285714</ele><time>2026-04-07T14:42:35.875Z</time></trkpt><trkpt lat="45.7154367" lon="11.3388033"><ele>219.0</ele><time>2026-04-07T14:42:36.876Z</time></trkpt><trkpt lat="45.7154417" lon="11.338905"><ele>218.5</ele><time>2026-04-07T14:42:37.876Z</time></trkpt><trkpt lat="45.7154483" lon="11.339005"><ele>218.0</ele><time>2026-04-07T14:42:38.876Z</time></trkpt><trkpt lat="45.7154583" lon="11.3391"><ele>217.5</ele><time>2026-04-07T14:42:39.876Z</time></trkpt><trkpt lat="45.71547" lon="11.3392167"><ele>217.0</ele><time>2026-04-07T14:42:40.876Z</time></trkpt><trkpt lat="45.7154867" lon="11.3393583"><ele>216.5</ele><time>2026-04-07T14:42:41.876Z</time></trkpt><trkpt lat="45.715495" lon="11.3395233"><ele>216.0</ele><time>2026-04-07T14:42:42.876Z</time></trkpt><trkpt lat="45.7155017" lon="11.3397033"><ele>215.4</ele><time>2026-04-07T14:42:43.876Z</time></trkpt><trkpt lat="45.7155133" lon="11.3398733"><ele>214.8</ele><time>2026-04-07T14:42:44.876Z</time></trkpt><trkpt lat="45.7155217" lon="11.3400333"><ele>214.20000000000002</ele><time>2026-04-07T14:42:45.876Z</time></trkpt><trkpt lat="45.7155267" lon="11.3401617"><ele>213.60000000000002</ele><time>2026-04-07T14:42:46.876Z</time></trkpt><trkpt lat="45.715535" lon="11.3402833"><ele>213.0</ele><time>2026-04-07T14:42:47.876Z</time></trkpt><trkpt lat="45.715555" lon="11.3404133"><ele>213.0</ele><time>2026-04-07T14:42:48.876Z</time></trkpt><trkpt lat="45.7155767" lon="11.3405483"><ele>213.0</ele><time>2026-04-07T14:42:49.876Z</time></trkpt><trkpt lat="45.7155883" lon="11.3406933"><ele>213.0</ele><time>2026-04-07T14:42:50.875Z</time></trkpt><trkpt lat="45.715595" lon="11.3408283"><ele>213.0</ele><time>2026-04-07T14:42:51.876Z</time></trkpt><trkpt lat="45.7156033" lon="11.34096"><ele>213.0</ele><time>2026-04-07T14:42:52.876Z</time></trkpt><trkpt lat="45.7156083" lon="11.34107"><ele>213.16666666666666</ele><time>2026-04-07T14:42:53.876Z</time></trkpt><trkpt lat="45.7156117" lon="11.3411617"><ele>213.33333333333331</ele><time>2026-04-07T14:42:54.875Z</time></trkpt><trkpt lat="45.7156117" lon="11.3413217"><ele>213.5</ele><time>2026-04-07T14:42:56.876Z</time></trkpt><trkpt lat="45.71563" lon="11.3415033"><ele>213.66666666666666</ele><time>2026-04-07T14:42:58.876Z</time></trkpt><trkpt lat="45.7156383" lon="11.3416017"><ele>213.83333333333331</ele><time>2026-04-07T14:42:59.876Z</time></trkpt><trkpt lat="45.71564" lon="11.3417"><ele>214.0</ele><time>2026-04-07T14:43:00.876Z</time></trkpt><trkpt lat="45.715635" lon="11.3418033"><ele>213.49999999999997</ele><time>2026-04-07T14:43:01.876Z</time></trkpt><trkpt lat="45.7156317" lon="11.3418983"><ele>213.0</ele><time>2026-04-07T14:43:02.876Z</time></trkpt><trkpt lat="45.7156367" lon="11.3420467"><ele>212.5</ele><time>2026-04-07T14:43:04.876Z</time></trkpt><trkpt lat="45.715655" lon="11.342225"><ele>212.0</ele><time>2026-04-07T14:43:06.875Z</time></trkpt><trkpt lat="45.7156717" lon="11.3423233"><ele>211.49999999999997</ele><time>2026-04-07T14:43:07.876Z</time></trkpt><trkpt lat="45.71569" lon="11.3424183"><ele>211.0</ele><time>2026-04-07T14:43:08.875Z</time></trkpt><trkpt lat="45.7157117" lon="11.34261"><ele>210.99999999999997</ele><time>2026-04-07T14:43:10.876Z</time></trkpt><trkpt lat="45.7157133" lon="11.3427217"><ele>211.0</ele><time>2026-04-07T14:43:11.876Z</time></trkpt><trkpt lat="45.7157267" lon="11.3428317"><ele>211.0</ele><time>2026-04-07T14:43:12.876Z</time></trkpt><trkpt lat="45.7157317" lon="11.3429567"><ele>211.0</ele><time>2026-04-07T14:43:13.875Z</time></trkpt><trkpt lat="45.715745" lon="11.3430867"><ele>210.99999999999997</ele><time>2026-04-07T14:43:14.876Z</time></trkpt><trkpt lat="45.7157583" lon="11.343215"><ele>211.0</ele><time>2026-04-07T14:43:15.875Z</time></trkpt><trkpt lat="45.7157733" lon="11.34336"><ele>211.0</ele><time>2026-04-07T14:43:16.876Z</time></trkpt><trkpt lat="45.71578" lon="11.3435083"><ele>211.0</ele><time>2026-04-07T14:43:17.875Z</time></trkpt><trkpt lat="45.7157883" lon="11.343675"><ele>211.0</ele><time>2026-04-07T14:43:18.876Z</time></trkpt><trkpt lat="45.7158" lon="11.34384"><ele>211.0</ele><time>2026-04-07T14:43:19.876Z</time></trkpt><trkpt lat="45.71581" lon="11.3440067"><ele>211.0</ele><time>2026-04-07T14:43:20.875Z</time></trkpt><trkpt lat="45.7158183" lon="11.3441767"><ele>211.0</ele><time>2026-04-07T14:43:21.876Z</time></trkpt><trkpt lat="45.7158417" lon="11.3443317"><ele>211.0</ele><time>2026-04-07T14:43:22.875Z</time></trkpt><trkpt lat="45.7158483" lon="11.3444917"><ele>211.0</ele><time>2026-04-07T14:43:23.876Z</time></trkpt><trkpt lat="45.715855" lon="11.34465"><ele>211.0</ele><time>2026-04-07T14:43:24.875Z</time></trkpt><trkpt lat="45.715865" lon="11.3448033"><ele>211.0</ele><time>2026-04-07T14:43:25.876Z</time></trkpt><trkpt lat="45.71588" lon="11.3449667"><ele>211.0</ele><time>2026-04-07T14:43:26.876Z</time></trkpt><trkpt lat="45.7158983" lon="11.3451417"><ele>211.0</ele><time>2026-04-07T14:43:27.876Z</time></trkpt><trkpt lat="45.71591" lon="11.345315"><ele>211.0</ele><time>2026-04-07T14:43:28.875Z</time></trkpt><trkpt lat="45.715915" lon="11.3454767"><ele>211.0</ele><time>2026-04-07T14:43:29.875Z</time></trkpt><trkpt lat="45.71592" lon="11.34563"><ele>211.0</ele><time>2026-04-07T14:43:30.875Z</time></trkpt><trkpt lat="45.7159333" lon="11.345765"><ele>211.0</ele><time>2026-04-07T14:43:31.876Z</time></trkpt><trkpt lat="45.7159367" lon="11.345885"><ele>211.0</ele><time>2026-04-07T14:43:32.876Z</time></trkpt><trkpt lat="45.715925" lon="11.3460383"><ele>210.83333333333331</ele><time>2026-04-07T14:43:34.876Z</time></trkpt><trkpt lat="45.7158933" lon="11.3461233"><ele>210.66666666666666</ele><time>2026-04-07T14:43:36.876Z</time></trkpt><trkpt lat="45.71582" lon="11.3462117"><ele>210.5</ele><time>2026-04-07T14:43:39.876Z</time></trkpt><trkpt lat="45.715855" lon="11.3463267"><ele>210.33333333333331</ele><time>2026-04-07T14:43:41.876Z</time></trkpt><trkpt lat="45.7159033" lon="11.3463917"><ele>210.16666666666666</ele><time>2026-04-07T14:43:42.876Z</time></trkpt><trkpt lat="45.715955" lon="11.346465"><ele>210.0</ele><time>2026-04-07T14:43:43.875Z</time></trkpt><trkpt lat="45.71598" lon="11.3465667"><ele>209.8</ele><time>2026-04-07T14:43:44.876Z</time></trkpt><trkpt lat="45.7159983" lon="11.346685"><ele>209.6</ele><time>2026-04-07T14:43:45.875Z</time></trkpt><trkpt lat="45.71602" lon="11.34683"><ele>209.39999999999998</ele><time>2026-04-07T14:43:46.875Z</time></trkpt><trkpt lat="45.716035" lon="11.3469933"><ele>209.2</ele><time>2026-04-07T14:43:47.876Z</time></trkpt><trkpt lat="45.716045" lon="11.3471717"><ele>209.0</ele><time>2026-04-07T14:43:48.876Z</time></trkpt><trkpt lat="45.7160633" lon="11.34739"><ele>209.66666666666669</ele><time>2026-04-07T14:43:49.876Z</time></trkpt><trkpt lat="45.7160833" lon="11.3476383"><ele>210.33333333333331</ele><time>2026-04-07T14:43:50.876Z</time></trkpt><trkpt lat="45.7161033" lon="11.347905"><ele>211.0</ele><time>2026-04-07T14:43:51.875Z</time></trkpt><trkpt lat="45.7161133" lon="11.3481517"><ele>211.0</ele><time>2026-04-07T14:43:52.876Z</time></trkpt><trkpt lat="45.71612" lon="11.3483783"><ele>211.0</ele><time>2026-04-07T14:43:53.876Z</time></trkpt><trkpt lat="45.716125" lon="11.3485767"><ele>211.0</ele><time>2026-04-07T14:43:54.876Z</time></trkpt><trkpt lat="45.71614" lon="11.34874"><ele>211.0</ele><time>2026-04-07T14:43:55.876Z</time></trkpt><trkpt lat="45.7161483" lon="11.3488717"><ele>210.8</ele><time>2026-04-07T14:43:56.876Z</time></trkpt><trkpt lat="45.7161433" lon="11.348975"><ele>210.60000000000002</ele><time>2026-04-07T14:43:57.876Z</time></trkpt><trkpt lat="45.716145" lon="11.3491167"><ele>210.4</ele><time>2026-04-07T14:43:59.875Z</time></trkpt><trkpt lat="45.7161483" lon="11.3492383"><ele>210.2</ele><time>2026-04-07T14:44:19.875Z</time></trkpt><trkpt lat="45.716205" lon="11.3491117"><ele>210.0</ele><time>2026-04-07T14:44:37.875Z</time></trkpt><trkpt lat="45.7162133" lon="11.348955"><ele>210.0</ele><time>2026-04-07T14:44:39.875Z</time></trkpt><trkpt lat="45.7162383" lon="11.348865"><ele>210.0</ele><time>2026-04-07T14:44:41.875Z</time></trkpt><trkpt lat="45.7163017" lon="11.3488633"><ele>210.0</ele><time>2026-04-07T14:44:43.874Z</time></trkpt><trkpt lat="45.7163933" lon="11.3488833"><ele>210.0</ele><time>2026-04-07T14:44:45.875Z</time></trkpt><trkpt lat="45.716485" lon="11.34897"><ele>210.0</ele><time>2026-04-07T14:44:47.875Z</time></trkpt><trkpt lat="45.7165917" lon="11.3490367"><ele>210.0</ele><time>2026-04-07T14:44:49.875Z</time></trkpt><trkpt lat="45.7166633" lon="11.3490533"><ele>210.0</ele><time>2026-04-07T14:44:50.875Z</time></trkpt><trkpt lat="45.71677" lon="11.3491067"><ele>210.0</ele><time>2026-04-07T14:44:52.874Z</time></trkpt><trkpt lat="45.7168417" lon="11.3491517"><ele>210.0</ele><time>2026-04-07T14:44:54.875Z</time></trkpt><trkpt lat="45.71679" lon="11.34909"><ele>210.0</ele><time>2026-04-07T14:46:21.874Z</time></trkpt><trkpt lat="45.7167183" lon="11.3490517"><ele>210.0</ele><time>2026-04-07T14:46:23.875Z</time></trkpt><trkpt lat="45.7166217" lon="11.349015"><ele>210.0</ele><time>2026-04-07T14:46:26.875Z</time></trkpt><trkpt lat="45.7165533" lon="11.3489717"><ele>210.0</ele><time>2026-04-07T14:46:28.875Z</time></trkpt><trkpt lat="45.7164733" lon="11.3489083"><ele>210.0</ele><time>2026-04-07T14:46:34.875Z</time></trkpt><trkpt lat="45.7164533" lon="11.3488133"><ele>210.0</ele><time>2026-04-07T14:46:37.875Z</time></trkpt><trkpt lat="45.71647" lon="11.3487133"><ele>210.0</ele><time>2026-04-07T14:46:40.874Z</time></trkpt><trkpt lat="45.716505" lon="11.3486183"><ele>210.0</ele><time>2026-04-07T14:46:42.875Z</time></trkpt><trkpt lat="45.7165533" lon="11.348505"><ele>210.16666666666666</ele><time>2026-04-07T14:46:44.875Z</time></trkpt><trkpt lat="45.7166017" lon="11.3484017"><ele>210.33333333333331</ele><time>2026-04-07T14:46:46.875Z</time></trkpt><trkpt lat="45.7166317" lon="11.3483217"><ele>210.5</ele><time>2026-04-07T14:46:50.874Z</time></trkpt><trkpt lat="45.7166617" lon="11.34815"><ele>210.66666666666666</ele><time>2026-04-07T14:47:09.873Z</time></trkpt><trkpt lat="45.7166683" lon="11.348045"><ele>210.83333333333331</ele><time>2026-04-07T14:47:10.874Z</time></trkpt><trkpt lat="45.71666" lon="11.3479233"><ele>211.0</ele><time>2026-04-07T14:47:11.874Z</time></trkpt><trkpt lat="45.716645" lon="11.3478183"><ele>211.33333333333331</ele><time>2026-04-07T14:47:12.874Z</time></trkpt><trkpt lat="45.7166817" lon="11.3476667"><ele>211.66666666666666</ele><time>2026-04-07T14:47:14.874Z</time></trkpt><trkpt lat="45.7167283" lon="11.347605"><ele>212.0</ele><time>2026-04-07T14:47:15.873Z</time></trkpt><trkpt lat="45.7168033" lon="11.3475467"><ele>212.33333333333331</ele><time>2026-04-07T14:47:16.874Z</time></trkpt><trkpt lat="45.7168883" lon="11.347485"><ele>212.66666666666666</ele><time>2026-04-07T14:47:17.874Z</time></trkpt><trkpt lat="45.71697" lon="11.347435"><ele>213.0</ele><time>2026-04-07T14:47:18.874Z</time></trkpt><trkpt lat="45.7170383" lon="11.3473917"><ele>213.0</ele><time>2026-04-07T14:47:19.874Z</time></trkpt><trkpt lat="45.717135" lon="11.347345"><ele>213.0</ele><time>2026-04-07T14:47:21.874Z</time></trkpt><trkpt lat="45.71718" lon="11.3474633"><ele>213.0</ele><time>2026-04-07T14:47:24.873Z</time></trkpt><trkpt lat="45.7172117" lon="11.3475867"><ele>213.0</ele><time>2026-04-07T14:47:26.874Z</time></trkpt><trkpt lat="45.7173283" lon="11.347655"><ele>213.0</ele><time>2026-04-07T14:47:28.874Z</time></trkpt><trkpt lat="45.7174117" lon="11.3476917"><ele>213.0</ele><time>2026-04-07T14:47:29.873Z</time></trkpt><trkpt lat="45.717505" lon="11.3477283"><ele>213.0</ele><time>2026-04-07T14:47:30.874Z</time></trkpt><trkpt lat="45.7175883" lon="11.3477683"><ele>213.0</ele><time>2026-04-07T14:47:31.874Z</time></trkpt><trkpt lat="45.7176567" lon="11.3478017"><ele>213.0</ele><time>2026-04-07T14:47:32.874Z</time></trkpt><trkpt lat="45.7177367" lon="11.3478817"><ele>213.0</ele><time>2026-04-07T14:47:34.874Z</time></trkpt><trkpt lat="45.7176917" lon="11.348045"><ele>212.8</ele><time>2026-04-07T14:47:37.873Z</time></trkpt><trkpt lat="45.7176467" lon="11.3481467"><ele>212.60000000000002</ele><time>2026-04-07T14:47:38.874Z</time></trkpt><trkpt lat="45.7176" lon="11.34826"><ele>212.39999999999998</ele><time>2026-04-07T14:47:39.874Z</time></trkpt><trkpt lat="45.7175517" lon="11.3483783"><ele>212.2</ele><time>2026-04-07T14:47:40.873Z</time></trkpt><trkpt lat="45.7175033" lon="11.348495"><ele>212.0</ele><time>2026-04-07T14:47:41.874Z</time></trkpt><trkpt lat="45.71745" lon="11.3486267"><ele>212.0</ele><time>2026-04-07T14:47:42.873Z</time></trkpt><trkpt lat="45.7173983" lon="11.3487483"><ele>212.0</ele><time>2026-04-07T14:47:43.874Z</time></trkpt><trkpt lat="45.71734" lon="11.3488767"><ele>212.0</ele><time>2026-04-07T14:47:44.874Z</time></trkpt><trkpt lat="45.71729" lon="11.3489933"><ele>212.0</ele><time>2026-04-07T14:47:45.873Z</time></trkpt><trkpt lat="45.717235" lon="11.34911"><ele>212.0</ele><time>2026-04-07T14:47:46.873Z</time></trkpt><trkpt lat="45.7171733" lon="11.3492167"><ele>212.66666666666669</ele><time>2026-04-07T14:47:47.874Z</time></trkpt><trkpt lat="45.7171067" lon="11.3493183"><ele>213.33333333333334</ele><time>2026-04-07T14:47:48.873Z</time></trkpt><trkpt lat="45.717055" lon="11.3494467"><ele>214.0</ele><time>2026-04-07T14:47:49.873Z</time></trkpt><trkpt lat="45.7170217" lon="11.3495583"><ele>214.66666666666669</ele><time>2026-04-07T14:47:50.873Z</time></trkpt><trkpt lat="45.716995" lon="11.3496567"><ele>215.33333333333334</ele><time>2026-04-07T14:47:51.874Z</time></trkpt><trkpt lat="45.7169733" lon="11.3497767"><ele>216.0</ele><time>2026-04-07T14:47:53.873Z</time></trkpt><trkpt lat="45.7170517" lon="11.3498783"><ele>216.0</ele><time>2026-04-07T14:47:56.874Z</time></trkpt><trkpt lat="45.7171783" lon="11.3499017"><ele>216.00000000000003</ele><time>2026-04-07T14:47:58.873Z</time></trkpt><trkpt lat="45.7172383" lon="11.3498617"><ele>216.00000000000003</ele><time>2026-04-07T14:47:59.874Z</time></trkpt><trkpt lat="45.717305" lon="11.349785"><ele>216.0</ele><time>2026-04-07T14:48:00.873Z</time></trkpt><trkpt lat="45.71738" lon="11.3497"><ele>216.0</ele><time>2026-04-07T14:48:01.874Z</time></trkpt><trkpt lat="45.7174667" lon="11.3496133"><ele>216.0</ele><time>2026-04-07T14:48:02.873Z</time></trkpt><trkpt lat="45.7175533" lon="11.34951"><ele>216.0</ele><time>2026-04-07T14:48:03.874Z</time></trkpt><trkpt lat="45.717635" lon="11.3493967"><ele>216.0</ele><time>2026-04-07T14:48:04.874Z</time></trkpt><trkpt lat="45.7177267" lon="11.3492867"><ele>216.0</ele><time>2026-04-07T14:48:05.873Z</time></trkpt><trkpt lat="45.7177817" lon="11.3491483"><ele>218.0</ele><time>2026-04-07T14:48:06.874Z</time></trkpt><trkpt lat="45.7178483" lon="11.349"><ele>220.0</ele><time>2026-04-07T14:48:07.873Z</time></trkpt><trkpt lat="45.717935" lon="11.3488583"><ele>222.0</ele><time>2026-04-07T14:48:08.873Z</time></trkpt><trkpt lat="45.7180117" lon="11.3487267"><ele>224.0</ele><time>2026-04-07T14:48:09.874Z</time></trkpt><trkpt lat="45.7180867" lon="11.348615"><ele>224.0</ele><time>2026-04-07T14:48:10.873Z</time></trkpt><trkpt lat="45.7181533" lon="11.3484867"><ele>224.0</ele><time>2026-04-07T14:48:11.874Z</time></trkpt><trkpt lat="45.7182217" lon="11.3483433"><ele>224.0</ele><time>2026-04-07T14:48:12.874Z</time></trkpt><trkpt lat="45.7182783" lon="11.34817"><ele>224.0</ele><time>2026-04-07T14:48:13.873Z</time></trkpt><trkpt lat="45.7183383" lon="11.347995"><ele>223.25</ele><time>2026-04-07T14:48:14.874Z</time></trkpt><trkpt lat="45.7184" lon="11.3478183"><ele>222.5</ele><time>2026-04-07T14:48:15.874Z</time></trkpt><trkpt lat="45.7184433" lon="11.347645"><ele>221.75</ele><time>2026-04-07T14:48:16.874Z</time></trkpt><trkpt lat="45.71849" lon="11.3474833"><ele>221.0</ele><time>2026-04-07T14:48:17.873Z</time></trkpt><trkpt lat="45.7185433" lon="11.3473167"><ele>223.60000000000002</ele><time>2026-04-07T14:48:18.874Z</time></trkpt><trkpt lat="45.7185933" lon="11.3471683"><ele>226.20000000000002</ele><time>2026-04-07T14:48:19.874Z</time></trkpt><trkpt lat="45.7186317" lon="11.34702"><ele>228.79999999999998</ele><time>2026-04-07T14:48:20.874Z</time></trkpt><trkpt lat="45.7186633" lon="11.34688"><ele>231.39999999999998</ele><time>2026-04-07T14:48:21.873Z</time></trkpt><trkpt lat="45.7186967" lon="11.3467417"><ele>234.0</ele><time>2026-04-07T14:48:22.873Z</time></trkpt><trkpt lat="45.718725" lon="11.34661"><ele>234.0</ele><time>2026-04-07T14:48:23.874Z</time></trkpt><trkpt lat="45.71874" lon="11.3464633"><ele>234.0</ele><time>2026-04-07T14:48:24.874Z</time></trkpt><trkpt lat="45.7187483" lon="11.3462933"><ele>234.0</ele><time>2026-04-07T14:48:25.874Z</time></trkpt><trkpt lat="45.71877" lon="11.3461133"><ele>234.0</ele><time>2026-04-07T14:48:26.874Z</time></trkpt><trkpt lat="45.718785" lon="11.3459083"><ele>234.75</ele><time>2026-04-07T14:48:27.873Z</time></trkpt><trkpt lat="45.7188" lon="11.34571"><ele>235.5</ele><time>2026-04-07T14:48:28.874Z</time></trkpt><trkpt lat="45.7188083" lon="11.3454817"><ele>236.25</ele><time>2026-04-07T14:48:29.874Z</time></trkpt><trkpt lat="45.7188183" lon="11.345275"><ele>237.0</ele><time>2026-04-07T14:48:30.874Z</time></trkpt><trkpt lat="45.7188367" lon="11.345085"><ele>238.0</ele><time>2026-04-07T14:48:31.874Z</time></trkpt><trkpt lat="45.7188417" lon="11.34492"><ele>239.0</ele><time>2026-04-07T14:48:32.874Z</time></trkpt><trkpt lat="45.718855" lon="11.344765"><ele>240.0</ele><time>2026-04-07T14:48:33.874Z</time></trkpt><trkpt lat="45.718875" lon="11.3446283"><ele>241.0</ele><time>2026-04-07T14:48:34.874Z</time></trkpt><trkpt lat="45.7188917" lon="11.3445"><ele>242.0</ele><time>2026-04-07T14:48:35.873Z</time></trkpt><trkpt lat="45.7189283" lon="11.3443867"><ele>242.16666666666669</ele><time>2026-04-07T14:48:36.874Z</time></trkpt><trkpt lat="45.7189567" lon="11.344285"><ele>242.33333333333334</ele><time>2026-04-07T14:48:37.874Z</time></trkpt><trkpt lat="45.7189983" lon="11.3441967"><ele>242.5</ele><time>2026-04-07T14:48:38.874Z</time></trkpt><trkpt lat="45.7190433" lon="11.34412"><ele>242.66666666666669</ele><time>2026-04-07T14:48:39.874Z</time></trkpt><trkpt lat="45.719115" lon="11.34409"><ele>242.83333333333334</ele><time>2026-04-07T14:48:40.874Z</time></trkpt><trkpt lat="45.7191933" lon="11.3440467"><ele>243.0</ele><time>2026-04-07T14:48:41.874Z</time></trkpt><trkpt lat="45.7192717" lon="11.34401"><ele>243.0</ele><time>2026-04-07T14:48:42.874Z</time></trkpt><trkpt lat="45.7193483" lon="11.3439067"><ele>243.0</ele><time>2026-04-07T14:48:43.874Z</time></trkpt><trkpt lat="45.7194083" lon="11.3437717"><ele>243.0</ele><time>2026-04-07T14:48:44.874Z</time></trkpt><trkpt lat="45.719445" lon="11.3436667"><ele>243.0</ele><time>2026-04-07T14:48:45.873Z</time></trkpt><trkpt lat="45.7195167" lon="11.3435467"><ele>243.0</ele><time>2026-04-07T14:48:47.873Z</time></trkpt><trkpt lat="45.719625" lon="11.3435567"><ele>243.33333333333334</ele><time>2026-04-07T14:48:49.874Z</time></trkpt><trkpt lat="45.7197033" lon="11.3435883"><ele>243.66666666666669</ele><time>2026-04-07T14:48:50.873Z</time></trkpt><trkpt lat="45.7198033" lon="11.3436283"><ele>244.0</ele><time>2026-04-07T14:48:51.874Z</time></trkpt><trkpt lat="45.7199033" lon="11.3436433"><ele>244.33333333333334</ele><time>2026-04-07T14:48:52.874Z</time></trkpt><trkpt lat="45.7199817" lon="11.343665"><ele>244.66666666666669</ele><time>2026-04-07T14:48:53.873Z</time></trkpt><trkpt lat="45.72005" lon="11.3437067"><ele>245.0</ele><time>2026-04-07T14:48:54.874Z</time></trkpt><trkpt lat="45.7200917" lon="11.3437817"><ele>245.25</ele><time>2026-04-07T14:48:55.873Z</time></trkpt><trkpt lat="45.7201183" lon="11.34394"><ele>245.5</ele><time>2026-04-07T14:48:57.873Z</time></trkpt><trkpt lat="45.7200767" lon="11.34404"><ele>245.75</ele><time>2026-04-07T14:48:58.874Z</time></trkpt><trkpt lat="45.7199867" lon="11.3441617"><ele>246.0</ele><time>2026-04-07T14:48:59.874Z</time></trkpt><trkpt lat="45.71989" lon="11.3442967"><ele>246.0</ele><time>2026-04-07T14:49:00.874Z</time></trkpt><trkpt lat="45.719815" lon="11.344475"><ele>246.0</ele><time>2026-04-07T14:49:01.873Z</time></trkpt><trkpt lat="45.7197417" lon="11.344675"><ele>246.0</ele><time>2026-04-07T14:49:02.874Z</time></trkpt><trkpt lat="45.7196767" lon="11.3448533"><ele>246.0</ele><time>2026-04-07T14:49:03.874Z</time></trkpt><trkpt lat="45.71961" lon="11.3450183"><ele>244.25</ele><time>2026-04-07T14:49:04.873Z</time></trkpt><trkpt lat="45.719545" lon="11.3451867"><ele>242.5</ele><time>2026-04-07T14:49:05.873Z</time></trkpt><trkpt lat="45.7194867" lon="11.3453683"><ele>240.75</ele><time>2026-04-07T14:49:06.874Z</time></trkpt><trkpt lat="45.71945" lon="11.345565"><ele>239.0</ele><time>2026-04-07T14:49:07.874Z</time></trkpt><trkpt lat="45.7194117" lon="11.3457883"><ele>238.5</ele><time>2026-04-07T14:49:08.873Z</time></trkpt><trkpt lat="45.7193767" lon="11.346015"><ele>238.0</ele><time>2026-04-07T14:49:09.873Z</time></trkpt><trkpt lat="45.719345" lon="11.346225"><ele>237.5</ele><time>2026-04-07T14:49:10.874Z</time></trkpt><trkpt lat="45.7193183" lon="11.3463933"><ele>237.0</ele><time>2026-04-07T14:49:11.873Z</time></trkpt><trkpt lat="45.7192767" lon="11.346555"><ele>236.6</ele><time>2026-04-07T14:49:12.873Z</time></trkpt><trkpt lat="45.7192367" lon="11.346695"><ele>236.2</ele><time>2026-04-07T14:49:13.874Z</time></trkpt><trkpt lat="45.719185" lon="11.3468417"><ele>235.8</ele><time>2026-04-07T14:49:14.874Z</time></trkpt><trkpt lat="45.719135" lon="11.3469833"><ele>235.4</ele><time>2026-04-07T14:49:15.874Z</time></trkpt><trkpt lat="45.7191033" lon="11.3471283"><ele>235.0</ele><time>2026-04-07T14:49:16.874Z</time></trkpt><trkpt lat="45.7190733" lon="11.347295"><ele>235.0</ele><time>2026-04-07T14:49:17.874Z</time></trkpt><trkpt lat="45.7190433" lon="11.3474633"><ele>235.0</ele><time>2026-04-07T14:49:18.874Z</time></trkpt><trkpt lat="45.719005" lon="11.3476233"><ele>235.0</ele><time>2026-04-07T14:49:19.873Z</time></trkpt><trkpt lat="45.71898" lon="11.3477917"><ele>235.0</ele><time>2026-04-07T14:49:20.874Z</time></trkpt><trkpt lat="45.718935" lon="11.34795"><ele>235.25</ele><time>2026-04-07T14:49:21.873Z</time></trkpt><trkpt lat="45.71888" lon="11.3481033"><ele>235.5</ele><time>2026-04-07T14:49:22.874Z</time></trkpt><trkpt lat="45.718825" lon="11.3482633"><ele>235.75</ele><time>2026-04-07T14:49:23.873Z</time></trkpt><trkpt lat="45.7187583" lon="11.348415"><ele>236.0</ele><time>2026-04-07T14:49:24.874Z</time></trkpt><trkpt lat="45.7186933" lon="11.3485617"><ele>236.0</ele><time>2026-04-07T14:49:25.874Z</time></trkpt><trkpt lat="45.7186117" lon="11.3487033"><ele>236.0</ele><time>2026-04-07T14:49:26.873Z</time></trkpt><trkpt lat="45.7185133" lon="11.3488283"><ele>236.0</ele><time>2026-04-07T14:49:27.874Z</time></trkpt><trkpt lat="45.7184017" lon="11.3489517"><ele>236.0</ele><time>2026-04-07T14:49:28.873Z</time></trkpt><trkpt lat="45.7182933" lon="11.3490417"><ele>234.5</ele><time>2026-04-07T14:49:29.873Z</time></trkpt><trkpt lat="45.7181817" lon="11.3491483"><ele>233.0</ele><time>2026-04-07T14:49:30.873Z</time></trkpt><trkpt lat="45.7180767" lon="11.3492883"><ele>231.5</ele><time>2026-04-07T14:49:31.873Z</time></trkpt><trkpt lat="45.7179833" lon="11.3494467"><ele>230.0</ele><time>2026-04-07T14:49:32.873Z</time></trkpt><trkpt lat="45.7178833" lon="11.349605"><ele>232.66666666666669</ele><time>2026-04-07T14:49:33.874Z</time></trkpt><trkpt lat="45.7177933" lon="11.3497833"><ele>235.33333333333331</ele><time>2026-04-07T14:49:34.873Z</time></trkpt><trkpt lat="45.7177117" lon="11.3499683"><ele>238.0</ele><time>2026-04-07T14:49:35.874Z</time></trkpt><trkpt lat="45.7176433" lon="11.35015"><ele>236.5</ele><time>2026-04-07T14:49:36.874Z</time></trkpt><trkpt lat="45.7175833" lon="11.350325"><ele>235.0</ele><time>2026-04-07T14:49:37.873Z</time></trkpt><trkpt lat="45.7175383" lon="11.3504833"><ele>233.5</ele><time>2026-04-07T14:49:38.873Z</time></trkpt><trkpt lat="45.7174917" lon="11.3506217"><ele>232.0</ele><time>2026-04-07T14:49:39.873Z</time></trkpt><trkpt lat="45.717445" lon="11.3507283"><ele>231.99999999999997</ele><time>2026-04-07T14:49:40.873Z</time></trkpt><trkpt lat="45.7174083" lon="11.35083"><ele>232.0</ele><time>2026-04-07T14:49:41.874Z</time></trkpt><trkpt lat="45.71737" lon="11.350915"><ele>232.0</ele><time>2026-04-07T14:49:42.873Z</time></trkpt><trkpt lat="45.7174067" lon="11.3510717"><ele>232.0</ele><time>2026-04-07T14:49:44.874Z</time></trkpt><trkpt lat="45.7174583" lon="11.3511383"><ele>231.99999999999997</ele><time>2026-04-07T14:49:45.874Z</time></trkpt><trkpt lat="45.7175267" lon="11.3512217"><ele>232.0</ele><time>2026-04-07T14:49:46.874Z</time></trkpt><trkpt lat="45.717595" lon="11.3513283"><ele>232.2</ele><time>2026-04-07T14:49:47.874Z</time></trkpt><trkpt lat="45.717675" lon="11.35145"><ele>232.39999999999998</ele><time>2026-04-07T14:49:48.873Z</time></trkpt><trkpt lat="45.71776" lon="11.35156"><ele>232.60000000000002</ele><time>2026-04-07T14:49:49.873Z</time></trkpt><trkpt lat="45.71784" lon="11.351625"><ele>232.8</ele><time>2026-04-07T14:49:50.873Z</time></trkpt><trkpt lat="45.7179283" lon="11.3516333"><ele>233.0</ele><time>2026-04-07T14:49:51.872Z</time></trkpt><trkpt lat="45.7180033" lon="11.3516033"><ele>232.60000000000002</ele><time>2026-04-07T14:49:52.873Z</time></trkpt><trkpt lat="45.718065" lon="11.3515233"><ele>232.20000000000002</ele><time>2026-04-07T14:49:53.872Z</time></trkpt><trkpt lat="45.718105" lon="11.3514"><ele>231.8</ele><time>2026-04-07T14:49:54.873Z</time></trkpt><trkpt lat="45.7181167" lon="11.3512483"><ele>231.4</ele><time>2026-04-07T14:49:55.872Z</time></trkpt><trkpt lat="45.718115" lon="11.351075"><ele>231.0</ele><time>2026-04-07T14:49:56.873Z</time></trkpt><trkpt lat="45.7181267" lon="11.3509133"><ele>235.0</ele><time>2026-04-07T14:49:57.872Z</time></trkpt><trkpt lat="45.7181333" lon="11.35076"><ele>235.0</ele><time>2026-04-07T14:49:58.872Z</time></trkpt><trkpt lat="45.7181367" lon="11.350645"><ele>235.0</ele><time>2026-04-07T14:49:59.872Z</time></trkpt><trkpt lat="45.7181417" lon="11.35055"><ele>235.0</ele><time>2026-04-07T14:50:00.873Z</time></trkpt><trkpt lat="45.7181567" lon="11.350405"><ele>238.0</ele><time>2026-04-07T14:50:02.872Z</time></trkpt><trkpt lat="45.718135" lon="11.350315"><ele>238.0</ele><time>2026-04-07T14:50:05.873Z</time></trkpt></trkseg></trk></gpx>